<?xml version="1.0" encoding="UTF-8" standalone="no" ?>
<gpx xmlns="http://www.topografix.com/GPX/1/1" xmlns:xsi="http://www.w3.org/2001/XMLSchema-instance" xsi:schemaLocation="http://www.topografix.com/GPX/1/1 http://www.topografix.com/GPX/1/1/gpx.xsd" version="1.1" creator="VisuGPX - https://www.visugpx.com">
  <metadata>
    <name>vtt à roquesteron</name>
    <desc><![CDATA[rando avec nicolas... belles descentes]]></desc>
  </metadata>
  <trk>
    <name><![CDATA[vtt roquesteron]]></name>
    <desc><![CDATA[avec nicolas, rando organisé...]]></desc>
    <trkseg>
      <trkpt lat="43.87402" lon="7.00932">
        <ele>332.60000610352</ele>
        <time>2011-05-08T07:07:27.000Z</time>
      </trkpt>
      <trkpt lat="43.87403" lon="7.00936">
        <ele>332.79998779297</ele>
        <time>2011-05-08T07:07:28.000Z</time>
      </trkpt>
      <trkpt lat="43.87408" lon="7.00941">
        <ele>332.60000610352</ele>
        <time>2011-05-08T07:07:30.000Z</time>
      </trkpt>
      <trkpt lat="43.8742" lon="7.0095">
        <ele>331.79998779297</ele>
        <time>2011-05-08T07:07:34.000Z</time>
      </trkpt>
      <trkpt lat="43.87427" lon="7.00952">
        <ele>331.79998779297</ele>
        <time>2011-05-08T07:07:36.000Z</time>
      </trkpt>
      <trkpt lat="43.87438" lon="7.00948">
        <ele>331.20001220703</ele>
        <time>2011-05-08T07:07:39.000Z</time>
      </trkpt>
      <trkpt lat="43.87449" lon="7.00945">
        <ele>330.60000610352</ele>
        <time>2011-05-08T07:07:42.000Z</time>
      </trkpt>
      <trkpt lat="43.87457" lon="7.00942">
        <ele>330.20001220703</ele>
        <time>2011-05-08T07:07:44.000Z</time>
      </trkpt>
      <trkpt lat="43.87474" lon="7.00935">
        <ele>330</ele>
        <time>2011-05-08T07:07:49.000Z</time>
      </trkpt>
      <trkpt lat="43.8748" lon="7.00931">
        <ele>330</ele>
        <time>2011-05-08T07:07:51.000Z</time>
      </trkpt>
      <trkpt lat="43.87487" lon="7.00919">
        <ele>330.20001220703</ele>
        <time>2011-05-08T07:07:56.000Z</time>
      </trkpt>
      <trkpt lat="43.87487" lon="7.00917">
        <ele>330.20001220703</ele>
        <time>2011-05-08T07:07:57.000Z</time>
      </trkpt>
      <trkpt lat="43.87488" lon="7.00912">
        <ele>330.60000610352</ele>
        <time>2011-05-08T07:08:01.000Z</time>
      </trkpt>
      <trkpt lat="43.87485" lon="7.00908">
        <ele>330.79998779297</ele>
        <time>2011-05-08T07:08:05.000Z</time>
      </trkpt>
      <trkpt lat="43.87484" lon="7.00907">
        <ele>330.79998779297</ele>
        <time>2011-05-08T07:08:07.000Z</time>
      </trkpt>
      <trkpt lat="43.87481" lon="7.00896">
        <ele>331.39999389648</ele>
        <time>2011-05-08T07:08:11.000Z</time>
      </trkpt>
      <trkpt lat="43.8748" lon="7.00891">
        <ele>331.60000610352</ele>
        <time>2011-05-08T07:08:12.000Z</time>
      </trkpt>
      <trkpt lat="43.87476" lon="7.0087">
        <ele>332.79998779297</ele>
        <time>2011-05-08T07:08:16.000Z</time>
      </trkpt>
      <trkpt lat="43.87472" lon="7.00858">
        <ele>333</ele>
        <time>2011-05-08T07:08:18.000Z</time>
      </trkpt>
      <trkpt lat="43.87468" lon="7.00845">
        <ele>333</ele>
        <time>2011-05-08T07:08:20.000Z</time>
      </trkpt>
      <trkpt lat="43.87456" lon="7.0082">
        <ele>332</ele>
        <time>2011-05-08T07:08:24.000Z</time>
      </trkpt>
      <trkpt lat="43.87444" lon="7.00793">
        <ele>331</ele>
        <time>2011-05-08T07:08:28.000Z</time>
      </trkpt>
      <trkpt lat="43.87434" lon="7.00771">
        <ele>329.79998779297</ele>
        <time>2011-05-08T07:08:31.000Z</time>
      </trkpt>
      <trkpt lat="43.87424" lon="7.00749">
        <ele>328.20001220703</ele>
        <time>2011-05-08T07:08:34.000Z</time>
      </trkpt>
      <trkpt lat="43.87414" lon="7.00728">
        <ele>327.60000610352</ele>
        <time>2011-05-08T07:08:37.000Z</time>
      </trkpt>
      <trkpt lat="43.87411" lon="7.00721">
        <ele>327.79998779297</ele>
        <time>2011-05-08T07:08:38.000Z</time>
      </trkpt>
      <trkpt lat="43.87401" lon="7.00701">
        <ele>328.39999389648</ele>
        <time>2011-05-08T07:08:41.000Z</time>
      </trkpt>
      <trkpt lat="43.87389" lon="7.00675">
        <ele>328.39999389648</ele>
        <time>2011-05-08T07:08:45.000Z</time>
      </trkpt>
      <trkpt lat="43.87382" lon="7.00663">
        <ele>327.79998779297</ele>
        <time>2011-05-08T07:08:47.000Z</time>
      </trkpt>
      <trkpt lat="43.87373" lon="7.00656">
        <ele>326.39999389648</ele>
        <time>2011-05-08T07:08:49.000Z</time>
      </trkpt>
      <trkpt lat="43.87352" lon="7.00646">
        <ele>322.60000610352</ele>
        <time>2011-05-08T07:08:53.000Z</time>
      </trkpt>
      <trkpt lat="43.87347" lon="7.00643">
        <ele>321.79998779297</ele>
        <time>2011-05-08T07:08:54.000Z</time>
      </trkpt>
      <trkpt lat="43.87338" lon="7.00634">
        <ele>320.20001220703</ele>
        <time>2011-05-08T07:08:56.000Z</time>
      </trkpt>
      <trkpt lat="43.87334" lon="7.00629">
        <ele>319.60000610352</ele>
        <time>2011-05-08T07:08:57.000Z</time>
      </trkpt>
      <trkpt lat="43.87331" lon="7.00624">
        <ele>319.39999389648</ele>
        <time>2011-05-08T07:08:58.000Z</time>
      </trkpt>
      <trkpt lat="43.87324" lon="7.00615">
        <ele>319.39999389648</ele>
        <time>2011-05-08T07:09:00.000Z</time>
      </trkpt>
      <trkpt lat="43.87321" lon="7.00611">
        <ele>319.39999389648</ele>
        <time>2011-05-08T07:09:01.000Z</time>
      </trkpt>
      <trkpt lat="43.87304" lon="7.00604">
        <ele>319</ele>
        <time>2011-05-08T07:09:05.000Z</time>
      </trkpt>
      <trkpt lat="43.873" lon="7.00603">
        <ele>319</ele>
        <time>2011-05-08T07:09:06.000Z</time>
      </trkpt>
      <trkpt lat="43.87277" lon="7.00598">
        <ele>318.39999389648</ele>
        <time>2011-05-08T07:09:11.000Z</time>
      </trkpt>
      <trkpt lat="43.87259" lon="7.00594">
        <ele>318</ele>
        <time>2011-05-08T07:09:15.000Z</time>
      </trkpt>
      <trkpt lat="43.87255" lon="7.00592">
        <ele>318</ele>
        <time>2011-05-08T07:09:16.000Z</time>
      </trkpt>
      <trkpt lat="43.8725" lon="7.00576">
        <ele>318.60000610352</ele>
        <time>2011-05-08T07:09:19.000Z</time>
      </trkpt>
      <trkpt lat="43.8725" lon="7.00569">
        <ele>319.39999389648</ele>
        <time>2011-05-08T07:09:20.000Z</time>
      </trkpt>
      <trkpt lat="43.87249" lon="7.0054">
        <ele>322.79998779297</ele>
        <time>2011-05-08T07:09:24.000Z</time>
      </trkpt>
      <trkpt lat="43.87249" lon="7.00533">
        <ele>323.60000610352</ele>
        <time>2011-05-08T07:09:25.000Z</time>
      </trkpt>
      <trkpt lat="43.87247" lon="7.00521">
        <ele>325.20001220703</ele>
        <time>2011-05-08T07:09:27.000Z</time>
      </trkpt>
      <trkpt lat="43.87245" lon="7.00511">
        <ele>327</ele>
        <time>2011-05-08T07:09:29.000Z</time>
      </trkpt>
      <trkpt lat="43.87244" lon="7.00507">
        <ele>327.79998779297</ele>
        <time>2011-05-08T07:09:30.000Z</time>
      </trkpt>
      <trkpt lat="43.87244" lon="7.00502">
        <ele>328.20001220703</ele>
        <time>2011-05-08T07:09:31.000Z</time>
      </trkpt>
      <trkpt lat="43.87245" lon="7.00484">
        <ele>331.39999389648</ele>
        <time>2011-05-08T07:09:35.000Z</time>
      </trkpt>
      <trkpt lat="43.87247" lon="7.00476">
        <ele>332.39999389648</ele>
        <time>2011-05-08T07:09:37.000Z</time>
      </trkpt>
      <trkpt lat="43.87251" lon="7.00459">
        <ele>334.20001220703</ele>
        <time>2011-05-08T07:09:41.000Z</time>
      </trkpt>
      <trkpt lat="43.87252" lon="7.00455">
        <ele>334.60000610352</ele>
        <time>2011-05-08T07:09:42.000Z</time>
      </trkpt>
      <trkpt lat="43.8726" lon="7.00436">
        <ele>336.60000610352</ele>
        <time>2011-05-08T07:09:47.000Z</time>
      </trkpt>
      <trkpt lat="43.87262" lon="7.00424">
        <ele>338</ele>
        <time>2011-05-08T07:09:50.000Z</time>
      </trkpt>
      <trkpt lat="43.87263" lon="7.00411">
        <ele>339.20001220703</ele>
        <time>2011-05-08T07:09:53.000Z</time>
      </trkpt>
      <trkpt lat="43.87261" lon="7.00403">
        <ele>339.79998779297</ele>
        <time>2011-05-08T07:09:55.000Z</time>
      </trkpt>
      <trkpt lat="43.87261" lon="7.00383">
        <ele>340.60000610352</ele>
        <time>2011-05-08T07:10:00.000Z</time>
      </trkpt>
      <trkpt lat="43.87261" lon="7.00378">
        <ele>340.60000610352</ele>
        <time>2011-05-08T07:10:01.000Z</time>
      </trkpt>
      <trkpt lat="43.87263" lon="7.00357">
        <ele>340.79998779297</ele>
        <time>2011-05-08T07:10:06.000Z</time>
      </trkpt>
      <trkpt lat="43.87262" lon="7.00348">
        <ele>341.20001220703</ele>
        <time>2011-05-08T07:10:08.000Z</time>
      </trkpt>
      <trkpt lat="43.87263" lon="7.00331">
        <ele>341.60000610352</ele>
        <time>2011-05-08T07:10:12.000Z</time>
      </trkpt>
      <trkpt lat="43.87262" lon="7.00318">
        <ele>341.79998779297</ele>
        <time>2011-05-08T07:10:15.000Z</time>
      </trkpt>
      <trkpt lat="43.87266" lon="7.00304">
        <ele>341</ele>
        <time>2011-05-08T07:10:19.000Z</time>
      </trkpt>
      <trkpt lat="43.87266" lon="7.00295">
        <ele>340.79998779297</ele>
        <time>2011-05-08T07:10:21.000Z</time>
      </trkpt>
      <trkpt lat="43.87266" lon="7.00276">
        <ele>341.20001220703</ele>
        <time>2011-05-08T07:10:25.000Z</time>
      </trkpt>
      <trkpt lat="43.87266" lon="7.00265">
        <ele>341.20001220703</ele>
        <time>2011-05-08T07:10:27.000Z</time>
      </trkpt>
      <trkpt lat="43.87267" lon="7.00252">
        <ele>341</ele>
        <time>2011-05-08T07:10:29.000Z</time>
      </trkpt>
      <trkpt lat="43.87268" lon="7.0023">
        <ele>341.20001220703</ele>
        <time>2011-05-08T07:10:32.000Z</time>
      </trkpt>
      <trkpt lat="43.87267" lon="7.00222">
        <ele>341.60000610352</ele>
        <time>2011-05-08T07:10:33.000Z</time>
      </trkpt>
      <trkpt lat="43.87265" lon="7.00194">
        <ele>342.39999389648</ele>
        <time>2011-05-08T07:10:36.000Z</time>
      </trkpt>
      <trkpt lat="43.87266" lon="7.00184">
        <ele>342.39999389648</ele>
        <time>2011-05-08T07:10:37.000Z</time>
      </trkpt>
      <trkpt lat="43.87269" lon="7.00166">
        <ele>342</ele>
        <time>2011-05-08T07:10:39.000Z</time>
      </trkpt>
      <trkpt lat="43.87273" lon="7.00153">
        <ele>343.39999389648</ele>
        <time>2011-05-08T07:10:41.000Z</time>
      </trkpt>
      <trkpt lat="43.87277" lon="7.00138">
        <ele>344.79998779297</ele>
        <time>2011-05-08T07:10:44.000Z</time>
      </trkpt>
      <trkpt lat="43.87278" lon="7.0013">
        <ele>345.39999389648</ele>
        <time>2011-05-08T07:10:46.000Z</time>
      </trkpt>
      <trkpt lat="43.87282" lon="7.0011">
        <ele>347</ele>
        <time>2011-05-08T07:10:50.000Z</time>
      </trkpt>
      <trkpt lat="43.87284" lon="7.00101">
        <ele>347.20001220703</ele>
        <time>2011-05-08T07:10:52.000Z</time>
      </trkpt>
      <trkpt lat="43.87289" lon="7.00088">
        <ele>346.79998779297</ele>
        <time>2011-05-08T07:10:55.000Z</time>
      </trkpt>
      <trkpt lat="43.87296" lon="7.00074">
        <ele>346</ele>
        <time>2011-05-08T07:10:58.000Z</time>
      </trkpt>
      <trkpt lat="43.87301" lon="7.00066">
        <ele>345</ele>
        <time>2011-05-08T07:11:00.000Z</time>
      </trkpt>
      <trkpt lat="43.87311" lon="7.00042">
        <ele>343.20001220703</ele>
        <time>2011-05-08T07:11:05.000Z</time>
      </trkpt>
      <trkpt lat="43.87314" lon="7.00016">
        <ele>344.79998779297</ele>
        <time>2011-05-08T07:11:10.000Z</time>
      </trkpt>
      <trkpt lat="43.87314" lon="7.00011">
        <ele>345.39999389648</ele>
        <time>2011-05-08T07:11:11.000Z</time>
      </trkpt>
      <trkpt lat="43.87317" lon="6.99989">
        <ele>344.20001220703</ele>
        <time>2011-05-08T07:11:15.000Z</time>
      </trkpt>
      <trkpt lat="43.8732" lon="6.99985">
        <ele>342.60000610352</ele>
        <time>2011-05-08T07:11:16.000Z</time>
      </trkpt>
      <trkpt lat="43.87327" lon="6.99965">
        <ele>337.20001220703</ele>
        <time>2011-05-08T07:11:20.000Z</time>
      </trkpt>
      <trkpt lat="43.87329" lon="6.99948">
        <ele>342.20001220703</ele>
        <time>2011-05-08T07:11:23.000Z</time>
      </trkpt>
      <trkpt lat="43.87329" lon="6.99935">
        <ele>343.79998779297</ele>
        <time>2011-05-08T07:11:25.000Z</time>
      </trkpt>
      <trkpt lat="43.8733" lon="6.99928">
        <ele>344</ele>
        <time>2011-05-08T07:11:26.000Z</time>
      </trkpt>
      <trkpt lat="43.87331" lon="6.99912">
        <ele>344.20001220703</ele>
        <time>2011-05-08T07:11:28.000Z</time>
      </trkpt>
      <trkpt lat="43.87331" lon="6.99904">
        <ele>344.20001220703</ele>
        <time>2011-05-08T07:11:29.000Z</time>
      </trkpt>
      <trkpt lat="43.87333" lon="6.99872">
        <ele>342.79998779297</ele>
        <time>2011-05-08T07:11:33.000Z</time>
      </trkpt>
      <trkpt lat="43.87334" lon="6.99855">
        <ele>342.60000610352</ele>
        <time>2011-05-08T07:11:35.000Z</time>
      </trkpt>
      <trkpt lat="43.87335" lon="6.99841">
        <ele>342.60000610352</ele>
        <time>2011-05-08T07:11:37.000Z</time>
      </trkpt>
      <trkpt lat="43.87336" lon="6.99814">
        <ele>343.39999389648</ele>
        <time>2011-05-08T07:11:41.000Z</time>
      </trkpt>
      <trkpt lat="43.87338" lon="6.99788">
        <ele>344.20001220703</ele>
        <time>2011-05-08T07:11:45.000Z</time>
      </trkpt>
      <trkpt lat="43.8734" lon="6.99775">
        <ele>344.39999389648</ele>
        <time>2011-05-08T07:11:47.000Z</time>
      </trkpt>
      <trkpt lat="43.8734" lon="6.99761">
        <ele>345</ele>
        <time>2011-05-08T07:11:49.000Z</time>
      </trkpt>
      <trkpt lat="43.8734" lon="6.99746">
        <ele>346</ele>
        <time>2011-05-08T07:11:51.000Z</time>
      </trkpt>
      <trkpt lat="43.87341" lon="6.99739">
        <ele>346.39999389648</ele>
        <time>2011-05-08T07:11:52.000Z</time>
      </trkpt>
      <trkpt lat="43.87342" lon="6.99731">
        <ele>347</ele>
        <time>2011-05-08T07:11:53.000Z</time>
      </trkpt>
      <trkpt lat="43.87344" lon="6.99704">
        <ele>349.20001220703</ele>
        <time>2011-05-08T07:11:57.000Z</time>
      </trkpt>
      <trkpt lat="43.87345" lon="6.99698">
        <ele>349.39999389648</ele>
        <time>2011-05-08T07:11:58.000Z</time>
      </trkpt>
      <trkpt lat="43.87348" lon="6.99676">
        <ele>350.60000610352</ele>
        <time>2011-05-08T07:12:02.000Z</time>
      </trkpt>
      <trkpt lat="43.87352" lon="6.99663">
        <ele>351</ele>
        <time>2011-05-08T07:12:04.000Z</time>
      </trkpt>
      <trkpt lat="43.87358" lon="6.9965">
        <ele>352</ele>
        <time>2011-05-08T07:12:06.000Z</time>
      </trkpt>
      <trkpt lat="43.87367" lon="6.99628">
        <ele>352.60000610352</ele>
        <time>2011-05-08T07:12:10.000Z</time>
      </trkpt>
      <trkpt lat="43.87376" lon="6.99602">
        <ele>352.79998779297</ele>
        <time>2011-05-08T07:12:15.000Z</time>
      </trkpt>
      <trkpt lat="43.87385" lon="6.99585">
        <ele>350.20001220703</ele>
        <time>2011-05-08T07:12:18.000Z</time>
      </trkpt>
      <trkpt lat="43.87388" lon="6.9958">
        <ele>349.20001220703</ele>
        <time>2011-05-08T07:12:19.000Z</time>
      </trkpt>
      <trkpt lat="43.87397" lon="6.99558">
        <ele>347</ele>
        <time>2011-05-08T07:12:22.000Z</time>
      </trkpt>
      <trkpt lat="43.874" lon="6.99551">
        <ele>346.60000610352</ele>
        <time>2011-05-08T07:12:23.000Z</time>
      </trkpt>
      <trkpt lat="43.87408" lon="6.9953">
        <ele>344.60000610352</ele>
        <time>2011-05-08T07:12:26.000Z</time>
      </trkpt>
      <trkpt lat="43.87414" lon="6.99504">
        <ele>344</ele>
        <time>2011-05-08T07:12:30.000Z</time>
      </trkpt>
      <trkpt lat="43.87418" lon="6.99492">
        <ele>344.60000610352</ele>
        <time>2011-05-08T07:12:32.000Z</time>
      </trkpt>
      <trkpt lat="43.87421" lon="6.99475">
        <ele>347.79998779297</ele>
        <time>2011-05-08T07:12:35.000Z</time>
      </trkpt>
      <trkpt lat="43.87422" lon="6.99469">
        <ele>348.60000610352</ele>
        <time>2011-05-08T07:12:36.000Z</time>
      </trkpt>
      <trkpt lat="43.87426" lon="6.99448">
        <ele>352</ele>
        <time>2011-05-08T07:12:41.000Z</time>
      </trkpt>
      <trkpt lat="43.87426" lon="6.99445">
        <ele>352.60000610352</ele>
        <time>2011-05-08T07:12:42.000Z</time>
      </trkpt>
      <trkpt lat="43.87428" lon="6.99436">
        <ele>353.60000610352</ele>
        <time>2011-05-08T07:12:46.000Z</time>
      </trkpt>
      <trkpt lat="43.87434" lon="6.99425">
        <ele>354</ele>
        <time>2011-05-08T07:12:52.000Z</time>
      </trkpt>
      <trkpt lat="43.87439" lon="6.99406">
        <ele>355.20001220703</ele>
        <time>2011-05-08T07:13:01.000Z</time>
      </trkpt>
      <trkpt lat="43.8744" lon="6.994">
        <ele>355.79998779297</ele>
        <time>2011-05-08T07:13:04.000Z</time>
      </trkpt>
      <trkpt lat="43.87442" lon="6.99388">
        <ele>357</ele>
        <time>2011-05-08T07:13:09.000Z</time>
      </trkpt>
      <trkpt lat="43.87444" lon="6.99375">
        <ele>357.79998779297</ele>
        <time>2011-05-08T07:13:15.000Z</time>
      </trkpt>
      <trkpt lat="43.87446" lon="6.99371">
        <ele>358</ele>
        <time>2011-05-08T07:13:17.000Z</time>
      </trkpt>
      <trkpt lat="43.87453" lon="6.99354">
        <ele>357.39999389648</ele>
        <time>2011-05-08T07:13:25.000Z</time>
      </trkpt>
      <trkpt lat="43.87453" lon="6.99352">
        <ele>357.39999389648</ele>
        <time>2011-05-08T07:13:26.000Z</time>
      </trkpt>
      <trkpt lat="43.87455" lon="6.99336">
        <ele>358.39999389648</ele>
        <time>2011-05-08T07:13:32.000Z</time>
      </trkpt>
      <trkpt lat="43.87456" lon="6.99334">
        <ele>358.39999389648</ele>
        <time>2011-05-08T07:13:33.000Z</time>
      </trkpt>
      <trkpt lat="43.87456" lon="6.99329">
        <ele>359</ele>
        <time>2011-05-08T07:13:35.000Z</time>
      </trkpt>
      <trkpt lat="43.87455" lon="6.99326">
        <ele>359.39999389648</ele>
        <time>2011-05-08T07:13:36.000Z</time>
      </trkpt>
      <trkpt lat="43.87456" lon="6.99308">
        <ele>360</ele>
        <time>2011-05-08T07:13:43.000Z</time>
      </trkpt>
      <trkpt lat="43.87457" lon="6.99303">
        <ele>360.20001220703</ele>
        <time>2011-05-08T07:13:45.000Z</time>
      </trkpt>
      <trkpt lat="43.87455" lon="6.99291">
        <ele>361.79998779297</ele>
        <time>2011-05-08T07:13:51.000Z</time>
      </trkpt>
      <trkpt lat="43.8745" lon="6.99292">
        <ele>364.20001220703</ele>
        <time>2011-05-08T07:13:55.000Z</time>
      </trkpt>
      <trkpt lat="43.87447" lon="6.99297">
        <ele>365.20001220703</ele>
        <time>2011-05-08T07:13:58.000Z</time>
      </trkpt>
      <trkpt lat="43.87444" lon="6.99305">
        <ele>366.39999389648</ele>
        <time>2011-05-08T07:14:02.000Z</time>
      </trkpt>
      <trkpt lat="43.87439" lon="6.99308">
        <ele>368.60000610352</ele>
        <time>2011-05-08T07:14:05.000Z</time>
      </trkpt>
      <trkpt lat="43.87437" lon="6.99305">
        <ele>370</ele>
        <time>2011-05-08T07:14:07.000Z</time>
      </trkpt>
      <trkpt lat="43.87435" lon="6.99301">
        <ele>371.20001220703</ele>
        <time>2011-05-08T07:14:09.000Z</time>
      </trkpt>
      <trkpt lat="43.87435" lon="6.99292">
        <ele>371.79998779297</ele>
        <time>2011-05-08T07:14:13.000Z</time>
      </trkpt>
      <trkpt lat="43.87435" lon="6.99286">
        <ele>372.20001220703</ele>
        <time>2011-05-08T07:14:16.000Z</time>
      </trkpt>
      <trkpt lat="43.87436" lon="6.99275">
        <ele>372.60000610352</ele>
        <time>2011-05-08T07:14:21.000Z</time>
      </trkpt>
      <trkpt lat="43.87435" lon="6.99268">
        <ele>373.60000610352</ele>
        <time>2011-05-08T07:14:26.000Z</time>
      </trkpt>
      <trkpt lat="43.87435" lon="6.99265">
        <ele>374</ele>
        <time>2011-05-08T07:14:28.000Z</time>
      </trkpt>
      <trkpt lat="43.87434" lon="6.99251">
        <ele>375.20001220703</ele>
        <time>2011-05-08T07:14:35.000Z</time>
      </trkpt>
      <trkpt lat="43.87435" lon="6.99248">
        <ele>375.39999389648</ele>
        <time>2011-05-08T07:14:36.000Z</time>
      </trkpt>
      <trkpt lat="43.87437" lon="6.99226">
        <ele>375.39999389648</ele>
        <time>2011-05-08T07:14:45.000Z</time>
      </trkpt>
      <trkpt lat="43.87437" lon="6.99223">
        <ele>375.60000610352</ele>
        <time>2011-05-08T07:14:46.000Z</time>
      </trkpt>
      <trkpt lat="43.87441" lon="6.99199">
        <ele>374.79998779297</ele>
        <time>2011-05-08T07:14:55.000Z</time>
      </trkpt>
      <trkpt lat="43.87444" lon="6.99179">
        <ele>374.79998779297</ele>
        <time>2011-05-08T07:15:03.000Z</time>
      </trkpt>
      <trkpt lat="43.87444" lon="6.99174">
        <ele>374.79998779297</ele>
        <time>2011-05-08T07:15:05.000Z</time>
      </trkpt>
      <trkpt lat="43.87444" lon="6.99158">
        <ele>375.20001220703</ele>
        <time>2011-05-08T07:15:12.000Z</time>
      </trkpt>
      <trkpt lat="43.87442" lon="6.9915">
        <ele>376.20001220703</ele>
        <time>2011-05-08T07:15:16.000Z</time>
      </trkpt>
      <trkpt lat="43.8744" lon="6.99143">
        <ele>377.20001220703</ele>
        <time>2011-05-08T07:15:19.000Z</time>
      </trkpt>
      <trkpt lat="43.87434" lon="6.99126">
        <ele>380</ele>
        <time>2011-05-08T07:15:27.000Z</time>
      </trkpt>
      <trkpt lat="43.8743" lon="6.99108">
        <ele>381.39999389648</ele>
        <time>2011-05-08T07:15:35.000Z</time>
      </trkpt>
      <trkpt lat="43.87429" lon="6.99101">
        <ele>382</ele>
        <time>2011-05-08T07:15:38.000Z</time>
      </trkpt>
      <trkpt lat="43.87427" lon="6.99089">
        <ele>383</ele>
        <time>2011-05-08T07:15:43.000Z</time>
      </trkpt>
      <trkpt lat="43.87424" lon="6.99075">
        <ele>383.20001220703</ele>
        <time>2011-05-08T07:15:49.000Z</time>
      </trkpt>
      <trkpt lat="43.87423" lon="6.99071">
        <ele>383.20001220703</ele>
        <time>2011-05-08T07:15:51.000Z</time>
      </trkpt>
      <trkpt lat="43.87418" lon="6.99053">
        <ele>383.39999389648</ele>
        <time>2011-05-08T07:15:58.000Z</time>
      </trkpt>
      <trkpt lat="43.87416" lon="6.9905">
        <ele>383.79998779297</ele>
        <time>2011-05-08T07:15:59.000Z</time>
      </trkpt>
      <trkpt lat="43.87406" lon="6.99036">
        <ele>387.39999389648</ele>
        <time>2011-05-08T07:16:04.000Z</time>
      </trkpt>
      <trkpt lat="43.87402" lon="6.99029">
        <ele>388.60000610352</ele>
        <time>2011-05-08T07:16:06.000Z</time>
      </trkpt>
      <trkpt lat="43.87395" lon="6.99007">
        <ele>389.20001220703</ele>
        <time>2011-05-08T07:16:11.000Z</time>
      </trkpt>
      <trkpt lat="43.87394" lon="6.99002">
        <ele>389</ele>
        <time>2011-05-08T07:16:12.000Z</time>
      </trkpt>
      <trkpt lat="43.87389" lon="6.98977">
        <ele>385.60000610352</ele>
        <time>2011-05-08T07:16:16.000Z</time>
      </trkpt>
      <trkpt lat="43.87387" lon="6.98971">
        <ele>384.79998779297</ele>
        <time>2011-05-08T07:16:17.000Z</time>
      </trkpt>
      <trkpt lat="43.87385" lon="6.98965">
        <ele>383.79998779297</ele>
        <time>2011-05-08T07:16:18.000Z</time>
      </trkpt>
      <trkpt lat="43.87381" lon="6.98947">
        <ele>381.39999389648</ele>
        <time>2011-05-08T07:16:20.000Z</time>
      </trkpt>
      <trkpt lat="43.87379" lon="6.98941">
        <ele>380.79998779297</ele>
        <time>2011-05-08T07:16:21.000Z</time>
      </trkpt>
      <trkpt lat="43.87375" lon="6.98933">
        <ele>380.20001220703</ele>
        <time>2011-05-08T07:16:22.000Z</time>
      </trkpt>
      <trkpt lat="43.87368" lon="6.98921">
        <ele>380</ele>
        <time>2011-05-08T07:16:24.000Z</time>
      </trkpt>
      <trkpt lat="43.87365" lon="6.98916">
        <ele>380.20001220703</ele>
        <time>2011-05-08T07:16:25.000Z</time>
      </trkpt>
      <trkpt lat="43.87356" lon="6.98897">
        <ele>378.20001220703</ele>
        <time>2011-05-08T07:16:28.000Z</time>
      </trkpt>
      <trkpt lat="43.87347" lon="6.98875">
        <ele>374.20001220703</ele>
        <time>2011-05-08T07:16:31.000Z</time>
      </trkpt>
      <trkpt lat="43.8734" lon="6.98854">
        <ele>369.79998779297</ele>
        <time>2011-05-08T07:16:34.000Z</time>
      </trkpt>
      <trkpt lat="43.87336" lon="6.98849">
        <ele>369.60000610352</ele>
        <time>2011-05-08T07:16:35.000Z</time>
      </trkpt>
      <trkpt lat="43.87317" lon="6.98845">
        <ele>373</ele>
        <time>2011-05-08T07:16:38.000Z</time>
      </trkpt>
      <trkpt lat="43.87299" lon="6.98834">
        <ele>373.20001220703</ele>
        <time>2011-05-08T07:16:41.000Z</time>
      </trkpt>
      <trkpt lat="43.87288" lon="6.98827">
        <ele>374.60000610352</ele>
        <time>2011-05-08T07:16:43.000Z</time>
      </trkpt>
      <trkpt lat="43.87281" lon="6.98826">
        <ele>375.79998779297</ele>
        <time>2011-05-08T07:16:44.000Z</time>
      </trkpt>
      <trkpt lat="43.87275" lon="6.98825">
        <ele>377.20001220703</ele>
        <time>2011-05-08T07:16:45.000Z</time>
      </trkpt>
      <trkpt lat="43.87263" lon="6.98826">
        <ele>380</ele>
        <time>2011-05-08T07:16:47.000Z</time>
      </trkpt>
      <trkpt lat="43.87252" lon="6.98823">
        <ele>382.20001220703</ele>
        <time>2011-05-08T07:16:49.000Z</time>
      </trkpt>
      <trkpt lat="43.87246" lon="6.9882">
        <ele>382.39999389648</ele>
        <time>2011-05-08T07:16:50.000Z</time>
      </trkpt>
      <trkpt lat="43.87241" lon="6.98817">
        <ele>382.39999389648</ele>
        <time>2011-05-08T07:16:51.000Z</time>
      </trkpt>
      <trkpt lat="43.87225" lon="6.98808">
        <ele>382.39999389648</ele>
        <time>2011-05-08T07:16:54.000Z</time>
      </trkpt>
      <trkpt lat="43.8722" lon="6.98803">
        <ele>382</ele>
        <time>2011-05-08T07:16:55.000Z</time>
      </trkpt>
      <trkpt lat="43.87214" lon="6.98798">
        <ele>381.79998779297</ele>
        <time>2011-05-08T07:16:56.000Z</time>
      </trkpt>
      <trkpt lat="43.87201" lon="6.98788">
        <ele>381.39999389648</ele>
        <time>2011-05-08T07:16:58.000Z</time>
      </trkpt>
      <trkpt lat="43.87184" lon="6.98785">
        <ele>382.20001220703</ele>
        <time>2011-05-08T07:17:00.000Z</time>
      </trkpt>
      <trkpt lat="43.87175" lon="6.98785">
        <ele>382.79998779297</ele>
        <time>2011-05-08T07:17:01.000Z</time>
      </trkpt>
      <trkpt lat="43.8716" lon="6.98783">
        <ele>383.20001220703</ele>
        <time>2011-05-08T07:17:03.000Z</time>
      </trkpt>
      <trkpt lat="43.87154" lon="6.9878">
        <ele>382.79998779297</ele>
        <time>2011-05-08T07:17:04.000Z</time>
      </trkpt>
      <trkpt lat="43.87137" lon="6.98766">
        <ele>380.79998779297</ele>
        <time>2011-05-08T07:17:07.000Z</time>
      </trkpt>
      <trkpt lat="43.87132" lon="6.98761">
        <ele>380</ele>
        <time>2011-05-08T07:17:08.000Z</time>
      </trkpt>
      <trkpt lat="43.87118" lon="6.98747">
        <ele>378.79998779297</ele>
        <time>2011-05-08T07:17:11.000Z</time>
      </trkpt>
      <trkpt lat="43.87104" lon="6.98736">
        <ele>380</ele>
        <time>2011-05-08T07:17:14.000Z</time>
      </trkpt>
      <trkpt lat="43.87099" lon="6.98732">
        <ele>380.39999389648</ele>
        <time>2011-05-08T07:17:15.000Z</time>
      </trkpt>
      <trkpt lat="43.87079" lon="6.98715">
        <ele>381</ele>
        <time>2011-05-08T07:17:19.000Z</time>
      </trkpt>
      <trkpt lat="43.87074" lon="6.9871">
        <ele>381.39999389648</ele>
        <time>2011-05-08T07:17:20.000Z</time>
      </trkpt>
      <trkpt lat="43.87063" lon="6.98692">
        <ele>382.39999389648</ele>
        <time>2011-05-08T07:17:23.000Z</time>
      </trkpt>
      <trkpt lat="43.87054" lon="6.98682">
        <ele>382.20001220703</ele>
        <time>2011-05-08T07:17:25.000Z</time>
      </trkpt>
      <trkpt lat="43.87046" lon="6.98676">
        <ele>381.79998779297</ele>
        <time>2011-05-08T07:17:27.000Z</time>
      </trkpt>
      <trkpt lat="43.87031" lon="6.98664">
        <ele>380.79998779297</ele>
        <time>2011-05-08T07:17:31.000Z</time>
      </trkpt>
      <trkpt lat="43.87027" lon="6.98662">
        <ele>381</ele>
        <time>2011-05-08T07:17:32.000Z</time>
      </trkpt>
      <trkpt lat="43.8701" lon="6.9865">
        <ele>381.60000610352</ele>
        <time>2011-05-08T07:17:36.000Z</time>
      </trkpt>
      <trkpt lat="43.87007" lon="6.98646">
        <ele>381.79998779297</ele>
        <time>2011-05-08T07:17:37.000Z</time>
      </trkpt>
      <trkpt lat="43.86992" lon="6.98635">
        <ele>383.20001220703</ele>
        <time>2011-05-08T07:17:41.000Z</time>
      </trkpt>
      <trkpt lat="43.86985" lon="6.98631">
        <ele>384</ele>
        <time>2011-05-08T07:17:43.000Z</time>
      </trkpt>
      <trkpt lat="43.86981" lon="6.9863">
        <ele>384.20001220703</ele>
        <time>2011-05-08T07:17:44.000Z</time>
      </trkpt>
      <trkpt lat="43.86977" lon="6.98629">
        <ele>384.39999389648</ele>
        <time>2011-05-08T07:17:45.000Z</time>
      </trkpt>
      <trkpt lat="43.86973" lon="6.98628">
        <ele>384.60000610352</ele>
        <time>2011-05-08T07:17:46.000Z</time>
      </trkpt>
      <trkpt lat="43.8696" lon="6.9863">
        <ele>384.79998779297</ele>
        <time>2011-05-08T07:17:49.000Z</time>
      </trkpt>
      <trkpt lat="43.86953" lon="6.98629">
        <ele>385.20001220703</ele>
        <time>2011-05-08T07:17:51.000Z</time>
      </trkpt>
      <trkpt lat="43.86944" lon="6.98633">
        <ele>384.79998779297</ele>
        <time>2011-05-08T07:17:54.000Z</time>
      </trkpt>
      <trkpt lat="43.86935" lon="6.98643">
        <ele>383.79998779297</ele>
        <time>2011-05-08T07:17:57.000Z</time>
      </trkpt>
      <trkpt lat="43.86927" lon="6.98655">
        <ele>382.20001220703</ele>
        <time>2011-05-08T07:18:00.000Z</time>
      </trkpt>
      <trkpt lat="43.86921" lon="6.98665">
        <ele>381</ele>
        <time>2011-05-08T07:18:02.000Z</time>
      </trkpt>
      <trkpt lat="43.86907" lon="6.98688">
        <ele>383.60000610352</ele>
        <time>2011-05-08T07:18:07.000Z</time>
      </trkpt>
      <trkpt lat="43.86904" lon="6.98692">
        <ele>384.39999389648</ele>
        <time>2011-05-08T07:18:08.000Z</time>
      </trkpt>
      <trkpt lat="43.86895" lon="6.98705">
        <ele>386.20001220703</ele>
        <time>2011-05-08T07:18:11.000Z</time>
      </trkpt>
      <trkpt lat="43.86891" lon="6.98707">
        <ele>386.79998779297</ele>
        <time>2011-05-08T07:18:12.000Z</time>
      </trkpt>
      <trkpt lat="43.86885" lon="6.98711">
        <ele>387.79998779297</ele>
        <time>2011-05-08T07:18:14.000Z</time>
      </trkpt>
      <trkpt lat="43.86872" lon="6.9872">
        <ele>389.60000610352</ele>
        <time>2011-05-08T07:18:18.000Z</time>
      </trkpt>
      <trkpt lat="43.86864" lon="6.98729">
        <ele>391</ele>
        <time>2011-05-08T07:18:21.000Z</time>
      </trkpt>
      <trkpt lat="43.86856" lon="6.98737">
        <ele>392.20001220703</ele>
        <time>2011-05-08T07:18:24.000Z</time>
      </trkpt>
      <trkpt lat="43.8685" lon="6.98739">
        <ele>392.79998779297</ele>
        <time>2011-05-08T07:18:26.000Z</time>
      </trkpt>
      <trkpt lat="43.86839" lon="6.98732">
        <ele>393.39999389648</ele>
        <time>2011-05-08T07:18:30.000Z</time>
      </trkpt>
      <trkpt lat="43.86836" lon="6.9873">
        <ele>393.39999389648</ele>
        <time>2011-05-08T07:18:31.000Z</time>
      </trkpt>
      <trkpt lat="43.86823" lon="6.98716">
        <ele>395.39999389648</ele>
        <time>2011-05-08T07:18:36.000Z</time>
      </trkpt>
      <trkpt lat="43.86821" lon="6.98713">
        <ele>395.39999389648</ele>
        <time>2011-05-08T07:18:37.000Z</time>
      </trkpt>
      <trkpt lat="43.86811" lon="6.98695">
        <ele>395.20001220703</ele>
        <time>2011-05-08T07:18:42.000Z</time>
      </trkpt>
      <trkpt lat="43.86807" lon="6.98689">
        <ele>395.20001220703</ele>
        <time>2011-05-08T07:18:44.000Z</time>
      </trkpt>
      <trkpt lat="43.86795" lon="6.98678">
        <ele>395</ele>
        <time>2011-05-08T07:18:49.000Z</time>
      </trkpt>
      <trkpt lat="43.86787" lon="6.98673">
        <ele>395</ele>
        <time>2011-05-08T07:18:52.000Z</time>
      </trkpt>
      <trkpt lat="43.86778" lon="6.98666">
        <ele>394.60000610352</ele>
        <time>2011-05-08T07:18:56.000Z</time>
      </trkpt>
      <trkpt lat="43.86773" lon="6.98658">
        <ele>395.60000610352</ele>
        <time>2011-05-08T07:18:59.000Z</time>
      </trkpt>
      <trkpt lat="43.86763" lon="6.98648">
        <ele>396.60000610352</ele>
        <time>2011-05-08T07:19:04.000Z</time>
      </trkpt>
      <trkpt lat="43.86762" lon="6.98646">
        <ele>396.60000610352</ele>
        <time>2011-05-08T07:19:05.000Z</time>
      </trkpt>
      <trkpt lat="43.86748" lon="6.98644">
        <ele>397.60000610352</ele>
        <time>2011-05-08T07:19:11.000Z</time>
      </trkpt>
      <trkpt lat="43.86745" lon="6.98645">
        <ele>398.20001220703</ele>
        <time>2011-05-08T07:19:12.000Z</time>
      </trkpt>
      <trkpt lat="43.86734" lon="6.98649">
        <ele>400.79998779297</ele>
        <time>2011-05-08T07:19:17.000Z</time>
      </trkpt>
      <trkpt lat="43.86735" lon="6.98657">
        <ele>400.39999389648</ele>
        <time>2011-05-08T07:19:20.000Z</time>
      </trkpt>
      <trkpt lat="43.86737" lon="6.98658">
        <ele>399.79998779297</ele>
        <time>2011-05-08T07:19:21.000Z</time>
      </trkpt>
      <trkpt lat="43.86751" lon="6.9866">
        <ele>396.79998779297</ele>
        <time>2011-05-08T07:19:27.000Z</time>
      </trkpt>
      <trkpt lat="43.86753" lon="6.98662">
        <ele>396.79998779297</ele>
        <time>2011-05-08T07:19:28.000Z</time>
      </trkpt>
      <trkpt lat="43.86755" lon="6.98664">
        <ele>396.60000610352</ele>
        <time>2011-05-08T07:19:29.000Z</time>
      </trkpt>
      <trkpt lat="43.8676" lon="6.98672">
        <ele>397.60000610352</ele>
        <time>2011-05-08T07:19:33.000Z</time>
      </trkpt>
      <trkpt lat="43.86764" lon="6.98683">
        <ele>399.79998779297</ele>
        <time>2011-05-08T07:19:37.000Z</time>
      </trkpt>
      <trkpt lat="43.86765" lon="6.98685">
        <ele>400.39999389648</ele>
        <time>2011-05-08T07:19:38.000Z</time>
      </trkpt>
      <trkpt lat="43.86775" lon="6.98701">
        <ele>402.39999389648</ele>
        <time>2011-05-08T07:19:45.000Z</time>
      </trkpt>
      <trkpt lat="43.86777" lon="6.98702">
        <ele>402.60000610352</ele>
        <time>2011-05-08T07:19:46.000Z</time>
      </trkpt>
      <trkpt lat="43.86781" lon="6.98714">
        <ele>404.20001220703</ele>
        <time>2011-05-08T07:19:51.000Z</time>
      </trkpt>
      <trkpt lat="43.86781" lon="6.98716">
        <ele>404.79998779297</ele>
        <time>2011-05-08T07:19:52.000Z</time>
      </trkpt>
      <trkpt lat="43.86776" lon="6.98713">
        <ele>405.20001220703</ele>
        <time>2011-05-08T07:19:55.000Z</time>
      </trkpt>
      <trkpt lat="43.86775" lon="6.98711">
        <ele>405</ele>
        <time>2011-05-08T07:19:56.000Z</time>
      </trkpt>
      <trkpt lat="43.86769" lon="6.98702">
        <ele>404</ele>
        <time>2011-05-08T07:20:00.000Z</time>
      </trkpt>
      <trkpt lat="43.86768" lon="6.987">
        <ele>403.60000610352</ele>
        <time>2011-05-08T07:20:01.000Z</time>
      </trkpt>
      <trkpt lat="43.86761" lon="6.98693">
        <ele>403</ele>
        <time>2011-05-08T07:20:05.000Z</time>
      </trkpt>
      <trkpt lat="43.86756" lon="6.9869">
        <ele>402.79998779297</ele>
        <time>2011-05-08T07:20:08.000Z</time>
      </trkpt>
      <trkpt lat="43.86743" lon="6.98686">
        <ele>404</ele>
        <time>2011-05-08T07:20:15.000Z</time>
      </trkpt>
      <trkpt lat="43.86736" lon="6.98685">
        <ele>405.20001220703</ele>
        <time>2011-05-08T07:20:19.000Z</time>
      </trkpt>
      <trkpt lat="43.86725" lon="6.98686">
        <ele>407.79998779297</ele>
        <time>2011-05-08T07:20:24.000Z</time>
      </trkpt>
      <trkpt lat="43.86719" lon="6.98685">
        <ele>408.60000610352</ele>
        <time>2011-05-08T07:20:27.000Z</time>
      </trkpt>
      <trkpt lat="43.86707" lon="6.98678">
        <ele>409</ele>
        <time>2011-05-08T07:20:34.000Z</time>
      </trkpt>
      <trkpt lat="43.86703" lon="6.98678">
        <ele>409.60000610352</ele>
        <time>2011-05-08T07:20:36.000Z</time>
      </trkpt>
      <trkpt lat="43.86699" lon="6.98681">
        <ele>411.39999389648</ele>
        <time>2011-05-08T07:20:39.000Z</time>
      </trkpt>
      <trkpt lat="43.867" lon="6.98694">
        <ele>414.60000610352</ele>
        <time>2011-05-08T07:20:44.000Z</time>
      </trkpt>
      <trkpt lat="43.86704" lon="6.987">
        <ele>415.79998779297</ele>
        <time>2011-05-08T07:20:47.000Z</time>
      </trkpt>
      <trkpt lat="43.8671" lon="6.98707">
        <ele>416.39999389648</ele>
        <time>2011-05-08T07:20:51.000Z</time>
      </trkpt>
      <trkpt lat="43.86715" lon="6.9871">
        <ele>416.60000610352</ele>
        <time>2011-05-08T07:20:54.000Z</time>
      </trkpt>
      <trkpt lat="43.86726" lon="6.98721">
        <ele>417.60000610352</ele>
        <time>2011-05-08T07:21:01.000Z</time>
      </trkpt>
      <trkpt lat="43.86731" lon="6.98727">
        <ele>418.20001220703</ele>
        <time>2011-05-08T07:21:04.000Z</time>
      </trkpt>
      <trkpt lat="43.86738" lon="6.98734">
        <ele>419.39999389648</ele>
        <time>2011-05-08T07:21:09.000Z</time>
      </trkpt>
      <trkpt lat="43.86746" lon="6.98744">
        <ele>421</ele>
        <time>2011-05-08T07:21:15.000Z</time>
      </trkpt>
      <trkpt lat="43.86749" lon="6.98748">
        <ele>421.60000610352</ele>
        <time>2011-05-08T07:21:17.000Z</time>
      </trkpt>
      <trkpt lat="43.86756" lon="6.98765">
        <ele>424.39999389648</ele>
        <time>2011-05-08T07:21:24.000Z</time>
      </trkpt>
      <trkpt lat="43.86758" lon="6.98769">
        <ele>425</ele>
        <time>2011-05-08T07:21:26.000Z</time>
      </trkpt>
      <trkpt lat="43.86772" lon="6.98776">
        <ele>422.79998779297</ele>
        <time>2011-05-08T07:21:33.000Z</time>
      </trkpt>
      <trkpt lat="43.86784" lon="6.98784">
        <ele>421.39999389648</ele>
        <time>2011-05-08T07:21:40.000Z</time>
      </trkpt>
      <trkpt lat="43.86789" lon="6.98788">
        <ele>421.20001220703</ele>
        <time>2011-05-08T07:21:43.000Z</time>
      </trkpt>
      <trkpt lat="43.86797" lon="6.98799">
        <ele>422.20001220703</ele>
        <time>2011-05-08T07:21:49.000Z</time>
      </trkpt>
      <trkpt lat="43.86802" lon="6.98807">
        <ele>423.39999389648</ele>
        <time>2011-05-08T07:21:53.000Z</time>
      </trkpt>
      <trkpt lat="43.86809" lon="6.98818">
        <ele>424.60000610352</ele>
        <time>2011-05-08T07:21:59.000Z</time>
      </trkpt>
      <trkpt lat="43.86814" lon="6.98827">
        <ele>426</ele>
        <time>2011-05-08T07:22:04.000Z</time>
      </trkpt>
      <trkpt lat="43.86817" lon="6.98832">
        <ele>427</ele>
        <time>2011-05-08T07:22:07.000Z</time>
      </trkpt>
      <trkpt lat="43.86822" lon="6.98846">
        <ele>429.20001220703</ele>
        <time>2011-05-08T07:22:14.000Z</time>
      </trkpt>
      <trkpt lat="43.86823" lon="6.98848">
        <ele>429.39999389648</ele>
        <time>2011-05-08T07:22:15.000Z</time>
      </trkpt>
      <trkpt lat="43.86828" lon="6.98865">
        <ele>432.20001220703</ele>
        <time>2011-05-08T07:22:22.000Z</time>
      </trkpt>
      <trkpt lat="43.86829" lon="6.98873">
        <ele>433.79998779297</ele>
        <time>2011-05-08T07:22:25.000Z</time>
      </trkpt>
      <trkpt lat="43.86831" lon="6.98883">
        <ele>435.60000610352</ele>
        <time>2011-05-08T07:22:29.000Z</time>
      </trkpt>
      <trkpt lat="43.86836" lon="6.98897">
        <ele>437.60000610352</ele>
        <time>2011-05-08T07:22:35.000Z</time>
      </trkpt>
      <trkpt lat="43.8684" lon="6.989">
        <ele>437.79998779297</ele>
        <time>2011-05-08T07:22:37.000Z</time>
      </trkpt>
      <trkpt lat="43.86852" lon="6.9891">
        <ele>437.79998779297</ele>
        <time>2011-05-08T07:22:44.000Z</time>
      </trkpt>
      <trkpt lat="43.86854" lon="6.98911">
        <ele>437.79998779297</ele>
        <time>2011-05-08T07:22:45.000Z</time>
      </trkpt>
      <trkpt lat="43.86863" lon="6.98922">
        <ele>438.60000610352</ele>
        <time>2011-05-08T07:22:52.000Z</time>
      </trkpt>
      <trkpt lat="43.86865" lon="6.98926">
        <ele>439.20001220703</ele>
        <time>2011-05-08T07:22:54.000Z</time>
      </trkpt>
      <trkpt lat="43.86866" lon="6.98928">
        <ele>439.79998779297</ele>
        <time>2011-05-08T07:22:55.000Z</time>
      </trkpt>
      <trkpt lat="43.86864" lon="6.98933">
        <ele>441.20001220703</ele>
        <time>2011-05-08T07:22:57.000Z</time>
      </trkpt>
      <trkpt lat="43.86858" lon="6.98932">
        <ele>442.39999389648</ele>
        <time>2011-05-08T07:23:01.000Z</time>
      </trkpt>
      <trkpt lat="43.86854" lon="6.98929">
        <ele>442.20001220703</ele>
        <time>2011-05-08T07:23:03.000Z</time>
      </trkpt>
      <trkpt lat="43.86851" lon="6.98927">
        <ele>442.39999389648</ele>
        <time>2011-05-08T07:23:05.000Z</time>
      </trkpt>
      <trkpt lat="43.86843" lon="6.98925">
        <ele>443.39999389648</ele>
        <time>2011-05-08T07:23:09.000Z</time>
      </trkpt>
      <trkpt lat="43.86833" lon="6.98922">
        <ele>444.60000610352</ele>
        <time>2011-05-08T07:23:14.000Z</time>
      </trkpt>
      <trkpt lat="43.86827" lon="6.98919">
        <ele>445.79998779297</ele>
        <time>2011-05-08T07:23:17.000Z</time>
      </trkpt>
      <trkpt lat="43.86818" lon="6.98908">
        <ele>446.20001220703</ele>
        <time>2011-05-08T07:23:23.000Z</time>
      </trkpt>
      <trkpt lat="43.86806" lon="6.9889">
        <ele>445.39999389648</ele>
        <time>2011-05-08T07:23:32.000Z</time>
      </trkpt>
      <trkpt lat="43.86805" lon="6.98888">
        <ele>445.20001220703</ele>
        <time>2011-05-08T07:23:33.000Z</time>
      </trkpt>
      <trkpt lat="43.86792" lon="6.98874">
        <ele>445.79998779297</ele>
        <time>2011-05-08T07:23:42.000Z</time>
      </trkpt>
      <trkpt lat="43.8679" lon="6.98873">
        <ele>446</ele>
        <time>2011-05-08T07:23:43.000Z</time>
      </trkpt>
      <trkpt lat="43.86776" lon="6.98865">
        <ele>448.39999389648</ele>
        <time>2011-05-08T07:23:51.000Z</time>
      </trkpt>
      <trkpt lat="43.86772" lon="6.98865">
        <ele>449.20001220703</ele>
        <time>2011-05-08T07:23:53.000Z</time>
      </trkpt>
      <trkpt lat="43.86762" lon="6.98863">
        <ele>452</ele>
        <time>2011-05-08T07:23:59.000Z</time>
      </trkpt>
      <trkpt lat="43.86753" lon="6.98863">
        <ele>454.79998779297</ele>
        <time>2011-05-08T07:24:04.000Z</time>
      </trkpt>
      <trkpt lat="43.86748" lon="6.98864">
        <ele>456.39999389648</ele>
        <time>2011-05-08T07:24:07.000Z</time>
      </trkpt>
      <trkpt lat="43.86737" lon="6.98863">
        <ele>460.20001220703</ele>
        <time>2011-05-08T07:24:13.000Z</time>
      </trkpt>
      <trkpt lat="43.86735" lon="6.98862">
        <ele>460.39999389648</ele>
        <time>2011-05-08T07:24:14.000Z</time>
      </trkpt>
      <trkpt lat="43.86725" lon="6.98856">
        <ele>461.60000610352</ele>
        <time>2011-05-08T07:24:19.000Z</time>
      </trkpt>
      <trkpt lat="43.86717" lon="6.9885">
        <ele>461.79998779297</ele>
        <time>2011-05-08T07:24:24.000Z</time>
      </trkpt>
      <trkpt lat="43.86713" lon="6.98846">
        <ele>462</ele>
        <time>2011-05-08T07:24:27.000Z</time>
      </trkpt>
      <trkpt lat="43.867" lon="6.98842">
        <ele>464.20001220703</ele>
        <time>2011-05-08T07:24:34.000Z</time>
      </trkpt>
      <trkpt lat="43.86686" lon="6.98834">
        <ele>465.20001220703</ele>
        <time>2011-05-08T07:24:42.000Z</time>
      </trkpt>
      <trkpt lat="43.86682" lon="6.98831">
        <ele>465.60000610352</ele>
        <time>2011-05-08T07:24:44.000Z</time>
      </trkpt>
      <trkpt lat="43.86669" lon="6.98825">
        <ele>466.79998779297</ele>
        <time>2011-05-08T07:24:51.000Z</time>
      </trkpt>
      <trkpt lat="43.86663" lon="6.98822">
        <ele>466.60000610352</ele>
        <time>2011-05-08T07:24:54.000Z</time>
      </trkpt>
      <trkpt lat="43.86654" lon="6.98815">
        <ele>465.60000610352</ele>
        <time>2011-05-08T07:24:59.000Z</time>
      </trkpt>
      <trkpt lat="43.86647" lon="6.9881">
        <ele>465.39999389648</ele>
        <time>2011-05-08T07:25:03.000Z</time>
      </trkpt>
      <trkpt lat="43.86639" lon="6.98809">
        <ele>466.60000610352</ele>
        <time>2011-05-08T07:25:07.000Z</time>
      </trkpt>
      <trkpt lat="43.86627" lon="6.98807">
        <ele>468</ele>
        <time>2011-05-08T07:25:13.000Z</time>
      </trkpt>
      <trkpt lat="43.86625" lon="6.98807">
        <ele>468.39999389648</ele>
        <time>2011-05-08T07:25:14.000Z</time>
      </trkpt>
      <trkpt lat="43.86612" lon="6.98805">
        <ele>470.20001220703</ele>
        <time>2011-05-08T07:25:21.000Z</time>
      </trkpt>
      <trkpt lat="43.86609" lon="6.98804">
        <ele>470.60000610352</ele>
        <time>2011-05-08T07:25:23.000Z</time>
      </trkpt>
      <trkpt lat="43.86599" lon="6.98802">
        <ele>471.60000610352</ele>
        <time>2011-05-08T07:25:28.000Z</time>
      </trkpt>
      <trkpt lat="43.86589" lon="6.98799">
        <ele>472.20001220703</ele>
        <time>2011-05-08T07:25:33.000Z</time>
      </trkpt>
      <trkpt lat="43.86585" lon="6.98798">
        <ele>472.79998779297</ele>
        <time>2011-05-08T07:25:35.000Z</time>
      </trkpt>
      <trkpt lat="43.86574" lon="6.98793">
        <ele>471.20001220703</ele>
        <time>2011-05-08T07:25:41.000Z</time>
      </trkpt>
      <trkpt lat="43.86572" lon="6.98791">
        <ele>470.60000610352</ele>
        <time>2011-05-08T07:25:42.000Z</time>
      </trkpt>
      <trkpt lat="43.86559" lon="6.98783">
        <ele>467.79998779297</ele>
        <time>2011-05-08T07:25:49.000Z</time>
      </trkpt>
      <trkpt lat="43.86554" lon="6.98783">
        <ele>468</ele>
        <time>2011-05-08T07:25:52.000Z</time>
      </trkpt>
      <trkpt lat="43.86547" lon="6.98785">
        <ele>469.39999389648</ele>
        <time>2011-05-08T07:25:56.000Z</time>
      </trkpt>
      <trkpt lat="43.86537" lon="6.9879">
        <ele>472.79998779297</ele>
        <time>2011-05-08T07:26:02.000Z</time>
      </trkpt>
      <trkpt lat="43.86532" lon="6.98793">
        <ele>474.39999389648</ele>
        <time>2011-05-08T07:26:05.000Z</time>
      </trkpt>
      <trkpt lat="43.86531" lon="6.98793">
        <ele>474.39999389648</ele>
        <time>2011-05-08T07:26:06.000Z</time>
      </trkpt>
      <trkpt lat="43.86527" lon="6.98788">
        <ele>472.60000610352</ele>
        <time>2011-05-08T07:26:10.000Z</time>
      </trkpt>
      <trkpt lat="43.86522" lon="6.9878">
        <ele>469.20001220703</ele>
        <time>2011-05-08T07:26:14.000Z</time>
      </trkpt>
      <trkpt lat="43.8652" lon="6.98776">
        <ele>467.20001220703</ele>
        <time>2011-05-08T07:26:16.000Z</time>
      </trkpt>
      <trkpt lat="43.86509" lon="6.98763">
        <ele>462</ele>
        <time>2011-05-08T07:26:22.000Z</time>
      </trkpt>
      <trkpt lat="43.86504" lon="6.98759">
        <ele>460.60000610352</ele>
        <time>2011-05-08T07:26:24.000Z</time>
      </trkpt>
      <trkpt lat="43.86492" lon="6.98759">
        <ele>461.20001220703</ele>
        <time>2011-05-08T07:26:28.000Z</time>
      </trkpt>
      <trkpt lat="43.86489" lon="6.98765">
        <ele>463.60000610352</ele>
        <time>2011-05-08T07:26:29.000Z</time>
      </trkpt>
      <trkpt lat="43.86482" lon="6.9878">
        <ele>470</ele>
        <time>2011-05-08T07:26:33.000Z</time>
      </trkpt>
      <trkpt lat="43.8648" lon="6.98785">
        <ele>472</ele>
        <time>2011-05-08T07:26:34.000Z</time>
      </trkpt>
      <trkpt lat="43.86474" lon="6.98806">
        <ele>480</ele>
        <time>2011-05-08T07:26:37.000Z</time>
      </trkpt>
      <trkpt lat="43.8647" lon="6.98811">
        <ele>481.79998779297</ele>
        <time>2011-05-08T07:26:38.000Z</time>
      </trkpt>
      <trkpt lat="43.86461" lon="6.98822">
        <ele>484.60000610352</ele>
        <time>2011-05-08T07:26:40.000Z</time>
      </trkpt>
      <trkpt lat="43.86456" lon="6.98829">
        <ele>486.39999389648</ele>
        <time>2011-05-08T07:26:41.000Z</time>
      </trkpt>
      <trkpt lat="43.86453" lon="6.98836">
        <ele>488.79998779297</ele>
        <time>2011-05-08T07:26:42.000Z</time>
      </trkpt>
      <trkpt lat="43.86449" lon="6.98842">
        <ele>490.60000610352</ele>
        <time>2011-05-08T07:26:43.000Z</time>
      </trkpt>
      <trkpt lat="43.86444" lon="6.98846">
        <ele>491.39999389648</ele>
        <time>2011-05-08T07:26:44.000Z</time>
      </trkpt>
      <trkpt lat="43.86438" lon="6.98847">
        <ele>490.79998779297</ele>
        <time>2011-05-08T07:26:45.000Z</time>
      </trkpt>
      <trkpt lat="43.86428" lon="6.98842">
        <ele>486.79998779297</ele>
        <time>2011-05-08T07:26:48.000Z</time>
      </trkpt>
      <trkpt lat="43.86425" lon="6.98841">
        <ele>485.79998779297</ele>
        <time>2011-05-08T07:26:49.000Z</time>
      </trkpt>
      <trkpt lat="43.86423" lon="6.98839">
        <ele>484.60000610352</ele>
        <time>2011-05-08T07:26:50.000Z</time>
      </trkpt>
      <trkpt lat="43.86421" lon="6.98838">
        <ele>483.60000610352</ele>
        <time>2011-05-08T07:26:51.000Z</time>
      </trkpt>
      <trkpt lat="43.86413" lon="6.98834">
        <ele>480.79998779297</ele>
        <time>2011-05-08T07:26:55.000Z</time>
      </trkpt>
      <trkpt lat="43.86405" lon="6.98831">
        <ele>478.79998779297</ele>
        <time>2011-05-08T07:27:00.000Z</time>
      </trkpt>
      <trkpt lat="43.86401" lon="6.98832">
        <ele>478.39999389648</ele>
        <time>2011-05-08T07:27:02.000Z</time>
      </trkpt>
      <trkpt lat="43.86391" lon="6.98835">
        <ele>478.20001220703</ele>
        <time>2011-05-08T07:27:08.000Z</time>
      </trkpt>
      <trkpt lat="43.86387" lon="6.98837">
        <ele>478.39999389648</ele>
        <time>2011-05-08T07:27:11.000Z</time>
      </trkpt>
      <trkpt lat="43.8638" lon="6.98841">
        <ele>479</ele>
        <time>2011-05-08T07:27:15.000Z</time>
      </trkpt>
      <trkpt lat="43.86371" lon="6.98849">
        <ele>480.39999389648</ele>
        <time>2011-05-08T07:27:21.000Z</time>
      </trkpt>
      <trkpt lat="43.86365" lon="6.98854">
        <ele>480.79998779297</ele>
        <time>2011-05-08T07:27:25.000Z</time>
      </trkpt>
      <trkpt lat="43.86355" lon="6.98863">
        <ele>482</ele>
        <time>2011-05-08T07:27:32.000Z</time>
      </trkpt>
      <trkpt lat="43.86346" lon="6.9888">
        <ele>485.39999389648</ele>
        <time>2011-05-08T07:27:40.000Z</time>
      </trkpt>
      <trkpt lat="43.86345" lon="6.98885">
        <ele>486.60000610352</ele>
        <time>2011-05-08T07:27:42.000Z</time>
      </trkpt>
      <trkpt lat="43.8634" lon="6.98897">
        <ele>489.20001220703</ele>
        <time>2011-05-08T07:27:48.000Z</time>
      </trkpt>
      <trkpt lat="43.86336" lon="6.98908">
        <ele>491.39999389648</ele>
        <time>2011-05-08T07:27:53.000Z</time>
      </trkpt>
      <trkpt lat="43.86335" lon="6.98913">
        <ele>492.39999389648</ele>
        <time>2011-05-08T07:27:55.000Z</time>
      </trkpt>
      <trkpt lat="43.86334" lon="6.98934">
        <ele>496.79998779297</ele>
        <time>2011-05-08T07:28:04.000Z</time>
      </trkpt>
      <trkpt lat="43.86334" lon="6.98936">
        <ele>497.20001220703</ele>
        <time>2011-05-08T07:28:05.000Z</time>
      </trkpt>
      <trkpt lat="43.86333" lon="6.98959">
        <ele>502</ele>
        <time>2011-05-08T07:28:15.000Z</time>
      </trkpt>
      <trkpt lat="43.86332" lon="6.98977">
        <ele>506</ele>
        <time>2011-05-08T07:28:23.000Z</time>
      </trkpt>
      <trkpt lat="43.86331" lon="6.98985">
        <ele>507.79998779297</ele>
        <time>2011-05-08T07:28:26.000Z</time>
      </trkpt>
      <trkpt lat="43.86331" lon="6.98996">
        <ele>510.20001220703</ele>
        <time>2011-05-08T07:28:30.000Z</time>
      </trkpt>
      <trkpt lat="43.8633" lon="6.99012">
        <ele>513.79998779297</ele>
        <time>2011-05-08T07:28:37.000Z</time>
      </trkpt>
      <trkpt lat="43.8633" lon="6.99015">
        <ele>514.20001220703</ele>
        <time>2011-05-08T07:28:38.000Z</time>
      </trkpt>
      <trkpt lat="43.86328" lon="6.99034">
        <ele>518.59997558594</ele>
        <time>2011-05-08T07:28:46.000Z</time>
      </trkpt>
      <trkpt lat="43.86328" lon="6.99039">
        <ele>519.59997558594</ele>
        <time>2011-05-08T07:28:48.000Z</time>
      </trkpt>
      <trkpt lat="43.86327" lon="6.99054">
        <ele>522.79998779297</ele>
        <time>2011-05-08T07:28:53.000Z</time>
      </trkpt>
      <trkpt lat="43.86326" lon="6.99066">
        <ele>525.79998779297</ele>
        <time>2011-05-08T07:28:57.000Z</time>
      </trkpt>
      <trkpt lat="43.86324" lon="6.9907">
        <ele>526.79998779297</ele>
        <time>2011-05-08T07:28:58.000Z</time>
      </trkpt>
      <trkpt lat="43.86319" lon="6.99079">
        <ele>529.79998779297</ele>
        <time>2011-05-08T07:29:02.000Z</time>
      </trkpt>
      <trkpt lat="43.86313" lon="6.99086">
        <ele>532.40002441406</ele>
        <time>2011-05-08T07:29:06.000Z</time>
      </trkpt>
      <trkpt lat="43.86312" lon="6.99089">
        <ele>533.40002441406</ele>
        <time>2011-05-08T07:29:07.000Z</time>
      </trkpt>
      <trkpt lat="43.86298" lon="6.99098">
        <ele>537.59997558594</ele>
        <time>2011-05-08T07:29:12.000Z</time>
      </trkpt>
      <trkpt lat="43.86297" lon="6.99097">
        <ele>537.59997558594</ele>
        <time>2011-05-08T07:29:13.000Z</time>
      </trkpt>
      <trkpt lat="43.86294" lon="6.99089">
        <ele>537</ele>
        <time>2011-05-08T07:29:16.000Z</time>
      </trkpt>
      <trkpt lat="43.86293" lon="6.99081">
        <ele>535.59997558594</ele>
        <time>2011-05-08T07:29:19.000Z</time>
      </trkpt>
      <trkpt lat="43.86292" lon="6.99073">
        <ele>533.59997558594</ele>
        <time>2011-05-08T07:29:22.000Z</time>
      </trkpt>
      <trkpt lat="43.86292" lon="6.9907">
        <ele>532.79998779297</ele>
        <time>2011-05-08T07:29:23.000Z</time>
      </trkpt>
      <trkpt lat="43.86286" lon="6.99054">
        <ele>529.59997558594</ele>
        <time>2011-05-08T07:29:30.000Z</time>
      </trkpt>
      <trkpt lat="43.86284" lon="6.9905">
        <ele>528.79998779297</ele>
        <time>2011-05-08T07:29:32.000Z</time>
      </trkpt>
      <trkpt lat="43.8628" lon="6.99036">
        <ele>525.59997558594</ele>
        <time>2011-05-08T07:29:38.000Z</time>
      </trkpt>
      <trkpt lat="43.86278" lon="6.99027">
        <ele>523.20001220703</ele>
        <time>2011-05-08T07:29:41.000Z</time>
      </trkpt>
      <trkpt lat="43.86276" lon="6.99013">
        <ele>519.59997558594</ele>
        <time>2011-05-08T07:29:45.000Z</time>
      </trkpt>
      <trkpt lat="43.86276" lon="6.99002">
        <ele>516.40002441406</ele>
        <time>2011-05-08T07:29:48.000Z</time>
      </trkpt>
      <trkpt lat="43.86272" lon="6.9898">
        <ele>509.20001220703</ele>
        <time>2011-05-08T07:29:53.000Z</time>
      </trkpt>
      <trkpt lat="43.86271" lon="6.98975">
        <ele>507.39999389648</ele>
        <time>2011-05-08T07:29:54.000Z</time>
      </trkpt>
      <trkpt lat="43.86266" lon="6.98948">
        <ele>498.39999389648</ele>
        <time>2011-05-08T07:29:59.000Z</time>
      </trkpt>
      <trkpt lat="43.86259" lon="6.98938">
        <ele>494.60000610352</ele>
        <time>2011-05-08T07:30:02.000Z</time>
      </trkpt>
      <trkpt lat="43.86256" lon="6.98938">
        <ele>494.20001220703</ele>
        <time>2011-05-08T07:30:03.000Z</time>
      </trkpt>
      <trkpt lat="43.86251" lon="6.98938">
        <ele>494.39999389648</ele>
        <time>2011-05-08T07:30:05.000Z</time>
      </trkpt>
      <trkpt lat="43.86247" lon="6.98941">
        <ele>495.20001220703</ele>
        <time>2011-05-08T07:30:07.000Z</time>
      </trkpt>
      <trkpt lat="43.86245" lon="6.98942">
        <ele>495.79998779297</ele>
        <time>2011-05-08T07:30:08.000Z</time>
      </trkpt>
      <trkpt lat="43.86235" lon="6.98951">
        <ele>499.20001220703</ele>
        <time>2011-05-08T07:30:14.000Z</time>
      </trkpt>
      <trkpt lat="43.86222" lon="6.98958">
        <ele>502</ele>
        <time>2011-05-08T07:30:21.000Z</time>
      </trkpt>
      <trkpt lat="43.86218" lon="6.98959">
        <ele>502.39999389648</ele>
        <time>2011-05-08T07:30:23.000Z</time>
      </trkpt>
      <trkpt lat="43.86207" lon="6.98964">
        <ele>504</ele>
        <time>2011-05-08T07:30:28.000Z</time>
      </trkpt>
      <trkpt lat="43.862" lon="6.98967">
        <ele>505.39999389648</ele>
        <time>2011-05-08T07:30:32.000Z</time>
      </trkpt>
      <trkpt lat="43.86194" lon="6.98973">
        <ele>507.60000610352</ele>
        <time>2011-05-08T07:30:36.000Z</time>
      </trkpt>
      <trkpt lat="43.86184" lon="6.98981">
        <ele>511.20001220703</ele>
        <time>2011-05-08T07:30:42.000Z</time>
      </trkpt>
      <trkpt lat="43.86175" lon="6.98991">
        <ele>515</ele>
        <time>2011-05-08T07:30:48.000Z</time>
      </trkpt>
      <trkpt lat="43.86168" lon="6.98996">
        <ele>517.40002441406</ele>
        <time>2011-05-08T07:30:53.000Z</time>
      </trkpt>
      <trkpt lat="43.86163" lon="6.98999">
        <ele>518.79998779297</ele>
        <time>2011-05-08T07:30:56.000Z</time>
      </trkpt>
      <trkpt lat="43.86152" lon="6.99005">
        <ele>522.20001220703</ele>
        <time>2011-05-08T07:31:02.000Z</time>
      </trkpt>
      <trkpt lat="43.8615" lon="6.99006">
        <ele>522.79998779297</ele>
        <time>2011-05-08T07:31:03.000Z</time>
      </trkpt>
      <trkpt lat="43.86142" lon="6.99015">
        <ele>527.79998779297</ele>
        <time>2011-05-08T07:31:08.000Z</time>
      </trkpt>
      <trkpt lat="43.86138" lon="6.99025">
        <ele>532.79998779297</ele>
        <time>2011-05-08T07:31:12.000Z</time>
      </trkpt>
      <trkpt lat="43.86137" lon="6.9903">
        <ele>535.20001220703</ele>
        <time>2011-05-08T07:31:14.000Z</time>
      </trkpt>
      <trkpt lat="43.8613" lon="6.9904">
        <ele>540.79998779297</ele>
        <time>2011-05-08T07:31:20.000Z</time>
      </trkpt>
      <trkpt lat="43.86126" lon="6.99042">
        <ele>542.20001220703</ele>
        <time>2011-05-08T07:31:22.000Z</time>
      </trkpt>
      <trkpt lat="43.86121" lon="6.99041">
        <ele>542.40002441406</ele>
        <time>2011-05-08T07:31:25.000Z</time>
      </trkpt>
      <trkpt lat="43.86115" lon="6.99033">
        <ele>539.20001220703</ele>
        <time>2011-05-08T07:31:31.000Z</time>
      </trkpt>
      <trkpt lat="43.8611" lon="6.99029">
        <ele>537.59997558594</ele>
        <time>2011-05-08T07:31:35.000Z</time>
      </trkpt>
      <trkpt lat="43.86106" lon="6.9903">
        <ele>538.20001220703</ele>
        <time>2011-05-08T07:31:37.000Z</time>
      </trkpt>
      <trkpt lat="43.86098" lon="6.99029">
        <ele>538.40002441406</ele>
        <time>2011-05-08T07:31:43.000Z</time>
      </trkpt>
      <trkpt lat="43.86095" lon="6.99032">
        <ele>540.40002441406</ele>
        <time>2011-05-08T07:31:49.000Z</time>
      </trkpt>
      <trkpt lat="43.8609" lon="6.99035">
        <ele>542.20001220703</ele>
        <time>2011-05-08T07:31:53.000Z</time>
      </trkpt>
      <trkpt lat="43.86083" lon="6.99031">
        <ele>540.79998779297</ele>
        <time>2011-05-08T07:31:57.000Z</time>
      </trkpt>
      <trkpt lat="43.86082" lon="6.99029">
        <ele>540</ele>
        <time>2011-05-08T07:31:58.000Z</time>
      </trkpt>
      <trkpt lat="43.86078" lon="6.99016">
        <ele>534.40002441406</ele>
        <time>2011-05-08T07:32:03.000Z</time>
      </trkpt>
      <trkpt lat="43.86077" lon="6.99011">
        <ele>532.40002441406</ele>
        <time>2011-05-08T07:32:05.000Z</time>
      </trkpt>
      <trkpt lat="43.86066" lon="6.98999">
        <ele>529.40002441406</ele>
        <time>2011-05-08T07:32:13.000Z</time>
      </trkpt>
      <trkpt lat="43.86065" lon="6.98998">
        <ele>529.59997558594</ele>
        <time>2011-05-08T07:32:14.000Z</time>
      </trkpt>
      <trkpt lat="43.86057" lon="6.98992">
        <ele>529.59997558594</ele>
        <time>2011-05-08T07:32:20.000Z</time>
      </trkpt>
      <trkpt lat="43.86047" lon="6.98987">
        <ele>530.40002441406</ele>
        <time>2011-05-08T07:32:26.000Z</time>
      </trkpt>
      <trkpt lat="43.86044" lon="6.98985">
        <ele>531</ele>
        <time>2011-05-08T07:32:28.000Z</time>
      </trkpt>
      <trkpt lat="43.86028" lon="6.98981">
        <ele>533.40002441406</ele>
        <time>2011-05-08T07:32:37.000Z</time>
      </trkpt>
      <trkpt lat="43.86016" lon="6.98975">
        <ele>534.20001220703</ele>
        <time>2011-05-08T07:32:44.000Z</time>
      </trkpt>
      <trkpt lat="43.8601" lon="6.98972">
        <ele>534.59997558594</ele>
        <time>2011-05-08T07:32:47.000Z</time>
      </trkpt>
      <trkpt lat="43.86003" lon="6.98969">
        <ele>535.20001220703</ele>
        <time>2011-05-08T07:32:51.000Z</time>
      </trkpt>
      <trkpt lat="43.85992" lon="6.98967">
        <ele>533.40002441406</ele>
        <time>2011-05-08T07:32:57.000Z</time>
      </trkpt>
      <trkpt lat="43.8599" lon="6.98967">
        <ele>532.79998779297</ele>
        <time>2011-05-08T07:32:58.000Z</time>
      </trkpt>
      <trkpt lat="43.85976" lon="6.98968">
        <ele>530.79998779297</ele>
        <time>2011-05-08T07:33:06.000Z</time>
      </trkpt>
      <trkpt lat="43.85973" lon="6.9897">
        <ele>530.79998779297</ele>
        <time>2011-05-08T07:33:08.000Z</time>
      </trkpt>
      <trkpt lat="43.85963" lon="6.98976">
        <ele>531</ele>
        <time>2011-05-08T07:33:14.000Z</time>
      </trkpt>
      <trkpt lat="43.85956" lon="6.98982">
        <ele>531.40002441406</ele>
        <time>2011-05-08T07:33:19.000Z</time>
      </trkpt>
      <trkpt lat="43.85953" lon="6.98985">
        <ele>532</ele>
        <time>2011-05-08T07:33:21.000Z</time>
      </trkpt>
      <trkpt lat="43.85941" lon="6.98999">
        <ele>533.79998779297</ele>
        <time>2011-05-08T07:33:30.000Z</time>
      </trkpt>
      <trkpt lat="43.8594" lon="6.99001">
        <ele>534</ele>
        <time>2011-05-08T07:33:31.000Z</time>
      </trkpt>
      <trkpt lat="43.85929" lon="6.99017">
        <ele>535.59997558594</ele>
        <time>2011-05-08T07:33:39.000Z</time>
      </trkpt>
      <trkpt lat="43.85928" lon="6.99019">
        <ele>536</ele>
        <time>2011-05-08T07:33:40.000Z</time>
      </trkpt>
      <trkpt lat="43.85923" lon="6.99037">
        <ele>539.20001220703</ele>
        <time>2011-05-08T07:33:46.000Z</time>
      </trkpt>
      <trkpt lat="43.85922" lon="6.99043">
        <ele>540.40002441406</ele>
        <time>2011-05-08T07:33:48.000Z</time>
      </trkpt>
      <trkpt lat="43.8592" lon="6.9906">
        <ele>544.20001220703</ele>
        <time>2011-05-08T07:33:53.000Z</time>
      </trkpt>
      <trkpt lat="43.8592" lon="6.99069">
        <ele>546.59997558594</ele>
        <time>2011-05-08T07:33:56.000Z</time>
      </trkpt>
      <trkpt lat="43.85918" lon="6.99082">
        <ele>549.20001220703</ele>
        <time>2011-05-08T07:34:00.000Z</time>
      </trkpt>
      <trkpt lat="43.85916" lon="6.99095">
        <ele>550.79998779297</ele>
        <time>2011-05-08T07:34:05.000Z</time>
      </trkpt>
      <trkpt lat="43.85914" lon="6.99105">
        <ele>551.79998779297</ele>
        <time>2011-05-08T07:34:09.000Z</time>
      </trkpt>
      <trkpt lat="43.85911" lon="6.99121">
        <ele>553.59997558594</ele>
        <time>2011-05-08T07:34:16.000Z</time>
      </trkpt>
      <trkpt lat="43.8591" lon="6.99123">
        <ele>553.79998779297</ele>
        <time>2011-05-08T07:34:17.000Z</time>
      </trkpt>
      <trkpt lat="43.85907" lon="6.99143">
        <ele>556.40002441406</ele>
        <time>2011-05-08T07:34:24.000Z</time>
      </trkpt>
      <trkpt lat="43.85907" lon="6.99146">
        <ele>556.79998779297</ele>
        <time>2011-05-08T07:34:25.000Z</time>
      </trkpt>
      <trkpt lat="43.85905" lon="6.99167">
        <ele>559.79998779297</ele>
        <time>2011-05-08T07:34:32.000Z</time>
      </trkpt>
      <trkpt lat="43.85904" lon="6.99173">
        <ele>560.79998779297</ele>
        <time>2011-05-08T07:34:34.000Z</time>
      </trkpt>
      <trkpt lat="43.85902" lon="6.99191">
        <ele>563.20001220703</ele>
        <time>2011-05-08T07:34:39.000Z</time>
      </trkpt>
      <trkpt lat="43.85901" lon="6.99199">
        <ele>564.59997558594</ele>
        <time>2011-05-08T07:34:42.000Z</time>
      </trkpt>
      <trkpt lat="43.85901" lon="6.99211">
        <ele>566.59997558594</ele>
        <time>2011-05-08T07:34:46.000Z</time>
      </trkpt>
      <trkpt lat="43.85901" lon="6.99225">
        <ele>569.20001220703</ele>
        <time>2011-05-08T07:34:51.000Z</time>
      </trkpt>
      <trkpt lat="43.85902" lon="6.99235">
        <ele>571</ele>
        <time>2011-05-08T07:34:55.000Z</time>
      </trkpt>
      <trkpt lat="43.85907" lon="6.99233">
        <ele>571.20001220703</ele>
        <time>2011-05-08T07:34:59.000Z</time>
      </trkpt>
      <trkpt lat="43.85909" lon="6.99228">
        <ele>570.40002441406</ele>
        <time>2011-05-08T07:35:01.000Z</time>
      </trkpt>
      <trkpt lat="43.85909" lon="6.99221">
        <ele>569.40002441406</ele>
        <time>2011-05-08T07:35:03.000Z</time>
      </trkpt>
      <trkpt lat="43.8591" lon="6.99218">
        <ele>568.79998779297</ele>
        <time>2011-05-08T07:35:04.000Z</time>
      </trkpt>
      <trkpt lat="43.85911" lon="6.99201">
        <ele>566.40002441406</ele>
        <time>2011-05-08T07:35:10.000Z</time>
      </trkpt>
      <trkpt lat="43.85911" lon="6.99198">
        <ele>566.20001220703</ele>
        <time>2011-05-08T07:35:11.000Z</time>
      </trkpt>
      <trkpt lat="43.85916" lon="6.99179">
        <ele>564.40002441406</ele>
        <time>2011-05-08T07:35:19.000Z</time>
      </trkpt>
      <trkpt lat="43.85917" lon="6.99176">
        <ele>564.20001220703</ele>
        <time>2011-05-08T07:35:20.000Z</time>
      </trkpt>
      <trkpt lat="43.85922" lon="6.9916">
        <ele>564.40002441406</ele>
        <time>2011-05-08T07:35:27.000Z</time>
      </trkpt>
      <trkpt lat="43.85923" lon="6.99153">
        <ele>563.79998779297</ele>
        <time>2011-05-08T07:35:30.000Z</time>
      </trkpt>
      <trkpt lat="43.85926" lon="6.99142">
        <ele>563.59997558594</ele>
        <time>2011-05-08T07:35:34.000Z</time>
      </trkpt>
      <trkpt lat="43.8593" lon="6.99129">
        <ele>563.20001220703</ele>
        <time>2011-05-08T07:35:39.000Z</time>
      </trkpt>
      <trkpt lat="43.85932" lon="6.99125">
        <ele>563.20001220703</ele>
        <time>2011-05-08T07:35:41.000Z</time>
      </trkpt>
      <trkpt lat="43.8594" lon="6.99107">
        <ele>563</ele>
        <time>2011-05-08T07:35:49.000Z</time>
      </trkpt>
      <trkpt lat="43.85942" lon="6.99102">
        <ele>563</ele>
        <time>2011-05-08T07:35:51.000Z</time>
      </trkpt>
      <trkpt lat="43.8595" lon="6.99085">
        <ele>562.20001220703</ele>
        <time>2011-05-08T07:35:59.000Z</time>
      </trkpt>
      <trkpt lat="43.85958" lon="6.9907">
        <ele>561</ele>
        <time>2011-05-08T07:36:06.000Z</time>
      </trkpt>
      <trkpt lat="43.85962" lon="6.99066">
        <ele>561</ele>
        <time>2011-05-08T07:36:09.000Z</time>
      </trkpt>
      <trkpt lat="43.85969" lon="6.9906">
        <ele>561.79998779297</ele>
        <time>2011-05-08T07:36:13.000Z</time>
      </trkpt>
      <trkpt lat="43.8598" lon="6.99056">
        <ele>564.20001220703</ele>
        <time>2011-05-08T07:36:18.000Z</time>
      </trkpt>
      <trkpt lat="43.85986" lon="6.99054">
        <ele>565.40002441406</ele>
        <time>2011-05-08T07:36:20.000Z</time>
      </trkpt>
      <trkpt lat="43.86" lon="6.99055">
        <ele>570.59997558594</ele>
        <time>2011-05-08T07:36:25.000Z</time>
      </trkpt>
      <trkpt lat="43.86006" lon="6.99056">
        <ele>569.59997558594</ele>
        <time>2011-05-08T07:36:27.000Z</time>
      </trkpt>
      <trkpt lat="43.86011" lon="6.99059">
        <ele>570</ele>
        <time>2011-05-08T07:36:29.000Z</time>
      </trkpt>
      <trkpt lat="43.86012" lon="6.99064">
        <ele>572.20001220703</ele>
        <time>2011-05-08T07:36:31.000Z</time>
      </trkpt>
      <trkpt lat="43.86009" lon="6.99068">
        <ele>574</ele>
        <time>2011-05-08T07:36:33.000Z</time>
      </trkpt>
      <trkpt lat="43.86005" lon="6.99068">
        <ele>574.79998779297</ele>
        <time>2011-05-08T07:36:35.000Z</time>
      </trkpt>
      <trkpt lat="43.86003" lon="6.99068">
        <ele>575</ele>
        <time>2011-05-08T07:36:36.000Z</time>
      </trkpt>
      <trkpt lat="43.85991" lon="6.99065">
        <ele>571.40002441406</ele>
        <time>2011-05-08T07:36:43.000Z</time>
      </trkpt>
      <trkpt lat="43.8598" lon="6.99071">
        <ele>569.20001220703</ele>
        <time>2011-05-08T07:36:50.000Z</time>
      </trkpt>
      <trkpt lat="43.85975" lon="6.99077">
        <ele>569.40002441406</ele>
        <time>2011-05-08T07:36:54.000Z</time>
      </trkpt>
      <trkpt lat="43.8597" lon="6.99082">
        <ele>569.59997558594</ele>
        <time>2011-05-08T07:36:57.000Z</time>
      </trkpt>
      <trkpt lat="43.85964" lon="6.99094">
        <ele>570.20001220703</ele>
        <time>2011-05-08T07:37:03.000Z</time>
      </trkpt>
      <trkpt lat="43.85963" lon="6.99096">
        <ele>570.40002441406</ele>
        <time>2011-05-08T07:37:04.000Z</time>
      </trkpt>
      <trkpt lat="43.85959" lon="6.99113">
        <ele>572.79998779297</ele>
        <time>2011-05-08T07:37:11.000Z</time>
      </trkpt>
      <trkpt lat="43.85958" lon="6.99121">
        <ele>574.20001220703</ele>
        <time>2011-05-08T07:37:14.000Z</time>
      </trkpt>
      <trkpt lat="43.85957" lon="6.99133">
        <ele>576.59997558594</ele>
        <time>2011-05-08T07:37:19.000Z</time>
      </trkpt>
      <trkpt lat="43.85955" lon="6.99147">
        <ele>579</ele>
        <time>2011-05-08T07:37:25.000Z</time>
      </trkpt>
      <trkpt lat="43.85955" lon="6.99152">
        <ele>580.20001220703</ele>
        <time>2011-05-08T07:37:27.000Z</time>
      </trkpt>
      <trkpt lat="43.85954" lon="6.9917">
        <ele>583.20001220703</ele>
        <time>2011-05-08T07:37:34.000Z</time>
      </trkpt>
      <trkpt lat="43.85954" lon="6.99172">
        <ele>583.40002441406</ele>
        <time>2011-05-08T07:37:35.000Z</time>
      </trkpt>
      <trkpt lat="43.85954" lon="6.99188">
        <ele>585.59997558594</ele>
        <time>2011-05-08T07:37:42.000Z</time>
      </trkpt>
      <trkpt lat="43.85954" lon="6.99198">
        <ele>586.59997558594</ele>
        <time>2011-05-08T07:37:46.000Z</time>
      </trkpt>
      <trkpt lat="43.85954" lon="6.99205">
        <ele>587.59997558594</ele>
        <time>2011-05-08T07:37:49.000Z</time>
      </trkpt>
      <trkpt lat="43.85956" lon="6.99223">
        <ele>590.59997558594</ele>
        <time>2011-05-08T07:37:57.000Z</time>
      </trkpt>
      <trkpt lat="43.85956" lon="6.99226">
        <ele>591</ele>
        <time>2011-05-08T07:37:58.000Z</time>
      </trkpt>
      <trkpt lat="43.85957" lon="6.99242">
        <ele>593.59997558594</ele>
        <time>2011-05-08T07:38:05.000Z</time>
      </trkpt>
      <trkpt lat="43.85957" lon="6.99249">
        <ele>594.40002441406</ele>
        <time>2011-05-08T07:38:08.000Z</time>
      </trkpt>
      <trkpt lat="43.85957" lon="6.99253">
        <ele>595</ele>
        <time>2011-05-08T07:38:10.000Z</time>
      </trkpt>
      <trkpt lat="43.85956" lon="6.99257">
        <ele>595</ele>
        <time>2011-05-08T07:38:12.000Z</time>
      </trkpt>
      <trkpt lat="43.85956" lon="6.99273">
        <ele>596.59997558594</ele>
        <time>2011-05-08T07:38:19.000Z</time>
      </trkpt>
      <trkpt lat="43.85956" lon="6.99275">
        <ele>596.79998779297</ele>
        <time>2011-05-08T07:38:20.000Z</time>
      </trkpt>
      <trkpt lat="43.85956" lon="6.99294">
        <ele>598.59997558594</ele>
        <time>2011-05-08T07:38:28.000Z</time>
      </trkpt>
      <trkpt lat="43.85955" lon="6.99301">
        <ele>599.20001220703</ele>
        <time>2011-05-08T07:38:31.000Z</time>
      </trkpt>
      <trkpt lat="43.85956" lon="6.99311">
        <ele>600.40002441406</ele>
        <time>2011-05-08T07:38:35.000Z</time>
      </trkpt>
      <trkpt lat="43.85955" lon="6.99326">
        <ele>602</ele>
        <time>2011-05-08T07:38:41.000Z</time>
      </trkpt>
      <trkpt lat="43.85956" lon="6.99334">
        <ele>603</ele>
        <time>2011-05-08T07:38:44.000Z</time>
      </trkpt>
      <trkpt lat="43.85952" lon="6.99353">
        <ele>604.40002441406</ele>
        <time>2011-05-08T07:38:51.000Z</time>
      </trkpt>
      <trkpt lat="43.85943" lon="6.9937">
        <ele>603.59997558594</ele>
        <time>2011-05-08T07:38:59.000Z</time>
      </trkpt>
      <trkpt lat="43.8594" lon="6.99374">
        <ele>603.20001220703</ele>
        <time>2011-05-08T07:39:01.000Z</time>
      </trkpt>
      <trkpt lat="43.85934" lon="6.99385">
        <ele>602.79998779297</ele>
        <time>2011-05-08T07:39:06.000Z</time>
      </trkpt>
      <trkpt lat="43.85934" lon="6.99387">
        <ele>603.20001220703</ele>
        <time>2011-05-08T07:39:07.000Z</time>
      </trkpt>
      <trkpt lat="43.85939" lon="6.99392">
        <ele>605.79998779297</ele>
        <time>2011-05-08T07:39:11.000Z</time>
      </trkpt>
      <trkpt lat="43.85945" lon="6.99384">
        <ele>606.40002441406</ele>
        <time>2011-05-08T07:39:15.000Z</time>
      </trkpt>
      <trkpt lat="43.85946" lon="6.99382">
        <ele>606.40002441406</ele>
        <time>2011-05-08T07:39:16.000Z</time>
      </trkpt>
      <trkpt lat="43.8595" lon="6.99373">
        <ele>606.59997558594</ele>
        <time>2011-05-08T07:39:20.000Z</time>
      </trkpt>
      <trkpt lat="43.85959" lon="6.99361">
        <ele>608</ele>
        <time>2011-05-08T07:39:26.000Z</time>
      </trkpt>
      <trkpt lat="43.85963" lon="6.99351">
        <ele>608</ele>
        <time>2011-05-08T07:39:30.000Z</time>
      </trkpt>
      <trkpt lat="43.85964" lon="6.99344">
        <ele>607.79998779297</ele>
        <time>2011-05-08T07:39:32.000Z</time>
      </trkpt>
      <trkpt lat="43.85966" lon="6.99324">
        <ele>606.20001220703</ele>
        <time>2011-05-08T07:39:38.000Z</time>
      </trkpt>
      <trkpt lat="43.85968" lon="6.99318">
        <ele>606.59997558594</ele>
        <time>2011-05-08T07:39:40.000Z</time>
      </trkpt>
      <trkpt lat="43.85972" lon="6.99298">
        <ele>606.40002441406</ele>
        <time>2011-05-08T07:39:47.000Z</time>
      </trkpt>
      <trkpt lat="43.85977" lon="6.99276">
        <ele>607</ele>
        <time>2011-05-08T07:39:55.000Z</time>
      </trkpt>
      <trkpt lat="43.85977" lon="6.99273">
        <ele>607</ele>
        <time>2011-05-08T07:39:56.000Z</time>
      </trkpt>
      <trkpt lat="43.85983" lon="6.99255">
        <ele>608.59997558594</ele>
        <time>2011-05-08T07:40:03.000Z</time>
      </trkpt>
      <trkpt lat="43.85985" lon="6.99249">
        <ele>609</ele>
        <time>2011-05-08T07:40:05.000Z</time>
      </trkpt>
      <trkpt lat="43.85987" lon="6.99234">
        <ele>608.20001220703</ele>
        <time>2011-05-08T07:40:10.000Z</time>
      </trkpt>
      <trkpt lat="43.85989" lon="6.99223">
        <ele>608</ele>
        <time>2011-05-08T07:40:13.000Z</time>
      </trkpt>
      <trkpt lat="43.85992" lon="6.99204">
        <ele>608</ele>
        <time>2011-05-08T07:40:19.000Z</time>
      </trkpt>
      <trkpt lat="43.85994" lon="6.99197">
        <ele>608.20001220703</ele>
        <time>2011-05-08T07:40:22.000Z</time>
      </trkpt>
      <trkpt lat="43.85998" lon="6.99182">
        <ele>608.59997558594</ele>
        <time>2011-05-08T07:40:27.000Z</time>
      </trkpt>
      <trkpt lat="43.86" lon="6.99173">
        <ele>608.59997558594</ele>
        <time>2011-05-08T07:40:30.000Z</time>
      </trkpt>
      <trkpt lat="43.86004" lon="6.99161">
        <ele>605.79998779297</ele>
        <time>2011-05-08T07:40:34.000Z</time>
      </trkpt>
      <trkpt lat="43.86011" lon="6.99152">
        <ele>602.20001220703</ele>
        <time>2011-05-08T07:40:39.000Z</time>
      </trkpt>
      <trkpt lat="43.86014" lon="6.99151">
        <ele>601.79998779297</ele>
        <time>2011-05-08T07:40:40.000Z</time>
      </trkpt>
      <trkpt lat="43.86029" lon="6.99152">
        <ele>600.79998779297</ele>
        <time>2011-05-08T07:40:46.000Z</time>
      </trkpt>
      <trkpt lat="43.86031" lon="6.99153">
        <ele>601</ele>
        <time>2011-05-08T07:40:47.000Z</time>
      </trkpt>
      <trkpt lat="43.86041" lon="6.99164">
        <ele>604</ele>
        <time>2011-05-08T07:40:52.000Z</time>
      </trkpt>
      <trkpt lat="43.86046" lon="6.9917">
        <ele>605.40002441406</ele>
        <time>2011-05-08T07:40:55.000Z</time>
      </trkpt>
      <trkpt lat="43.8605" lon="6.99176">
        <ele>606.59997558594</ele>
        <time>2011-05-08T07:40:58.000Z</time>
      </trkpt>
      <trkpt lat="43.86063" lon="6.99184">
        <ele>608.59997558594</ele>
        <time>2011-05-08T07:41:03.000Z</time>
      </trkpt>
      <trkpt lat="43.8608" lon="6.99194">
        <ele>612.20001220703</ele>
        <time>2011-05-08T07:41:10.000Z</time>
      </trkpt>
      <trkpt lat="43.86085" lon="6.99197">
        <ele>613.20001220703</ele>
        <time>2011-05-08T07:41:12.000Z</time>
      </trkpt>
      <trkpt lat="43.86097" lon="6.99205">
        <ele>614.59997558594</ele>
        <time>2011-05-08T07:41:17.000Z</time>
      </trkpt>
      <trkpt lat="43.86104" lon="6.99211">
        <ele>615.79998779297</ele>
        <time>2011-05-08T07:41:20.000Z</time>
      </trkpt>
      <trkpt lat="43.86115" lon="6.99217">
        <ele>617</ele>
        <time>2011-05-08T07:41:25.000Z</time>
      </trkpt>
      <trkpt lat="43.86118" lon="6.9922">
        <ele>617.40002441406</ele>
        <time>2011-05-08T07:41:27.000Z</time>
      </trkpt>
      <trkpt lat="43.86132" lon="6.99226">
        <ele>617.79998779297</ele>
        <time>2011-05-08T07:41:34.000Z</time>
      </trkpt>
      <trkpt lat="43.86146" lon="6.99229">
        <ele>617.20001220703</ele>
        <time>2011-05-08T07:41:40.000Z</time>
      </trkpt>
      <trkpt lat="43.8615" lon="6.9923">
        <ele>617</ele>
        <time>2011-05-08T07:41:42.000Z</time>
      </trkpt>
      <trkpt lat="43.86163" lon="6.99234">
        <ele>616.79998779297</ele>
        <time>2011-05-08T07:41:48.000Z</time>
      </trkpt>
      <trkpt lat="43.86168" lon="6.99236">
        <ele>616.59997558594</ele>
        <time>2011-05-08T07:41:50.000Z</time>
      </trkpt>
      <trkpt lat="43.86174" lon="6.99246">
        <ele>616.59997558594</ele>
        <time>2011-05-08T07:41:54.000Z</time>
      </trkpt>
      <trkpt lat="43.86174" lon="6.99249">
        <ele>617.40002441406</ele>
        <time>2011-05-08T07:41:55.000Z</time>
      </trkpt>
      <trkpt lat="43.86173" lon="6.9926">
        <ele>620.79998779297</ele>
        <time>2011-05-08T07:41:58.000Z</time>
      </trkpt>
      <trkpt lat="43.86173" lon="6.99287">
        <ele>627.40002441406</ele>
        <time>2011-05-08T07:42:04.000Z</time>
      </trkpt>
      <trkpt lat="43.86181" lon="6.99315">
        <ele>630.59997558594</ele>
        <time>2011-05-08T07:42:10.000Z</time>
      </trkpt>
      <trkpt lat="43.86182" lon="6.99319">
        <ele>630.79998779297</ele>
        <time>2011-05-08T07:42:11.000Z</time>
      </trkpt>
      <trkpt lat="43.86191" lon="6.99339">
        <ele>631.59997558594</ele>
        <time>2011-05-08T07:42:16.000Z</time>
      </trkpt>
      <trkpt lat="43.86194" lon="6.99353">
        <ele>633.59997558594</ele>
        <time>2011-05-08T07:42:19.000Z</time>
      </trkpt>
      <trkpt lat="43.86196" lon="6.99367">
        <ele>636.59997558594</ele>
        <time>2011-05-08T07:42:22.000Z</time>
      </trkpt>
      <trkpt lat="43.862" lon="6.99387">
        <ele>640.40002441406</ele>
        <time>2011-05-08T07:42:27.000Z</time>
      </trkpt>
      <trkpt lat="43.86201" lon="6.99391">
        <ele>640.59997558594</ele>
        <time>2011-05-08T07:42:28.000Z</time>
      </trkpt>
      <trkpt lat="43.86211" lon="6.99408">
        <ele>641.20001220703</ele>
        <time>2011-05-08T07:42:33.000Z</time>
      </trkpt>
      <trkpt lat="43.86212" lon="6.99411">
        <ele>641.20001220703</ele>
        <time>2011-05-08T07:42:34.000Z</time>
      </trkpt>
      <trkpt lat="43.86224" lon="6.99429">
        <ele>642</ele>
        <time>2011-05-08T07:42:40.000Z</time>
      </trkpt>
      <trkpt lat="43.86225" lon="6.99432">
        <ele>642.20001220703</ele>
        <time>2011-05-08T07:42:41.000Z</time>
      </trkpt>
      <trkpt lat="43.86235" lon="6.99452">
        <ele>645</ele>
        <time>2011-05-08T07:42:47.000Z</time>
      </trkpt>
      <trkpt lat="43.86237" lon="6.99455">
        <ele>645.59997558594</ele>
        <time>2011-05-08T07:42:48.000Z</time>
      </trkpt>
      <trkpt lat="43.86244" lon="6.99475">
        <ele>650.59997558594</ele>
        <time>2011-05-08T07:42:55.000Z</time>
      </trkpt>
      <trkpt lat="43.86246" lon="6.99477">
        <ele>651.20001220703</ele>
        <time>2011-05-08T07:42:56.000Z</time>
      </trkpt>
      <trkpt lat="43.86253" lon="6.99488">
        <ele>654.59997558594</ele>
        <time>2011-05-08T07:43:01.000Z</time>
      </trkpt>
      <trkpt lat="43.86259" lon="6.99498">
        <ele>658.79998779297</ele>
        <time>2011-05-08T07:43:05.000Z</time>
      </trkpt>
      <trkpt lat="43.8626" lon="6.99501">
        <ele>660</ele>
        <time>2011-05-08T07:43:06.000Z</time>
      </trkpt>
      <trkpt lat="43.86259" lon="6.99503">
        <ele>661</ele>
        <time>2011-05-08T07:43:07.000Z</time>
      </trkpt>
      <trkpt lat="43.86254" lon="6.99505">
        <ele>661.20001220703</ele>
        <time>2011-05-08T07:43:10.000Z</time>
      </trkpt>
      <trkpt lat="43.86249" lon="6.99497">
        <ele>658</ele>
        <time>2011-05-08T07:43:14.000Z</time>
      </trkpt>
      <trkpt lat="43.86247" lon="6.99495">
        <ele>657.40002441406</ele>
        <time>2011-05-08T07:43:15.000Z</time>
      </trkpt>
      <trkpt lat="43.86239" lon="6.99482">
        <ele>654.59997558594</ele>
        <time>2011-05-08T07:43:21.000Z</time>
      </trkpt>
      <trkpt lat="43.86237" lon="6.99478">
        <ele>653.79998779297</ele>
        <time>2011-05-08T07:43:23.000Z</time>
      </trkpt>
      <trkpt lat="43.86231" lon="6.99466">
        <ele>651.20001220703</ele>
        <time>2011-05-08T07:43:28.000Z</time>
      </trkpt>
      <trkpt lat="43.86225" lon="6.99457">
        <ele>650</ele>
        <time>2011-05-08T07:43:32.000Z</time>
      </trkpt>
      <trkpt lat="43.86218" lon="6.99447">
        <ele>649.20001220703</ele>
        <time>2011-05-08T07:43:37.000Z</time>
      </trkpt>
      <trkpt lat="43.86212" lon="6.99438">
        <ele>648.79998779297</ele>
        <time>2011-05-08T07:43:41.000Z</time>
      </trkpt>
      <trkpt lat="43.86208" lon="6.99432">
        <ele>648.59997558594</ele>
        <time>2011-05-08T07:43:44.000Z</time>
      </trkpt>
      <trkpt lat="43.86199" lon="6.99418">
        <ele>648.79998779297</ele>
        <time>2011-05-08T07:43:50.000Z</time>
      </trkpt>
      <trkpt lat="43.86196" lon="6.99414">
        <ele>649</ele>
        <time>2011-05-08T07:43:52.000Z</time>
      </trkpt>
      <trkpt lat="43.86188" lon="6.99399">
        <ele>648.59997558594</ele>
        <time>2011-05-08T07:43:58.000Z</time>
      </trkpt>
      <trkpt lat="43.86183" lon="6.99388">
        <ele>648</ele>
        <time>2011-05-08T07:44:02.000Z</time>
      </trkpt>
      <trkpt lat="43.86178" lon="6.99377">
        <ele>647.20001220703</ele>
        <time>2011-05-08T07:44:06.000Z</time>
      </trkpt>
      <trkpt lat="43.86174" lon="6.99363">
        <ele>645.59997558594</ele>
        <time>2011-05-08T07:44:11.000Z</time>
      </trkpt>
      <trkpt lat="43.86172" lon="6.99354">
        <ele>644.59997558594</ele>
        <time>2011-05-08T07:44:14.000Z</time>
      </trkpt>
      <trkpt lat="43.86169" lon="6.99346">
        <ele>644</ele>
        <time>2011-05-08T07:44:17.000Z</time>
      </trkpt>
      <trkpt lat="43.86162" lon="6.99332">
        <ele>642</ele>
        <time>2011-05-08T07:44:22.000Z</time>
      </trkpt>
      <trkpt lat="43.86157" lon="6.99322">
        <ele>639.79998779297</ele>
        <time>2011-05-08T07:44:26.000Z</time>
      </trkpt>
      <trkpt lat="43.86151" lon="6.99309">
        <ele>637.40002441406</ele>
        <time>2011-05-08T07:44:31.000Z</time>
      </trkpt>
      <trkpt lat="43.86148" lon="6.99296">
        <ele>634.79998779297</ele>
        <time>2011-05-08T07:44:35.000Z</time>
      </trkpt>
      <trkpt lat="43.86143" lon="6.99284">
        <ele>632.59997558594</ele>
        <time>2011-05-08T07:44:39.000Z</time>
      </trkpt>
      <trkpt lat="43.86138" lon="6.99277">
        <ele>631.59997558594</ele>
        <time>2011-05-08T07:44:42.000Z</time>
      </trkpt>
      <trkpt lat="43.86127" lon="6.99272">
        <ele>631.59997558594</ele>
        <time>2011-05-08T07:44:47.000Z</time>
      </trkpt>
      <trkpt lat="43.86124" lon="6.99272">
        <ele>632</ele>
        <time>2011-05-08T07:44:48.000Z</time>
      </trkpt>
      <trkpt lat="43.86109" lon="6.99279">
        <ele>635</ele>
        <time>2011-05-08T07:44:55.000Z</time>
      </trkpt>
      <trkpt lat="43.86101" lon="6.99296">
        <ele>639</ele>
        <time>2011-05-08T07:45:01.000Z</time>
      </trkpt>
      <trkpt lat="43.86099" lon="6.99302">
        <ele>640.40002441406</ele>
        <time>2011-05-08T07:45:03.000Z</time>
      </trkpt>
      <trkpt lat="43.86096" lon="6.99319">
        <ele>643.59997558594</ele>
        <time>2011-05-08T07:45:08.000Z</time>
      </trkpt>
      <trkpt lat="43.86095" lon="6.99329">
        <ele>645.40002441406</ele>
        <time>2011-05-08T07:45:11.000Z</time>
      </trkpt>
      <trkpt lat="43.8609" lon="6.99347">
        <ele>648.40002441406</ele>
        <time>2011-05-08T07:45:17.000Z</time>
      </trkpt>
      <trkpt lat="43.86087" lon="6.99352">
        <ele>649.20001220703</ele>
        <time>2011-05-08T07:45:19.000Z</time>
      </trkpt>
      <trkpt lat="43.86081" lon="6.9936">
        <ele>649.79998779297</ele>
        <time>2011-05-08T07:45:23.000Z</time>
      </trkpt>
      <trkpt lat="43.86076" lon="6.9937">
        <ele>649.20001220703</ele>
        <time>2011-05-08T07:45:27.000Z</time>
      </trkpt>
      <trkpt lat="43.8607" lon="6.99386">
        <ele>649.59997558594</ele>
        <time>2011-05-08T07:45:32.000Z</time>
      </trkpt>
      <trkpt lat="43.86068" lon="6.99396">
        <ele>650</ele>
        <time>2011-05-08T07:45:35.000Z</time>
      </trkpt>
      <trkpt lat="43.86065" lon="6.99414">
        <ele>651.20001220703</ele>
        <time>2011-05-08T07:45:40.000Z</time>
      </trkpt>
      <trkpt lat="43.86065" lon="6.99422">
        <ele>651.59997558594</ele>
        <time>2011-05-08T07:45:42.000Z</time>
      </trkpt>
      <trkpt lat="43.86066" lon="6.9944">
        <ele>652.59997558594</ele>
        <time>2011-05-08T07:45:47.000Z</time>
      </trkpt>
      <trkpt lat="43.86066" lon="6.99447">
        <ele>653</ele>
        <time>2011-05-08T07:45:49.000Z</time>
      </trkpt>
      <trkpt lat="43.86069" lon="6.99465">
        <ele>654.59997558594</ele>
        <time>2011-05-08T07:45:54.000Z</time>
      </trkpt>
      <trkpt lat="43.8607" lon="6.99472">
        <ele>655.40002441406</ele>
        <time>2011-05-08T07:45:56.000Z</time>
      </trkpt>
      <trkpt lat="43.86078" lon="6.99493">
        <ele>658.79998779297</ele>
        <time>2011-05-08T07:46:02.000Z</time>
      </trkpt>
      <trkpt lat="43.8608" lon="6.99496">
        <ele>659.59997558594</ele>
        <time>2011-05-08T07:46:03.000Z</time>
      </trkpt>
      <trkpt lat="43.86093" lon="6.99516">
        <ele>665</ele>
        <time>2011-05-08T07:46:10.000Z</time>
      </trkpt>
      <trkpt lat="43.86096" lon="6.99542">
        <ele>669.79998779297</ele>
        <time>2011-05-08T07:46:17.000Z</time>
      </trkpt>
      <trkpt lat="43.86089" lon="6.99556">
        <ele>670.79998779297</ele>
        <time>2011-05-08T07:46:22.000Z</time>
      </trkpt>
      <trkpt lat="43.86083" lon="6.99562">
        <ele>670.40002441406</ele>
        <time>2011-05-08T07:46:25.000Z</time>
      </trkpt>
      <trkpt lat="43.86072" lon="6.99569">
        <ele>668.20001220703</ele>
        <time>2011-05-08T07:46:29.000Z</time>
      </trkpt>
      <trkpt lat="43.86066" lon="6.99573">
        <ele>666.79998779297</ele>
        <time>2011-05-08T07:46:32.000Z</time>
      </trkpt>
      <trkpt lat="43.86055" lon="6.9958">
        <ele>664.59997558594</ele>
        <time>2011-05-08T07:46:37.000Z</time>
      </trkpt>
      <trkpt lat="43.86049" lon="6.99585">
        <ele>663.59997558594</ele>
        <time>2011-05-08T07:46:40.000Z</time>
      </trkpt>
      <trkpt lat="43.86039" lon="6.99595">
        <ele>662.40002441406</ele>
        <time>2011-05-08T07:46:45.000Z</time>
      </trkpt>
      <trkpt lat="43.86034" lon="6.99602">
        <ele>662.20001220703</ele>
        <time>2011-05-08T07:46:48.000Z</time>
      </trkpt>
      <trkpt lat="43.86029" lon="6.9961">
        <ele>662.40002441406</ele>
        <time>2011-05-08T07:46:51.000Z</time>
      </trkpt>
      <trkpt lat="43.86024" lon="6.99626">
        <ele>663.59997558594</ele>
        <time>2011-05-08T07:46:56.000Z</time>
      </trkpt>
      <trkpt lat="43.86023" lon="6.99633">
        <ele>664.40002441406</ele>
        <time>2011-05-08T07:46:58.000Z</time>
      </trkpt>
      <trkpt lat="43.86019" lon="6.9965">
        <ele>666.20001220703</ele>
        <time>2011-05-08T07:47:03.000Z</time>
      </trkpt>
      <trkpt lat="43.86015" lon="6.99663">
        <ele>667.40002441406</ele>
        <time>2011-05-08T07:47:07.000Z</time>
      </trkpt>
      <trkpt lat="43.86012" lon="6.99676">
        <ele>668.20001220703</ele>
        <time>2011-05-08T07:47:11.000Z</time>
      </trkpt>
      <trkpt lat="43.86009" lon="6.99686">
        <ele>668.79998779297</ele>
        <time>2011-05-08T07:47:14.000Z</time>
      </trkpt>
      <trkpt lat="43.86004" lon="6.99701">
        <ele>669.79998779297</ele>
        <time>2011-05-08T07:47:19.000Z</time>
      </trkpt>
      <trkpt lat="43.85998" lon="6.99716">
        <ele>670.59997558594</ele>
        <time>2011-05-08T07:47:24.000Z</time>
      </trkpt>
      <trkpt lat="43.85993" lon="6.99724">
        <ele>670.79998779297</ele>
        <time>2011-05-08T07:47:27.000Z</time>
      </trkpt>
      <trkpt lat="43.85988" lon="6.99736">
        <ele>671</ele>
        <time>2011-05-08T07:47:31.000Z</time>
      </trkpt>
      <trkpt lat="43.85982" lon="6.99746">
        <ele>671.20001220703</ele>
        <time>2011-05-08T07:47:35.000Z</time>
      </trkpt>
      <trkpt lat="43.85978" lon="6.99755">
        <ele>671.40002441406</ele>
        <time>2011-05-08T07:47:38.000Z</time>
      </trkpt>
      <trkpt lat="43.85973" lon="6.9977">
        <ele>672.20001220703</ele>
        <time>2011-05-08T07:47:43.000Z</time>
      </trkpt>
      <trkpt lat="43.85969" lon="6.99782">
        <ele>672.79998779297</ele>
        <time>2011-05-08T07:47:47.000Z</time>
      </trkpt>
      <trkpt lat="43.85964" lon="6.99793">
        <ele>673.20001220703</ele>
        <time>2011-05-08T07:47:51.000Z</time>
      </trkpt>
      <trkpt lat="43.85959" lon="6.99805">
        <ele>673.79998779297</ele>
        <time>2011-05-08T07:47:55.000Z</time>
      </trkpt>
      <trkpt lat="43.85954" lon="6.99816">
        <ele>674</ele>
        <time>2011-05-08T07:47:59.000Z</time>
      </trkpt>
      <trkpt lat="43.8595" lon="6.99825">
        <ele>674.59997558594</ele>
        <time>2011-05-08T07:48:02.000Z</time>
      </trkpt>
      <trkpt lat="43.85945" lon="6.99839">
        <ele>675.20001220703</ele>
        <time>2011-05-08T07:48:07.000Z</time>
      </trkpt>
      <trkpt lat="43.85942" lon="6.99848">
        <ele>675.40002441406</ele>
        <time>2011-05-08T07:48:10.000Z</time>
      </trkpt>
      <trkpt lat="43.85937" lon="6.99862">
        <ele>676</ele>
        <time>2011-05-08T07:48:15.000Z</time>
      </trkpt>
      <trkpt lat="43.85932" lon="6.99877">
        <ele>676.79998779297</ele>
        <time>2011-05-08T07:48:20.000Z</time>
      </trkpt>
      <trkpt lat="43.8593" lon="6.99887">
        <ele>677.59997558594</ele>
        <time>2011-05-08T07:48:23.000Z</time>
      </trkpt>
      <trkpt lat="43.85924" lon="6.9991">
        <ele>679.59997558594</ele>
        <time>2011-05-08T07:48:30.000Z</time>
      </trkpt>
      <trkpt lat="43.85923" lon="6.99914">
        <ele>680</ele>
        <time>2011-05-08T07:48:31.000Z</time>
      </trkpt>
      <trkpt lat="43.85915" lon="6.99935">
        <ele>681.79998779297</ele>
        <time>2011-05-08T07:48:38.000Z</time>
      </trkpt>
      <trkpt lat="43.85914" lon="6.99938">
        <ele>682.20001220703</ele>
        <time>2011-05-08T07:48:39.000Z</time>
      </trkpt>
      <trkpt lat="43.85908" lon="6.99957">
        <ele>685.20001220703</ele>
        <time>2011-05-08T07:48:45.000Z</time>
      </trkpt>
      <trkpt lat="43.85906" lon="6.99963">
        <ele>686.20001220703</ele>
        <time>2011-05-08T07:48:47.000Z</time>
      </trkpt>
      <trkpt lat="43.85902" lon="6.9998">
        <ele>688.79998779297</ele>
        <time>2011-05-08T07:48:52.000Z</time>
      </trkpt>
      <trkpt lat="43.859" lon="6.99986">
        <ele>689.79998779297</ele>
        <time>2011-05-08T07:48:54.000Z</time>
      </trkpt>
      <trkpt lat="43.85893" lon="7.0001">
        <ele>691.59997558594</ele>
        <time>2011-05-08T07:49:01.000Z</time>
      </trkpt>
      <trkpt lat="43.85892" lon="7.00013">
        <ele>691.59997558594</ele>
        <time>2011-05-08T07:49:02.000Z</time>
      </trkpt>
      <trkpt lat="43.85882" lon="7.00032">
        <ele>691.40002441406</ele>
        <time>2011-05-08T07:49:08.000Z</time>
      </trkpt>
      <trkpt lat="43.8588" lon="7.00035">
        <ele>691.40002441406</ele>
        <time>2011-05-08T07:49:09.000Z</time>
      </trkpt>
      <trkpt lat="43.85865" lon="7.00046">
        <ele>688.20001220703</ele>
        <time>2011-05-08T07:49:15.000Z</time>
      </trkpt>
      <trkpt lat="43.85851" lon="7.00046">
        <ele>687.20001220703</ele>
        <time>2011-05-08T07:49:21.000Z</time>
      </trkpt>
      <trkpt lat="43.85847" lon="7.00045">
        <ele>687</ele>
        <time>2011-05-08T07:49:26.000Z</time>
      </trkpt>
      <trkpt lat="43.85847" lon="7.00045">
        <ele>687</ele>
        <time>2011-05-08T07:49:27.000Z</time>
      </trkpt>
      <trkpt lat="43.85846" lon="7.00046">
        <ele>686.79998779297</ele>
        <time>2011-05-08T07:49:30.000Z</time>
      </trkpt>
      <trkpt lat="43.85845" lon="7.00047">
        <ele>686.59997558594</ele>
        <time>2011-05-08T07:49:31.000Z</time>
      </trkpt>
      <trkpt lat="43.85846" lon="7.00049">
        <ele>686.59997558594</ele>
        <time>2011-05-08T07:49:39.000Z</time>
      </trkpt>
      <trkpt lat="43.85845" lon="7.00047">
        <ele>686.59997558594</ele>
        <time>2011-05-08T07:50:14.000Z</time>
      </trkpt>
      <trkpt lat="43.85845" lon="7.00049">
        <ele>686.40002441406</ele>
        <time>2011-05-08T07:50:24.000Z</time>
      </trkpt>
      <trkpt lat="43.85845" lon="7.00044">
        <ele>687</ele>
        <time>2011-05-08T07:51:08.000Z</time>
      </trkpt>
      <trkpt lat="43.85845" lon="7.0004">
        <ele>687.40002441406</ele>
        <time>2011-05-08T07:51:14.000Z</time>
      </trkpt>
      <trkpt lat="43.85845" lon="7.00038">
        <ele>687.59997558594</ele>
        <time>2011-05-08T07:51:20.000Z</time>
      </trkpt>
      <trkpt lat="43.85846" lon="7.00034">
        <ele>688</ele>
        <time>2011-05-08T07:51:33.000Z</time>
      </trkpt>
      <trkpt lat="43.85846" lon="7.00029">
        <ele>688.40002441406</ele>
        <time>2011-05-08T07:51:35.000Z</time>
      </trkpt>
      <trkpt lat="43.85839" lon="7.00013">
        <ele>689.59997558594</ele>
        <time>2011-05-08T07:51:40.000Z</time>
      </trkpt>
      <trkpt lat="43.85826" lon="6.9999">
        <ele>693</ele>
        <time>2011-05-08T07:51:47.000Z</time>
      </trkpt>
      <trkpt lat="43.85823" lon="6.99983">
        <ele>694.20001220703</ele>
        <time>2011-05-08T07:51:49.000Z</time>
      </trkpt>
      <trkpt lat="43.85816" lon="6.99967">
        <ele>696.40002441406</ele>
        <time>2011-05-08T07:51:53.000Z</time>
      </trkpt>
      <trkpt lat="43.85808" lon="6.99947">
        <ele>693.40002441406</ele>
        <time>2011-05-08T07:51:58.000Z</time>
      </trkpt>
      <trkpt lat="43.85806" lon="6.99942">
        <ele>693.40002441406</ele>
        <time>2011-05-08T07:51:59.000Z</time>
      </trkpt>
      <trkpt lat="43.85799" lon="6.99917">
        <ele>693.20001220703</ele>
        <time>2011-05-08T07:52:04.000Z</time>
      </trkpt>
      <trkpt lat="43.8579" lon="6.99894">
        <ele>692.40002441406</ele>
        <time>2011-05-08T07:52:09.000Z</time>
      </trkpt>
      <trkpt lat="43.85774" lon="6.99882">
        <ele>695.59997558594</ele>
        <time>2011-05-08T07:52:14.000Z</time>
      </trkpt>
      <trkpt lat="43.85758" lon="6.99875">
        <ele>699.79998779297</ele>
        <time>2011-05-08T07:52:19.000Z</time>
      </trkpt>
      <trkpt lat="43.85754" lon="6.99873">
        <ele>700.59997558594</ele>
        <time>2011-05-08T07:52:20.000Z</time>
      </trkpt>
      <trkpt lat="43.85741" lon="6.99863">
        <ele>704.40002441406</ele>
        <time>2011-05-08T07:52:24.000Z</time>
      </trkpt>
      <trkpt lat="43.85738" lon="6.9986">
        <ele>705.20001220703</ele>
        <time>2011-05-08T07:52:25.000Z</time>
      </trkpt>
      <trkpt lat="43.85723" lon="6.99845">
        <ele>710</ele>
        <time>2011-05-08T07:52:30.000Z</time>
      </trkpt>
      <trkpt lat="43.85721" lon="6.99841">
        <ele>710.79998779297</ele>
        <time>2011-05-08T07:52:31.000Z</time>
      </trkpt>
      <trkpt lat="43.85717" lon="6.9982">
        <ele>712.59997558594</ele>
        <time>2011-05-08T07:52:35.000Z</time>
      </trkpt>
      <trkpt lat="43.85722" lon="6.99803">
        <ele>710.40002441406</ele>
        <time>2011-05-08T07:52:39.000Z</time>
      </trkpt>
      <trkpt lat="43.85727" lon="6.99796">
        <ele>708.59997558594</ele>
        <time>2011-05-08T07:52:41.000Z</time>
      </trkpt>
      <trkpt lat="43.8574" lon="6.99775">
        <ele>702.79998779297</ele>
        <time>2011-05-08T07:52:47.000Z</time>
      </trkpt>
      <trkpt lat="43.85745" lon="6.99767">
        <ele>700.79998779297</ele>
        <time>2011-05-08T07:52:49.000Z</time>
      </trkpt>
      <trkpt lat="43.85754" lon="6.99752">
        <ele>697.40002441406</ele>
        <time>2011-05-08T07:52:53.000Z</time>
      </trkpt>
      <trkpt lat="43.85756" lon="6.99748">
        <ele>696.40002441406</ele>
        <time>2011-05-08T07:52:54.000Z</time>
      </trkpt>
      <trkpt lat="43.85761" lon="6.99727">
        <ele>692.79998779297</ele>
        <time>2011-05-08T07:52:59.000Z</time>
      </trkpt>
      <trkpt lat="43.8576" lon="6.99722">
        <ele>692.59997558594</ele>
        <time>2011-05-08T07:53:00.000Z</time>
      </trkpt>
      <trkpt lat="43.85756" lon="6.99703">
        <ele>693</ele>
        <time>2011-05-08T07:53:04.000Z</time>
      </trkpt>
      <trkpt lat="43.85752" lon="6.99694">
        <ele>693.79998779297</ele>
        <time>2011-05-08T07:53:06.000Z</time>
      </trkpt>
      <trkpt lat="43.85746" lon="6.99681">
        <ele>695.40002441406</ele>
        <time>2011-05-08T07:53:09.000Z</time>
      </trkpt>
      <trkpt lat="43.85733" lon="6.9966">
        <ele>697.59997558594</ele>
        <time>2011-05-08T07:53:14.000Z</time>
      </trkpt>
      <trkpt lat="43.85718" lon="6.99643">
        <ele>699.59997558594</ele>
        <time>2011-05-08T07:53:19.000Z</time>
      </trkpt>
      <trkpt lat="43.85712" lon="6.99636">
        <ele>699.79998779297</ele>
        <time>2011-05-08T07:53:21.000Z</time>
      </trkpt>
      <trkpt lat="43.85702" lon="6.99625">
        <ele>700</ele>
        <time>2011-05-08T07:53:24.000Z</time>
      </trkpt>
      <trkpt lat="43.85691" lon="6.9961">
        <ele>698.59997558594</ele>
        <time>2011-05-08T07:53:28.000Z</time>
      </trkpt>
      <trkpt lat="43.85689" lon="6.99606">
        <ele>697.79998779297</ele>
        <time>2011-05-08T07:53:29.000Z</time>
      </trkpt>
      <trkpt lat="43.8568" lon="6.99593">
        <ele>695.79998779297</ele>
        <time>2011-05-08T07:53:33.000Z</time>
      </trkpt>
      <trkpt lat="43.85674" lon="6.99591">
        <ele>696.20001220703</ele>
        <time>2011-05-08T07:53:35.000Z</time>
      </trkpt>
      <trkpt lat="43.85668" lon="6.99593">
        <ele>698</ele>
        <time>2011-05-08T07:53:37.000Z</time>
      </trkpt>
      <trkpt lat="43.85657" lon="6.996">
        <ele>699.79998779297</ele>
        <time>2011-05-08T07:53:41.000Z</time>
      </trkpt>
      <trkpt lat="43.8565" lon="6.99602">
        <ele>700.20001220703</ele>
        <time>2011-05-08T07:53:43.000Z</time>
      </trkpt>
      <trkpt lat="43.85638" lon="6.99604">
        <ele>700.40002441406</ele>
        <time>2011-05-08T07:53:47.000Z</time>
      </trkpt>
      <trkpt lat="43.85632" lon="6.99605">
        <ele>700.59997558594</ele>
        <time>2011-05-08T07:53:49.000Z</time>
      </trkpt>
      <trkpt lat="43.8562" lon="6.99611">
        <ele>702.20001220703</ele>
        <time>2011-05-08T07:53:53.000Z</time>
      </trkpt>
      <trkpt lat="43.85614" lon="6.99613">
        <ele>702.79998779297</ele>
        <time>2011-05-08T07:53:55.000Z</time>
      </trkpt>
      <trkpt lat="43.85602" lon="6.99616">
        <ele>703.40002441406</ele>
        <time>2011-05-08T07:53:59.000Z</time>
      </trkpt>
      <trkpt lat="43.85595" lon="6.99615">
        <ele>703</ele>
        <time>2011-05-08T07:54:01.000Z</time>
      </trkpt>
      <trkpt lat="43.85581" lon="6.99613">
        <ele>701</ele>
        <time>2011-05-08T07:54:06.000Z</time>
      </trkpt>
      <trkpt lat="43.85576" lon="6.99617">
        <ele>701</ele>
        <time>2011-05-08T07:54:08.000Z</time>
      </trkpt>
      <trkpt lat="43.8557" lon="6.99632">
        <ele>705.20001220703</ele>
        <time>2011-05-08T07:54:12.000Z</time>
      </trkpt>
      <trkpt lat="43.85569" lon="6.99636">
        <ele>706.79998779297</ele>
        <time>2011-05-08T07:54:13.000Z</time>
      </trkpt>
      <trkpt lat="43.8556" lon="6.99653">
        <ele>711</ele>
        <time>2011-05-08T07:54:17.000Z</time>
      </trkpt>
      <trkpt lat="43.85557" lon="6.99656">
        <ele>711.40002441406</ele>
        <time>2011-05-08T07:54:18.000Z</time>
      </trkpt>
      <trkpt lat="43.85542" lon="6.99663">
        <ele>710.79998779297</ele>
        <time>2011-05-08T07:54:22.000Z</time>
      </trkpt>
      <trkpt lat="43.85538" lon="6.99664">
        <ele>709.79998779297</ele>
        <time>2011-05-08T07:54:23.000Z</time>
      </trkpt>
      <trkpt lat="43.85522" lon="6.99662">
        <ele>704.59997558594</ele>
        <time>2011-05-08T07:54:27.000Z</time>
      </trkpt>
      <trkpt lat="43.85514" lon="6.99662">
        <ele>702.59997558594</ele>
        <time>2011-05-08T07:54:29.000Z</time>
      </trkpt>
      <trkpt lat="43.85505" lon="6.99669">
        <ele>703.20001220703</ele>
        <time>2011-05-08T07:54:32.000Z</time>
      </trkpt>
      <trkpt lat="43.85504" lon="6.99674">
        <ele>704.20001220703</ele>
        <time>2011-05-08T07:54:33.000Z</time>
      </trkpt>
      <trkpt lat="43.85498" lon="6.99693">
        <ele>708.59997558594</ele>
        <time>2011-05-08T07:54:37.000Z</time>
      </trkpt>
      <trkpt lat="43.85493" lon="6.99702">
        <ele>710</ele>
        <time>2011-05-08T07:54:39.000Z</time>
      </trkpt>
      <trkpt lat="43.85481" lon="6.9971">
        <ele>709.20001220703</ele>
        <time>2011-05-08T07:54:42.000Z</time>
      </trkpt>
      <trkpt lat="43.85477" lon="6.99712">
        <ele>708.59997558594</ele>
        <time>2011-05-08T07:54:43.000Z</time>
      </trkpt>
      <trkpt lat="43.85461" lon="6.99719">
        <ele>706.20001220703</ele>
        <time>2011-05-08T07:54:47.000Z</time>
      </trkpt>
      <trkpt lat="43.85457" lon="6.99721">
        <ele>705.79998779297</ele>
        <time>2011-05-08T07:54:48.000Z</time>
      </trkpt>
      <trkpt lat="43.8545" lon="6.99727">
        <ele>706</ele>
        <time>2011-05-08T07:54:50.000Z</time>
      </trkpt>
      <trkpt lat="43.85446" lon="6.9973">
        <ele>706</ele>
        <time>2011-05-08T07:54:51.000Z</time>
      </trkpt>
      <trkpt lat="43.85441" lon="6.99732">
        <ele>705.79998779297</ele>
        <time>2011-05-08T07:54:52.000Z</time>
      </trkpt>
      <trkpt lat="43.85425" lon="6.99744">
        <ele>706.40002441406</ele>
        <time>2011-05-08T07:54:56.000Z</time>
      </trkpt>
      <trkpt lat="43.85416" lon="6.99752">
        <ele>706.79998779297</ele>
        <time>2011-05-08T07:54:58.000Z</time>
      </trkpt>
      <trkpt lat="43.85408" lon="6.99758">
        <ele>706</ele>
        <time>2011-05-08T07:55:00.000Z</time>
      </trkpt>
      <trkpt lat="43.854" lon="6.99764">
        <ele>705.40002441406</ele>
        <time>2011-05-08T07:55:02.000Z</time>
      </trkpt>
      <trkpt lat="43.85388" lon="6.99772">
        <ele>704.20001220703</ele>
        <time>2011-05-08T07:55:05.000Z</time>
      </trkpt>
      <trkpt lat="43.85377" lon="6.99778">
        <ele>703.20001220703</ele>
        <time>2011-05-08T07:55:08.000Z</time>
      </trkpt>
      <trkpt lat="43.85372" lon="6.99779">
        <ele>702.79998779297</ele>
        <time>2011-05-08T07:55:09.000Z</time>
      </trkpt>
      <trkpt lat="43.85369" lon="6.99779">
        <ele>702.59997558594</ele>
        <time>2011-05-08T07:55:10.000Z</time>
      </trkpt>
      <trkpt lat="43.85351" lon="6.99776">
        <ele>701.59997558594</ele>
        <time>2011-05-08T07:55:15.000Z</time>
      </trkpt>
      <trkpt lat="43.85348" lon="6.99775">
        <ele>701.40002441406</ele>
        <time>2011-05-08T07:55:16.000Z</time>
      </trkpt>
      <trkpt lat="43.85328" lon="6.99772">
        <ele>702.59997558594</ele>
        <time>2011-05-08T07:55:23.000Z</time>
      </trkpt>
      <trkpt lat="43.85309" lon="6.99762">
        <ele>709.79998779297</ele>
        <time>2011-05-08T07:55:30.000Z</time>
      </trkpt>
      <trkpt lat="43.85291" lon="6.99753">
        <ele>715.59997558594</ele>
        <time>2011-05-08T07:55:37.000Z</time>
      </trkpt>
      <trkpt lat="43.85277" lon="6.99745">
        <ele>719.20001220703</ele>
        <time>2011-05-08T07:55:43.000Z</time>
      </trkpt>
      <trkpt lat="43.85274" lon="6.99743">
        <ele>719.79998779297</ele>
        <time>2011-05-08T07:55:44.000Z</time>
      </trkpt>
      <trkpt lat="43.85256" lon="6.99734">
        <ele>724</ele>
        <time>2011-05-08T07:55:52.000Z</time>
      </trkpt>
      <trkpt lat="43.85239" lon="6.99718">
        <ele>727.20001220703</ele>
        <time>2011-05-08T07:56:00.000Z</time>
      </trkpt>
      <trkpt lat="43.85227" lon="6.99696">
        <ele>728</ele>
        <time>2011-05-08T07:56:08.000Z</time>
      </trkpt>
      <trkpt lat="43.85226" lon="6.99694">
        <ele>728.40002441406</ele>
        <time>2011-05-08T07:56:09.000Z</time>
      </trkpt>
      <trkpt lat="43.85213" lon="6.99682">
        <ele>732.40002441406</ele>
        <time>2011-05-08T07:56:16.000Z</time>
      </trkpt>
      <trkpt lat="43.85211" lon="6.99681">
        <ele>733</ele>
        <time>2011-05-08T07:56:17.000Z</time>
      </trkpt>
      <trkpt lat="43.85198" lon="6.99676">
        <ele>738.40002441406</ele>
        <time>2011-05-08T07:56:23.000Z</time>
      </trkpt>
      <trkpt lat="43.85193" lon="6.99673">
        <ele>740</ele>
        <time>2011-05-08T07:56:25.000Z</time>
      </trkpt>
      <trkpt lat="43.8519" lon="6.99664">
        <ele>741.40002441406</ele>
        <time>2011-05-08T07:56:28.000Z</time>
      </trkpt>
      <trkpt lat="43.85188" lon="6.99646">
        <ele>744.20001220703</ele>
        <time>2011-05-08T07:56:34.000Z</time>
      </trkpt>
      <trkpt lat="43.85194" lon="6.99622">
        <ele>744.20001220703</ele>
        <time>2011-05-08T07:56:42.000Z</time>
      </trkpt>
      <trkpt lat="43.85194" lon="6.99619">
        <ele>744.20001220703</ele>
        <time>2011-05-08T07:56:43.000Z</time>
      </trkpt>
      <trkpt lat="43.85202" lon="6.99599">
        <ele>743</ele>
        <time>2011-05-08T07:56:50.000Z</time>
      </trkpt>
      <trkpt lat="43.85203" lon="6.99597">
        <ele>742.79998779297</ele>
        <time>2011-05-08T07:56:51.000Z</time>
      </trkpt>
      <trkpt lat="43.85211" lon="6.99576">
        <ele>740</ele>
        <time>2011-05-08T07:56:59.000Z</time>
      </trkpt>
      <trkpt lat="43.85217" lon="6.99558">
        <ele>736.40002441406</ele>
        <time>2011-05-08T07:57:06.000Z</time>
      </trkpt>
      <trkpt lat="43.85217" lon="6.99552">
        <ele>736</ele>
        <time>2011-05-08T07:57:08.000Z</time>
      </trkpt>
      <trkpt lat="43.85214" lon="6.99533">
        <ele>737.20001220703</ele>
        <time>2011-05-08T07:57:15.000Z</time>
      </trkpt>
      <trkpt lat="43.85213" lon="6.99528">
        <ele>737.79998779297</ele>
        <time>2011-05-08T07:57:17.000Z</time>
      </trkpt>
      <trkpt lat="43.85209" lon="6.99511">
        <ele>739.59997558594</ele>
        <time>2011-05-08T07:57:23.000Z</time>
      </trkpt>
      <trkpt lat="43.85207" lon="6.99503">
        <ele>740.40002441406</ele>
        <time>2011-05-08T07:57:26.000Z</time>
      </trkpt>
      <trkpt lat="43.85204" lon="6.99489">
        <ele>740.59997558594</ele>
        <time>2011-05-08T07:57:31.000Z</time>
      </trkpt>
      <trkpt lat="43.85201" lon="6.99479">
        <ele>741.20001220703</ele>
        <time>2011-05-08T07:57:35.000Z</time>
      </trkpt>
      <trkpt lat="43.852" lon="6.99476">
        <ele>741.20001220703</ele>
        <time>2011-05-08T07:57:36.000Z</time>
      </trkpt>
      <trkpt lat="43.85191" lon="6.99464">
        <ele>744.79998779297</ele>
        <time>2011-05-08T07:57:43.000Z</time>
      </trkpt>
      <trkpt lat="43.85187" lon="6.99461">
        <ele>746.59997558594</ele>
        <time>2011-05-08T07:57:45.000Z</time>
      </trkpt>
      <trkpt lat="43.85184" lon="6.99459">
        <ele>748.20001220703</ele>
        <time>2011-05-08T07:57:47.000Z</time>
      </trkpt>
      <trkpt lat="43.85172" lon="6.9945">
        <ele>754.20001220703</ele>
        <time>2011-05-08T07:57:54.000Z</time>
      </trkpt>
      <trkpt lat="43.85161" lon="6.99436">
        <ele>759</ele>
        <time>2011-05-08T07:58:01.000Z</time>
      </trkpt>
      <trkpt lat="43.85158" lon="6.99431">
        <ele>760.20001220703</ele>
        <time>2011-05-08T07:58:03.000Z</time>
      </trkpt>
      <trkpt lat="43.85155" lon="6.99417">
        <ele>761</ele>
        <time>2011-05-08T07:58:08.000Z</time>
      </trkpt>
      <trkpt lat="43.85153" lon="6.99406">
        <ele>762.40002441406</ele>
        <time>2011-05-08T07:58:12.000Z</time>
      </trkpt>
      <trkpt lat="43.85153" lon="6.99392">
        <ele>763.20001220703</ele>
        <time>2011-05-08T07:58:17.000Z</time>
      </trkpt>
      <trkpt lat="43.85152" lon="6.99379">
        <ele>764.79998779297</ele>
        <time>2011-05-08T07:58:22.000Z</time>
      </trkpt>
      <trkpt lat="43.85151" lon="6.99371">
        <ele>765.79998779297</ele>
        <time>2011-05-08T07:58:25.000Z</time>
      </trkpt>
      <trkpt lat="43.8515" lon="6.99353">
        <ele>767.40002441406</ele>
        <time>2011-05-08T07:58:32.000Z</time>
      </trkpt>
      <trkpt lat="43.85152" lon="6.99343">
        <ele>766.79998779297</ele>
        <time>2011-05-08T07:58:36.000Z</time>
      </trkpt>
      <trkpt lat="43.85158" lon="6.99328">
        <ele>764.79998779297</ele>
        <time>2011-05-08T07:58:42.000Z</time>
      </trkpt>
      <trkpt lat="43.8516" lon="6.99324">
        <ele>764.20001220703</ele>
        <time>2011-05-08T07:58:44.000Z</time>
      </trkpt>
      <trkpt lat="43.85166" lon="6.99303">
        <ele>763.20001220703</ele>
        <time>2011-05-08T07:58:52.000Z</time>
      </trkpt>
      <trkpt lat="43.85167" lon="6.99301">
        <ele>763.20001220703</ele>
        <time>2011-05-08T07:58:53.000Z</time>
      </trkpt>
      <trkpt lat="43.85173" lon="6.99279">
        <ele>762.20001220703</ele>
        <time>2011-05-08T07:59:01.000Z</time>
      </trkpt>
      <trkpt lat="43.85174" lon="6.99277">
        <ele>762</ele>
        <time>2011-05-08T07:59:02.000Z</time>
      </trkpt>
      <trkpt lat="43.8518" lon="6.99257">
        <ele>760.20001220703</ele>
        <time>2011-05-08T07:59:10.000Z</time>
      </trkpt>
      <trkpt lat="43.85188" lon="6.99234">
        <ele>757</ele>
        <time>2011-05-08T07:59:19.000Z</time>
      </trkpt>
      <trkpt lat="43.85188" lon="6.99231">
        <ele>756.79998779297</ele>
        <time>2011-05-08T07:59:20.000Z</time>
      </trkpt>
      <trkpt lat="43.85185" lon="6.99208">
        <ele>759.40002441406</ele>
        <time>2011-05-08T07:59:28.000Z</time>
      </trkpt>
      <trkpt lat="43.85179" lon="6.99186">
        <ele>764.40002441406</ele>
        <time>2011-05-08T07:59:36.000Z</time>
      </trkpt>
      <trkpt lat="43.85178" lon="6.99183">
        <ele>765</ele>
        <time>2011-05-08T07:59:37.000Z</time>
      </trkpt>
      <trkpt lat="43.85173" lon="6.99161">
        <ele>768.59997558594</ele>
        <time>2011-05-08T07:59:45.000Z</time>
      </trkpt>
      <trkpt lat="43.85172" lon="6.99159">
        <ele>769</ele>
        <time>2011-05-08T07:59:46.000Z</time>
      </trkpt>
      <trkpt lat="43.85163" lon="6.99144">
        <ele>773.59997558594</ele>
        <time>2011-05-08T07:59:53.000Z</time>
      </trkpt>
      <trkpt lat="43.85158" lon="6.9914">
        <ele>776.40002441406</ele>
        <time>2011-05-08T07:59:56.000Z</time>
      </trkpt>
      <trkpt lat="43.85151" lon="6.99134">
        <ele>780.20001220703</ele>
        <time>2011-05-08T08:00:00.000Z</time>
      </trkpt>
      <trkpt lat="43.85145" lon="6.99123">
        <ele>782.79998779297</ele>
        <time>2011-05-08T08:00:05.000Z</time>
      </trkpt>
      <trkpt lat="43.85144" lon="6.99121">
        <ele>783.40002441406</ele>
        <time>2011-05-08T08:00:06.000Z</time>
      </trkpt>
      <trkpt lat="43.85136" lon="6.99105">
        <ele>787.40002441406</ele>
        <time>2011-05-08T08:00:13.000Z</time>
      </trkpt>
      <trkpt lat="43.85134" lon="6.99101">
        <ele>788.59997558594</ele>
        <time>2011-05-08T08:00:15.000Z</time>
      </trkpt>
      <trkpt lat="43.85127" lon="6.99087">
        <ele>791.79998779297</ele>
        <time>2011-05-08T08:00:21.000Z</time>
      </trkpt>
      <trkpt lat="43.85125" lon="6.99079">
        <ele>793</ele>
        <time>2011-05-08T08:00:24.000Z</time>
      </trkpt>
      <trkpt lat="43.85125" lon="6.99066">
        <ele>794.59997558594</ele>
        <time>2011-05-08T08:00:30.000Z</time>
      </trkpt>
      <trkpt lat="43.85127" lon="6.99052">
        <ele>794.20001220703</ele>
        <time>2011-05-08T08:00:36.000Z</time>
      </trkpt>
      <trkpt lat="43.85132" lon="6.99032">
        <ele>793.20001220703</ele>
        <time>2011-05-08T08:00:44.000Z</time>
      </trkpt>
      <trkpt lat="43.85133" lon="6.99027">
        <ele>793</ele>
        <time>2011-05-08T08:00:46.000Z</time>
      </trkpt>
      <trkpt lat="43.85135" lon="6.99012">
        <ele>793</ele>
        <time>2011-05-08T08:00:52.000Z</time>
      </trkpt>
      <trkpt lat="43.85136" lon="6.99001">
        <ele>793.40002441406</ele>
        <time>2011-05-08T08:00:56.000Z</time>
      </trkpt>
      <trkpt lat="43.85137" lon="6.98993">
        <ele>794.20001220703</ele>
        <time>2011-05-08T08:00:59.000Z</time>
      </trkpt>
      <trkpt lat="43.8514" lon="6.98974">
        <ele>796.40002441406</ele>
        <time>2011-05-08T08:01:06.000Z</time>
      </trkpt>
      <trkpt lat="43.85141" lon="6.98969">
        <ele>796.79998779297</ele>
        <time>2011-05-08T08:01:08.000Z</time>
      </trkpt>
      <trkpt lat="43.85149" lon="6.98953">
        <ele>796.20001220703</ele>
        <time>2011-05-08T08:01:15.000Z</time>
      </trkpt>
      <trkpt lat="43.85157" lon="6.98945">
        <ele>793.59997558594</ele>
        <time>2011-05-08T08:01:20.000Z</time>
      </trkpt>
      <trkpt lat="43.85166" lon="6.98942">
        <ele>790.20001220703</ele>
        <time>2011-05-08T08:01:24.000Z</time>
      </trkpt>
      <trkpt lat="43.85169" lon="6.98938">
        <ele>789.40002441406</ele>
        <time>2011-05-08T08:01:26.000Z</time>
      </trkpt>
      <trkpt lat="43.8517" lon="6.98931">
        <ele>790.40002441406</ele>
        <time>2011-05-08T08:01:30.000Z</time>
      </trkpt>
      <trkpt lat="43.85169" lon="6.98929">
        <ele>791.20001220703</ele>
        <time>2011-05-08T08:01:31.000Z</time>
      </trkpt>
      <trkpt lat="43.85162" lon="6.98926">
        <ele>795.20001220703</ele>
        <time>2011-05-08T08:01:36.000Z</time>
      </trkpt>
      <trkpt lat="43.85157" lon="6.98927">
        <ele>797.20001220703</ele>
        <time>2011-05-08T08:01:38.000Z</time>
      </trkpt>
      <trkpt lat="43.85146" lon="6.98933">
        <ele>801.59997558594</ele>
        <time>2011-05-08T08:01:44.000Z</time>
      </trkpt>
      <trkpt lat="43.85143" lon="6.98935">
        <ele>802.40002441406</ele>
        <time>2011-05-08T08:01:46.000Z</time>
      </trkpt>
      <trkpt lat="43.85137" lon="6.98942">
        <ele>804.40002441406</ele>
        <time>2011-05-08T08:01:50.000Z</time>
      </trkpt>
      <trkpt lat="43.8513" lon="6.98953">
        <ele>805.40002441406</ele>
        <time>2011-05-08T08:01:55.000Z</time>
      </trkpt>
      <trkpt lat="43.85127" lon="6.98959">
        <ele>806</ele>
        <time>2011-05-08T08:01:58.000Z</time>
      </trkpt>
      <trkpt lat="43.85122" lon="6.98974">
        <ele>805.59997558594</ele>
        <time>2011-05-08T08:02:04.000Z</time>
      </trkpt>
      <trkpt lat="43.85121" lon="6.98976">
        <ele>805.79998779297</ele>
        <time>2011-05-08T08:02:05.000Z</time>
      </trkpt>
      <trkpt lat="43.85117" lon="6.98988">
        <ele>805.40002441406</ele>
        <time>2011-05-08T08:02:10.000Z</time>
      </trkpt>
      <trkpt lat="43.85114" lon="6.98999">
        <ele>805.20001220703</ele>
        <time>2011-05-08T08:02:14.000Z</time>
      </trkpt>
      <trkpt lat="43.85111" lon="6.99012">
        <ele>806</ele>
        <time>2011-05-08T08:02:19.000Z</time>
      </trkpt>
      <trkpt lat="43.85107" lon="6.99025">
        <ele>807.20001220703</ele>
        <time>2011-05-08T08:02:24.000Z</time>
      </trkpt>
      <trkpt lat="43.85107" lon="6.99027">
        <ele>807.40002441406</ele>
        <time>2011-05-08T08:02:25.000Z</time>
      </trkpt>
      <trkpt lat="43.85103" lon="6.99045">
        <ele>808.79998779297</ele>
        <time>2011-05-08T08:02:32.000Z</time>
      </trkpt>
      <trkpt lat="43.85101" lon="6.99049">
        <ele>809.40002441406</ele>
        <time>2011-05-08T08:02:34.000Z</time>
      </trkpt>
      <trkpt lat="43.85098" lon="6.99064">
        <ele>810.59997558594</ele>
        <time>2011-05-08T08:02:40.000Z</time>
      </trkpt>
      <trkpt lat="43.85096" lon="6.99074">
        <ele>811.40002441406</ele>
        <time>2011-05-08T08:02:44.000Z</time>
      </trkpt>
      <trkpt lat="43.85095" lon="6.99077">
        <ele>812</ele>
        <time>2011-05-08T08:02:46.000Z</time>
      </trkpt>
      <trkpt lat="43.85092" lon="6.99096">
        <ele>814.20001220703</ele>
        <time>2011-05-08T08:02:53.000Z</time>
      </trkpt>
      <trkpt lat="43.85091" lon="6.99099">
        <ele>814.59997558594</ele>
        <time>2011-05-08T08:02:54.000Z</time>
      </trkpt>
      <trkpt lat="43.85091" lon="6.99115">
        <ele>815.40002441406</ele>
        <time>2011-05-08T08:03:00.000Z</time>
      </trkpt>
      <trkpt lat="43.85092" lon="6.99125">
        <ele>815</ele>
        <time>2011-05-08T08:03:04.000Z</time>
      </trkpt>
      <trkpt lat="43.85095" lon="6.99135">
        <ele>814</ele>
        <time>2011-05-08T08:03:08.000Z</time>
      </trkpt>
      <trkpt lat="43.85099" lon="6.9915">
        <ele>812.20001220703</ele>
        <time>2011-05-08T08:03:14.000Z</time>
      </trkpt>
      <trkpt lat="43.85103" lon="6.9917">
        <ele>810</ele>
        <time>2011-05-08T08:03:22.000Z</time>
      </trkpt>
      <trkpt lat="43.85105" lon="6.99176">
        <ele>809</ele>
        <time>2011-05-08T08:03:24.000Z</time>
      </trkpt>
      <trkpt lat="43.85109" lon="6.99195">
        <ele>805.79998779297</ele>
        <time>2011-05-08T08:03:31.000Z</time>
      </trkpt>
      <trkpt lat="43.8511" lon="6.992">
        <ele>805</ele>
        <time>2011-05-08T08:03:33.000Z</time>
      </trkpt>
      <trkpt lat="43.8511" lon="6.99211">
        <ele>804</ele>
        <time>2011-05-08T08:03:37.000Z</time>
      </trkpt>
      <trkpt lat="43.85109" lon="6.99225">
        <ele>804</ele>
        <time>2011-05-08T08:03:42.000Z</time>
      </trkpt>
      <trkpt lat="43.85106" lon="6.99233">
        <ele>805.79998779297</ele>
        <time>2011-05-08T08:03:45.000Z</time>
      </trkpt>
      <trkpt lat="43.85095" lon="6.99241">
        <ele>811.59997558594</ele>
        <time>2011-05-08T08:03:51.000Z</time>
      </trkpt>
      <trkpt lat="43.85093" lon="6.99242">
        <ele>812.79998779297</ele>
        <time>2011-05-08T08:03:52.000Z</time>
      </trkpt>
      <trkpt lat="43.85081" lon="6.99248">
        <ele>819.40002441406</ele>
        <time>2011-05-08T08:03:59.000Z</time>
      </trkpt>
      <trkpt lat="43.8508" lon="6.99249">
        <ele>820.20001220703</ele>
        <time>2011-05-08T08:04:00.000Z</time>
      </trkpt>
      <trkpt lat="43.85076" lon="6.99252">
        <ele>822.40002441406</ele>
        <time>2011-05-08T08:04:02.000Z</time>
      </trkpt>
      <trkpt lat="43.8507" lon="6.99259">
        <ele>825.59997558594</ele>
        <time>2011-05-08T08:04:07.000Z</time>
      </trkpt>
      <trkpt lat="43.85065" lon="6.9927">
        <ele>827.79998779297</ele>
        <time>2011-05-08T08:04:12.000Z</time>
      </trkpt>
      <trkpt lat="43.85063" lon="6.99272">
        <ele>828.59997558594</ele>
        <time>2011-05-08T08:04:13.000Z</time>
      </trkpt>
      <trkpt lat="43.85059" lon="6.99283">
        <ele>829.79998779297</ele>
        <time>2011-05-08T08:04:18.000Z</time>
      </trkpt>
      <trkpt lat="43.85055" lon="6.99293">
        <ele>831.20001220703</ele>
        <time>2011-05-08T08:04:22.000Z</time>
      </trkpt>
      <trkpt lat="43.85052" lon="6.99302">
        <ele>832</ele>
        <time>2011-05-08T08:04:26.000Z</time>
      </trkpt>
      <trkpt lat="43.85048" lon="6.99317">
        <ele>833.40002441406</ele>
        <time>2011-05-08T08:04:33.000Z</time>
      </trkpt>
      <trkpt lat="43.85046" lon="6.99324">
        <ele>833.59997558594</ele>
        <time>2011-05-08T08:04:36.000Z</time>
      </trkpt>
      <trkpt lat="43.85041" lon="6.9934">
        <ele>835.40002441406</ele>
        <time>2011-05-08T08:04:43.000Z</time>
      </trkpt>
      <trkpt lat="43.8504" lon="6.99343">
        <ele>835.59997558594</ele>
        <time>2011-05-08T08:04:44.000Z</time>
      </trkpt>
      <trkpt lat="43.8504" lon="6.99362">
        <ele>834.20001220703</ele>
        <time>2011-05-08T08:04:51.000Z</time>
      </trkpt>
      <trkpt lat="43.8504" lon="6.99367">
        <ele>834</ele>
        <time>2011-05-08T08:04:53.000Z</time>
      </trkpt>
      <trkpt lat="43.85038" lon="6.99385">
        <ele>834</ele>
        <time>2011-05-08T08:05:00.000Z</time>
      </trkpt>
      <trkpt lat="43.85038" lon="6.99392">
        <ele>833.40002441406</ele>
        <time>2011-05-08T08:05:03.000Z</time>
      </trkpt>
      <trkpt lat="43.85038" lon="6.99404">
        <ele>832</ele>
        <time>2011-05-08T08:05:08.000Z</time>
      </trkpt>
      <trkpt lat="43.85038" lon="6.99418">
        <ele>831.59997558594</ele>
        <time>2011-05-08T08:05:14.000Z</time>
      </trkpt>
      <trkpt lat="43.85037" lon="6.99423">
        <ele>832.20001220703</ele>
        <time>2011-05-08T08:05:16.000Z</time>
      </trkpt>
      <trkpt lat="43.85036" lon="6.9944">
        <ele>835</ele>
        <time>2011-05-08T08:05:23.000Z</time>
      </trkpt>
      <trkpt lat="43.85035" lon="6.99444">
        <ele>835.79998779297</ele>
        <time>2011-05-08T08:05:25.000Z</time>
      </trkpt>
      <trkpt lat="43.85035" lon="6.99458">
        <ele>838</ele>
        <time>2011-05-08T08:05:31.000Z</time>
      </trkpt>
      <trkpt lat="43.85034" lon="6.99471">
        <ele>839.40002441406</ele>
        <time>2011-05-08T08:05:36.000Z</time>
      </trkpt>
      <trkpt lat="43.85035" lon="6.99483">
        <ele>840.59997558594</ele>
        <time>2011-05-08T08:05:41.000Z</time>
      </trkpt>
      <trkpt lat="43.85036" lon="6.99497">
        <ele>841.20001220703</ele>
        <time>2011-05-08T08:05:47.000Z</time>
      </trkpt>
      <trkpt lat="43.85037" lon="6.99504">
        <ele>841.40002441406</ele>
        <time>2011-05-08T08:05:50.000Z</time>
      </trkpt>
      <trkpt lat="43.85039" lon="6.99517">
        <ele>840.79998779297</ele>
        <time>2011-05-08T08:05:56.000Z</time>
      </trkpt>
      <trkpt lat="43.85041" lon="6.99523">
        <ele>840.20001220703</ele>
        <time>2011-05-08T08:05:58.000Z</time>
      </trkpt>
      <trkpt lat="43.85044" lon="6.99532">
        <ele>838.79998779297</ele>
        <time>2011-05-08T08:06:02.000Z</time>
      </trkpt>
      <trkpt lat="43.85043" lon="6.99539">
        <ele>839.79998779297</ele>
        <time>2011-05-08T08:06:05.000Z</time>
      </trkpt>
      <trkpt lat="43.8504" lon="6.99542">
        <ele>841.59997558594</ele>
        <time>2011-05-08T08:06:07.000Z</time>
      </trkpt>
      <trkpt lat="43.85039" lon="6.99542">
        <ele>842.59997558594</ele>
        <time>2011-05-08T08:06:08.000Z</time>
      </trkpt>
      <trkpt lat="43.85034" lon="6.99537">
        <ele>845.40002441406</ele>
        <time>2011-05-08T08:06:11.000Z</time>
      </trkpt>
      <trkpt lat="43.8503" lon="6.99523">
        <ele>846.59997558594</ele>
        <time>2011-05-08T08:06:16.000Z</time>
      </trkpt>
      <trkpt lat="43.85029" lon="6.9952">
        <ele>847</ele>
        <time>2011-05-08T08:06:17.000Z</time>
      </trkpt>
      <trkpt lat="43.85024" lon="6.99493">
        <ele>847.79998779297</ele>
        <time>2011-05-08T08:06:25.000Z</time>
      </trkpt>
      <trkpt lat="43.85019" lon="6.99469">
        <ele>848.40002441406</ele>
        <time>2011-05-08T08:06:32.000Z</time>
      </trkpt>
      <trkpt lat="43.85017" lon="6.9946">
        <ele>849</ele>
        <time>2011-05-08T08:06:35.000Z</time>
      </trkpt>
      <trkpt lat="43.85013" lon="6.99443">
        <ele>849.40002441406</ele>
        <time>2011-05-08T08:06:40.000Z</time>
      </trkpt>
      <trkpt lat="43.85011" lon="6.99433">
        <ele>849.59997558594</ele>
        <time>2011-05-08T08:06:43.000Z</time>
      </trkpt>
      <trkpt lat="43.85008" lon="6.99419">
        <ele>850.40002441406</ele>
        <time>2011-05-08T08:06:47.000Z</time>
      </trkpt>
      <trkpt lat="43.85005" lon="6.99406">
        <ele>852.79998779297</ele>
        <time>2011-05-08T08:06:51.000Z</time>
      </trkpt>
      <trkpt lat="43.85003" lon="6.99392">
        <ele>855.79998779297</ele>
        <time>2011-05-08T08:06:55.000Z</time>
      </trkpt>
      <trkpt lat="43.85" lon="6.99375">
        <ele>859.59997558594</ele>
        <time>2011-05-08T08:07:00.000Z</time>
      </trkpt>
      <trkpt lat="43.84998" lon="6.99367">
        <ele>861.79998779297</ele>
        <time>2011-05-08T08:07:02.000Z</time>
      </trkpt>
      <trkpt lat="43.84996" lon="6.99349">
        <ele>865.59997558594</ele>
        <time>2011-05-08T08:07:07.000Z</time>
      </trkpt>
      <trkpt lat="43.84996" lon="6.99343">
        <ele>866.59997558594</ele>
        <time>2011-05-08T08:07:09.000Z</time>
      </trkpt>
      <trkpt lat="43.84996" lon="6.99318">
        <ele>869</ele>
        <time>2011-05-08T08:07:16.000Z</time>
      </trkpt>
      <trkpt lat="43.84996" lon="6.99315">
        <ele>869.20001220703</ele>
        <time>2011-05-08T08:07:17.000Z</time>
      </trkpt>
      <trkpt lat="43.84998" lon="6.99291">
        <ele>870.79998779297</ele>
        <time>2011-05-08T08:07:24.000Z</time>
      </trkpt>
      <trkpt lat="43.84998" lon="6.99288">
        <ele>870.79998779297</ele>
        <time>2011-05-08T08:07:25.000Z</time>
      </trkpt>
      <trkpt lat="43.85001" lon="6.99261">
        <ele>871.79998779297</ele>
        <time>2011-05-08T08:07:33.000Z</time>
      </trkpt>
      <trkpt lat="43.85002" lon="6.99255">
        <ele>872.20001220703</ele>
        <time>2011-05-08T08:07:35.000Z</time>
      </trkpt>
      <trkpt lat="43.85004" lon="6.99235">
        <ele>871.79998779297</ele>
        <time>2011-05-08T08:07:41.000Z</time>
      </trkpt>
      <trkpt lat="43.85006" lon="6.99221">
        <ele>871</ele>
        <time>2011-05-08T08:07:45.000Z</time>
      </trkpt>
      <trkpt lat="43.85009" lon="6.99208">
        <ele>869.79998779297</ele>
        <time>2011-05-08T08:07:49.000Z</time>
      </trkpt>
      <trkpt lat="43.85011" lon="6.99191">
        <ele>869.20001220703</ele>
        <time>2011-05-08T08:07:54.000Z</time>
      </trkpt>
      <trkpt lat="43.85011" lon="6.99181">
        <ele>869.79998779297</ele>
        <time>2011-05-08T08:07:57.000Z</time>
      </trkpt>
      <trkpt lat="43.85009" lon="6.99164">
        <ele>871.59997558594</ele>
        <time>2011-05-08T08:08:02.000Z</time>
      </trkpt>
      <trkpt lat="43.85008" lon="6.99154">
        <ele>872.40002441406</ele>
        <time>2011-05-08T08:08:05.000Z</time>
      </trkpt>
      <trkpt lat="43.85007" lon="6.99135">
        <ele>873.59997558594</ele>
        <time>2011-05-08T08:08:11.000Z</time>
      </trkpt>
      <trkpt lat="43.85006" lon="6.99129">
        <ele>874</ele>
        <time>2011-05-08T08:08:13.000Z</time>
      </trkpt>
      <trkpt lat="43.85005" lon="6.99113">
        <ele>875.20001220703</ele>
        <time>2011-05-08T08:08:18.000Z</time>
      </trkpt>
      <trkpt lat="43.85004" lon="6.99103">
        <ele>876</ele>
        <time>2011-05-08T08:08:21.000Z</time>
      </trkpt>
      <trkpt lat="43.85003" lon="6.99091">
        <ele>876.79998779297</ele>
        <time>2011-05-08T08:08:25.000Z</time>
      </trkpt>
      <trkpt lat="43.85001" lon="6.99076">
        <ele>878.79998779297</ele>
        <time>2011-05-08T08:08:30.000Z</time>
      </trkpt>
      <trkpt lat="43.85001" lon="6.99069">
        <ele>879.79998779297</ele>
        <time>2011-05-08T08:08:32.000Z</time>
      </trkpt>
      <trkpt lat="43.85002" lon="6.9905">
        <ele>881.40002441406</ele>
        <time>2011-05-08T08:08:38.000Z</time>
      </trkpt>
      <trkpt lat="43.85003" lon="6.99044">
        <ele>881.59997558594</ele>
        <time>2011-05-08T08:08:40.000Z</time>
      </trkpt>
      <trkpt lat="43.85005" lon="6.99023">
        <ele>882.40002441406</ele>
        <time>2011-05-08T08:08:47.000Z</time>
      </trkpt>
      <trkpt lat="43.85006" lon="6.99011">
        <ele>882.59997558594</ele>
        <time>2011-05-08T08:08:51.000Z</time>
      </trkpt>
      <trkpt lat="43.85008" lon="6.98997">
        <ele>882.59997558594</ele>
        <time>2011-05-08T08:08:56.000Z</time>
      </trkpt>
      <trkpt lat="43.85009" lon="6.98995">
        <ele>882.59997558594</ele>
        <time>2011-05-08T08:08:57.000Z</time>
      </trkpt>
      <trkpt lat="43.85009" lon="6.98992">
        <ele>882.79998779297</ele>
        <time>2011-05-08T08:08:58.000Z</time>
      </trkpt>
      <trkpt lat="43.8501" lon="6.98977">
        <ele>885.40002441406</ele>
        <time>2011-05-08T08:09:03.000Z</time>
      </trkpt>
      <trkpt lat="43.85011" lon="6.9897">
        <ele>886.20001220703</ele>
        <time>2011-05-08T08:09:05.000Z</time>
      </trkpt>
      <trkpt lat="43.85013" lon="6.98946">
        <ele>889.79998779297</ele>
        <time>2011-05-08T08:09:12.000Z</time>
      </trkpt>
      <trkpt lat="43.85013" lon="6.98943">
        <ele>890</ele>
        <time>2011-05-08T08:09:13.000Z</time>
      </trkpt>
      <trkpt lat="43.85016" lon="6.98919">
        <ele>892.40002441406</ele>
        <time>2011-05-08T08:09:21.000Z</time>
      </trkpt>
      <trkpt lat="43.85017" lon="6.98916">
        <ele>892.20001220703</ele>
        <time>2011-05-08T08:09:22.000Z</time>
      </trkpt>
      <trkpt lat="43.85023" lon="6.98896">
        <ele>889.20001220703</ele>
        <time>2011-05-08T08:09:29.000Z</time>
      </trkpt>
      <trkpt lat="43.85024" lon="6.98893">
        <ele>888.59997558594</ele>
        <time>2011-05-08T08:09:30.000Z</time>
      </trkpt>
      <trkpt lat="43.85031" lon="6.98871">
        <ele>884.79998779297</ele>
        <time>2011-05-08T08:09:38.000Z</time>
      </trkpt>
      <trkpt lat="43.85032" lon="6.98868">
        <ele>884.40002441406</ele>
        <time>2011-05-08T08:09:39.000Z</time>
      </trkpt>
      <trkpt lat="43.85037" lon="6.9885">
        <ele>882.59997558594</ele>
        <time>2011-05-08T08:09:46.000Z</time>
      </trkpt>
      <trkpt lat="43.85039" lon="6.98842">
        <ele>882</ele>
        <time>2011-05-08T08:09:49.000Z</time>
      </trkpt>
      <trkpt lat="43.85043" lon="6.98825">
        <ele>879.79998779297</ele>
        <time>2011-05-08T08:09:55.000Z</time>
      </trkpt>
      <trkpt lat="43.85044" lon="6.98816">
        <ele>878.59997558594</ele>
        <time>2011-05-08T08:09:58.000Z</time>
      </trkpt>
      <trkpt lat="43.85045" lon="6.98801">
        <ele>877.20001220703</ele>
        <time>2011-05-08T08:10:03.000Z</time>
      </trkpt>
      <trkpt lat="43.85044" lon="6.98791">
        <ele>877.20001220703</ele>
        <time>2011-05-08T08:10:06.000Z</time>
      </trkpt>
      <trkpt lat="43.85044" lon="6.98782">
        <ele>877.20001220703</ele>
        <time>2011-05-08T08:10:09.000Z</time>
      </trkpt>
      <trkpt lat="43.85042" lon="6.98764">
        <ele>877.59997558594</ele>
        <time>2011-05-08T08:10:15.000Z</time>
      </trkpt>
      <trkpt lat="43.8504" lon="6.98749">
        <ele>877.79998779297</ele>
        <time>2011-05-08T08:10:20.000Z</time>
      </trkpt>
      <trkpt lat="43.85039" lon="6.98737">
        <ele>876</ele>
        <time>2011-05-08T08:10:24.000Z</time>
      </trkpt>
      <trkpt lat="43.85038" lon="6.98729">
        <ele>875</ele>
        <time>2011-05-08T08:10:27.000Z</time>
      </trkpt>
      <trkpt lat="43.85038" lon="6.98712">
        <ele>871.79998779297</ele>
        <time>2011-05-08T08:10:33.000Z</time>
      </trkpt>
      <trkpt lat="43.85037" lon="6.98709">
        <ele>871.40002441406</ele>
        <time>2011-05-08T08:10:34.000Z</time>
      </trkpt>
      <trkpt lat="43.85037" lon="6.98695">
        <ele>868.59997558594</ele>
        <time>2011-05-08T08:10:40.000Z</time>
      </trkpt>
      <trkpt lat="43.8504" lon="6.98691">
        <ele>866.79998779297</ele>
        <time>2011-05-08T08:10:46.000Z</time>
      </trkpt>
      <trkpt lat="43.8504" lon="6.9869">
        <ele>866.40002441406</ele>
        <time>2011-05-08T08:10:51.000Z</time>
      </trkpt>
      <trkpt lat="43.85041" lon="6.98692">
        <ele>866.40002441406</ele>
        <time>2011-05-08T08:10:56.000Z</time>
      </trkpt>
      <trkpt lat="43.85042" lon="6.98692">
        <ele>866.20001220703</ele>
        <time>2011-05-08T08:10:57.000Z</time>
      </trkpt>
      <trkpt lat="43.85044" lon="6.98693">
        <ele>865.59997558594</ele>
        <time>2011-05-08T08:11:03.000Z</time>
      </trkpt>
      <trkpt lat="43.85044" lon="6.98692">
        <ele>865.40002441406</ele>
        <time>2011-05-08T08:11:17.000Z</time>
      </trkpt>
      <trkpt lat="43.85043" lon="6.98694">
        <ele>866</ele>
        <time>2011-05-08T08:11:24.000Z</time>
      </trkpt>
      <trkpt lat="43.85034" lon="6.98693">
        <ele>869.20001220703</ele>
        <time>2011-05-08T08:12:05.000Z</time>
      </trkpt>
      <trkpt lat="43.85034" lon="6.98694">
        <ele>869.40002441406</ele>
        <time>2011-05-08T08:12:59.000Z</time>
      </trkpt>
      <trkpt lat="43.85034" lon="6.98694">
        <ele>869.40002441406</ele>
        <time>2011-05-08T08:13:01.000Z</time>
      </trkpt>
      <trkpt lat="43.85028" lon="6.98692">
        <ele>871</ele>
        <time>2011-05-08T08:13:18.000Z</time>
      </trkpt>
      <trkpt lat="43.85021" lon="6.9869">
        <ele>873.20001220703</ele>
        <time>2011-05-08T08:13:27.000Z</time>
      </trkpt>
      <trkpt lat="43.8502" lon="6.98687">
        <ele>872.79998779297</ele>
        <time>2011-05-08T08:13:49.000Z</time>
      </trkpt>
      <trkpt lat="43.85021" lon="6.98688">
        <ele>872.59997558594</ele>
        <time>2011-05-08T08:13:57.000Z</time>
      </trkpt>
      <trkpt lat="43.8502" lon="6.98689">
        <ele>873.40002441406</ele>
        <time>2011-05-08T08:14:01.000Z</time>
      </trkpt>
      <trkpt lat="43.85017" lon="6.98689">
        <ele>874.40002441406</ele>
        <time>2011-05-08T08:14:03.000Z</time>
      </trkpt>
      <trkpt lat="43.85006" lon="6.98697">
        <ele>880.40002441406</ele>
        <time>2011-05-08T08:14:08.000Z</time>
      </trkpt>
      <trkpt lat="43.84989" lon="6.98716">
        <ele>884.40002441406</ele>
        <time>2011-05-08T08:14:12.000Z</time>
      </trkpt>
      <trkpt lat="43.84984" lon="6.98721">
        <ele>884.20001220703</ele>
        <time>2011-05-08T08:14:13.000Z</time>
      </trkpt>
      <trkpt lat="43.84973" lon="6.98729">
        <ele>882.79998779297</ele>
        <time>2011-05-08T08:14:15.000Z</time>
      </trkpt>
      <trkpt lat="43.84968" lon="6.98734">
        <ele>882.79998779297</ele>
        <time>2011-05-08T08:14:16.000Z</time>
      </trkpt>
      <trkpt lat="43.84956" lon="6.98746">
        <ele>882.40002441406</ele>
        <time>2011-05-08T08:14:18.000Z</time>
      </trkpt>
      <trkpt lat="43.84951" lon="6.9875">
        <ele>882.20001220703</ele>
        <time>2011-05-08T08:14:19.000Z</time>
      </trkpt>
      <trkpt lat="43.84938" lon="6.98763">
        <ele>882.40002441406</ele>
        <time>2011-05-08T08:14:22.000Z</time>
      </trkpt>
      <trkpt lat="43.84928" lon="6.98776">
        <ele>885</ele>
        <time>2011-05-08T08:14:25.000Z</time>
      </trkpt>
      <trkpt lat="43.84922" lon="6.98785">
        <ele>887.40002441406</ele>
        <time>2011-05-08T08:14:27.000Z</time>
      </trkpt>
      <trkpt lat="43.84912" lon="6.98805">
        <ele>893.20001220703</ele>
        <time>2011-05-08T08:14:31.000Z</time>
      </trkpt>
      <trkpt lat="43.84909" lon="6.98812">
        <ele>894.79998779297</ele>
        <time>2011-05-08T08:14:32.000Z</time>
      </trkpt>
      <trkpt lat="43.84902" lon="6.98829">
        <ele>898.79998779297</ele>
        <time>2011-05-08T08:14:35.000Z</time>
      </trkpt>
      <trkpt lat="43.84896" lon="6.98838">
        <ele>899.59997558594</ele>
        <time>2011-05-08T08:14:37.000Z</time>
      </trkpt>
      <trkpt lat="43.84889" lon="6.98843">
        <ele>898.40002441406</ele>
        <time>2011-05-08T08:14:39.000Z</time>
      </trkpt>
      <trkpt lat="43.84885" lon="6.98846">
        <ele>897.40002441406</ele>
        <time>2011-05-08T08:14:40.000Z</time>
      </trkpt>
      <trkpt lat="43.84878" lon="6.98851">
        <ele>896</ele>
        <time>2011-05-08T08:14:42.000Z</time>
      </trkpt>
      <trkpt lat="43.84875" lon="6.98854">
        <ele>895.40002441406</ele>
        <time>2011-05-08T08:14:43.000Z</time>
      </trkpt>
      <trkpt lat="43.84868" lon="6.98862">
        <ele>895.20001220703</ele>
        <time>2011-05-08T08:14:45.000Z</time>
      </trkpt>
      <trkpt lat="43.84862" lon="6.98871">
        <ele>896.20001220703</ele>
        <time>2011-05-08T08:14:47.000Z</time>
      </trkpt>
      <trkpt lat="43.84859" lon="6.98876">
        <ele>896.79998779297</ele>
        <time>2011-05-08T08:14:48.000Z</time>
      </trkpt>
      <trkpt lat="43.84852" lon="6.98882">
        <ele>895.59997558594</ele>
        <time>2011-05-08T08:14:50.000Z</time>
      </trkpt>
      <trkpt lat="43.84848" lon="6.98883">
        <ele>893.79998779297</ele>
        <time>2011-05-08T08:14:51.000Z</time>
      </trkpt>
      <trkpt lat="43.84843" lon="6.98883">
        <ele>891.79998779297</ele>
        <time>2011-05-08T08:14:52.000Z</time>
      </trkpt>
      <trkpt lat="43.84835" lon="6.98884">
        <ele>887.79998779297</ele>
        <time>2011-05-08T08:14:54.000Z</time>
      </trkpt>
      <trkpt lat="43.84831" lon="6.98886">
        <ele>886.59997558594</ele>
        <time>2011-05-08T08:14:55.000Z</time>
      </trkpt>
      <trkpt lat="43.84823" lon="6.98891">
        <ele>885.40002441406</ele>
        <time>2011-05-08T08:14:57.000Z</time>
      </trkpt>
      <trkpt lat="43.84812" lon="6.98902">
        <ele>884.40002441406</ele>
        <time>2011-05-08T08:15:00.000Z</time>
      </trkpt>
      <trkpt lat="43.84808" lon="6.98906">
        <ele>884.40002441406</ele>
        <time>2011-05-08T08:15:01.000Z</time>
      </trkpt>
      <trkpt lat="43.84802" lon="6.98918">
        <ele>886</ele>
        <time>2011-05-08T08:15:03.000Z</time>
      </trkpt>
      <trkpt lat="43.848" lon="6.98926">
        <ele>888</ele>
        <time>2011-05-08T08:15:04.000Z</time>
      </trkpt>
      <trkpt lat="43.84798" lon="6.98933">
        <ele>890.20001220703</ele>
        <time>2011-05-08T08:15:05.000Z</time>
      </trkpt>
      <trkpt lat="43.84793" lon="6.98957">
        <ele>897.20001220703</ele>
        <time>2011-05-08T08:15:08.000Z</time>
      </trkpt>
      <trkpt lat="43.84788" lon="6.98979">
        <ele>903.20001220703</ele>
        <time>2011-05-08T08:15:11.000Z</time>
      </trkpt>
      <trkpt lat="43.84786" lon="6.98985">
        <ele>904.20001220703</ele>
        <time>2011-05-08T08:15:12.000Z</time>
      </trkpt>
      <trkpt lat="43.84783" lon="6.98991">
        <ele>904.59997558594</ele>
        <time>2011-05-08T08:15:13.000Z</time>
      </trkpt>
      <trkpt lat="43.84771" lon="6.99008">
        <ele>903.59997558594</ele>
        <time>2011-05-08T08:15:17.000Z</time>
      </trkpt>
      <trkpt lat="43.84768" lon="6.99011">
        <ele>902.79998779297</ele>
        <time>2011-05-08T08:15:18.000Z</time>
      </trkpt>
      <trkpt lat="43.84765" lon="6.99014">
        <ele>902</ele>
        <time>2011-05-08T08:15:19.000Z</time>
      </trkpt>
      <trkpt lat="43.84753" lon="6.99023">
        <ele>896.59997558594</ele>
        <time>2011-05-08T08:15:23.000Z</time>
      </trkpt>
      <trkpt lat="43.84735" lon="6.99034">
        <ele>891.20001220703</ele>
        <time>2011-05-08T08:15:29.000Z</time>
      </trkpt>
      <trkpt lat="43.8473" lon="6.99054">
        <ele>894.59997558594</ele>
        <time>2011-05-08T08:15:34.000Z</time>
      </trkpt>
      <trkpt lat="43.8473" lon="6.9906">
        <ele>896.20001220703</ele>
        <time>2011-05-08T08:15:35.000Z</time>
      </trkpt>
      <trkpt lat="43.84728" lon="6.99078">
        <ele>900.40002441406</ele>
        <time>2011-05-08T08:15:38.000Z</time>
      </trkpt>
      <trkpt lat="43.84726" lon="6.99085">
        <ele>901.59997558594</ele>
        <time>2011-05-08T08:15:39.000Z</time>
      </trkpt>
      <trkpt lat="43.84722" lon="6.991">
        <ele>903.59997558594</ele>
        <time>2011-05-08T08:15:41.000Z</time>
      </trkpt>
      <trkpt lat="43.84719" lon="6.99107">
        <ele>904.20001220703</ele>
        <time>2011-05-08T08:15:42.000Z</time>
      </trkpt>
      <trkpt lat="43.84716" lon="6.99114">
        <ele>904.59997558594</ele>
        <time>2011-05-08T08:15:43.000Z</time>
      </trkpt>
      <trkpt lat="43.84709" lon="6.99129">
        <ele>905.59997558594</ele>
        <time>2011-05-08T08:15:45.000Z</time>
      </trkpt>
      <trkpt lat="43.84703" lon="6.99143">
        <ele>906.20001220703</ele>
        <time>2011-05-08T08:15:47.000Z</time>
      </trkpt>
      <trkpt lat="43.847" lon="6.99149">
        <ele>906.20001220703</ele>
        <time>2011-05-08T08:15:48.000Z</time>
      </trkpt>
      <trkpt lat="43.84696" lon="6.99155">
        <ele>905.79998779297</ele>
        <time>2011-05-08T08:15:49.000Z</time>
      </trkpt>
      <trkpt lat="43.84683" lon="6.99178">
        <ele>904.79998779297</ele>
        <time>2011-05-08T08:15:53.000Z</time>
      </trkpt>
      <trkpt lat="43.84666" lon="6.99197">
        <ele>900.20001220703</ele>
        <time>2011-05-08T08:15:57.000Z</time>
      </trkpt>
      <trkpt lat="43.84656" lon="6.99205">
        <ele>897.79998779297</ele>
        <time>2011-05-08T08:15:59.000Z</time>
      </trkpt>
      <trkpt lat="43.84645" lon="6.99212">
        <ele>894.59997558594</ele>
        <time>2011-05-08T08:16:01.000Z</time>
      </trkpt>
      <trkpt lat="43.84631" lon="6.99231">
        <ele>891.59997558594</ele>
        <time>2011-05-08T08:16:04.000Z</time>
      </trkpt>
      <trkpt lat="43.84626" lon="6.99249">
        <ele>892</ele>
        <time>2011-05-08T08:16:06.000Z</time>
      </trkpt>
      <trkpt lat="43.84623" lon="6.99259">
        <ele>892</ele>
        <time>2011-05-08T08:16:07.000Z</time>
      </trkpt>
      <trkpt lat="43.8462" lon="6.99268">
        <ele>892</ele>
        <time>2011-05-08T08:16:08.000Z</time>
      </trkpt>
      <trkpt lat="43.84613" lon="6.99287">
        <ele>891.40002441406</ele>
        <time>2011-05-08T08:16:10.000Z</time>
      </trkpt>
      <trkpt lat="43.84609" lon="6.99296">
        <ele>890.79998779297</ele>
        <time>2011-05-08T08:16:11.000Z</time>
      </trkpt>
      <trkpt lat="43.846" lon="6.99316">
        <ele>889.20001220703</ele>
        <time>2011-05-08T08:16:13.000Z</time>
      </trkpt>
      <trkpt lat="43.84596" lon="6.99326">
        <ele>888</ele>
        <time>2011-05-08T08:16:14.000Z</time>
      </trkpt>
      <trkpt lat="43.84585" lon="6.99345">
        <ele>884.79998779297</ele>
        <time>2011-05-08T08:16:16.000Z</time>
      </trkpt>
      <trkpt lat="43.8458" lon="6.99354">
        <ele>884.79998779297</ele>
        <time>2011-05-08T08:16:17.000Z</time>
      </trkpt>
      <trkpt lat="43.84573" lon="6.99372">
        <ele>886.20001220703</ele>
        <time>2011-05-08T08:16:19.000Z</time>
      </trkpt>
      <trkpt lat="43.84568" lon="6.99379">
        <ele>886.40002441406</ele>
        <time>2011-05-08T08:16:20.000Z</time>
      </trkpt>
      <trkpt lat="43.84558" lon="6.99388">
        <ele>885.40002441406</ele>
        <time>2011-05-08T08:16:22.000Z</time>
      </trkpt>
      <trkpt lat="43.84551" lon="6.99389">
        <ele>884</ele>
        <time>2011-05-08T08:16:23.000Z</time>
      </trkpt>
      <trkpt lat="43.84538" lon="6.99387">
        <ele>880.79998779297</ele>
        <time>2011-05-08T08:16:25.000Z</time>
      </trkpt>
      <trkpt lat="43.84524" lon="6.99385">
        <ele>877.59997558594</ele>
        <time>2011-05-08T08:16:27.000Z</time>
      </trkpt>
      <trkpt lat="43.84518" lon="6.99382">
        <ele>876</ele>
        <time>2011-05-08T08:16:28.000Z</time>
      </trkpt>
      <trkpt lat="43.84508" lon="6.99362">
        <ele>871.79998779297</ele>
        <time>2011-05-08T08:16:31.000Z</time>
      </trkpt>
      <trkpt lat="43.84506" lon="6.99354">
        <ele>870.79998779297</ele>
        <time>2011-05-08T08:16:32.000Z</time>
      </trkpt>
      <trkpt lat="43.84504" lon="6.99338">
        <ele>868.79998779297</ele>
        <time>2011-05-08T08:16:34.000Z</time>
      </trkpt>
      <trkpt lat="43.84501" lon="6.99331">
        <ele>867.59997558594</ele>
        <time>2011-05-08T08:16:35.000Z</time>
      </trkpt>
      <trkpt lat="43.84497" lon="6.99327">
        <ele>866.40002441406</ele>
        <time>2011-05-08T08:16:36.000Z</time>
      </trkpt>
      <trkpt lat="43.84483" lon="6.99332">
        <ele>865.59997558594</ele>
        <time>2011-05-08T08:16:39.000Z</time>
      </trkpt>
      <trkpt lat="43.84469" lon="6.99335">
        <ele>864.20001220703</ele>
        <time>2011-05-08T08:16:42.000Z</time>
      </trkpt>
      <trkpt lat="43.84465" lon="6.99331">
        <ele>863.40002441406</ele>
        <time>2011-05-08T08:16:43.000Z</time>
      </trkpt>
      <trkpt lat="43.84457" lon="6.99315">
        <ele>860.79998779297</ele>
        <time>2011-05-08T08:16:46.000Z</time>
      </trkpt>
      <trkpt lat="43.84456" lon="6.99309">
        <ele>860</ele>
        <time>2011-05-08T08:16:47.000Z</time>
      </trkpt>
      <trkpt lat="43.84454" lon="6.99296">
        <ele>858.40002441406</ele>
        <time>2011-05-08T08:16:49.000Z</time>
      </trkpt>
      <trkpt lat="43.84453" lon="6.99283">
        <ele>857</ele>
        <time>2011-05-08T08:16:51.000Z</time>
      </trkpt>
      <trkpt lat="43.8445" lon="6.99269">
        <ele>855.79998779297</ele>
        <time>2011-05-08T08:16:53.000Z</time>
      </trkpt>
      <trkpt lat="43.84444" lon="6.99256">
        <ele>854.79998779297</ele>
        <time>2011-05-08T08:16:55.000Z</time>
      </trkpt>
      <trkpt lat="43.8444" lon="6.9925">
        <ele>854.40002441406</ele>
        <time>2011-05-08T08:16:56.000Z</time>
      </trkpt>
      <trkpt lat="43.8443" lon="6.99238">
        <ele>854.20001220703</ele>
        <time>2011-05-08T08:16:59.000Z</time>
      </trkpt>
      <trkpt lat="43.84427" lon="6.99237">
        <ele>854.40002441406</ele>
        <time>2011-05-08T08:17:00.000Z</time>
      </trkpt>
      <trkpt lat="43.84418" lon="6.99244">
        <ele>855.40002441406</ele>
        <time>2011-05-08T08:17:03.000Z</time>
      </trkpt>
      <trkpt lat="43.84414" lon="6.99254">
        <ele>856</ele>
        <time>2011-05-08T08:17:05.000Z</time>
      </trkpt>
      <trkpt lat="43.84408" lon="6.99268">
        <ele>856.40002441406</ele>
        <time>2011-05-08T08:17:07.000Z</time>
      </trkpt>
      <trkpt lat="43.84406" lon="6.99276">
        <ele>856.59997558594</ele>
        <time>2011-05-08T08:17:08.000Z</time>
      </trkpt>
      <trkpt lat="43.84405" lon="6.99283">
        <ele>856.59997558594</ele>
        <time>2011-05-08T08:17:09.000Z</time>
      </trkpt>
      <trkpt lat="43.84406" lon="6.99291">
        <ele>856.59997558594</ele>
        <time>2011-05-08T08:17:10.000Z</time>
      </trkpt>
      <trkpt lat="43.84408" lon="6.99307">
        <ele>856.79998779297</ele>
        <time>2011-05-08T08:17:12.000Z</time>
      </trkpt>
      <trkpt lat="43.84408" lon="6.99315">
        <ele>857</ele>
        <time>2011-05-08T08:17:13.000Z</time>
      </trkpt>
      <trkpt lat="43.84405" lon="6.9933">
        <ele>857</ele>
        <time>2011-05-08T08:17:15.000Z</time>
      </trkpt>
      <trkpt lat="43.84401" lon="6.99336">
        <ele>856.59997558594</ele>
        <time>2011-05-08T08:17:16.000Z</time>
      </trkpt>
      <trkpt lat="43.84391" lon="6.99343">
        <ele>855.59997558594</ele>
        <time>2011-05-08T08:17:18.000Z</time>
      </trkpt>
      <trkpt lat="43.84384" lon="6.99344">
        <ele>855</ele>
        <time>2011-05-08T08:17:19.000Z</time>
      </trkpt>
      <trkpt lat="43.84377" lon="6.99345">
        <ele>854.20001220703</ele>
        <time>2011-05-08T08:17:20.000Z</time>
      </trkpt>
      <trkpt lat="43.84363" lon="6.99347">
        <ele>853</ele>
        <time>2011-05-08T08:17:22.000Z</time>
      </trkpt>
      <trkpt lat="43.84356" lon="6.99349">
        <ele>852.20001220703</ele>
        <time>2011-05-08T08:17:23.000Z</time>
      </trkpt>
      <trkpt lat="43.84345" lon="6.99358">
        <ele>850.79998779297</ele>
        <time>2011-05-08T08:17:25.000Z</time>
      </trkpt>
      <trkpt lat="43.84337" lon="6.99378">
        <ele>849</ele>
        <time>2011-05-08T08:17:28.000Z</time>
      </trkpt>
      <trkpt lat="43.84335" lon="6.99387">
        <ele>848.59997558594</ele>
        <time>2011-05-08T08:17:29.000Z</time>
      </trkpt>
      <trkpt lat="43.84333" lon="6.99395">
        <ele>848</ele>
        <time>2011-05-08T08:17:30.000Z</time>
      </trkpt>
      <trkpt lat="43.84324" lon="6.99407">
        <ele>848.59997558594</ele>
        <time>2011-05-08T08:17:32.000Z</time>
      </trkpt>
      <trkpt lat="43.84314" lon="6.99416">
        <ele>849.20001220703</ele>
        <time>2011-05-08T08:17:34.000Z</time>
      </trkpt>
      <trkpt lat="43.84309" lon="6.99422">
        <ele>849.40002441406</ele>
        <time>2011-05-08T08:17:35.000Z</time>
      </trkpt>
      <trkpt lat="43.84301" lon="6.99433">
        <ele>849.40002441406</ele>
        <time>2011-05-08T08:17:37.000Z</time>
      </trkpt>
      <trkpt lat="43.84295" lon="6.99446">
        <ele>849.20001220703</ele>
        <time>2011-05-08T08:17:39.000Z</time>
      </trkpt>
      <trkpt lat="43.84291" lon="6.9946">
        <ele>848.59997558594</ele>
        <time>2011-05-08T08:17:41.000Z</time>
      </trkpt>
      <trkpt lat="43.8429" lon="6.99467">
        <ele>848.20001220703</ele>
        <time>2011-05-08T08:17:42.000Z</time>
      </trkpt>
      <trkpt lat="43.84289" lon="6.99475">
        <ele>847.59997558594</ele>
        <time>2011-05-08T08:17:43.000Z</time>
      </trkpt>
      <trkpt lat="43.84287" lon="6.99497">
        <ele>846.20001220703</ele>
        <time>2011-05-08T08:17:46.000Z</time>
      </trkpt>
      <trkpt lat="43.84285" lon="6.99504">
        <ele>845.79998779297</ele>
        <time>2011-05-08T08:17:47.000Z</time>
      </trkpt>
      <trkpt lat="43.84279" lon="6.99531">
        <ele>844.20001220703</ele>
        <time>2011-05-08T08:17:51.000Z</time>
      </trkpt>
      <trkpt lat="43.84278" lon="6.99539">
        <ele>843.59997558594</ele>
        <time>2011-05-08T08:17:52.000Z</time>
      </trkpt>
      <trkpt lat="43.84275" lon="6.99555">
        <ele>842.40002441406</ele>
        <time>2011-05-08T08:17:54.000Z</time>
      </trkpt>
      <trkpt lat="43.84273" lon="6.99562">
        <ele>842</ele>
        <time>2011-05-08T08:17:55.000Z</time>
      </trkpt>
      <trkpt lat="43.84268" lon="6.99577">
        <ele>841.20001220703</ele>
        <time>2011-05-08T08:17:57.000Z</time>
      </trkpt>
      <trkpt lat="43.84265" lon="6.99584">
        <ele>840.79998779297</ele>
        <time>2011-05-08T08:17:58.000Z</time>
      </trkpt>
      <trkpt lat="43.84258" lon="6.99607">
        <ele>839.20001220703</ele>
        <time>2011-05-08T08:18:01.000Z</time>
      </trkpt>
      <trkpt lat="43.84253" lon="6.99623">
        <ele>838</ele>
        <time>2011-05-08T08:18:03.000Z</time>
      </trkpt>
      <trkpt lat="43.84249" lon="6.99633">
        <ele>837.59997558594</ele>
        <time>2011-05-08T08:18:04.000Z</time>
      </trkpt>
      <trkpt lat="43.84242" lon="6.99663">
        <ele>837</ele>
        <time>2011-05-08T08:18:08.000Z</time>
      </trkpt>
      <trkpt lat="43.84241" lon="6.99671">
        <ele>837</ele>
        <time>2011-05-08T08:18:09.000Z</time>
      </trkpt>
      <trkpt lat="43.84236" lon="6.99686">
        <ele>837.20001220703</ele>
        <time>2011-05-08T08:18:11.000Z</time>
      </trkpt>
      <trkpt lat="43.84234" lon="6.99693">
        <ele>837.59997558594</ele>
        <time>2011-05-08T08:18:12.000Z</time>
      </trkpt>
      <trkpt lat="43.84228" lon="6.99706">
        <ele>838.59997558594</ele>
        <time>2011-05-08T08:18:14.000Z</time>
      </trkpt>
      <trkpt lat="43.84222" lon="6.99719">
        <ele>839.40002441406</ele>
        <time>2011-05-08T08:18:16.000Z</time>
      </trkpt>
      <trkpt lat="43.8421" lon="6.99745">
        <ele>841</ele>
        <time>2011-05-08T08:18:20.000Z</time>
      </trkpt>
      <trkpt lat="43.84201" lon="6.99765">
        <ele>841.79998779297</ele>
        <time>2011-05-08T08:18:23.000Z</time>
      </trkpt>
      <trkpt lat="43.84198" lon="6.99772">
        <ele>841.79998779297</ele>
        <time>2011-05-08T08:18:24.000Z</time>
      </trkpt>
      <trkpt lat="43.84196" lon="6.99779">
        <ele>841.79998779297</ele>
        <time>2011-05-08T08:18:25.000Z</time>
      </trkpt>
      <trkpt lat="43.84193" lon="6.99786">
        <ele>842</ele>
        <time>2011-05-08T08:18:26.000Z</time>
      </trkpt>
      <trkpt lat="43.84187" lon="6.99799">
        <ele>842.20001220703</ele>
        <time>2011-05-08T08:18:28.000Z</time>
      </trkpt>
      <trkpt lat="43.84186" lon="6.99806">
        <ele>841.59997558594</ele>
        <time>2011-05-08T08:18:29.000Z</time>
      </trkpt>
      <trkpt lat="43.84185" lon="6.99813">
        <ele>841</ele>
        <time>2011-05-08T08:18:30.000Z</time>
      </trkpt>
      <trkpt lat="43.84183" lon="6.99827">
        <ele>840</ele>
        <time>2011-05-08T08:18:32.000Z</time>
      </trkpt>
      <trkpt lat="43.84177" lon="6.99855">
        <ele>836.79998779297</ele>
        <time>2011-05-08T08:18:36.000Z</time>
      </trkpt>
      <trkpt lat="43.84175" lon="6.99861">
        <ele>836.20001220703</ele>
        <time>2011-05-08T08:18:37.000Z</time>
      </trkpt>
      <trkpt lat="43.84166" lon="6.99879">
        <ele>835.20001220703</ele>
        <time>2011-05-08T08:18:40.000Z</time>
      </trkpt>
      <trkpt lat="43.8416" lon="6.99892">
        <ele>835.59997558594</ele>
        <time>2011-05-08T08:18:42.000Z</time>
      </trkpt>
      <trkpt lat="43.84155" lon="6.99904">
        <ele>835.79998779297</ele>
        <time>2011-05-08T08:18:44.000Z</time>
      </trkpt>
      <trkpt lat="43.84151" lon="6.99911">
        <ele>836</ele>
        <time>2011-05-08T08:18:45.000Z</time>
      </trkpt>
      <trkpt lat="43.84146" lon="6.99923">
        <ele>836.40002441406</ele>
        <time>2011-05-08T08:18:47.000Z</time>
      </trkpt>
      <trkpt lat="43.84143" lon="6.99929">
        <ele>836.59997558594</ele>
        <time>2011-05-08T08:18:48.000Z</time>
      </trkpt>
      <trkpt lat="43.84131" lon="6.99953">
        <ele>837.59997558594</ele>
        <time>2011-05-08T08:18:52.000Z</time>
      </trkpt>
      <trkpt lat="43.84125" lon="6.99964">
        <ele>838</ele>
        <time>2011-05-08T08:18:54.000Z</time>
      </trkpt>
      <trkpt lat="43.8412" lon="6.99977">
        <ele>838</ele>
        <time>2011-05-08T08:18:56.000Z</time>
      </trkpt>
      <trkpt lat="43.84108" lon="7.00002">
        <ele>838.40002441406</ele>
        <time>2011-05-08T08:19:00.000Z</time>
      </trkpt>
      <trkpt lat="43.84103" lon="7.00016">
        <ele>840.40002441406</ele>
        <time>2011-05-08T08:19:02.000Z</time>
      </trkpt>
      <trkpt lat="43.84098" lon="7.0003">
        <ele>842.59997558594</ele>
        <time>2011-05-08T08:19:04.000Z</time>
      </trkpt>
      <trkpt lat="43.84089" lon="7.00059">
        <ele>834.59997558594</ele>
        <time>2011-05-08T08:19:08.000Z</time>
      </trkpt>
      <trkpt lat="43.84081" lon="7.00087">
        <ele>833</ele>
        <time>2011-05-08T08:19:12.000Z</time>
      </trkpt>
      <trkpt lat="43.84073" lon="7.00115">
        <ele>834.40002441406</ele>
        <time>2011-05-08T08:19:16.000Z</time>
      </trkpt>
      <trkpt lat="43.84071" lon="7.00122">
        <ele>834.79998779297</ele>
        <time>2011-05-08T08:19:17.000Z</time>
      </trkpt>
      <trkpt lat="43.84068" lon="7.00128">
        <ele>835.79998779297</ele>
        <time>2011-05-08T08:19:18.000Z</time>
      </trkpt>
      <trkpt lat="43.84061" lon="7.00138">
        <ele>838.59997558594</ele>
        <time>2011-05-08T08:19:20.000Z</time>
      </trkpt>
      <trkpt lat="43.84056" lon="7.00151">
        <ele>839.20001220703</ele>
        <time>2011-05-08T08:19:22.000Z</time>
      </trkpt>
      <trkpt lat="43.84056" lon="7.00166">
        <ele>837.20001220703</ele>
        <time>2011-05-08T08:19:24.000Z</time>
      </trkpt>
      <trkpt lat="43.84057" lon="7.00181">
        <ele>835.79998779297</ele>
        <time>2011-05-08T08:19:26.000Z</time>
      </trkpt>
      <trkpt lat="43.84056" lon="7.00196">
        <ele>835</ele>
        <time>2011-05-08T08:19:28.000Z</time>
      </trkpt>
      <trkpt lat="43.84055" lon="7.00204">
        <ele>835</ele>
        <time>2011-05-08T08:19:29.000Z</time>
      </trkpt>
      <trkpt lat="43.84052" lon="7.00226">
        <ele>835.20001220703</ele>
        <time>2011-05-08T08:19:32.000Z</time>
      </trkpt>
      <trkpt lat="43.84047" lon="7.00256">
        <ele>836.20001220703</ele>
        <time>2011-05-08T08:19:36.000Z</time>
      </trkpt>
      <trkpt lat="43.84044" lon="7.00286">
        <ele>838.20001220703</ele>
        <time>2011-05-08T08:19:40.000Z</time>
      </trkpt>
      <trkpt lat="43.84043" lon="7.00293">
        <ele>838.40002441406</ele>
        <time>2011-05-08T08:19:41.000Z</time>
      </trkpt>
      <trkpt lat="43.84041" lon="7.00316">
        <ele>839.20001220703</ele>
        <time>2011-05-08T08:19:44.000Z</time>
      </trkpt>
      <trkpt lat="43.84042" lon="7.00331">
        <ele>839</ele>
        <time>2011-05-08T08:19:46.000Z</time>
      </trkpt>
      <trkpt lat="43.84043" lon="7.00346">
        <ele>837.40002441406</ele>
        <time>2011-05-08T08:19:48.000Z</time>
      </trkpt>
      <trkpt lat="43.8405" lon="7.00375">
        <ele>831.59997558594</ele>
        <time>2011-05-08T08:19:52.000Z</time>
      </trkpt>
      <trkpt lat="43.84052" lon="7.00382">
        <ele>830.40002441406</ele>
        <time>2011-05-08T08:19:53.000Z</time>
      </trkpt>
      <trkpt lat="43.84053" lon="7.00389">
        <ele>829.20001220703</ele>
        <time>2011-05-08T08:19:54.000Z</time>
      </trkpt>
      <trkpt lat="43.84054" lon="7.00404">
        <ele>827.79998779297</ele>
        <time>2011-05-08T08:19:56.000Z</time>
      </trkpt>
      <trkpt lat="43.84054" lon="7.00412">
        <ele>827.20001220703</ele>
        <time>2011-05-08T08:19:57.000Z</time>
      </trkpt>
      <trkpt lat="43.84053" lon="7.00435">
        <ele>826.79998779297</ele>
        <time>2011-05-08T08:20:00.000Z</time>
      </trkpt>
      <trkpt lat="43.84048" lon="7.00465">
        <ele>828</ele>
        <time>2011-05-08T08:20:04.000Z</time>
      </trkpt>
      <trkpt lat="43.84042" lon="7.00486">
        <ele>830.20001220703</ele>
        <time>2011-05-08T08:20:07.000Z</time>
      </trkpt>
      <trkpt lat="43.8404" lon="7.00494">
        <ele>831.20001220703</ele>
        <time>2011-05-08T08:20:08.000Z</time>
      </trkpt>
      <trkpt lat="43.84031" lon="7.00522">
        <ele>834.40002441406</ele>
        <time>2011-05-08T08:20:12.000Z</time>
      </trkpt>
      <trkpt lat="43.84029" lon="7.0053">
        <ele>835.40002441406</ele>
        <time>2011-05-08T08:20:13.000Z</time>
      </trkpt>
      <trkpt lat="43.84021" lon="7.00551">
        <ele>838.20001220703</ele>
        <time>2011-05-08T08:20:16.000Z</time>
      </trkpt>
      <trkpt lat="43.84016" lon="7.00565">
        <ele>840.20001220703</ele>
        <time>2011-05-08T08:20:18.000Z</time>
      </trkpt>
      <trkpt lat="43.84015" lon="7.00572">
        <ele>840.59997558594</ele>
        <time>2011-05-08T08:20:19.000Z</time>
      </trkpt>
      <trkpt lat="43.84014" lon="7.0058">
        <ele>840.40002441406</ele>
        <time>2011-05-08T08:20:20.000Z</time>
      </trkpt>
      <trkpt lat="43.84018" lon="7.00604">
        <ele>838.79998779297</ele>
        <time>2011-05-08T08:20:23.000Z</time>
      </trkpt>
      <trkpt lat="43.84021" lon="7.00611">
        <ele>837.79998779297</ele>
        <time>2011-05-08T08:20:24.000Z</time>
      </trkpt>
      <trkpt lat="43.84022" lon="7.00619">
        <ele>837</ele>
        <time>2011-05-08T08:20:25.000Z</time>
      </trkpt>
      <trkpt lat="43.84027" lon="7.00641">
        <ele>835</ele>
        <time>2011-05-08T08:20:28.000Z</time>
      </trkpt>
      <trkpt lat="43.84029" lon="7.00648">
        <ele>834.40002441406</ele>
        <time>2011-05-08T08:20:29.000Z</time>
      </trkpt>
      <trkpt lat="43.84034" lon="7.00671">
        <ele>832.40002441406</ele>
        <time>2011-05-08T08:20:32.000Z</time>
      </trkpt>
      <trkpt lat="43.84037" lon="7.00694">
        <ele>831</ele>
        <time>2011-05-08T08:20:35.000Z</time>
      </trkpt>
      <trkpt lat="43.84038" lon="7.00702">
        <ele>830.59997558594</ele>
        <time>2011-05-08T08:20:36.000Z</time>
      </trkpt>
      <trkpt lat="43.8404" lon="7.00732">
        <ele>829.40002441406</ele>
        <time>2011-05-08T08:20:40.000Z</time>
      </trkpt>
      <trkpt lat="43.84042" lon="7.00763">
        <ele>829.20001220703</ele>
        <time>2011-05-08T08:20:44.000Z</time>
      </trkpt>
      <trkpt lat="43.84043" lon="7.00793">
        <ele>829.79998779297</ele>
        <time>2011-05-08T08:20:48.000Z</time>
      </trkpt>
      <trkpt lat="43.84043" lon="7.00816">
        <ele>830.59997558594</ele>
        <time>2011-05-08T08:20:51.000Z</time>
      </trkpt>
      <trkpt lat="43.84043" lon="7.00823">
        <ele>831</ele>
        <time>2011-05-08T08:20:52.000Z</time>
      </trkpt>
      <trkpt lat="43.84041" lon="7.00853">
        <ele>832.20001220703</ele>
        <time>2011-05-08T08:20:56.000Z</time>
      </trkpt>
      <trkpt lat="43.84041" lon="7.0086">
        <ele>832.20001220703</ele>
        <time>2011-05-08T08:20:57.000Z</time>
      </trkpt>
      <trkpt lat="43.84041" lon="7.00882">
        <ele>832.20001220703</ele>
        <time>2011-05-08T08:21:00.000Z</time>
      </trkpt>
      <trkpt lat="43.84042" lon="7.00912">
        <ele>831.40002441406</ele>
        <time>2011-05-08T08:21:04.000Z</time>
      </trkpt>
      <trkpt lat="43.84043" lon="7.00926">
        <ele>830.79998779297</ele>
        <time>2011-05-08T08:21:06.000Z</time>
      </trkpt>
      <trkpt lat="43.84044" lon="7.0094">
        <ele>830.20001220703</ele>
        <time>2011-05-08T08:21:08.000Z</time>
      </trkpt>
      <trkpt lat="43.84046" lon="7.00969">
        <ele>829.40002441406</ele>
        <time>2011-05-08T08:21:12.000Z</time>
      </trkpt>
      <trkpt lat="43.84046" lon="7.00992">
        <ele>829.79998779297</ele>
        <time>2011-05-08T08:21:15.000Z</time>
      </trkpt>
      <trkpt lat="43.84045" lon="7.00999">
        <ele>830.20001220703</ele>
        <time>2011-05-08T08:21:16.000Z</time>
      </trkpt>
      <trkpt lat="43.84045" lon="7.01029">
        <ele>830.79998779297</ele>
        <time>2011-05-08T08:21:20.000Z</time>
      </trkpt>
      <trkpt lat="43.84047" lon="7.01044">
        <ele>830.20001220703</ele>
        <time>2011-05-08T08:21:22.000Z</time>
      </trkpt>
      <trkpt lat="43.84048" lon="7.01059">
        <ele>829.40002441406</ele>
        <time>2011-05-08T08:21:24.000Z</time>
      </trkpt>
      <trkpt lat="43.8405" lon="7.01089">
        <ele>828.79998779297</ele>
        <time>2011-05-08T08:21:28.000Z</time>
      </trkpt>
      <trkpt lat="43.84049" lon="7.01111">
        <ele>830</ele>
        <time>2011-05-08T08:21:31.000Z</time>
      </trkpt>
      <trkpt lat="43.84049" lon="7.01119">
        <ele>830.40002441406</ele>
        <time>2011-05-08T08:21:32.000Z</time>
      </trkpt>
      <trkpt lat="43.84049" lon="7.01126">
        <ele>830.79998779297</ele>
        <time>2011-05-08T08:21:33.000Z</time>
      </trkpt>
      <trkpt lat="43.84049" lon="7.01149">
        <ele>831.59997558594</ele>
        <time>2011-05-08T08:21:36.000Z</time>
      </trkpt>
      <trkpt lat="43.84049" lon="7.01164">
        <ele>832</ele>
        <time>2011-05-08T08:21:38.000Z</time>
      </trkpt>
      <trkpt lat="43.84049" lon="7.01179">
        <ele>831.40002441406</ele>
        <time>2011-05-08T08:21:40.000Z</time>
      </trkpt>
      <trkpt lat="43.8405" lon="7.01193">
        <ele>830.79998779297</ele>
        <time>2011-05-08T08:21:42.000Z</time>
      </trkpt>
      <trkpt lat="43.84049" lon="7.01208">
        <ele>830.79998779297</ele>
        <time>2011-05-08T08:21:44.000Z</time>
      </trkpt>
      <trkpt lat="43.84048" lon="7.01215">
        <ele>830.79998779297</ele>
        <time>2011-05-08T08:21:45.000Z</time>
      </trkpt>
      <trkpt lat="43.84046" lon="7.01238">
        <ele>831.59997558594</ele>
        <time>2011-05-08T08:21:48.000Z</time>
      </trkpt>
      <trkpt lat="43.84042" lon="7.0126">
        <ele>833</ele>
        <time>2011-05-08T08:21:51.000Z</time>
      </trkpt>
      <trkpt lat="43.84041" lon="7.01267">
        <ele>832.79998779297</ele>
        <time>2011-05-08T08:21:52.000Z</time>
      </trkpt>
      <trkpt lat="43.84041" lon="7.01275">
        <ele>832.40002441406</ele>
        <time>2011-05-08T08:21:53.000Z</time>
      </trkpt>
      <trkpt lat="43.84039" lon="7.01298">
        <ele>831.40002441406</ele>
        <time>2011-05-08T08:21:56.000Z</time>
      </trkpt>
      <trkpt lat="43.84035" lon="7.01328">
        <ele>832</ele>
        <time>2011-05-08T08:22:00.000Z</time>
      </trkpt>
      <trkpt lat="43.84031" lon="7.0135">
        <ele>832.40002441406</ele>
        <time>2011-05-08T08:22:03.000Z</time>
      </trkpt>
      <trkpt lat="43.8403" lon="7.01357">
        <ele>832.40002441406</ele>
        <time>2011-05-08T08:22:04.000Z</time>
      </trkpt>
      <trkpt lat="43.84024" lon="7.01387">
        <ele>832.79998779297</ele>
        <time>2011-05-08T08:22:08.000Z</time>
      </trkpt>
      <trkpt lat="43.84021" lon="7.01408">
        <ele>832.40002441406</ele>
        <time>2011-05-08T08:22:11.000Z</time>
      </trkpt>
      <trkpt lat="43.8402" lon="7.01415">
        <ele>832.20001220703</ele>
        <time>2011-05-08T08:22:12.000Z</time>
      </trkpt>
      <trkpt lat="43.84018" lon="7.01444">
        <ele>831</ele>
        <time>2011-05-08T08:22:16.000Z</time>
      </trkpt>
      <trkpt lat="43.84017" lon="7.01459">
        <ele>830.20001220703</ele>
        <time>2011-05-08T08:22:18.000Z</time>
      </trkpt>
      <trkpt lat="43.84016" lon="7.01473">
        <ele>829.40002441406</ele>
        <time>2011-05-08T08:22:20.000Z</time>
      </trkpt>
      <trkpt lat="43.84011" lon="7.015">
        <ele>829.59997558594</ele>
        <time>2011-05-08T08:22:24.000Z</time>
      </trkpt>
      <trkpt lat="43.84003" lon="7.01525">
        <ele>829.40002441406</ele>
        <time>2011-05-08T08:22:28.000Z</time>
      </trkpt>
      <trkpt lat="43.83999" lon="7.01538">
        <ele>829.20001220703</ele>
        <time>2011-05-08T08:22:30.000Z</time>
      </trkpt>
      <trkpt lat="43.83995" lon="7.0155">
        <ele>829.40002441406</ele>
        <time>2011-05-08T08:22:32.000Z</time>
      </trkpt>
      <trkpt lat="43.83989" lon="7.01562">
        <ele>830.40002441406</ele>
        <time>2011-05-08T08:22:34.000Z</time>
      </trkpt>
      <trkpt lat="43.83985" lon="7.01575">
        <ele>830.59997558594</ele>
        <time>2011-05-08T08:22:36.000Z</time>
      </trkpt>
      <trkpt lat="43.83978" lon="7.01601">
        <ele>831.40002441406</ele>
        <time>2011-05-08T08:22:40.000Z</time>
      </trkpt>
      <trkpt lat="43.83975" lon="7.01614">
        <ele>831.40002441406</ele>
        <time>2011-05-08T08:22:42.000Z</time>
      </trkpt>
      <trkpt lat="43.83974" lon="7.0162">
        <ele>831.20001220703</ele>
        <time>2011-05-08T08:22:43.000Z</time>
      </trkpt>
      <trkpt lat="43.83972" lon="7.01627">
        <ele>831.20001220703</ele>
        <time>2011-05-08T08:22:44.000Z</time>
      </trkpt>
      <trkpt lat="43.83967" lon="7.01653">
        <ele>831.20001220703</ele>
        <time>2011-05-08T08:22:48.000Z</time>
      </trkpt>
      <trkpt lat="43.83962" lon="7.0168">
        <ele>831.40002441406</ele>
        <time>2011-05-08T08:22:52.000Z</time>
      </trkpt>
      <trkpt lat="43.83957" lon="7.01707">
        <ele>832.79998779297</ele>
        <time>2011-05-08T08:22:56.000Z</time>
      </trkpt>
      <trkpt lat="43.83953" lon="7.01727">
        <ele>833.20001220703</ele>
        <time>2011-05-08T08:22:59.000Z</time>
      </trkpt>
      <trkpt lat="43.83953" lon="7.01735">
        <ele>832.59997558594</ele>
        <time>2011-05-08T08:23:00.000Z</time>
      </trkpt>
      <trkpt lat="43.83958" lon="7.01762">
        <ele>826.59997558594</ele>
        <time>2011-05-08T08:23:04.000Z</time>
      </trkpt>
      <trkpt lat="43.83959" lon="7.01768">
        <ele>825.40002441406</ele>
        <time>2011-05-08T08:23:05.000Z</time>
      </trkpt>
      <trkpt lat="43.83958" lon="7.01789">
        <ele>824.20001220703</ele>
        <time>2011-05-08T08:23:08.000Z</time>
      </trkpt>
      <trkpt lat="43.83956" lon="7.01809">
        <ele>824.40002441406</ele>
        <time>2011-05-08T08:23:11.000Z</time>
      </trkpt>
      <trkpt lat="43.83955" lon="7.01816">
        <ele>824.79998779297</ele>
        <time>2011-05-08T08:23:12.000Z</time>
      </trkpt>
      <trkpt lat="43.8395" lon="7.01843">
        <ele>825.20001220703</ele>
        <time>2011-05-08T08:23:16.000Z</time>
      </trkpt>
      <trkpt lat="43.83946" lon="7.01872">
        <ele>824</ele>
        <time>2011-05-08T08:23:20.000Z</time>
      </trkpt>
      <trkpt lat="43.83944" lon="7.01879">
        <ele>824</ele>
        <time>2011-05-08T08:23:21.000Z</time>
      </trkpt>
      <trkpt lat="43.83941" lon="7.01893">
        <ele>824.40002441406</ele>
        <time>2011-05-08T08:23:23.000Z</time>
      </trkpt>
      <trkpt lat="43.83938" lon="7.01899">
        <ele>825.20001220703</ele>
        <time>2011-05-08T08:23:24.000Z</time>
      </trkpt>
      <trkpt lat="43.83931" lon="7.01918">
        <ele>828.40002441406</ele>
        <time>2011-05-08T08:23:27.000Z</time>
      </trkpt>
      <trkpt lat="43.83928" lon="7.01925">
        <ele>829.40002441406</ele>
        <time>2011-05-08T08:23:28.000Z</time>
      </trkpt>
      <trkpt lat="43.83919" lon="7.01951">
        <ele>832.40002441406</ele>
        <time>2011-05-08T08:23:32.000Z</time>
      </trkpt>
      <trkpt lat="43.83914" lon="7.01964">
        <ele>834.59997558594</ele>
        <time>2011-05-08T08:23:34.000Z</time>
      </trkpt>
      <trkpt lat="43.8391" lon="7.01977">
        <ele>836.20001220703</ele>
        <time>2011-05-08T08:23:36.000Z</time>
      </trkpt>
      <trkpt lat="43.83909" lon="7.01983">
        <ele>836.40002441406</ele>
        <time>2011-05-08T08:23:37.000Z</time>
      </trkpt>
      <trkpt lat="43.83908" lon="7.01997">
        <ele>835.20001220703</ele>
        <time>2011-05-08T08:23:39.000Z</time>
      </trkpt>
      <trkpt lat="43.83908" lon="7.02003">
        <ele>834.20001220703</ele>
        <time>2011-05-08T08:23:40.000Z</time>
      </trkpt>
      <trkpt lat="43.83909" lon="7.0203">
        <ele>830</ele>
        <time>2011-05-08T08:23:44.000Z</time>
      </trkpt>
      <trkpt lat="43.83912" lon="7.02051">
        <ele>824.79998779297</ele>
        <time>2011-05-08T08:23:47.000Z</time>
      </trkpt>
      <trkpt lat="43.83913" lon="7.02065">
        <ele>822</ele>
        <time>2011-05-08T08:23:48.000Z</time>
      </trkpt>
      <trkpt lat="43.83913" lon="7.02085">
        <ele>819.79998779297</ele>
        <time>2011-05-08T08:23:52.000Z</time>
      </trkpt>
      <trkpt lat="43.83907" lon="7.02118">
        <ele>819.40002441406</ele>
        <time>2011-05-08T08:23:56.000Z</time>
      </trkpt>
      <trkpt lat="43.83905" lon="7.02124">
        <ele>819.79998779297</ele>
        <time>2011-05-08T08:23:58.000Z</time>
      </trkpt>
      <trkpt lat="43.83901" lon="7.02137">
        <ele>821.59997558594</ele>
        <time>2011-05-08T08:24:00.000Z</time>
      </trkpt>
      <trkpt lat="43.83892" lon="7.02155">
        <ele>826.40002441406</ele>
        <time>2011-05-08T08:24:03.000Z</time>
      </trkpt>
      <trkpt lat="43.8389" lon="7.02161">
        <ele>827.40002441406</ele>
        <time>2011-05-08T08:24:04.000Z</time>
      </trkpt>
      <trkpt lat="43.83884" lon="7.02196">
        <ele>827.20001220703</ele>
        <time>2011-05-08T08:24:08.000Z</time>
      </trkpt>
      <trkpt lat="43.83882" lon="7.02217">
        <ele>826</ele>
        <time>2011-05-08T08:24:12.000Z</time>
      </trkpt>
      <trkpt lat="43.83879" lon="7.02253">
        <ele>822.79998779297</ele>
        <time>2011-05-08T08:24:16.000Z</time>
      </trkpt>
      <trkpt lat="43.83879" lon="7.0226">
        <ele>822.59997558594</ele>
        <time>2011-05-08T08:24:18.000Z</time>
      </trkpt>
      <trkpt lat="43.83878" lon="7.02274">
        <ele>821.59997558594</ele>
        <time>2011-05-08T08:24:20.000Z</time>
      </trkpt>
      <trkpt lat="43.83876" lon="7.02303">
        <ele>819.59997558594</ele>
        <time>2011-05-08T08:24:24.000Z</time>
      </trkpt>
      <trkpt lat="43.83873" lon="7.02317">
        <ele>820.20001220703</ele>
        <time>2011-05-08T08:24:26.000Z</time>
      </trkpt>
      <trkpt lat="43.83871" lon="7.02323">
        <ele>821.40002441406</ele>
        <time>2011-05-08T08:24:27.000Z</time>
      </trkpt>
      <trkpt lat="43.83869" lon="7.0233">
        <ele>822.40002441406</ele>
        <time>2011-05-08T08:24:28.000Z</time>
      </trkpt>
      <trkpt lat="43.83866" lon="7.02336">
        <ele>824.40002441406</ele>
        <time>2011-05-08T08:24:29.000Z</time>
      </trkpt>
      <trkpt lat="43.83858" lon="7.02355">
        <ele>831.79998779297</ele>
        <time>2011-05-08T08:24:32.000Z</time>
      </trkpt>
      <trkpt lat="43.83856" lon="7.02361">
        <ele>833.79998779297</ele>
        <time>2011-05-08T08:24:33.000Z</time>
      </trkpt>
      <trkpt lat="43.83854" lon="7.02368">
        <ele>835.40002441406</ele>
        <time>2011-05-08T08:24:34.000Z</time>
      </trkpt>
      <trkpt lat="43.83852" lon="7.02383">
        <ele>837</ele>
        <time>2011-05-08T08:24:36.000Z</time>
      </trkpt>
      <trkpt lat="43.83851" lon="7.02397">
        <ele>837.59997558594</ele>
        <time>2011-05-08T08:24:38.000Z</time>
      </trkpt>
      <trkpt lat="43.8385" lon="7.02411">
        <ele>838.59997558594</ele>
        <time>2011-05-08T08:24:40.000Z</time>
      </trkpt>
      <trkpt lat="43.8385" lon="7.02432">
        <ele>839.40002441406</ele>
        <time>2011-05-08T08:24:43.000Z</time>
      </trkpt>
      <trkpt lat="43.83851" lon="7.02439">
        <ele>838.40002441406</ele>
        <time>2011-05-08T08:24:44.000Z</time>
      </trkpt>
      <trkpt lat="43.83853" lon="7.02445">
        <ele>837.20001220703</ele>
        <time>2011-05-08T08:24:45.000Z</time>
      </trkpt>
      <trkpt lat="43.83859" lon="7.02459">
        <ele>832.79998779297</ele>
        <time>2011-05-08T08:24:48.000Z</time>
      </trkpt>
      <trkpt lat="43.83867" lon="7.02496">
        <ele>827.40002441406</ele>
        <time>2011-05-08T08:24:54.000Z</time>
      </trkpt>
      <trkpt lat="43.83867" lon="7.02504">
        <ele>827</ele>
        <time>2011-05-08T08:24:55.000Z</time>
      </trkpt>
      <trkpt lat="43.83867" lon="7.02518">
        <ele>824.59997558594</ele>
        <time>2011-05-08T08:24:57.000Z</time>
      </trkpt>
      <trkpt lat="43.83866" lon="7.02525">
        <ele>824.59997558594</ele>
        <time>2011-05-08T08:24:58.000Z</time>
      </trkpt>
      <trkpt lat="43.83863" lon="7.02539">
        <ele>824.79998779297</ele>
        <time>2011-05-08T08:25:00.000Z</time>
      </trkpt>
      <trkpt lat="43.83861" lon="7.02545">
        <ele>825.40002441406</ele>
        <time>2011-05-08T08:25:01.000Z</time>
      </trkpt>
      <trkpt lat="43.83856" lon="7.02571">
        <ele>825.79998779297</ele>
        <time>2011-05-08T08:25:05.000Z</time>
      </trkpt>
      <trkpt lat="43.83853" lon="7.02585">
        <ele>825.59997558594</ele>
        <time>2011-05-08T08:25:07.000Z</time>
      </trkpt>
      <trkpt lat="43.8385" lon="7.02598">
        <ele>823.59997558594</ele>
        <time>2011-05-08T08:25:09.000Z</time>
      </trkpt>
      <trkpt lat="43.83849" lon="7.02604">
        <ele>823</ele>
        <time>2011-05-08T08:25:10.000Z</time>
      </trkpt>
      <trkpt lat="43.83842" lon="7.02614">
        <ele>824.59997558594</ele>
        <time>2011-05-08T08:25:12.000Z</time>
      </trkpt>
      <trkpt lat="43.83837" lon="7.02617">
        <ele>826.40002441406</ele>
        <time>2011-05-08T08:25:13.000Z</time>
      </trkpt>
      <trkpt lat="43.83832" lon="7.02621">
        <ele>828.40002441406</ele>
        <time>2011-05-08T08:25:14.000Z</time>
      </trkpt>
      <trkpt lat="43.83821" lon="7.02628">
        <ele>832</ele>
        <time>2011-05-08T08:25:16.000Z</time>
      </trkpt>
      <trkpt lat="43.83809" lon="7.02641">
        <ele>834.59997558594</ele>
        <time>2011-05-08T08:25:18.000Z</time>
      </trkpt>
      <trkpt lat="43.83806" lon="7.02646">
        <ele>834.59997558594</ele>
        <time>2011-05-08T08:25:20.000Z</time>
      </trkpt>
      <trkpt lat="43.83802" lon="7.02652">
        <ele>834.59997558594</ele>
        <time>2011-05-08T08:25:21.000Z</time>
      </trkpt>
      <trkpt lat="43.83791" lon="7.02669">
        <ele>835</ele>
        <time>2011-05-08T08:25:24.000Z</time>
      </trkpt>
      <trkpt lat="43.83784" lon="7.0268">
        <ele>836.40002441406</ele>
        <time>2011-05-08T08:25:26.000Z</time>
      </trkpt>
      <trkpt lat="43.83781" lon="7.02687">
        <ele>836.79998779297</ele>
        <time>2011-05-08T08:25:27.000Z</time>
      </trkpt>
      <trkpt lat="43.83777" lon="7.02693">
        <ele>837.40002441406</ele>
        <time>2011-05-08T08:25:28.000Z</time>
      </trkpt>
      <trkpt lat="43.83767" lon="7.0272">
        <ele>837.79998779297</ele>
        <time>2011-05-08T08:25:32.000Z</time>
      </trkpt>
      <trkpt lat="43.83764" lon="7.02734">
        <ele>836.59997558594</ele>
        <time>2011-05-08T08:25:34.000Z</time>
      </trkpt>
      <trkpt lat="43.83761" lon="7.02748">
        <ele>835.59997558594</ele>
        <time>2011-05-08T08:25:36.000Z</time>
      </trkpt>
      <trkpt lat="43.83755" lon="7.02776">
        <ele>840.20001220703</ele>
        <time>2011-05-08T08:25:40.000Z</time>
      </trkpt>
      <trkpt lat="43.83754" lon="7.02783">
        <ele>841.20001220703</ele>
        <time>2011-05-08T08:25:41.000Z</time>
      </trkpt>
      <trkpt lat="43.83756" lon="7.02797">
        <ele>840.40002441406</ele>
        <time>2011-05-08T08:25:43.000Z</time>
      </trkpt>
      <trkpt lat="43.83758" lon="7.02804">
        <ele>839</ele>
        <time>2011-05-08T08:25:44.000Z</time>
      </trkpt>
      <trkpt lat="43.8377" lon="7.0282">
        <ele>830.59997558594</ele>
        <time>2011-05-08T08:25:47.000Z</time>
      </trkpt>
      <trkpt lat="43.83775" lon="7.02824">
        <ele>827.40002441406</ele>
        <time>2011-05-08T08:25:48.000Z</time>
      </trkpt>
      <trkpt lat="43.83787" lon="7.02838">
        <ele>817.59997558594</ele>
        <time>2011-05-08T08:25:51.000Z</time>
      </trkpt>
      <trkpt lat="43.83788" lon="7.02844">
        <ele>817</ele>
        <time>2011-05-08T08:25:52.000Z</time>
      </trkpt>
      <trkpt lat="43.83788" lon="7.02872">
        <ele>817.79998779297</ele>
        <time>2011-05-08T08:25:56.000Z</time>
      </trkpt>
      <trkpt lat="43.83788" lon="7.02879">
        <ele>818.20001220703</ele>
        <time>2011-05-08T08:25:57.000Z</time>
      </trkpt>
      <trkpt lat="43.83787" lon="7.02899">
        <ele>819.20001220703</ele>
        <time>2011-05-08T08:26:00.000Z</time>
      </trkpt>
      <trkpt lat="43.83786" lon="7.02913">
        <ele>819.79998779297</ele>
        <time>2011-05-08T08:26:02.000Z</time>
      </trkpt>
      <trkpt lat="43.83784" lon="7.02926">
        <ele>820.59997558594</ele>
        <time>2011-05-08T08:26:04.000Z</time>
      </trkpt>
      <trkpt lat="43.83779" lon="7.02938">
        <ele>822.20001220703</ele>
        <time>2011-05-08T08:26:06.000Z</time>
      </trkpt>
      <trkpt lat="43.83775" lon="7.02949">
        <ele>824</ele>
        <time>2011-05-08T08:26:08.000Z</time>
      </trkpt>
      <trkpt lat="43.83768" lon="7.02959">
        <ele>827.20001220703</ele>
        <time>2011-05-08T08:26:10.000Z</time>
      </trkpt>
      <trkpt lat="43.83761" lon="7.02969">
        <ele>831</ele>
        <time>2011-05-08T08:26:12.000Z</time>
      </trkpt>
      <trkpt lat="43.83758" lon="7.02974">
        <ele>832.40002441406</ele>
        <time>2011-05-08T08:26:13.000Z</time>
      </trkpt>
      <trkpt lat="43.83754" lon="7.02986">
        <ele>833.40002441406</ele>
        <time>2011-05-08T08:26:15.000Z</time>
      </trkpt>
      <trkpt lat="43.83753" lon="7.02992">
        <ele>832.59997558594</ele>
        <time>2011-05-08T08:26:16.000Z</time>
      </trkpt>
      <trkpt lat="43.83755" lon="7.03012">
        <ele>829.40002441406</ele>
        <time>2011-05-08T08:26:19.000Z</time>
      </trkpt>
      <trkpt lat="43.83756" lon="7.03019">
        <ele>828.20001220703</ele>
        <time>2011-05-08T08:26:20.000Z</time>
      </trkpt>
      <trkpt lat="43.83758" lon="7.03032">
        <ele>826.20001220703</ele>
        <time>2011-05-08T08:26:22.000Z</time>
      </trkpt>
      <trkpt lat="43.83759" lon="7.03046">
        <ele>825.20001220703</ele>
        <time>2011-05-08T08:26:24.000Z</time>
      </trkpt>
      <trkpt lat="43.83758" lon="7.03053">
        <ele>825</ele>
        <time>2011-05-08T08:26:25.000Z</time>
      </trkpt>
      <trkpt lat="43.83758" lon="7.03073">
        <ele>823.79998779297</ele>
        <time>2011-05-08T08:26:28.000Z</time>
      </trkpt>
      <trkpt lat="43.83759" lon="7.0308">
        <ele>822.79998779297</ele>
        <time>2011-05-08T08:26:29.000Z</time>
      </trkpt>
      <trkpt lat="43.83762" lon="7.03093">
        <ele>819.59997558594</ele>
        <time>2011-05-08T08:26:31.000Z</time>
      </trkpt>
      <trkpt lat="43.83763" lon="7.031">
        <ele>818.20001220703</ele>
        <time>2011-05-08T08:26:32.000Z</time>
      </trkpt>
      <trkpt lat="43.83765" lon="7.03128">
        <ele>814.40002441406</ele>
        <time>2011-05-08T08:26:36.000Z</time>
      </trkpt>
      <trkpt lat="43.83758" lon="7.03156">
        <ele>816.20001220703</ele>
        <time>2011-05-08T08:26:40.000Z</time>
      </trkpt>
      <trkpt lat="43.83754" lon="7.03162">
        <ele>817.79998779297</ele>
        <time>2011-05-08T08:26:41.000Z</time>
      </trkpt>
      <trkpt lat="43.83742" lon="7.03174">
        <ele>824.20001220703</ele>
        <time>2011-05-08T08:26:44.000Z</time>
      </trkpt>
      <trkpt lat="43.83733" lon="7.03182">
        <ele>829</ele>
        <time>2011-05-08T08:26:46.000Z</time>
      </trkpt>
      <trkpt lat="43.83724" lon="7.03191">
        <ele>833.59997558594</ele>
        <time>2011-05-08T08:26:48.000Z</time>
      </trkpt>
      <trkpt lat="43.83718" lon="7.03203">
        <ele>836.40002441406</ele>
        <time>2011-05-08T08:26:50.000Z</time>
      </trkpt>
      <trkpt lat="43.83713" lon="7.03216">
        <ele>838.20001220703</ele>
        <time>2011-05-08T08:26:52.000Z</time>
      </trkpt>
      <trkpt lat="43.83709" lon="7.03235">
        <ele>839.20001220703</ele>
        <time>2011-05-08T08:26:55.000Z</time>
      </trkpt>
      <trkpt lat="43.83707" lon="7.03242">
        <ele>839.79998779297</ele>
        <time>2011-05-08T08:26:56.000Z</time>
      </trkpt>
      <trkpt lat="43.83705" lon="7.03249">
        <ele>840.40002441406</ele>
        <time>2011-05-08T08:26:57.000Z</time>
      </trkpt>
      <trkpt lat="43.83706" lon="7.0327">
        <ele>841.59997558594</ele>
        <time>2011-05-08T08:27:00.000Z</time>
      </trkpt>
      <trkpt lat="43.8371" lon="7.03282">
        <ele>839.59997558594</ele>
        <time>2011-05-08T08:27:02.000Z</time>
      </trkpt>
      <trkpt lat="43.83714" lon="7.03296">
        <ele>837.40002441406</ele>
        <time>2011-05-08T08:27:04.000Z</time>
      </trkpt>
      <trkpt lat="43.83717" lon="7.03302">
        <ele>836.40002441406</ele>
        <time>2011-05-08T08:27:05.000Z</time>
      </trkpt>
      <trkpt lat="43.83719" lon="7.03309">
        <ele>835</ele>
        <time>2011-05-08T08:27:06.000Z</time>
      </trkpt>
      <trkpt lat="43.83724" lon="7.03321">
        <ele>832.40002441406</ele>
        <time>2011-05-08T08:27:08.000Z</time>
      </trkpt>
      <trkpt lat="43.83729" lon="7.03341">
        <ele>829.59997558594</ele>
        <time>2011-05-08T08:27:11.000Z</time>
      </trkpt>
      <trkpt lat="43.8373" lon="7.03348">
        <ele>829.79998779297</ele>
        <time>2011-05-08T08:27:12.000Z</time>
      </trkpt>
      <trkpt lat="43.8373" lon="7.03355">
        <ele>830.59997558594</ele>
        <time>2011-05-08T08:27:13.000Z</time>
      </trkpt>
      <trkpt lat="43.8373" lon="7.03369">
        <ele>831.40002441406</ele>
        <time>2011-05-08T08:27:15.000Z</time>
      </trkpt>
      <trkpt lat="43.83731" lon="7.03376">
        <ele>831.40002441406</ele>
        <time>2011-05-08T08:27:16.000Z</time>
      </trkpt>
      <trkpt lat="43.83736" lon="7.03388">
        <ele>829</ele>
        <time>2011-05-08T08:27:18.000Z</time>
      </trkpt>
      <trkpt lat="43.83739" lon="7.03401">
        <ele>827.20001220703</ele>
        <time>2011-05-08T08:27:20.000Z</time>
      </trkpt>
      <trkpt lat="43.83741" lon="7.03431">
        <ele>827.20001220703</ele>
        <time>2011-05-08T08:27:23.000Z</time>
      </trkpt>
      <trkpt lat="43.83741" lon="7.03431">
        <ele>827.20001220703</ele>
        <time>2011-05-08T08:27:24.000Z</time>
      </trkpt>
      <trkpt lat="43.83741" lon="7.0346">
        <ele>828</ele>
        <time>2011-05-08T08:27:28.000Z</time>
      </trkpt>
      <trkpt lat="43.83741" lon="7.03481">
        <ele>828.40002441406</ele>
        <time>2011-05-08T08:27:31.000Z</time>
      </trkpt>
      <trkpt lat="43.8374" lon="7.03488">
        <ele>828.79998779297</ele>
        <time>2011-05-08T08:27:32.000Z</time>
      </trkpt>
      <trkpt lat="43.83739" lon="7.03517">
        <ele>829</ele>
        <time>2011-05-08T08:27:36.000Z</time>
      </trkpt>
      <trkpt lat="43.8374" lon="7.0353">
        <ele>828.20001220703</ele>
        <time>2011-05-08T08:27:38.000Z</time>
      </trkpt>
      <trkpt lat="43.83739" lon="7.03536">
        <ele>828.20001220703</ele>
        <time>2011-05-08T08:27:39.000Z</time>
      </trkpt>
      <trkpt lat="43.83737" lon="7.03547">
        <ele>829.40002441406</ele>
        <time>2011-05-08T08:27:41.000Z</time>
      </trkpt>
      <trkpt lat="43.83735" lon="7.03553">
        <ele>830.59997558594</ele>
        <time>2011-05-08T08:27:42.000Z</time>
      </trkpt>
      <trkpt lat="43.83732" lon="7.03559">
        <ele>832.40002441406</ele>
        <time>2011-05-08T08:27:43.000Z</time>
      </trkpt>
      <trkpt lat="43.83726" lon="7.0357">
        <ele>836.20001220703</ele>
        <time>2011-05-08T08:27:45.000Z</time>
      </trkpt>
      <trkpt lat="43.83723" lon="7.03582">
        <ele>837.40002441406</ele>
        <time>2011-05-08T08:27:47.000Z</time>
      </trkpt>
      <trkpt lat="43.83725" lon="7.03595">
        <ele>836.59997558594</ele>
        <time>2011-05-08T08:27:49.000Z</time>
      </trkpt>
      <trkpt lat="43.83726" lon="7.03601">
        <ele>836.20001220703</ele>
        <time>2011-05-08T08:27:50.000Z</time>
      </trkpt>
      <trkpt lat="43.83728" lon="7.03608">
        <ele>835.20001220703</ele>
        <time>2011-05-08T08:27:51.000Z</time>
      </trkpt>
      <trkpt lat="43.83731" lon="7.03621">
        <ele>833.40002441406</ele>
        <time>2011-05-08T08:27:53.000Z</time>
      </trkpt>
      <trkpt lat="43.83736" lon="7.03649">
        <ele>830.40002441406</ele>
        <time>2011-05-08T08:27:57.000Z</time>
      </trkpt>
      <trkpt lat="43.83737" lon="7.03656">
        <ele>829.79998779297</ele>
        <time>2011-05-08T08:27:58.000Z</time>
      </trkpt>
      <trkpt lat="43.83742" lon="7.03684">
        <ele>827.79998779297</ele>
        <time>2011-05-08T08:28:01.000Z</time>
      </trkpt>
      <trkpt lat="43.83744" lon="7.03706">
        <ele>827.20001220703</ele>
        <time>2011-05-08T08:28:05.000Z</time>
      </trkpt>
      <trkpt lat="43.83746" lon="7.0372">
        <ele>826.79998779297</ele>
        <time>2011-05-08T08:28:07.000Z</time>
      </trkpt>
      <trkpt lat="43.83746" lon="7.03727">
        <ele>827.20001220703</ele>
        <time>2011-05-08T08:28:08.000Z</time>
      </trkpt>
      <trkpt lat="43.83746" lon="7.03734">
        <ele>827.59997558594</ele>
        <time>2011-05-08T08:28:09.000Z</time>
      </trkpt>
      <trkpt lat="43.83744" lon="7.03764">
        <ele>828.59997558594</ele>
        <time>2011-05-08T08:28:13.000Z</time>
      </trkpt>
      <trkpt lat="43.83742" lon="7.038">
        <ele>827.40002441406</ele>
        <time>2011-05-08T08:28:17.000Z</time>
      </trkpt>
      <trkpt lat="43.8374" lon="7.03822">
        <ele>827.59997558594</ele>
        <time>2011-05-08T08:28:20.000Z</time>
      </trkpt>
      <trkpt lat="43.83738" lon="7.03829">
        <ele>828</ele>
        <time>2011-05-08T08:28:21.000Z</time>
      </trkpt>
      <trkpt lat="43.83731" lon="7.03855">
        <ele>831.40002441406</ele>
        <time>2011-05-08T08:28:25.000Z</time>
      </trkpt>
      <trkpt lat="43.83729" lon="7.03862">
        <ele>832</ele>
        <time>2011-05-08T08:28:26.000Z</time>
      </trkpt>
      <trkpt lat="43.83727" lon="7.03883">
        <ele>832.40002441406</ele>
        <time>2011-05-08T08:28:29.000Z</time>
      </trkpt>
      <trkpt lat="43.83726" lon="7.0389">
        <ele>832.40002441406</ele>
        <time>2011-05-08T08:28:30.000Z</time>
      </trkpt>
      <trkpt lat="43.83724" lon="7.03911">
        <ele>832.79998779297</ele>
        <time>2011-05-08T08:28:33.000Z</time>
      </trkpt>
      <trkpt lat="43.83722" lon="7.03939">
        <ele>833.40002441406</ele>
        <time>2011-05-08T08:28:37.000Z</time>
      </trkpt>
      <trkpt lat="43.83722" lon="7.03946">
        <ele>833.79998779297</ele>
        <time>2011-05-08T08:28:38.000Z</time>
      </trkpt>
      <trkpt lat="43.83722" lon="7.03967">
        <ele>833.59997558594</ele>
        <time>2011-05-08T08:28:41.000Z</time>
      </trkpt>
      <trkpt lat="43.83722" lon="7.03995">
        <ele>833.59997558594</ele>
        <time>2011-05-08T08:28:45.000Z</time>
      </trkpt>
      <trkpt lat="43.8372" lon="7.04023">
        <ele>833.59997558594</ele>
        <time>2011-05-08T08:28:49.000Z</time>
      </trkpt>
      <trkpt lat="43.83719" lon="7.0403">
        <ele>833.40002441406</ele>
        <time>2011-05-08T08:28:50.000Z</time>
      </trkpt>
      <trkpt lat="43.8372" lon="7.0405">
        <ele>831.79998779297</ele>
        <time>2011-05-08T08:28:53.000Z</time>
      </trkpt>
      <trkpt lat="43.83719" lon="7.04071">
        <ele>831.20001220703</ele>
        <time>2011-05-08T08:28:56.000Z</time>
      </trkpt>
      <trkpt lat="43.83719" lon="7.04077">
        <ele>830.79998779297</ele>
        <time>2011-05-08T08:28:57.000Z</time>
      </trkpt>
      <trkpt lat="43.83718" lon="7.04091">
        <ele>830.20001220703</ele>
        <time>2011-05-08T08:28:59.000Z</time>
      </trkpt>
      <trkpt lat="43.83718" lon="7.04105">
        <ele>829.20001220703</ele>
        <time>2011-05-08T08:29:01.000Z</time>
      </trkpt>
      <trkpt lat="43.83715" lon="7.04132">
        <ele>828.59997558594</ele>
        <time>2011-05-08T08:29:05.000Z</time>
      </trkpt>
      <trkpt lat="43.83713" lon="7.04139">
        <ele>828.79998779297</ele>
        <time>2011-05-08T08:29:06.000Z</time>
      </trkpt>
      <trkpt lat="43.83712" lon="7.04146">
        <ele>828.79998779297</ele>
        <time>2011-05-08T08:29:07.000Z</time>
      </trkpt>
      <trkpt lat="43.83711" lon="7.04159">
        <ele>828.40002441406</ele>
        <time>2011-05-08T08:29:09.000Z</time>
      </trkpt>
      <trkpt lat="43.83708" lon="7.0418">
        <ele>828.59997558594</ele>
        <time>2011-05-08T08:29:12.000Z</time>
      </trkpt>
      <trkpt lat="43.83707" lon="7.04187">
        <ele>828.79998779297</ele>
        <time>2011-05-08T08:29:13.000Z</time>
      </trkpt>
      <trkpt lat="43.83704" lon="7.04214">
        <ele>827.79998779297</ele>
        <time>2011-05-08T08:29:17.000Z</time>
      </trkpt>
      <trkpt lat="43.83704" lon="7.04235">
        <ele>826.20001220703</ele>
        <time>2011-05-08T08:29:20.000Z</time>
      </trkpt>
      <trkpt lat="43.83704" lon="7.04242">
        <ele>825.59997558594</ele>
        <time>2011-05-08T08:29:21.000Z</time>
      </trkpt>
      <trkpt lat="43.83703" lon="7.04269">
        <ele>826</ele>
        <time>2011-05-08T08:29:25.000Z</time>
      </trkpt>
      <trkpt lat="43.83699" lon="7.04282">
        <ele>828.20001220703</ele>
        <time>2011-05-08T08:29:27.000Z</time>
      </trkpt>
      <trkpt lat="43.83696" lon="7.04294">
        <ele>830.40002441406</ele>
        <time>2011-05-08T08:29:29.000Z</time>
      </trkpt>
      <trkpt lat="43.83694" lon="7.04308">
        <ele>831.79998779297</ele>
        <time>2011-05-08T08:29:31.000Z</time>
      </trkpt>
      <trkpt lat="43.83693" lon="7.04321">
        <ele>832.40002441406</ele>
        <time>2011-05-08T08:29:33.000Z</time>
      </trkpt>
      <trkpt lat="43.83692" lon="7.04349">
        <ele>833</ele>
        <time>2011-05-08T08:29:37.000Z</time>
      </trkpt>
      <trkpt lat="43.83692" lon="7.04377">
        <ele>832.59997558594</ele>
        <time>2011-05-08T08:29:41.000Z</time>
      </trkpt>
      <trkpt lat="43.83693" lon="7.04398">
        <ele>832.40002441406</ele>
        <time>2011-05-08T08:29:44.000Z</time>
      </trkpt>
      <trkpt lat="43.83693" lon="7.04405">
        <ele>832.20001220703</ele>
        <time>2011-05-08T08:29:45.000Z</time>
      </trkpt>
      <trkpt lat="43.83694" lon="7.04425">
        <ele>831.79998779297</ele>
        <time>2011-05-08T08:29:48.000Z</time>
      </trkpt>
      <trkpt lat="43.83694" lon="7.04432">
        <ele>831.59997558594</ele>
        <time>2011-05-08T08:29:49.000Z</time>
      </trkpt>
      <trkpt lat="43.83694" lon="7.0446">
        <ele>831.40002441406</ele>
        <time>2011-05-08T08:29:53.000Z</time>
      </trkpt>
      <trkpt lat="43.83694" lon="7.04487">
        <ele>831.20001220703</ele>
        <time>2011-05-08T08:29:57.000Z</time>
      </trkpt>
      <trkpt lat="43.83695" lon="7.04515">
        <ele>829.40002441406</ele>
        <time>2011-05-08T08:30:01.000Z</time>
      </trkpt>
      <trkpt lat="43.83695" lon="7.04536">
        <ele>828.40002441406</ele>
        <time>2011-05-08T08:30:04.000Z</time>
      </trkpt>
      <trkpt lat="43.83694" lon="7.04542">
        <ele>828.20001220703</ele>
        <time>2011-05-08T08:30:05.000Z</time>
      </trkpt>
      <trkpt lat="43.83692" lon="7.04571">
        <ele>827.40002441406</ele>
        <time>2011-05-08T08:30:09.000Z</time>
      </trkpt>
      <trkpt lat="43.83689" lon="7.04584">
        <ele>827.59997558594</ele>
        <time>2011-05-08T08:30:11.000Z</time>
      </trkpt>
      <trkpt lat="43.83687" lon="7.04597">
        <ele>827.59997558594</ele>
        <time>2011-05-08T08:30:13.000Z</time>
      </trkpt>
      <trkpt lat="43.83682" lon="7.04624">
        <ele>827.79998779297</ele>
        <time>2011-05-08T08:30:17.000Z</time>
      </trkpt>
      <trkpt lat="43.8368" lon="7.0463">
        <ele>828.40002441406</ele>
        <time>2011-05-08T08:30:18.000Z</time>
      </trkpt>
      <trkpt lat="43.83672" lon="7.04647">
        <ele>830.20001220703</ele>
        <time>2011-05-08T08:30:21.000Z</time>
      </trkpt>
      <trkpt lat="43.8367" lon="7.04653">
        <ele>830.59997558594</ele>
        <time>2011-05-08T08:30:22.000Z</time>
      </trkpt>
      <trkpt lat="43.83668" lon="7.0466">
        <ele>830.79998779297</ele>
        <time>2011-05-08T08:30:23.000Z</time>
      </trkpt>
      <trkpt lat="43.83665" lon="7.04673">
        <ele>831.59997558594</ele>
        <time>2011-05-08T08:30:25.000Z</time>
      </trkpt>
      <trkpt lat="43.8366" lon="7.04699">
        <ele>834</ele>
        <time>2011-05-08T08:30:29.000Z</time>
      </trkpt>
      <trkpt lat="43.83661" lon="7.04706">
        <ele>833.40002441406</ele>
        <time>2011-05-08T08:30:30.000Z</time>
      </trkpt>
      <trkpt lat="43.83667" lon="7.04724">
        <ele>829.20001220703</ele>
        <time>2011-05-08T08:30:33.000Z</time>
      </trkpt>
      <trkpt lat="43.8367" lon="7.0473">
        <ele>828</ele>
        <time>2011-05-08T08:30:34.000Z</time>
      </trkpt>
      <trkpt lat="43.83673" lon="7.04735">
        <ele>826.59997558594</ele>
        <time>2011-05-08T08:30:35.000Z</time>
      </trkpt>
      <trkpt lat="43.83677" lon="7.04745">
        <ele>824.20001220703</ele>
        <time>2011-05-08T08:30:37.000Z</time>
      </trkpt>
      <trkpt lat="43.83678" lon="7.04747">
        <ele>823.59997558594</ele>
        <time>2011-05-08T08:30:38.000Z</time>
      </trkpt>
      <trkpt lat="43.83679" lon="7.04747">
        <ele>823.40002441406</ele>
        <time>2011-05-08T08:30:39.000Z</time>
      </trkpt>
      <trkpt lat="43.83678" lon="7.04746">
        <ele>823.79998779297</ele>
        <time>2011-05-08T08:30:58.000Z</time>
      </trkpt>
      <trkpt lat="43.83678" lon="7.04746">
        <ele>823.79998779297</ele>
        <time>2011-05-08T08:31:05.000Z</time>
      </trkpt>
      <trkpt lat="43.83678" lon="7.0475">
        <ele>823.79998779297</ele>
        <time>2011-05-08T08:31:19.000Z</time>
      </trkpt>
      <trkpt lat="43.83674" lon="7.04768">
        <ele>825</ele>
        <time>2011-05-08T08:31:25.000Z</time>
      </trkpt>
      <trkpt lat="43.8367" lon="7.04794">
        <ele>825.59997558594</ele>
        <time>2011-05-08T08:31:30.000Z</time>
      </trkpt>
      <trkpt lat="43.83669" lon="7.048">
        <ele>825.79998779297</ele>
        <time>2011-05-08T08:31:31.000Z</time>
      </trkpt>
      <trkpt lat="43.83665" lon="7.04819">
        <ele>827.59997558594</ele>
        <time>2011-05-08T08:31:34.000Z</time>
      </trkpt>
      <trkpt lat="43.83663" lon="7.04826">
        <ele>828.40002441406</ele>
        <time>2011-05-08T08:31:35.000Z</time>
      </trkpt>
      <trkpt lat="43.83658" lon="7.04838">
        <ele>830.40002441406</ele>
        <time>2011-05-08T08:31:37.000Z</time>
      </trkpt>
      <trkpt lat="43.83655" lon="7.04844">
        <ele>831.20001220703</ele>
        <time>2011-05-08T08:31:38.000Z</time>
      </trkpt>
      <trkpt lat="43.83647" lon="7.04869">
        <ele>833.59997558594</ele>
        <time>2011-05-08T08:31:42.000Z</time>
      </trkpt>
      <trkpt lat="43.83645" lon="7.04876">
        <ele>833.79998779297</ele>
        <time>2011-05-08T08:31:43.000Z</time>
      </trkpt>
      <trkpt lat="43.83644" lon="7.04883">
        <ele>833.59997558594</ele>
        <time>2011-05-08T08:31:44.000Z</time>
      </trkpt>
      <trkpt lat="43.83643" lon="7.04896">
        <ele>832.79998779297</ele>
        <time>2011-05-08T08:31:46.000Z</time>
      </trkpt>
      <trkpt lat="43.8364" lon="7.04924">
        <ele>831.79998779297</ele>
        <time>2011-05-08T08:31:50.000Z</time>
      </trkpt>
      <trkpt lat="43.83637" lon="7.04953">
        <ele>831.40002441406</ele>
        <time>2011-05-08T08:31:54.000Z</time>
      </trkpt>
      <trkpt lat="43.83635" lon="7.04967">
        <ele>831.59997558594</ele>
        <time>2011-05-08T08:31:56.000Z</time>
      </trkpt>
      <trkpt lat="43.83633" lon="7.04981">
        <ele>832</ele>
        <time>2011-05-08T08:31:58.000Z</time>
      </trkpt>
      <trkpt lat="43.83629" lon="7.05009">
        <ele>832.59997558594</ele>
        <time>2011-05-08T08:32:02.000Z</time>
      </trkpt>
      <trkpt lat="43.83628" lon="7.05016">
        <ele>832.79998779297</ele>
        <time>2011-05-08T08:32:03.000Z</time>
      </trkpt>
      <trkpt lat="43.83626" lon="7.05037">
        <ele>833</ele>
        <time>2011-05-08T08:32:06.000Z</time>
      </trkpt>
      <trkpt lat="43.83622" lon="7.05066">
        <ele>833.79998779297</ele>
        <time>2011-05-08T08:32:10.000Z</time>
      </trkpt>
      <trkpt lat="43.83621" lon="7.05081">
        <ele>833.59997558594</ele>
        <time>2011-05-08T08:32:12.000Z</time>
      </trkpt>
      <trkpt lat="43.8362" lon="7.05096">
        <ele>833.59997558594</ele>
        <time>2011-05-08T08:32:14.000Z</time>
      </trkpt>
      <trkpt lat="43.8362" lon="7.05124">
        <ele>832.79998779297</ele>
        <time>2011-05-08T08:32:18.000Z</time>
      </trkpt>
      <trkpt lat="43.83619" lon="7.05129">
        <ele>832.79998779297</ele>
        <time>2011-05-08T08:32:19.000Z</time>
      </trkpt>
      <trkpt lat="43.83619" lon="7.05136">
        <ele>832.79998779297</ele>
        <time>2011-05-08T08:32:22.000Z</time>
      </trkpt>
      <trkpt lat="43.83619" lon="7.05139">
        <ele>832.40002441406</ele>
        <time>2011-05-08T08:32:23.000Z</time>
      </trkpt>
      <trkpt lat="43.83623" lon="7.05153">
        <ele>830</ele>
        <time>2011-05-08T08:32:27.000Z</time>
      </trkpt>
      <trkpt lat="43.83625" lon="7.05164">
        <ele>828.20001220703</ele>
        <time>2011-05-08T08:32:29.000Z</time>
      </trkpt>
      <trkpt lat="43.83627" lon="7.05183">
        <ele>826.20001220703</ele>
        <time>2011-05-08T08:32:32.000Z</time>
      </trkpt>
      <trkpt lat="43.83628" lon="7.05189">
        <ele>825.20001220703</ele>
        <time>2011-05-08T08:32:33.000Z</time>
      </trkpt>
      <trkpt lat="43.83631" lon="7.05208">
        <ele>822.40002441406</ele>
        <time>2011-05-08T08:32:37.000Z</time>
      </trkpt>
      <trkpt lat="43.83631" lon="7.05211">
        <ele>822</ele>
        <time>2011-05-08T08:32:38.000Z</time>
      </trkpt>
      <trkpt lat="43.83632" lon="7.05231">
        <ele>820.40002441406</ele>
        <time>2011-05-08T08:32:44.000Z</time>
      </trkpt>
      <trkpt lat="43.83632" lon="7.05233">
        <ele>820</ele>
        <time>2011-05-08T08:32:45.000Z</time>
      </trkpt>
      <trkpt lat="43.83634" lon="7.05232">
        <ele>818.79998779297</ele>
        <time>2011-05-08T08:32:47.000Z</time>
      </trkpt>
      <trkpt lat="43.83638" lon="7.05216">
        <ele>817.59997558594</ele>
        <time>2011-05-08T08:32:51.000Z</time>
      </trkpt>
      <trkpt lat="43.83641" lon="7.05207">
        <ele>816.20001220703</ele>
        <time>2011-05-08T08:32:53.000Z</time>
      </trkpt>
      <trkpt lat="43.83647" lon="7.05195">
        <ele>813.59997558594</ele>
        <time>2011-05-08T08:32:56.000Z</time>
      </trkpt>
      <trkpt lat="43.8365" lon="7.05186">
        <ele>812.59997558594</ele>
        <time>2011-05-08T08:32:58.000Z</time>
      </trkpt>
      <trkpt lat="43.83653" lon="7.05174">
        <ele>811.79998779297</ele>
        <time>2011-05-08T08:33:01.000Z</time>
      </trkpt>
      <trkpt lat="43.83659" lon="7.05162">
        <ele>809.20001220703</ele>
        <time>2011-05-08T08:33:04.000Z</time>
      </trkpt>
      <trkpt lat="43.83664" lon="7.05156">
        <ele>806.59997558594</ele>
        <time>2011-05-08T08:33:06.000Z</time>
      </trkpt>
      <trkpt lat="43.83667" lon="7.05147">
        <ele>804.79998779297</ele>
        <time>2011-05-08T08:33:09.000Z</time>
      </trkpt>
      <trkpt lat="43.83667" lon="7.05144">
        <ele>804.59997558594</ele>
        <time>2011-05-08T08:33:10.000Z</time>
      </trkpt>
      <trkpt lat="43.83665" lon="7.05141">
        <ele>806</ele>
        <time>2011-05-08T08:33:13.000Z</time>
      </trkpt>
      <trkpt lat="43.83665" lon="7.0514">
        <ele>805.79998779297</ele>
        <time>2011-05-08T08:33:14.000Z</time>
      </trkpt>
      <trkpt lat="43.83665" lon="7.05139">
        <ele>805.79998779297</ele>
        <time>2011-05-08T08:33:15.000Z</time>
      </trkpt>
      <trkpt lat="43.83668" lon="7.05136">
        <ele>804.20001220703</ele>
        <time>2011-05-08T08:33:18.000Z</time>
      </trkpt>
      <trkpt lat="43.83668" lon="7.05137">
        <ele>803.79998779297</ele>
        <time>2011-05-08T08:33:19.000Z</time>
      </trkpt>
      <trkpt lat="43.8367" lon="7.0514">
        <ele>802.59997558594</ele>
        <time>2011-05-08T08:33:23.000Z</time>
      </trkpt>
      <trkpt lat="43.83672" lon="7.05153">
        <ele>801.59997558594</ele>
        <time>2011-05-08T08:33:28.000Z</time>
      </trkpt>
      <trkpt lat="43.83676" lon="7.05175">
        <ele>798</ele>
        <time>2011-05-08T08:33:34.000Z</time>
      </trkpt>
      <trkpt lat="43.83677" lon="7.05178">
        <ele>797.20001220703</ele>
        <time>2011-05-08T08:33:35.000Z</time>
      </trkpt>
      <trkpt lat="43.83681" lon="7.05196">
        <ele>793</ele>
        <time>2011-05-08T08:33:40.000Z</time>
      </trkpt>
      <trkpt lat="43.83682" lon="7.05202">
        <ele>791.59997558594</ele>
        <time>2011-05-08T08:33:42.000Z</time>
      </trkpt>
      <trkpt lat="43.83684" lon="7.0521">
        <ele>789.79998779297</ele>
        <time>2011-05-08T08:33:45.000Z</time>
      </trkpt>
      <trkpt lat="43.83684" lon="7.05219">
        <ele>789.20001220703</ele>
        <time>2011-05-08T08:33:50.000Z</time>
      </trkpt>
      <trkpt lat="43.83683" lon="7.05225">
        <ele>789.59997558594</ele>
        <time>2011-05-08T08:33:56.000Z</time>
      </trkpt>
      <trkpt lat="43.83683" lon="7.05227">
        <ele>789.59997558594</ele>
        <time>2011-05-08T08:33:57.000Z</time>
      </trkpt>
      <trkpt lat="43.83683" lon="7.05228">
        <ele>789</ele>
        <time>2011-05-08T08:34:01.000Z</time>
      </trkpt>
      <trkpt lat="43.83684" lon="7.05238">
        <ele>788</ele>
        <time>2011-05-08T08:34:07.000Z</time>
      </trkpt>
      <trkpt lat="43.83687" lon="7.05254">
        <ele>784.59997558594</ele>
        <time>2011-05-08T08:34:13.000Z</time>
      </trkpt>
      <trkpt lat="43.83687" lon="7.05257">
        <ele>784.59997558594</ele>
        <time>2011-05-08T08:34:14.000Z</time>
      </trkpt>
      <trkpt lat="43.8369" lon="7.0527">
        <ele>783</ele>
        <time>2011-05-08T08:34:19.000Z</time>
      </trkpt>
      <trkpt lat="43.8369" lon="7.05272">
        <ele>783</ele>
        <time>2011-05-08T08:34:22.000Z</time>
      </trkpt>
      <trkpt lat="43.83691" lon="7.05273">
        <ele>782.40002441406</ele>
        <time>2011-05-08T08:34:23.000Z</time>
      </trkpt>
      <trkpt lat="43.83694" lon="7.05267">
        <ele>780.59997558594</ele>
        <time>2011-05-08T08:34:27.000Z</time>
      </trkpt>
      <trkpt lat="43.83702" lon="7.05248">
        <ele>776</ele>
        <time>2011-05-08T08:34:33.000Z</time>
      </trkpt>
      <trkpt lat="43.83704" lon="7.05243">
        <ele>775.59997558594</ele>
        <time>2011-05-08T08:34:34.000Z</time>
      </trkpt>
      <trkpt lat="43.83706" lon="7.05237">
        <ele>774.40002441406</ele>
        <time>2011-05-08T08:34:37.000Z</time>
      </trkpt>
      <trkpt lat="43.83708" lon="7.05234">
        <ele>773.59997558594</ele>
        <time>2011-05-08T08:34:43.000Z</time>
      </trkpt>
      <trkpt lat="43.8371" lon="7.05228">
        <ele>773</ele>
        <time>2011-05-08T08:34:45.000Z</time>
      </trkpt>
      <trkpt lat="43.83712" lon="7.05221">
        <ele>772</ele>
        <time>2011-05-08T08:34:47.000Z</time>
      </trkpt>
      <trkpt lat="43.83716" lon="7.0521">
        <ele>770.40002441406</ele>
        <time>2011-05-08T08:34:50.000Z</time>
      </trkpt>
      <trkpt lat="43.83719" lon="7.05196">
        <ele>769</ele>
        <time>2011-05-08T08:34:53.000Z</time>
      </trkpt>
      <trkpt lat="43.83721" lon="7.05191">
        <ele>768.59997558594</ele>
        <time>2011-05-08T08:34:54.000Z</time>
      </trkpt>
      <trkpt lat="43.83727" lon="7.0517">
        <ele>765.40002441406</ele>
        <time>2011-05-08T08:34:58.000Z</time>
      </trkpt>
      <trkpt lat="43.83732" lon="7.05159">
        <ele>762.79998779297</ele>
        <time>2011-05-08T08:35:00.000Z</time>
      </trkpt>
      <trkpt lat="43.83736" lon="7.05144">
        <ele>760.79998779297</ele>
        <time>2011-05-08T08:35:03.000Z</time>
      </trkpt>
      <trkpt lat="43.8374" lon="7.05129">
        <ele>759</ele>
        <time>2011-05-08T08:35:06.000Z</time>
      </trkpt>
      <trkpt lat="43.83744" lon="7.05119">
        <ele>757</ele>
        <time>2011-05-08T08:35:08.000Z</time>
      </trkpt>
      <trkpt lat="43.83745" lon="7.05115">
        <ele>756.40002441406</ele>
        <time>2011-05-08T08:35:09.000Z</time>
      </trkpt>
      <trkpt lat="43.83745" lon="7.05111">
        <ele>756.40002441406</ele>
        <time>2011-05-08T08:35:10.000Z</time>
      </trkpt>
      <trkpt lat="43.83749" lon="7.05094">
        <ele>754.79998779297</ele>
        <time>2011-05-08T08:35:14.000Z</time>
      </trkpt>
      <trkpt lat="43.83752" lon="7.05085">
        <ele>753.20001220703</ele>
        <time>2011-05-08T08:35:16.000Z</time>
      </trkpt>
      <trkpt lat="43.83757" lon="7.05069">
        <ele>751.20001220703</ele>
        <time>2011-05-08T08:35:19.000Z</time>
      </trkpt>
      <trkpt lat="43.83761" lon="7.05054">
        <ele>750</ele>
        <time>2011-05-08T08:35:22.000Z</time>
      </trkpt>
      <trkpt lat="43.83762" lon="7.05044">
        <ele>750.59997558594</ele>
        <time>2011-05-08T08:35:24.000Z</time>
      </trkpt>
      <trkpt lat="43.83762" lon="7.05032">
        <ele>751</ele>
        <time>2011-05-08T08:35:26.000Z</time>
      </trkpt>
      <trkpt lat="43.83763" lon="7.05026">
        <ele>751.59997558594</ele>
        <time>2011-05-08T08:35:27.000Z</time>
      </trkpt>
      <trkpt lat="43.83763" lon="7.05014">
        <ele>752.40002441406</ele>
        <time>2011-05-08T08:35:29.000Z</time>
      </trkpt>
      <trkpt lat="43.83764" lon="7.05003">
        <ele>752.40002441406</ele>
        <time>2011-05-08T08:35:31.000Z</time>
      </trkpt>
      <trkpt lat="43.83768" lon="7.04989">
        <ele>752.20001220703</ele>
        <time>2011-05-08T08:35:34.000Z</time>
      </trkpt>
      <trkpt lat="43.83772" lon="7.04978">
        <ele>751.59997558594</ele>
        <time>2011-05-08T08:35:36.000Z</time>
      </trkpt>
      <trkpt lat="43.83779" lon="7.04965">
        <ele>749.79998779297</ele>
        <time>2011-05-08T08:35:39.000Z</time>
      </trkpt>
      <trkpt lat="43.83786" lon="7.04952">
        <ele>748.20001220703</ele>
        <time>2011-05-08T08:35:42.000Z</time>
      </trkpt>
      <trkpt lat="43.83787" lon="7.04941">
        <ele>749.20001220703</ele>
        <time>2011-05-08T08:35:44.000Z</time>
      </trkpt>
      <trkpt lat="43.8379" lon="7.04926">
        <ele>749.59997558594</ele>
        <time>2011-05-08T08:35:47.000Z</time>
      </trkpt>
      <trkpt lat="43.83793" lon="7.04917">
        <ele>749.40002441406</ele>
        <time>2011-05-08T08:35:49.000Z</time>
      </trkpt>
      <trkpt lat="43.83797" lon="7.04901">
        <ele>750</ele>
        <time>2011-05-08T08:35:53.000Z</time>
      </trkpt>
      <trkpt lat="43.83803" lon="7.04893">
        <ele>748.79998779297</ele>
        <time>2011-05-08T08:35:56.000Z</time>
      </trkpt>
      <trkpt lat="43.83808" lon="7.04885">
        <ele>747.59997558594</ele>
        <time>2011-05-08T08:35:59.000Z</time>
      </trkpt>
      <trkpt lat="43.83815" lon="7.04871">
        <ele>747.20001220703</ele>
        <time>2011-05-08T08:36:03.000Z</time>
      </trkpt>
      <trkpt lat="43.83816" lon="7.04867">
        <ele>747.20001220703</ele>
        <time>2011-05-08T08:36:04.000Z</time>
      </trkpt>
      <trkpt lat="43.83823" lon="7.04857">
        <ele>746</ele>
        <time>2011-05-08T08:36:08.000Z</time>
      </trkpt>
      <trkpt lat="43.8383" lon="7.04855">
        <ele>743.20001220703</ele>
        <time>2011-05-08T08:36:10.000Z</time>
      </trkpt>
      <trkpt lat="43.83838" lon="7.04854">
        <ele>740.59997558594</ele>
        <time>2011-05-08T08:36:12.000Z</time>
      </trkpt>
      <trkpt lat="43.83841" lon="7.04855">
        <ele>739.40002441406</ele>
        <time>2011-05-08T08:36:13.000Z</time>
      </trkpt>
      <trkpt lat="43.83849" lon="7.04859">
        <ele>735.79998779297</ele>
        <time>2011-05-08T08:36:16.000Z</time>
      </trkpt>
      <trkpt lat="43.83851" lon="7.04862">
        <ele>734.40002441406</ele>
        <time>2011-05-08T08:36:17.000Z</time>
      </trkpt>
      <trkpt lat="43.83865" lon="7.04871">
        <ele>727.59997558594</ele>
        <time>2011-05-08T08:36:22.000Z</time>
      </trkpt>
      <trkpt lat="43.83872" lon="7.0487">
        <ele>725.40002441406</ele>
        <time>2011-05-08T08:36:25.000Z</time>
      </trkpt>
      <trkpt lat="43.83878" lon="7.04868">
        <ele>723.79998779297</ele>
        <time>2011-05-08T08:36:27.000Z</time>
      </trkpt>
      <trkpt lat="43.83884" lon="7.04869">
        <ele>721.59997558594</ele>
        <time>2011-05-08T08:36:29.000Z</time>
      </trkpt>
      <trkpt lat="43.83887" lon="7.04869">
        <ele>720.79998779297</ele>
        <time>2011-05-08T08:36:32.000Z</time>
      </trkpt>
      <trkpt lat="43.83888" lon="7.0487">
        <ele>720.20001220703</ele>
        <time>2011-05-08T08:36:38.000Z</time>
      </trkpt>
      <trkpt lat="43.83893" lon="7.04874">
        <ele>717.40002441406</ele>
        <time>2011-05-08T08:36:42.000Z</time>
      </trkpt>
      <trkpt lat="43.83894" lon="7.04875">
        <ele>716.40002441406</ele>
        <time>2011-05-08T08:36:44.000Z</time>
      </trkpt>
      <trkpt lat="43.83897" lon="7.04876">
        <ele>715</ele>
        <time>2011-05-08T08:36:55.000Z</time>
      </trkpt>
      <trkpt lat="43.83901" lon="7.04878">
        <ele>713.20001220703</ele>
        <time>2011-05-08T08:36:57.000Z</time>
      </trkpt>
      <trkpt lat="43.83906" lon="7.04881">
        <ele>710.20001220703</ele>
        <time>2011-05-08T08:36:59.000Z</time>
      </trkpt>
      <trkpt lat="43.83918" lon="7.04886">
        <ele>704.40002441406</ele>
        <time>2011-05-08T08:37:03.000Z</time>
      </trkpt>
      <trkpt lat="43.83923" lon="7.0489">
        <ele>701.20001220703</ele>
        <time>2011-05-08T08:37:05.000Z</time>
      </trkpt>
      <trkpt lat="43.83928" lon="7.04892">
        <ele>698.40002441406</ele>
        <time>2011-05-08T08:37:07.000Z</time>
      </trkpt>
      <trkpt lat="43.83937" lon="7.04895">
        <ele>693.59997558594</ele>
        <time>2011-05-08T08:37:10.000Z</time>
      </trkpt>
      <trkpt lat="43.83943" lon="7.04897">
        <ele>690.59997558594</ele>
        <time>2011-05-08T08:37:12.000Z</time>
      </trkpt>
      <trkpt lat="43.83948" lon="7.04898">
        <ele>688.59997558594</ele>
        <time>2011-05-08T08:37:14.000Z</time>
      </trkpt>
      <trkpt lat="43.83953" lon="7.04896">
        <ele>687.20001220703</ele>
        <time>2011-05-08T08:37:16.000Z</time>
      </trkpt>
      <trkpt lat="43.83955" lon="7.04893">
        <ele>687.20001220703</ele>
        <time>2011-05-08T08:37:17.000Z</time>
      </trkpt>
      <trkpt lat="43.83961" lon="7.04881">
        <ele>688</ele>
        <time>2011-05-08T08:37:20.000Z</time>
      </trkpt>
      <trkpt lat="43.83965" lon="7.04871">
        <ele>689</ele>
        <time>2011-05-08T08:37:22.000Z</time>
      </trkpt>
      <trkpt lat="43.83969" lon="7.04859">
        <ele>689.79998779297</ele>
        <time>2011-05-08T08:37:24.000Z</time>
      </trkpt>
      <trkpt lat="43.83974" lon="7.04851">
        <ele>689.59997558594</ele>
        <time>2011-05-08T08:37:27.000Z</time>
      </trkpt>
      <trkpt lat="43.83974" lon="7.04853">
        <ele>688.79998779297</ele>
        <time>2011-05-08T08:37:28.000Z</time>
      </trkpt>
      <trkpt lat="43.83973" lon="7.04861">
        <ele>687.40002441406</ele>
        <time>2011-05-08T08:37:31.000Z</time>
      </trkpt>
      <trkpt lat="43.83973" lon="7.04881">
        <ele>682.59997558594</ele>
        <time>2011-05-08T08:37:36.000Z</time>
      </trkpt>
      <trkpt lat="43.83973" lon="7.04885">
        <ele>681.59997558594</ele>
        <time>2011-05-08T08:37:37.000Z</time>
      </trkpt>
      <trkpt lat="43.83973" lon="7.04896">
        <ele>679.20001220703</ele>
        <time>2011-05-08T08:37:40.000Z</time>
      </trkpt>
      <trkpt lat="43.83974" lon="7.04897">
        <ele>678.59997558594</ele>
        <time>2011-05-08T08:37:41.000Z</time>
      </trkpt>
      <trkpt lat="43.83981" lon="7.04891">
        <ele>677</ele>
        <time>2011-05-08T08:37:44.000Z</time>
      </trkpt>
      <trkpt lat="43.83983" lon="7.04889">
        <ele>676.79998779297</ele>
        <time>2011-05-08T08:37:45.000Z</time>
      </trkpt>
      <trkpt lat="43.83987" lon="7.04876">
        <ele>677.79998779297</ele>
        <time>2011-05-08T08:37:49.000Z</time>
      </trkpt>
      <trkpt lat="43.83991" lon="7.04867">
        <ele>678</ele>
        <time>2011-05-08T08:37:51.000Z</time>
      </trkpt>
      <trkpt lat="43.83993" lon="7.04854">
        <ele>679.40002441406</ele>
        <time>2011-05-08T08:37:53.000Z</time>
      </trkpt>
      <trkpt lat="43.83995" lon="7.04837">
        <ele>681.59997558594</ele>
        <time>2011-05-08T08:37:55.000Z</time>
      </trkpt>
      <trkpt lat="43.83999" lon="7.04815">
        <ele>681.20001220703</ele>
        <time>2011-05-08T08:37:58.000Z</time>
      </trkpt>
      <trkpt lat="43.84" lon="7.04808">
        <ele>681</ele>
        <time>2011-05-08T08:37:59.000Z</time>
      </trkpt>
      <trkpt lat="43.84" lon="7.04785">
        <ele>681.79998779297</ele>
        <time>2011-05-08T08:38:03.000Z</time>
      </trkpt>
      <trkpt lat="43.84" lon="7.0478">
        <ele>682</ele>
        <time>2011-05-08T08:38:04.000Z</time>
      </trkpt>
      <trkpt lat="43.83997" lon="7.04762">
        <ele>684.20001220703</ele>
        <time>2011-05-08T08:38:07.000Z</time>
      </trkpt>
      <trkpt lat="43.83997" lon="7.04751">
        <ele>684.59997558594</ele>
        <time>2011-05-08T08:38:09.000Z</time>
      </trkpt>
      <trkpt lat="43.83996" lon="7.04739">
        <ele>684</ele>
        <time>2011-05-08T08:38:11.000Z</time>
      </trkpt>
      <trkpt lat="43.83996" lon="7.04724">
        <ele>681.59997558594</ele>
        <time>2011-05-08T08:38:13.000Z</time>
      </trkpt>
      <trkpt lat="43.83998" lon="7.04693">
        <ele>676.59997558594</ele>
        <time>2011-05-08T08:38:17.000Z</time>
      </trkpt>
      <trkpt lat="43.84" lon="7.04678">
        <ele>673.40002441406</ele>
        <time>2011-05-08T08:38:19.000Z</time>
      </trkpt>
      <trkpt lat="43.84" lon="7.04663">
        <ele>671.20001220703</ele>
        <time>2011-05-08T08:38:21.000Z</time>
      </trkpt>
      <trkpt lat="43.84002" lon="7.04653">
        <ele>669.40002441406</ele>
        <time>2011-05-08T08:38:23.000Z</time>
      </trkpt>
      <trkpt lat="43.84005" lon="7.04652">
        <ele>667.59997558594</ele>
        <time>2011-05-08T08:38:26.000Z</time>
      </trkpt>
      <trkpt lat="43.8401" lon="7.04661">
        <ele>666.79998779297</ele>
        <time>2011-05-08T08:38:28.000Z</time>
      </trkpt>
      <trkpt lat="43.84016" lon="7.04671">
        <ele>665.59997558594</ele>
        <time>2011-05-08T08:38:30.000Z</time>
      </trkpt>
      <trkpt lat="43.84022" lon="7.04682">
        <ele>664.20001220703</ele>
        <time>2011-05-08T08:38:32.000Z</time>
      </trkpt>
      <trkpt lat="43.84034" lon="7.04701">
        <ele>661.20001220703</ele>
        <time>2011-05-08T08:38:36.000Z</time>
      </trkpt>
      <trkpt lat="43.84045" lon="7.04718">
        <ele>658</ele>
        <time>2011-05-08T08:38:40.000Z</time>
      </trkpt>
      <trkpt lat="43.84047" lon="7.04723">
        <ele>657.59997558594</ele>
        <time>2011-05-08T08:38:41.000Z</time>
      </trkpt>
      <trkpt lat="43.8406" lon="7.04744">
        <ele>654.20001220703</ele>
        <time>2011-05-08T08:38:45.000Z</time>
      </trkpt>
      <trkpt lat="43.84068" lon="7.0476">
        <ele>651</ele>
        <time>2011-05-08T08:38:48.000Z</time>
      </trkpt>
      <trkpt lat="43.84071" lon="7.04764">
        <ele>649.59997558594</ele>
        <time>2011-05-08T08:38:49.000Z</time>
      </trkpt>
      <trkpt lat="43.84073" lon="7.04769">
        <ele>648.59997558594</ele>
        <time>2011-05-08T08:38:50.000Z</time>
      </trkpt>
      <trkpt lat="43.84082" lon="7.04784">
        <ele>644.40002441406</ele>
        <time>2011-05-08T08:38:54.000Z</time>
      </trkpt>
      <trkpt lat="43.84084" lon="7.04788">
        <ele>643.59997558594</ele>
        <time>2011-05-08T08:38:55.000Z</time>
      </trkpt>
      <trkpt lat="43.8409" lon="7.04805">
        <ele>641.40002441406</ele>
        <time>2011-05-08T08:38:59.000Z</time>
      </trkpt>
      <trkpt lat="43.84091" lon="7.0481">
        <ele>641.20001220703</ele>
        <time>2011-05-08T08:39:00.000Z</time>
      </trkpt>
      <trkpt lat="43.84093" lon="7.04826">
        <ele>640.59997558594</ele>
        <time>2011-05-08T08:39:03.000Z</time>
      </trkpt>
      <trkpt lat="43.84094" lon="7.04838">
        <ele>639.59997558594</ele>
        <time>2011-05-08T08:39:05.000Z</time>
      </trkpt>
      <trkpt lat="43.84099" lon="7.04854">
        <ele>635.59997558594</ele>
        <time>2011-05-08T08:39:09.000Z</time>
      </trkpt>
      <trkpt lat="43.84104" lon="7.04858">
        <ele>633.59997558594</ele>
        <time>2011-05-08T08:39:11.000Z</time>
      </trkpt>
      <trkpt lat="43.84109" lon="7.04861">
        <ele>631.79998779297</ele>
        <time>2011-05-08T08:39:14.000Z</time>
      </trkpt>
      <trkpt lat="43.84112" lon="7.04863">
        <ele>630.59997558594</ele>
        <time>2011-05-08T08:39:20.000Z</time>
      </trkpt>
      <trkpt lat="43.84113" lon="7.04863">
        <ele>630.40002441406</ele>
        <time>2011-05-08T08:39:21.000Z</time>
      </trkpt>
      <trkpt lat="43.84112" lon="7.04859">
        <ele>631.20001220703</ele>
        <time>2011-05-08T08:39:24.000Z</time>
      </trkpt>
      <trkpt lat="43.84112" lon="7.04855">
        <ele>631.59997558594</ele>
        <time>2011-05-08T08:39:27.000Z</time>
      </trkpt>
      <trkpt lat="43.84113" lon="7.04853">
        <ele>631.59997558594</ele>
        <time>2011-05-08T08:39:29.000Z</time>
      </trkpt>
      <trkpt lat="43.84116" lon="7.04853">
        <ele>630.79998779297</ele>
        <time>2011-05-08T08:39:32.000Z</time>
      </trkpt>
      <trkpt lat="43.84117" lon="7.04855">
        <ele>630.20001220703</ele>
        <time>2011-05-08T08:39:34.000Z</time>
      </trkpt>
      <trkpt lat="43.84123" lon="7.04859">
        <ele>628</ele>
        <time>2011-05-08T08:39:40.000Z</time>
      </trkpt>
      <trkpt lat="43.84128" lon="7.04867">
        <ele>626</ele>
        <time>2011-05-08T08:39:46.000Z</time>
      </trkpt>
      <trkpt lat="43.84128" lon="7.0487">
        <ele>625.40002441406</ele>
        <time>2011-05-08T08:39:49.000Z</time>
      </trkpt>
      <trkpt lat="43.84129" lon="7.04871">
        <ele>625.20001220703</ele>
        <time>2011-05-08T08:39:50.000Z</time>
      </trkpt>
      <trkpt lat="43.84129" lon="7.04872">
        <ele>625</ele>
        <time>2011-05-08T08:39:52.000Z</time>
      </trkpt>
      <trkpt lat="43.84132" lon="7.0488">
        <ele>623.59997558594</ele>
        <time>2011-05-08T08:39:56.000Z</time>
      </trkpt>
      <trkpt lat="43.84137" lon="7.04893">
        <ele>621.40002441406</ele>
        <time>2011-05-08T08:40:01.000Z</time>
      </trkpt>
      <trkpt lat="43.84143" lon="7.04901">
        <ele>619.59997558594</ele>
        <time>2011-05-08T08:40:06.000Z</time>
      </trkpt>
      <trkpt lat="43.84144" lon="7.04905">
        <ele>618.79998779297</ele>
        <time>2011-05-08T08:40:08.000Z</time>
      </trkpt>
      <trkpt lat="43.84146" lon="7.04913">
        <ele>618.20001220703</ele>
        <time>2011-05-08T08:40:11.000Z</time>
      </trkpt>
      <trkpt lat="43.84146" lon="7.04916">
        <ele>617.79998779297</ele>
        <time>2011-05-08T08:40:12.000Z</time>
      </trkpt>
      <trkpt lat="43.84147" lon="7.04934">
        <ele>613.59997558594</ele>
        <time>2011-05-08T08:40:18.000Z</time>
      </trkpt>
      <trkpt lat="43.84151" lon="7.04937">
        <ele>612.40002441406</ele>
        <time>2011-05-08T08:40:20.000Z</time>
      </trkpt>
      <trkpt lat="43.84154" lon="7.04937">
        <ele>612</ele>
        <time>2011-05-08T08:40:21.000Z</time>
      </trkpt>
      <trkpt lat="43.84165" lon="7.0493">
        <ele>611.40002441406</ele>
        <time>2011-05-08T08:40:24.000Z</time>
      </trkpt>
      <trkpt lat="43.84169" lon="7.04928">
        <ele>611.40002441406</ele>
        <time>2011-05-08T08:40:25.000Z</time>
      </trkpt>
      <trkpt lat="43.84188" lon="7.04921">
        <ele>611.59997558594</ele>
        <time>2011-05-08T08:40:29.000Z</time>
      </trkpt>
      <trkpt lat="43.84196" lon="7.04918">
        <ele>611.59997558594</ele>
        <time>2011-05-08T08:40:31.000Z</time>
      </trkpt>
      <trkpt lat="43.84209" lon="7.04913">
        <ele>611</ele>
        <time>2011-05-08T08:40:34.000Z</time>
      </trkpt>
      <trkpt lat="43.84216" lon="7.04909">
        <ele>610.59997558594</ele>
        <time>2011-05-08T08:40:36.000Z</time>
      </trkpt>
      <trkpt lat="43.8422" lon="7.04907">
        <ele>610.40002441406</ele>
        <time>2011-05-08T08:40:37.000Z</time>
      </trkpt>
      <trkpt lat="43.84228" lon="7.04904">
        <ele>609.79998779297</ele>
        <time>2011-05-08T08:40:39.000Z</time>
      </trkpt>
      <trkpt lat="43.84232" lon="7.04901">
        <ele>609.79998779297</ele>
        <time>2011-05-08T08:40:40.000Z</time>
      </trkpt>
      <trkpt lat="43.84237" lon="7.04896">
        <ele>609.59997558594</ele>
        <time>2011-05-08T08:40:42.000Z</time>
      </trkpt>
      <trkpt lat="43.84246" lon="7.04891">
        <ele>609</ele>
        <time>2011-05-08T08:40:45.000Z</time>
      </trkpt>
      <trkpt lat="43.8425" lon="7.04891">
        <ele>608.79998779297</ele>
        <time>2011-05-08T08:40:46.000Z</time>
      </trkpt>
      <trkpt lat="43.84265" lon="7.04893">
        <ele>611.59997558594</ele>
        <time>2011-05-08T08:40:51.000Z</time>
      </trkpt>
      <trkpt lat="43.84268" lon="7.04892">
        <ele>612.20001220703</ele>
        <time>2011-05-08T08:40:52.000Z</time>
      </trkpt>
      <trkpt lat="43.84271" lon="7.04891">
        <ele>612.79998779297</ele>
        <time>2011-05-08T08:40:55.000Z</time>
      </trkpt>
      <trkpt lat="43.84276" lon="7.04889">
        <ele>613.79998779297</ele>
        <time>2011-05-08T08:41:04.000Z</time>
      </trkpt>
      <trkpt lat="43.84279" lon="7.0488">
        <ele>615.20001220703</ele>
        <time>2011-05-08T08:41:08.000Z</time>
      </trkpt>
      <trkpt lat="43.84286" lon="7.04855">
        <ele>618.59997558594</ele>
        <time>2011-05-08T08:41:14.000Z</time>
      </trkpt>
      <trkpt lat="43.84291" lon="7.04829">
        <ele>621.40002441406</ele>
        <time>2011-05-08T08:41:20.000Z</time>
      </trkpt>
      <trkpt lat="43.84293" lon="7.04822">
        <ele>621.59997558594</ele>
        <time>2011-05-08T08:41:22.000Z</time>
      </trkpt>
      <trkpt lat="43.84298" lon="7.04803">
        <ele>622</ele>
        <time>2011-05-08T08:41:27.000Z</time>
      </trkpt>
      <trkpt lat="43.84303" lon="7.04789">
        <ele>622.59997558594</ele>
        <time>2011-05-08T08:41:31.000Z</time>
      </trkpt>
      <trkpt lat="43.84305" lon="7.0478">
        <ele>622.79998779297</ele>
        <time>2011-05-08T08:41:34.000Z</time>
      </trkpt>
      <trkpt lat="43.84308" lon="7.04769">
        <ele>623.59997558594</ele>
        <time>2011-05-08T08:41:37.000Z</time>
      </trkpt>
      <trkpt lat="43.84313" lon="7.04755">
        <ele>624.40002441406</ele>
        <time>2011-05-08T08:41:41.000Z</time>
      </trkpt>
      <trkpt lat="43.84317" lon="7.04736">
        <ele>624.79998779297</ele>
        <time>2011-05-08T08:41:46.000Z</time>
      </trkpt>
      <trkpt lat="43.8432" lon="7.04728">
        <ele>625</ele>
        <time>2011-05-08T08:41:48.000Z</time>
      </trkpt>
      <trkpt lat="43.84326" lon="7.04706">
        <ele>625.59997558594</ele>
        <time>2011-05-08T08:41:54.000Z</time>
      </trkpt>
      <trkpt lat="43.84327" lon="7.04702">
        <ele>625.59997558594</ele>
        <time>2011-05-08T08:41:55.000Z</time>
      </trkpt>
      <trkpt lat="43.84334" lon="7.0468">
        <ele>626.20001220703</ele>
        <time>2011-05-08T08:42:01.000Z</time>
      </trkpt>
      <trkpt lat="43.84335" lon="7.04677">
        <ele>626.40002441406</ele>
        <time>2011-05-08T08:42:02.000Z</time>
      </trkpt>
      <trkpt lat="43.84343" lon="7.04656">
        <ele>628.20001220703</ele>
        <time>2011-05-08T08:42:09.000Z</time>
      </trkpt>
      <trkpt lat="43.84345" lon="7.04653">
        <ele>628.59997558594</ele>
        <time>2011-05-08T08:42:10.000Z</time>
      </trkpt>
      <trkpt lat="43.84355" lon="7.04634">
        <ele>631</ele>
        <time>2011-05-08T08:42:17.000Z</time>
      </trkpt>
      <trkpt lat="43.84357" lon="7.04631">
        <ele>631.40002441406</ele>
        <time>2011-05-08T08:42:18.000Z</time>
      </trkpt>
      <trkpt lat="43.84366" lon="7.04613">
        <ele>633.20001220703</ele>
        <time>2011-05-08T08:42:24.000Z</time>
      </trkpt>
      <trkpt lat="43.84368" lon="7.0461">
        <ele>633.40002441406</ele>
        <time>2011-05-08T08:42:25.000Z</time>
      </trkpt>
      <trkpt lat="43.84378" lon="7.04588">
        <ele>634.79998779297</ele>
        <time>2011-05-08T08:42:32.000Z</time>
      </trkpt>
      <trkpt lat="43.84388" lon="7.04566">
        <ele>635.59997558594</ele>
        <time>2011-05-08T08:42:39.000Z</time>
      </trkpt>
      <trkpt lat="43.84391" lon="7.04559">
        <ele>635.79998779297</ele>
        <time>2011-05-08T08:42:41.000Z</time>
      </trkpt>
      <trkpt lat="43.84393" lon="7.04558">
        <ele>636.40002441406</ele>
        <time>2011-05-08T08:42:42.000Z</time>
      </trkpt>
      <trkpt lat="43.84398" lon="7.04559">
        <ele>638.40002441406</ele>
        <time>2011-05-08T08:42:44.000Z</time>
      </trkpt>
      <trkpt lat="43.844" lon="7.04569">
        <ele>640.59997558594</ele>
        <time>2011-05-08T08:42:47.000Z</time>
      </trkpt>
      <trkpt lat="43.84398" lon="7.04576">
        <ele>641</ele>
        <time>2011-05-08T08:42:49.000Z</time>
      </trkpt>
      <trkpt lat="43.84394" lon="7.04593">
        <ele>641.59997558594</ele>
        <time>2011-05-08T08:42:54.000Z</time>
      </trkpt>
      <trkpt lat="43.84394" lon="7.04596">
        <ele>641.79998779297</ele>
        <time>2011-05-08T08:42:55.000Z</time>
      </trkpt>
      <trkpt lat="43.8439" lon="7.04619">
        <ele>643.59997558594</ele>
        <time>2011-05-08T08:43:02.000Z</time>
      </trkpt>
      <trkpt lat="43.84391" lon="7.0462">
        <ele>644.20001220703</ele>
        <time>2011-05-08T08:43:03.000Z</time>
      </trkpt>
      <trkpt lat="43.84394" lon="7.04617">
        <ele>645</ele>
        <time>2011-05-08T08:43:05.000Z</time>
      </trkpt>
      <trkpt lat="43.84397" lon="7.04607">
        <ele>644.79998779297</ele>
        <time>2011-05-08T08:43:09.000Z</time>
      </trkpt>
      <trkpt lat="43.84398" lon="7.04604">
        <ele>644.79998779297</ele>
        <time>2011-05-08T08:43:10.000Z</time>
      </trkpt>
      <trkpt lat="43.844" lon="7.04599">
        <ele>644.59997558594</ele>
        <time>2011-05-08T08:43:12.000Z</time>
      </trkpt>
      <trkpt lat="43.84404" lon="7.04586">
        <ele>644.40002441406</ele>
        <time>2011-05-08T08:43:17.000Z</time>
      </trkpt>
      <trkpt lat="43.84408" lon="7.04576">
        <ele>644.40002441406</ele>
        <time>2011-05-08T08:43:21.000Z</time>
      </trkpt>
      <trkpt lat="43.8441" lon="7.04567">
        <ele>644.20001220703</ele>
        <time>2011-05-08T08:43:24.000Z</time>
      </trkpt>
      <trkpt lat="43.84415" lon="7.04551">
        <ele>644</ele>
        <time>2011-05-08T08:43:29.000Z</time>
      </trkpt>
      <trkpt lat="43.84419" lon="7.0454">
        <ele>644.20001220703</ele>
        <time>2011-05-08T08:43:32.000Z</time>
      </trkpt>
      <trkpt lat="43.84423" lon="7.04528">
        <ele>644.79998779297</ele>
        <time>2011-05-08T08:43:35.000Z</time>
      </trkpt>
      <trkpt lat="43.84428" lon="7.04515">
        <ele>645.59997558594</ele>
        <time>2011-05-08T08:43:38.000Z</time>
      </trkpt>
      <trkpt lat="43.84432" lon="7.04506">
        <ele>646.40002441406</ele>
        <time>2011-05-08T08:43:40.000Z</time>
      </trkpt>
      <trkpt lat="43.8444" lon="7.04482">
        <ele>646.40002441406</ele>
        <time>2011-05-08T08:43:44.000Z</time>
      </trkpt>
      <trkpt lat="43.84446" lon="7.04454">
        <ele>644.40002441406</ele>
        <time>2011-05-08T08:43:48.000Z</time>
      </trkpt>
      <trkpt lat="43.84451" lon="7.04432">
        <ele>642.79998779297</ele>
        <time>2011-05-08T08:43:51.000Z</time>
      </trkpt>
      <trkpt lat="43.84453" lon="7.04424">
        <ele>642.20001220703</ele>
        <time>2011-05-08T08:43:52.000Z</time>
      </trkpt>
      <trkpt lat="43.84459" lon="7.04401">
        <ele>640.40002441406</ele>
        <time>2011-05-08T08:43:55.000Z</time>
      </trkpt>
      <trkpt lat="43.84463" lon="7.04386">
        <ele>638.79998779297</ele>
        <time>2011-05-08T08:43:57.000Z</time>
      </trkpt>
      <trkpt lat="43.84467" lon="7.04372">
        <ele>638</ele>
        <time>2011-05-08T08:43:59.000Z</time>
      </trkpt>
      <trkpt lat="43.84478" lon="7.04355">
        <ele>639</ele>
        <time>2011-05-08T08:44:02.000Z</time>
      </trkpt>
      <trkpt lat="43.84483" lon="7.0435">
        <ele>639.79998779297</ele>
        <time>2011-05-08T08:44:03.000Z</time>
      </trkpt>
      <trkpt lat="43.84497" lon="7.04336">
        <ele>642.20001220703</ele>
        <time>2011-05-08T08:44:06.000Z</time>
      </trkpt>
      <trkpt lat="43.84501" lon="7.04329">
        <ele>643.20001220703</ele>
        <time>2011-05-08T08:44:07.000Z</time>
      </trkpt>
      <trkpt lat="43.84512" lon="7.04307">
        <ele>648.40002441406</ele>
        <time>2011-05-08T08:44:10.000Z</time>
      </trkpt>
      <trkpt lat="43.84514" lon="7.04299">
        <ele>649.20001220703</ele>
        <time>2011-05-08T08:44:11.000Z</time>
      </trkpt>
      <trkpt lat="43.84517" lon="7.04284">
        <ele>650</ele>
        <time>2011-05-08T08:44:13.000Z</time>
      </trkpt>
      <trkpt lat="43.84518" lon="7.04277">
        <ele>650.20001220703</ele>
        <time>2011-05-08T08:44:14.000Z</time>
      </trkpt>
      <trkpt lat="43.84519" lon="7.0427">
        <ele>649.79998779297</ele>
        <time>2011-05-08T08:44:15.000Z</time>
      </trkpt>
      <trkpt lat="43.84518" lon="7.04252">
        <ele>647.79998779297</ele>
        <time>2011-05-08T08:44:18.000Z</time>
      </trkpt>
      <trkpt lat="43.84516" lon="7.0424">
        <ele>646</ele>
        <time>2011-05-08T08:44:20.000Z</time>
      </trkpt>
      <trkpt lat="43.84514" lon="7.04236">
        <ele>644.40002441406</ele>
        <time>2011-05-08T08:44:21.000Z</time>
      </trkpt>
      <trkpt lat="43.84511" lon="7.04226">
        <ele>641.40002441406</ele>
        <time>2011-05-08T08:44:23.000Z</time>
      </trkpt>
      <trkpt lat="43.84505" lon="7.0421">
        <ele>637</ele>
        <time>2011-05-08T08:44:26.000Z</time>
      </trkpt>
      <trkpt lat="43.84504" lon="7.04204">
        <ele>636</ele>
        <time>2011-05-08T08:44:27.000Z</time>
      </trkpt>
      <trkpt lat="43.84504" lon="7.04198">
        <ele>635.59997558594</ele>
        <time>2011-05-08T08:44:28.000Z</time>
      </trkpt>
      <trkpt lat="43.84505" lon="7.0418">
        <ele>636</ele>
        <time>2011-05-08T08:44:31.000Z</time>
      </trkpt>
      <trkpt lat="43.84507" lon="7.04168">
        <ele>636.40002441406</ele>
        <time>2011-05-08T08:44:33.000Z</time>
      </trkpt>
      <trkpt lat="43.84513" lon="7.04144">
        <ele>636.59997558594</ele>
        <time>2011-05-08T08:44:37.000Z</time>
      </trkpt>
      <trkpt lat="43.84524" lon="7.04124">
        <ele>640.20001220703</ele>
        <time>2011-05-08T08:44:42.000Z</time>
      </trkpt>
      <trkpt lat="43.84535" lon="7.04105">
        <ele>644.20001220703</ele>
        <time>2011-05-08T08:44:49.000Z</time>
      </trkpt>
      <trkpt lat="43.84537" lon="7.04104">
        <ele>645.40002441406</ele>
        <time>2011-05-08T08:44:50.000Z</time>
      </trkpt>
      <trkpt lat="43.84543" lon="7.04107">
        <ele>649.40002441406</ele>
        <time>2011-05-08T08:44:53.000Z</time>
      </trkpt>
      <trkpt lat="43.8454" lon="7.04118">
        <ele>649.40002441406</ele>
        <time>2011-05-08T08:44:58.000Z</time>
      </trkpt>
      <trkpt lat="43.84538" lon="7.04123">
        <ele>648.59997558594</ele>
        <time>2011-05-08T08:45:00.000Z</time>
      </trkpt>
      <trkpt lat="43.84534" lon="7.04133">
        <ele>647.79998779297</ele>
        <time>2011-05-08T08:45:05.000Z</time>
      </trkpt>
      <trkpt lat="43.84532" lon="7.0414">
        <ele>647.59997558594</ele>
        <time>2011-05-08T08:45:09.000Z</time>
      </trkpt>
      <trkpt lat="43.84532" lon="7.04143">
        <ele>648</ele>
        <time>2011-05-08T08:45:10.000Z</time>
      </trkpt>
      <trkpt lat="43.84531" lon="7.04147">
        <ele>648.40002441406</ele>
        <time>2011-05-08T08:45:12.000Z</time>
      </trkpt>
      <trkpt lat="43.84529" lon="7.0416">
        <ele>649.20001220703</ele>
        <time>2011-05-08T08:45:18.000Z</time>
      </trkpt>
      <trkpt lat="43.84529" lon="7.04172">
        <ele>650.40002441406</ele>
        <time>2011-05-08T08:45:23.000Z</time>
      </trkpt>
      <trkpt lat="43.84529" lon="7.04177">
        <ele>650.79998779297</ele>
        <time>2011-05-08T08:45:25.000Z</time>
      </trkpt>
      <trkpt lat="43.84529" lon="7.04197">
        <ele>652</ele>
        <time>2011-05-08T08:45:33.000Z</time>
      </trkpt>
      <trkpt lat="43.84533" lon="7.04218">
        <ele>656.20001220703</ele>
        <time>2011-05-08T08:45:41.000Z</time>
      </trkpt>
      <trkpt lat="43.84535" lon="7.04223">
        <ele>658</ele>
        <time>2011-05-08T08:45:43.000Z</time>
      </trkpt>
      <trkpt lat="43.84541" lon="7.04236">
        <ele>663</ele>
        <time>2011-05-08T08:45:49.000Z</time>
      </trkpt>
      <trkpt lat="43.84545" lon="7.04246">
        <ele>666</ele>
        <time>2011-05-08T08:45:53.000Z</time>
      </trkpt>
      <trkpt lat="43.84548" lon="7.04255">
        <ele>669</ele>
        <time>2011-05-08T08:45:57.000Z</time>
      </trkpt>
      <trkpt lat="43.84552" lon="7.0427">
        <ele>672.79998779297</ele>
        <time>2011-05-08T08:46:03.000Z</time>
      </trkpt>
      <trkpt lat="43.84553" lon="7.04277">
        <ele>674.40002441406</ele>
        <time>2011-05-08T08:46:06.000Z</time>
      </trkpt>
      <trkpt lat="43.84556" lon="7.04295">
        <ele>677.59997558594</ele>
        <time>2011-05-08T08:46:13.000Z</time>
      </trkpt>
      <trkpt lat="43.84558" lon="7.04312">
        <ele>680</ele>
        <time>2011-05-08T08:46:20.000Z</time>
      </trkpt>
      <trkpt lat="43.84557" lon="7.04321">
        <ele>679.79998779297</ele>
        <time>2011-05-08T08:46:24.000Z</time>
      </trkpt>
      <trkpt lat="43.84555" lon="7.04326">
        <ele>678.79998779297</ele>
        <time>2011-05-08T08:46:27.000Z</time>
      </trkpt>
      <trkpt lat="43.84552" lon="7.04339">
        <ele>678.59997558594</ele>
        <time>2011-05-08T08:46:34.000Z</time>
      </trkpt>
      <trkpt lat="43.84551" lon="7.04346">
        <ele>678.59997558594</ele>
        <time>2011-05-08T08:46:37.000Z</time>
      </trkpt>
      <trkpt lat="43.84548" lon="7.04356">
        <ele>678.79998779297</ele>
        <time>2011-05-08T08:46:42.000Z</time>
      </trkpt>
      <trkpt lat="43.84543" lon="7.04369">
        <ele>678.20001220703</ele>
        <time>2011-05-08T08:46:49.000Z</time>
      </trkpt>
      <trkpt lat="43.84542" lon="7.04371">
        <ele>678</ele>
        <time>2011-05-08T08:46:50.000Z</time>
      </trkpt>
      <trkpt lat="43.84539" lon="7.04381">
        <ele>677.59997558594</ele>
        <time>2011-05-08T08:46:56.000Z</time>
      </trkpt>
      <trkpt lat="43.84535" lon="7.04389">
        <ele>676.79998779297</ele>
        <time>2011-05-08T08:47:02.000Z</time>
      </trkpt>
      <trkpt lat="43.84534" lon="7.04391">
        <ele>676.59997558594</ele>
        <time>2011-05-08T08:47:03.000Z</time>
      </trkpt>
      <trkpt lat="43.84531" lon="7.04401">
        <ele>676.59997558594</ele>
        <time>2011-05-08T08:47:09.000Z</time>
      </trkpt>
      <trkpt lat="43.84528" lon="7.04415">
        <ele>677.40002441406</ele>
        <time>2011-05-08T08:47:16.000Z</time>
      </trkpt>
      <trkpt lat="43.84527" lon="7.04422">
        <ele>678.40002441406</ele>
        <time>2011-05-08T08:47:19.000Z</time>
      </trkpt>
      <trkpt lat="43.84525" lon="7.04437">
        <ele>679.79998779297</ele>
        <time>2011-05-08T08:47:26.000Z</time>
      </trkpt>
      <trkpt lat="43.84524" lon="7.04441">
        <ele>680.59997558594</ele>
        <time>2011-05-08T08:47:28.000Z</time>
      </trkpt>
      <trkpt lat="43.84523" lon="7.04456">
        <ele>682.59997558594</ele>
        <time>2011-05-08T08:47:35.000Z</time>
      </trkpt>
      <trkpt lat="43.84522" lon="7.04467">
        <ele>684.20001220703</ele>
        <time>2011-05-08T08:47:40.000Z</time>
      </trkpt>
      <trkpt lat="43.84521" lon="7.04474">
        <ele>685</ele>
        <time>2011-05-08T08:47:43.000Z</time>
      </trkpt>
      <trkpt lat="43.84519" lon="7.04492">
        <ele>687.20001220703</ele>
        <time>2011-05-08T08:47:51.000Z</time>
      </trkpt>
      <trkpt lat="43.84518" lon="7.04495">
        <ele>687.59997558594</ele>
        <time>2011-05-08T08:47:52.000Z</time>
      </trkpt>
      <trkpt lat="43.84516" lon="7.04512">
        <ele>689.40002441406</ele>
        <time>2011-05-08T08:48:00.000Z</time>
      </trkpt>
      <trkpt lat="43.84515" lon="7.04519">
        <ele>690.40002441406</ele>
        <time>2011-05-08T08:48:03.000Z</time>
      </trkpt>
      <trkpt lat="43.84514" lon="7.04534">
        <ele>692.59997558594</ele>
        <time>2011-05-08T08:48:10.000Z</time>
      </trkpt>
      <trkpt lat="43.84513" lon="7.04546">
        <ele>694.20001220703</ele>
        <time>2011-05-08T08:48:15.000Z</time>
      </trkpt>
      <trkpt lat="43.84513" lon="7.04548">
        <ele>694.40002441406</ele>
        <time>2011-05-08T08:48:16.000Z</time>
      </trkpt>
      <trkpt lat="43.84509" lon="7.04569">
        <ele>696</ele>
        <time>2011-05-08T08:48:25.000Z</time>
      </trkpt>
      <trkpt lat="43.84508" lon="7.04571">
        <ele>696</ele>
        <time>2011-05-08T08:48:26.000Z</time>
      </trkpt>
      <trkpt lat="43.84503" lon="7.04595">
        <ele>697.40002441406</ele>
        <time>2011-05-08T08:48:36.000Z</time>
      </trkpt>
      <trkpt lat="43.84499" lon="7.04611">
        <ele>697.59997558594</ele>
        <time>2011-05-08T08:48:43.000Z</time>
      </trkpt>
      <trkpt lat="43.84498" lon="7.04619">
        <ele>698.20001220703</ele>
        <time>2011-05-08T08:48:46.000Z</time>
      </trkpt>
      <trkpt lat="43.84497" lon="7.04629">
        <ele>699.20001220703</ele>
        <time>2011-05-08T08:48:50.000Z</time>
      </trkpt>
      <trkpt lat="43.84494" lon="7.04644">
        <ele>700.40002441406</ele>
        <time>2011-05-08T08:48:55.000Z</time>
      </trkpt>
      <trkpt lat="43.84493" lon="7.04649">
        <ele>700.59997558594</ele>
        <time>2011-05-08T08:48:57.000Z</time>
      </trkpt>
      <trkpt lat="43.84489" lon="7.04668">
        <ele>701.20001220703</ele>
        <time>2011-05-08T08:49:03.000Z</time>
      </trkpt>
      <trkpt lat="43.84488" lon="7.04678">
        <ele>701.40002441406</ele>
        <time>2011-05-08T08:49:06.000Z</time>
      </trkpt>
      <trkpt lat="43.84485" lon="7.04694">
        <ele>701.40002441406</ele>
        <time>2011-05-08T08:49:11.000Z</time>
      </trkpt>
      <trkpt lat="43.84484" lon="7.047">
        <ele>701.20001220703</ele>
        <time>2011-05-08T08:49:13.000Z</time>
      </trkpt>
      <trkpt lat="43.8448" lon="7.04721">
        <ele>701.40002441406</ele>
        <time>2011-05-08T08:49:19.000Z</time>
      </trkpt>
      <trkpt lat="43.8448" lon="7.04725">
        <ele>701.40002441406</ele>
        <time>2011-05-08T08:49:20.000Z</time>
      </trkpt>
      <trkpt lat="43.84476" lon="7.0475">
        <ele>701.40002441406</ele>
        <time>2011-05-08T08:49:26.000Z</time>
      </trkpt>
      <trkpt lat="43.84474" lon="7.04764">
        <ele>701</ele>
        <time>2011-05-08T08:49:29.000Z</time>
      </trkpt>
      <trkpt lat="43.84474" lon="7.04778">
        <ele>701</ele>
        <time>2011-05-08T08:49:32.000Z</time>
      </trkpt>
      <trkpt lat="43.84475" lon="7.04796">
        <ele>701.40002441406</ele>
        <time>2011-05-08T08:49:36.000Z</time>
      </trkpt>
      <trkpt lat="43.84475" lon="7.04803">
        <ele>702</ele>
        <time>2011-05-08T08:49:38.000Z</time>
      </trkpt>
      <trkpt lat="43.84479" lon="7.04826">
        <ele>704.40002441406</ele>
        <time>2011-05-08T08:49:44.000Z</time>
      </trkpt>
      <trkpt lat="43.8448" lon="7.04829">
        <ele>704.79998779297</ele>
        <time>2011-05-08T08:49:45.000Z</time>
      </trkpt>
      <trkpt lat="43.84486" lon="7.04851">
        <ele>705.79998779297</ele>
        <time>2011-05-08T08:49:51.000Z</time>
      </trkpt>
      <trkpt lat="43.84487" lon="7.04854">
        <ele>705.79998779297</ele>
        <time>2011-05-08T08:49:52.000Z</time>
      </trkpt>
      <trkpt lat="43.84492" lon="7.04877">
        <ele>705.40002441406</ele>
        <time>2011-05-08T08:49:58.000Z</time>
      </trkpt>
      <trkpt lat="43.84493" lon="7.0488">
        <ele>705.59997558594</ele>
        <time>2011-05-08T08:49:59.000Z</time>
      </trkpt>
      <trkpt lat="43.84501" lon="7.04905">
        <ele>706.20001220703</ele>
        <time>2011-05-08T08:50:06.000Z</time>
      </trkpt>
      <trkpt lat="43.84502" lon="7.04908">
        <ele>706.20001220703</ele>
        <time>2011-05-08T08:50:07.000Z</time>
      </trkpt>
      <trkpt lat="43.84506" lon="7.04933">
        <ele>703.59997558594</ele>
        <time>2011-05-08T08:50:13.000Z</time>
      </trkpt>
      <trkpt lat="43.8451" lon="7.0496">
        <ele>699.59997558594</ele>
        <time>2011-05-08T08:50:17.000Z</time>
      </trkpt>
      <trkpt lat="43.84511" lon="7.04968">
        <ele>698.79998779297</ele>
        <time>2011-05-08T08:50:18.000Z</time>
      </trkpt>
      <trkpt lat="43.84518" lon="7.04989">
        <ele>697.79998779297</ele>
        <time>2011-05-08T08:50:21.000Z</time>
      </trkpt>
      <trkpt lat="43.84523" lon="7.05004">
        <ele>697</ele>
        <time>2011-05-08T08:50:23.000Z</time>
      </trkpt>
      <trkpt lat="43.84526" lon="7.05012">
        <ele>696.79998779297</ele>
        <time>2011-05-08T08:50:24.000Z</time>
      </trkpt>
      <trkpt lat="43.84535" lon="7.05037">
        <ele>695.79998779297</ele>
        <time>2011-05-08T08:50:27.000Z</time>
      </trkpt>
      <trkpt lat="43.84538" lon="7.05047">
        <ele>695</ele>
        <time>2011-05-08T08:50:28.000Z</time>
      </trkpt>
      <trkpt lat="43.84543" lon="7.05067">
        <ele>693</ele>
        <time>2011-05-08T08:50:30.000Z</time>
      </trkpt>
      <trkpt lat="43.84549" lon="7.05097">
        <ele>689.59997558594</ele>
        <time>2011-05-08T08:50:33.000Z</time>
      </trkpt>
      <trkpt lat="43.8455" lon="7.05107">
        <ele>688.40002441406</ele>
        <time>2011-05-08T08:50:34.000Z</time>
      </trkpt>
      <trkpt lat="43.84552" lon="7.05129">
        <ele>685</ele>
        <time>2011-05-08T08:50:36.000Z</time>
      </trkpt>
      <trkpt lat="43.84554" lon="7.0516">
        <ele>679.40002441406</ele>
        <time>2011-05-08T08:50:39.000Z</time>
      </trkpt>
      <trkpt lat="43.84555" lon="7.0517">
        <ele>677.79998779297</ele>
        <time>2011-05-08T08:50:40.000Z</time>
      </trkpt>
      <trkpt lat="43.84556" lon="7.05179">
        <ele>676.40002441406</ele>
        <time>2011-05-08T08:50:41.000Z</time>
      </trkpt>
      <trkpt lat="43.84559" lon="7.05188">
        <ele>675.59997558594</ele>
        <time>2011-05-08T08:50:42.000Z</time>
      </trkpt>
      <trkpt lat="43.84566" lon="7.05207">
        <ele>675</ele>
        <time>2011-05-08T08:50:44.000Z</time>
      </trkpt>
      <trkpt lat="43.84571" lon="7.05216">
        <ele>675.40002441406</ele>
        <time>2011-05-08T08:50:45.000Z</time>
      </trkpt>
      <trkpt lat="43.84584" lon="7.05245">
        <ele>675.40002441406</ele>
        <time>2011-05-08T08:50:48.000Z</time>
      </trkpt>
      <trkpt lat="43.84592" lon="7.05263">
        <ele>674.20001220703</ele>
        <time>2011-05-08T08:50:50.000Z</time>
      </trkpt>
      <trkpt lat="43.84596" lon="7.05272">
        <ele>674</ele>
        <time>2011-05-08T08:50:51.000Z</time>
      </trkpt>
      <trkpt lat="43.846" lon="7.05281">
        <ele>673.59997558594</ele>
        <time>2011-05-08T08:50:52.000Z</time>
      </trkpt>
      <trkpt lat="43.84605" lon="7.053">
        <ele>672</ele>
        <time>2011-05-08T08:50:54.000Z</time>
      </trkpt>
      <trkpt lat="43.84611" lon="7.05333">
        <ele>668.40002441406</ele>
        <time>2011-05-08T08:50:57.000Z</time>
      </trkpt>
      <trkpt lat="43.84614" lon="7.05354">
        <ele>668.20001220703</ele>
        <time>2011-05-08T08:50:59.000Z</time>
      </trkpt>
      <trkpt lat="43.84615" lon="7.05361">
        <ele>668.20001220703</ele>
        <time>2011-05-08T08:51:00.000Z</time>
      </trkpt>
      <trkpt lat="43.84616" lon="7.05365">
        <ele>668.20001220703</ele>
        <time>2011-05-08T08:51:01.000Z</time>
      </trkpt>
      <trkpt lat="43.84617" lon="7.05366">
        <ele>668.40002441406</ele>
        <time>2011-05-08T08:51:02.000Z</time>
      </trkpt>
      <trkpt lat="43.84617" lon="7.05364">
        <ele>668.59997558594</ele>
        <time>2011-05-08T08:51:08.000Z</time>
      </trkpt>
      <trkpt lat="43.84616" lon="7.05358">
        <ele>668.79998779297</ele>
        <time>2011-05-08T08:51:17.000Z</time>
      </trkpt>
      <trkpt lat="43.84615" lon="7.0535">
        <ele>669</ele>
        <time>2011-05-08T08:51:23.000Z</time>
      </trkpt>
      <trkpt lat="43.84616" lon="7.0535">
        <ele>669.20001220703</ele>
        <time>2011-05-08T08:51:28.000Z</time>
      </trkpt>
      <trkpt lat="43.84615" lon="7.05354">
        <ele>668.79998779297</ele>
        <time>2011-05-08T08:51:31.000Z</time>
      </trkpt>
      <trkpt lat="43.84616" lon="7.05358">
        <ele>668.59997558594</ele>
        <time>2011-05-08T08:51:32.000Z</time>
      </trkpt>
      <trkpt lat="43.84616" lon="7.05379">
        <ele>666.59997558594</ele>
        <time>2011-05-08T08:51:36.000Z</time>
      </trkpt>
      <trkpt lat="43.84616" lon="7.05385">
        <ele>666.20001220703</ele>
        <time>2011-05-08T08:51:37.000Z</time>
      </trkpt>
      <trkpt lat="43.84616" lon="7.05394">
        <ele>665.79998779297</ele>
        <time>2011-05-08T08:51:40.000Z</time>
      </trkpt>
      <trkpt lat="43.84618" lon="7.05399">
        <ele>666</ele>
        <time>2011-05-08T08:51:44.000Z</time>
      </trkpt>
      <trkpt lat="43.84618" lon="7.054">
        <ele>666.20001220703</ele>
        <time>2011-05-08T08:51:45.000Z</time>
      </trkpt>
      <trkpt lat="43.84619" lon="7.05402">
        <ele>666.40002441406</ele>
        <time>2011-05-08T08:51:46.000Z</time>
      </trkpt>
      <trkpt lat="43.84619" lon="7.05405">
        <ele>666.20001220703</ele>
        <time>2011-05-08T08:51:48.000Z</time>
      </trkpt>
      <trkpt lat="43.84619" lon="7.05408">
        <ele>666.20001220703</ele>
        <time>2011-05-08T08:51:50.000Z</time>
      </trkpt>
      <trkpt lat="43.8462" lon="7.05409">
        <ele>666.20001220703</ele>
        <time>2011-05-08T08:51:51.000Z</time>
      </trkpt>
      <trkpt lat="43.8462" lon="7.05411">
        <ele>666.59997558594</ele>
        <time>2011-05-08T08:51:52.000Z</time>
      </trkpt>
      <trkpt lat="43.84621" lon="7.05415">
        <ele>666.79998779297</ele>
        <time>2011-05-08T08:51:55.000Z</time>
      </trkpt>
      <trkpt lat="43.84622" lon="7.05417">
        <ele>667.20001220703</ele>
        <time>2011-05-08T08:51:57.000Z</time>
      </trkpt>
      <trkpt lat="43.84623" lon="7.05423">
        <ele>667.40002441406</ele>
        <time>2011-05-08T08:52:01.000Z</time>
      </trkpt>
      <trkpt lat="43.84625" lon="7.0543">
        <ele>667.79998779297</ele>
        <time>2011-05-08T08:52:06.000Z</time>
      </trkpt>
      <trkpt lat="43.84626" lon="7.05436">
        <ele>668.59997558594</ele>
        <time>2011-05-08T08:52:11.000Z</time>
      </trkpt>
      <trkpt lat="43.84628" lon="7.05444">
        <ele>669.40002441406</ele>
        <time>2011-05-08T08:52:17.000Z</time>
      </trkpt>
      <trkpt lat="43.8463" lon="7.05451">
        <ele>670.20001220703</ele>
        <time>2011-05-08T08:52:22.000Z</time>
      </trkpt>
      <trkpt lat="43.8463" lon="7.05452">
        <ele>670.20001220703</ele>
        <time>2011-05-08T08:52:23.000Z</time>
      </trkpt>
      <trkpt lat="43.84631" lon="7.05453">
        <ele>670.20001220703</ele>
        <time>2011-05-08T08:52:24.000Z</time>
      </trkpt>
      <trkpt lat="43.84633" lon="7.05463">
        <ele>670.79998779297</ele>
        <time>2011-05-08T08:52:32.000Z</time>
      </trkpt>
      <trkpt lat="43.84635" lon="7.05477">
        <ele>671.79998779297</ele>
        <time>2011-05-08T08:52:41.000Z</time>
      </trkpt>
      <trkpt lat="43.84636" lon="7.05478">
        <ele>672</ele>
        <time>2011-05-08T08:52:42.000Z</time>
      </trkpt>
      <trkpt lat="43.84638" lon="7.05493">
        <ele>672.40002441406</ele>
        <time>2011-05-08T08:52:51.000Z</time>
      </trkpt>
      <trkpt lat="43.84637" lon="7.05496">
        <ele>672.20001220703</ele>
        <time>2011-05-08T08:52:55.000Z</time>
      </trkpt>
      <trkpt lat="43.84638" lon="7.05506">
        <ele>672.20001220703</ele>
        <time>2011-05-08T08:52:58.000Z</time>
      </trkpt>
      <trkpt lat="43.84639" lon="7.05513">
        <ele>672.40002441406</ele>
        <time>2011-05-08T08:53:00.000Z</time>
      </trkpt>
      <trkpt lat="43.8464" lon="7.05531">
        <ele>672.20001220703</ele>
        <time>2011-05-08T08:53:04.000Z</time>
      </trkpt>
      <trkpt lat="43.8464" lon="7.05543">
        <ele>671.79998779297</ele>
        <time>2011-05-08T08:53:06.000Z</time>
      </trkpt>
      <trkpt lat="43.8464" lon="7.05559">
        <ele>670.79998779297</ele>
        <time>2011-05-08T08:53:09.000Z</time>
      </trkpt>
      <trkpt lat="43.8464" lon="7.05571">
        <ele>670.20001220703</ele>
        <time>2011-05-08T08:53:11.000Z</time>
      </trkpt>
      <trkpt lat="43.8464" lon="7.05589">
        <ele>669.20001220703</ele>
        <time>2011-05-08T08:53:14.000Z</time>
      </trkpt>
      <trkpt lat="43.8464" lon="7.05596">
        <ele>668.59997558594</ele>
        <time>2011-05-08T08:53:15.000Z</time>
      </trkpt>
      <trkpt lat="43.8464" lon="7.05609">
        <ele>667.79998779297</ele>
        <time>2011-05-08T08:53:17.000Z</time>
      </trkpt>
      <trkpt lat="43.8464" lon="7.05615">
        <ele>667.20001220703</ele>
        <time>2011-05-08T08:53:18.000Z</time>
      </trkpt>
      <trkpt lat="43.84636" lon="7.05627">
        <ele>663.79998779297</ele>
        <time>2011-05-08T08:53:20.000Z</time>
      </trkpt>
      <trkpt lat="43.84633" lon="7.05639">
        <ele>661</ele>
        <time>2011-05-08T08:53:22.000Z</time>
      </trkpt>
      <trkpt lat="43.84631" lon="7.05656">
        <ele>658.40002441406</ele>
        <time>2011-05-08T08:53:25.000Z</time>
      </trkpt>
      <trkpt lat="43.8463" lon="7.05665">
        <ele>657</ele>
        <time>2011-05-08T08:53:27.000Z</time>
      </trkpt>
      <trkpt lat="43.84628" lon="7.0568">
        <ele>655.79998779297</ele>
        <time>2011-05-08T08:53:31.000Z</time>
      </trkpt>
      <trkpt lat="43.84627" lon="7.05693">
        <ele>654.79998779297</ele>
        <time>2011-05-08T08:53:34.000Z</time>
      </trkpt>
      <trkpt lat="43.84626" lon="7.05703">
        <ele>654.20001220703</ele>
        <time>2011-05-08T08:53:36.000Z</time>
      </trkpt>
      <trkpt lat="43.84625" lon="7.05723">
        <ele>653.40002441406</ele>
        <time>2011-05-08T08:53:40.000Z</time>
      </trkpt>
      <trkpt lat="43.84625" lon="7.05734">
        <ele>653.20001220703</ele>
        <time>2011-05-08T08:53:42.000Z</time>
      </trkpt>
      <trkpt lat="43.84623" lon="7.05747">
        <ele>651.79998779297</ele>
        <time>2011-05-08T08:53:46.000Z</time>
      </trkpt>
      <trkpt lat="43.84623" lon="7.0575">
        <ele>651.79998779297</ele>
        <time>2011-05-08T08:53:47.000Z</time>
      </trkpt>
      <trkpt lat="43.84624" lon="7.05761">
        <ele>651</ele>
        <time>2011-05-08T08:53:50.000Z</time>
      </trkpt>
      <trkpt lat="43.84624" lon="7.0578">
        <ele>648.40002441406</ele>
        <time>2011-05-08T08:53:53.000Z</time>
      </trkpt>
      <trkpt lat="43.84624" lon="7.05793">
        <ele>646.79998779297</ele>
        <time>2011-05-08T08:53:55.000Z</time>
      </trkpt>
      <trkpt lat="43.84627" lon="7.05805">
        <ele>646.59997558594</ele>
        <time>2011-05-08T08:53:57.000Z</time>
      </trkpt>
      <trkpt lat="43.84632" lon="7.05825">
        <ele>647</ele>
        <time>2011-05-08T08:54:01.000Z</time>
      </trkpt>
      <trkpt lat="43.84633" lon="7.0583">
        <ele>647</ele>
        <time>2011-05-08T08:54:02.000Z</time>
      </trkpt>
      <trkpt lat="43.84639" lon="7.05851">
        <ele>647</ele>
        <time>2011-05-08T08:54:07.000Z</time>
      </trkpt>
      <trkpt lat="43.8464" lon="7.05855">
        <ele>647</ele>
        <time>2011-05-08T08:54:08.000Z</time>
      </trkpt>
      <trkpt lat="43.84644" lon="7.05868">
        <ele>646.79998779297</ele>
        <time>2011-05-08T08:54:11.000Z</time>
      </trkpt>
      <trkpt lat="43.84647" lon="7.05882">
        <ele>646</ele>
        <time>2011-05-08T08:54:14.000Z</time>
      </trkpt>
      <trkpt lat="43.84652" lon="7.05897">
        <ele>646.20001220703</ele>
        <time>2011-05-08T08:54:18.000Z</time>
      </trkpt>
      <trkpt lat="43.84654" lon="7.05906">
        <ele>646</ele>
        <time>2011-05-08T08:54:21.000Z</time>
      </trkpt>
      <trkpt lat="43.84657" lon="7.05915">
        <ele>645.79998779297</ele>
        <time>2011-05-08T08:54:24.000Z</time>
      </trkpt>
      <trkpt lat="43.8466" lon="7.0593">
        <ele>644.20001220703</ele>
        <time>2011-05-08T08:54:28.000Z</time>
      </trkpt>
      <trkpt lat="43.84661" lon="7.05937">
        <ele>643.59997558594</ele>
        <time>2011-05-08T08:54:30.000Z</time>
      </trkpt>
      <trkpt lat="43.84666" lon="7.05954">
        <ele>642.59997558594</ele>
        <time>2011-05-08T08:54:35.000Z</time>
      </trkpt>
      <trkpt lat="43.84674" lon="7.05976">
        <ele>637.59997558594</ele>
        <time>2011-05-08T08:54:41.000Z</time>
      </trkpt>
      <trkpt lat="43.84675" lon="7.05979">
        <ele>637</ele>
        <time>2011-05-08T08:54:42.000Z</time>
      </trkpt>
      <trkpt lat="43.84682" lon="7.05993">
        <ele>634.20001220703</ele>
        <time>2011-05-08T08:54:47.000Z</time>
      </trkpt>
      <trkpt lat="43.84686" lon="7.05999">
        <ele>633</ele>
        <time>2011-05-08T08:54:50.000Z</time>
      </trkpt>
      <trkpt lat="43.8469" lon="7.06006">
        <ele>632.40002441406</ele>
        <time>2011-05-08T08:54:54.000Z</time>
      </trkpt>
      <trkpt lat="43.84697" lon="7.06016">
        <ele>631.79998779297</ele>
        <time>2011-05-08T08:55:00.000Z</time>
      </trkpt>
      <trkpt lat="43.84698" lon="7.06019">
        <ele>631.79998779297</ele>
        <time>2011-05-08T08:55:01.000Z</time>
      </trkpt>
      <trkpt lat="43.84703" lon="7.06029">
        <ele>631.20001220703</ele>
        <time>2011-05-08T08:55:06.000Z</time>
      </trkpt>
      <trkpt lat="43.84705" lon="7.06032">
        <ele>631</ele>
        <time>2011-05-08T08:55:08.000Z</time>
      </trkpt>
      <trkpt lat="43.84706" lon="7.06034">
        <ele>631</ele>
        <time>2011-05-08T08:55:11.000Z</time>
      </trkpt>
      <trkpt lat="43.84708" lon="7.0604">
        <ele>630.79998779297</ele>
        <time>2011-05-08T08:55:16.000Z</time>
      </trkpt>
      <trkpt lat="43.84709" lon="7.06042">
        <ele>630.59997558594</ele>
        <time>2011-05-08T08:55:17.000Z</time>
      </trkpt>
      <trkpt lat="43.84711" lon="7.06047">
        <ele>630.59997558594</ele>
        <time>2011-05-08T08:55:20.000Z</time>
      </trkpt>
      <trkpt lat="43.84712" lon="7.06052">
        <ele>630.20001220703</ele>
        <time>2011-05-08T08:55:24.000Z</time>
      </trkpt>
      <trkpt lat="43.84717" lon="7.06065">
        <ele>630</ele>
        <time>2011-05-08T08:55:32.000Z</time>
      </trkpt>
      <trkpt lat="43.84721" lon="7.06076">
        <ele>629.79998779297</ele>
        <time>2011-05-08T08:55:39.000Z</time>
      </trkpt>
      <trkpt lat="43.84724" lon="7.06083">
        <ele>629.79998779297</ele>
        <time>2011-05-08T08:55:44.000Z</time>
      </trkpt>
      <trkpt lat="43.84724" lon="7.06085">
        <ele>629.59997558594</ele>
        <time>2011-05-08T08:55:45.000Z</time>
      </trkpt>
      <trkpt lat="43.84725" lon="7.06088">
        <ele>629.20001220703</ele>
        <time>2011-05-08T08:55:46.000Z</time>
      </trkpt>
      <trkpt lat="43.84728" lon="7.06101">
        <ele>628</ele>
        <time>2011-05-08T08:55:50.000Z</time>
      </trkpt>
      <trkpt lat="43.84731" lon="7.06096">
        <ele>629.20001220703</ele>
        <time>2011-05-08T08:55:53.000Z</time>
      </trkpt>
      <trkpt lat="43.84732" lon="7.06089">
        <ele>630.40002441406</ele>
        <time>2011-05-08T08:55:55.000Z</time>
      </trkpt>
      <trkpt lat="43.84734" lon="7.06086">
        <ele>631</ele>
        <time>2011-05-08T08:55:56.000Z</time>
      </trkpt>
      <trkpt lat="43.84736" lon="7.06079">
        <ele>631.79998779297</ele>
        <time>2011-05-08T08:55:58.000Z</time>
      </trkpt>
      <trkpt lat="43.8474" lon="7.06065">
        <ele>633</ele>
        <time>2011-05-08T08:56:02.000Z</time>
      </trkpt>
      <trkpt lat="43.8474" lon="7.06062">
        <ele>633.20001220703</ele>
        <time>2011-05-08T08:56:03.000Z</time>
      </trkpt>
      <trkpt lat="43.84741" lon="7.06053">
        <ele>633.59997558594</ele>
        <time>2011-05-08T08:56:06.000Z</time>
      </trkpt>
      <trkpt lat="43.84742" lon="7.0605">
        <ele>633.79998779297</ele>
        <time>2011-05-08T08:56:07.000Z</time>
      </trkpt>
      <trkpt lat="43.84747" lon="7.06041">
        <ele>634.59997558594</ele>
        <time>2011-05-08T08:56:10.000Z</time>
      </trkpt>
      <trkpt lat="43.84748" lon="7.06038">
        <ele>634.79998779297</ele>
        <time>2011-05-08T08:56:11.000Z</time>
      </trkpt>
      <trkpt lat="43.84753" lon="7.06023">
        <ele>633.40002441406</ele>
        <time>2011-05-08T08:56:16.000Z</time>
      </trkpt>
      <trkpt lat="43.84753" lon="7.06017">
        <ele>633</ele>
        <time>2011-05-08T08:56:18.000Z</time>
      </trkpt>
      <trkpt lat="43.84755" lon="7.06011">
        <ele>632.20001220703</ele>
        <time>2011-05-08T08:56:21.000Z</time>
      </trkpt>
      <trkpt lat="43.84756" lon="7.0601">
        <ele>631.59997558594</ele>
        <time>2011-05-08T08:56:22.000Z</time>
      </trkpt>
      <trkpt lat="43.84757" lon="7.06013">
        <ele>630.79998779297</ele>
        <time>2011-05-08T08:56:27.000Z</time>
      </trkpt>
      <trkpt lat="43.84758" lon="7.06016">
        <ele>630.20001220703</ele>
        <time>2011-05-08T08:56:33.000Z</time>
      </trkpt>
      <trkpt lat="43.84757" lon="7.06024">
        <ele>630.79998779297</ele>
        <time>2011-05-08T08:56:42.000Z</time>
      </trkpt>
      <trkpt lat="43.84758" lon="7.06029">
        <ele>630</ele>
        <time>2011-05-08T08:56:44.000Z</time>
      </trkpt>
      <trkpt lat="43.84759" lon="7.06038">
        <ele>628.59997558594</ele>
        <time>2011-05-08T08:56:46.000Z</time>
      </trkpt>
      <trkpt lat="43.84762" lon="7.06058">
        <ele>626.20001220703</ele>
        <time>2011-05-08T08:56:51.000Z</time>
      </trkpt>
      <trkpt lat="43.84767" lon="7.06085">
        <ele>622.79998779297</ele>
        <time>2011-05-08T08:56:56.000Z</time>
      </trkpt>
      <trkpt lat="43.8477" lon="7.06103">
        <ele>619.59997558594</ele>
        <time>2011-05-08T08:57:00.000Z</time>
      </trkpt>
      <trkpt lat="43.84772" lon="7.0611">
        <ele>618.40002441406</ele>
        <time>2011-05-08T08:57:02.000Z</time>
      </trkpt>
      <trkpt lat="43.84772" lon="7.0611">
        <ele>618.20001220703</ele>
        <time>2011-05-08T08:57:03.000Z</time>
      </trkpt>
      <trkpt lat="43.84772" lon="7.06106">
        <ele>618.40002441406</ele>
        <time>2011-05-08T08:57:09.000Z</time>
      </trkpt>
      <trkpt lat="43.84774" lon="7.06099">
        <ele>617.79998779297</ele>
        <time>2011-05-08T08:57:12.000Z</time>
      </trkpt>
      <trkpt lat="43.84775" lon="7.0609">
        <ele>617</ele>
        <time>2011-05-08T08:57:14.000Z</time>
      </trkpt>
      <trkpt lat="43.84776" lon="7.06084">
        <ele>616.59997558594</ele>
        <time>2011-05-08T08:57:15.000Z</time>
      </trkpt>
      <trkpt lat="43.84778" lon="7.06078">
        <ele>615.59997558594</ele>
        <time>2011-05-08T08:57:16.000Z</time>
      </trkpt>
      <trkpt lat="43.84781" lon="7.06057">
        <ele>613.40002441406</ele>
        <time>2011-05-08T08:57:19.000Z</time>
      </trkpt>
      <trkpt lat="43.84784" lon="7.06044">
        <ele>611.59997558594</ele>
        <time>2011-05-08T08:57:21.000Z</time>
      </trkpt>
      <trkpt lat="43.84785" lon="7.06038">
        <ele>611.20001220703</ele>
        <time>2011-05-08T08:57:22.000Z</time>
      </trkpt>
      <trkpt lat="43.84786" lon="7.06031">
        <ele>610.79998779297</ele>
        <time>2011-05-08T08:57:23.000Z</time>
      </trkpt>
      <trkpt lat="43.84786" lon="7.06026">
        <ele>610.59997558594</ele>
        <time>2011-05-08T08:57:24.000Z</time>
      </trkpt>
      <trkpt lat="43.84787" lon="7.06018">
        <ele>610.40002441406</ele>
        <time>2011-05-08T08:57:26.000Z</time>
      </trkpt>
      <trkpt lat="43.84788" lon="7.06005">
        <ele>609.20001220703</ele>
        <time>2011-05-08T08:57:29.000Z</time>
      </trkpt>
      <trkpt lat="43.8479" lon="7.05999">
        <ele>608.20001220703</ele>
        <time>2011-05-08T08:57:30.000Z</time>
      </trkpt>
      <trkpt lat="43.8479" lon="7.05976">
        <ele>609.20001220703</ele>
        <time>2011-05-08T08:57:34.000Z</time>
      </trkpt>
      <trkpt lat="43.8479" lon="7.05966">
        <ele>609.79998779297</ele>
        <time>2011-05-08T08:57:36.000Z</time>
      </trkpt>
      <trkpt lat="43.8479" lon="7.0595">
        <ele>610.79998779297</ele>
        <time>2011-05-08T08:57:39.000Z</time>
      </trkpt>
      <trkpt lat="43.8479" lon="7.0594">
        <ele>611.79998779297</ele>
        <time>2011-05-08T08:57:41.000Z</time>
      </trkpt>
      <trkpt lat="43.8479" lon="7.05924">
        <ele>612.40002441406</ele>
        <time>2011-05-08T08:57:44.000Z</time>
      </trkpt>
      <trkpt lat="43.84794" lon="7.05914">
        <ele>610</ele>
        <time>2011-05-08T08:57:46.000Z</time>
      </trkpt>
      <trkpt lat="43.84795" lon="7.05897">
        <ele>611.40002441406</ele>
        <time>2011-05-08T08:57:50.000Z</time>
      </trkpt>
      <trkpt lat="43.84796" lon="7.05883">
        <ele>611.79998779297</ele>
        <time>2011-05-08T08:57:53.000Z</time>
      </trkpt>
      <trkpt lat="43.84799" lon="7.05872">
        <ele>610</ele>
        <time>2011-05-08T08:57:55.000Z</time>
      </trkpt>
      <trkpt lat="43.84804" lon="7.05851">
        <ele>608</ele>
        <time>2011-05-08T08:57:59.000Z</time>
      </trkpt>
      <trkpt lat="43.84805" lon="7.05845">
        <ele>607.40002441406</ele>
        <time>2011-05-08T08:58:00.000Z</time>
      </trkpt>
      <trkpt lat="43.84808" lon="7.05827">
        <ele>607</ele>
        <time>2011-05-08T08:58:03.000Z</time>
      </trkpt>
      <trkpt lat="43.8481" lon="7.05822">
        <ele>605.59997558594</ele>
        <time>2011-05-08T08:58:04.000Z</time>
      </trkpt>
      <trkpt lat="43.84811" lon="7.05817">
        <ele>605.40002441406</ele>
        <time>2011-05-08T08:58:05.000Z</time>
      </trkpt>
      <trkpt lat="43.84816" lon="7.05803">
        <ele>602.40002441406</ele>
        <time>2011-05-08T08:58:08.000Z</time>
      </trkpt>
      <trkpt lat="43.84815" lon="7.058">
        <ele>603.20001220703</ele>
        <time>2011-05-08T08:58:09.000Z</time>
      </trkpt>
      <trkpt lat="43.84815" lon="7.05795">
        <ele>603.79998779297</ele>
        <time>2011-05-08T08:58:12.000Z</time>
      </trkpt>
      <trkpt lat="43.84815" lon="7.05795">
        <ele>603.59997558594</ele>
        <time>2011-05-08T08:58:13.000Z</time>
      </trkpt>
      <trkpt lat="43.84819" lon="7.05796">
        <ele>600.79998779297</ele>
        <time>2011-05-08T08:58:16.000Z</time>
      </trkpt>
      <trkpt lat="43.8482" lon="7.05798">
        <ele>599.40002441406</ele>
        <time>2011-05-08T08:58:17.000Z</time>
      </trkpt>
      <trkpt lat="43.84824" lon="7.05804">
        <ele>596.20001220703</ele>
        <time>2011-05-08T08:58:19.000Z</time>
      </trkpt>
      <trkpt lat="43.84828" lon="7.05821">
        <ele>591.79998779297</ele>
        <time>2011-05-08T08:58:23.000Z</time>
      </trkpt>
      <trkpt lat="43.84829" lon="7.05825">
        <ele>591</ele>
        <time>2011-05-08T08:58:24.000Z</time>
      </trkpt>
      <trkpt lat="43.84829" lon="7.05828">
        <ele>590.40002441406</ele>
        <time>2011-05-08T08:58:25.000Z</time>
      </trkpt>
      <trkpt lat="43.84831" lon="7.05844">
        <ele>588</ele>
        <time>2011-05-08T08:58:29.000Z</time>
      </trkpt>
      <trkpt lat="43.84831" lon="7.05849">
        <ele>587.59997558594</ele>
        <time>2011-05-08T08:58:30.000Z</time>
      </trkpt>
      <trkpt lat="43.84833" lon="7.05857">
        <ele>585.59997558594</ele>
        <time>2011-05-08T08:58:33.000Z</time>
      </trkpt>
      <trkpt lat="43.84834" lon="7.05858">
        <ele>585</ele>
        <time>2011-05-08T08:58:34.000Z</time>
      </trkpt>
      <trkpt lat="43.84835" lon="7.05855">
        <ele>584.40002441406</ele>
        <time>2011-05-08T08:58:37.000Z</time>
      </trkpt>
      <trkpt lat="43.84835" lon="7.05855">
        <ele>584.20001220703</ele>
        <time>2011-05-08T08:58:38.000Z</time>
      </trkpt>
      <trkpt lat="43.84836" lon="7.05853">
        <ele>584</ele>
        <time>2011-05-08T08:58:39.000Z</time>
      </trkpt>
      <trkpt lat="43.84839" lon="7.05841">
        <ele>582.59997558594</ele>
        <time>2011-05-08T08:58:43.000Z</time>
      </trkpt>
      <trkpt lat="43.84845" lon="7.05824">
        <ele>579.59997558594</ele>
        <time>2011-05-08T08:58:49.000Z</time>
      </trkpt>
      <trkpt lat="43.84848" lon="7.05816">
        <ele>577.79998779297</ele>
        <time>2011-05-08T08:58:51.000Z</time>
      </trkpt>
      <trkpt lat="43.84852" lon="7.05805">
        <ele>575.20001220703</ele>
        <time>2011-05-08T08:58:54.000Z</time>
      </trkpt>
      <trkpt lat="43.84854" lon="7.05791">
        <ele>574.40002441406</ele>
        <time>2011-05-08T08:58:58.000Z</time>
      </trkpt>
      <trkpt lat="43.84856" lon="7.05784">
        <ele>573.59997558594</ele>
        <time>2011-05-08T08:59:00.000Z</time>
      </trkpt>
      <trkpt lat="43.84858" lon="7.05777">
        <ele>572.40002441406</ele>
        <time>2011-05-08T08:59:03.000Z</time>
      </trkpt>
      <trkpt lat="43.84858" lon="7.05778">
        <ele>572.20001220703</ele>
        <time>2011-05-08T08:59:04.000Z</time>
      </trkpt>
      <trkpt lat="43.8486" lon="7.05788">
        <ele>570.20001220703</ele>
        <time>2011-05-08T08:59:08.000Z</time>
      </trkpt>
      <trkpt lat="43.84861" lon="7.05792">
        <ele>569.59997558594</ele>
        <time>2011-05-08T08:59:09.000Z</time>
      </trkpt>
      <trkpt lat="43.84865" lon="7.05809">
        <ele>566</ele>
        <time>2011-05-08T08:59:14.000Z</time>
      </trkpt>
      <trkpt lat="43.84866" lon="7.05811">
        <ele>565.20001220703</ele>
        <time>2011-05-08T08:59:16.000Z</time>
      </trkpt>
      <trkpt lat="43.84867" lon="7.05811">
        <ele>564.79998779297</ele>
        <time>2011-05-08T08:59:18.000Z</time>
      </trkpt>
      <trkpt lat="43.84866" lon="7.0581">
        <ele>565</ele>
        <time>2011-05-08T08:59:21.000Z</time>
      </trkpt>
      <trkpt lat="43.84867" lon="7.05809">
        <ele>565</ele>
        <time>2011-05-08T08:59:23.000Z</time>
      </trkpt>
      <trkpt lat="43.84868" lon="7.05803">
        <ele>564</ele>
        <time>2011-05-08T08:59:27.000Z</time>
      </trkpt>
      <trkpt lat="43.8487" lon="7.05798">
        <ele>563.20001220703</ele>
        <time>2011-05-08T08:59:29.000Z</time>
      </trkpt>
      <trkpt lat="43.84873" lon="7.05784">
        <ele>561.40002441406</ele>
        <time>2011-05-08T08:59:33.000Z</time>
      </trkpt>
      <trkpt lat="43.84873" lon="7.05779">
        <ele>561</ele>
        <time>2011-05-08T08:59:34.000Z</time>
      </trkpt>
      <trkpt lat="43.84874" lon="7.05771">
        <ele>560.79998779297</ele>
        <time>2011-05-08T08:59:36.000Z</time>
      </trkpt>
      <trkpt lat="43.84876" lon="7.05758">
        <ele>559.40002441406</ele>
        <time>2011-05-08T08:59:39.000Z</time>
      </trkpt>
      <trkpt lat="43.84878" lon="7.05733">
        <ele>558.59997558594</ele>
        <time>2011-05-08T08:59:45.000Z</time>
      </trkpt>
      <trkpt lat="43.84878" lon="7.05728">
        <ele>559.20001220703</ele>
        <time>2011-05-08T08:59:46.000Z</time>
      </trkpt>
      <trkpt lat="43.84881" lon="7.05711">
        <ele>557.59997558594</ele>
        <time>2011-05-08T08:59:50.000Z</time>
      </trkpt>
      <trkpt lat="43.84883" lon="7.05703">
        <ele>556.20001220703</ele>
        <time>2011-05-08T08:59:52.000Z</time>
      </trkpt>
      <trkpt lat="43.84887" lon="7.05689">
        <ele>554</ele>
        <time>2011-05-08T08:59:55.000Z</time>
      </trkpt>
      <trkpt lat="43.8489" lon="7.05677">
        <ele>551.40002441406</ele>
        <time>2011-05-08T08:59:58.000Z</time>
      </trkpt>
      <trkpt lat="43.84896" lon="7.05669">
        <ele>547.79998779297</ele>
        <time>2011-05-08T09:00:00.000Z</time>
      </trkpt>
      <trkpt lat="43.849" lon="7.05653">
        <ele>546.59997558594</ele>
        <time>2011-05-08T09:00:04.000Z</time>
      </trkpt>
      <trkpt lat="43.849" lon="7.05649">
        <ele>546.40002441406</ele>
        <time>2011-05-08T09:00:05.000Z</time>
      </trkpt>
      <trkpt lat="43.84907" lon="7.05641">
        <ele>542.79998779297</ele>
        <time>2011-05-08T09:00:07.000Z</time>
      </trkpt>
      <trkpt lat="43.84911" lon="7.05634">
        <ele>540.20001220703</ele>
        <time>2011-05-08T09:00:09.000Z</time>
      </trkpt>
      <trkpt lat="43.84911" lon="7.05631">
        <ele>540.59997558594</ele>
        <time>2011-05-08T09:00:10.000Z</time>
      </trkpt>
      <trkpt lat="43.84917" lon="7.05619">
        <ele>538</ele>
        <time>2011-05-08T09:00:13.000Z</time>
      </trkpt>
      <trkpt lat="43.84921" lon="7.05613">
        <ele>536.20001220703</ele>
        <time>2011-05-08T09:00:16.000Z</time>
      </trkpt>
      <trkpt lat="43.84922" lon="7.05614">
        <ele>535</ele>
        <time>2011-05-08T09:00:17.000Z</time>
      </trkpt>
      <trkpt lat="43.84923" lon="7.05616">
        <ele>534.20001220703</ele>
        <time>2011-05-08T09:00:18.000Z</time>
      </trkpt>
      <trkpt lat="43.84923" lon="7.05624">
        <ele>533</ele>
        <time>2011-05-08T09:00:21.000Z</time>
      </trkpt>
      <trkpt lat="43.84925" lon="7.05624">
        <ele>531.40002441406</ele>
        <time>2011-05-08T09:00:25.000Z</time>
      </trkpt>
      <trkpt lat="43.84932" lon="7.05618">
        <ele>528</ele>
        <time>2011-05-08T09:00:27.000Z</time>
      </trkpt>
      <trkpt lat="43.84934" lon="7.05611">
        <ele>527.40002441406</ele>
        <time>2011-05-08T09:00:29.000Z</time>
      </trkpt>
      <trkpt lat="43.84938" lon="7.05597">
        <ele>526.40002441406</ele>
        <time>2011-05-08T09:00:32.000Z</time>
      </trkpt>
      <trkpt lat="43.84941" lon="7.05592">
        <ele>524.79998779297</ele>
        <time>2011-05-08T09:00:33.000Z</time>
      </trkpt>
      <trkpt lat="43.84951" lon="7.05567">
        <ele>519.59997558594</ele>
        <time>2011-05-08T09:00:38.000Z</time>
      </trkpt>
      <trkpt lat="43.84957" lon="7.05544">
        <ele>516.59997558594</ele>
        <time>2011-05-08T09:00:44.000Z</time>
      </trkpt>
      <trkpt lat="43.84958" lon="7.05546">
        <ele>515.59997558594</ele>
        <time>2011-05-08T09:00:45.000Z</time>
      </trkpt>
      <trkpt lat="43.8496" lon="7.05555">
        <ele>514.20001220703</ele>
        <time>2011-05-08T09:00:48.000Z</time>
      </trkpt>
      <trkpt lat="43.84961" lon="7.0557">
        <ele>512.20001220703</ele>
        <time>2011-05-08T09:00:51.000Z</time>
      </trkpt>
      <trkpt lat="43.84961" lon="7.05574">
        <ele>512</ele>
        <time>2011-05-08T09:00:52.000Z</time>
      </trkpt>
      <trkpt lat="43.84963" lon="7.05581">
        <ele>510.39999389648</ele>
        <time>2011-05-08T09:00:55.000Z</time>
      </trkpt>
      <trkpt lat="43.84964" lon="7.05581">
        <ele>509.60000610352</ele>
        <time>2011-05-08T09:00:56.000Z</time>
      </trkpt>
      <trkpt lat="43.84967" lon="7.05572">
        <ele>507.79998779297</ele>
        <time>2011-05-08T09:01:00.000Z</time>
      </trkpt>
      <trkpt lat="43.84968" lon="7.05568">
        <ele>507.20001220703</ele>
        <time>2011-05-08T09:01:01.000Z</time>
      </trkpt>
      <trkpt lat="43.84969" lon="7.05557">
        <ele>506.79998779297</ele>
        <time>2011-05-08T09:01:03.000Z</time>
      </trkpt>
      <trkpt lat="43.84971" lon="7.05547">
        <ele>506.20001220703</ele>
        <time>2011-05-08T09:01:05.000Z</time>
      </trkpt>
      <trkpt lat="43.84971" lon="7.0554">
        <ele>506.20001220703</ele>
        <time>2011-05-08T09:01:06.000Z</time>
      </trkpt>
      <trkpt lat="43.84972" lon="7.05519">
        <ele>506.60000610352</ele>
        <time>2011-05-08T09:01:10.000Z</time>
      </trkpt>
      <trkpt lat="43.84972" lon="7.05513">
        <ele>507.20001220703</ele>
        <time>2011-05-08T09:01:11.000Z</time>
      </trkpt>
      <trkpt lat="43.84975" lon="7.05498">
        <ele>505.79998779297</ele>
        <time>2011-05-08T09:01:15.000Z</time>
      </trkpt>
      <trkpt lat="43.84981" lon="7.05504">
        <ele>500.79998779297</ele>
        <time>2011-05-08T09:01:19.000Z</time>
      </trkpt>
      <trkpt lat="43.84983" lon="7.05513">
        <ele>499.20001220703</ele>
        <time>2011-05-08T09:01:21.000Z</time>
      </trkpt>
      <trkpt lat="43.84985" lon="7.05522">
        <ele>497.39999389648</ele>
        <time>2011-05-08T09:01:23.000Z</time>
      </trkpt>
      <trkpt lat="43.84987" lon="7.05531">
        <ele>495.20001220703</ele>
        <time>2011-05-08T09:01:25.000Z</time>
      </trkpt>
      <trkpt lat="43.84989" lon="7.05545">
        <ele>493</ele>
        <time>2011-05-08T09:01:28.000Z</time>
      </trkpt>
      <trkpt lat="43.84991" lon="7.05555">
        <ele>490.79998779297</ele>
        <time>2011-05-08T09:01:30.000Z</time>
      </trkpt>
      <trkpt lat="43.84993" lon="7.05569">
        <ele>488.79998779297</ele>
        <time>2011-05-08T09:01:33.000Z</time>
      </trkpt>
      <trkpt lat="43.84996" lon="7.05574">
        <ele>486.60000610352</ele>
        <time>2011-05-08T09:01:37.000Z</time>
      </trkpt>
      <trkpt lat="43.84997" lon="7.0557">
        <ele>486</ele>
        <time>2011-05-08T09:01:41.000Z</time>
      </trkpt>
      <trkpt lat="43.84997" lon="7.05569">
        <ele>486</ele>
        <time>2011-05-08T09:01:42.000Z</time>
      </trkpt>
      <trkpt lat="43.84997" lon="7.05566">
        <ele>485.79998779297</ele>
        <time>2011-05-08T09:01:43.000Z</time>
      </trkpt>
      <trkpt lat="43.85001" lon="7.05552">
        <ele>484.20001220703</ele>
        <time>2011-05-08T09:01:46.000Z</time>
      </trkpt>
      <trkpt lat="43.85003" lon="7.05541">
        <ele>483.39999389648</ele>
        <time>2011-05-08T09:01:48.000Z</time>
      </trkpt>
      <trkpt lat="43.85005" lon="7.05525">
        <ele>482.60000610352</ele>
        <time>2011-05-08T09:01:51.000Z</time>
      </trkpt>
      <trkpt lat="43.85007" lon="7.05514">
        <ele>482</ele>
        <time>2011-05-08T09:01:53.000Z</time>
      </trkpt>
      <trkpt lat="43.8501" lon="7.05501">
        <ele>481</ele>
        <time>2011-05-08T09:01:56.000Z</time>
      </trkpt>
      <trkpt lat="43.85013" lon="7.05487">
        <ele>479</ele>
        <time>2011-05-08T09:01:59.000Z</time>
      </trkpt>
      <trkpt lat="43.85016" lon="7.0548">
        <ele>477.20001220703</ele>
        <time>2011-05-08T09:02:01.000Z</time>
      </trkpt>
      <trkpt lat="43.85022" lon="7.05461">
        <ele>473.39999389648</ele>
        <time>2011-05-08T09:02:05.000Z</time>
      </trkpt>
      <trkpt lat="43.85026" lon="7.05436">
        <ele>470.79998779297</ele>
        <time>2011-05-08T09:02:10.000Z</time>
      </trkpt>
      <trkpt lat="43.85027" lon="7.05412">
        <ele>469.60000610352</ele>
        <time>2011-05-08T09:02:16.000Z</time>
      </trkpt>
      <trkpt lat="43.85027" lon="7.05408">
        <ele>469.20001220703</ele>
        <time>2011-05-08T09:02:17.000Z</time>
      </trkpt>
      <trkpt lat="43.85029" lon="7.054">
        <ele>468</ele>
        <time>2011-05-08T09:02:20.000Z</time>
      </trkpt>
      <trkpt lat="43.85029" lon="7.05397">
        <ele>467.60000610352</ele>
        <time>2011-05-08T09:02:21.000Z</time>
      </trkpt>
      <trkpt lat="43.85033" lon="7.05391">
        <ele>465</ele>
        <time>2011-05-08T09:02:25.000Z</time>
      </trkpt>
      <trkpt lat="43.85035" lon="7.05388">
        <ele>463.79998779297</ele>
        <time>2011-05-08T09:02:26.000Z</time>
      </trkpt>
      <trkpt lat="43.85038" lon="7.05384">
        <ele>462</ele>
        <time>2011-05-08T09:02:27.000Z</time>
      </trkpt>
      <trkpt lat="43.8504" lon="7.05379">
        <ele>460.79998779297</ele>
        <time>2011-05-08T09:02:28.000Z</time>
      </trkpt>
      <trkpt lat="43.85043" lon="7.05369">
        <ele>458.79998779297</ele>
        <time>2011-05-08T09:02:30.000Z</time>
      </trkpt>
      <trkpt lat="43.85046" lon="7.05365">
        <ele>457</ele>
        <time>2011-05-08T09:02:34.000Z</time>
      </trkpt>
      <trkpt lat="43.85048" lon="7.05372">
        <ele>456.39999389648</ele>
        <time>2011-05-08T09:02:36.000Z</time>
      </trkpt>
      <trkpt lat="43.85049" lon="7.05383">
        <ele>456.20001220703</ele>
        <time>2011-05-08T09:02:38.000Z</time>
      </trkpt>
      <trkpt lat="43.85051" lon="7.0539">
        <ele>455.60000610352</ele>
        <time>2011-05-08T09:02:40.000Z</time>
      </trkpt>
      <trkpt lat="43.85053" lon="7.05388">
        <ele>454.60000610352</ele>
        <time>2011-05-08T09:02:41.000Z</time>
      </trkpt>
      <trkpt lat="43.85054" lon="7.05384">
        <ele>453.60000610352</ele>
        <time>2011-05-08T09:02:42.000Z</time>
      </trkpt>
      <trkpt lat="43.85058" lon="7.05374">
        <ele>451.60000610352</ele>
        <time>2011-05-08T09:02:45.000Z</time>
      </trkpt>
      <trkpt lat="43.85059" lon="7.05376">
        <ele>450.79998779297</ele>
        <time>2011-05-08T09:02:48.000Z</time>
      </trkpt>
      <trkpt lat="43.85061" lon="7.0538">
        <ele>449.79998779297</ele>
        <time>2011-05-08T09:02:51.000Z</time>
      </trkpt>
      <trkpt lat="43.85062" lon="7.05379">
        <ele>449.20001220703</ele>
        <time>2011-05-08T09:02:52.000Z</time>
      </trkpt>
      <trkpt lat="43.85066" lon="7.05365">
        <ele>447</ele>
        <time>2011-05-08T09:02:56.000Z</time>
      </trkpt>
      <trkpt lat="43.85068" lon="7.05362">
        <ele>445.79998779297</ele>
        <time>2011-05-08T09:02:57.000Z</time>
      </trkpt>
      <trkpt lat="43.8507" lon="7.05358">
        <ele>444.60000610352</ele>
        <time>2011-05-08T09:02:58.000Z</time>
      </trkpt>
      <trkpt lat="43.8508" lon="7.05341">
        <ele>439.60000610352</ele>
        <time>2011-05-08T09:03:02.000Z</time>
      </trkpt>
      <trkpt lat="43.85083" lon="7.05336">
        <ele>438.20001220703</ele>
        <time>2011-05-08T09:03:03.000Z</time>
      </trkpt>
      <trkpt lat="43.85094" lon="7.05325">
        <ele>432.79998779297</ele>
        <time>2011-05-08T09:03:07.000Z</time>
      </trkpt>
      <trkpt lat="43.851" lon="7.05323">
        <ele>430</ele>
        <time>2011-05-08T09:03:09.000Z</time>
      </trkpt>
      <trkpt lat="43.85103" lon="7.05317">
        <ele>428</ele>
        <time>2011-05-08T09:03:11.000Z</time>
      </trkpt>
      <trkpt lat="43.85104" lon="7.05313">
        <ele>427</ele>
        <time>2011-05-08T09:03:12.000Z</time>
      </trkpt>
      <trkpt lat="43.85105" lon="7.05311">
        <ele>426.20001220703</ele>
        <time>2011-05-08T09:03:14.000Z</time>
      </trkpt>
      <trkpt lat="43.85107" lon="7.05311">
        <ele>425.39999389648</ele>
        <time>2011-05-08T09:03:15.000Z</time>
      </trkpt>
      <trkpt lat="43.85114" lon="7.05312">
        <ele>423</ele>
        <time>2011-05-08T09:03:17.000Z</time>
      </trkpt>
      <trkpt lat="43.85118" lon="7.05313">
        <ele>421.39999389648</ele>
        <time>2011-05-08T09:03:18.000Z</time>
      </trkpt>
      <trkpt lat="43.85122" lon="7.05315">
        <ele>420</ele>
        <time>2011-05-08T09:03:19.000Z</time>
      </trkpt>
      <trkpt lat="43.85134" lon="7.05318">
        <ele>415.20001220703</ele>
        <time>2011-05-08T09:03:22.000Z</time>
      </trkpt>
      <trkpt lat="43.85138" lon="7.05319">
        <ele>413.60000610352</ele>
        <time>2011-05-08T09:03:23.000Z</time>
      </trkpt>
      <trkpt lat="43.85155" lon="7.0532">
        <ele>406.60000610352</ele>
        <time>2011-05-08T09:03:27.000Z</time>
      </trkpt>
      <trkpt lat="43.85169" lon="7.05331">
        <ele>402.20001220703</ele>
        <time>2011-05-08T09:03:31.000Z</time>
      </trkpt>
      <trkpt lat="43.85172" lon="7.05335">
        <ele>400.79998779297</ele>
        <time>2011-05-08T09:03:32.000Z</time>
      </trkpt>
      <trkpt lat="43.85175" lon="7.05355">
        <ele>399.79998779297</ele>
        <time>2011-05-08T09:03:36.000Z</time>
      </trkpt>
      <trkpt lat="43.85172" lon="7.0536">
        <ele>401.39999389648</ele>
        <time>2011-05-08T09:03:37.000Z</time>
      </trkpt>
      <trkpt lat="43.85167" lon="7.05372">
        <ele>404.60000610352</ele>
        <time>2011-05-08T09:03:40.000Z</time>
      </trkpt>
      <trkpt lat="43.85167" lon="7.05383">
        <ele>405</ele>
        <time>2011-05-08T09:03:43.000Z</time>
      </trkpt>
      <trkpt lat="43.85167" lon="7.05386">
        <ele>404.79998779297</ele>
        <time>2011-05-08T09:03:44.000Z</time>
      </trkpt>
      <trkpt lat="43.85174" lon="7.05379">
        <ele>400.60000610352</ele>
        <time>2011-05-08T09:03:48.000Z</time>
      </trkpt>
      <trkpt lat="43.8518" lon="7.05373">
        <ele>397</ele>
        <time>2011-05-08T09:03:50.000Z</time>
      </trkpt>
      <trkpt lat="43.85184" lon="7.0537">
        <ele>394.60000610352</ele>
        <time>2011-05-08T09:03:51.000Z</time>
      </trkpt>
      <trkpt lat="43.85187" lon="7.05367">
        <ele>392.60000610352</ele>
        <time>2011-05-08T09:03:52.000Z</time>
      </trkpt>
      <trkpt lat="43.85192" lon="7.05357">
        <ele>389.20001220703</ele>
        <time>2011-05-08T09:03:55.000Z</time>
      </trkpt>
      <trkpt lat="43.85194" lon="7.05356">
        <ele>388.60000610352</ele>
        <time>2011-05-08T09:03:56.000Z</time>
      </trkpt>
      <trkpt lat="43.85195" lon="7.05356">
        <ele>387.79998779297</ele>
        <time>2011-05-08T09:03:57.000Z</time>
      </trkpt>
      <trkpt lat="43.852" lon="7.05362">
        <ele>384.79998779297</ele>
        <time>2011-05-08T09:04:01.000Z</time>
      </trkpt>
      <trkpt lat="43.85203" lon="7.05354">
        <ele>382.79998779297</ele>
        <time>2011-05-08T09:04:04.000Z</time>
      </trkpt>
      <trkpt lat="43.85204" lon="7.05349">
        <ele>382</ele>
        <time>2011-05-08T09:04:05.000Z</time>
      </trkpt>
      <trkpt lat="43.85205" lon="7.05345">
        <ele>381.60000610352</ele>
        <time>2011-05-08T09:04:06.000Z</time>
      </trkpt>
      <trkpt lat="43.85207" lon="7.05315">
        <ele>378.20001220703</ele>
        <time>2011-05-08T09:04:11.000Z</time>
      </trkpt>
      <trkpt lat="43.85205" lon="7.05293">
        <ele>377</ele>
        <time>2011-05-08T09:04:15.000Z</time>
      </trkpt>
      <trkpt lat="43.85205" lon="7.05286">
        <ele>376.60000610352</ele>
        <time>2011-05-08T09:04:16.000Z</time>
      </trkpt>
      <trkpt lat="43.85199" lon="7.05268">
        <ele>377.60000610352</ele>
        <time>2011-05-08T09:04:19.000Z</time>
      </trkpt>
      <trkpt lat="43.85196" lon="7.05263">
        <ele>378.60000610352</ele>
        <time>2011-05-08T09:04:20.000Z</time>
      </trkpt>
      <trkpt lat="43.85189" lon="7.05249">
        <ele>380.39999389648</ele>
        <time>2011-05-08T09:04:23.000Z</time>
      </trkpt>
      <trkpt lat="43.85185" lon="7.05239">
        <ele>381.60000610352</ele>
        <time>2011-05-08T09:04:25.000Z</time>
      </trkpt>
      <trkpt lat="43.85181" lon="7.05227">
        <ele>383</ele>
        <time>2011-05-08T09:04:27.000Z</time>
      </trkpt>
      <trkpt lat="43.85179" lon="7.05222">
        <ele>383.60000610352</ele>
        <time>2011-05-08T09:04:28.000Z</time>
      </trkpt>
      <trkpt lat="43.85178" lon="7.05217">
        <ele>384.20001220703</ele>
        <time>2011-05-08T09:04:29.000Z</time>
      </trkpt>
      <trkpt lat="43.85175" lon="7.05213">
        <ele>385.20001220703</ele>
        <time>2011-05-08T09:04:30.000Z</time>
      </trkpt>
      <trkpt lat="43.85173" lon="7.05209">
        <ele>386</ele>
        <time>2011-05-08T09:04:31.000Z</time>
      </trkpt>
      <trkpt lat="43.8517" lon="7.052">
        <ele>386.39999389648</ele>
        <time>2011-05-08T09:04:33.000Z</time>
      </trkpt>
      <trkpt lat="43.85169" lon="7.05188">
        <ele>386.39999389648</ele>
        <time>2011-05-08T09:04:36.000Z</time>
      </trkpt>
      <trkpt lat="43.85168" lon="7.05184">
        <ele>386.60000610352</ele>
        <time>2011-05-08T09:04:37.000Z</time>
      </trkpt>
      <trkpt lat="43.8517" lon="7.0517">
        <ele>384.60000610352</ele>
        <time>2011-05-08T09:04:42.000Z</time>
      </trkpt>
      <trkpt lat="43.85169" lon="7.05168">
        <ele>385</ele>
        <time>2011-05-08T09:04:43.000Z</time>
      </trkpt>
      <trkpt lat="43.85167" lon="7.05164">
        <ele>386.60000610352</ele>
        <time>2011-05-08T09:04:45.000Z</time>
      </trkpt>
      <trkpt lat="43.85166" lon="7.05159">
        <ele>387.79998779297</ele>
        <time>2011-05-08T09:04:47.000Z</time>
      </trkpt>
      <trkpt lat="43.85166" lon="7.05155">
        <ele>388.60000610352</ele>
        <time>2011-05-08T09:04:52.000Z</time>
      </trkpt>
      <trkpt lat="43.85169" lon="7.05153">
        <ele>387.79998779297</ele>
        <time>2011-05-08T09:04:56.000Z</time>
      </trkpt>
      <trkpt lat="43.8517" lon="7.05152">
        <ele>387</ele>
        <time>2011-05-08T09:04:57.000Z</time>
      </trkpt>
      <trkpt lat="43.85179" lon="7.05154">
        <ele>382.20001220703</ele>
        <time>2011-05-08T09:05:00.000Z</time>
      </trkpt>
      <trkpt lat="43.85182" lon="7.05155">
        <ele>380.79998779297</ele>
        <time>2011-05-08T09:05:01.000Z</time>
      </trkpt>
      <trkpt lat="43.85184" lon="7.05157">
        <ele>379.60000610352</ele>
        <time>2011-05-08T09:05:02.000Z</time>
      </trkpt>
      <trkpt lat="43.85186" lon="7.05157">
        <ele>378.60000610352</ele>
        <time>2011-05-08T09:05:03.000Z</time>
      </trkpt>
      <trkpt lat="43.85193" lon="7.05154">
        <ele>375.79998779297</ele>
        <time>2011-05-08T09:05:06.000Z</time>
      </trkpt>
      <trkpt lat="43.85198" lon="7.05153">
        <ele>373.60000610352</ele>
        <time>2011-05-08T09:05:09.000Z</time>
      </trkpt>
      <trkpt lat="43.85205" lon="7.05148">
        <ele>371</ele>
        <time>2011-05-08T09:05:13.000Z</time>
      </trkpt>
      <trkpt lat="43.85214" lon="7.05139">
        <ele>368.60000610352</ele>
        <time>2011-05-08T09:05:19.000Z</time>
      </trkpt>
      <trkpt lat="43.85222" lon="7.05127">
        <ele>367</ele>
        <time>2011-05-08T09:05:25.000Z</time>
      </trkpt>
      <trkpt lat="43.85226" lon="7.0512">
        <ele>366.39999389648</ele>
        <time>2011-05-08T09:05:28.000Z</time>
      </trkpt>
      <trkpt lat="43.8523" lon="7.05111">
        <ele>366.39999389648</ele>
        <time>2011-05-08T09:05:31.000Z</time>
      </trkpt>
      <trkpt lat="43.85235" lon="7.05098">
        <ele>366.60000610352</ele>
        <time>2011-05-08T09:05:35.000Z</time>
      </trkpt>
      <trkpt lat="43.85236" lon="7.05095">
        <ele>366.60000610352</ele>
        <time>2011-05-08T09:05:36.000Z</time>
      </trkpt>
      <trkpt lat="43.85242" lon="7.05074">
        <ele>367</ele>
        <time>2011-05-08T09:05:42.000Z</time>
      </trkpt>
      <trkpt lat="43.8525" lon="7.05051">
        <ele>365.79998779297</ele>
        <time>2011-05-08T09:05:47.000Z</time>
      </trkpt>
      <trkpt lat="43.85251" lon="7.05046">
        <ele>365.79998779297</ele>
        <time>2011-05-08T09:05:48.000Z</time>
      </trkpt>
      <trkpt lat="43.85254" lon="7.05026">
        <ele>366.79998779297</ele>
        <time>2011-05-08T09:05:52.000Z</time>
      </trkpt>
      <trkpt lat="43.85256" lon="7.05001">
        <ele>369.20001220703</ele>
        <time>2011-05-08T09:05:56.000Z</time>
      </trkpt>
      <trkpt lat="43.85259" lon="7.04979">
        <ele>368</ele>
        <time>2011-05-08T09:06:00.000Z</time>
      </trkpt>
      <trkpt lat="43.8526" lon="7.04974">
        <ele>367.39999389648</ele>
        <time>2011-05-08T09:06:01.000Z</time>
      </trkpt>
      <trkpt lat="43.85261" lon="7.04969">
        <ele>367.20001220703</ele>
        <time>2011-05-08T09:06:02.000Z</time>
      </trkpt>
      <trkpt lat="43.8526" lon="7.04963">
        <ele>367.39999389648</ele>
        <time>2011-05-08T09:06:03.000Z</time>
      </trkpt>
      <trkpt lat="43.85259" lon="7.04944">
        <ele>368.20001220703</ele>
        <time>2011-05-08T09:06:06.000Z</time>
      </trkpt>
      <trkpt lat="43.85259" lon="7.04939">
        <ele>368</ele>
        <time>2011-05-08T09:06:07.000Z</time>
      </trkpt>
      <trkpt lat="43.85259" lon="7.04933">
        <ele>368.20001220703</ele>
        <time>2011-05-08T09:06:08.000Z</time>
      </trkpt>
      <trkpt lat="43.85257" lon="7.04927">
        <ele>368.60000610352</ele>
        <time>2011-05-08T09:06:09.000Z</time>
      </trkpt>
      <trkpt lat="43.85256" lon="7.04918">
        <ele>369.20001220703</ele>
        <time>2011-05-08T09:06:11.000Z</time>
      </trkpt>
      <trkpt lat="43.85256" lon="7.04914">
        <ele>369.39999389648</ele>
        <time>2011-05-08T09:06:12.000Z</time>
      </trkpt>
      <trkpt lat="43.85255" lon="7.04911">
        <ele>369.60000610352</ele>
        <time>2011-05-08T09:06:13.000Z</time>
      </trkpt>
      <trkpt lat="43.85254" lon="7.04907">
        <ele>370</ele>
        <time>2011-05-08T09:06:16.000Z</time>
      </trkpt>
      <trkpt lat="43.85253" lon="7.04895">
        <ele>370.20001220703</ele>
        <time>2011-05-08T09:06:59.000Z</time>
      </trkpt>
      <trkpt lat="43.85254" lon="7.04889">
        <ele>370</ele>
        <time>2011-05-08T09:07:03.000Z</time>
      </trkpt>
      <trkpt lat="43.85253" lon="7.04886">
        <ele>370.20001220703</ele>
        <time>2011-05-08T09:07:04.000Z</time>
      </trkpt>
      <trkpt lat="43.85247" lon="7.04876">
        <ele>373</ele>
        <time>2011-05-08T09:07:07.000Z</time>
      </trkpt>
      <trkpt lat="43.85246" lon="7.04872">
        <ele>373.60000610352</ele>
        <time>2011-05-08T09:07:08.000Z</time>
      </trkpt>
      <trkpt lat="43.85244" lon="7.0486">
        <ele>374.60000610352</ele>
        <time>2011-05-08T09:07:12.000Z</time>
      </trkpt>
      <trkpt lat="43.85248" lon="7.04847">
        <ele>372.39999389648</ele>
        <time>2011-05-08T09:07:17.000Z</time>
      </trkpt>
      <trkpt lat="43.85248" lon="7.04845">
        <ele>372.20001220703</ele>
        <time>2011-05-08T09:07:18.000Z</time>
      </trkpt>
      <trkpt lat="43.85252" lon="7.04839">
        <ele>370.20001220703</ele>
        <time>2011-05-08T09:07:20.000Z</time>
      </trkpt>
      <trkpt lat="43.85256" lon="7.04824">
        <ele>368.20001220703</ele>
        <time>2011-05-08T09:07:23.000Z</time>
      </trkpt>
      <trkpt lat="43.85257" lon="7.04817">
        <ele>367.79998779297</ele>
        <time>2011-05-08T09:07:24.000Z</time>
      </trkpt>
      <trkpt lat="43.8526" lon="7.04802">
        <ele>366.20001220703</ele>
        <time>2011-05-08T09:07:26.000Z</time>
      </trkpt>
      <trkpt lat="43.85263" lon="7.0479">
        <ele>364.39999389648</ele>
        <time>2011-05-08T09:07:28.000Z</time>
      </trkpt>
      <trkpt lat="43.85265" lon="7.04784">
        <ele>363.39999389648</ele>
        <time>2011-05-08T09:07:29.000Z</time>
      </trkpt>
      <trkpt lat="43.85275" lon="7.04768">
        <ele>358.60000610352</ele>
        <time>2011-05-08T09:07:33.000Z</time>
      </trkpt>
      <trkpt lat="43.85283" lon="7.04755">
        <ele>354.60000610352</ele>
        <time>2011-05-08T09:07:37.000Z</time>
      </trkpt>
      <trkpt lat="43.85287" lon="7.04743">
        <ele>352</ele>
        <time>2011-05-08T09:07:39.000Z</time>
      </trkpt>
      <trkpt lat="43.85287" lon="7.04736">
        <ele>350.60000610352</ele>
        <time>2011-05-08T09:07:40.000Z</time>
      </trkpt>
      <trkpt lat="43.85288" lon="7.0473">
        <ele>349.20001220703</ele>
        <time>2011-05-08T09:07:41.000Z</time>
      </trkpt>
      <trkpt lat="43.85289" lon="7.04714">
        <ele>346.20001220703</ele>
        <time>2011-05-08T09:07:44.000Z</time>
      </trkpt>
      <trkpt lat="43.85289" lon="7.0471">
        <ele>345.79998779297</ele>
        <time>2011-05-08T09:07:45.000Z</time>
      </trkpt>
      <trkpt lat="43.85288" lon="7.04696">
        <ele>343.79998779297</ele>
        <time>2011-05-08T09:07:48.000Z</time>
      </trkpt>
      <trkpt lat="43.85291" lon="7.04685">
        <ele>340.60000610352</ele>
        <time>2011-05-08T09:07:50.000Z</time>
      </trkpt>
      <trkpt lat="43.85288" lon="7.04664">
        <ele>339.20001220703</ele>
        <time>2011-05-08T09:07:54.000Z</time>
      </trkpt>
      <trkpt lat="43.85286" lon="7.04662">
        <ele>339.60000610352</ele>
        <time>2011-05-08T09:07:55.000Z</time>
      </trkpt>
      <trkpt lat="43.85278" lon="7.04647">
        <ele>341.20001220703</ele>
        <time>2011-05-08T09:07:59.000Z</time>
      </trkpt>
      <trkpt lat="43.85274" lon="7.04637">
        <ele>341.39999389648</ele>
        <time>2011-05-08T09:08:01.000Z</time>
      </trkpt>
      <trkpt lat="43.85271" lon="7.04622">
        <ele>340.79998779297</ele>
        <time>2011-05-08T09:08:04.000Z</time>
      </trkpt>
      <trkpt lat="43.85271" lon="7.04613">
        <ele>339.20001220703</ele>
        <time>2011-05-08T09:08:08.000Z</time>
      </trkpt>
      <trkpt lat="43.85272" lon="7.04612">
        <ele>338.79998779297</ele>
        <time>2011-05-08T09:08:09.000Z</time>
      </trkpt>
      <trkpt lat="43.85272" lon="7.04611">
        <ele>338.39999389648</ele>
        <time>2011-05-08T09:08:10.000Z</time>
      </trkpt>
      <trkpt lat="43.85276" lon="7.04611">
        <ele>336.20001220703</ele>
        <time>2011-05-08T09:08:13.000Z</time>
      </trkpt>
      <trkpt lat="43.85277" lon="7.04612">
        <ele>336.20001220703</ele>
        <time>2011-05-08T09:08:14.000Z</time>
      </trkpt>
      <trkpt lat="43.85277" lon="7.04615">
        <ele>336.60000610352</ele>
        <time>2011-05-08T09:08:16.000Z</time>
      </trkpt>
      <trkpt lat="43.85277" lon="7.04617">
        <ele>336.79998779297</ele>
        <time>2011-05-08T09:08:17.000Z</time>
      </trkpt>
      <trkpt lat="43.85286" lon="7.04629">
        <ele>334</ele>
        <time>2011-05-08T09:08:21.000Z</time>
      </trkpt>
      <trkpt lat="43.85293" lon="7.04631">
        <ele>330.60000610352</ele>
        <time>2011-05-08T09:08:25.000Z</time>
      </trkpt>
      <trkpt lat="43.8529" lon="7.04622">
        <ele>330.60000610352</ele>
        <time>2011-05-08T09:08:28.000Z</time>
      </trkpt>
      <trkpt lat="43.85289" lon="7.04618">
        <ele>330.79998779297</ele>
        <time>2011-05-08T09:08:29.000Z</time>
      </trkpt>
      <trkpt lat="43.85288" lon="7.04609">
        <ele>329.79998779297</ele>
        <time>2011-05-08T09:08:31.000Z</time>
      </trkpt>
      <trkpt lat="43.85288" lon="7.04605">
        <ele>329</ele>
        <time>2011-05-08T09:08:32.000Z</time>
      </trkpt>
      <trkpt lat="43.85288" lon="7.04592">
        <ele>326.60000610352</ele>
        <time>2011-05-08T09:08:35.000Z</time>
      </trkpt>
      <trkpt lat="43.85289" lon="7.0459">
        <ele>325.79998779297</ele>
        <time>2011-05-08T09:08:36.000Z</time>
      </trkpt>
      <trkpt lat="43.85291" lon="7.04588">
        <ele>324.60000610352</ele>
        <time>2011-05-08T09:08:37.000Z</time>
      </trkpt>
      <trkpt lat="43.85299" lon="7.04579">
        <ele>318.79998779297</ele>
        <time>2011-05-08T09:08:41.000Z</time>
      </trkpt>
      <trkpt lat="43.85301" lon="7.04575">
        <ele>317.79998779297</ele>
        <time>2011-05-08T09:08:42.000Z</time>
      </trkpt>
      <trkpt lat="43.85302" lon="7.0456">
        <ele>315.79998779297</ele>
        <time>2011-05-08T09:08:45.000Z</time>
      </trkpt>
      <trkpt lat="43.85305" lon="7.0455">
        <ele>313.39999389648</ele>
        <time>2011-05-08T09:08:47.000Z</time>
      </trkpt>
      <trkpt lat="43.85306" lon="7.04542">
        <ele>312</ele>
        <time>2011-05-08T09:08:49.000Z</time>
      </trkpt>
      <trkpt lat="43.85301" lon="7.04534">
        <ele>313.79998779297</ele>
        <time>2011-05-08T09:08:52.000Z</time>
      </trkpt>
      <trkpt lat="43.85299" lon="7.04531">
        <ele>315</ele>
        <time>2011-05-08T09:08:53.000Z</time>
      </trkpt>
      <trkpt lat="43.85296" lon="7.04528">
        <ele>316.20001220703</ele>
        <time>2011-05-08T09:08:54.000Z</time>
      </trkpt>
      <trkpt lat="43.85291" lon="7.04522">
        <ele>318</ele>
        <time>2011-05-08T09:08:57.000Z</time>
      </trkpt>
      <trkpt lat="43.85291" lon="7.04522">
        <ele>318</ele>
        <time>2011-05-08T09:08:58.000Z</time>
      </trkpt>
      <trkpt lat="43.85292" lon="7.04521">
        <ele>317.79998779297</ele>
        <time>2011-05-08T09:09:00.000Z</time>
      </trkpt>
      <trkpt lat="43.8529" lon="7.04517">
        <ele>318.20001220703</ele>
        <time>2011-05-08T09:09:03.000Z</time>
      </trkpt>
      <trkpt lat="43.85286" lon="7.04506">
        <ele>319.39999389648</ele>
        <time>2011-05-08T09:09:08.000Z</time>
      </trkpt>
      <trkpt lat="43.85287" lon="7.04488">
        <ele>317.20001220703</ele>
        <time>2011-05-08T09:09:12.000Z</time>
      </trkpt>
      <trkpt lat="43.85288" lon="7.04483">
        <ele>316.39999389648</ele>
        <time>2011-05-08T09:09:13.000Z</time>
      </trkpt>
      <trkpt lat="43.85288" lon="7.04478">
        <ele>315.79998779297</ele>
        <time>2011-05-08T09:09:14.000Z</time>
      </trkpt>
      <trkpt lat="43.85285" lon="7.04451">
        <ele>314.79998779297</ele>
        <time>2011-05-08T09:09:19.000Z</time>
      </trkpt>
      <trkpt lat="43.85278" lon="7.04432">
        <ele>316.20001220703</ele>
        <time>2011-05-08T09:09:23.000Z</time>
      </trkpt>
      <trkpt lat="43.85277" lon="7.04427">
        <ele>316.20001220703</ele>
        <time>2011-05-08T09:09:24.000Z</time>
      </trkpt>
      <trkpt lat="43.85278" lon="7.04403">
        <ele>314.39999389648</ele>
        <time>2011-05-08T09:09:29.000Z</time>
      </trkpt>
      <trkpt lat="43.85284" lon="7.04386">
        <ele>311</ele>
        <time>2011-05-08T09:09:33.000Z</time>
      </trkpt>
      <trkpt lat="43.85288" lon="7.04377">
        <ele>309.60000610352</ele>
        <time>2011-05-08T09:09:35.000Z</time>
      </trkpt>
      <trkpt lat="43.85287" lon="7.04365">
        <ele>309.39999389648</ele>
        <time>2011-05-08T09:09:37.000Z</time>
      </trkpt>
      <trkpt lat="43.85285" lon="7.04348">
        <ele>309.60000610352</ele>
        <time>2011-05-08T09:09:40.000Z</time>
      </trkpt>
      <trkpt lat="43.85284" lon="7.04344">
        <ele>309.60000610352</ele>
        <time>2011-05-08T09:09:41.000Z</time>
      </trkpt>
      <trkpt lat="43.85279" lon="7.04323">
        <ele>312</ele>
        <time>2011-05-08T09:09:46.000Z</time>
      </trkpt>
      <trkpt lat="43.85279" lon="7.04322">
        <ele>312.39999389648</ele>
        <time>2011-05-08T09:09:47.000Z</time>
      </trkpt>
      <trkpt lat="43.8528" lon="7.04323">
        <ele>311.60000610352</ele>
        <time>2011-05-08T09:10:02.000Z</time>
      </trkpt>
      <trkpt lat="43.85283" lon="7.04334">
        <ele>309.60000610352</ele>
        <time>2011-05-08T09:10:08.000Z</time>
      </trkpt>
      <trkpt lat="43.85282" lon="7.04336">
        <ele>310</ele>
        <time>2011-05-08T09:10:12.000Z</time>
      </trkpt>
      <trkpt lat="43.85282" lon="7.04331">
        <ele>310.39999389648</ele>
        <time>2011-05-08T09:10:17.000Z</time>
      </trkpt>
      <trkpt lat="43.85278" lon="7.04319">
        <ele>312.60000610352</ele>
        <time>2011-05-08T09:10:22.000Z</time>
      </trkpt>
      <trkpt lat="43.85276" lon="7.04306">
        <ele>314.60000610352</ele>
        <time>2011-05-08T09:10:25.000Z</time>
      </trkpt>
      <trkpt lat="43.85277" lon="7.04301">
        <ele>314.79998779297</ele>
        <time>2011-05-08T09:10:26.000Z</time>
      </trkpt>
      <trkpt lat="43.85284" lon="7.04281">
        <ele>313.79998779297</ele>
        <time>2011-05-08T09:10:30.000Z</time>
      </trkpt>
      <trkpt lat="43.85285" lon="7.04277">
        <ele>313.39999389648</ele>
        <time>2011-05-08T09:10:31.000Z</time>
      </trkpt>
      <trkpt lat="43.85296" lon="7.0426">
        <ele>310.39999389648</ele>
        <time>2011-05-08T09:10:35.000Z</time>
      </trkpt>
      <trkpt lat="43.85299" lon="7.04251">
        <ele>309.79998779297</ele>
        <time>2011-05-08T09:10:37.000Z</time>
      </trkpt>
      <trkpt lat="43.85302" lon="7.04236">
        <ele>309.60000610352</ele>
        <time>2011-05-08T09:10:40.000Z</time>
      </trkpt>
      <trkpt lat="43.85306" lon="7.04226">
        <ele>308.79998779297</ele>
        <time>2011-05-08T09:10:42.000Z</time>
      </trkpt>
      <trkpt lat="43.85312" lon="7.04212">
        <ele>307.60000610352</ele>
        <time>2011-05-08T09:10:45.000Z</time>
      </trkpt>
      <trkpt lat="43.85317" lon="7.04199">
        <ele>306.60000610352</ele>
        <time>2011-05-08T09:10:48.000Z</time>
      </trkpt>
      <trkpt lat="43.85318" lon="7.04188">
        <ele>306.79998779297</ele>
        <time>2011-05-08T09:10:50.000Z</time>
      </trkpt>
      <trkpt lat="43.8532" lon="7.04164">
        <ele>308</ele>
        <time>2011-05-08T09:10:54.000Z</time>
      </trkpt>
      <trkpt lat="43.85321" lon="7.04158">
        <ele>308.20001220703</ele>
        <time>2011-05-08T09:10:55.000Z</time>
      </trkpt>
      <trkpt lat="43.8532" lon="7.04152">
        <ele>308.79998779297</ele>
        <time>2011-05-08T09:10:56.000Z</time>
      </trkpt>
      <trkpt lat="43.85318" lon="7.04141">
        <ele>310.60000610352</ele>
        <time>2011-05-08T09:10:58.000Z</time>
      </trkpt>
      <trkpt lat="43.85316" lon="7.04131">
        <ele>311.79998779297</ele>
        <time>2011-05-08T09:11:00.000Z</time>
      </trkpt>
      <trkpt lat="43.85318" lon="7.04128">
        <ele>311.39999389648</ele>
        <time>2011-05-08T09:11:02.000Z</time>
      </trkpt>
      <trkpt lat="43.85318" lon="7.04125">
        <ele>311.39999389648</ele>
        <time>2011-05-08T09:11:05.000Z</time>
      </trkpt>
      <trkpt lat="43.85319" lon="7.04122">
        <ele>311.20001220703</ele>
        <time>2011-05-08T09:11:11.000Z</time>
      </trkpt>
      <trkpt lat="43.85321" lon="7.04119">
        <ele>310.60000610352</ele>
        <time>2011-05-08T09:11:18.000Z</time>
      </trkpt>
      <trkpt lat="43.85325" lon="7.04118">
        <ele>309.20001220703</ele>
        <time>2011-05-08T09:11:26.000Z</time>
      </trkpt>
      <trkpt lat="43.85328" lon="7.04116">
        <ele>308.39999389648</ele>
        <time>2011-05-08T09:11:31.000Z</time>
      </trkpt>
      <trkpt lat="43.8533" lon="7.04115">
        <ele>307.60000610352</ele>
        <time>2011-05-08T09:11:33.000Z</time>
      </trkpt>
      <trkpt lat="43.85336" lon="7.04108">
        <ele>306</ele>
        <time>2011-05-08T09:11:36.000Z</time>
      </trkpt>
      <trkpt lat="43.85344" lon="7.04096">
        <ele>305.20001220703</ele>
        <time>2011-05-08T09:11:40.000Z</time>
      </trkpt>
      <trkpt lat="43.85346" lon="7.04091">
        <ele>305</ele>
        <time>2011-05-08T09:11:41.000Z</time>
      </trkpt>
      <trkpt lat="43.85356" lon="7.04074">
        <ele>304.39999389648</ele>
        <time>2011-05-08T09:11:45.000Z</time>
      </trkpt>
      <trkpt lat="43.85368" lon="7.04054">
        <ele>303.20001220703</ele>
        <time>2011-05-08T09:11:50.000Z</time>
      </trkpt>
      <trkpt lat="43.85371" lon="7.04025">
        <ele>305.39999389648</ele>
        <time>2011-05-08T09:11:55.000Z</time>
      </trkpt>
      <trkpt lat="43.8537" lon="7.03994">
        <ele>308.60000610352</ele>
        <time>2011-05-08T09:12:00.000Z</time>
      </trkpt>
      <trkpt lat="43.8537" lon="7.03987">
        <ele>309.20001220703</ele>
        <time>2011-05-08T09:12:01.000Z</time>
      </trkpt>
      <trkpt lat="43.85372" lon="7.03968">
        <ele>310</ele>
        <time>2011-05-08T09:12:04.000Z</time>
      </trkpt>
      <trkpt lat="43.85373" lon="7.03955">
        <ele>310.39999389648</ele>
        <time>2011-05-08T09:12:06.000Z</time>
      </trkpt>
      <trkpt lat="43.85375" lon="7.03942">
        <ele>310.60000610352</ele>
        <time>2011-05-08T09:12:08.000Z</time>
      </trkpt>
      <trkpt lat="43.85375" lon="7.03936">
        <ele>311</ele>
        <time>2011-05-08T09:12:09.000Z</time>
      </trkpt>
      <trkpt lat="43.85371" lon="7.03927">
        <ele>313</ele>
        <time>2011-05-08T09:12:11.000Z</time>
      </trkpt>
      <trkpt lat="43.85368" lon="7.03922">
        <ele>314.79998779297</ele>
        <time>2011-05-08T09:12:13.000Z</time>
      </trkpt>
      <trkpt lat="43.85367" lon="7.0392">
        <ele>315.20001220703</ele>
        <time>2011-05-08T09:12:15.000Z</time>
      </trkpt>
      <trkpt lat="43.85369" lon="7.03917">
        <ele>314.79998779297</ele>
        <time>2011-05-08T09:12:19.000Z</time>
      </trkpt>
      <trkpt lat="43.85368" lon="7.03915">
        <ele>315.60000610352</ele>
        <time>2011-05-08T09:12:21.000Z</time>
      </trkpt>
      <trkpt lat="43.85367" lon="7.03912">
        <ele>316.39999389648</ele>
        <time>2011-05-08T09:12:23.000Z</time>
      </trkpt>
      <trkpt lat="43.85369" lon="7.0391">
        <ele>316.39999389648</ele>
        <time>2011-05-08T09:12:27.000Z</time>
      </trkpt>
      <trkpt lat="43.8537" lon="7.03909">
        <ele>316</ele>
        <time>2011-05-08T09:12:30.000Z</time>
      </trkpt>
      <trkpt lat="43.85372" lon="7.03907">
        <ele>315.39999389648</ele>
        <time>2011-05-08T09:12:31.000Z</time>
      </trkpt>
      <trkpt lat="43.8538" lon="7.03903">
        <ele>313.39999389648</ele>
        <time>2011-05-08T09:12:34.000Z</time>
      </trkpt>
      <trkpt lat="43.85382" lon="7.039">
        <ele>313.20001220703</ele>
        <time>2011-05-08T09:12:35.000Z</time>
      </trkpt>
      <trkpt lat="43.85383" lon="7.03897">
        <ele>313.20001220703</ele>
        <time>2011-05-08T09:12:36.000Z</time>
      </trkpt>
      <trkpt lat="43.85389" lon="7.03881">
        <ele>314.20001220703</ele>
        <time>2011-05-08T09:12:40.000Z</time>
      </trkpt>
      <trkpt lat="43.85392" lon="7.03877">
        <ele>314</ele>
        <time>2011-05-08T09:12:41.000Z</time>
      </trkpt>
      <trkpt lat="43.85402" lon="7.03863">
        <ele>312.79998779297</ele>
        <time>2011-05-08T09:12:46.000Z</time>
      </trkpt>
      <trkpt lat="43.85415" lon="7.03847">
        <ele>311.60000610352</ele>
        <time>2011-05-08T09:12:51.000Z</time>
      </trkpt>
      <trkpt lat="43.85417" lon="7.03844">
        <ele>311.39999389648</ele>
        <time>2011-05-08T09:12:52.000Z</time>
      </trkpt>
      <trkpt lat="43.85425" lon="7.03831">
        <ele>311.79998779297</ele>
        <time>2011-05-08T09:12:55.000Z</time>
      </trkpt>
      <trkpt lat="43.85429" lon="7.03825">
        <ele>311.79998779297</ele>
        <time>2011-05-08T09:12:57.000Z</time>
      </trkpt>
      <trkpt lat="43.85435" lon="7.03818">
        <ele>311.39999389648</ele>
        <time>2011-05-08T09:12:59.000Z</time>
      </trkpt>
      <trkpt lat="43.85443" lon="7.03806">
        <ele>311.20001220703</ele>
        <time>2011-05-08T09:13:02.000Z</time>
      </trkpt>
      <trkpt lat="43.85448" lon="7.03797">
        <ele>311.20001220703</ele>
        <time>2011-05-08T09:13:04.000Z</time>
      </trkpt>
      <trkpt lat="43.85455" lon="7.03783">
        <ele>311.60000610352</ele>
        <time>2011-05-08T09:13:07.000Z</time>
      </trkpt>
      <trkpt lat="43.85458" lon="7.03774">
        <ele>312.20001220703</ele>
        <time>2011-05-08T09:13:09.000Z</time>
      </trkpt>
      <trkpt lat="43.85457" lon="7.03756">
        <ele>315.79998779297</ele>
        <time>2011-05-08T09:13:13.000Z</time>
      </trkpt>
      <trkpt lat="43.85457" lon="7.03747">
        <ele>317.39999389648</ele>
        <time>2011-05-08T09:13:16.000Z</time>
      </trkpt>
      <trkpt lat="43.85461" lon="7.03746">
        <ele>316</ele>
        <time>2011-05-08T09:13:18.000Z</time>
      </trkpt>
      <trkpt lat="43.85469" lon="7.03747">
        <ele>312</ele>
        <time>2011-05-08T09:13:22.000Z</time>
      </trkpt>
      <trkpt lat="43.85471" lon="7.03747">
        <ele>311.20001220703</ele>
        <time>2011-05-08T09:13:23.000Z</time>
      </trkpt>
      <trkpt lat="43.85481" lon="7.03736">
        <ele>308.39999389648</ele>
        <time>2011-05-08T09:13:27.000Z</time>
      </trkpt>
      <trkpt lat="43.85483" lon="7.03728">
        <ele>308.20001220703</ele>
        <time>2011-05-08T09:13:29.000Z</time>
      </trkpt>
      <trkpt lat="43.8549" lon="7.03713">
        <ele>307.39999389648</ele>
        <time>2011-05-08T09:13:33.000Z</time>
      </trkpt>
      <trkpt lat="43.85493" lon="7.03705">
        <ele>306.39999389648</ele>
        <time>2011-05-08T09:13:35.000Z</time>
      </trkpt>
      <trkpt lat="43.85498" lon="7.0369">
        <ele>306</ele>
        <time>2011-05-08T09:13:39.000Z</time>
      </trkpt>
      <trkpt lat="43.85499" lon="7.03681">
        <ele>306.60000610352</ele>
        <time>2011-05-08T09:13:41.000Z</time>
      </trkpt>
      <trkpt lat="43.85503" lon="7.03663">
        <ele>307.60000610352</ele>
        <time>2011-05-08T09:13:45.000Z</time>
      </trkpt>
      <trkpt lat="43.85504" lon="7.03655">
        <ele>308.60000610352</ele>
        <time>2011-05-08T09:13:47.000Z</time>
      </trkpt>
      <trkpt lat="43.85506" lon="7.03639">
        <ele>310.79998779297</ele>
        <time>2011-05-08T09:13:51.000Z</time>
      </trkpt>
      <trkpt lat="43.85507" lon="7.03627">
        <ele>312.20001220703</ele>
        <time>2011-05-08T09:13:54.000Z</time>
      </trkpt>
      <trkpt lat="43.85507" lon="7.03617">
        <ele>313.79998779297</ele>
        <time>2011-05-08T09:13:56.000Z</time>
      </trkpt>
      <trkpt lat="43.85505" lon="7.036">
        <ele>317.20001220703</ele>
        <time>2011-05-08T09:14:00.000Z</time>
      </trkpt>
      <trkpt lat="43.85505" lon="7.0359">
        <ele>318.60000610352</ele>
        <time>2011-05-08T09:14:03.000Z</time>
      </trkpt>
      <trkpt lat="43.85511" lon="7.03583">
        <ele>317.39999389648</ele>
        <time>2011-05-08T09:14:07.000Z</time>
      </trkpt>
      <trkpt lat="43.85512" lon="7.03581">
        <ele>317.79998779297</ele>
        <time>2011-05-08T09:14:08.000Z</time>
      </trkpt>
      <trkpt lat="43.85511" lon="7.03579">
        <ele>318.20001220703</ele>
        <time>2011-05-08T09:14:09.000Z</time>
      </trkpt>
      <trkpt lat="43.85511" lon="7.03576">
        <ele>318.79998779297</ele>
        <time>2011-05-08T09:14:12.000Z</time>
      </trkpt>
      <trkpt lat="43.85512" lon="7.03568">
        <ele>320.20001220703</ele>
        <time>2011-05-08T09:14:18.000Z</time>
      </trkpt>
      <trkpt lat="43.8551" lon="7.03557">
        <ele>323</ele>
        <time>2011-05-08T09:14:24.000Z</time>
      </trkpt>
      <trkpt lat="43.85511" lon="7.03555">
        <ele>323</ele>
        <time>2011-05-08T09:14:26.000Z</time>
      </trkpt>
      <trkpt lat="43.85513" lon="7.03553">
        <ele>322.20001220703</ele>
        <time>2011-05-08T09:14:30.000Z</time>
      </trkpt>
      <trkpt lat="43.85519" lon="7.03551">
        <ele>319.79998779297</ele>
        <time>2011-05-08T09:14:37.000Z</time>
      </trkpt>
      <trkpt lat="43.85529" lon="7.03546">
        <ele>316.39999389648</ele>
        <time>2011-05-08T09:14:43.000Z</time>
      </trkpt>
      <trkpt lat="43.85542" lon="7.03535">
        <ele>312.20001220703</ele>
        <time>2011-05-08T09:14:48.000Z</time>
      </trkpt>
      <trkpt lat="43.85544" lon="7.03531">
        <ele>311.60000610352</ele>
        <time>2011-05-08T09:14:49.000Z</time>
      </trkpt>
      <trkpt lat="43.85553" lon="7.03512">
        <ele>309.39999389648</ele>
        <time>2011-05-08T09:14:54.000Z</time>
      </trkpt>
      <trkpt lat="43.85555" lon="7.03509">
        <ele>308.79998779297</ele>
        <time>2011-05-08T09:14:55.000Z</time>
      </trkpt>
      <trkpt lat="43.85559" lon="7.03495">
        <ele>308</ele>
        <time>2011-05-08T09:14:59.000Z</time>
      </trkpt>
      <trkpt lat="43.85556" lon="7.03484">
        <ele>310.39999389648</ele>
        <time>2011-05-08T09:15:02.000Z</time>
      </trkpt>
      <trkpt lat="43.85555" lon="7.03474">
        <ele>312.20001220703</ele>
        <time>2011-05-08T09:15:05.000Z</time>
      </trkpt>
      <trkpt lat="43.85555" lon="7.03457">
        <ele>313.20001220703</ele>
        <time>2011-05-08T09:15:10.000Z</time>
      </trkpt>
      <trkpt lat="43.85555" lon="7.0345">
        <ele>314</ele>
        <time>2011-05-08T09:15:12.000Z</time>
      </trkpt>
      <trkpt lat="43.85555" lon="7.03432">
        <ele>315.20001220703</ele>
        <time>2011-05-08T09:15:17.000Z</time>
      </trkpt>
      <trkpt lat="43.8556" lon="7.03412">
        <ele>313.60000610352</ele>
        <time>2011-05-08T09:15:22.000Z</time>
      </trkpt>
      <trkpt lat="43.8556" lon="7.03405">
        <ele>313.20001220703</ele>
        <time>2011-05-08T09:15:24.000Z</time>
      </trkpt>
      <trkpt lat="43.85563" lon="7.03396">
        <ele>311</ele>
        <time>2011-05-08T09:15:27.000Z</time>
      </trkpt>
      <trkpt lat="43.85567" lon="7.03392">
        <ele>309</ele>
        <time>2011-05-08T09:15:31.000Z</time>
      </trkpt>
      <trkpt lat="43.85572" lon="7.03388">
        <ele>306.39999389648</ele>
        <time>2011-05-08T09:15:37.000Z</time>
      </trkpt>
      <trkpt lat="43.85573" lon="7.03388">
        <ele>306</ele>
        <time>2011-05-08T09:15:38.000Z</time>
      </trkpt>
      <trkpt lat="43.85575" lon="7.03386">
        <ele>304.79998779297</ele>
        <time>2011-05-08T09:15:41.000Z</time>
      </trkpt>
      <trkpt lat="43.85576" lon="7.03381">
        <ele>304</ele>
        <time>2011-05-08T09:15:43.000Z</time>
      </trkpt>
      <trkpt lat="43.85576" lon="7.03376">
        <ele>304.20001220703</ele>
        <time>2011-05-08T09:15:45.000Z</time>
      </trkpt>
      <trkpt lat="43.85575" lon="7.03374">
        <ele>304.39999389648</ele>
        <time>2011-05-08T09:15:49.000Z</time>
      </trkpt>
      <trkpt lat="43.85578" lon="7.03367">
        <ele>303.20001220703</ele>
        <time>2011-05-08T09:16:05.000Z</time>
      </trkpt>
      <trkpt lat="43.85578" lon="7.03365">
        <ele>302.79998779297</ele>
        <time>2011-05-08T09:16:06.000Z</time>
      </trkpt>
      <trkpt lat="43.8558" lon="7.03362">
        <ele>302.39999389648</ele>
        <time>2011-05-08T09:16:09.000Z</time>
      </trkpt>
      <trkpt lat="43.8558" lon="7.0336">
        <ele>302.20001220703</ele>
        <time>2011-05-08T09:16:10.000Z</time>
      </trkpt>
      <trkpt lat="43.85581" lon="7.03356">
        <ele>302</ele>
        <time>2011-05-08T09:16:13.000Z</time>
      </trkpt>
      <trkpt lat="43.85581" lon="7.03355">
        <ele>301.79998779297</ele>
        <time>2011-05-08T09:16:14.000Z</time>
      </trkpt>
      <trkpt lat="43.85581" lon="7.03354">
        <ele>301.60000610352</ele>
        <time>2011-05-08T09:16:16.000Z</time>
      </trkpt>
      <trkpt lat="43.85584" lon="7.0335">
        <ele>300.79998779297</ele>
        <time>2011-05-08T09:16:24.000Z</time>
      </trkpt>
      <trkpt lat="43.85588" lon="7.03342">
        <ele>300.20001220703</ele>
        <time>2011-05-08T09:16:28.000Z</time>
      </trkpt>
      <trkpt lat="43.85593" lon="7.03336">
        <ele>299.20001220703</ele>
        <time>2011-05-08T09:16:32.000Z</time>
      </trkpt>
      <trkpt lat="43.85593" lon="7.03334">
        <ele>299.20001220703</ele>
        <time>2011-05-08T09:16:33.000Z</time>
      </trkpt>
      <trkpt lat="43.85593" lon="7.03331">
        <ele>299.20001220703</ele>
        <time>2011-05-08T09:16:34.000Z</time>
      </trkpt>
      <trkpt lat="43.85589" lon="7.03326">
        <ele>299.79998779297</ele>
        <time>2011-05-08T09:16:37.000Z</time>
      </trkpt>
      <trkpt lat="43.85587" lon="7.03324">
        <ele>300.20001220703</ele>
        <time>2011-05-08T09:16:41.000Z</time>
      </trkpt>
      <trkpt lat="43.85587" lon="7.03323">
        <ele>300.20001220703</ele>
        <time>2011-05-08T09:16:42.000Z</time>
      </trkpt>
      <trkpt lat="43.85585" lon="7.03321">
        <ele>300.60000610352</ele>
        <time>2011-05-08T09:16:45.000Z</time>
      </trkpt>
      <trkpt lat="43.85585" lon="7.03318">
        <ele>300.39999389648</ele>
        <time>2011-05-08T09:16:47.000Z</time>
      </trkpt>
      <trkpt lat="43.85585" lon="7.03316">
        <ele>300.39999389648</ele>
        <time>2011-05-08T09:16:49.000Z</time>
      </trkpt>
      <trkpt lat="43.85586" lon="7.0331">
        <ele>300.20001220703</ele>
        <time>2011-05-08T09:16:52.000Z</time>
      </trkpt>
      <trkpt lat="43.85587" lon="7.03308">
        <ele>300</ele>
        <time>2011-05-08T09:16:53.000Z</time>
      </trkpt>
      <trkpt lat="43.85589" lon="7.03306">
        <ele>299.79998779297</ele>
        <time>2011-05-08T09:16:55.000Z</time>
      </trkpt>
      <trkpt lat="43.85591" lon="7.03305">
        <ele>299.39999389648</ele>
        <time>2011-05-08T09:16:59.000Z</time>
      </trkpt>
      <trkpt lat="43.85592" lon="7.03305">
        <ele>299.20001220703</ele>
        <time>2011-05-08T09:17:01.000Z</time>
      </trkpt>
      <trkpt lat="43.85593" lon="7.03304">
        <ele>299</ele>
        <time>2011-05-08T09:17:02.000Z</time>
      </trkpt>
      <trkpt lat="43.85595" lon="7.033">
        <ele>298.79998779297</ele>
        <time>2011-05-08T09:17:05.000Z</time>
      </trkpt>
      <trkpt lat="43.85595" lon="7.03297">
        <ele>298.79998779297</ele>
        <time>2011-05-08T09:17:07.000Z</time>
      </trkpt>
      <trkpt lat="43.85594" lon="7.03294">
        <ele>299</ele>
        <time>2011-05-08T09:17:09.000Z</time>
      </trkpt>
      <trkpt lat="43.85593" lon="7.03292">
        <ele>299</ele>
        <time>2011-05-08T09:17:10.000Z</time>
      </trkpt>
      <trkpt lat="43.85591" lon="7.03284">
        <ele>299.20001220703</ele>
        <time>2011-05-08T09:17:13.000Z</time>
      </trkpt>
      <trkpt lat="43.85591" lon="7.03283">
        <ele>299.39999389648</ele>
        <time>2011-05-08T09:17:14.000Z</time>
      </trkpt>
      <trkpt lat="43.85589" lon="7.03277">
        <ele>299.60000610352</ele>
        <time>2011-05-08T09:17:19.000Z</time>
      </trkpt>
      <trkpt lat="43.8559" lon="7.03269">
        <ele>299.39999389648</ele>
        <time>2011-05-08T09:17:23.000Z</time>
      </trkpt>
      <trkpt lat="43.85591" lon="7.03261">
        <ele>299.20001220703</ele>
        <time>2011-05-08T09:17:28.000Z</time>
      </trkpt>
      <trkpt lat="43.85591" lon="7.03258">
        <ele>299.20001220703</ele>
        <time>2011-05-08T09:17:30.000Z</time>
      </trkpt>
      <trkpt lat="43.85591" lon="7.03257">
        <ele>299.20001220703</ele>
        <time>2011-05-08T09:17:31.000Z</time>
      </trkpt>
      <trkpt lat="43.85592" lon="7.03255">
        <ele>299.20001220703</ele>
        <time>2011-05-08T09:17:35.000Z</time>
      </trkpt>
      <trkpt lat="43.85595" lon="7.03253">
        <ele>298.79998779297</ele>
        <time>2011-05-08T09:17:39.000Z</time>
      </trkpt>
      <trkpt lat="43.85597" lon="7.03249">
        <ele>298.79998779297</ele>
        <time>2011-05-08T09:17:41.000Z</time>
      </trkpt>
      <trkpt lat="43.85601" lon="7.03242">
        <ele>300</ele>
        <time>2011-05-08T09:17:45.000Z</time>
      </trkpt>
      <trkpt lat="43.85603" lon="7.03241">
        <ele>300</ele>
        <time>2011-05-08T09:17:47.000Z</time>
      </trkpt>
      <trkpt lat="43.85604" lon="7.03239">
        <ele>300.20001220703</ele>
        <time>2011-05-08T09:17:49.000Z</time>
      </trkpt>
      <trkpt lat="43.85605" lon="7.03236">
        <ele>301</ele>
        <time>2011-05-08T09:17:53.000Z</time>
      </trkpt>
      <trkpt lat="43.85607" lon="7.03235">
        <ele>301</ele>
        <time>2011-05-08T09:17:56.000Z</time>
      </trkpt>
      <trkpt lat="43.85612" lon="7.03235">
        <ele>300.39999389648</ele>
        <time>2011-05-08T09:17:59.000Z</time>
      </trkpt>
      <trkpt lat="43.85622" lon="7.03237">
        <ele>299</ele>
        <time>2011-05-08T09:18:03.000Z</time>
      </trkpt>
      <trkpt lat="43.85642" lon="7.03244">
        <ele>295.79998779297</ele>
        <time>2011-05-08T09:18:09.000Z</time>
      </trkpt>
      <trkpt lat="43.85645" lon="7.03242">
        <ele>295.79998779297</ele>
        <time>2011-05-08T09:18:10.000Z</time>
      </trkpt>
      <trkpt lat="43.85649" lon="7.03238">
        <ele>296.39999389648</ele>
        <time>2011-05-08T09:18:12.000Z</time>
      </trkpt>
      <trkpt lat="43.85653" lon="7.03233">
        <ele>297.20001220703</ele>
        <time>2011-05-08T09:18:15.000Z</time>
      </trkpt>
      <trkpt lat="43.85654" lon="7.03229">
        <ele>298</ele>
        <time>2011-05-08T09:18:18.000Z</time>
      </trkpt>
      <trkpt lat="43.85656" lon="7.03227">
        <ele>298.39999389648</ele>
        <time>2011-05-08T09:18:20.000Z</time>
      </trkpt>
      <trkpt lat="43.85658" lon="7.03222">
        <ele>299.39999389648</ele>
        <time>2011-05-08T09:18:25.000Z</time>
      </trkpt>
      <trkpt lat="43.85663" lon="7.03213">
        <ele>301</ele>
        <time>2011-05-08T09:18:32.000Z</time>
      </trkpt>
      <trkpt lat="43.85667" lon="7.03206">
        <ele>302.60000610352</ele>
        <time>2011-05-08T09:18:39.000Z</time>
      </trkpt>
      <trkpt lat="43.85669" lon="7.03199">
        <ele>304.20001220703</ele>
        <time>2011-05-08T09:18:44.000Z</time>
      </trkpt>
      <trkpt lat="43.85669" lon="7.03199">
        <ele>304.20001220703</ele>
        <time>2011-05-08T09:18:45.000Z</time>
      </trkpt>
      <trkpt lat="43.85665" lon="7.03192">
        <ele>305.79998779297</ele>
        <time>2011-05-08T09:18:50.000Z</time>
      </trkpt>
      <trkpt lat="43.85665" lon="7.03191">
        <ele>306.20001220703</ele>
        <time>2011-05-08T09:18:51.000Z</time>
      </trkpt>
      <trkpt lat="43.85663" lon="7.03184">
        <ele>308</ele>
        <time>2011-05-08T09:18:57.000Z</time>
      </trkpt>
      <trkpt lat="43.85661" lon="7.03179">
        <ele>309.39999389648</ele>
        <time>2011-05-08T09:19:02.000Z</time>
      </trkpt>
      <trkpt lat="43.85659" lon="7.03177">
        <ele>310</ele>
        <time>2011-05-08T09:19:04.000Z</time>
      </trkpt>
      <trkpt lat="43.85658" lon="7.03173">
        <ele>311.20001220703</ele>
        <time>2011-05-08T09:19:09.000Z</time>
      </trkpt>
      <trkpt lat="43.85657" lon="7.03172">
        <ele>311.20001220703</ele>
        <time>2011-05-08T09:19:10.000Z</time>
      </trkpt>
      <trkpt lat="43.85654" lon="7.03169">
        <ele>312.39999389648</ele>
        <time>2011-05-08T09:19:17.000Z</time>
      </trkpt>
      <trkpt lat="43.85652" lon="7.03164">
        <ele>313.60000610352</ele>
        <time>2011-05-08T09:19:22.000Z</time>
      </trkpt>
      <trkpt lat="43.85652" lon="7.03162">
        <ele>313.79998779297</ele>
        <time>2011-05-08T09:19:24.000Z</time>
      </trkpt>
      <trkpt lat="43.85652" lon="7.03159">
        <ele>314.79998779297</ele>
        <time>2011-05-08T09:19:32.000Z</time>
      </trkpt>
      <trkpt lat="43.85651" lon="7.03154">
        <ele>316</ele>
        <time>2011-05-08T09:19:40.000Z</time>
      </trkpt>
      <trkpt lat="43.85649" lon="7.03151">
        <ele>316.79998779297</ele>
        <time>2011-05-08T09:19:45.000Z</time>
      </trkpt>
      <trkpt lat="43.85648" lon="7.03146">
        <ele>318</ele>
        <time>2011-05-08T09:19:52.000Z</time>
      </trkpt>
      <trkpt lat="43.8565" lon="7.03141">
        <ele>319</ele>
        <time>2011-05-08T09:19:58.000Z</time>
      </trkpt>
      <trkpt lat="43.8565" lon="7.03139">
        <ele>319.39999389648</ele>
        <time>2011-05-08T09:20:00.000Z</time>
      </trkpt>
      <trkpt lat="43.85645" lon="7.03137">
        <ele>320.39999389648</ele>
        <time>2011-05-08T09:20:10.000Z</time>
      </trkpt>
      <trkpt lat="43.8564" lon="7.03138">
        <ele>320.60000610352</ele>
        <time>2011-05-08T09:20:16.000Z</time>
      </trkpt>
      <trkpt lat="43.85634" lon="7.03141">
        <ele>320.39999389648</ele>
        <time>2011-05-08T09:20:20.000Z</time>
      </trkpt>
      <trkpt lat="43.8563" lon="7.03142">
        <ele>320.20001220703</ele>
        <time>2011-05-08T09:20:22.000Z</time>
      </trkpt>
      <trkpt lat="43.85618" lon="7.03153">
        <ele>318.79998779297</ele>
        <time>2011-05-08T09:20:28.000Z</time>
      </trkpt>
      <trkpt lat="43.85601" lon="7.03164">
        <ele>317.20001220703</ele>
        <time>2011-05-08T09:20:34.000Z</time>
      </trkpt>
      <trkpt lat="43.85588" lon="7.0317">
        <ele>317</ele>
        <time>2011-05-08T09:20:39.000Z</time>
      </trkpt>
      <trkpt lat="43.85583" lon="7.0317">
        <ele>317.20001220703</ele>
        <time>2011-05-08T09:20:41.000Z</time>
      </trkpt>
      <trkpt lat="43.85581" lon="7.03168">
        <ele>317.39999389648</ele>
        <time>2011-05-08T09:20:42.000Z</time>
      </trkpt>
      <trkpt lat="43.8558" lon="7.03166">
        <ele>318</ele>
        <time>2011-05-08T09:20:43.000Z</time>
      </trkpt>
      <trkpt lat="43.85577" lon="7.03158">
        <ele>319.60000610352</ele>
        <time>2011-05-08T09:20:47.000Z</time>
      </trkpt>
      <trkpt lat="43.85577" lon="7.03156">
        <ele>320.20001220703</ele>
        <time>2011-05-08T09:20:49.000Z</time>
      </trkpt>
      <trkpt lat="43.85579" lon="7.03151">
        <ele>321.39999389648</ele>
        <time>2011-05-08T09:20:56.000Z</time>
      </trkpt>
      <trkpt lat="43.85581" lon="7.03149">
        <ele>322</ele>
        <time>2011-05-08T09:20:59.000Z</time>
      </trkpt>
      <trkpt lat="43.85582" lon="7.03146">
        <ele>323</ele>
        <time>2011-05-08T09:21:03.000Z</time>
      </trkpt>
      <trkpt lat="43.85587" lon="7.03141">
        <ele>323.79998779297</ele>
        <time>2011-05-08T09:21:12.000Z</time>
      </trkpt>
      <trkpt lat="43.85592" lon="7.03138">
        <ele>324</ele>
        <time>2011-05-08T09:21:19.000Z</time>
      </trkpt>
      <trkpt lat="43.85595" lon="7.03137">
        <ele>324.20001220703</ele>
        <time>2011-05-08T09:21:25.000Z</time>
      </trkpt>
      <trkpt lat="43.85597" lon="7.03135">
        <ele>324.39999389648</ele>
        <time>2011-05-08T09:21:27.000Z</time>
      </trkpt>
      <trkpt lat="43.856" lon="7.03131">
        <ele>325.20001220703</ele>
        <time>2011-05-08T09:21:30.000Z</time>
      </trkpt>
      <trkpt lat="43.85609" lon="7.03121">
        <ele>327</ele>
        <time>2011-05-08T09:21:38.000Z</time>
      </trkpt>
      <trkpt lat="43.8561" lon="7.03119">
        <ele>327.20001220703</ele>
        <time>2011-05-08T09:21:39.000Z</time>
      </trkpt>
      <trkpt lat="43.85611" lon="7.03118">
        <ele>327.39999389648</ele>
        <time>2011-05-08T09:21:40.000Z</time>
      </trkpt>
      <trkpt lat="43.85617" lon="7.03113">
        <ele>328.20001220703</ele>
        <time>2011-05-08T09:21:45.000Z</time>
      </trkpt>
      <trkpt lat="43.85618" lon="7.03111">
        <ele>328.39999389648</ele>
        <time>2011-05-08T09:21:46.000Z</time>
      </trkpt>
      <trkpt lat="43.85624" lon="7.03104">
        <ele>329.60000610352</ele>
        <time>2011-05-08T09:21:51.000Z</time>
      </trkpt>
      <trkpt lat="43.85625" lon="7.03102">
        <ele>330</ele>
        <time>2011-05-08T09:21:52.000Z</time>
      </trkpt>
      <trkpt lat="43.85631" lon="7.03097">
        <ele>330.79998779297</ele>
        <time>2011-05-08T09:21:56.000Z</time>
      </trkpt>
      <trkpt lat="43.85638" lon="7.03085">
        <ele>333</ele>
        <time>2011-05-08T09:22:03.000Z</time>
      </trkpt>
      <trkpt lat="43.85638" lon="7.03081">
        <ele>333.39999389648</ele>
        <time>2011-05-08T09:22:05.000Z</time>
      </trkpt>
      <trkpt lat="43.85634" lon="7.03077">
        <ele>334</ele>
        <time>2011-05-08T09:22:08.000Z</time>
      </trkpt>
      <trkpt lat="43.85633" lon="7.03076">
        <ele>334</ele>
        <time>2011-05-08T09:22:09.000Z</time>
      </trkpt>
      <trkpt lat="43.85628" lon="7.03064">
        <ele>335.20001220703</ele>
        <time>2011-05-08T09:22:15.000Z</time>
      </trkpt>
      <trkpt lat="43.85624" lon="7.03058">
        <ele>335.79998779297</ele>
        <time>2011-05-08T09:22:21.000Z</time>
      </trkpt>
      <trkpt lat="43.85613" lon="7.03055">
        <ele>337.20001220703</ele>
        <time>2011-05-08T09:22:28.000Z</time>
      </trkpt>
      <trkpt lat="43.8561" lon="7.03054">
        <ele>337.60000610352</ele>
        <time>2011-05-08T09:22:30.000Z</time>
      </trkpt>
      <trkpt lat="43.85604" lon="7.0305">
        <ele>338.39999389648</ele>
        <time>2011-05-08T09:22:35.000Z</time>
      </trkpt>
      <trkpt lat="43.85595" lon="7.03049">
        <ele>339.39999389648</ele>
        <time>2011-05-08T09:22:42.000Z</time>
      </trkpt>
      <trkpt lat="43.85593" lon="7.0305">
        <ele>339.79998779297</ele>
        <time>2011-05-08T09:22:44.000Z</time>
      </trkpt>
      <trkpt lat="43.85586" lon="7.03053">
        <ele>340.20001220703</ele>
        <time>2011-05-08T09:22:49.000Z</time>
      </trkpt>
      <trkpt lat="43.85583" lon="7.03054">
        <ele>340.39999389648</ele>
        <time>2011-05-08T09:22:51.000Z</time>
      </trkpt>
      <trkpt lat="43.85578" lon="7.03052">
        <ele>340.79998779297</ele>
        <time>2011-05-08T09:22:55.000Z</time>
      </trkpt>
      <trkpt lat="43.85577" lon="7.03051">
        <ele>340.79998779297</ele>
        <time>2011-05-08T09:22:56.000Z</time>
      </trkpt>
      <trkpt lat="43.85575" lon="7.03051">
        <ele>341</ele>
        <time>2011-05-08T09:22:57.000Z</time>
      </trkpt>
      <trkpt lat="43.85568" lon="7.03048">
        <ele>341.60000610352</ele>
        <time>2011-05-08T09:23:02.000Z</time>
      </trkpt>
      <trkpt lat="43.85562" lon="7.03049">
        <ele>341.79998779297</ele>
        <time>2011-05-08T09:23:06.000Z</time>
      </trkpt>
      <trkpt lat="43.85558" lon="7.0305">
        <ele>341.79998779297</ele>
        <time>2011-05-08T09:23:09.000Z</time>
      </trkpt>
      <trkpt lat="43.85557" lon="7.0305">
        <ele>341.79998779297</ele>
        <time>2011-05-08T09:23:10.000Z</time>
      </trkpt>
      <trkpt lat="43.85548" lon="7.03046">
        <ele>343</ele>
        <time>2011-05-08T09:23:18.000Z</time>
      </trkpt>
      <trkpt lat="43.85544" lon="7.03036">
        <ele>344.60000610352</ele>
        <time>2011-05-08T09:23:24.000Z</time>
      </trkpt>
      <trkpt lat="43.85543" lon="7.03034">
        <ele>345</ele>
        <time>2011-05-08T09:23:25.000Z</time>
      </trkpt>
      <trkpt lat="43.85538" lon="7.03022">
        <ele>347.20001220703</ele>
        <time>2011-05-08T09:23:32.000Z</time>
      </trkpt>
      <trkpt lat="43.85533" lon="7.03012">
        <ele>349.60000610352</ele>
        <time>2011-05-08T09:23:39.000Z</time>
      </trkpt>
      <trkpt lat="43.85526" lon="7.03004">
        <ele>351.79998779297</ele>
        <time>2011-05-08T09:23:46.000Z</time>
      </trkpt>
      <trkpt lat="43.8552" lon="7.02993">
        <ele>353.39999389648</ele>
        <time>2011-05-08T09:23:53.000Z</time>
      </trkpt>
      <trkpt lat="43.85519" lon="7.02991">
        <ele>353.60000610352</ele>
        <time>2011-05-08T09:23:54.000Z</time>
      </trkpt>
      <trkpt lat="43.85511" lon="7.02983">
        <ele>355</ele>
        <time>2011-05-08T09:24:01.000Z</time>
      </trkpt>
      <trkpt lat="43.85505" lon="7.02979">
        <ele>356</ele>
        <time>2011-05-08T09:24:05.000Z</time>
      </trkpt>
      <trkpt lat="43.85499" lon="7.02977">
        <ele>356.79998779297</ele>
        <time>2011-05-08T09:24:09.000Z</time>
      </trkpt>
      <trkpt lat="43.85486" lon="7.02973">
        <ele>357</ele>
        <time>2011-05-08T09:24:18.000Z</time>
      </trkpt>
      <trkpt lat="43.85476" lon="7.02971">
        <ele>357.20001220703</ele>
        <time>2011-05-08T09:24:25.000Z</time>
      </trkpt>
      <trkpt lat="43.85468" lon="7.0297">
        <ele>357.39999389648</ele>
        <time>2011-05-08T09:24:31.000Z</time>
      </trkpt>
      <trkpt lat="43.85462" lon="7.02968">
        <ele>357.60000610352</ele>
        <time>2011-05-08T09:24:35.000Z</time>
      </trkpt>
      <trkpt lat="43.85453" lon="7.02965">
        <ele>358.20001220703</ele>
        <time>2011-05-08T09:24:41.000Z</time>
      </trkpt>
      <trkpt lat="43.8545" lon="7.02964">
        <ele>358.39999389648</ele>
        <time>2011-05-08T09:24:43.000Z</time>
      </trkpt>
      <trkpt lat="43.85443" lon="7.02963">
        <ele>358.60000610352</ele>
        <time>2011-05-08T09:24:47.000Z</time>
      </trkpt>
      <trkpt lat="43.85434" lon="7.02956">
        <ele>360.20001220703</ele>
        <time>2011-05-08T09:24:52.000Z</time>
      </trkpt>
      <trkpt lat="43.85433" lon="7.02954">
        <ele>360.60000610352</ele>
        <time>2011-05-08T09:24:53.000Z</time>
      </trkpt>
      <trkpt lat="43.85429" lon="7.02944">
        <ele>362.79998779297</ele>
        <time>2011-05-08T09:24:57.000Z</time>
      </trkpt>
      <trkpt lat="43.85425" lon="7.02929">
        <ele>366.20001220703</ele>
        <time>2011-05-08T09:25:03.000Z</time>
      </trkpt>
      <trkpt lat="43.85419" lon="7.02918">
        <ele>369.39999389648</ele>
        <time>2011-05-08T09:25:09.000Z</time>
      </trkpt>
      <trkpt lat="43.85412" lon="7.02911">
        <ele>370</ele>
        <time>2011-05-08T09:25:14.000Z</time>
      </trkpt>
      <trkpt lat="43.8541" lon="7.02909">
        <ele>370.20001220703</ele>
        <time>2011-05-08T09:25:16.000Z</time>
      </trkpt>
      <trkpt lat="43.85409" lon="7.02908">
        <ele>370.20001220703</ele>
        <time>2011-05-08T09:25:17.000Z</time>
      </trkpt>
      <trkpt lat="43.85403" lon="7.02908">
        <ele>370.20001220703</ele>
        <time>2011-05-08T09:25:21.000Z</time>
      </trkpt>
      <trkpt lat="43.85394" lon="7.02908">
        <ele>370.20001220703</ele>
        <time>2011-05-08T09:25:29.000Z</time>
      </trkpt>
      <trkpt lat="43.85385" lon="7.02906">
        <ele>370.60000610352</ele>
        <time>2011-05-08T09:25:36.000Z</time>
      </trkpt>
      <trkpt lat="43.8538" lon="7.02906">
        <ele>370.60000610352</ele>
        <time>2011-05-08T09:25:41.000Z</time>
      </trkpt>
      <trkpt lat="43.85378" lon="7.02903">
        <ele>371.20001220703</ele>
        <time>2011-05-08T09:25:48.000Z</time>
      </trkpt>
      <trkpt lat="43.85377" lon="7.02903">
        <ele>371.20001220703</ele>
        <time>2011-05-08T09:25:51.000Z</time>
      </trkpt>
      <trkpt lat="43.85376" lon="7.02905">
        <ele>371</ele>
        <time>2011-05-08T09:25:55.000Z</time>
      </trkpt>
      <trkpt lat="43.85377" lon="7.02902">
        <ele>371.20001220703</ele>
        <time>2011-05-08T09:26:09.000Z</time>
      </trkpt>
      <trkpt lat="43.8538" lon="7.02903">
        <ele>371</ele>
        <time>2011-05-08T09:26:45.000Z</time>
      </trkpt>
      <trkpt lat="43.8538" lon="7.02908">
        <ele>370.39999389648</ele>
        <time>2011-05-08T09:26:51.000Z</time>
      </trkpt>
      <trkpt lat="43.85379" lon="7.02908">
        <ele>370.39999389648</ele>
        <time>2011-05-08T09:27:03.000Z</time>
      </trkpt>
      <trkpt lat="43.85376" lon="7.02908">
        <ele>370.39999389648</ele>
        <time>2011-05-08T09:27:09.000Z</time>
      </trkpt>
      <trkpt lat="43.85375" lon="7.02909">
        <ele>370.20001220703</ele>
        <time>2011-05-08T09:27:15.000Z</time>
      </trkpt>
      <trkpt lat="43.85376" lon="7.0291">
        <ele>370</ele>
        <time>2011-05-08T09:27:22.000Z</time>
      </trkpt>
      <trkpt lat="43.8538" lon="7.02909">
        <ele>370.20001220703</ele>
        <time>2011-05-08T09:28:12.000Z</time>
      </trkpt>
      <trkpt lat="43.85378" lon="7.02908">
        <ele>370.39999389648</ele>
        <time>2011-05-08T09:28:17.000Z</time>
      </trkpt>
      <trkpt lat="43.85376" lon="7.02907">
        <ele>370.39999389648</ele>
        <time>2011-05-08T09:28:24.000Z</time>
      </trkpt>
      <trkpt lat="43.85377" lon="7.02908">
        <ele>370.20001220703</ele>
        <time>2011-05-08T09:28:30.000Z</time>
      </trkpt>
      <trkpt lat="43.85375" lon="7.02913">
        <ele>369.60000610352</ele>
        <time>2011-05-08T09:28:59.000Z</time>
      </trkpt>
      <trkpt lat="43.85376" lon="7.02906">
        <ele>370.79998779297</ele>
        <time>2011-05-08T09:29:33.000Z</time>
      </trkpt>
      <trkpt lat="43.85374" lon="7.02906">
        <ele>370.60000610352</ele>
        <time>2011-05-08T09:30:01.000Z</time>
      </trkpt>
      <trkpt lat="43.85375" lon="7.02902">
        <ele>371.39999389648</ele>
        <time>2011-05-08T09:31:11.000Z</time>
      </trkpt>
      <trkpt lat="43.85376" lon="7.02903">
        <ele>371.20001220703</ele>
        <time>2011-05-08T09:32:04.000Z</time>
      </trkpt>
      <trkpt lat="43.85377" lon="7.02902">
        <ele>371.39999389648</ele>
        <time>2011-05-08T09:32:06.000Z</time>
      </trkpt>
      <trkpt lat="43.8538" lon="7.02906">
        <ele>370.60000610352</ele>
        <time>2011-05-08T09:32:11.000Z</time>
      </trkpt>
      <trkpt lat="43.85381" lon="7.02908">
        <ele>370.39999389648</ele>
        <time>2011-05-08T09:32:14.000Z</time>
      </trkpt>
      <trkpt lat="43.85385" lon="7.02908">
        <ele>370.39999389648</ele>
        <time>2011-05-08T09:32:16.000Z</time>
      </trkpt>
      <trkpt lat="43.85387" lon="7.02908">
        <ele>370.20001220703</ele>
        <time>2011-05-08T09:32:18.000Z</time>
      </trkpt>
      <trkpt lat="43.85387" lon="7.02908">
        <ele>370.20001220703</ele>
        <time>2011-05-08T09:32:21.000Z</time>
      </trkpt>
      <trkpt lat="43.85385" lon="7.02909">
        <ele>370.20001220703</ele>
        <time>2011-05-08T09:32:34.000Z</time>
      </trkpt>
      <trkpt lat="43.85384" lon="7.02909">
        <ele>370.20001220703</ele>
        <time>2011-05-08T09:32:35.000Z</time>
      </trkpt>
      <trkpt lat="43.85379" lon="7.02907">
        <ele>370.39999389648</ele>
        <time>2011-05-08T09:32:39.000Z</time>
      </trkpt>
      <trkpt lat="43.85379" lon="7.02907">
        <ele>370.60000610352</ele>
        <time>2011-05-08T09:32:40.000Z</time>
      </trkpt>
      <trkpt lat="43.85373" lon="7.02907">
        <ele>370.60000610352</ele>
        <time>2011-05-08T09:33:21.000Z</time>
      </trkpt>
      <trkpt lat="43.85373" lon="7.02905">
        <ele>370.79998779297</ele>
        <time>2011-05-08T09:33:28.000Z</time>
      </trkpt>
      <trkpt lat="43.85375" lon="7.02901">
        <ele>371.39999389648</ele>
        <time>2011-05-08T09:35:03.000Z</time>
      </trkpt>
      <trkpt lat="43.85378" lon="7.02898">
        <ele>372</ele>
        <time>2011-05-08T09:35:19.000Z</time>
      </trkpt>
      <trkpt lat="43.8538" lon="7.02896">
        <ele>372.20001220703</ele>
        <time>2011-05-08T09:35:44.000Z</time>
      </trkpt>
      <trkpt lat="43.85384" lon="7.02896">
        <ele>372</ele>
        <time>2011-05-08T09:35:46.000Z</time>
      </trkpt>
      <trkpt lat="43.85392" lon="7.02895">
        <ele>371.79998779297</ele>
        <time>2011-05-08T09:35:51.000Z</time>
      </trkpt>
      <trkpt lat="43.85394" lon="7.02894">
        <ele>371.79998779297</ele>
        <time>2011-05-08T09:35:52.000Z</time>
      </trkpt>
      <trkpt lat="43.85395" lon="7.02893">
        <ele>371.79998779297</ele>
        <time>2011-05-08T09:35:53.000Z</time>
      </trkpt>
      <trkpt lat="43.85401" lon="7.02889">
        <ele>372</ele>
        <time>2011-05-08T09:35:56.000Z</time>
      </trkpt>
      <trkpt lat="43.85413" lon="7.02881">
        <ele>371.39999389648</ele>
        <time>2011-05-08T09:36:01.000Z</time>
      </trkpt>
      <trkpt lat="43.85416" lon="7.02879">
        <ele>371.39999389648</ele>
        <time>2011-05-08T09:36:02.000Z</time>
      </trkpt>
      <trkpt lat="43.85428" lon="7.0287">
        <ele>369.39999389648</ele>
        <time>2011-05-08T09:36:07.000Z</time>
      </trkpt>
      <trkpt lat="43.85431" lon="7.02867">
        <ele>369</ele>
        <time>2011-05-08T09:36:08.000Z</time>
      </trkpt>
      <trkpt lat="43.85439" lon="7.02851">
        <ele>367.79998779297</ele>
        <time>2011-05-08T09:36:12.000Z</time>
      </trkpt>
      <trkpt lat="43.8544" lon="7.02841">
        <ele>367.79998779297</ele>
        <time>2011-05-08T09:36:14.000Z</time>
      </trkpt>
      <trkpt lat="43.85438" lon="7.02831">
        <ele>368.39999389648</ele>
        <time>2011-05-08T09:36:16.000Z</time>
      </trkpt>
      <trkpt lat="43.85431" lon="7.02816">
        <ele>369.60000610352</ele>
        <time>2011-05-08T09:36:19.000Z</time>
      </trkpt>
      <trkpt lat="43.85425" lon="7.02807">
        <ele>370.39999389648</ele>
        <time>2011-05-08T09:36:21.000Z</time>
      </trkpt>
      <trkpt lat="43.85419" lon="7.02798">
        <ele>371.20001220703</ele>
        <time>2011-05-08T09:36:23.000Z</time>
      </trkpt>
      <trkpt lat="43.85405" lon="7.02779">
        <ele>374.20001220703</ele>
        <time>2011-05-08T09:36:27.000Z</time>
      </trkpt>
      <trkpt lat="43.85402" lon="7.02773">
        <ele>375</ele>
        <time>2011-05-08T09:36:28.000Z</time>
      </trkpt>
      <trkpt lat="43.85399" lon="7.02767">
        <ele>375.60000610352</ele>
        <time>2011-05-08T09:36:29.000Z</time>
      </trkpt>
      <trkpt lat="43.85395" lon="7.02754">
        <ele>376.60000610352</ele>
        <time>2011-05-08T09:36:31.000Z</time>
      </trkpt>
      <trkpt lat="43.85392" lon="7.0274">
        <ele>379</ele>
        <time>2011-05-08T09:36:33.000Z</time>
      </trkpt>
      <trkpt lat="43.8539" lon="7.02727">
        <ele>381.39999389648</ele>
        <time>2011-05-08T09:36:35.000Z</time>
      </trkpt>
      <trkpt lat="43.85386" lon="7.02706">
        <ele>384.79998779297</ele>
        <time>2011-05-08T09:36:38.000Z</time>
      </trkpt>
      <trkpt lat="43.85386" lon="7.02699">
        <ele>385.60000610352</ele>
        <time>2011-05-08T09:36:39.000Z</time>
      </trkpt>
      <trkpt lat="43.85396" lon="7.02687">
        <ele>385.79998779297</ele>
        <time>2011-05-08T09:36:42.000Z</time>
      </trkpt>
      <trkpt lat="43.85401" lon="7.02689">
        <ele>384.79998779297</ele>
        <time>2011-05-08T09:36:43.000Z</time>
      </trkpt>
      <trkpt lat="43.8541" lon="7.02695">
        <ele>382.60000610352</ele>
        <time>2011-05-08T09:36:45.000Z</time>
      </trkpt>
      <trkpt lat="43.85414" lon="7.02699">
        <ele>381.39999389648</ele>
        <time>2011-05-08T09:36:46.000Z</time>
      </trkpt>
      <trkpt lat="43.85417" lon="7.02703">
        <ele>380</ele>
        <time>2011-05-08T09:36:47.000Z</time>
      </trkpt>
      <trkpt lat="43.85433" lon="7.02716">
        <ele>376.39999389648</ele>
        <time>2011-05-08T09:36:51.000Z</time>
      </trkpt>
      <trkpt lat="43.85441" lon="7.02722">
        <ele>374.60000610352</ele>
        <time>2011-05-08T09:36:53.000Z</time>
      </trkpt>
      <trkpt lat="43.85449" lon="7.02727">
        <ele>372.79998779297</ele>
        <time>2011-05-08T09:36:55.000Z</time>
      </trkpt>
      <trkpt lat="43.85468" lon="7.02735">
        <ele>369.79998779297</ele>
        <time>2011-05-08T09:36:59.000Z</time>
      </trkpt>
      <trkpt lat="43.85477" lon="7.02737">
        <ele>368.60000610352</ele>
        <time>2011-05-08T09:37:01.000Z</time>
      </trkpt>
      <trkpt lat="43.85482" lon="7.02738">
        <ele>368.39999389648</ele>
        <time>2011-05-08T09:37:02.000Z</time>
      </trkpt>
      <trkpt lat="43.85487" lon="7.02737">
        <ele>368.20001220703</ele>
        <time>2011-05-08T09:37:03.000Z</time>
      </trkpt>
      <trkpt lat="43.85498" lon="7.02733">
        <ele>368.39999389648</ele>
        <time>2011-05-08T09:37:05.000Z</time>
      </trkpt>
      <trkpt lat="43.85503" lon="7.0273">
        <ele>368.60000610352</ele>
        <time>2011-05-08T09:37:06.000Z</time>
      </trkpt>
      <trkpt lat="43.85507" lon="7.02726">
        <ele>368.79998779297</ele>
        <time>2011-05-08T09:37:07.000Z</time>
      </trkpt>
      <trkpt lat="43.85526" lon="7.02711">
        <ele>368.79998779297</ele>
        <time>2011-05-08T09:37:11.000Z</time>
      </trkpt>
      <trkpt lat="43.8554" lon="7.02697">
        <ele>368.60000610352</ele>
        <time>2011-05-08T09:37:14.000Z</time>
      </trkpt>
      <trkpt lat="43.85545" lon="7.02692">
        <ele>368.39999389648</ele>
        <time>2011-05-08T09:37:15.000Z</time>
      </trkpt>
      <trkpt lat="43.85563" lon="7.02672">
        <ele>367.60000610352</ele>
        <time>2011-05-08T09:37:19.000Z</time>
      </trkpt>
      <trkpt lat="43.85567" lon="7.02667">
        <ele>367.39999389648</ele>
        <time>2011-05-08T09:37:20.000Z</time>
      </trkpt>
      <trkpt lat="43.85571" lon="7.02661">
        <ele>367</ele>
        <time>2011-05-08T09:37:21.000Z</time>
      </trkpt>
      <trkpt lat="43.85577" lon="7.02648">
        <ele>366.39999389648</ele>
        <time>2011-05-08T09:37:23.000Z</time>
      </trkpt>
      <trkpt lat="43.85583" lon="7.02635">
        <ele>365.60000610352</ele>
        <time>2011-05-08T09:37:25.000Z</time>
      </trkpt>
      <trkpt lat="43.85588" lon="7.02622">
        <ele>365</ele>
        <time>2011-05-08T09:37:27.000Z</time>
      </trkpt>
      <trkpt lat="43.85593" lon="7.026">
        <ele>365</ele>
        <time>2011-05-08T09:37:30.000Z</time>
      </trkpt>
      <trkpt lat="43.85594" lon="7.02593">
        <ele>365.20001220703</ele>
        <time>2011-05-08T09:37:31.000Z</time>
      </trkpt>
      <trkpt lat="43.85596" lon="7.02563">
        <ele>366.60000610352</ele>
        <time>2011-05-08T09:37:35.000Z</time>
      </trkpt>
      <trkpt lat="43.85596" lon="7.02555">
        <ele>366.79998779297</ele>
        <time>2011-05-08T09:37:36.000Z</time>
      </trkpt>
      <trkpt lat="43.85599" lon="7.02533">
        <ele>367</ele>
        <time>2011-05-08T09:37:39.000Z</time>
      </trkpt>
      <trkpt lat="43.85603" lon="7.02504">
        <ele>366.79998779297</ele>
        <time>2011-05-08T09:37:43.000Z</time>
      </trkpt>
      <trkpt lat="43.85606" lon="7.02474">
        <ele>365.39999389648</ele>
        <time>2011-05-08T09:37:47.000Z</time>
      </trkpt>
      <trkpt lat="43.85608" lon="7.02444">
        <ele>364</ele>
        <time>2011-05-08T09:37:51.000Z</time>
      </trkpt>
      <trkpt lat="43.85607" lon="7.02414">
        <ele>363.79998779297</ele>
        <time>2011-05-08T09:37:55.000Z</time>
      </trkpt>
      <trkpt lat="43.85605" lon="7.02391">
        <ele>361.60000610352</ele>
        <time>2011-05-08T09:37:58.000Z</time>
      </trkpt>
      <trkpt lat="43.85604" lon="7.02384">
        <ele>361</ele>
        <time>2011-05-08T09:37:59.000Z</time>
      </trkpt>
      <trkpt lat="43.85597" lon="7.02354">
        <ele>361</ele>
        <time>2011-05-08T09:38:03.000Z</time>
      </trkpt>
      <trkpt lat="43.85593" lon="7.02339">
        <ele>361.60000610352</ele>
        <time>2011-05-08T09:38:05.000Z</time>
      </trkpt>
      <trkpt lat="43.85588" lon="7.02324">
        <ele>361.79998779297</ele>
        <time>2011-05-08T09:38:07.000Z</time>
      </trkpt>
      <trkpt lat="43.85578" lon="7.02298">
        <ele>361.60000610352</ele>
        <time>2011-05-08T09:38:11.000Z</time>
      </trkpt>
      <trkpt lat="43.85573" lon="7.02285">
        <ele>361.39999389648</ele>
        <time>2011-05-08T09:38:13.000Z</time>
      </trkpt>
      <trkpt lat="43.85566" lon="7.02273">
        <ele>361.60000610352</ele>
        <time>2011-05-08T09:38:15.000Z</time>
      </trkpt>
      <trkpt lat="43.85551" lon="7.02252">
        <ele>364.60000610352</ele>
        <time>2011-05-08T09:38:19.000Z</time>
      </trkpt>
      <trkpt lat="43.8554" lon="7.02227">
        <ele>366.60000610352</ele>
        <time>2011-05-08T09:38:23.000Z</time>
      </trkpt>
      <trkpt lat="43.85534" lon="7.02207">
        <ele>367.39999389648</ele>
        <time>2011-05-08T09:38:26.000Z</time>
      </trkpt>
      <trkpt lat="43.85532" lon="7.022">
        <ele>367.79998779297</ele>
        <time>2011-05-08T09:38:27.000Z</time>
      </trkpt>
      <trkpt lat="43.85528" lon="7.02186">
        <ele>368.39999389648</ele>
        <time>2011-05-08T09:38:29.000Z</time>
      </trkpt>
      <trkpt lat="43.85526" lon="7.02179">
        <ele>368.60000610352</ele>
        <time>2011-05-08T09:38:30.000Z</time>
      </trkpt>
      <trkpt lat="43.85525" lon="7.02172">
        <ele>368.39999389648</ele>
        <time>2011-05-08T09:38:31.000Z</time>
      </trkpt>
      <trkpt lat="43.85521" lon="7.02151">
        <ele>369</ele>
        <time>2011-05-08T09:38:34.000Z</time>
      </trkpt>
      <trkpt lat="43.85519" lon="7.02144">
        <ele>369.39999389648</ele>
        <time>2011-05-08T09:38:35.000Z</time>
      </trkpt>
      <trkpt lat="43.85511" lon="7.02117">
        <ele>372</ele>
        <time>2011-05-08T09:38:39.000Z</time>
      </trkpt>
      <trkpt lat="43.85506" lon="7.02104">
        <ele>373.20001220703</ele>
        <time>2011-05-08T09:38:41.000Z</time>
      </trkpt>
      <trkpt lat="43.85505" lon="7.02097">
        <ele>373.60000610352</ele>
        <time>2011-05-08T09:38:42.000Z</time>
      </trkpt>
      <trkpt lat="43.85504" lon="7.02089">
        <ele>373.39999389648</ele>
        <time>2011-05-08T09:38:43.000Z</time>
      </trkpt>
      <trkpt lat="43.85506" lon="7.02075">
        <ele>372.20001220703</ele>
        <time>2011-05-08T09:38:45.000Z</time>
      </trkpt>
      <trkpt lat="43.85513" lon="7.02065">
        <ele>369.60000610352</ele>
        <time>2011-05-08T09:38:47.000Z</time>
      </trkpt>
      <trkpt lat="43.85519" lon="7.02054">
        <ele>367.39999389648</ele>
        <time>2011-05-08T09:38:49.000Z</time>
      </trkpt>
      <trkpt lat="43.85521" lon="7.02047">
        <ele>366.60000610352</ele>
        <time>2011-05-08T09:38:50.000Z</time>
      </trkpt>
      <trkpt lat="43.85523" lon="7.0204">
        <ele>366</ele>
        <time>2011-05-08T09:38:51.000Z</time>
      </trkpt>
      <trkpt lat="43.85529" lon="7.0201">
        <ele>365</ele>
        <time>2011-05-08T09:38:55.000Z</time>
      </trkpt>
      <trkpt lat="43.8553" lon="7.02002">
        <ele>365</ele>
        <time>2011-05-08T09:38:56.000Z</time>
      </trkpt>
      <trkpt lat="43.85531" lon="7.01994">
        <ele>365.60000610352</ele>
        <time>2011-05-08T09:38:57.000Z</time>
      </trkpt>
      <trkpt lat="43.85528" lon="7.01978">
        <ele>368</ele>
        <time>2011-05-08T09:38:59.000Z</time>
      </trkpt>
      <trkpt lat="43.85525" lon="7.01972">
        <ele>370</ele>
        <time>2011-05-08T09:39:00.000Z</time>
      </trkpt>
      <trkpt lat="43.85518" lon="7.0196">
        <ele>374.39999389648</ele>
        <time>2011-05-08T09:39:02.000Z</time>
      </trkpt>
      <trkpt lat="43.85514" lon="7.01954">
        <ele>376.60000610352</ele>
        <time>2011-05-08T09:39:03.000Z</time>
      </trkpt>
      <trkpt lat="43.85504" lon="7.01936">
        <ele>382.79998779297</ele>
        <time>2011-05-08T09:39:06.000Z</time>
      </trkpt>
      <trkpt lat="43.85502" lon="7.01929">
        <ele>384</ele>
        <time>2011-05-08T09:39:07.000Z</time>
      </trkpt>
      <trkpt lat="43.85504" lon="7.01915">
        <ele>384.60000610352</ele>
        <time>2011-05-08T09:39:09.000Z</time>
      </trkpt>
      <trkpt lat="43.85514" lon="7.01912">
        <ele>380.39999389648</ele>
        <time>2011-05-08T09:39:11.000Z</time>
      </trkpt>
      <trkpt lat="43.85537" lon="7.01914">
        <ele>370.20001220703</ele>
        <time>2011-05-08T09:39:15.000Z</time>
      </trkpt>
      <trkpt lat="43.85551" lon="7.01902">
        <ele>366.79998779297</ele>
        <time>2011-05-08T09:39:18.000Z</time>
      </trkpt>
      <trkpt lat="43.85554" lon="7.01895">
        <ele>367</ele>
        <time>2011-05-08T09:39:19.000Z</time>
      </trkpt>
      <trkpt lat="43.85558" lon="7.01873">
        <ele>369.79998779297</ele>
        <time>2011-05-08T09:39:22.000Z</time>
      </trkpt>
      <trkpt lat="43.85558" lon="7.01865">
        <ele>371.20001220703</ele>
        <time>2011-05-08T09:39:23.000Z</time>
      </trkpt>
      <trkpt lat="43.85558" lon="7.01857">
        <ele>372.79998779297</ele>
        <time>2011-05-08T09:39:24.000Z</time>
      </trkpt>
      <trkpt lat="43.85557" lon="7.01833">
        <ele>378.20001220703</ele>
        <time>2011-05-08T09:39:27.000Z</time>
      </trkpt>
      <trkpt lat="43.85556" lon="7.01826">
        <ele>380</ele>
        <time>2011-05-08T09:39:28.000Z</time>
      </trkpt>
      <trkpt lat="43.85567" lon="7.01817">
        <ele>378.20001220703</ele>
        <time>2011-05-08T09:39:31.000Z</time>
      </trkpt>
      <trkpt lat="43.85586" lon="7.01827">
        <ele>369.79998779297</ele>
        <time>2011-05-08T09:39:34.000Z</time>
      </trkpt>
      <trkpt lat="43.85608" lon="7.01836">
        <ele>362.79998779297</ele>
        <time>2011-05-08T09:39:38.000Z</time>
      </trkpt>
      <trkpt lat="43.85619" lon="7.01839">
        <ele>359.60000610352</ele>
        <time>2011-05-08T09:39:40.000Z</time>
      </trkpt>
      <trkpt lat="43.85624" lon="7.0184">
        <ele>358</ele>
        <time>2011-05-08T09:39:41.000Z</time>
      </trkpt>
      <trkpt lat="43.8563" lon="7.01839">
        <ele>357.20001220703</ele>
        <time>2011-05-08T09:39:42.000Z</time>
      </trkpt>
      <trkpt lat="43.85635" lon="7.01835">
        <ele>356.79998779297</ele>
        <time>2011-05-08T09:39:43.000Z</time>
      </trkpt>
      <trkpt lat="43.85643" lon="7.01814">
        <ele>357.60000610352</ele>
        <time>2011-05-08T09:39:46.000Z</time>
      </trkpt>
      <trkpt lat="43.85645" lon="7.01797">
        <ele>358.79998779297</ele>
        <time>2011-05-08T09:39:48.000Z</time>
      </trkpt>
      <trkpt lat="43.85646" lon="7.01788">
        <ele>359.39999389648</ele>
        <time>2011-05-08T09:39:49.000Z</time>
      </trkpt>
      <trkpt lat="43.85647" lon="7.01764">
        <ele>361.79998779297</ele>
        <time>2011-05-08T09:39:52.000Z</time>
      </trkpt>
      <trkpt lat="43.85646" lon="7.01755">
        <ele>362.79998779297</ele>
        <time>2011-05-08T09:39:53.000Z</time>
      </trkpt>
      <trkpt lat="43.85643" lon="7.0173">
        <ele>366.20001220703</ele>
        <time>2011-05-08T09:39:56.000Z</time>
      </trkpt>
      <trkpt lat="43.85642" lon="7.01714">
        <ele>368.39999389648</ele>
        <time>2011-05-08T09:39:58.000Z</time>
      </trkpt>
      <trkpt lat="43.85642" lon="7.01705">
        <ele>369</ele>
        <time>2011-05-08T09:39:59.000Z</time>
      </trkpt>
      <trkpt lat="43.85645" lon="7.01681">
        <ele>369.60000610352</ele>
        <time>2011-05-08T09:40:02.000Z</time>
      </trkpt>
      <trkpt lat="43.85649" lon="7.01656">
        <ele>369.39999389648</ele>
        <time>2011-05-08T09:40:05.000Z</time>
      </trkpt>
      <trkpt lat="43.85652" lon="7.01631">
        <ele>369.60000610352</ele>
        <time>2011-05-08T09:40:08.000Z</time>
      </trkpt>
      <trkpt lat="43.85654" lon="7.01623">
        <ele>369.39999389648</ele>
        <time>2011-05-08T09:40:09.000Z</time>
      </trkpt>
      <trkpt lat="43.85657" lon="7.01607">
        <ele>369</ele>
        <time>2011-05-08T09:40:11.000Z</time>
      </trkpt>
      <trkpt lat="43.85662" lon="7.01584">
        <ele>368.20001220703</ele>
        <time>2011-05-08T09:40:14.000Z</time>
      </trkpt>
      <trkpt lat="43.85664" lon="7.01576">
        <ele>368.39999389648</ele>
        <time>2011-05-08T09:40:15.000Z</time>
      </trkpt>
      <trkpt lat="43.85665" lon="7.01568">
        <ele>369</ele>
        <time>2011-05-08T09:40:16.000Z</time>
      </trkpt>
      <trkpt lat="43.85662" lon="7.01545">
        <ele>373.60000610352</ele>
        <time>2011-05-08T09:40:19.000Z</time>
      </trkpt>
      <trkpt lat="43.8566" lon="7.01537">
        <ele>375.39999389648</ele>
        <time>2011-05-08T09:40:20.000Z</time>
      </trkpt>
      <trkpt lat="43.85659" lon="7.01529">
        <ele>377</ele>
        <time>2011-05-08T09:40:21.000Z</time>
      </trkpt>
      <trkpt lat="43.8566" lon="7.01513">
        <ele>378.79998779297</ele>
        <time>2011-05-08T09:40:23.000Z</time>
      </trkpt>
      <trkpt lat="43.85673" lon="7.01502">
        <ele>378.20001220703</ele>
        <time>2011-05-08T09:40:26.000Z</time>
      </trkpt>
      <trkpt lat="43.85679" lon="7.01507">
        <ele>378</ele>
        <time>2011-05-08T09:40:27.000Z</time>
      </trkpt>
      <trkpt lat="43.8569" lon="7.01517">
        <ele>377.39999389648</ele>
        <time>2011-05-08T09:40:29.000Z</time>
      </trkpt>
      <trkpt lat="43.85693" lon="7.01522">
        <ele>376.79998779297</ele>
        <time>2011-05-08T09:40:30.000Z</time>
      </trkpt>
      <trkpt lat="43.85697" lon="7.01528">
        <ele>376</ele>
        <time>2011-05-08T09:40:31.000Z</time>
      </trkpt>
      <trkpt lat="43.85705" lon="7.01548">
        <ele>373</ele>
        <time>2011-05-08T09:40:34.000Z</time>
      </trkpt>
      <trkpt lat="43.85707" lon="7.01556">
        <ele>371.79998779297</ele>
        <time>2011-05-08T09:40:35.000Z</time>
      </trkpt>
      <trkpt lat="43.85709" lon="7.01572">
        <ele>369</ele>
        <time>2011-05-08T09:40:37.000Z</time>
      </trkpt>
      <trkpt lat="43.8571" lon="7.0158">
        <ele>367.60000610352</ele>
        <time>2011-05-08T09:40:38.000Z</time>
      </trkpt>
      <trkpt lat="43.85711" lon="7.01605">
        <ele>363.60000610352</ele>
        <time>2011-05-08T09:40:41.000Z</time>
      </trkpt>
      <trkpt lat="43.85711" lon="7.01613">
        <ele>362.39999389648</ele>
        <time>2011-05-08T09:40:42.000Z</time>
      </trkpt>
      <trkpt lat="43.8572" lon="7.01631">
        <ele>359</ele>
        <time>2011-05-08T09:40:45.000Z</time>
      </trkpt>
      <trkpt lat="43.85735" lon="7.01626">
        <ele>359</ele>
        <time>2011-05-08T09:40:48.000Z</time>
      </trkpt>
      <trkpt lat="43.85739" lon="7.0162">
        <ele>360</ele>
        <time>2011-05-08T09:40:49.000Z</time>
      </trkpt>
      <trkpt lat="43.85746" lon="7.01608">
        <ele>362.39999389648</ele>
        <time>2011-05-08T09:40:51.000Z</time>
      </trkpt>
      <trkpt lat="43.85754" lon="7.01596">
        <ele>366</ele>
        <time>2011-05-08T09:40:53.000Z</time>
      </trkpt>
      <trkpt lat="43.85759" lon="7.01589">
        <ele>368.79998779297</ele>
        <time>2011-05-08T09:40:54.000Z</time>
      </trkpt>
      <trkpt lat="43.85767" lon="7.01578">
        <ele>373.20001220703</ele>
        <time>2011-05-08T09:40:56.000Z</time>
      </trkpt>
      <trkpt lat="43.8577" lon="7.01573">
        <ele>375.20001220703</ele>
        <time>2011-05-08T09:40:57.000Z</time>
      </trkpt>
      <trkpt lat="43.85783" lon="7.01562">
        <ele>380.79998779297</ele>
        <time>2011-05-08T09:41:00.000Z</time>
      </trkpt>
      <trkpt lat="43.85789" lon="7.01564">
        <ele>381.60000610352</ele>
        <time>2011-05-08T09:41:01.000Z</time>
      </trkpt>
      <trkpt lat="43.85802" lon="7.01577">
        <ele>382.39999389648</ele>
        <time>2011-05-08T09:41:04.000Z</time>
      </trkpt>
      <trkpt lat="43.85807" lon="7.01581">
        <ele>382.60000610352</ele>
        <time>2011-05-08T09:41:05.000Z</time>
      </trkpt>
      <trkpt lat="43.85814" lon="7.01604">
        <ele>379.39999389648</ele>
        <time>2011-05-08T09:41:08.000Z</time>
      </trkpt>
      <trkpt lat="43.8581" lon="7.01628">
        <ele>373.20001220703</ele>
        <time>2011-05-08T09:41:11.000Z</time>
      </trkpt>
      <trkpt lat="43.85809" lon="7.01635">
        <ele>371.20001220703</ele>
        <time>2011-05-08T09:41:12.000Z</time>
      </trkpt>
      <trkpt lat="43.85803" lon="7.01663">
        <ele>363.60000610352</ele>
        <time>2011-05-08T09:41:16.000Z</time>
      </trkpt>
      <trkpt lat="43.85802" lon="7.0167">
        <ele>361.20001220703</ele>
        <time>2011-05-08T09:41:17.000Z</time>
      </trkpt>
      <trkpt lat="43.85802" lon="7.01678">
        <ele>358.79998779297</ele>
        <time>2011-05-08T09:41:18.000Z</time>
      </trkpt>
      <trkpt lat="43.85804" lon="7.01691">
        <ele>354.39999389648</ele>
        <time>2011-05-08T09:41:20.000Z</time>
      </trkpt>
      <trkpt lat="43.85807" lon="7.01697">
        <ele>353</ele>
        <time>2011-05-08T09:41:21.000Z</time>
      </trkpt>
      <trkpt lat="43.8582" lon="7.01706">
        <ele>351.20001220703</ele>
        <time>2011-05-08T09:41:24.000Z</time>
      </trkpt>
      <trkpt lat="43.85825" lon="7.01707">
        <ele>351.39999389648</ele>
        <time>2011-05-08T09:41:25.000Z</time>
      </trkpt>
      <trkpt lat="43.85836" lon="7.01708">
        <ele>352.20001220703</ele>
        <time>2011-05-08T09:41:27.000Z</time>
      </trkpt>
      <trkpt lat="43.85841" lon="7.01708">
        <ele>351.79998779297</ele>
        <time>2011-05-08T09:41:28.000Z</time>
      </trkpt>
      <trkpt lat="43.85846" lon="7.01708">
        <ele>351.39999389648</ele>
        <time>2011-05-08T09:41:29.000Z</time>
      </trkpt>
      <trkpt lat="43.85857" lon="7.01708">
        <ele>351</ele>
        <time>2011-05-08T09:41:31.000Z</time>
      </trkpt>
      <trkpt lat="43.85862" lon="7.01708">
        <ele>350.79998779297</ele>
        <time>2011-05-08T09:41:32.000Z</time>
      </trkpt>
      <trkpt lat="43.85884" lon="7.01704">
        <ele>352</ele>
        <time>2011-05-08T09:41:36.000Z</time>
      </trkpt>
      <trkpt lat="43.8589" lon="7.01701">
        <ele>353.20001220703</ele>
        <time>2011-05-08T09:41:37.000Z</time>
      </trkpt>
      <trkpt lat="43.85901" lon="7.01695">
        <ele>356</ele>
        <time>2011-05-08T09:41:39.000Z</time>
      </trkpt>
      <trkpt lat="43.85906" lon="7.01691">
        <ele>357.79998779297</ele>
        <time>2011-05-08T09:41:40.000Z</time>
      </trkpt>
      <trkpt lat="43.85921" lon="7.01682">
        <ele>362</ele>
        <time>2011-05-08T09:41:43.000Z</time>
      </trkpt>
      <trkpt lat="43.85927" lon="7.01681">
        <ele>362.39999389648</ele>
        <time>2011-05-08T09:41:44.000Z</time>
      </trkpt>
      <trkpt lat="43.85944" lon="7.0168">
        <ele>360.79998779297</ele>
        <time>2011-05-08T09:41:47.000Z</time>
      </trkpt>
      <trkpt lat="43.8595" lon="7.0168">
        <ele>360.20001220703</ele>
        <time>2011-05-08T09:41:48.000Z</time>
      </trkpt>
      <trkpt lat="43.85961" lon="7.01678">
        <ele>360</ele>
        <time>2011-05-08T09:41:50.000Z</time>
      </trkpt>
      <trkpt lat="43.85971" lon="7.01674">
        <ele>361</ele>
        <time>2011-05-08T09:41:52.000Z</time>
      </trkpt>
      <trkpt lat="43.85986" lon="7.01666">
        <ele>363.79998779297</ele>
        <time>2011-05-08T09:41:55.000Z</time>
      </trkpt>
      <trkpt lat="43.85992" lon="7.01664">
        <ele>363.79998779297</ele>
        <time>2011-05-08T09:41:56.000Z</time>
      </trkpt>
      <trkpt lat="43.85998" lon="7.01664">
        <ele>363.20001220703</ele>
        <time>2011-05-08T09:41:57.000Z</time>
      </trkpt>
      <trkpt lat="43.86015" lon="7.01668">
        <ele>358.79998779297</ele>
        <time>2011-05-08T09:42:00.000Z</time>
      </trkpt>
      <trkpt lat="43.8602" lon="7.01668">
        <ele>357.79998779297</ele>
        <time>2011-05-08T09:42:01.000Z</time>
      </trkpt>
      <trkpt lat="43.86026" lon="7.01667">
        <ele>357.20001220703</ele>
        <time>2011-05-08T09:42:02.000Z</time>
      </trkpt>
      <trkpt lat="43.86037" lon="7.01663">
        <ele>357.39999389648</ele>
        <time>2011-05-08T09:42:04.000Z</time>
      </trkpt>
      <trkpt lat="43.86048" lon="7.01657">
        <ele>358.79998779297</ele>
        <time>2011-05-08T09:42:06.000Z</time>
      </trkpt>
      <trkpt lat="43.86054" lon="7.01653">
        <ele>360</ele>
        <time>2011-05-08T09:42:07.000Z</time>
      </trkpt>
      <trkpt lat="43.86064" lon="7.01646">
        <ele>361.79998779297</ele>
        <time>2011-05-08T09:42:09.000Z</time>
      </trkpt>
      <trkpt lat="43.86075" lon="7.01646">
        <ele>360</ele>
        <time>2011-05-08T09:42:11.000Z</time>
      </trkpt>
      <trkpt lat="43.86094" lon="7.0166">
        <ele>352.20001220703</ele>
        <time>2011-05-08T09:42:15.000Z</time>
      </trkpt>
      <trkpt lat="43.86109" lon="7.01659">
        <ele>354</ele>
        <time>2011-05-08T09:42:18.000Z</time>
      </trkpt>
      <trkpt lat="43.86114" lon="7.01655">
        <ele>356.20001220703</ele>
        <time>2011-05-08T09:42:19.000Z</time>
      </trkpt>
      <trkpt lat="43.86128" lon="7.01642">
        <ele>363.39999389648</ele>
        <time>2011-05-08T09:42:22.000Z</time>
      </trkpt>
      <trkpt lat="43.86133" lon="7.0164">
        <ele>364.79998779297</ele>
        <time>2011-05-08T09:42:23.000Z</time>
      </trkpt>
      <trkpt lat="43.86143" lon="7.01644">
        <ele>363.20001220703</ele>
        <time>2011-05-08T09:42:25.000Z</time>
      </trkpt>
      <trkpt lat="43.8615" lon="7.01656">
        <ele>358.20001220703</ele>
        <time>2011-05-08T09:42:27.000Z</time>
      </trkpt>
      <trkpt lat="43.86153" lon="7.01663">
        <ele>355.60000610352</ele>
        <time>2011-05-08T09:42:28.000Z</time>
      </trkpt>
      <trkpt lat="43.86157" lon="7.01668">
        <ele>353.79998779297</ele>
        <time>2011-05-08T09:42:29.000Z</time>
      </trkpt>
      <trkpt lat="43.86168" lon="7.01674">
        <ele>351.60000610352</ele>
        <time>2011-05-08T09:42:31.000Z</time>
      </trkpt>
      <trkpt lat="43.86179" lon="7.01677">
        <ele>350.39999389648</ele>
        <time>2011-05-08T09:42:33.000Z</time>
      </trkpt>
      <trkpt lat="43.86191" lon="7.01678">
        <ele>351</ele>
        <time>2011-05-08T09:42:35.000Z</time>
      </trkpt>
      <trkpt lat="43.86197" lon="7.01677">
        <ele>351.39999389648</ele>
        <time>2011-05-08T09:42:36.000Z</time>
      </trkpt>
      <trkpt lat="43.86209" lon="7.01677">
        <ele>352.39999389648</ele>
        <time>2011-05-08T09:42:38.000Z</time>
      </trkpt>
      <trkpt lat="43.86215" lon="7.01677">
        <ele>352.60000610352</ele>
        <time>2011-05-08T09:42:39.000Z</time>
      </trkpt>
      <trkpt lat="43.86221" lon="7.01678">
        <ele>352.60000610352</ele>
        <time>2011-05-08T09:42:40.000Z</time>
      </trkpt>
      <trkpt lat="43.86232" lon="7.01682">
        <ele>350.79998779297</ele>
        <time>2011-05-08T09:42:42.000Z</time>
      </trkpt>
      <trkpt lat="43.86238" lon="7.01685">
        <ele>349.79998779297</ele>
        <time>2011-05-08T09:42:43.000Z</time>
      </trkpt>
      <trkpt lat="43.86256" lon="7.0169">
        <ele>346.39999389648</ele>
        <time>2011-05-08T09:42:46.000Z</time>
      </trkpt>
      <trkpt lat="43.86267" lon="7.01688">
        <ele>344.20001220703</ele>
        <time>2011-05-08T09:42:48.000Z</time>
      </trkpt>
      <trkpt lat="43.86278" lon="7.01684">
        <ele>343.79998779297</ele>
        <time>2011-05-08T09:42:50.000Z</time>
      </trkpt>
      <trkpt lat="43.86294" lon="7.01675">
        <ele>343.60000610352</ele>
        <time>2011-05-08T09:42:53.000Z</time>
      </trkpt>
      <trkpt lat="43.86298" lon="7.01675">
        <ele>342.39999389648</ele>
        <time>2011-05-08T09:42:54.000Z</time>
      </trkpt>
      <trkpt lat="43.86317" lon="7.01669">
        <ele>339.60000610352</ele>
        <time>2011-05-08T09:42:57.000Z</time>
      </trkpt>
      <trkpt lat="43.86331" lon="7.01658">
        <ele>341.60000610352</ele>
        <time>2011-05-08T09:43:00.000Z</time>
      </trkpt>
      <trkpt lat="43.86334" lon="7.01651">
        <ele>344</ele>
        <time>2011-05-08T09:43:01.000Z</time>
      </trkpt>
      <trkpt lat="43.86338" lon="7.01645">
        <ele>346.60000610352</ele>
        <time>2011-05-08T09:43:02.000Z</time>
      </trkpt>
      <trkpt lat="43.86349" lon="7.01626">
        <ele>351.60000610352</ele>
        <time>2011-05-08T09:43:05.000Z</time>
      </trkpt>
      <trkpt lat="43.86353" lon="7.0162">
        <ele>352.79998779297</ele>
        <time>2011-05-08T09:43:06.000Z</time>
      </trkpt>
      <trkpt lat="43.86365" lon="7.01603">
        <ele>355</ele>
        <time>2011-05-08T09:43:09.000Z</time>
      </trkpt>
      <trkpt lat="43.86379" lon="7.01586">
        <ele>354.79998779297</ele>
        <time>2011-05-08T09:43:12.000Z</time>
      </trkpt>
      <trkpt lat="43.86389" lon="7.01575">
        <ele>354.39999389648</ele>
        <time>2011-05-08T09:43:14.000Z</time>
      </trkpt>
      <trkpt lat="43.86394" lon="7.0157">
        <ele>353.39999389648</ele>
        <time>2011-05-08T09:43:15.000Z</time>
      </trkpt>
      <trkpt lat="43.8641" lon="7.01556">
        <ele>349</ele>
        <time>2011-05-08T09:43:18.000Z</time>
      </trkpt>
      <trkpt lat="43.86418" lon="7.01543">
        <ele>348.79998779297</ele>
        <time>2011-05-08T09:43:20.000Z</time>
      </trkpt>
      <trkpt lat="43.86422" lon="7.01528">
        <ele>352</ele>
        <time>2011-05-08T09:43:22.000Z</time>
      </trkpt>
      <trkpt lat="43.86431" lon="7.01506">
        <ele>354.79998779297</ele>
        <time>2011-05-08T09:43:25.000Z</time>
      </trkpt>
      <trkpt lat="43.86441" lon="7.01485">
        <ele>354.79998779297</ele>
        <time>2011-05-08T09:43:28.000Z</time>
      </trkpt>
      <trkpt lat="43.86451" lon="7.01464">
        <ele>353.20001220703</ele>
        <time>2011-05-08T09:43:31.000Z</time>
      </trkpt>
      <trkpt lat="43.86455" lon="7.01457">
        <ele>352.20001220703</ele>
        <time>2011-05-08T09:43:32.000Z</time>
      </trkpt>
      <trkpt lat="43.86464" lon="7.01446">
        <ele>349</ele>
        <time>2011-05-08T09:43:34.000Z</time>
      </trkpt>
      <trkpt lat="43.86473" lon="7.01433">
        <ele>345.79998779297</ele>
        <time>2011-05-08T09:43:36.000Z</time>
      </trkpt>
      <trkpt lat="43.86476" lon="7.01426">
        <ele>345.20001220703</ele>
        <time>2011-05-08T09:43:37.000Z</time>
      </trkpt>
      <trkpt lat="43.8648" lon="7.0141">
        <ele>345.39999389648</ele>
        <time>2011-05-08T09:43:39.000Z</time>
      </trkpt>
      <trkpt lat="43.86482" lon="7.01394">
        <ele>346.79998779297</ele>
        <time>2011-05-08T09:43:41.000Z</time>
      </trkpt>
      <trkpt lat="43.86483" lon="7.01387">
        <ele>348.20001220703</ele>
        <time>2011-05-08T09:43:42.000Z</time>
      </trkpt>
      <trkpt lat="43.8648" lon="7.01372">
        <ele>352.60000610352</ele>
        <time>2011-05-08T09:43:44.000Z</time>
      </trkpt>
      <trkpt lat="43.86478" lon="7.01365">
        <ele>355.39999389648</ele>
        <time>2011-05-08T09:43:45.000Z</time>
      </trkpt>
      <trkpt lat="43.86476" lon="7.01358">
        <ele>358</ele>
        <time>2011-05-08T09:43:46.000Z</time>
      </trkpt>
      <trkpt lat="43.86478" lon="7.01343">
        <ele>360.20001220703</ele>
        <time>2011-05-08T09:43:48.000Z</time>
      </trkpt>
      <trkpt lat="43.8648" lon="7.01338">
        <ele>359.20001220703</ele>
        <time>2011-05-08T09:43:49.000Z</time>
      </trkpt>
      <trkpt lat="43.86488" lon="7.01329">
        <ele>355.79998779297</ele>
        <time>2011-05-08T09:43:51.000Z</time>
      </trkpt>
      <trkpt lat="43.86496" lon="7.01317">
        <ele>352.79998779297</ele>
        <time>2011-05-08T09:43:53.000Z</time>
      </trkpt>
      <trkpt lat="43.86502" lon="7.01303">
        <ele>351.79998779297</ele>
        <time>2011-05-08T09:43:55.000Z</time>
      </trkpt>
      <trkpt lat="43.86507" lon="7.01288">
        <ele>352.20001220703</ele>
        <time>2011-05-08T09:43:57.000Z</time>
      </trkpt>
      <trkpt lat="43.8651" lon="7.01265">
        <ele>355</ele>
        <time>2011-05-08T09:44:00.000Z</time>
      </trkpt>
      <trkpt lat="43.8651" lon="7.01256">
        <ele>356.60000610352</ele>
        <time>2011-05-08T09:44:01.000Z</time>
      </trkpt>
      <trkpt lat="43.86511" lon="7.01248">
        <ele>357.60000610352</ele>
        <time>2011-05-08T09:44:02.000Z</time>
      </trkpt>
      <trkpt lat="43.86517" lon="7.01235">
        <ele>356.39999389648</ele>
        <time>2011-05-08T09:44:04.000Z</time>
      </trkpt>
      <trkpt lat="43.86521" lon="7.0123">
        <ele>355.20001220703</ele>
        <time>2011-05-08T09:44:05.000Z</time>
      </trkpt>
      <trkpt lat="43.86524" lon="7.01223">
        <ele>354.20001220703</ele>
        <time>2011-05-08T09:44:06.000Z</time>
      </trkpt>
      <trkpt lat="43.86532" lon="7.01201">
        <ele>353.20001220703</ele>
        <time>2011-05-08T09:44:09.000Z</time>
      </trkpt>
      <trkpt lat="43.86535" lon="7.01185">
        <ele>353.60000610352</ele>
        <time>2011-05-08T09:44:11.000Z</time>
      </trkpt>
      <trkpt lat="43.86537" lon="7.01177">
        <ele>353.79998779297</ele>
        <time>2011-05-08T09:44:12.000Z</time>
      </trkpt>
      <trkpt lat="43.86541" lon="7.01153">
        <ele>355.39999389648</ele>
        <time>2011-05-08T09:44:15.000Z</time>
      </trkpt>
      <trkpt lat="43.86544" lon="7.01136">
        <ele>356.79998779297</ele>
        <time>2011-05-08T09:44:17.000Z</time>
      </trkpt>
      <trkpt lat="43.86547" lon="7.01129">
        <ele>356.79998779297</ele>
        <time>2011-05-08T09:44:18.000Z</time>
      </trkpt>
      <trkpt lat="43.86553" lon="7.01114">
        <ele>355.39999389648</ele>
        <time>2011-05-08T09:44:20.000Z</time>
      </trkpt>
      <trkpt lat="43.86556" lon="7.01107">
        <ele>354.39999389648</ele>
        <time>2011-05-08T09:44:21.000Z</time>
      </trkpt>
      <trkpt lat="43.86563" lon="7.01084">
        <ele>352.60000610352</ele>
        <time>2011-05-08T09:44:24.000Z</time>
      </trkpt>
      <trkpt lat="43.86566" lon="7.01067">
        <ele>353</ele>
        <time>2011-05-08T09:44:26.000Z</time>
      </trkpt>
      <trkpt lat="43.86568" lon="7.01059">
        <ele>353.39999389648</ele>
        <time>2011-05-08T09:44:27.000Z</time>
      </trkpt>
      <trkpt lat="43.86573" lon="7.01034">
        <ele>353.60000610352</ele>
        <time>2011-05-08T09:44:30.000Z</time>
      </trkpt>
      <trkpt lat="43.86576" lon="7.01017">
        <ele>353.60000610352</ele>
        <time>2011-05-08T09:44:32.000Z</time>
      </trkpt>
      <trkpt lat="43.86578" lon="7.01009">
        <ele>353.60000610352</ele>
        <time>2011-05-08T09:44:33.000Z</time>
      </trkpt>
      <trkpt lat="43.86582" lon="7.00984">
        <ele>353.39999389648</ele>
        <time>2011-05-08T09:44:36.000Z</time>
      </trkpt>
      <trkpt lat="43.86586" lon="7.00967">
        <ele>352.79998779297</ele>
        <time>2011-05-08T09:44:38.000Z</time>
      </trkpt>
      <trkpt lat="43.86588" lon="7.00959">
        <ele>352.79998779297</ele>
        <time>2011-05-08T09:44:39.000Z</time>
      </trkpt>
      <trkpt lat="43.86592" lon="7.00933">
        <ele>353</ele>
        <time>2011-05-08T09:44:42.000Z</time>
      </trkpt>
      <trkpt lat="43.86597" lon="7.00908">
        <ele>352.79998779297</ele>
        <time>2011-05-08T09:44:45.000Z</time>
      </trkpt>
      <trkpt lat="43.866" lon="7.00882">
        <ele>352.60000610352</ele>
        <time>2011-05-08T09:44:48.000Z</time>
      </trkpt>
      <trkpt lat="43.86604" lon="7.00856">
        <ele>352.39999389648</ele>
        <time>2011-05-08T09:44:51.000Z</time>
      </trkpt>
      <trkpt lat="43.86606" lon="7.00839">
        <ele>352.39999389648</ele>
        <time>2011-05-08T09:44:53.000Z</time>
      </trkpt>
      <trkpt lat="43.86608" lon="7.0083">
        <ele>352</ele>
        <time>2011-05-08T09:44:54.000Z</time>
      </trkpt>
      <trkpt lat="43.86612" lon="7.00804">
        <ele>352</ele>
        <time>2011-05-08T09:44:57.000Z</time>
      </trkpt>
      <trkpt lat="43.86615" lon="7.00778">
        <ele>351.79998779297</ele>
        <time>2011-05-08T09:45:00.000Z</time>
      </trkpt>
      <trkpt lat="43.86617" lon="7.0077">
        <ele>351.79998779297</ele>
        <time>2011-05-08T09:45:01.000Z</time>
      </trkpt>
      <trkpt lat="43.86617" lon="7.00762">
        <ele>352.20001220703</ele>
        <time>2011-05-08T09:45:02.000Z</time>
      </trkpt>
      <trkpt lat="43.86617" lon="7.00753">
        <ele>353</ele>
        <time>2011-05-08T09:45:03.000Z</time>
      </trkpt>
      <trkpt lat="43.86613" lon="7.00737">
        <ele>357.60000610352</ele>
        <time>2011-05-08T09:45:05.000Z</time>
      </trkpt>
      <trkpt lat="43.8661" lon="7.0073">
        <ele>360.39999389648</ele>
        <time>2011-05-08T09:45:06.000Z</time>
      </trkpt>
      <trkpt lat="43.86608" lon="7.00723">
        <ele>362.79998779297</ele>
        <time>2011-05-08T09:45:07.000Z</time>
      </trkpt>
      <trkpt lat="43.86615" lon="7.0071">
        <ele>360.79998779297</ele>
        <time>2011-05-08T09:45:09.000Z</time>
      </trkpt>
      <trkpt lat="43.86627" lon="7.00705">
        <ele>353.79998779297</ele>
        <time>2011-05-08T09:45:11.000Z</time>
      </trkpt>
      <trkpt lat="43.86633" lon="7.00704">
        <ele>350.39999389648</ele>
        <time>2011-05-08T09:45:12.000Z</time>
      </trkpt>
      <trkpt lat="43.86648" lon="7.00698">
        <ele>342.20001220703</ele>
        <time>2011-05-08T09:45:15.000Z</time>
      </trkpt>
      <trkpt lat="43.86652" lon="7.00693">
        <ele>340.60000610352</ele>
        <time>2011-05-08T09:45:16.000Z</time>
      </trkpt>
      <trkpt lat="43.86654" lon="7.0067">
        <ele>342.20001220703</ele>
        <time>2011-05-08T09:45:19.000Z</time>
      </trkpt>
      <trkpt lat="43.86652" lon="7.00661">
        <ele>345</ele>
        <time>2011-05-08T09:45:20.000Z</time>
      </trkpt>
      <trkpt lat="43.8665" lon="7.00652">
        <ele>347.60000610352</ele>
        <time>2011-05-08T09:45:21.000Z</time>
      </trkpt>
      <trkpt lat="43.86648" lon="7.00643">
        <ele>350</ele>
        <time>2011-05-08T09:45:22.000Z</time>
      </trkpt>
      <trkpt lat="43.86648" lon="7.00633">
        <ele>351.39999389648</ele>
        <time>2011-05-08T09:45:23.000Z</time>
      </trkpt>
      <trkpt lat="43.86649" lon="7.00606">
        <ele>354.60000610352</ele>
        <time>2011-05-08T09:45:26.000Z</time>
      </trkpt>
      <trkpt lat="43.86651" lon="7.00588">
        <ele>356.60000610352</ele>
        <time>2011-05-08T09:45:28.000Z</time>
      </trkpt>
      <trkpt lat="43.86653" lon="7.00581">
        <ele>357.20001220703</ele>
        <time>2011-05-08T09:45:29.000Z</time>
      </trkpt>
      <trkpt lat="43.86663" lon="7.00572">
        <ele>356.39999389648</ele>
        <time>2011-05-08T09:45:31.000Z</time>
      </trkpt>
      <trkpt lat="43.86669" lon="7.0057">
        <ele>355.20001220703</ele>
        <time>2011-05-08T09:45:32.000Z</time>
      </trkpt>
      <trkpt lat="43.86683" lon="7.00572">
        <ele>352</ele>
        <time>2011-05-08T09:45:34.000Z</time>
      </trkpt>
      <trkpt lat="43.8669" lon="7.00574">
        <ele>349.60000610352</ele>
        <time>2011-05-08T09:45:35.000Z</time>
      </trkpt>
      <trkpt lat="43.86697" lon="7.00577">
        <ele>347.39999389648</ele>
        <time>2011-05-08T09:45:36.000Z</time>
      </trkpt>
      <trkpt lat="43.86711" lon="7.00583">
        <ele>343.20001220703</ele>
        <time>2011-05-08T09:45:38.000Z</time>
      </trkpt>
      <trkpt lat="43.86717" lon="7.00583">
        <ele>342</ele>
        <time>2011-05-08T09:45:39.000Z</time>
      </trkpt>
      <trkpt lat="43.86728" lon="7.00576">
        <ele>342</ele>
        <time>2011-05-08T09:45:41.000Z</time>
      </trkpt>
      <trkpt lat="43.86733" lon="7.00569">
        <ele>343.20001220703</ele>
        <time>2011-05-08T09:45:42.000Z</time>
      </trkpt>
      <trkpt lat="43.86738" lon="7.00551">
        <ele>347.20001220703</ele>
        <time>2011-05-08T09:45:44.000Z</time>
      </trkpt>
      <trkpt lat="43.8674" lon="7.00542">
        <ele>349.20001220703</ele>
        <time>2011-05-08T09:45:45.000Z</time>
      </trkpt>
      <trkpt lat="43.86743" lon="7.0053">
        <ele>351.60000610352</ele>
        <time>2011-05-08T09:45:46.000Z</time>
      </trkpt>
      <trkpt lat="43.86747" lon="7.00525">
        <ele>352</ele>
        <time>2011-05-08T09:45:47.000Z</time>
      </trkpt>
      <trkpt lat="43.86752" lon="7.0052">
        <ele>352.20001220703</ele>
        <time>2011-05-08T09:45:48.000Z</time>
      </trkpt>
      <trkpt lat="43.86766" lon="7.00505">
        <ele>351.79998779297</ele>
        <time>2011-05-08T09:45:51.000Z</time>
      </trkpt>
      <trkpt lat="43.86771" lon="7.00499">
        <ele>352.20001220703</ele>
        <time>2011-05-08T09:45:52.000Z</time>
      </trkpt>
      <trkpt lat="43.86781" lon="7.0049">
        <ele>352.39999389648</ele>
        <time>2011-05-08T09:45:54.000Z</time>
      </trkpt>
      <trkpt lat="43.86793" lon="7.00485">
        <ele>350.79998779297</ele>
        <time>2011-05-08T09:45:56.000Z</time>
      </trkpt>
      <trkpt lat="43.868" lon="7.00482">
        <ele>350</ele>
        <time>2011-05-08T09:45:57.000Z</time>
      </trkpt>
      <trkpt lat="43.86809" lon="7.0048">
        <ele>348.20001220703</ele>
        <time>2011-05-08T09:45:58.000Z</time>
      </trkpt>
      <trkpt lat="43.86823" lon="7.00474">
        <ele>346.60000610352</ele>
        <time>2011-05-08T09:46:00.000Z</time>
      </trkpt>
      <trkpt lat="43.86834" lon="7.00471">
        <ele>344.60000610352</ele>
        <time>2011-05-08T09:46:02.000Z</time>
      </trkpt>
      <trkpt lat="43.8684" lon="7.00471">
        <ele>343.79998779297</ele>
        <time>2011-05-08T09:46:04.000Z</time>
      </trkpt>
      <trkpt lat="43.86842" lon="7.00469">
        <ele>344.39999389648</ele>
        <time>2011-05-08T09:46:05.000Z</time>
      </trkpt>
      <trkpt lat="43.86838" lon="7.00463">
        <ele>347</ele>
        <time>2011-05-08T09:46:08.000Z</time>
      </trkpt>
      <trkpt lat="43.86834" lon="7.00463">
        <ele>347.60000610352</ele>
        <time>2011-05-08T09:46:10.000Z</time>
      </trkpt>
      <trkpt lat="43.86826" lon="7.00462">
        <ele>350.20001220703</ele>
        <time>2011-05-08T09:46:14.000Z</time>
      </trkpt>
      <trkpt lat="43.8682" lon="7.00465">
        <ele>350.60000610352</ele>
        <time>2011-05-08T09:46:16.000Z</time>
      </trkpt>
      <trkpt lat="43.8681" lon="7.00466">
        <ele>353</ele>
        <time>2011-05-08T09:46:21.000Z</time>
      </trkpt>
      <trkpt lat="43.86808" lon="7.00466">
        <ele>353.39999389648</ele>
        <time>2011-05-08T09:46:22.000Z</time>
      </trkpt>
      <trkpt lat="43.86796" lon="7.00467">
        <ele>356.39999389648</ele>
        <time>2011-05-08T09:46:28.000Z</time>
      </trkpt>
      <trkpt lat="43.8679" lon="7.00468">
        <ele>357.79998779297</ele>
        <time>2011-05-08T09:46:31.000Z</time>
      </trkpt>
      <trkpt lat="43.86782" lon="7.00472">
        <ele>358.20001220703</ele>
        <time>2011-05-08T09:46:34.000Z</time>
      </trkpt>
      <trkpt lat="43.86772" lon="7.00476">
        <ele>359.60000610352</ele>
        <time>2011-05-08T09:46:39.000Z</time>
      </trkpt>
      <trkpt lat="43.86769" lon="7.00479">
        <ele>359.79998779297</ele>
        <time>2011-05-08T09:46:41.000Z</time>
      </trkpt>
      <trkpt lat="43.8676" lon="7.0049">
        <ele>358.39999389648</ele>
        <time>2011-05-08T09:46:48.000Z</time>
      </trkpt>
      <trkpt lat="43.86757" lon="7.00493">
        <ele>358.20001220703</ele>
        <time>2011-05-08T09:46:50.000Z</time>
      </trkpt>
      <trkpt lat="43.8675" lon="7.00496">
        <ele>359.39999389648</ele>
        <time>2011-05-08T09:46:55.000Z</time>
      </trkpt>
      <trkpt lat="43.86741" lon="7.00495">
        <ele>362.20001220703</ele>
        <time>2011-05-08T09:47:01.000Z</time>
      </trkpt>
      <trkpt lat="43.86739" lon="7.00495">
        <ele>362.79998779297</ele>
        <time>2011-05-08T09:47:02.000Z</time>
      </trkpt>
      <trkpt lat="43.86738" lon="7.00495">
        <ele>363</ele>
        <time>2011-05-08T09:47:03.000Z</time>
      </trkpt>
      <trkpt lat="43.86733" lon="7.00494">
        <ele>364.79998779297</ele>
        <time>2011-05-08T09:47:07.000Z</time>
      </trkpt>
      <trkpt lat="43.86725" lon="7.00499">
        <ele>365.20001220703</ele>
        <time>2011-05-08T09:47:13.000Z</time>
      </trkpt>
      <trkpt lat="43.86722" lon="7.00503">
        <ele>364.79998779297</ele>
        <time>2011-05-08T09:47:16.000Z</time>
      </trkpt>
      <trkpt lat="43.86716" lon="7.00511">
        <ele>363.79998779297</ele>
        <time>2011-05-08T09:47:21.000Z</time>
      </trkpt>
      <trkpt lat="43.8671" lon="7.00522">
        <ele>362.20001220703</ele>
        <time>2011-05-08T09:47:27.000Z</time>
      </trkpt>
      <trkpt lat="43.86708" lon="7.00525">
        <ele>361.60000610352</ele>
        <time>2011-05-08T09:47:29.000Z</time>
      </trkpt>
      <trkpt lat="43.86702" lon="7.0053">
        <ele>361.60000610352</ele>
        <time>2011-05-08T09:47:34.000Z</time>
      </trkpt>
      <trkpt lat="43.86698" lon="7.0053">
        <ele>362.39999389648</ele>
        <time>2011-05-08T09:47:36.000Z</time>
      </trkpt>
      <trkpt lat="43.86694" lon="7.00528">
        <ele>364.20001220703</ele>
        <time>2011-05-08T09:47:39.000Z</time>
      </trkpt>
      <trkpt lat="43.86692" lon="7.00527">
        <ele>365</ele>
        <time>2011-05-08T09:47:40.000Z</time>
      </trkpt>
      <trkpt lat="43.86687" lon="7.00524">
        <ele>367.39999389648</ele>
        <time>2011-05-08T09:47:44.000Z</time>
      </trkpt>
      <trkpt lat="43.86677" lon="7.00526">
        <ele>369</ele>
        <time>2011-05-08T09:47:51.000Z</time>
      </trkpt>
      <trkpt lat="43.86676" lon="7.00528">
        <ele>368.79998779297</ele>
        <time>2011-05-08T09:47:52.000Z</time>
      </trkpt>
      <trkpt lat="43.86667" lon="7.00532">
        <ele>369.20001220703</ele>
        <time>2011-05-08T09:47:58.000Z</time>
      </trkpt>
      <trkpt lat="43.86657" lon="7.0053">
        <ele>372.79998779297</ele>
        <time>2011-05-08T09:48:04.000Z</time>
      </trkpt>
      <trkpt lat="43.86654" lon="7.00529">
        <ele>374</ele>
        <time>2011-05-08T09:48:06.000Z</time>
      </trkpt>
      <trkpt lat="43.86638" lon="7.00526">
        <ele>379.20001220703</ele>
        <time>2011-05-08T09:48:16.000Z</time>
      </trkpt>
      <trkpt lat="43.86623" lon="7.00526">
        <ele>383.39999389648</ele>
        <time>2011-05-08T09:48:25.000Z</time>
      </trkpt>
      <trkpt lat="43.86619" lon="7.00526">
        <ele>384.20001220703</ele>
        <time>2011-05-08T09:48:27.000Z</time>
      </trkpt>
      <trkpt lat="43.86612" lon="7.00524">
        <ele>386.60000610352</ele>
        <time>2011-05-08T09:48:32.000Z</time>
      </trkpt>
      <trkpt lat="43.86601" lon="7.00523">
        <ele>389.60000610352</ele>
        <time>2011-05-08T09:48:39.000Z</time>
      </trkpt>
      <trkpt lat="43.86592" lon="7.00516">
        <ele>393.20001220703</ele>
        <time>2011-05-08T09:48:46.000Z</time>
      </trkpt>
      <trkpt lat="43.86586" lon="7.00509">
        <ele>395.79998779297</ele>
        <time>2011-05-08T09:48:51.000Z</time>
      </trkpt>
      <trkpt lat="43.8658" lon="7.00503">
        <ele>398.39999389648</ele>
        <time>2011-05-08T09:48:56.000Z</time>
      </trkpt>
      <trkpt lat="43.86569" lon="7.005">
        <ele>402.20001220703</ele>
        <time>2011-05-08T09:49:04.000Z</time>
      </trkpt>
      <trkpt lat="43.86566" lon="7.005">
        <ele>403</ele>
        <time>2011-05-08T09:49:06.000Z</time>
      </trkpt>
      <trkpt lat="43.86557" lon="7.00506">
        <ele>405.20001220703</ele>
        <time>2011-05-08T09:49:12.000Z</time>
      </trkpt>
      <trkpt lat="43.86556" lon="7.00509">
        <ele>405.20001220703</ele>
        <time>2011-05-08T09:49:13.000Z</time>
      </trkpt>
      <trkpt lat="43.86556" lon="7.00512">
        <ele>405.20001220703</ele>
        <time>2011-05-08T09:49:14.000Z</time>
      </trkpt>
      <trkpt lat="43.86557" lon="7.00521">
        <ele>404.39999389648</ele>
        <time>2011-05-08T09:49:17.000Z</time>
      </trkpt>
      <trkpt lat="43.86558" lon="7.00523">
        <ele>404</ele>
        <time>2011-05-08T09:49:18.000Z</time>
      </trkpt>
      <trkpt lat="43.86563" lon="7.00537">
        <ele>401.20001220703</ele>
        <time>2011-05-08T09:49:24.000Z</time>
      </trkpt>
      <trkpt lat="43.86564" lon="7.00542">
        <ele>400.20001220703</ele>
        <time>2011-05-08T09:49:26.000Z</time>
      </trkpt>
      <trkpt lat="43.86568" lon="7.00561">
        <ele>396.79998779297</ele>
        <time>2011-05-08T09:49:34.000Z</time>
      </trkpt>
      <trkpt lat="43.86568" lon="7.00563">
        <ele>396.39999389648</ele>
        <time>2011-05-08T09:49:35.000Z</time>
      </trkpt>
      <trkpt lat="43.86571" lon="7.00577">
        <ele>393.20001220703</ele>
        <time>2011-05-08T09:49:42.000Z</time>
      </trkpt>
      <trkpt lat="43.86572" lon="7.00586">
        <ele>391.79998779297</ele>
        <time>2011-05-08T09:49:46.000Z</time>
      </trkpt>
      <trkpt lat="43.86575" lon="7.00592">
        <ele>390.20001220703</ele>
        <time>2011-05-08T09:49:49.000Z</time>
      </trkpt>
      <trkpt lat="43.8658" lon="7.00603">
        <ele>387.20001220703</ele>
        <time>2011-05-08T09:49:56.000Z</time>
      </trkpt>
      <trkpt lat="43.86582" lon="7.00608">
        <ele>386.20001220703</ele>
        <time>2011-05-08T09:49:58.000Z</time>
      </trkpt>
      <trkpt lat="43.86585" lon="7.0062">
        <ele>385</ele>
        <time>2011-05-08T09:50:03.000Z</time>
      </trkpt>
      <trkpt lat="43.86583" lon="7.00634">
        <ele>386.39999389648</ele>
        <time>2011-05-08T09:50:09.000Z</time>
      </trkpt>
      <trkpt lat="43.86582" lon="7.00638">
        <ele>387.20001220703</ele>
        <time>2011-05-08T09:50:11.000Z</time>
      </trkpt>
      <trkpt lat="43.86579" lon="7.00651">
        <ele>389.20001220703</ele>
        <time>2011-05-08T09:50:17.000Z</time>
      </trkpt>
      <trkpt lat="43.86577" lon="7.00657">
        <ele>390.60000610352</ele>
        <time>2011-05-08T09:50:21.000Z</time>
      </trkpt>
      <trkpt lat="43.86575" lon="7.00661">
        <ele>391.79998779297</ele>
        <time>2011-05-08T09:50:24.000Z</time>
      </trkpt>
      <trkpt lat="43.86568" lon="7.00665">
        <ele>396.79998779297</ele>
        <time>2011-05-08T09:50:29.000Z</time>
      </trkpt>
      <trkpt lat="43.8656" lon="7.00666">
        <ele>401.79998779297</ele>
        <time>2011-05-08T09:50:35.000Z</time>
      </trkpt>
      <trkpt lat="43.86559" lon="7.00666">
        <ele>402.60000610352</ele>
        <time>2011-05-08T09:50:36.000Z</time>
      </trkpt>
      <trkpt lat="43.86548" lon="7.00672">
        <ele>408.60000610352</ele>
        <time>2011-05-08T09:50:43.000Z</time>
      </trkpt>
      <trkpt lat="43.86542" lon="7.00678">
        <ele>411.79998779297</ele>
        <time>2011-05-08T09:50:47.000Z</time>
      </trkpt>
      <trkpt lat="43.8654" lon="7.00679">
        <ele>413.20001220703</ele>
        <time>2011-05-08T09:50:49.000Z</time>
      </trkpt>
      <trkpt lat="43.86538" lon="7.0068">
        <ele>413.79998779297</ele>
        <time>2011-05-08T09:50:50.000Z</time>
      </trkpt>
      <trkpt lat="43.86537" lon="7.00687">
        <ele>413.60000610352</ele>
        <time>2011-05-08T09:50:54.000Z</time>
      </trkpt>
      <trkpt lat="43.86541" lon="7.00698">
        <ele>409.60000610352</ele>
        <time>2011-05-08T09:50:59.000Z</time>
      </trkpt>
      <trkpt lat="43.86542" lon="7.007">
        <ele>408.60000610352</ele>
        <time>2011-05-08T09:51:00.000Z</time>
      </trkpt>
      <trkpt lat="43.86549" lon="7.00714">
        <ele>402.60000610352</ele>
        <time>2011-05-08T09:51:07.000Z</time>
      </trkpt>
      <trkpt lat="43.86549" lon="7.00722">
        <ele>401.60000610352</ele>
        <time>2011-05-08T09:51:10.000Z</time>
      </trkpt>
      <trkpt lat="43.86548" lon="7.00731">
        <ele>401</ele>
        <time>2011-05-08T09:51:14.000Z</time>
      </trkpt>
      <trkpt lat="43.86546" lon="7.00748">
        <ele>399.79998779297</ele>
        <time>2011-05-08T09:51:22.000Z</time>
      </trkpt>
      <trkpt lat="43.86541" lon="7.00767">
        <ele>401.79998779297</ele>
        <time>2011-05-08T09:51:31.000Z</time>
      </trkpt>
      <trkpt lat="43.86539" lon="7.00772">
        <ele>402.79998779297</ele>
        <time>2011-05-08T09:51:33.000Z</time>
      </trkpt>
      <trkpt lat="43.86535" lon="7.00783">
        <ele>404.60000610352</ele>
        <time>2011-05-08T09:51:38.000Z</time>
      </trkpt>
      <trkpt lat="43.86529" lon="7.00793">
        <ele>408.20001220703</ele>
        <time>2011-05-08T09:51:44.000Z</time>
      </trkpt>
      <trkpt lat="43.86527" lon="7.00796">
        <ele>409.39999389648</ele>
        <time>2011-05-08T09:51:46.000Z</time>
      </trkpt>
      <trkpt lat="43.86519" lon="7.00804">
        <ele>413.79998779297</ele>
        <time>2011-05-08T09:51:52.000Z</time>
      </trkpt>
      <trkpt lat="43.86514" lon="7.00809">
        <ele>417</ele>
        <time>2011-05-08T09:51:56.000Z</time>
      </trkpt>
      <trkpt lat="43.86512" lon="7.00812">
        <ele>418.79998779297</ele>
        <time>2011-05-08T09:51:59.000Z</time>
      </trkpt>
      <trkpt lat="43.86502" lon="7.00819">
        <ele>424.79998779297</ele>
        <time>2011-05-08T09:52:07.000Z</time>
      </trkpt>
      <trkpt lat="43.86498" lon="7.0082">
        <ele>427.39999389648</ele>
        <time>2011-05-08T09:52:10.000Z</time>
      </trkpt>
      <trkpt lat="43.86492" lon="7.00823">
        <ele>431</ele>
        <time>2011-05-08T09:52:14.000Z</time>
      </trkpt>
      <trkpt lat="43.86481" lon="7.00832">
        <ele>437</ele>
        <time>2011-05-08T09:52:21.000Z</time>
      </trkpt>
      <trkpt lat="43.8648" lon="7.00833">
        <ele>437.60000610352</ele>
        <time>2011-05-08T09:52:22.000Z</time>
      </trkpt>
      <trkpt lat="43.86476" lon="7.00838">
        <ele>439.79998779297</ele>
        <time>2011-05-08T09:52:26.000Z</time>
      </trkpt>
      <trkpt lat="43.86476" lon="7.00842">
        <ele>440.20001220703</ele>
        <time>2011-05-08T09:52:28.000Z</time>
      </trkpt>
      <trkpt lat="43.8648" lon="7.00853">
        <ele>438</ele>
        <time>2011-05-08T09:52:34.000Z</time>
      </trkpt>
      <trkpt lat="43.86487" lon="7.00863">
        <ele>433.39999389648</ele>
        <time>2011-05-08T09:52:41.000Z</time>
      </trkpt>
      <trkpt lat="43.86491" lon="7.00873">
        <ele>431.20001220703</ele>
        <time>2011-05-08T09:52:46.000Z</time>
      </trkpt>
      <trkpt lat="43.86493" lon="7.00879">
        <ele>430</ele>
        <time>2011-05-08T09:52:49.000Z</time>
      </trkpt>
      <trkpt lat="43.86499" lon="7.00895">
        <ele>425.39999389648</ele>
        <time>2011-05-08T09:52:58.000Z</time>
      </trkpt>
      <trkpt lat="43.86503" lon="7.0091">
        <ele>422.60000610352</ele>
        <time>2011-05-08T09:53:06.000Z</time>
      </trkpt>
      <trkpt lat="43.86503" lon="7.0092">
        <ele>422.60000610352</ele>
        <time>2011-05-08T09:53:11.000Z</time>
      </trkpt>
      <trkpt lat="43.86502" lon="7.00926">
        <ele>422.79998779297</ele>
        <time>2011-05-08T09:53:14.000Z</time>
      </trkpt>
      <trkpt lat="43.86496" lon="7.00942">
        <ele>425.60000610352</ele>
        <time>2011-05-08T09:53:22.000Z</time>
      </trkpt>
      <trkpt lat="43.86496" lon="7.00944">
        <ele>425.79998779297</ele>
        <time>2011-05-08T09:53:23.000Z</time>
      </trkpt>
      <trkpt lat="43.86492" lon="7.00959">
        <ele>428</ele>
        <time>2011-05-08T09:53:31.000Z</time>
      </trkpt>
      <trkpt lat="43.8649" lon="7.0097">
        <ele>429</ele>
        <time>2011-05-08T09:53:36.000Z</time>
      </trkpt>
      <trkpt lat="43.86488" lon="7.00976">
        <ele>429.79998779297</ele>
        <time>2011-05-08T09:53:39.000Z</time>
      </trkpt>
      <trkpt lat="43.86483" lon="7.00991">
        <ele>433.20001220703</ele>
        <time>2011-05-08T09:53:47.000Z</time>
      </trkpt>
      <trkpt lat="43.86483" lon="7.00993">
        <ele>433.39999389648</ele>
        <time>2011-05-08T09:53:48.000Z</time>
      </trkpt>
      <trkpt lat="43.86475" lon="7.01008">
        <ele>438.20001220703</ele>
        <time>2011-05-08T09:53:56.000Z</time>
      </trkpt>
      <trkpt lat="43.86471" lon="7.01012">
        <ele>441.20001220703</ele>
        <time>2011-05-08T09:53:59.000Z</time>
      </trkpt>
      <trkpt lat="43.86466" lon="7.01015">
        <ele>445</ele>
        <time>2011-05-08T09:54:03.000Z</time>
      </trkpt>
      <trkpt lat="43.86459" lon="7.01025">
        <ele>449.39999389648</ele>
        <time>2011-05-08T09:54:10.000Z</time>
      </trkpt>
      <trkpt lat="43.86457" lon="7.0103">
        <ele>449.79998779297</ele>
        <time>2011-05-08T09:54:12.000Z</time>
      </trkpt>
      <trkpt lat="43.86455" lon="7.01038">
        <ele>449.79998779297</ele>
        <time>2011-05-08T09:54:16.000Z</time>
      </trkpt>
      <trkpt lat="43.86452" lon="7.01045">
        <ele>451.20001220703</ele>
        <time>2011-05-08T09:54:21.000Z</time>
      </trkpt>
      <trkpt lat="43.86448" lon="7.01053">
        <ele>453</ele>
        <time>2011-05-08T09:54:24.000Z</time>
      </trkpt>
      <trkpt lat="43.86445" lon="7.01059">
        <ele>454.39999389648</ele>
        <time>2011-05-08T09:54:27.000Z</time>
      </trkpt>
      <trkpt lat="43.86438" lon="7.01069">
        <ele>457.79998779297</ele>
        <time>2011-05-08T09:54:34.000Z</time>
      </trkpt>
      <trkpt lat="43.86435" lon="7.01072">
        <ele>460.20001220703</ele>
        <time>2011-05-08T09:54:37.000Z</time>
      </trkpt>
      <trkpt lat="43.86431" lon="7.01077">
        <ele>462</ele>
        <time>2011-05-08T09:54:40.000Z</time>
      </trkpt>
      <trkpt lat="43.86427" lon="7.01093">
        <ele>461.79998779297</ele>
        <time>2011-05-08T09:54:47.000Z</time>
      </trkpt>
      <trkpt lat="43.86426" lon="7.01095">
        <ele>461.39999389648</ele>
        <time>2011-05-08T09:54:48.000Z</time>
      </trkpt>
      <trkpt lat="43.86428" lon="7.01113">
        <ele>454.60000610352</ele>
        <time>2011-05-08T09:54:56.000Z</time>
      </trkpt>
      <trkpt lat="43.86428" lon="7.01121">
        <ele>452.39999389648</ele>
        <time>2011-05-08T09:55:00.000Z</time>
      </trkpt>
      <trkpt lat="43.86426" lon="7.01124">
        <ele>452.79998779297</ele>
        <time>2011-05-08T09:55:02.000Z</time>
      </trkpt>
      <trkpt lat="43.86418" lon="7.01133">
        <ele>457.20001220703</ele>
        <time>2011-05-08T09:55:09.000Z</time>
      </trkpt>
      <trkpt lat="43.86413" lon="7.01138">
        <ele>459.60000610352</ele>
        <time>2011-05-08T09:55:13.000Z</time>
      </trkpt>
      <trkpt lat="43.86407" lon="7.01144">
        <ele>462.39999389648</ele>
        <time>2011-05-08T09:55:18.000Z</time>
      </trkpt>
      <trkpt lat="43.86399" lon="7.01154">
        <ele>465.39999389648</ele>
        <time>2011-05-08T09:55:26.000Z</time>
      </trkpt>
      <trkpt lat="43.86392" lon="7.01168">
        <ele>466.39999389648</ele>
        <time>2011-05-08T09:55:34.000Z</time>
      </trkpt>
      <trkpt lat="43.86389" lon="7.01177">
        <ele>466</ele>
        <time>2011-05-08T09:55:39.000Z</time>
      </trkpt>
      <trkpt lat="43.86387" lon="7.01181">
        <ele>466.20001220703</ele>
        <time>2011-05-08T09:55:42.000Z</time>
      </trkpt>
      <trkpt lat="43.86386" lon="7.01196">
        <ele>463</ele>
        <time>2011-05-08T09:55:49.000Z</time>
      </trkpt>
      <trkpt lat="43.86385" lon="7.01202">
        <ele>461.79998779297</ele>
        <time>2011-05-08T09:55:52.000Z</time>
      </trkpt>
      <trkpt lat="43.86383" lon="7.01212">
        <ele>460.60000610352</ele>
        <time>2011-05-08T09:55:57.000Z</time>
      </trkpt>
      <trkpt lat="43.86381" lon="7.01228">
        <ele>458.20001220703</ele>
        <time>2011-05-08T09:56:05.000Z</time>
      </trkpt>
      <trkpt lat="43.86376" lon="7.01246">
        <ele>457</ele>
        <time>2011-05-08T09:56:14.000Z</time>
      </trkpt>
      <trkpt lat="43.86374" lon="7.01252">
        <ele>457.79998779297</ele>
        <time>2011-05-08T09:56:19.000Z</time>
      </trkpt>
      <trkpt lat="43.86372" lon="7.01253">
        <ele>459</ele>
        <time>2011-05-08T09:56:21.000Z</time>
      </trkpt>
      <trkpt lat="43.86366" lon="7.01255">
        <ele>463.39999389648</ele>
        <time>2011-05-08T09:56:27.000Z</time>
      </trkpt>
      <trkpt lat="43.86365" lon="7.01256">
        <ele>464.20001220703</ele>
        <time>2011-05-08T09:56:28.000Z</time>
      </trkpt>
      <trkpt lat="43.86358" lon="7.01261">
        <ele>468.20001220703</ele>
        <time>2011-05-08T09:56:34.000Z</time>
      </trkpt>
      <trkpt lat="43.86357" lon="7.01262">
        <ele>469.39999389648</ele>
        <time>2011-05-08T09:56:35.000Z</time>
      </trkpt>
      <trkpt lat="43.86356" lon="7.01262">
        <ele>470.20001220703</ele>
        <time>2011-05-08T09:56:36.000Z</time>
      </trkpt>
      <trkpt lat="43.86349" lon="7.01267">
        <ele>474.39999389648</ele>
        <time>2011-05-08T09:56:41.000Z</time>
      </trkpt>
      <trkpt lat="43.8634" lon="7.01273">
        <ele>480.60000610352</ele>
        <time>2011-05-08T09:56:49.000Z</time>
      </trkpt>
      <trkpt lat="43.86333" lon="7.01286">
        <ele>483.20001220703</ele>
        <time>2011-05-08T09:56:56.000Z</time>
      </trkpt>
      <trkpt lat="43.8633" lon="7.01295">
        <ele>482.79998779297</ele>
        <time>2011-05-08T09:57:01.000Z</time>
      </trkpt>
      <trkpt lat="43.86327" lon="7.01298">
        <ele>482.79998779297</ele>
        <time>2011-05-08T09:57:03.000Z</time>
      </trkpt>
      <trkpt lat="43.86321" lon="7.01307">
        <ele>483.39999389648</ele>
        <time>2011-05-08T09:57:09.000Z</time>
      </trkpt>
      <trkpt lat="43.86316" lon="7.01312">
        <ele>484</ele>
        <time>2011-05-08T09:57:14.000Z</time>
      </trkpt>
      <trkpt lat="43.86315" lon="7.01314">
        <ele>484.20001220703</ele>
        <time>2011-05-08T09:57:16.000Z</time>
      </trkpt>
      <trkpt lat="43.86308" lon="7.01322">
        <ele>484.79998779297</ele>
        <time>2011-05-08T09:57:23.000Z</time>
      </trkpt>
      <trkpt lat="43.86306" lon="7.01327">
        <ele>484.20001220703</ele>
        <time>2011-05-08T09:57:27.000Z</time>
      </trkpt>
      <trkpt lat="43.86305" lon="7.01332">
        <ele>483.60000610352</ele>
        <time>2011-05-08T09:57:29.000Z</time>
      </trkpt>
      <trkpt lat="43.86303" lon="7.01342">
        <ele>482</ele>
        <time>2011-05-08T09:57:34.000Z</time>
      </trkpt>
      <trkpt lat="43.86303" lon="7.01357">
        <ele>478.79998779297</ele>
        <time>2011-05-08T09:57:41.000Z</time>
      </trkpt>
      <trkpt lat="43.86304" lon="7.0137">
        <ele>475.39999389648</ele>
        <time>2011-05-08T09:57:47.000Z</time>
      </trkpt>
      <trkpt lat="43.86305" lon="7.01379">
        <ele>473.39999389648</ele>
        <time>2011-05-08T09:57:51.000Z</time>
      </trkpt>
      <trkpt lat="43.86306" lon="7.01383">
        <ele>472.20001220703</ele>
        <time>2011-05-08T09:57:53.000Z</time>
      </trkpt>
      <trkpt lat="43.86307" lon="7.01385">
        <ele>471.60000610352</ele>
        <time>2011-05-08T09:57:54.000Z</time>
      </trkpt>
      <trkpt lat="43.86307" lon="7.01387">
        <ele>471.20001220703</ele>
        <time>2011-05-08T09:57:55.000Z</time>
      </trkpt>
      <trkpt lat="43.86312" lon="7.01398">
        <ele>467.60000610352</ele>
        <time>2011-05-08T09:58:01.000Z</time>
      </trkpt>
      <trkpt lat="43.86313" lon="7.01399">
        <ele>467.20001220703</ele>
        <time>2011-05-08T09:58:02.000Z</time>
      </trkpt>
      <trkpt lat="43.86315" lon="7.01406">
        <ele>465.60000610352</ele>
        <time>2011-05-08T09:58:05.000Z</time>
      </trkpt>
      <trkpt lat="43.86315" lon="7.01408">
        <ele>465.20001220703</ele>
        <time>2011-05-08T09:58:06.000Z</time>
      </trkpt>
      <trkpt lat="43.86314" lon="7.01411">
        <ele>464.79998779297</ele>
        <time>2011-05-08T09:58:08.000Z</time>
      </trkpt>
      <trkpt lat="43.86306" lon="7.01418">
        <ele>464.60000610352</ele>
        <time>2011-05-08T09:58:15.000Z</time>
      </trkpt>
      <trkpt lat="43.86301" lon="7.01419">
        <ele>465.39999389648</ele>
        <time>2011-05-08T09:58:19.000Z</time>
      </trkpt>
      <trkpt lat="43.86295" lon="7.01418">
        <ele>466.79998779297</ele>
        <time>2011-05-08T09:58:23.000Z</time>
      </trkpt>
      <trkpt lat="43.86284" lon="7.01409">
        <ele>471.39999389648</ele>
        <time>2011-05-08T09:58:31.000Z</time>
      </trkpt>
      <trkpt lat="43.86273" lon="7.01395">
        <ele>477.79998779297</ele>
        <time>2011-05-08T09:58:40.000Z</time>
      </trkpt>
      <trkpt lat="43.8627" lon="7.01392">
        <ele>479.39999389648</ele>
        <time>2011-05-08T09:58:42.000Z</time>
      </trkpt>
      <trkpt lat="43.86263" lon="7.0138">
        <ele>484.79998779297</ele>
        <time>2011-05-08T09:58:49.000Z</time>
      </trkpt>
      <trkpt lat="43.86258" lon="7.01371">
        <ele>489.20001220703</ele>
        <time>2011-05-08T09:58:54.000Z</time>
      </trkpt>
      <trkpt lat="43.86255" lon="7.01364">
        <ele>492.79998779297</ele>
        <time>2011-05-08T09:58:58.000Z</time>
      </trkpt>
      <trkpt lat="43.86249" lon="7.01349">
        <ele>499.20001220703</ele>
        <time>2011-05-08T09:59:05.000Z</time>
      </trkpt>
      <trkpt lat="43.86247" lon="7.01346">
        <ele>500.39999389648</ele>
        <time>2011-05-08T09:59:07.000Z</time>
      </trkpt>
      <trkpt lat="43.86237" lon="7.0133">
        <ele>505.20001220703</ele>
        <time>2011-05-08T09:59:16.000Z</time>
      </trkpt>
      <trkpt lat="43.86236" lon="7.01329">
        <ele>505.39999389648</ele>
        <time>2011-05-08T09:59:17.000Z</time>
      </trkpt>
      <trkpt lat="43.86225" lon="7.01321">
        <ele>507.39999389648</ele>
        <time>2011-05-08T09:59:24.000Z</time>
      </trkpt>
      <trkpt lat="43.86221" lon="7.01319">
        <ele>508</ele>
        <time>2011-05-08T09:59:27.000Z</time>
      </trkpt>
      <trkpt lat="43.86215" lon="7.01316">
        <ele>508.60000610352</ele>
        <time>2011-05-08T09:59:31.000Z</time>
      </trkpt>
      <trkpt lat="43.86212" lon="7.01315">
        <ele>508.79998779297</ele>
        <time>2011-05-08T09:59:33.000Z</time>
      </trkpt>
      <trkpt lat="43.86207" lon="7.01315">
        <ele>508.79998779297</ele>
        <time>2011-05-08T09:59:36.000Z</time>
      </trkpt>
      <trkpt lat="43.86203" lon="7.01314">
        <ele>509</ele>
        <time>2011-05-08T09:59:39.000Z</time>
      </trkpt>
      <trkpt lat="43.86196" lon="7.01311">
        <ele>509.79998779297</ele>
        <time>2011-05-08T09:59:44.000Z</time>
      </trkpt>
      <trkpt lat="43.86185" lon="7.01305">
        <ele>511.60000610352</ele>
        <time>2011-05-08T09:59:52.000Z</time>
      </trkpt>
      <trkpt lat="43.86174" lon="7.013">
        <ele>513</ele>
        <time>2011-05-08T09:59:59.000Z</time>
      </trkpt>
      <trkpt lat="43.86166" lon="7.01298">
        <ele>513.79998779297</ele>
        <time>2011-05-08T10:00:04.000Z</time>
      </trkpt>
      <trkpt lat="43.86162" lon="7.01295">
        <ele>513.59997558594</ele>
        <time>2011-05-08T10:00:07.000Z</time>
      </trkpt>
      <trkpt lat="43.86151" lon="7.01289">
        <ele>513.59997558594</ele>
        <time>2011-05-08T10:00:15.000Z</time>
      </trkpt>
      <trkpt lat="43.86149" lon="7.01287">
        <ele>513.59997558594</ele>
        <time>2011-05-08T10:00:17.000Z</time>
      </trkpt>
      <trkpt lat="43.86143" lon="7.01285">
        <ele>513</ele>
        <time>2011-05-08T10:00:21.000Z</time>
      </trkpt>
      <trkpt lat="43.86133" lon="7.0128">
        <ele>512.20001220703</ele>
        <time>2011-05-08T10:00:28.000Z</time>
      </trkpt>
      <trkpt lat="43.86131" lon="7.01278">
        <ele>512</ele>
        <time>2011-05-08T10:00:30.000Z</time>
      </trkpt>
      <trkpt lat="43.86124" lon="7.01272">
        <ele>512.20001220703</ele>
        <time>2011-05-08T10:00:35.000Z</time>
      </trkpt>
      <trkpt lat="43.86121" lon="7.0126">
        <ele>514.40002441406</ele>
        <time>2011-05-08T10:00:42.000Z</time>
      </trkpt>
      <trkpt lat="43.8612" lon="7.01258">
        <ele>514.79998779297</ele>
        <time>2011-05-08T10:00:43.000Z</time>
      </trkpt>
      <trkpt lat="43.86119" lon="7.01247">
        <ele>517.20001220703</ele>
        <time>2011-05-08T10:00:48.000Z</time>
      </trkpt>
      <trkpt lat="43.8612" lon="7.01232">
        <ele>519.40002441406</ele>
        <time>2011-05-08T10:00:55.000Z</time>
      </trkpt>
      <trkpt lat="43.8612" lon="7.0123">
        <ele>519.79998779297</ele>
        <time>2011-05-08T10:00:56.000Z</time>
      </trkpt>
      <trkpt lat="43.86123" lon="7.01211">
        <ele>523.20001220703</ele>
        <time>2011-05-08T10:01:05.000Z</time>
      </trkpt>
      <trkpt lat="43.86124" lon="7.01207">
        <ele>524.20001220703</ele>
        <time>2011-05-08T10:01:07.000Z</time>
      </trkpt>
      <trkpt lat="43.86126" lon="7.01193">
        <ele>526.79998779297</ele>
        <time>2011-05-08T10:01:14.000Z</time>
      </trkpt>
      <trkpt lat="43.86126" lon="7.01181">
        <ele>528.79998779297</ele>
        <time>2011-05-08T10:01:20.000Z</time>
      </trkpt>
      <trkpt lat="43.86126" lon="7.01174">
        <ele>529.59997558594</ele>
        <time>2011-05-08T10:01:23.000Z</time>
      </trkpt>
      <trkpt lat="43.86126" lon="7.0117">
        <ele>530.40002441406</ele>
        <time>2011-05-08T10:01:25.000Z</time>
      </trkpt>
      <trkpt lat="43.86127" lon="7.01162">
        <ele>532</ele>
        <time>2011-05-08T10:01:28.000Z</time>
      </trkpt>
      <trkpt lat="43.86127" lon="7.0116">
        <ele>532.40002441406</ele>
        <time>2011-05-08T10:01:29.000Z</time>
      </trkpt>
      <trkpt lat="43.86127" lon="7.01155">
        <ele>533.20001220703</ele>
        <time>2011-05-08T10:01:31.000Z</time>
      </trkpt>
      <trkpt lat="43.86127" lon="7.01144">
        <ele>535</ele>
        <time>2011-05-08T10:01:36.000Z</time>
      </trkpt>
      <trkpt lat="43.86127" lon="7.0113">
        <ele>537.40002441406</ele>
        <time>2011-05-08T10:01:42.000Z</time>
      </trkpt>
      <trkpt lat="43.86126" lon="7.01125">
        <ele>538</ele>
        <time>2011-05-08T10:01:44.000Z</time>
      </trkpt>
      <trkpt lat="43.86119" lon="7.01109">
        <ele>538</ele>
        <time>2011-05-08T10:01:51.000Z</time>
      </trkpt>
      <trkpt lat="43.86118" lon="7.01107">
        <ele>538</ele>
        <time>2011-05-08T10:01:52.000Z</time>
      </trkpt>
      <trkpt lat="43.8611" lon="7.01091">
        <ele>537.59997558594</ele>
        <time>2011-05-08T10:01:58.000Z</time>
      </trkpt>
      <trkpt lat="43.86107" lon="7.01085">
        <ele>537.79998779297</ele>
        <time>2011-05-08T10:02:00.000Z</time>
      </trkpt>
      <trkpt lat="43.86104" lon="7.0107">
        <ele>539.40002441406</ele>
        <time>2011-05-08T10:02:06.000Z</time>
      </trkpt>
      <trkpt lat="43.86103" lon="7.01059">
        <ele>540.59997558594</ele>
        <time>2011-05-08T10:02:10.000Z</time>
      </trkpt>
      <trkpt lat="43.86103" lon="7.01049">
        <ele>542.40002441406</ele>
        <time>2011-05-08T10:02:13.000Z</time>
      </trkpt>
      <trkpt lat="43.86102" lon="7.01032">
        <ele>545</ele>
        <time>2011-05-08T10:02:19.000Z</time>
      </trkpt>
      <trkpt lat="43.86102" lon="7.01026">
        <ele>546</ele>
        <time>2011-05-08T10:02:21.000Z</time>
      </trkpt>
      <trkpt lat="43.86101" lon="7.01007">
        <ele>548.79998779297</ele>
        <time>2011-05-08T10:02:27.000Z</time>
      </trkpt>
      <trkpt lat="43.86101" lon="7.01">
        <ele>549.79998779297</ele>
        <time>2011-05-08T10:02:29.000Z</time>
      </trkpt>
      <trkpt lat="43.86099" lon="7.00983">
        <ele>553</ele>
        <time>2011-05-08T10:02:35.000Z</time>
      </trkpt>
      <trkpt lat="43.86087" lon="7.00978">
        <ele>549.79998779297</ele>
        <time>2011-05-08T10:02:41.000Z</time>
      </trkpt>
      <trkpt lat="43.86081" lon="7.00978">
        <ele>548</ele>
        <time>2011-05-08T10:02:44.000Z</time>
      </trkpt>
      <trkpt lat="43.86072" lon="7.00975">
        <ele>546.40002441406</ele>
        <time>2011-05-08T10:02:48.000Z</time>
      </trkpt>
      <trkpt lat="43.86063" lon="7.00969">
        <ele>545.20001220703</ele>
        <time>2011-05-08T10:02:53.000Z</time>
      </trkpt>
      <trkpt lat="43.8606" lon="7.00965">
        <ele>545</ele>
        <time>2011-05-08T10:02:55.000Z</time>
      </trkpt>
      <trkpt lat="43.86054" lon="7.0095">
        <ele>546.79998779297</ele>
        <time>2011-05-08T10:03:01.000Z</time>
      </trkpt>
      <trkpt lat="43.86052" lon="7.00947">
        <ele>546.79998779297</ele>
        <time>2011-05-08T10:03:03.000Z</time>
      </trkpt>
      <trkpt lat="43.86047" lon="7.00936">
        <ele>547.79998779297</ele>
        <time>2011-05-08T10:03:08.000Z</time>
      </trkpt>
      <trkpt lat="43.86043" lon="7.00924">
        <ele>549.40002441406</ele>
        <time>2011-05-08T10:03:14.000Z</time>
      </trkpt>
      <trkpt lat="43.86038" lon="7.00915">
        <ele>549.79998779297</ele>
        <time>2011-05-08T10:03:19.000Z</time>
      </trkpt>
      <trkpt lat="43.86033" lon="7.00903">
        <ele>552</ele>
        <time>2011-05-08T10:03:24.000Z</time>
      </trkpt>
      <trkpt lat="43.86026" lon="7.00893">
        <ele>553.59997558594</ele>
        <time>2011-05-08T10:03:29.000Z</time>
      </trkpt>
      <trkpt lat="43.8602" lon="7.00886">
        <ele>554</ele>
        <time>2011-05-08T10:03:33.000Z</time>
      </trkpt>
      <trkpt lat="43.86016" lon="7.0088">
        <ele>554.79998779297</ele>
        <time>2011-05-08T10:03:36.000Z</time>
      </trkpt>
      <trkpt lat="43.86009" lon="7.00865">
        <ele>557.40002441406</ele>
        <time>2011-05-08T10:03:43.000Z</time>
      </trkpt>
      <trkpt lat="43.86008" lon="7.00863">
        <ele>557.79998779297</ele>
        <time>2011-05-08T10:03:44.000Z</time>
      </trkpt>
      <trkpt lat="43.86003" lon="7.00849">
        <ele>560.79998779297</ele>
        <time>2011-05-08T10:03:51.000Z</time>
      </trkpt>
      <trkpt lat="43.85999" lon="7.00843">
        <ele>561.79998779297</ele>
        <time>2011-05-08T10:03:54.000Z</time>
      </trkpt>
      <trkpt lat="43.85997" lon="7.00837">
        <ele>563</ele>
        <time>2011-05-08T10:03:57.000Z</time>
      </trkpt>
      <trkpt lat="43.85995" lon="7.00826">
        <ele>566</ele>
        <time>2011-05-08T10:04:02.000Z</time>
      </trkpt>
      <trkpt lat="43.85992" lon="7.00821">
        <ele>567</ele>
        <time>2011-05-08T10:04:05.000Z</time>
      </trkpt>
      <trkpt lat="43.8599" lon="7.00818">
        <ele>567.40002441406</ele>
        <time>2011-05-08T10:04:07.000Z</time>
      </trkpt>
      <trkpt lat="43.8599" lon="7.00816">
        <ele>567.79998779297</ele>
        <time>2011-05-08T10:04:08.000Z</time>
      </trkpt>
      <trkpt lat="43.85984" lon="7.00807">
        <ele>569.40002441406</ele>
        <time>2011-05-08T10:04:14.000Z</time>
      </trkpt>
      <trkpt lat="43.85981" lon="7.008">
        <ele>570.59997558594</ele>
        <time>2011-05-08T10:04:18.000Z</time>
      </trkpt>
      <trkpt lat="43.85979" lon="7.00795">
        <ele>571.40002441406</ele>
        <time>2011-05-08T10:04:20.000Z</time>
      </trkpt>
      <trkpt lat="43.85974" lon="7.00786">
        <ele>572.79998779297</ele>
        <time>2011-05-08T10:04:25.000Z</time>
      </trkpt>
      <trkpt lat="43.8597" lon="7.00779">
        <ele>573.79998779297</ele>
        <time>2011-05-08T10:04:29.000Z</time>
      </trkpt>
      <trkpt lat="43.85967" lon="7.00777">
        <ele>573.79998779297</ele>
        <time>2011-05-08T10:04:31.000Z</time>
      </trkpt>
      <trkpt lat="43.85961" lon="7.00767">
        <ele>574.79998779297</ele>
        <time>2011-05-08T10:04:37.000Z</time>
      </trkpt>
      <trkpt lat="43.85956" lon="7.00761">
        <ele>575</ele>
        <time>2011-05-08T10:04:41.000Z</time>
      </trkpt>
      <trkpt lat="43.85954" lon="7.00758">
        <ele>575.40002441406</ele>
        <time>2011-05-08T10:04:43.000Z</time>
      </trkpt>
      <trkpt lat="43.85946" lon="7.00744">
        <ele>576.40002441406</ele>
        <time>2011-05-08T10:04:51.000Z</time>
      </trkpt>
      <trkpt lat="43.85944" lon="7.0074">
        <ele>576.59997558594</ele>
        <time>2011-05-08T10:04:53.000Z</time>
      </trkpt>
      <trkpt lat="43.85939" lon="7.00731">
        <ele>576.59997558594</ele>
        <time>2011-05-08T10:04:58.000Z</time>
      </trkpt>
      <trkpt lat="43.85932" lon="7.00719">
        <ele>576.59997558594</ele>
        <time>2011-05-08T10:05:05.000Z</time>
      </trkpt>
      <trkpt lat="43.85929" lon="7.00712">
        <ele>577</ele>
        <time>2011-05-08T10:05:09.000Z</time>
      </trkpt>
      <trkpt lat="43.85927" lon="7.00705">
        <ele>577.59997558594</ele>
        <time>2011-05-08T10:05:12.000Z</time>
      </trkpt>
      <trkpt lat="43.85925" lon="7.00695">
        <ele>578.79998779297</ele>
        <time>2011-05-08T10:05:16.000Z</time>
      </trkpt>
      <trkpt lat="43.85926" lon="7.00687">
        <ele>580.20001220703</ele>
        <time>2011-05-08T10:05:19.000Z</time>
      </trkpt>
      <trkpt lat="43.85926" lon="7.00671">
        <ele>583</ele>
        <time>2011-05-08T10:05:25.000Z</time>
      </trkpt>
      <trkpt lat="43.85926" lon="7.00668">
        <ele>583.59997558594</ele>
        <time>2011-05-08T10:05:26.000Z</time>
      </trkpt>
      <trkpt lat="43.85929" lon="7.0065">
        <ele>586.59997558594</ele>
        <time>2011-05-08T10:05:32.000Z</time>
      </trkpt>
      <trkpt lat="43.85929" lon="7.00647">
        <ele>587.20001220703</ele>
        <time>2011-05-08T10:05:33.000Z</time>
      </trkpt>
      <trkpt lat="43.8593" lon="7.00641">
        <ele>588</ele>
        <time>2011-05-08T10:05:36.000Z</time>
      </trkpt>
      <trkpt lat="43.8593" lon="7.00636">
        <ele>588.79998779297</ele>
        <time>2011-05-08T10:05:37.000Z</time>
      </trkpt>
      <trkpt lat="43.8593" lon="7.00614">
        <ele>591.40002441406</ele>
        <time>2011-05-08T10:05:43.000Z</time>
      </trkpt>
      <trkpt lat="43.85931" lon="7.00598">
        <ele>593.59997558594</ele>
        <time>2011-05-08T10:05:49.000Z</time>
      </trkpt>
      <trkpt lat="43.85932" lon="7.00589">
        <ele>595</ele>
        <time>2011-05-08T10:05:53.000Z</time>
      </trkpt>
      <trkpt lat="43.85932" lon="7.00583">
        <ele>595.59997558594</ele>
        <time>2011-05-08T10:05:55.000Z</time>
      </trkpt>
      <trkpt lat="43.85931" lon="7.00572">
        <ele>596.40002441406</ele>
        <time>2011-05-08T10:06:01.000Z</time>
      </trkpt>
      <trkpt lat="43.85929" lon="7.00563">
        <ele>596.79998779297</ele>
        <time>2011-05-08T10:06:05.000Z</time>
      </trkpt>
      <trkpt lat="43.85929" lon="7.0056">
        <ele>596.79998779297</ele>
        <time>2011-05-08T10:06:06.000Z</time>
      </trkpt>
      <trkpt lat="43.85924" lon="7.00543">
        <ele>597.20001220703</ele>
        <time>2011-05-08T10:06:12.000Z</time>
      </trkpt>
      <trkpt lat="43.85922" lon="7.00538">
        <ele>597.20001220703</ele>
        <time>2011-05-08T10:06:14.000Z</time>
      </trkpt>
      <trkpt lat="43.8592" lon="7.00526">
        <ele>597.79998779297</ele>
        <time>2011-05-08T10:06:18.000Z</time>
      </trkpt>
      <trkpt lat="43.85919" lon="7.00513">
        <ele>598.40002441406</ele>
        <time>2011-05-08T10:06:23.000Z</time>
      </trkpt>
      <trkpt lat="43.85918" lon="7.00511">
        <ele>598.40002441406</ele>
        <time>2011-05-08T10:06:24.000Z</time>
      </trkpt>
      <trkpt lat="43.85916" lon="7.005">
        <ele>598.79998779297</ele>
        <time>2011-05-08T10:06:30.000Z</time>
      </trkpt>
      <trkpt lat="43.85919" lon="7.00493">
        <ele>600</ele>
        <time>2011-05-08T10:06:41.000Z</time>
      </trkpt>
      <trkpt lat="43.85921" lon="7.00492">
        <ele>600.40002441406</ele>
        <time>2011-05-08T10:06:42.000Z</time>
      </trkpt>
      <trkpt lat="43.85924" lon="7.00494">
        <ele>601</ele>
        <time>2011-05-08T10:06:45.000Z</time>
      </trkpt>
      <trkpt lat="43.8593" lon="7.00496">
        <ele>602</ele>
        <time>2011-05-08T10:06:48.000Z</time>
      </trkpt>
      <trkpt lat="43.85935" lon="7.00495">
        <ele>603</ele>
        <time>2011-05-08T10:06:51.000Z</time>
      </trkpt>
      <trkpt lat="43.85938" lon="7.00496">
        <ele>603.59997558594</ele>
        <time>2011-05-08T10:06:53.000Z</time>
      </trkpt>
      <trkpt lat="43.85942" lon="7.00497">
        <ele>604.20001220703</ele>
        <time>2011-05-08T10:06:56.000Z</time>
      </trkpt>
      <trkpt lat="43.85946" lon="7.00499">
        <ele>604.59997558594</ele>
        <time>2011-05-08T10:06:59.000Z</time>
      </trkpt>
      <trkpt lat="43.85955" lon="7.00498">
        <ele>606.59997558594</ele>
        <time>2011-05-08T10:07:06.000Z</time>
      </trkpt>
      <trkpt lat="43.8596" lon="7.00496">
        <ele>607.79998779297</ele>
        <time>2011-05-08T10:07:11.000Z</time>
      </trkpt>
      <trkpt lat="43.85962" lon="7.00496">
        <ele>608.20001220703</ele>
        <time>2011-05-08T10:07:12.000Z</time>
      </trkpt>
      <trkpt lat="43.8597" lon="7.00497">
        <ele>609.59997558594</ele>
        <time>2011-05-08T10:07:19.000Z</time>
      </trkpt>
      <trkpt lat="43.85978" lon="7.00501">
        <ele>610.59997558594</ele>
        <time>2011-05-08T10:07:25.000Z</time>
      </trkpt>
      <trkpt lat="43.8598" lon="7.00502">
        <ele>610.79998779297</ele>
        <time>2011-05-08T10:07:26.000Z</time>
      </trkpt>
      <trkpt lat="43.8599" lon="7.00508">
        <ele>612.20001220703</ele>
        <time>2011-05-08T10:07:34.000Z</time>
      </trkpt>
      <trkpt lat="43.85995" lon="7.00512">
        <ele>613</ele>
        <time>2011-05-08T10:07:38.000Z</time>
      </trkpt>
      <trkpt lat="43.85999" lon="7.00513">
        <ele>613.59997558594</ele>
        <time>2011-05-08T10:07:41.000Z</time>
      </trkpt>
      <trkpt lat="43.86005" lon="7.00519">
        <ele>614</ele>
        <time>2011-05-08T10:07:47.000Z</time>
      </trkpt>
      <trkpt lat="43.86009" lon="7.00529">
        <ele>614</ele>
        <time>2011-05-08T10:07:53.000Z</time>
      </trkpt>
      <trkpt lat="43.86009" lon="7.00531">
        <ele>613.79998779297</ele>
        <time>2011-05-08T10:07:54.000Z</time>
      </trkpt>
      <trkpt lat="43.86011" lon="7.00538">
        <ele>613.40002441406</ele>
        <time>2011-05-08T10:07:59.000Z</time>
      </trkpt>
      <trkpt lat="43.86012" lon="7.00549">
        <ele>612.79998779297</ele>
        <time>2011-05-08T10:08:04.000Z</time>
      </trkpt>
      <trkpt lat="43.86012" lon="7.00553">
        <ele>612.40002441406</ele>
        <time>2011-05-08T10:08:06.000Z</time>
      </trkpt>
      <trkpt lat="43.86009" lon="7.00561">
        <ele>611.20001220703</ele>
        <time>2011-05-08T10:08:10.000Z</time>
      </trkpt>
      <trkpt lat="43.86008" lon="7.00563">
        <ele>611</ele>
        <time>2011-05-08T10:08:11.000Z</time>
      </trkpt>
      <trkpt lat="43.86006" lon="7.00572">
        <ele>610</ele>
        <time>2011-05-08T10:08:15.000Z</time>
      </trkpt>
      <trkpt lat="43.86006" lon="7.00578">
        <ele>609.40002441406</ele>
        <time>2011-05-08T10:08:18.000Z</time>
      </trkpt>
      <trkpt lat="43.86004" lon="7.00587">
        <ele>608.59997558594</ele>
        <time>2011-05-08T10:08:22.000Z</time>
      </trkpt>
      <trkpt lat="43.86007" lon="7.00602">
        <ele>608.59997558594</ele>
        <time>2011-05-08T10:08:28.000Z</time>
      </trkpt>
      <trkpt lat="43.86007" lon="7.00606">
        <ele>608.40002441406</ele>
        <time>2011-05-08T10:08:29.000Z</time>
      </trkpt>
      <trkpt lat="43.86007" lon="7.00623">
        <ele>608</ele>
        <time>2011-05-08T10:08:34.000Z</time>
      </trkpt>
      <trkpt lat="43.86006" lon="7.00634">
        <ele>607.59997558594</ele>
        <time>2011-05-08T10:08:36.000Z</time>
      </trkpt>
      <trkpt lat="43.86007" lon="7.00645">
        <ele>607.40002441406</ele>
        <time>2011-05-08T10:08:39.000Z</time>
      </trkpt>
      <trkpt lat="43.86007" lon="7.00648">
        <ele>607.40002441406</ele>
        <time>2011-05-08T10:08:40.000Z</time>
      </trkpt>
      <trkpt lat="43.86009" lon="7.00661">
        <ele>607.20001220703</ele>
        <time>2011-05-08T10:08:45.000Z</time>
      </trkpt>
      <trkpt lat="43.86009" lon="7.00661">
        <ele>607.20001220703</ele>
        <time>2011-05-08T10:08:46.000Z</time>
      </trkpt>
      <trkpt lat="43.86009" lon="7.00663">
        <ele>607.20001220703</ele>
        <time>2011-05-08T10:08:48.000Z</time>
      </trkpt>
      <trkpt lat="43.8601" lon="7.00663">
        <ele>607.20001220703</ele>
        <time>2011-05-08T10:08:50.000Z</time>
      </trkpt>
      <trkpt lat="43.86007" lon="7.00664">
        <ele>607</ele>
        <time>2011-05-08T10:09:08.000Z</time>
      </trkpt>
      <trkpt lat="43.86006" lon="7.0067">
        <ele>606.20001220703</ele>
        <time>2011-05-08T10:09:54.000Z</time>
      </trkpt>
      <trkpt lat="43.86005" lon="7.00668">
        <ele>606.40002441406</ele>
        <time>2011-05-08T10:10:05.000Z</time>
      </trkpt>
      <trkpt lat="43.86006" lon="7.00666">
        <ele>606.59997558594</ele>
        <time>2011-05-08T10:10:10.000Z</time>
      </trkpt>
      <trkpt lat="43.86005" lon="7.00666">
        <ele>606.59997558594</ele>
        <time>2011-05-08T10:10:15.000Z</time>
      </trkpt>
      <trkpt lat="43.8601" lon="7.0066">
        <ele>607.40002441406</ele>
        <time>2011-05-08T10:11:12.000Z</time>
      </trkpt>
      <trkpt lat="43.86006" lon="7.00653">
        <ele>607.20001220703</ele>
        <time>2011-05-08T10:11:35.000Z</time>
      </trkpt>
      <trkpt lat="43.86008" lon="7.00649">
        <ele>607.40002441406</ele>
        <time>2011-05-08T10:11:38.000Z</time>
      </trkpt>
      <trkpt lat="43.8601" lon="7.00647">
        <ele>607.79998779297</ele>
        <time>2011-05-08T10:11:39.000Z</time>
      </trkpt>
      <trkpt lat="43.86011" lon="7.00652">
        <ele>607.79998779297</ele>
        <time>2011-05-08T10:11:42.000Z</time>
      </trkpt>
      <trkpt lat="43.86016" lon="7.0066">
        <ele>608.20001220703</ele>
        <time>2011-05-08T10:11:48.000Z</time>
      </trkpt>
      <trkpt lat="43.86018" lon="7.00661">
        <ele>608.59997558594</ele>
        <time>2011-05-08T10:11:51.000Z</time>
      </trkpt>
      <trkpt lat="43.86019" lon="7.0066">
        <ele>608.59997558594</ele>
        <time>2011-05-08T10:11:52.000Z</time>
      </trkpt>
      <trkpt lat="43.8602" lon="7.00658">
        <ele>608.79998779297</ele>
        <time>2011-05-08T10:11:55.000Z</time>
      </trkpt>
      <trkpt lat="43.86019" lon="7.00658">
        <ele>608.59997558594</ele>
        <time>2011-05-08T10:11:56.000Z</time>
      </trkpt>
      <trkpt lat="43.86015" lon="7.00657">
        <ele>608.20001220703</ele>
        <time>2011-05-08T10:12:00.000Z</time>
      </trkpt>
      <trkpt lat="43.86005" lon="7.00664">
        <ele>606.59997558594</ele>
        <time>2011-05-08T10:13:02.000Z</time>
      </trkpt>
      <trkpt lat="43.86006" lon="7.00662">
        <ele>606.79998779297</ele>
        <time>2011-05-08T10:13:05.000Z</time>
      </trkpt>
      <trkpt lat="43.86008" lon="7.00662">
        <ele>607</ele>
        <time>2011-05-08T10:13:09.000Z</time>
      </trkpt>
      <trkpt lat="43.86012" lon="7.00658">
        <ele>607.59997558594</ele>
        <time>2011-05-08T10:13:20.000Z</time>
      </trkpt>
      <trkpt lat="43.86012" lon="7.00657">
        <ele>607.79998779297</ele>
        <time>2011-05-08T10:13:28.000Z</time>
      </trkpt>
      <trkpt lat="43.86011" lon="7.00656">
        <ele>607.79998779297</ele>
        <time>2011-05-08T10:13:29.000Z</time>
      </trkpt>
      <trkpt lat="43.86009" lon="7.0066">
        <ele>607.20001220703</ele>
        <time>2011-05-08T10:13:36.000Z</time>
      </trkpt>
      <trkpt lat="43.86006" lon="7.00661">
        <ele>606.79998779297</ele>
        <time>2011-05-08T10:13:40.000Z</time>
      </trkpt>
      <trkpt lat="43.86003" lon="7.00656">
        <ele>606.59997558594</ele>
        <time>2011-05-08T10:14:02.000Z</time>
      </trkpt>
      <trkpt lat="43.86004" lon="7.00657">
        <ele>606.79998779297</ele>
        <time>2011-05-08T10:14:06.000Z</time>
      </trkpt>
      <trkpt lat="43.86008" lon="7.00656">
        <ele>607.20001220703</ele>
        <time>2011-05-08T10:14:10.000Z</time>
      </trkpt>
      <trkpt lat="43.86005" lon="7.00655">
        <ele>606.79998779297</ele>
        <time>2011-05-08T10:14:26.000Z</time>
      </trkpt>
      <trkpt lat="43.86004" lon="7.00642">
        <ele>607</ele>
        <time>2011-05-08T10:14:34.000Z</time>
      </trkpt>
      <trkpt lat="43.86004" lon="7.0064">
        <ele>607</ele>
        <time>2011-05-08T10:14:35.000Z</time>
      </trkpt>
      <trkpt lat="43.86004" lon="7.00629">
        <ele>607.40002441406</ele>
        <time>2011-05-08T10:14:43.000Z</time>
      </trkpt>
      <trkpt lat="43.86004" lon="7.00628">
        <ele>607.40002441406</ele>
        <time>2011-05-08T10:14:44.000Z</time>
      </trkpt>
      <trkpt lat="43.86003" lon="7.00621">
        <ele>607.40002441406</ele>
        <time>2011-05-08T10:14:48.000Z</time>
      </trkpt>
      <trkpt lat="43.86003" lon="7.00619">
        <ele>607.40002441406</ele>
        <time>2011-05-08T10:14:50.000Z</time>
      </trkpt>
      <trkpt lat="43.86004" lon="7.00619">
        <ele>607.59997558594</ele>
        <time>2011-05-08T10:14:57.000Z</time>
      </trkpt>
      <trkpt lat="43.86004" lon="7.00629">
        <ele>607.40002441406</ele>
        <time>2011-05-08T10:15:03.000Z</time>
      </trkpt>
      <trkpt lat="43.86006" lon="7.00635">
        <ele>607.59997558594</ele>
        <time>2011-05-08T10:15:09.000Z</time>
      </trkpt>
      <trkpt lat="43.8601" lon="7.00642">
        <ele>608</ele>
        <time>2011-05-08T10:15:15.000Z</time>
      </trkpt>
      <trkpt lat="43.86011" lon="7.00643">
        <ele>608</ele>
        <time>2011-05-08T10:15:16.000Z</time>
      </trkpt>
      <trkpt lat="43.8601" lon="7.00648">
        <ele>607.59997558594</ele>
        <time>2011-05-08T10:15:23.000Z</time>
      </trkpt>
      <trkpt lat="43.8601" lon="7.00659">
        <ele>607.40002441406</ele>
        <time>2011-05-08T10:15:40.000Z</time>
      </trkpt>
      <trkpt lat="43.86013" lon="7.00662">
        <ele>607.79998779297</ele>
        <time>2011-05-08T10:15:45.000Z</time>
      </trkpt>
      <trkpt lat="43.86012" lon="7.00667">
        <ele>607.40002441406</ele>
        <time>2011-05-08T10:15:59.000Z</time>
      </trkpt>
      <trkpt lat="43.86014" lon="7.00673">
        <ele>606.59997558594</ele>
        <time>2011-05-08T10:16:02.000Z</time>
      </trkpt>
      <trkpt lat="43.86021" lon="7.00681">
        <ele>606.40002441406</ele>
        <time>2011-05-08T10:16:06.000Z</time>
      </trkpt>
      <trkpt lat="43.86026" lon="7.00685">
        <ele>606.40002441406</ele>
        <time>2011-05-08T10:16:08.000Z</time>
      </trkpt>
      <trkpt lat="43.86029" lon="7.00693">
        <ele>605.59997558594</ele>
        <time>2011-05-08T10:16:11.000Z</time>
      </trkpt>
      <trkpt lat="43.8604" lon="7.00704">
        <ele>605.79998779297</ele>
        <time>2011-05-08T10:16:16.000Z</time>
      </trkpt>
      <trkpt lat="43.86042" lon="7.00706">
        <ele>605.79998779297</ele>
        <time>2011-05-08T10:16:17.000Z</time>
      </trkpt>
      <trkpt lat="43.86056" lon="7.00718">
        <ele>606.40002441406</ele>
        <time>2011-05-08T10:16:23.000Z</time>
      </trkpt>
      <trkpt lat="43.8606" lon="7.00723">
        <ele>606.79998779297</ele>
        <time>2011-05-08T10:16:25.000Z</time>
      </trkpt>
      <trkpt lat="43.86073" lon="7.00728">
        <ele>608.40002441406</ele>
        <time>2011-05-08T10:16:29.000Z</time>
      </trkpt>
      <trkpt lat="43.86082" lon="7.00729">
        <ele>610</ele>
        <time>2011-05-08T10:16:32.000Z</time>
      </trkpt>
      <trkpt lat="43.86092" lon="7.00723">
        <ele>610.79998779297</ele>
        <time>2011-05-08T10:16:35.000Z</time>
      </trkpt>
      <trkpt lat="43.86099" lon="7.00716">
        <ele>611.40002441406</ele>
        <time>2011-05-08T10:16:37.000Z</time>
      </trkpt>
      <trkpt lat="43.8611" lon="7.00706">
        <ele>612</ele>
        <time>2011-05-08T10:16:40.000Z</time>
      </trkpt>
      <trkpt lat="43.86122" lon="7.00695">
        <ele>612.40002441406</ele>
        <time>2011-05-08T10:16:44.000Z</time>
      </trkpt>
      <trkpt lat="43.86126" lon="7.00693">
        <ele>612.40002441406</ele>
        <time>2011-05-08T10:16:45.000Z</time>
      </trkpt>
      <trkpt lat="43.86129" lon="7.0069">
        <ele>612.40002441406</ele>
        <time>2011-05-08T10:16:46.000Z</time>
      </trkpt>
      <trkpt lat="43.8614" lon="7.00686">
        <ele>612.20001220703</ele>
        <time>2011-05-08T10:16:49.000Z</time>
      </trkpt>
      <trkpt lat="43.86145" lon="7.00684">
        <ele>612</ele>
        <time>2011-05-08T10:16:50.000Z</time>
      </trkpt>
      <trkpt lat="43.86162" lon="7.0067">
        <ele>611.20001220703</ele>
        <time>2011-05-08T10:16:54.000Z</time>
      </trkpt>
      <trkpt lat="43.86165" lon="7.00667">
        <ele>611</ele>
        <time>2011-05-08T10:16:55.000Z</time>
      </trkpt>
      <trkpt lat="43.86177" lon="7.00657">
        <ele>607.79998779297</ele>
        <time>2011-05-08T10:16:58.000Z</time>
      </trkpt>
      <trkpt lat="43.8618" lon="7.00652">
        <ele>606.59997558594</ele>
        <time>2011-05-08T10:16:59.000Z</time>
      </trkpt>
      <trkpt lat="43.86186" lon="7.00642">
        <ele>604.40002441406</ele>
        <time>2011-05-08T10:17:01.000Z</time>
      </trkpt>
      <trkpt lat="43.86188" lon="7.00637">
        <ele>603.79998779297</ele>
        <time>2011-05-08T10:17:02.000Z</time>
      </trkpt>
      <trkpt lat="43.86189" lon="7.00631">
        <ele>603.20001220703</ele>
        <time>2011-05-08T10:17:03.000Z</time>
      </trkpt>
      <trkpt lat="43.8619" lon="7.00616">
        <ele>602</ele>
        <time>2011-05-08T10:17:05.000Z</time>
      </trkpt>
      <trkpt lat="43.86187" lon="7.00604">
        <ele>602.20001220703</ele>
        <time>2011-05-08T10:17:06.000Z</time>
      </trkpt>
      <trkpt lat="43.86183" lon="7.00573">
        <ele>602.79998779297</ele>
        <time>2011-05-08T10:17:09.000Z</time>
      </trkpt>
      <trkpt lat="43.86183" lon="7.00565">
        <ele>603</ele>
        <time>2011-05-08T10:17:10.000Z</time>
      </trkpt>
      <trkpt lat="43.86184" lon="7.00546">
        <ele>603</ele>
        <time>2011-05-08T10:17:12.000Z</time>
      </trkpt>
      <trkpt lat="43.86184" lon="7.00537">
        <ele>603</ele>
        <time>2011-05-08T10:17:13.000Z</time>
      </trkpt>
      <trkpt lat="43.86186" lon="7.00518">
        <ele>602.79998779297</ele>
        <time>2011-05-08T10:17:15.000Z</time>
      </trkpt>
      <trkpt lat="43.86193" lon="7.00497">
        <ele>600.40002441406</ele>
        <time>2011-05-08T10:17:18.000Z</time>
      </trkpt>
      <trkpt lat="43.86198" lon="7.00497">
        <ele>598.59997558594</ele>
        <time>2011-05-08T10:17:19.000Z</time>
      </trkpt>
      <trkpt lat="43.86205" lon="7.00499">
        <ele>596</ele>
        <time>2011-05-08T10:17:21.000Z</time>
      </trkpt>
      <trkpt lat="43.86217" lon="7.00492">
        <ele>591.59997558594</ele>
        <time>2011-05-08T10:17:26.000Z</time>
      </trkpt>
      <trkpt lat="43.86217" lon="7.00478">
        <ele>591.20001220703</ele>
        <time>2011-05-08T10:17:31.000Z</time>
      </trkpt>
      <trkpt lat="43.86216" lon="7.00476">
        <ele>591.40002441406</ele>
        <time>2011-05-08T10:17:32.000Z</time>
      </trkpt>
      <trkpt lat="43.86214" lon="7.00468">
        <ele>592.20001220703</ele>
        <time>2011-05-08T10:17:35.000Z</time>
      </trkpt>
      <trkpt lat="43.86212" lon="7.00461">
        <ele>593.20001220703</ele>
        <time>2011-05-08T10:17:38.000Z</time>
      </trkpt>
      <trkpt lat="43.86209" lon="7.00447">
        <ele>594.20001220703</ele>
        <time>2011-05-08T10:17:44.000Z</time>
      </trkpt>
      <trkpt lat="43.8621" lon="7.00442">
        <ele>594</ele>
        <time>2011-05-08T10:17:46.000Z</time>
      </trkpt>
      <trkpt lat="43.86206" lon="7.00429">
        <ele>596</ele>
        <time>2011-05-08T10:17:52.000Z</time>
      </trkpt>
      <trkpt lat="43.86202" lon="7.00418">
        <ele>598</ele>
        <time>2011-05-08T10:17:57.000Z</time>
      </trkpt>
      <trkpt lat="43.86201" lon="7.00409">
        <ele>598</ele>
        <time>2011-05-08T10:18:01.000Z</time>
      </trkpt>
      <trkpt lat="43.86198" lon="7.00393">
        <ele>598.40002441406</ele>
        <time>2011-05-08T10:18:08.000Z</time>
      </trkpt>
      <trkpt lat="43.8619" lon="7.0038">
        <ele>601.79998779297</ele>
        <time>2011-05-08T10:18:15.000Z</time>
      </trkpt>
      <trkpt lat="43.86187" lon="7.00373">
        <ele>603.59997558594</ele>
        <time>2011-05-08T10:18:19.000Z</time>
      </trkpt>
      <trkpt lat="43.86184" lon="7.00367">
        <ele>605</ele>
        <time>2011-05-08T10:18:22.000Z</time>
      </trkpt>
      <trkpt lat="43.86179" lon="7.00356">
        <ele>607.59997558594</ele>
        <time>2011-05-08T10:18:28.000Z</time>
      </trkpt>
      <trkpt lat="43.86177" lon="7.0035">
        <ele>608.59997558594</ele>
        <time>2011-05-08T10:18:31.000Z</time>
      </trkpt>
      <trkpt lat="43.86173" lon="7.0034">
        <ele>610.79998779297</ele>
        <time>2011-05-08T10:18:36.000Z</time>
      </trkpt>
      <trkpt lat="43.86168" lon="7.00327">
        <ele>613</ele>
        <time>2011-05-08T10:18:42.000Z</time>
      </trkpt>
      <trkpt lat="43.86166" lon="7.00321">
        <ele>613.59997558594</ele>
        <time>2011-05-08T10:18:45.000Z</time>
      </trkpt>
      <trkpt lat="43.86162" lon="7.00306">
        <ele>613.79998779297</ele>
        <time>2011-05-08T10:18:52.000Z</time>
      </trkpt>
      <trkpt lat="43.8616" lon="7.00302">
        <ele>614.40002441406</ele>
        <time>2011-05-08T10:18:55.000Z</time>
      </trkpt>
      <trkpt lat="43.86156" lon="7.00293">
        <ele>615.59997558594</ele>
        <time>2011-05-08T10:18:59.000Z</time>
      </trkpt>
      <trkpt lat="43.86155" lon="7.00291">
        <ele>615.79998779297</ele>
        <time>2011-05-08T10:19:00.000Z</time>
      </trkpt>
      <trkpt lat="43.86154" lon="7.0029">
        <ele>616.40002441406</ele>
        <time>2011-05-08T10:19:03.000Z</time>
      </trkpt>
      <trkpt lat="43.86158" lon="7.00294">
        <ele>614.59997558594</ele>
        <time>2011-05-08T10:19:28.000Z</time>
      </trkpt>
      <trkpt lat="43.86153" lon="7.00299">
        <ele>618</ele>
        <time>2011-05-08T10:19:35.000Z</time>
      </trkpt>
      <trkpt lat="43.86153" lon="7.00299">
        <ele>618.20001220703</ele>
        <time>2011-05-08T10:19:51.000Z</time>
      </trkpt>
      <trkpt lat="43.86154" lon="7.00298">
        <ele>617.79998779297</ele>
        <time>2011-05-08T10:19:54.000Z</time>
      </trkpt>
      <trkpt lat="43.86155" lon="7.00297">
        <ele>616.40002441406</ele>
        <time>2011-05-08T10:20:03.000Z</time>
      </trkpt>
      <trkpt lat="43.86156" lon="7.00301">
        <ele>616.59997558594</ele>
        <time>2011-05-08T10:20:06.000Z</time>
      </trkpt>
      <trkpt lat="43.86157" lon="7.00304">
        <ele>616.59997558594</ele>
        <time>2011-05-08T10:20:08.000Z</time>
      </trkpt>
      <trkpt lat="43.86158" lon="7.00309">
        <ele>616.79998779297</ele>
        <time>2011-05-08T10:20:11.000Z</time>
      </trkpt>
      <trkpt lat="43.86159" lon="7.00313">
        <ele>616.79998779297</ele>
        <time>2011-05-08T10:20:13.000Z</time>
      </trkpt>
      <trkpt lat="43.86159" lon="7.00324">
        <ele>617.59997558594</ele>
        <time>2011-05-08T10:20:18.000Z</time>
      </trkpt>
      <trkpt lat="43.86159" lon="7.00333">
        <ele>618.79998779297</ele>
        <time>2011-05-08T10:20:22.000Z</time>
      </trkpt>
      <trkpt lat="43.86159" lon="7.00338">
        <ele>619</ele>
        <time>2011-05-08T10:20:24.000Z</time>
      </trkpt>
      <trkpt lat="43.86159" lon="7.0034">
        <ele>619</ele>
        <time>2011-05-08T10:20:25.000Z</time>
      </trkpt>
      <trkpt lat="43.86163" lon="7.00356">
        <ele>617.59997558594</ele>
        <time>2011-05-08T10:20:33.000Z</time>
      </trkpt>
      <trkpt lat="43.86167" lon="7.00365">
        <ele>616.40002441406</ele>
        <time>2011-05-08T10:20:38.000Z</time>
      </trkpt>
      <trkpt lat="43.86167" lon="7.00369">
        <ele>616.20001220703</ele>
        <time>2011-05-08T10:20:40.000Z</time>
      </trkpt>
      <trkpt lat="43.86172" lon="7.00384">
        <ele>613.79998779297</ele>
        <time>2011-05-08T10:20:48.000Z</time>
      </trkpt>
      <trkpt lat="43.86174" lon="7.00389">
        <ele>613.20001220703</ele>
        <time>2011-05-08T10:20:51.000Z</time>
      </trkpt>
      <trkpt lat="43.86176" lon="7.00396">
        <ele>612</ele>
        <time>2011-05-08T10:20:55.000Z</time>
      </trkpt>
      <trkpt lat="43.86176" lon="7.00408">
        <ele>612.79998779297</ele>
        <time>2011-05-08T10:21:01.000Z</time>
      </trkpt>
      <trkpt lat="43.86175" lon="7.00409">
        <ele>613.20001220703</ele>
        <time>2011-05-08T10:21:02.000Z</time>
      </trkpt>
      <trkpt lat="43.86173" lon="7.00409">
        <ele>614.79998779297</ele>
        <time>2011-05-08T10:21:12.000Z</time>
      </trkpt>
      <trkpt lat="43.86174" lon="7.00409">
        <ele>614.20001220703</ele>
        <time>2011-05-08T10:21:37.000Z</time>
      </trkpt>
      <trkpt lat="43.86171" lon="7.00406">
        <ele>615.79998779297</ele>
        <time>2011-05-08T10:21:42.000Z</time>
      </trkpt>
      <trkpt lat="43.86167" lon="7.00406">
        <ele>618.20001220703</ele>
        <time>2011-05-08T10:21:50.000Z</time>
      </trkpt>
      <trkpt lat="43.86165" lon="7.00404">
        <ele>618.79998779297</ele>
        <time>2011-05-08T10:21:58.000Z</time>
      </trkpt>
      <trkpt lat="43.86161" lon="7.00403">
        <ele>620.20001220703</ele>
        <time>2011-05-08T10:22:06.000Z</time>
      </trkpt>
      <trkpt lat="43.86159" lon="7.00404">
        <ele>621</ele>
        <time>2011-05-08T10:22:12.000Z</time>
      </trkpt>
      <trkpt lat="43.86154" lon="7.00406">
        <ele>622.40002441406</ele>
        <time>2011-05-08T10:22:18.000Z</time>
      </trkpt>
      <trkpt lat="43.86153" lon="7.00405">
        <ele>622.59997558594</ele>
        <time>2011-05-08T10:22:20.000Z</time>
      </trkpt>
      <trkpt lat="43.8615" lon="7.00404">
        <ele>623.59997558594</ele>
        <time>2011-05-08T10:22:25.000Z</time>
      </trkpt>
      <trkpt lat="43.86148" lon="7.00401">
        <ele>624.40002441406</ele>
        <time>2011-05-08T10:22:31.000Z</time>
      </trkpt>
      <trkpt lat="43.86144" lon="7.00397">
        <ele>626</ele>
        <time>2011-05-08T10:22:39.000Z</time>
      </trkpt>
      <trkpt lat="43.86141" lon="7.00394">
        <ele>626.79998779297</ele>
        <time>2011-05-08T10:22:45.000Z</time>
      </trkpt>
      <trkpt lat="43.86138" lon="7.00395">
        <ele>628</ele>
        <time>2011-05-08T10:22:49.000Z</time>
      </trkpt>
      <trkpt lat="43.86136" lon="7.00395">
        <ele>628.59997558594</ele>
        <time>2011-05-08T10:22:53.000Z</time>
      </trkpt>
      <trkpt lat="43.86134" lon="7.00394">
        <ele>629.20001220703</ele>
        <time>2011-05-08T10:22:58.000Z</time>
      </trkpt>
      <trkpt lat="43.86132" lon="7.00391">
        <ele>630.40002441406</ele>
        <time>2011-05-08T10:23:04.000Z</time>
      </trkpt>
      <trkpt lat="43.86129" lon="7.00388">
        <ele>631.59997558594</ele>
        <time>2011-05-08T10:23:10.000Z</time>
      </trkpt>
      <trkpt lat="43.86123" lon="7.00387">
        <ele>634</ele>
        <time>2011-05-08T10:23:19.000Z</time>
      </trkpt>
      <trkpt lat="43.86122" lon="7.00386">
        <ele>634.59997558594</ele>
        <time>2011-05-08T10:23:21.000Z</time>
      </trkpt>
      <trkpt lat="43.8612" lon="7.00383">
        <ele>635.40002441406</ele>
        <time>2011-05-08T10:23:26.000Z</time>
      </trkpt>
      <trkpt lat="43.86117" lon="7.00383">
        <ele>636.79998779297</ele>
        <time>2011-05-08T10:23:32.000Z</time>
      </trkpt>
      <trkpt lat="43.86114" lon="7.00381">
        <ele>638</ele>
        <time>2011-05-08T10:23:37.000Z</time>
      </trkpt>
      <trkpt lat="43.86111" lon="7.00381">
        <ele>639.20001220703</ele>
        <time>2011-05-08T10:23:43.000Z</time>
      </trkpt>
      <trkpt lat="43.86108" lon="7.00379">
        <ele>640.59997558594</ele>
        <time>2011-05-08T10:23:52.000Z</time>
      </trkpt>
      <trkpt lat="43.86106" lon="7.00378">
        <ele>641.59997558594</ele>
        <time>2011-05-08T10:23:58.000Z</time>
      </trkpt>
      <trkpt lat="43.86105" lon="7.00374">
        <ele>642.79998779297</ele>
        <time>2011-05-08T10:24:05.000Z</time>
      </trkpt>
      <trkpt lat="43.86104" lon="7.00373">
        <ele>643.20001220703</ele>
        <time>2011-05-08T10:24:06.000Z</time>
      </trkpt>
      <trkpt lat="43.86102" lon="7.00367">
        <ele>644.79998779297</ele>
        <time>2011-05-08T10:24:11.000Z</time>
      </trkpt>
      <trkpt lat="43.86102" lon="7.00366">
        <ele>645.20001220703</ele>
        <time>2011-05-08T10:24:12.000Z</time>
      </trkpt>
      <trkpt lat="43.861" lon="7.00363">
        <ele>646.20001220703</ele>
        <time>2011-05-08T10:24:20.000Z</time>
      </trkpt>
      <trkpt lat="43.861" lon="7.0036">
        <ele>647</ele>
        <time>2011-05-08T10:24:26.000Z</time>
      </trkpt>
      <trkpt lat="43.86096" lon="7.0036">
        <ele>648.59997558594</ele>
        <time>2011-05-08T10:24:34.000Z</time>
      </trkpt>
      <trkpt lat="43.86094" lon="7.00357">
        <ele>650</ele>
        <time>2011-05-08T10:24:39.000Z</time>
      </trkpt>
      <trkpt lat="43.86093" lon="7.00357">
        <ele>650.59997558594</ele>
        <time>2011-05-08T10:24:40.000Z</time>
      </trkpt>
      <trkpt lat="43.86092" lon="7.00356">
        <ele>651.40002441406</ele>
        <time>2011-05-08T10:24:42.000Z</time>
      </trkpt>
      <trkpt lat="43.86089" lon="7.0035">
        <ele>653.79998779297</ele>
        <time>2011-05-08T10:24:47.000Z</time>
      </trkpt>
      <trkpt lat="43.86083" lon="7.00342">
        <ele>658</ele>
        <time>2011-05-08T10:24:58.000Z</time>
      </trkpt>
      <trkpt lat="43.86082" lon="7.00338">
        <ele>659</ele>
        <time>2011-05-08T10:25:04.000Z</time>
      </trkpt>
      <trkpt lat="43.86082" lon="7.00337">
        <ele>659</ele>
        <time>2011-05-08T10:25:05.000Z</time>
      </trkpt>
      <trkpt lat="43.86077" lon="7.00334">
        <ele>659.20001220703</ele>
        <time>2011-05-08T10:25:11.000Z</time>
      </trkpt>
      <trkpt lat="43.86073" lon="7.00329">
        <ele>659</ele>
        <time>2011-05-08T10:25:19.000Z</time>
      </trkpt>
      <trkpt lat="43.86069" lon="7.00321">
        <ele>658.79998779297</ele>
        <time>2011-05-08T10:25:27.000Z</time>
      </trkpt>
      <trkpt lat="43.86067" lon="7.00321">
        <ele>658.79998779297</ele>
        <time>2011-05-08T10:25:28.000Z</time>
      </trkpt>
      <trkpt lat="43.86064" lon="7.00315">
        <ele>658.79998779297</ele>
        <time>2011-05-08T10:25:35.000Z</time>
      </trkpt>
      <trkpt lat="43.86064" lon="7.00314">
        <ele>658.79998779297</ele>
        <time>2011-05-08T10:25:36.000Z</time>
      </trkpt>
      <trkpt lat="43.86063" lon="7.0031">
        <ele>659</ele>
        <time>2011-05-08T10:25:40.000Z</time>
      </trkpt>
      <trkpt lat="43.86062" lon="7.00306">
        <ele>659</ele>
        <time>2011-05-08T10:25:45.000Z</time>
      </trkpt>
      <trkpt lat="43.86061" lon="7.00305">
        <ele>659.20001220703</ele>
        <time>2011-05-08T10:25:47.000Z</time>
      </trkpt>
      <trkpt lat="43.86058" lon="7.00303">
        <ele>659.40002441406</ele>
        <time>2011-05-08T10:25:52.000Z</time>
      </trkpt>
      <trkpt lat="43.86057" lon="7.00303">
        <ele>659.40002441406</ele>
        <time>2011-05-08T10:25:53.000Z</time>
      </trkpt>
      <trkpt lat="43.86055" lon="7.00302">
        <ele>659.59997558594</ele>
        <time>2011-05-08T10:26:01.000Z</time>
      </trkpt>
      <trkpt lat="43.86055" lon="7.00299">
        <ele>659.79998779297</ele>
        <time>2011-05-08T10:26:08.000Z</time>
      </trkpt>
      <trkpt lat="43.86054" lon="7.00289">
        <ele>660.40002441406</ele>
        <time>2011-05-08T10:27:10.000Z</time>
      </trkpt>
      <trkpt lat="43.86053" lon="7.0028">
        <ele>661</ele>
        <time>2011-05-08T10:27:17.000Z</time>
      </trkpt>
      <trkpt lat="43.86046" lon="7.0028">
        <ele>662</ele>
        <time>2011-05-08T10:27:23.000Z</time>
      </trkpt>
      <trkpt lat="43.86038" lon="7.00281">
        <ele>663</ele>
        <time>2011-05-08T10:27:30.000Z</time>
      </trkpt>
      <trkpt lat="43.86034" lon="7.0028">
        <ele>663.79998779297</ele>
        <time>2011-05-08T10:27:33.000Z</time>
      </trkpt>
      <trkpt lat="43.86028" lon="7.00278">
        <ele>665</ele>
        <time>2011-05-08T10:27:37.000Z</time>
      </trkpt>
      <trkpt lat="43.86017" lon="7.00268">
        <ele>668.79998779297</ele>
        <time>2011-05-08T10:27:44.000Z</time>
      </trkpt>
      <trkpt lat="43.86015" lon="7.00265">
        <ele>669.59997558594</ele>
        <time>2011-05-08T10:27:45.000Z</time>
      </trkpt>
      <trkpt lat="43.86002" lon="7.00252">
        <ele>675.59997558594</ele>
        <time>2011-05-08T10:27:52.000Z</time>
      </trkpt>
      <trkpt lat="43.85991" lon="7.00237">
        <ele>675.79998779297</ele>
        <time>2011-05-08T10:27:58.000Z</time>
      </trkpt>
      <trkpt lat="43.85989" lon="7.00234">
        <ele>675.79998779297</ele>
        <time>2011-05-08T10:27:59.000Z</time>
      </trkpt>
      <trkpt lat="43.85975" lon="7.00213">
        <ele>675.79998779297</ele>
        <time>2011-05-08T10:28:06.000Z</time>
      </trkpt>
      <trkpt lat="43.85963" lon="7.00193">
        <ele>677.20001220703</ele>
        <time>2011-05-08T10:28:12.000Z</time>
      </trkpt>
      <trkpt lat="43.85954" lon="7.0018">
        <ele>678.40002441406</ele>
        <time>2011-05-08T10:28:16.000Z</time>
      </trkpt>
      <trkpt lat="43.8595" lon="7.00173">
        <ele>679.40002441406</ele>
        <time>2011-05-08T10:28:18.000Z</time>
      </trkpt>
      <trkpt lat="43.85936" lon="7.00153">
        <ele>681.40002441406</ele>
        <time>2011-05-08T10:28:24.000Z</time>
      </trkpt>
      <trkpt lat="43.85931" lon="7.00147">
        <ele>681.79998779297</ele>
        <time>2011-05-08T10:28:26.000Z</time>
      </trkpt>
      <trkpt lat="43.8592" lon="7.0014">
        <ele>682</ele>
        <time>2011-05-08T10:28:30.000Z</time>
      </trkpt>
      <trkpt lat="43.85914" lon="7.00139">
        <ele>681.40002441406</ele>
        <time>2011-05-08T10:28:32.000Z</time>
      </trkpt>
      <trkpt lat="43.85899" lon="7.00139">
        <ele>679.20001220703</ele>
        <time>2011-05-08T10:28:37.000Z</time>
      </trkpt>
      <trkpt lat="43.85897" lon="7.00137">
        <ele>679</ele>
        <time>2011-05-08T10:28:38.000Z</time>
      </trkpt>
      <trkpt lat="43.85886" lon="7.00118">
        <ele>681.20001220703</ele>
        <time>2011-05-08T10:28:44.000Z</time>
      </trkpt>
      <trkpt lat="43.85878" lon="7.00098">
        <ele>684.20001220703</ele>
        <time>2011-05-08T10:28:50.000Z</time>
      </trkpt>
      <trkpt lat="43.85877" lon="7.00095">
        <ele>684.59997558594</ele>
        <time>2011-05-08T10:28:51.000Z</time>
      </trkpt>
      <trkpt lat="43.85867" lon="7.00075">
        <ele>686.59997558594</ele>
        <time>2011-05-08T10:28:58.000Z</time>
      </trkpt>
      <trkpt lat="43.85866" lon="7.00071">
        <ele>686.59997558594</ele>
        <time>2011-05-08T10:28:59.000Z</time>
      </trkpt>
      <trkpt lat="43.85859" lon="7.00048">
        <ele>687.59997558594</ele>
        <time>2011-05-08T10:29:07.000Z</time>
      </trkpt>
      <trkpt lat="43.85856" lon="7.00044">
        <ele>687.59997558594</ele>
        <time>2011-05-08T10:29:09.000Z</time>
      </trkpt>
      <trkpt lat="43.85852" lon="7.00044">
        <ele>687.40002441406</ele>
        <time>2011-05-08T10:29:11.000Z</time>
      </trkpt>
      <trkpt lat="43.85847" lon="7.00047">
        <ele>686.79998779297</ele>
        <time>2011-05-08T10:29:16.000Z</time>
      </trkpt>
      <trkpt lat="43.85847" lon="7.00049">
        <ele>686.59997558594</ele>
        <time>2011-05-08T10:29:23.000Z</time>
      </trkpt>
      <trkpt lat="43.85847" lon="7.0005">
        <ele>686.59997558594</ele>
        <time>2011-05-08T10:29:30.000Z</time>
      </trkpt>
      <trkpt lat="43.85848" lon="7.00053">
        <ele>686.40002441406</ele>
        <time>2011-05-08T10:30:01.000Z</time>
      </trkpt>
      <trkpt lat="43.85849" lon="7.00053">
        <ele>686.40002441406</ele>
        <time>2011-05-08T10:30:07.000Z</time>
      </trkpt>
      <trkpt lat="43.85848" lon="7.00052">
        <ele>686.40002441406</ele>
        <time>2011-05-08T10:30:30.000Z</time>
      </trkpt>
      <trkpt lat="43.85846" lon="7.00049">
        <ele>686.59997558594</ele>
        <time>2011-05-08T10:32:03.000Z</time>
      </trkpt>
      <trkpt lat="43.85851" lon="7.00042">
        <ele>687.59997558594</ele>
        <time>2011-05-08T10:33:53.000Z</time>
      </trkpt>
      <trkpt lat="43.85852" lon="7.0004">
        <ele>687.79998779297</ele>
        <time>2011-05-08T10:33:56.000Z</time>
      </trkpt>
      <trkpt lat="43.85853" lon="7.00042">
        <ele>687.59997558594</ele>
        <time>2011-05-08T10:33:59.000Z</time>
      </trkpt>
      <trkpt lat="43.8585" lon="7.00051">
        <ele>686.59997558594</ele>
        <time>2011-05-08T10:35:42.000Z</time>
      </trkpt>
      <trkpt lat="43.8585" lon="7.0005">
        <ele>686.79998779297</ele>
        <time>2011-05-08T10:35:43.000Z</time>
      </trkpt>
      <trkpt lat="43.8585" lon="7.00049">
        <ele>686.79998779297</ele>
        <time>2011-05-08T10:35:44.000Z</time>
      </trkpt>
      <trkpt lat="43.8585" lon="7.00046">
        <ele>687.20001220703</ele>
        <time>2011-05-08T10:35:48.000Z</time>
      </trkpt>
      <trkpt lat="43.8585" lon="7.00045">
        <ele>687.20001220703</ele>
        <time>2011-05-08T10:35:49.000Z</time>
      </trkpt>
      <trkpt lat="43.8585" lon="7.00035">
        <ele>688</ele>
        <time>2011-05-08T10:35:54.000Z</time>
      </trkpt>
      <trkpt lat="43.85847" lon="7.00021">
        <ele>689.20001220703</ele>
        <time>2011-05-08T10:35:59.000Z</time>
      </trkpt>
      <trkpt lat="43.85837" lon="7.00005">
        <ele>690.40002441406</ele>
        <time>2011-05-08T10:36:05.000Z</time>
      </trkpt>
      <trkpt lat="43.85834" lon="7">
        <ele>691</ele>
        <time>2011-05-08T10:36:07.000Z</time>
      </trkpt>
      <trkpt lat="43.85826" lon="6.99987">
        <ele>693.20001220703</ele>
        <time>2011-05-08T10:36:12.000Z</time>
      </trkpt>
      <trkpt lat="43.85823" lon="6.99978">
        <ele>694.20001220703</ele>
        <time>2011-05-08T10:36:15.000Z</time>
      </trkpt>
      <trkpt lat="43.85818" lon="6.99966">
        <ele>695.59997558594</ele>
        <time>2011-05-08T10:36:19.000Z</time>
      </trkpt>
      <trkpt lat="43.85814" lon="6.99954">
        <ele>692.20001220703</ele>
        <time>2011-05-08T10:36:23.000Z</time>
      </trkpt>
      <trkpt lat="43.85809" lon="6.99942">
        <ele>692.40002441406</ele>
        <time>2011-05-08T10:36:27.000Z</time>
      </trkpt>
      <trkpt lat="43.85805" lon="6.99929">
        <ele>692.40002441406</ele>
        <time>2011-05-08T10:36:31.000Z</time>
      </trkpt>
      <trkpt lat="43.85802" lon="6.99918">
        <ele>692</ele>
        <time>2011-05-08T10:36:34.000Z</time>
      </trkpt>
      <trkpt lat="43.85799" lon="6.99904">
        <ele>691.20001220703</ele>
        <time>2011-05-08T10:36:38.000Z</time>
      </trkpt>
      <trkpt lat="43.85795" lon="6.99898">
        <ele>691.40002441406</ele>
        <time>2011-05-08T10:36:40.000Z</time>
      </trkpt>
      <trkpt lat="43.85786" lon="6.99888">
        <ele>692.79998779297</ele>
        <time>2011-05-08T10:36:44.000Z</time>
      </trkpt>
      <trkpt lat="43.85777" lon="6.99883">
        <ele>694.79998779297</ele>
        <time>2011-05-08T10:36:47.000Z</time>
      </trkpt>
      <trkpt lat="43.85766" lon="6.99879">
        <ele>697.79998779297</ele>
        <time>2011-05-08T10:36:51.000Z</time>
      </trkpt>
      <trkpt lat="43.85761" lon="6.99877">
        <ele>699.20001220703</ele>
        <time>2011-05-08T10:36:53.000Z</time>
      </trkpt>
      <trkpt lat="43.85748" lon="6.99869">
        <ele>702.59997558594</ele>
        <time>2011-05-08T10:36:58.000Z</time>
      </trkpt>
      <trkpt lat="43.85743" lon="6.99865">
        <ele>703.79998779297</ele>
        <time>2011-05-08T10:37:00.000Z</time>
      </trkpt>
      <trkpt lat="43.85732" lon="6.99853">
        <ele>707.20001220703</ele>
        <time>2011-05-08T10:37:05.000Z</time>
      </trkpt>
      <trkpt lat="43.85727" lon="6.99848">
        <ele>708.59997558594</ele>
        <time>2011-05-08T10:37:07.000Z</time>
      </trkpt>
      <trkpt lat="43.85718" lon="6.99834">
        <ele>711.20001220703</ele>
        <time>2011-05-08T10:37:12.000Z</time>
      </trkpt>
      <trkpt lat="43.85717" lon="6.9983">
        <ele>711.79998779297</ele>
        <time>2011-05-08T10:37:13.000Z</time>
      </trkpt>
      <trkpt lat="43.85719" lon="6.99816">
        <ele>711.40002441406</ele>
        <time>2011-05-08T10:37:17.000Z</time>
      </trkpt>
      <trkpt lat="43.85722" lon="6.99811">
        <ele>710</ele>
        <time>2011-05-08T10:37:19.000Z</time>
      </trkpt>
      <trkpt lat="43.85729" lon="6.99801">
        <ele>707.20001220703</ele>
        <time>2011-05-08T10:37:23.000Z</time>
      </trkpt>
      <trkpt lat="43.85734" lon="6.99793">
        <ele>705</ele>
        <time>2011-05-08T10:37:26.000Z</time>
      </trkpt>
      <trkpt lat="43.85745" lon="6.99775">
        <ele>700.20001220703</ele>
        <time>2011-05-08T10:37:32.000Z</time>
      </trkpt>
      <trkpt lat="43.85747" lon="6.99773">
        <ele>699.59997558594</ele>
        <time>2011-05-08T10:37:33.000Z</time>
      </trkpt>
      <trkpt lat="43.85759" lon="6.99751">
        <ele>695.20001220703</ele>
        <time>2011-05-08T10:37:40.000Z</time>
      </trkpt>
      <trkpt lat="43.85761" lon="6.99744">
        <ele>693.79998779297</ele>
        <time>2011-05-08T10:37:42.000Z</time>
      </trkpt>
      <trkpt lat="43.85763" lon="6.99723">
        <ele>691.59997558594</ele>
        <time>2011-05-08T10:37:47.000Z</time>
      </trkpt>
      <trkpt lat="43.85762" lon="6.99719">
        <ele>691.59997558594</ele>
        <time>2011-05-08T10:37:48.000Z</time>
      </trkpt>
      <trkpt lat="43.85756" lon="6.99698">
        <ele>692.59997558594</ele>
        <time>2011-05-08T10:37:53.000Z</time>
      </trkpt>
      <trkpt lat="43.85753" lon="6.9969">
        <ele>693.40002441406</ele>
        <time>2011-05-08T10:37:55.000Z</time>
      </trkpt>
      <trkpt lat="43.85745" lon="6.99675">
        <ele>695.40002441406</ele>
        <time>2011-05-08T10:37:59.000Z</time>
      </trkpt>
      <trkpt lat="43.85733" lon="6.99659">
        <ele>697.59997558594</ele>
        <time>2011-05-08T10:38:04.000Z</time>
      </trkpt>
      <trkpt lat="43.85731" lon="6.99657">
        <ele>698</ele>
        <time>2011-05-08T10:38:05.000Z</time>
      </trkpt>
      <trkpt lat="43.85716" lon="6.99642">
        <ele>700</ele>
        <time>2011-05-08T10:38:11.000Z</time>
      </trkpt>
      <trkpt lat="43.85713" lon="6.9964">
        <ele>700.20001220703</ele>
        <time>2011-05-08T10:38:12.000Z</time>
      </trkpt>
      <trkpt lat="43.857" lon="6.99624">
        <ele>700.20001220703</ele>
        <time>2011-05-08T10:38:18.000Z</time>
      </trkpt>
      <trkpt lat="43.8569" lon="6.99606">
        <ele>697.79998779297</ele>
        <time>2011-05-08T10:38:24.000Z</time>
      </trkpt>
      <trkpt lat="43.85688" lon="6.99603">
        <ele>697.20001220703</ele>
        <time>2011-05-08T10:38:25.000Z</time>
      </trkpt>
      <trkpt lat="43.85678" lon="6.99593">
        <ele>696.20001220703</ele>
        <time>2011-05-08T10:38:30.000Z</time>
      </trkpt>
      <trkpt lat="43.85672" lon="6.99592">
        <ele>697</ele>
        <time>2011-05-08T10:38:32.000Z</time>
      </trkpt>
      <trkpt lat="43.85665" lon="6.99596">
        <ele>699</ele>
        <time>2011-05-08T10:38:35.000Z</time>
      </trkpt>
      <trkpt lat="43.85654" lon="6.99603">
        <ele>700.59997558594</ele>
        <time>2011-05-08T10:38:40.000Z</time>
      </trkpt>
      <trkpt lat="43.85649" lon="6.99603">
        <ele>700.59997558594</ele>
        <time>2011-05-08T10:38:42.000Z</time>
      </trkpt>
      <trkpt lat="43.85636" lon="6.99605">
        <ele>700.79998779297</ele>
        <time>2011-05-08T10:38:48.000Z</time>
      </trkpt>
      <trkpt lat="43.85633" lon="6.99606">
        <ele>700.79998779297</ele>
        <time>2011-05-08T10:38:49.000Z</time>
      </trkpt>
      <trkpt lat="43.85617" lon="6.99612">
        <ele>702.40002441406</ele>
        <time>2011-05-08T10:38:56.000Z</time>
      </trkpt>
      <trkpt lat="43.8561" lon="6.99614">
        <ele>703</ele>
        <time>2011-05-08T10:38:59.000Z</time>
      </trkpt>
      <trkpt lat="43.85598" lon="6.99615">
        <ele>703</ele>
        <time>2011-05-08T10:39:04.000Z</time>
      </trkpt>
      <trkpt lat="43.85591" lon="6.99614">
        <ele>702.20001220703</ele>
        <time>2011-05-08T10:39:07.000Z</time>
      </trkpt>
      <trkpt lat="43.8558" lon="6.99615">
        <ele>701.40002441406</ele>
        <time>2011-05-08T10:39:12.000Z</time>
      </trkpt>
      <trkpt lat="43.85575" lon="6.99619">
        <ele>701.40002441406</ele>
        <time>2011-05-08T10:39:14.000Z</time>
      </trkpt>
      <trkpt lat="43.85569" lon="6.99636">
        <ele>706.79998779297</ele>
        <time>2011-05-08T10:39:19.000Z</time>
      </trkpt>
      <trkpt lat="43.85557" lon="6.99657">
        <ele>712</ele>
        <time>2011-05-08T10:39:26.000Z</time>
      </trkpt>
      <trkpt lat="43.85539" lon="6.99666">
        <ele>710.79998779297</ele>
        <time>2011-05-08T10:39:32.000Z</time>
      </trkpt>
      <trkpt lat="43.8552" lon="6.99664">
        <ele>705</ele>
        <time>2011-05-08T10:39:38.000Z</time>
      </trkpt>
      <trkpt lat="43.85517" lon="6.99664">
        <ele>704.20001220703</ele>
        <time>2011-05-08T10:39:39.000Z</time>
      </trkpt>
      <trkpt lat="43.85506" lon="6.99671">
        <ele>704</ele>
        <time>2011-05-08T10:39:43.000Z</time>
      </trkpt>
      <trkpt lat="43.85504" lon="6.99676">
        <ele>705</ele>
        <time>2011-05-08T10:39:44.000Z</time>
      </trkpt>
      <trkpt lat="43.85499" lon="6.99698">
        <ele>710.59997558594</ele>
        <time>2011-05-08T10:39:49.000Z</time>
      </trkpt>
      <trkpt lat="43.85497" lon="6.99701">
        <ele>711.40002441406</ele>
        <time>2011-05-08T10:39:50.000Z</time>
      </trkpt>
      <trkpt lat="43.85487" lon="6.99713">
        <ele>711.79998779297</ele>
        <time>2011-05-08T10:39:54.000Z</time>
      </trkpt>
      <trkpt lat="43.8548" lon="6.99715">
        <ele>710.79998779297</ele>
        <time>2011-05-08T10:39:56.000Z</time>
      </trkpt>
      <trkpt lat="43.85467" lon="6.99719">
        <ele>708.20001220703</ele>
        <time>2011-05-08T10:40:00.000Z</time>
      </trkpt>
      <trkpt lat="43.8546" lon="6.99723">
        <ele>707.59997558594</ele>
        <time>2011-05-08T10:40:02.000Z</time>
      </trkpt>
      <trkpt lat="43.85443" lon="6.99734">
        <ele>707.20001220703</ele>
        <time>2011-05-08T10:40:07.000Z</time>
      </trkpt>
      <trkpt lat="43.8544" lon="6.99736">
        <ele>707</ele>
        <time>2011-05-08T10:40:08.000Z</time>
      </trkpt>
      <trkpt lat="43.85426" lon="6.99746">
        <ele>707.59997558594</ele>
        <time>2011-05-08T10:40:12.000Z</time>
      </trkpt>
      <trkpt lat="43.85419" lon="6.99752">
        <ele>707.40002441406</ele>
        <time>2011-05-08T10:40:14.000Z</time>
      </trkpt>
      <trkpt lat="43.85408" lon="6.9976">
        <ele>706</ele>
        <time>2011-05-08T10:40:17.000Z</time>
      </trkpt>
      <trkpt lat="43.85393" lon="6.99771">
        <ele>704.59997558594</ele>
        <time>2011-05-08T10:40:22.000Z</time>
      </trkpt>
      <trkpt lat="43.8539" lon="6.99773">
        <ele>704.40002441406</ele>
        <time>2011-05-08T10:40:23.000Z</time>
      </trkpt>
      <trkpt lat="43.85372" lon="6.99781">
        <ele>702.79998779297</ele>
        <time>2011-05-08T10:40:29.000Z</time>
      </trkpt>
      <trkpt lat="43.85354" lon="6.99776">
        <ele>701.79998779297</ele>
        <time>2011-05-08T10:40:36.000Z</time>
      </trkpt>
      <trkpt lat="43.85337" lon="6.9977">
        <ele>700.79998779297</ele>
        <time>2011-05-08T10:40:44.000Z</time>
      </trkpt>
      <trkpt lat="43.85332" lon="6.99769">
        <ele>701.20001220703</ele>
        <time>2011-05-08T10:40:46.000Z</time>
      </trkpt>
      <trkpt lat="43.85318" lon="6.99763">
        <ele>706.40002441406</ele>
        <time>2011-05-08T10:40:53.000Z</time>
      </trkpt>
      <trkpt lat="43.85317" lon="6.99762">
        <ele>707</ele>
        <time>2011-05-08T10:40:54.000Z</time>
      </trkpt>
      <trkpt lat="43.85309" lon="6.99759">
        <ele>709.79998779297</ele>
        <time>2011-05-08T10:40:59.000Z</time>
      </trkpt>
      <trkpt lat="43.85308" lon="6.9976">
        <ele>710</ele>
        <time>2011-05-08T10:41:00.000Z</time>
      </trkpt>
      <trkpt lat="43.85311" lon="6.99768">
        <ele>708.79998779297</ele>
        <time>2011-05-08T10:41:04.000Z</time>
      </trkpt>
      <trkpt lat="43.85313" lon="6.9977">
        <ele>708.20001220703</ele>
        <time>2011-05-08T10:41:05.000Z</time>
      </trkpt>
      <trkpt lat="43.8532" lon="6.99779">
        <ele>705.40002441406</ele>
        <time>2011-05-08T10:41:10.000Z</time>
      </trkpt>
      <trkpt lat="43.85321" lon="6.99787">
        <ele>704.40002441406</ele>
        <time>2011-05-08T10:41:14.000Z</time>
      </trkpt>
      <trkpt lat="43.8532" lon="6.99789">
        <ele>704.59997558594</ele>
        <time>2011-05-08T10:41:15.000Z</time>
      </trkpt>
      <trkpt lat="43.85314" lon="6.99789">
        <ele>707</ele>
        <time>2011-05-08T10:41:19.000Z</time>
      </trkpt>
      <trkpt lat="43.85307" lon="6.9978">
        <ele>710</ele>
        <time>2011-05-08T10:41:25.000Z</time>
      </trkpt>
      <trkpt lat="43.85306" lon="6.99779">
        <ele>710.40002441406</ele>
        <time>2011-05-08T10:41:26.000Z</time>
      </trkpt>
      <trkpt lat="43.85298" lon="6.99773">
        <ele>713.40002441406</ele>
        <time>2011-05-08T10:41:32.000Z</time>
      </trkpt>
      <trkpt lat="43.85291" lon="6.99769">
        <ele>716</ele>
        <time>2011-05-08T10:41:37.000Z</time>
      </trkpt>
      <trkpt lat="43.85287" lon="6.99766">
        <ele>717.40002441406</ele>
        <time>2011-05-08T10:41:40.000Z</time>
      </trkpt>
      <trkpt lat="43.85276" lon="6.99761">
        <ele>720.79998779297</ele>
        <time>2011-05-08T10:41:48.000Z</time>
      </trkpt>
      <trkpt lat="43.85274" lon="6.99759">
        <ele>721.59997558594</ele>
        <time>2011-05-08T10:41:50.000Z</time>
      </trkpt>
      <trkpt lat="43.85268" lon="6.99757">
        <ele>723.59997558594</ele>
        <time>2011-05-08T10:41:55.000Z</time>
      </trkpt>
      <trkpt lat="43.85257" lon="6.99753">
        <ele>726.79998779297</ele>
        <time>2011-05-08T10:42:03.000Z</time>
      </trkpt>
      <trkpt lat="43.85256" lon="6.99753">
        <ele>727.20001220703</ele>
        <time>2011-05-08T10:42:04.000Z</time>
      </trkpt>
      <trkpt lat="43.85249" lon="6.99753">
        <ele>729.40002441406</ele>
        <time>2011-05-08T10:42:09.000Z</time>
      </trkpt>
      <trkpt lat="43.85246" lon="6.99753">
        <ele>730.40002441406</ele>
        <time>2011-05-08T10:42:11.000Z</time>
      </trkpt>
      <trkpt lat="43.85238" lon="6.99752">
        <ele>733.20001220703</ele>
        <time>2011-05-08T10:42:17.000Z</time>
      </trkpt>
      <trkpt lat="43.85236" lon="6.99751">
        <ele>733.79998779297</ele>
        <time>2011-05-08T10:42:18.000Z</time>
      </trkpt>
      <trkpt lat="43.85227" lon="6.99744">
        <ele>735.59997558594</ele>
        <time>2011-05-08T10:42:25.000Z</time>
      </trkpt>
      <trkpt lat="43.85222" lon="6.99738">
        <ele>736.59997558594</ele>
        <time>2011-05-08T10:42:30.000Z</time>
      </trkpt>
      <trkpt lat="43.85218" lon="6.99733">
        <ele>737.40002441406</ele>
        <time>2011-05-08T10:42:34.000Z</time>
      </trkpt>
      <trkpt lat="43.85213" lon="6.99723">
        <ele>737.79998779297</ele>
        <time>2011-05-08T10:42:42.000Z</time>
      </trkpt>
      <trkpt lat="43.8521" lon="6.99718">
        <ele>738</ele>
        <time>2011-05-08T10:42:46.000Z</time>
      </trkpt>
      <trkpt lat="43.85208" lon="6.99716">
        <ele>738.79998779297</ele>
        <time>2011-05-08T10:42:49.000Z</time>
      </trkpt>
      <trkpt lat="43.85197" lon="6.99708">
        <ele>742</ele>
        <time>2011-05-08T10:42:57.000Z</time>
      </trkpt>
      <trkpt lat="43.85193" lon="6.99707">
        <ele>743.40002441406</ele>
        <time>2011-05-08T10:43:00.000Z</time>
      </trkpt>
      <trkpt lat="43.8519" lon="6.99706">
        <ele>744.79998779297</ele>
        <time>2011-05-08T10:43:03.000Z</time>
      </trkpt>
      <trkpt lat="43.85183" lon="6.99705">
        <ele>747.79998779297</ele>
        <time>2011-05-08T10:43:09.000Z</time>
      </trkpt>
      <trkpt lat="43.85176" lon="6.99702">
        <ele>750.20001220703</ele>
        <time>2011-05-08T10:43:15.000Z</time>
      </trkpt>
      <trkpt lat="43.85174" lon="6.99702">
        <ele>751.20001220703</ele>
        <time>2011-05-08T10:43:17.000Z</time>
      </trkpt>
      <trkpt lat="43.85173" lon="6.99702">
        <ele>751.59997558594</ele>
        <time>2011-05-08T10:43:18.000Z</time>
      </trkpt>
      <trkpt lat="43.85168" lon="6.99699">
        <ele>753.20001220703</ele>
        <time>2011-05-08T10:43:22.000Z</time>
      </trkpt>
      <trkpt lat="43.8516" lon="6.99696">
        <ele>758.20001220703</ele>
        <time>2011-05-08T10:43:29.000Z</time>
      </trkpt>
      <trkpt lat="43.85158" lon="6.99696">
        <ele>759.40002441406</ele>
        <time>2011-05-08T10:43:32.000Z</time>
      </trkpt>
      <trkpt lat="43.85157" lon="6.99696">
        <ele>759.79998779297</ele>
        <time>2011-05-08T10:43:33.000Z</time>
      </trkpt>
      <trkpt lat="43.85152" lon="6.99693">
        <ele>763.20001220703</ele>
        <time>2011-05-08T10:43:43.000Z</time>
      </trkpt>
      <trkpt lat="43.85149" lon="6.99692">
        <ele>765</ele>
        <time>2011-05-08T10:43:48.000Z</time>
      </trkpt>
      <trkpt lat="43.85145" lon="6.99693">
        <ele>767.59997558594</ele>
        <time>2011-05-08T10:43:55.000Z</time>
      </trkpt>
      <trkpt lat="43.85141" lon="6.99691">
        <ele>770</ele>
        <time>2011-05-08T10:44:01.000Z</time>
      </trkpt>
      <trkpt lat="43.8514" lon="6.9969">
        <ele>770.79998779297</ele>
        <time>2011-05-08T10:44:03.000Z</time>
      </trkpt>
      <trkpt lat="43.85139" lon="6.99689">
        <ele>771.59997558594</ele>
        <time>2011-05-08T10:44:06.000Z</time>
      </trkpt>
      <trkpt lat="43.85139" lon="6.99685">
        <ele>771.20001220703</ele>
        <time>2011-05-08T10:44:11.000Z</time>
      </trkpt>
      <trkpt lat="43.85142" lon="6.99679">
        <ele>769.20001220703</ele>
        <time>2011-05-08T10:44:17.000Z</time>
      </trkpt>
      <trkpt lat="43.85145" lon="6.99674">
        <ele>767.20001220703</ele>
        <time>2011-05-08T10:44:23.000Z</time>
      </trkpt>
      <trkpt lat="43.85147" lon="6.9967">
        <ele>765.59997558594</ele>
        <time>2011-05-08T10:44:27.000Z</time>
      </trkpt>
      <trkpt lat="43.85147" lon="6.99669">
        <ele>765.20001220703</ele>
        <time>2011-05-08T10:44:29.000Z</time>
      </trkpt>
      <trkpt lat="43.85152" lon="6.99662">
        <ele>762.79998779297</ele>
        <time>2011-05-08T10:44:36.000Z</time>
      </trkpt>
      <trkpt lat="43.85153" lon="6.99656">
        <ele>762.20001220703</ele>
        <time>2011-05-08T10:44:41.000Z</time>
      </trkpt>
      <trkpt lat="43.85155" lon="6.9965">
        <ele>762.20001220703</ele>
        <time>2011-05-08T10:44:47.000Z</time>
      </trkpt>
      <trkpt lat="43.85154" lon="6.99647">
        <ele>762.79998779297</ele>
        <time>2011-05-08T10:44:49.000Z</time>
      </trkpt>
      <trkpt lat="43.85153" lon="6.99642">
        <ele>764.40002441406</ele>
        <time>2011-05-08T10:44:54.000Z</time>
      </trkpt>
      <trkpt lat="43.85152" lon="6.99633">
        <ele>765.79998779297</ele>
        <time>2011-05-08T10:45:03.000Z</time>
      </trkpt>
      <trkpt lat="43.85153" lon="6.99628">
        <ele>765.79998779297</ele>
        <time>2011-05-08T10:45:08.000Z</time>
      </trkpt>
      <trkpt lat="43.85155" lon="6.99624">
        <ele>765.20001220703</ele>
        <time>2011-05-08T10:45:12.000Z</time>
      </trkpt>
      <trkpt lat="43.85155" lon="6.99619">
        <ele>765.59997558594</ele>
        <time>2011-05-08T10:45:16.000Z</time>
      </trkpt>
      <trkpt lat="43.85156" lon="6.99614">
        <ele>765.20001220703</ele>
        <time>2011-05-08T10:45:23.000Z</time>
      </trkpt>
      <trkpt lat="43.85155" lon="6.9961">
        <ele>766.79998779297</ele>
        <time>2011-05-08T10:45:29.000Z</time>
      </trkpt>
      <trkpt lat="43.85154" lon="6.99604">
        <ele>767.79998779297</ele>
        <time>2011-05-08T10:45:37.000Z</time>
      </trkpt>
      <trkpt lat="43.85156" lon="6.99602">
        <ele>766.59997558594</ele>
        <time>2011-05-08T10:45:40.000Z</time>
      </trkpt>
      <trkpt lat="43.85157" lon="6.99601">
        <ele>766</ele>
        <time>2011-05-08T10:45:42.000Z</time>
      </trkpt>
      <trkpt lat="43.85157" lon="6.99595">
        <ele>766.79998779297</ele>
        <time>2011-05-08T10:45:49.000Z</time>
      </trkpt>
      <trkpt lat="43.85158" lon="6.99591">
        <ele>767.20001220703</ele>
        <time>2011-05-08T10:45:56.000Z</time>
      </trkpt>
      <trkpt lat="43.85159" lon="6.99585">
        <ele>766.79998779297</ele>
        <time>2011-05-08T10:46:02.000Z</time>
      </trkpt>
      <trkpt lat="43.85161" lon="6.99576">
        <ele>766</ele>
        <time>2011-05-08T10:46:11.000Z</time>
      </trkpt>
      <trkpt lat="43.85162" lon="6.99571">
        <ele>764.79998779297</ele>
        <time>2011-05-08T10:46:16.000Z</time>
      </trkpt>
      <trkpt lat="43.85164" lon="6.99563">
        <ele>763.40002441406</ele>
        <time>2011-05-08T10:46:25.000Z</time>
      </trkpt>
      <trkpt lat="43.85165" lon="6.99553">
        <ele>763</ele>
        <time>2011-05-08T10:46:33.000Z</time>
      </trkpt>
      <trkpt lat="43.85166" lon="6.99552">
        <ele>762.59997558594</ele>
        <time>2011-05-08T10:46:34.000Z</time>
      </trkpt>
      <trkpt lat="43.85164" lon="6.99543">
        <ele>763.59997558594</ele>
        <time>2011-05-08T10:46:41.000Z</time>
      </trkpt>
      <trkpt lat="43.85164" lon="6.99541">
        <ele>763.59997558594</ele>
        <time>2011-05-08T10:46:42.000Z</time>
      </trkpt>
      <trkpt lat="43.85164" lon="6.99538">
        <ele>763.79998779297</ele>
        <time>2011-05-08T10:46:44.000Z</time>
      </trkpt>
      <trkpt lat="43.85163" lon="6.99536">
        <ele>764.20001220703</ele>
        <time>2011-05-08T10:46:45.000Z</time>
      </trkpt>
      <trkpt lat="43.85161" lon="6.99527">
        <ele>765.59997558594</ele>
        <time>2011-05-08T10:46:49.000Z</time>
      </trkpt>
      <trkpt lat="43.8516" lon="6.99524">
        <ele>766</ele>
        <time>2011-05-08T10:46:50.000Z</time>
      </trkpt>
      <trkpt lat="43.85149" lon="6.99508">
        <ele>773</ele>
        <time>2011-05-08T10:46:58.000Z</time>
      </trkpt>
      <trkpt lat="43.8514" lon="6.99501">
        <ele>778.59997558594</ele>
        <time>2011-05-08T10:47:04.000Z</time>
      </trkpt>
      <trkpt lat="43.85135" lon="6.99493">
        <ele>780.79998779297</ele>
        <time>2011-05-08T10:47:08.000Z</time>
      </trkpt>
      <trkpt lat="43.85133" lon="6.99489">
        <ele>781.59997558594</ele>
        <time>2011-05-08T10:47:10.000Z</time>
      </trkpt>
      <trkpt lat="43.85129" lon="6.99475">
        <ele>782.79998779297</ele>
        <time>2011-05-08T10:47:16.000Z</time>
      </trkpt>
      <trkpt lat="43.85127" lon="6.99468">
        <ele>783</ele>
        <time>2011-05-08T10:47:19.000Z</time>
      </trkpt>
      <trkpt lat="43.85124" lon="6.9946">
        <ele>783.79998779297</ele>
        <time>2011-05-08T10:47:23.000Z</time>
      </trkpt>
      <trkpt lat="43.85116" lon="6.99453">
        <ele>787.79998779297</ele>
        <time>2011-05-08T10:47:29.000Z</time>
      </trkpt>
      <trkpt lat="43.85114" lon="6.99451">
        <ele>789.20001220703</ele>
        <time>2011-05-08T10:47:31.000Z</time>
      </trkpt>
      <trkpt lat="43.85112" lon="6.99447">
        <ele>790</ele>
        <time>2011-05-08T10:47:33.000Z</time>
      </trkpt>
      <trkpt lat="43.85111" lon="6.99439">
        <ele>789.59997558594</ele>
        <time>2011-05-08T10:47:37.000Z</time>
      </trkpt>
      <trkpt lat="43.85107" lon="6.99427">
        <ele>790.40002441406</ele>
        <time>2011-05-08T10:47:44.000Z</time>
      </trkpt>
      <trkpt lat="43.85106" lon="6.99426">
        <ele>790.59997558594</ele>
        <time>2011-05-08T10:47:45.000Z</time>
      </trkpt>
      <trkpt lat="43.85103" lon="6.99415">
        <ele>791.20001220703</ele>
        <time>2011-05-08T10:47:52.000Z</time>
      </trkpt>
      <trkpt lat="43.851" lon="6.99404">
        <ele>793.40002441406</ele>
        <time>2011-05-08T10:47:59.000Z</time>
      </trkpt>
      <trkpt lat="43.851" lon="6.99403">
        <ele>794</ele>
        <time>2011-05-08T10:48:00.000Z</time>
      </trkpt>
      <trkpt lat="43.85098" lon="6.99399">
        <ele>795.40002441406</ele>
        <time>2011-05-08T10:48:03.000Z</time>
      </trkpt>
      <trkpt lat="43.85097" lon="6.99397">
        <ele>795.79998779297</ele>
        <time>2011-05-08T10:48:05.000Z</time>
      </trkpt>
      <trkpt lat="43.85097" lon="6.99395">
        <ele>796.20001220703</ele>
        <time>2011-05-08T10:48:06.000Z</time>
      </trkpt>
      <trkpt lat="43.85095" lon="6.99389">
        <ele>797.20001220703</ele>
        <time>2011-05-08T10:48:10.000Z</time>
      </trkpt>
      <trkpt lat="43.85095" lon="6.99386">
        <ele>797.79998779297</ele>
        <time>2011-05-08T10:48:12.000Z</time>
      </trkpt>
      <trkpt lat="43.85093" lon="6.9938">
        <ele>799</ele>
        <time>2011-05-08T10:48:16.000Z</time>
      </trkpt>
      <trkpt lat="43.85092" lon="6.99376">
        <ele>799.79998779297</ele>
        <time>2011-05-08T10:48:18.000Z</time>
      </trkpt>
      <trkpt lat="43.85088" lon="6.99363">
        <ele>802.59997558594</ele>
        <time>2011-05-08T10:48:26.000Z</time>
      </trkpt>
      <trkpt lat="43.85088" lon="6.99358">
        <ele>803</ele>
        <time>2011-05-08T10:48:29.000Z</time>
      </trkpt>
      <trkpt lat="43.85088" lon="6.99355">
        <ele>803</ele>
        <time>2011-05-08T10:48:31.000Z</time>
      </trkpt>
      <trkpt lat="43.85088" lon="6.99354">
        <ele>803</ele>
        <time>2011-05-08T10:48:32.000Z</time>
      </trkpt>
      <trkpt lat="43.85089" lon="6.9935">
        <ele>802.79998779297</ele>
        <time>2011-05-08T10:48:34.000Z</time>
      </trkpt>
      <trkpt lat="43.85089" lon="6.99348">
        <ele>803</ele>
        <time>2011-05-08T10:48:35.000Z</time>
      </trkpt>
      <trkpt lat="43.85088" lon="6.99345">
        <ele>803.59997558594</ele>
        <time>2011-05-08T10:48:37.000Z</time>
      </trkpt>
      <trkpt lat="43.85088" lon="6.99341">
        <ele>804</ele>
        <time>2011-05-08T10:48:39.000Z</time>
      </trkpt>
      <trkpt lat="43.85088" lon="6.99334">
        <ele>804.20001220703</ele>
        <time>2011-05-08T10:48:44.000Z</time>
      </trkpt>
      <trkpt lat="43.85088" lon="6.99331">
        <ele>804.59997558594</ele>
        <time>2011-05-08T10:48:46.000Z</time>
      </trkpt>
      <trkpt lat="43.85087" lon="6.99322">
        <ele>806.40002441406</ele>
        <time>2011-05-08T10:48:51.000Z</time>
      </trkpt>
      <trkpt lat="43.85087" lon="6.9932">
        <ele>806.79998779297</ele>
        <time>2011-05-08T10:48:52.000Z</time>
      </trkpt>
      <trkpt lat="43.85087" lon="6.99313">
        <ele>807.59997558594</ele>
        <time>2011-05-08T10:48:56.000Z</time>
      </trkpt>
      <trkpt lat="43.85085" lon="6.99305">
        <ele>809.59997558594</ele>
        <time>2011-05-08T10:49:02.000Z</time>
      </trkpt>
      <trkpt lat="43.85085" lon="6.99298">
        <ele>810.79998779297</ele>
        <time>2011-05-08T10:49:06.000Z</time>
      </trkpt>
      <trkpt lat="43.85085" lon="6.99294">
        <ele>811</ele>
        <time>2011-05-08T10:49:08.000Z</time>
      </trkpt>
      <trkpt lat="43.85086" lon="6.99289">
        <ele>811</ele>
        <time>2011-05-08T10:49:11.000Z</time>
      </trkpt>
      <trkpt lat="43.85086" lon="6.99285">
        <ele>811.59997558594</ele>
        <time>2011-05-08T10:49:13.000Z</time>
      </trkpt>
      <trkpt lat="43.85087" lon="6.9928">
        <ele>811.79998779297</ele>
        <time>2011-05-08T10:49:16.000Z</time>
      </trkpt>
      <trkpt lat="43.85088" lon="6.99277">
        <ele>812</ele>
        <time>2011-05-08T10:49:18.000Z</time>
      </trkpt>
      <trkpt lat="43.85087" lon="6.99276">
        <ele>812.20001220703</ele>
        <time>2011-05-08T10:49:19.000Z</time>
      </trkpt>
      <trkpt lat="43.85087" lon="6.99269">
        <ele>813.40002441406</ele>
        <time>2011-05-08T10:49:23.000Z</time>
      </trkpt>
      <trkpt lat="43.85086" lon="6.99268">
        <ele>813.79998779297</ele>
        <time>2011-05-08T10:49:24.000Z</time>
      </trkpt>
      <trkpt lat="43.85087" lon="6.99262">
        <ele>814</ele>
        <time>2011-05-08T10:49:31.000Z</time>
      </trkpt>
      <trkpt lat="43.85089" lon="6.99257">
        <ele>813.59997558594</ele>
        <time>2011-05-08T10:49:38.000Z</time>
      </trkpt>
      <trkpt lat="43.85091" lon="6.99256">
        <ele>812.59997558594</ele>
        <time>2011-05-08T10:49:40.000Z</time>
      </trkpt>
      <trkpt lat="43.85093" lon="6.99253">
        <ele>811.79998779297</ele>
        <time>2011-05-08T10:49:45.000Z</time>
      </trkpt>
      <trkpt lat="43.85098" lon="6.99247">
        <ele>809.59997558594</ele>
        <time>2011-05-08T10:49:55.000Z</time>
      </trkpt>
      <trkpt lat="43.851" lon="6.99242">
        <ele>808.59997558594</ele>
        <time>2011-05-08T10:50:04.000Z</time>
      </trkpt>
      <trkpt lat="43.85101" lon="6.99238">
        <ele>808.40002441406</ele>
        <time>2011-05-08T10:50:12.000Z</time>
      </trkpt>
      <trkpt lat="43.851" lon="6.99236">
        <ele>808.79998779297</ele>
        <time>2011-05-08T10:50:15.000Z</time>
      </trkpt>
      <trkpt lat="43.85098" lon="6.99236">
        <ele>810</ele>
        <time>2011-05-08T10:50:18.000Z</time>
      </trkpt>
      <trkpt lat="43.85096" lon="6.99238">
        <ele>811.40002441406</ele>
        <time>2011-05-08T10:50:23.000Z</time>
      </trkpt>
      <trkpt lat="43.85096" lon="6.99243">
        <ele>811.20001220703</ele>
        <time>2011-05-08T10:50:29.000Z</time>
      </trkpt>
      <trkpt lat="43.85094" lon="6.99243">
        <ele>812</ele>
        <time>2011-05-08T10:50:39.000Z</time>
      </trkpt>
      <trkpt lat="43.85094" lon="6.99247">
        <ele>811.79998779297</ele>
        <time>2011-05-08T10:51:03.000Z</time>
      </trkpt>
      <trkpt lat="43.85095" lon="6.99242">
        <ele>811.40002441406</ele>
        <time>2011-05-08T10:51:06.000Z</time>
      </trkpt>
      <trkpt lat="43.85095" lon="6.9924">
        <ele>811.40002441406</ele>
        <time>2011-05-08T10:51:07.000Z</time>
      </trkpt>
      <trkpt lat="43.85097" lon="6.99228">
        <ele>810.79998779297</ele>
        <time>2011-05-08T10:51:15.000Z</time>
      </trkpt>
      <trkpt lat="43.85103" lon="6.99225">
        <ele>808</ele>
        <time>2011-05-08T10:51:22.000Z</time>
      </trkpt>
      <trkpt lat="43.85105" lon="6.99221">
        <ele>806.79998779297</ele>
        <time>2011-05-08T10:51:26.000Z</time>
      </trkpt>
      <trkpt lat="43.85107" lon="6.99214">
        <ele>805.79998779297</ele>
        <time>2011-05-08T10:51:31.000Z</time>
      </trkpt>
      <trkpt lat="43.85105" lon="6.99215">
        <ele>807</ele>
        <time>2011-05-08T10:51:38.000Z</time>
      </trkpt>
      <trkpt lat="43.85109" lon="6.9922">
        <ele>804.59997558594</ele>
        <time>2011-05-08T10:51:50.000Z</time>
      </trkpt>
      <trkpt lat="43.85107" lon="6.99222">
        <ele>805.40002441406</ele>
        <time>2011-05-08T10:51:51.000Z</time>
      </trkpt>
      <trkpt lat="43.85108" lon="6.99225">
        <ele>804.79998779297</ele>
        <time>2011-05-08T10:51:57.000Z</time>
      </trkpt>
      <trkpt lat="43.85109" lon="6.99229">
        <ele>803.79998779297</ele>
        <time>2011-05-08T10:52:06.000Z</time>
      </trkpt>
      <trkpt lat="43.85104" lon="6.99231">
        <ele>806.79998779297</ele>
        <time>2011-05-08T10:52:13.000Z</time>
      </trkpt>
      <trkpt lat="43.85108" lon="6.99233">
        <ele>804.59997558594</ele>
        <time>2011-05-08T10:52:24.000Z</time>
      </trkpt>
      <trkpt lat="43.85108" lon="6.99233">
        <ele>804.59997558594</ele>
        <time>2011-05-08T10:52:34.000Z</time>
      </trkpt>
      <trkpt lat="43.85108" lon="6.99234">
        <ele>804.20001220703</ele>
        <time>2011-05-08T10:53:02.000Z</time>
      </trkpt>
      <trkpt lat="43.85107" lon="6.99238">
        <ele>805</ele>
        <time>2011-05-08T10:53:10.000Z</time>
      </trkpt>
      <trkpt lat="43.85104" lon="6.99244">
        <ele>806.20001220703</ele>
        <time>2011-05-08T10:53:18.000Z</time>
      </trkpt>
      <trkpt lat="43.85104" lon="6.99244">
        <ele>806.59997558594</ele>
        <time>2011-05-08T10:53:19.000Z</time>
      </trkpt>
      <trkpt lat="43.85099" lon="6.99246">
        <ele>808.79998779297</ele>
        <time>2011-05-08T10:53:23.000Z</time>
      </trkpt>
      <trkpt lat="43.8509" lon="6.99238">
        <ele>814.40002441406</ele>
        <time>2011-05-08T10:53:48.000Z</time>
      </trkpt>
      <trkpt lat="43.85088" lon="6.99238">
        <ele>816</ele>
        <time>2011-05-08T10:54:05.000Z</time>
      </trkpt>
      <trkpt lat="43.85084" lon="6.9924">
        <ele>818</ele>
        <time>2011-05-08T10:54:08.000Z</time>
      </trkpt>
      <trkpt lat="43.85075" lon="6.99248">
        <ele>823.79998779297</ele>
        <time>2011-05-08T10:54:15.000Z</time>
      </trkpt>
      <trkpt lat="43.85072" lon="6.99251">
        <ele>825.59997558594</ele>
        <time>2011-05-08T10:54:17.000Z</time>
      </trkpt>
      <trkpt lat="43.85066" lon="6.9926">
        <ele>828.40002441406</ele>
        <time>2011-05-08T10:54:23.000Z</time>
      </trkpt>
      <trkpt lat="43.85061" lon="6.99269">
        <ele>830.20001220703</ele>
        <time>2011-05-08T10:54:28.000Z</time>
      </trkpt>
      <trkpt lat="43.8506" lon="6.99272">
        <ele>831</ele>
        <time>2011-05-08T10:54:30.000Z</time>
      </trkpt>
      <trkpt lat="43.85057" lon="6.99283">
        <ele>831.40002441406</ele>
        <time>2011-05-08T10:54:36.000Z</time>
      </trkpt>
      <trkpt lat="43.85054" lon="6.99297">
        <ele>831.40002441406</ele>
        <time>2011-05-08T10:54:43.000Z</time>
      </trkpt>
      <trkpt lat="43.85053" lon="6.99298">
        <ele>831.79998779297</ele>
        <time>2011-05-08T10:54:44.000Z</time>
      </trkpt>
      <trkpt lat="43.8505" lon="6.99313">
        <ele>832.40002441406</ele>
        <time>2011-05-08T10:54:52.000Z</time>
      </trkpt>
      <trkpt lat="43.85047" lon="6.9932">
        <ele>833.59997558594</ele>
        <time>2011-05-08T10:54:56.000Z</time>
      </trkpt>
      <trkpt lat="43.85044" lon="6.99328">
        <ele>834.20001220703</ele>
        <time>2011-05-08T10:55:00.000Z</time>
      </trkpt>
      <trkpt lat="43.85041" lon="6.99342">
        <ele>835</ele>
        <time>2011-05-08T10:55:08.000Z</time>
      </trkpt>
      <trkpt lat="43.85041" lon="6.99345">
        <ele>835</ele>
        <time>2011-05-08T10:55:10.000Z</time>
      </trkpt>
      <trkpt lat="43.85038" lon="6.99355">
        <ele>835.79998779297</ele>
        <time>2011-05-08T10:55:15.000Z</time>
      </trkpt>
      <trkpt lat="43.85041" lon="6.99369">
        <ele>833.20001220703</ele>
        <time>2011-05-08T10:55:22.000Z</time>
      </trkpt>
      <trkpt lat="43.85041" lon="6.99372">
        <ele>833</ele>
        <time>2011-05-08T10:55:24.000Z</time>
      </trkpt>
      <trkpt lat="43.8504" lon="6.99374">
        <ele>833.20001220703</ele>
        <time>2011-05-08T10:55:25.000Z</time>
      </trkpt>
      <trkpt lat="43.85041" lon="6.9938">
        <ele>832.40002441406</ele>
        <time>2011-05-08T10:55:29.000Z</time>
      </trkpt>
      <trkpt lat="43.8504" lon="6.99388">
        <ele>832.40002441406</ele>
        <time>2011-05-08T10:55:33.000Z</time>
      </trkpt>
      <trkpt lat="43.8504" lon="6.99398">
        <ele>831.79998779297</ele>
        <time>2011-05-08T10:55:37.000Z</time>
      </trkpt>
      <trkpt lat="43.85039" lon="6.99402">
        <ele>831.79998779297</ele>
        <time>2011-05-08T10:55:39.000Z</time>
      </trkpt>
      <trkpt lat="43.85037" lon="6.99404">
        <ele>832.79998779297</ele>
        <time>2011-05-08T10:55:43.000Z</time>
      </trkpt>
      <trkpt lat="43.85037" lon="6.99412">
        <ele>832.20001220703</ele>
        <time>2011-05-08T10:55:57.000Z</time>
      </trkpt>
      <trkpt lat="43.85034" lon="6.99423">
        <ele>834.40002441406</ele>
        <time>2011-05-08T10:56:03.000Z</time>
      </trkpt>
      <trkpt lat="43.85034" lon="6.99425">
        <ele>835</ele>
        <time>2011-05-08T10:56:04.000Z</time>
      </trkpt>
      <trkpt lat="43.85033" lon="6.99428">
        <ele>835.40002441406</ele>
        <time>2011-05-08T10:56:05.000Z</time>
      </trkpt>
      <trkpt lat="43.85032" lon="6.99432">
        <ele>836.40002441406</ele>
        <time>2011-05-08T10:56:07.000Z</time>
      </trkpt>
      <trkpt lat="43.85033" lon="6.99438">
        <ele>836.79998779297</ele>
        <time>2011-05-08T10:56:10.000Z</time>
      </trkpt>
      <trkpt lat="43.85033" lon="6.99446">
        <ele>837.40002441406</ele>
        <time>2011-05-08T10:56:13.000Z</time>
      </trkpt>
      <trkpt lat="43.85033" lon="6.99448">
        <ele>837.59997558594</ele>
        <time>2011-05-08T10:56:14.000Z</time>
      </trkpt>
      <trkpt lat="43.85034" lon="6.99455">
        <ele>838</ele>
        <time>2011-05-08T10:56:17.000Z</time>
      </trkpt>
      <trkpt lat="43.85034" lon="6.99468">
        <ele>839.59997558594</ele>
        <time>2011-05-08T10:56:23.000Z</time>
      </trkpt>
      <trkpt lat="43.85033" lon="6.99474">
        <ele>840.59997558594</ele>
        <time>2011-05-08T10:56:26.000Z</time>
      </trkpt>
      <trkpt lat="43.85033" lon="6.99483">
        <ele>841.40002441406</ele>
        <time>2011-05-08T10:56:30.000Z</time>
      </trkpt>
      <trkpt lat="43.85034" lon="6.99498">
        <ele>842.40002441406</ele>
        <time>2011-05-08T10:56:36.000Z</time>
      </trkpt>
      <trkpt lat="43.85035" lon="6.99506">
        <ele>842.59997558594</ele>
        <time>2011-05-08T10:56:39.000Z</time>
      </trkpt>
      <trkpt lat="43.85036" lon="6.99513">
        <ele>842.79998779297</ele>
        <time>2011-05-08T10:56:42.000Z</time>
      </trkpt>
      <trkpt lat="43.85037" lon="6.99519">
        <ele>842.20001220703</ele>
        <time>2011-05-08T10:56:45.000Z</time>
      </trkpt>
      <trkpt lat="43.85039" lon="6.99522">
        <ele>841.40002441406</ele>
        <time>2011-05-08T10:56:46.000Z</time>
      </trkpt>
      <trkpt lat="43.85041" lon="6.99535">
        <ele>841</ele>
        <time>2011-05-08T10:56:51.000Z</time>
      </trkpt>
      <trkpt lat="43.85034" lon="6.99539">
        <ele>845.40002441406</ele>
        <time>2011-05-08T10:56:55.000Z</time>
      </trkpt>
      <trkpt lat="43.85027" lon="6.99527">
        <ele>848.79998779297</ele>
        <time>2011-05-08T10:57:00.000Z</time>
      </trkpt>
      <trkpt lat="43.85026" lon="6.99521">
        <ele>849</ele>
        <time>2011-05-08T10:57:02.000Z</time>
      </trkpt>
      <trkpt lat="43.85025" lon="6.99517">
        <ele>849.20001220703</ele>
        <time>2011-05-08T10:57:03.000Z</time>
      </trkpt>
      <trkpt lat="43.85024" lon="6.99503">
        <ele>849</ele>
        <time>2011-05-08T10:57:07.000Z</time>
      </trkpt>
      <trkpt lat="43.85022" lon="6.9949">
        <ele>849</ele>
        <time>2011-05-08T10:57:11.000Z</time>
      </trkpt>
      <trkpt lat="43.85021" lon="6.99485">
        <ele>849.20001220703</ele>
        <time>2011-05-08T10:57:13.000Z</time>
      </trkpt>
      <trkpt lat="43.85015" lon="6.99465">
        <ele>850.40002441406</ele>
        <time>2011-05-08T10:57:18.000Z</time>
      </trkpt>
      <trkpt lat="43.85014" lon="6.99462">
        <ele>850.59997558594</ele>
        <time>2011-05-08T10:57:19.000Z</time>
      </trkpt>
      <trkpt lat="43.85009" lon="6.99439">
        <ele>851.79998779297</ele>
        <time>2011-05-08T10:57:25.000Z</time>
      </trkpt>
      <trkpt lat="43.85006" lon="6.99428">
        <ele>852.20001220703</ele>
        <time>2011-05-08T10:57:28.000Z</time>
      </trkpt>
      <trkpt lat="43.85004" lon="6.99411">
        <ele>853</ele>
        <time>2011-05-08T10:57:33.000Z</time>
      </trkpt>
      <trkpt lat="43.85003" lon="6.99397">
        <ele>855</ele>
        <time>2011-05-08T10:57:37.000Z</time>
      </trkpt>
      <trkpt lat="43.85002" lon="6.99385">
        <ele>857</ele>
        <time>2011-05-08T10:57:40.000Z</time>
      </trkpt>
      <trkpt lat="43.85" lon="6.99363">
        <ele>860.59997558594</ele>
        <time>2011-05-08T10:57:46.000Z</time>
      </trkpt>
      <trkpt lat="43.85" lon="6.99359">
        <ele>861</ele>
        <time>2011-05-08T10:57:47.000Z</time>
      </trkpt>
      <trkpt lat="43.85002" lon="6.99338">
        <ele>862.20001220703</ele>
        <time>2011-05-08T10:57:53.000Z</time>
      </trkpt>
      <trkpt lat="43.85002" lon="6.99331">
        <ele>862.59997558594</ele>
        <time>2011-05-08T10:57:55.000Z</time>
      </trkpt>
      <trkpt lat="43.85004" lon="6.99316">
        <ele>862.79998779297</ele>
        <time>2011-05-08T10:58:00.000Z</time>
      </trkpt>
      <trkpt lat="43.85006" lon="6.99306">
        <ele>863</ele>
        <time>2011-05-08T10:58:04.000Z</time>
      </trkpt>
      <trkpt lat="43.85008" lon="6.99295">
        <ele>863</ele>
        <time>2011-05-08T10:58:08.000Z</time>
      </trkpt>
      <trkpt lat="43.85009" lon="6.9928">
        <ele>863.79998779297</ele>
        <time>2011-05-08T10:58:13.000Z</time>
      </trkpt>
      <trkpt lat="43.85011" lon="6.9927">
        <ele>864</ele>
        <time>2011-05-08T10:58:17.000Z</time>
      </trkpt>
      <trkpt lat="43.85013" lon="6.99255">
        <ele>864.20001220703</ele>
        <time>2011-05-08T10:58:24.000Z</time>
      </trkpt>
      <trkpt lat="43.85014" lon="6.9924">
        <ele>864.79998779297</ele>
        <time>2011-05-08T10:58:31.000Z</time>
      </trkpt>
      <trkpt lat="43.85016" lon="6.99229">
        <ele>863.79998779297</ele>
        <time>2011-05-08T10:58:36.000Z</time>
      </trkpt>
      <trkpt lat="43.85017" lon="6.99219">
        <ele>864</ele>
        <time>2011-05-08T10:58:39.000Z</time>
      </trkpt>
      <trkpt lat="43.85019" lon="6.99203">
        <ele>863.20001220703</ele>
        <time>2011-05-08T10:58:45.000Z</time>
      </trkpt>
      <trkpt lat="43.85019" lon="6.99195">
        <ele>863.79998779297</ele>
        <time>2011-05-08T10:58:48.000Z</time>
      </trkpt>
      <trkpt lat="43.85018" lon="6.99181">
        <ele>865</ele>
        <time>2011-05-08T10:58:54.000Z</time>
      </trkpt>
      <trkpt lat="43.85018" lon="6.99178">
        <ele>865.20001220703</ele>
        <time>2011-05-08T10:58:55.000Z</time>
      </trkpt>
      <trkpt lat="43.85013" lon="6.99154">
        <ele>869.20001220703</ele>
        <time>2011-05-08T10:59:02.000Z</time>
      </trkpt>
      <trkpt lat="43.85012" lon="6.9915">
        <ele>869.79998779297</ele>
        <time>2011-05-08T10:59:03.000Z</time>
      </trkpt>
      <trkpt lat="43.85008" lon="6.99129">
        <ele>872.59997558594</ele>
        <time>2011-05-08T10:59:09.000Z</time>
      </trkpt>
      <trkpt lat="43.85008" lon="6.99125">
        <ele>873</ele>
        <time>2011-05-08T10:59:10.000Z</time>
      </trkpt>
      <trkpt lat="43.85006" lon="6.99099">
        <ele>874.20001220703</ele>
        <time>2011-05-08T10:59:18.000Z</time>
      </trkpt>
      <trkpt lat="43.85006" lon="6.99096">
        <ele>874.20001220703</ele>
        <time>2011-05-08T10:59:19.000Z</time>
      </trkpt>
      <trkpt lat="43.85006" lon="6.99074">
        <ele>875.59997558594</ele>
        <time>2011-05-08T10:59:26.000Z</time>
      </trkpt>
      <trkpt lat="43.85008" lon="6.99048">
        <ele>877</ele>
        <time>2011-05-08T10:59:34.000Z</time>
      </trkpt>
      <trkpt lat="43.85012" lon="6.99025">
        <ele>876.79998779297</ele>
        <time>2011-05-08T10:59:41.000Z</time>
      </trkpt>
      <trkpt lat="43.85012" lon="6.99022">
        <ele>876.59997558594</ele>
        <time>2011-05-08T10:59:42.000Z</time>
      </trkpt>
      <trkpt lat="43.85016" lon="6.98998">
        <ele>876.40002441406</ele>
        <time>2011-05-08T10:59:50.000Z</time>
      </trkpt>
      <trkpt lat="43.85016" lon="6.98995">
        <ele>876.79998779297</ele>
        <time>2011-05-08T10:59:51.000Z</time>
      </trkpt>
      <trkpt lat="43.85018" lon="6.9897">
        <ele>880</ele>
        <time>2011-05-08T10:59:59.000Z</time>
      </trkpt>
      <trkpt lat="43.85023" lon="6.98947">
        <ele>880.59997558594</ele>
        <time>2011-05-08T11:00:06.000Z</time>
      </trkpt>
      <trkpt lat="43.85024" lon="6.98944">
        <ele>880.79998779297</ele>
        <time>2011-05-08T11:00:07.000Z</time>
      </trkpt>
      <trkpt lat="43.85027" lon="6.98919">
        <ele>882.59997558594</ele>
        <time>2011-05-08T11:00:14.000Z</time>
      </trkpt>
      <trkpt lat="43.85028" lon="6.98916">
        <ele>882.40002441406</ele>
        <time>2011-05-08T11:00:15.000Z</time>
      </trkpt>
      <trkpt lat="43.85036" lon="6.98891">
        <ele>878.40002441406</ele>
        <time>2011-05-08T11:00:23.000Z</time>
      </trkpt>
      <trkpt lat="43.85037" lon="6.98888">
        <ele>877.79998779297</ele>
        <time>2011-05-08T11:00:24.000Z</time>
      </trkpt>
      <trkpt lat="43.85043" lon="6.98867">
        <ele>875.79998779297</ele>
        <time>2011-05-08T11:00:31.000Z</time>
      </trkpt>
      <trkpt lat="43.85045" lon="6.98857">
        <ele>875.20001220703</ele>
        <time>2011-05-08T11:00:34.000Z</time>
      </trkpt>
      <trkpt lat="43.85049" lon="6.98842">
        <ele>874</ele>
        <time>2011-05-08T11:00:39.000Z</time>
      </trkpt>
      <trkpt lat="43.85051" lon="6.98832">
        <ele>873.79998779297</ele>
        <time>2011-05-08T11:00:42.000Z</time>
      </trkpt>
      <trkpt lat="43.8505" lon="6.98814">
        <ele>874</ele>
        <time>2011-05-08T11:00:47.000Z</time>
      </trkpt>
      <trkpt lat="43.85048" lon="6.98799">
        <ele>875.20001220703</ele>
        <time>2011-05-08T11:00:51.000Z</time>
      </trkpt>
      <trkpt lat="43.85046" lon="6.98788">
        <ele>876.20001220703</ele>
        <time>2011-05-08T11:00:54.000Z</time>
      </trkpt>
      <trkpt lat="43.85042" lon="6.98768">
        <ele>878</ele>
        <time>2011-05-08T11:01:00.000Z</time>
      </trkpt>
      <trkpt lat="43.85041" lon="6.98762">
        <ele>878.40002441406</ele>
        <time>2011-05-08T11:01:02.000Z</time>
      </trkpt>
      <trkpt lat="43.85037" lon="6.98736">
        <ele>877.20001220703</ele>
        <time>2011-05-08T11:01:10.000Z</time>
      </trkpt>
      <trkpt lat="43.85036" lon="6.98733">
        <ele>876.79998779297</ele>
        <time>2011-05-08T11:01:11.000Z</time>
      </trkpt>
      <trkpt lat="43.85033" lon="6.98712">
        <ele>873.79998779297</ele>
        <time>2011-05-08T11:01:18.000Z</time>
      </trkpt>
      <trkpt lat="43.85033" lon="6.98709">
        <ele>873.40002441406</ele>
        <time>2011-05-08T11:01:19.000Z</time>
      </trkpt>
      <trkpt lat="43.85031" lon="6.98695">
        <ele>870.79998779297</ele>
        <time>2011-05-08T11:01:25.000Z</time>
      </trkpt>
      <trkpt lat="43.85031" lon="6.98692">
        <ele>870.20001220703</ele>
        <time>2011-05-08T11:01:30.000Z</time>
      </trkpt>
      <trkpt lat="43.8503" lon="6.9869">
        <ele>869.79998779297</ele>
        <time>2011-05-08T11:01:35.000Z</time>
      </trkpt>
      <trkpt lat="43.85027" lon="6.98693">
        <ele>872</ele>
        <time>2011-05-08T11:01:54.000Z</time>
      </trkpt>
      <trkpt lat="43.85026" lon="6.98693">
        <ele>872</ele>
        <time>2011-05-08T11:01:56.000Z</time>
      </trkpt>
      <trkpt lat="43.85026" lon="6.98691">
        <ele>871.59997558594</ele>
        <time>2011-05-08T11:01:59.000Z</time>
      </trkpt>
      <trkpt lat="43.85031" lon="6.9869">
        <ele>869.59997558594</ele>
        <time>2011-05-08T11:03:39.000Z</time>
      </trkpt>
      <trkpt lat="43.85029" lon="6.987">
        <ele>872.79998779297</ele>
        <time>2011-05-08T11:04:35.000Z</time>
      </trkpt>
      <trkpt lat="43.85031" lon="6.98699">
        <ele>871.40002441406</ele>
        <time>2011-05-08T11:04:40.000Z</time>
      </trkpt>
      <trkpt lat="43.85033" lon="6.98697">
        <ele>870.40002441406</ele>
        <time>2011-05-08T11:04:49.000Z</time>
      </trkpt>
      <trkpt lat="43.85029" lon="6.98693">
        <ele>871.20001220703</ele>
        <time>2011-05-08T11:05:42.000Z</time>
      </trkpt>
      <trkpt lat="43.85028" lon="6.98694">
        <ele>871.79998779297</ele>
        <time>2011-05-08T11:05:51.000Z</time>
      </trkpt>
      <trkpt lat="43.85023" lon="6.98698">
        <ele>874.40002441406</ele>
        <time>2011-05-08T11:05:57.000Z</time>
      </trkpt>
      <trkpt lat="43.8503" lon="6.98695">
        <ele>871.20001220703</ele>
        <time>2011-05-08T11:06:38.000Z</time>
      </trkpt>
      <trkpt lat="43.85034" lon="6.98695">
        <ele>869.59997558594</ele>
        <time>2011-05-08T11:07:14.000Z</time>
      </trkpt>
      <trkpt lat="43.85032" lon="6.98696">
        <ele>870.59997558594</ele>
        <time>2011-05-08T11:07:26.000Z</time>
      </trkpt>
      <trkpt lat="43.85034" lon="6.98696">
        <ele>870</ele>
        <time>2011-05-08T11:07:28.000Z</time>
      </trkpt>
      <trkpt lat="43.85035" lon="6.98694">
        <ele>868.79998779297</ele>
        <time>2011-05-08T11:07:33.000Z</time>
      </trkpt>
      <trkpt lat="43.85027" lon="6.98697">
        <ele>872.59997558594</ele>
        <time>2011-05-08T11:08:05.000Z</time>
      </trkpt>
      <trkpt lat="43.85025" lon="6.98693">
        <ele>872.40002441406</ele>
        <time>2011-05-08T11:08:13.000Z</time>
      </trkpt>
      <trkpt lat="43.85027" lon="6.98689">
        <ele>870.79998779297</ele>
        <time>2011-05-08T11:08:20.000Z</time>
      </trkpt>
      <trkpt lat="43.85022" lon="6.98689">
        <ele>872.40002441406</ele>
        <time>2011-05-08T11:08:25.000Z</time>
      </trkpt>
      <trkpt lat="43.85009" lon="6.98697">
        <ele>879.59997558594</ele>
        <time>2011-05-08T11:08:30.000Z</time>
      </trkpt>
      <trkpt lat="43.85004" lon="6.98701">
        <ele>882.20001220703</ele>
        <time>2011-05-08T11:08:31.000Z</time>
      </trkpt>
      <trkpt lat="43.84984" lon="6.98717">
        <ele>883</ele>
        <time>2011-05-08T11:08:35.000Z</time>
      </trkpt>
      <trkpt lat="43.84968" lon="6.9873">
        <ele>881</ele>
        <time>2011-05-08T11:08:38.000Z</time>
      </trkpt>
      <trkpt lat="43.84952" lon="6.98744">
        <ele>880.40002441406</ele>
        <time>2011-05-08T11:08:41.000Z</time>
      </trkpt>
      <trkpt lat="43.84947" lon="6.98748">
        <ele>880.40002441406</ele>
        <time>2011-05-08T11:08:42.000Z</time>
      </trkpt>
      <trkpt lat="43.84934" lon="6.98761">
        <ele>881</ele>
        <time>2011-05-08T11:08:45.000Z</time>
      </trkpt>
      <trkpt lat="43.84931" lon="6.98766">
        <ele>881.59997558594</ele>
        <time>2011-05-08T11:08:46.000Z</time>
      </trkpt>
      <trkpt lat="43.84924" lon="6.98776">
        <ele>884</ele>
        <time>2011-05-08T11:08:48.000Z</time>
      </trkpt>
      <trkpt lat="43.8492" lon="6.98782">
        <ele>885.59997558594</ele>
        <time>2011-05-08T11:08:49.000Z</time>
      </trkpt>
      <trkpt lat="43.84914" lon="6.98793">
        <ele>889</ele>
        <time>2011-05-08T11:08:51.000Z</time>
      </trkpt>
      <trkpt lat="43.84909" lon="6.98807">
        <ele>892.20001220703</ele>
        <time>2011-05-08T11:08:53.000Z</time>
      </trkpt>
      <trkpt lat="43.84903" lon="6.98818">
        <ele>894.20001220703</ele>
        <time>2011-05-08T11:08:55.000Z</time>
      </trkpt>
      <trkpt lat="43.84895" lon="6.98826">
        <ele>894</ele>
        <time>2011-05-08T11:08:57.000Z</time>
      </trkpt>
      <trkpt lat="43.84884" lon="6.98834">
        <ele>891.79998779297</ele>
        <time>2011-05-08T11:09:00.000Z</time>
      </trkpt>
      <trkpt lat="43.84877" lon="6.98839">
        <ele>889.79998779297</ele>
        <time>2011-05-08T11:09:02.000Z</time>
      </trkpt>
      <trkpt lat="43.84873" lon="6.98842">
        <ele>889.20001220703</ele>
        <time>2011-05-08T11:09:03.000Z</time>
      </trkpt>
      <trkpt lat="43.8487" lon="6.98846">
        <ele>889.20001220703</ele>
        <time>2011-05-08T11:09:04.000Z</time>
      </trkpt>
      <trkpt lat="43.84861" lon="6.98859">
        <ele>890.59997558594</ele>
        <time>2011-05-08T11:09:07.000Z</time>
      </trkpt>
      <trkpt lat="43.84858" lon="6.98863">
        <ele>890.79998779297</ele>
        <time>2011-05-08T11:09:08.000Z</time>
      </trkpt>
      <trkpt lat="43.84855" lon="6.98866">
        <ele>890.40002441406</ele>
        <time>2011-05-08T11:09:09.000Z</time>
      </trkpt>
      <trkpt lat="43.84844" lon="6.9887">
        <ele>885.79998779297</ele>
        <time>2011-05-08T11:09:12.000Z</time>
      </trkpt>
      <trkpt lat="43.8484" lon="6.9887">
        <ele>883.79998779297</ele>
        <time>2011-05-08T11:09:13.000Z</time>
      </trkpt>
      <trkpt lat="43.84836" lon="6.98871">
        <ele>882</ele>
        <time>2011-05-08T11:09:14.000Z</time>
      </trkpt>
      <trkpt lat="43.84825" lon="6.98876">
        <ele>879.59997558594</ele>
        <time>2011-05-08T11:09:17.000Z</time>
      </trkpt>
      <trkpt lat="43.84822" lon="6.98879">
        <ele>879</ele>
        <time>2011-05-08T11:09:18.000Z</time>
      </trkpt>
      <trkpt lat="43.84809" lon="6.98891">
        <ele>878.20001220703</ele>
        <time>2011-05-08T11:09:22.000Z</time>
      </trkpt>
      <trkpt lat="43.84803" lon="6.989">
        <ele>879.20001220703</ele>
        <time>2011-05-08T11:09:24.000Z</time>
      </trkpt>
      <trkpt lat="43.84798" lon="6.98917">
        <ele>883.40002441406</ele>
        <time>2011-05-08T11:09:27.000Z</time>
      </trkpt>
      <trkpt lat="43.84796" lon="6.98923">
        <ele>885.20001220703</ele>
        <time>2011-05-08T11:09:28.000Z</time>
      </trkpt>
      <trkpt lat="43.84793" lon="6.98944">
        <ele>891.59997558594</ele>
        <time>2011-05-08T11:09:31.000Z</time>
      </trkpt>
      <trkpt lat="43.84787" lon="6.98964">
        <ele>896.20001220703</ele>
        <time>2011-05-08T11:09:34.000Z</time>
      </trkpt>
      <trkpt lat="43.84785" lon="6.98969">
        <ele>897.20001220703</ele>
        <time>2011-05-08T11:09:35.000Z</time>
      </trkpt>
      <trkpt lat="43.8478" lon="6.98979">
        <ele>898.20001220703</ele>
        <time>2011-05-08T11:09:37.000Z</time>
      </trkpt>
      <trkpt lat="43.84773" lon="6.98987">
        <ele>897.20001220703</ele>
        <time>2011-05-08T11:09:39.000Z</time>
      </trkpt>
      <trkpt lat="43.8477" lon="6.9899">
        <ele>896.59997558594</ele>
        <time>2011-05-08T11:09:40.000Z</time>
      </trkpt>
      <trkpt lat="43.84764" lon="6.98997">
        <ele>895.59997558594</ele>
        <time>2011-05-08T11:09:42.000Z</time>
      </trkpt>
      <trkpt lat="43.84759" lon="6.99001">
        <ele>893.59997558594</ele>
        <time>2011-05-08T11:09:44.000Z</time>
      </trkpt>
      <trkpt lat="43.84753" lon="6.99005">
        <ele>891.40002441406</ele>
        <time>2011-05-08T11:09:46.000Z</time>
      </trkpt>
      <trkpt lat="43.84741" lon="6.99009">
        <ele>886.79998779297</ele>
        <time>2011-05-08T11:09:50.000Z</time>
      </trkpt>
      <trkpt lat="43.84734" lon="6.99013">
        <ele>884.79998779297</ele>
        <time>2011-05-08T11:09:53.000Z</time>
      </trkpt>
      <trkpt lat="43.84731" lon="6.99019">
        <ele>884.59997558594</ele>
        <time>2011-05-08T11:09:55.000Z</time>
      </trkpt>
      <trkpt lat="43.84727" lon="6.99039">
        <ele>889</ele>
        <time>2011-05-08T11:10:00.000Z</time>
      </trkpt>
      <trkpt lat="43.84725" lon="6.99062">
        <ele>894.79998779297</ele>
        <time>2011-05-08T11:10:04.000Z</time>
      </trkpt>
      <trkpt lat="43.84724" lon="6.99069">
        <ele>896.20001220703</ele>
        <time>2011-05-08T11:10:05.000Z</time>
      </trkpt>
      <trkpt lat="43.84719" lon="6.99083">
        <ele>897.59997558594</ele>
        <time>2011-05-08T11:10:07.000Z</time>
      </trkpt>
      <trkpt lat="43.84716" lon="6.99091">
        <ele>898.20001220703</ele>
        <time>2011-05-08T11:10:08.000Z</time>
      </trkpt>
      <trkpt lat="43.84713" lon="6.99098">
        <ele>898.59997558594</ele>
        <time>2011-05-08T11:10:09.000Z</time>
      </trkpt>
      <trkpt lat="43.84707" lon="6.99114">
        <ele>900</ele>
        <time>2011-05-08T11:10:11.000Z</time>
      </trkpt>
      <trkpt lat="43.847" lon="6.99126">
        <ele>900</ele>
        <time>2011-05-08T11:10:13.000Z</time>
      </trkpt>
      <trkpt lat="43.84694" lon="6.99138">
        <ele>900</ele>
        <time>2011-05-08T11:10:15.000Z</time>
      </trkpt>
      <trkpt lat="43.8469" lon="6.99143">
        <ele>899.59997558594</ele>
        <time>2011-05-08T11:10:16.000Z</time>
      </trkpt>
      <trkpt lat="43.84682" lon="6.99156">
        <ele>899</ele>
        <time>2011-05-08T11:10:19.000Z</time>
      </trkpt>
      <trkpt lat="43.84679" lon="6.9916">
        <ele>898.59997558594</ele>
        <time>2011-05-08T11:10:20.000Z</time>
      </trkpt>
      <trkpt lat="43.84662" lon="6.9918">
        <ele>895</ele>
        <time>2011-05-08T11:10:25.000Z</time>
      </trkpt>
      <trkpt lat="43.84645" lon="6.99192">
        <ele>891</ele>
        <time>2011-05-08T11:10:29.000Z</time>
      </trkpt>
      <trkpt lat="43.8464" lon="6.99197">
        <ele>889.79998779297</ele>
        <time>2011-05-08T11:10:30.000Z</time>
      </trkpt>
      <trkpt lat="43.84635" lon="6.99201">
        <ele>888.59997558594</ele>
        <time>2011-05-08T11:10:31.000Z</time>
      </trkpt>
      <trkpt lat="43.84631" lon="6.99216">
        <ele>889.20001220703</ele>
        <time>2011-05-08T11:10:32.000Z</time>
      </trkpt>
      <trkpt lat="43.84627" lon="6.99226">
        <ele>888.79998779297</ele>
        <time>2011-05-08T11:10:33.000Z</time>
      </trkpt>
      <trkpt lat="43.84623" lon="6.99246">
        <ele>890</ele>
        <time>2011-05-08T11:10:35.000Z</time>
      </trkpt>
      <trkpt lat="43.84621" lon="6.99254">
        <ele>890.20001220703</ele>
        <time>2011-05-08T11:10:36.000Z</time>
      </trkpt>
      <trkpt lat="43.84612" lon="6.99271">
        <ele>888.40002441406</ele>
        <time>2011-05-08T11:10:38.000Z</time>
      </trkpt>
      <trkpt lat="43.846" lon="6.99296">
        <ele>886</ele>
        <time>2011-05-08T11:10:41.000Z</time>
      </trkpt>
      <trkpt lat="43.84592" lon="6.99312">
        <ele>884</ele>
        <time>2011-05-08T11:10:43.000Z</time>
      </trkpt>
      <trkpt lat="43.84588" lon="6.99321">
        <ele>883</ele>
        <time>2011-05-08T11:10:44.000Z</time>
      </trkpt>
      <trkpt lat="43.84576" lon="6.99346">
        <ele>882.79998779297</ele>
        <time>2011-05-08T11:10:47.000Z</time>
      </trkpt>
      <trkpt lat="43.84569" lon="6.99363">
        <ele>884.20001220703</ele>
        <time>2011-05-08T11:10:49.000Z</time>
      </trkpt>
      <trkpt lat="43.84565" lon="6.99372">
        <ele>884.59997558594</ele>
        <time>2011-05-08T11:10:50.000Z</time>
      </trkpt>
      <trkpt lat="43.84551" lon="6.99386">
        <ele>883.59997558594</ele>
        <time>2011-05-08T11:10:53.000Z</time>
      </trkpt>
      <trkpt lat="43.84545" lon="6.99387">
        <ele>882.40002441406</ele>
        <time>2011-05-08T11:10:54.000Z</time>
      </trkpt>
      <trkpt lat="43.84539" lon="6.99386">
        <ele>881</ele>
        <time>2011-05-08T11:10:55.000Z</time>
      </trkpt>
      <trkpt lat="43.84526" lon="6.99386">
        <ele>878</ele>
        <time>2011-05-08T11:10:57.000Z</time>
      </trkpt>
      <trkpt lat="43.84514" lon="6.99383">
        <ele>875.20001220703</ele>
        <time>2011-05-08T11:10:59.000Z</time>
      </trkpt>
      <trkpt lat="43.84509" lon="6.99379">
        <ele>873.59997558594</ele>
        <time>2011-05-08T11:11:00.000Z</time>
      </trkpt>
      <trkpt lat="43.84505" lon="6.99373">
        <ele>872.20001220703</ele>
        <time>2011-05-08T11:11:01.000Z</time>
      </trkpt>
      <trkpt lat="43.845" lon="6.99349">
        <ele>869.20001220703</ele>
        <time>2011-05-08T11:11:04.000Z</time>
      </trkpt>
      <trkpt lat="43.84498" lon="6.99341">
        <ele>868.40002441406</ele>
        <time>2011-05-08T11:11:05.000Z</time>
      </trkpt>
      <trkpt lat="43.84492" lon="6.9933">
        <ele>866.20001220703</ele>
        <time>2011-05-08T11:11:07.000Z</time>
      </trkpt>
      <trkpt lat="43.84488" lon="6.99328">
        <ele>865.40002441406</ele>
        <time>2011-05-08T11:11:08.000Z</time>
      </trkpt>
      <trkpt lat="43.8448" lon="6.99332">
        <ele>865.20001220703</ele>
        <time>2011-05-08T11:11:10.000Z</time>
      </trkpt>
      <trkpt lat="43.84471" lon="6.99338">
        <ele>864.79998779297</ele>
        <time>2011-05-08T11:11:12.000Z</time>
      </trkpt>
      <trkpt lat="43.84466" lon="6.99338">
        <ele>864</ele>
        <time>2011-05-08T11:11:13.000Z</time>
      </trkpt>
      <trkpt lat="43.84457" lon="6.99328">
        <ele>862.20001220703</ele>
        <time>2011-05-08T11:11:15.000Z</time>
      </trkpt>
      <trkpt lat="43.84455" lon="6.99321">
        <ele>861.20001220703</ele>
        <time>2011-05-08T11:11:16.000Z</time>
      </trkpt>
      <trkpt lat="43.84452" lon="6.99313">
        <ele>860.20001220703</ele>
        <time>2011-05-08T11:11:17.000Z</time>
      </trkpt>
      <trkpt lat="43.8445" lon="6.99305">
        <ele>859.20001220703</ele>
        <time>2011-05-08T11:11:18.000Z</time>
      </trkpt>
      <trkpt lat="43.84449" lon="6.99298">
        <ele>858.40002441406</ele>
        <time>2011-05-08T11:11:19.000Z</time>
      </trkpt>
      <trkpt lat="43.84446" lon="6.99281">
        <ele>856.79998779297</ele>
        <time>2011-05-08T11:11:21.000Z</time>
      </trkpt>
      <trkpt lat="43.84444" lon="6.99272">
        <ele>856</ele>
        <time>2011-05-08T11:11:22.000Z</time>
      </trkpt>
      <trkpt lat="43.84435" lon="6.99254">
        <ele>855</ele>
        <time>2011-05-08T11:11:24.000Z</time>
      </trkpt>
      <trkpt lat="43.8443" lon="6.99246">
        <ele>854.79998779297</ele>
        <time>2011-05-08T11:11:25.000Z</time>
      </trkpt>
      <trkpt lat="43.84425" lon="6.99239">
        <ele>854.59997558594</ele>
        <time>2011-05-08T11:11:26.000Z</time>
      </trkpt>
      <trkpt lat="43.84415" lon="6.99225">
        <ele>854.59997558594</ele>
        <time>2011-05-08T11:11:28.000Z</time>
      </trkpt>
      <trkpt lat="43.84411" lon="6.99218">
        <ele>854.59997558594</ele>
        <time>2011-05-08T11:11:29.000Z</time>
      </trkpt>
      <trkpt lat="43.84401" lon="6.99205">
        <ele>854.79998779297</ele>
        <time>2011-05-08T11:11:31.000Z</time>
      </trkpt>
      <trkpt lat="43.84388" lon="6.99189">
        <ele>855.79998779297</ele>
        <time>2011-05-08T11:11:34.000Z</time>
      </trkpt>
      <trkpt lat="43.84385" lon="6.99186">
        <ele>856.20001220703</ele>
        <time>2011-05-08T11:11:35.000Z</time>
      </trkpt>
      <trkpt lat="43.84382" lon="6.9918">
        <ele>856.40002441406</ele>
        <time>2011-05-08T11:11:37.000Z</time>
      </trkpt>
      <trkpt lat="43.84385" lon="6.99169">
        <ele>855.79998779297</ele>
        <time>2011-05-08T11:11:41.000Z</time>
      </trkpt>
      <trkpt lat="43.84388" lon="6.99167">
        <ele>855.40002441406</ele>
        <time>2011-05-08T11:11:42.000Z</time>
      </trkpt>
      <trkpt lat="43.84396" lon="6.99169">
        <ele>854.20001220703</ele>
        <time>2011-05-08T11:11:44.000Z</time>
      </trkpt>
      <trkpt lat="43.84406" lon="6.99175">
        <ele>853</ele>
        <time>2011-05-08T11:11:46.000Z</time>
      </trkpt>
      <trkpt lat="43.84418" lon="6.99183">
        <ele>851.79998779297</ele>
        <time>2011-05-08T11:11:48.000Z</time>
      </trkpt>
      <trkpt lat="43.84423" lon="6.99187">
        <ele>851.40002441406</ele>
        <time>2011-05-08T11:11:49.000Z</time>
      </trkpt>
      <trkpt lat="43.84434" lon="6.99194">
        <ele>850.79998779297</ele>
        <time>2011-05-08T11:11:51.000Z</time>
      </trkpt>
      <trkpt lat="43.84438" lon="6.99195">
        <ele>850.20001220703</ele>
        <time>2011-05-08T11:11:52.000Z</time>
      </trkpt>
      <trkpt lat="43.84441" lon="6.99188">
        <ele>849.40002441406</ele>
        <time>2011-05-08T11:11:54.000Z</time>
      </trkpt>
      <trkpt lat="43.84434" lon="6.99174">
        <ele>849.20001220703</ele>
        <time>2011-05-08T11:11:57.000Z</time>
      </trkpt>
      <trkpt lat="43.8443" lon="6.99169">
        <ele>849.20001220703</ele>
        <time>2011-05-08T11:11:58.000Z</time>
      </trkpt>
      <trkpt lat="43.84424" lon="6.99156">
        <ele>848.40002441406</ele>
        <time>2011-05-08T11:12:00.000Z</time>
      </trkpt>
      <trkpt lat="43.84421" lon="6.99149">
        <ele>848</ele>
        <time>2011-05-08T11:12:01.000Z</time>
      </trkpt>
      <trkpt lat="43.84409" lon="6.99123">
        <ele>846.59997558594</ele>
        <time>2011-05-08T11:12:04.000Z</time>
      </trkpt>
      <trkpt lat="43.84401" lon="6.99104">
        <ele>845.79998779297</ele>
        <time>2011-05-08T11:12:06.000Z</time>
      </trkpt>
      <trkpt lat="43.84396" lon="6.99097">
        <ele>845.59997558594</ele>
        <time>2011-05-08T11:12:07.000Z</time>
      </trkpt>
      <trkpt lat="43.84382" lon="6.99077">
        <ele>846.40002441406</ele>
        <time>2011-05-08T11:12:10.000Z</time>
      </trkpt>
      <trkpt lat="43.84377" lon="6.9906">
        <ele>845.79998779297</ele>
        <time>2011-05-08T11:12:12.000Z</time>
      </trkpt>
      <trkpt lat="43.84374" lon="6.99053">
        <ele>845.79998779297</ele>
        <time>2011-05-08T11:12:13.000Z</time>
      </trkpt>
      <trkpt lat="43.8436" lon="6.99036">
        <ele>847</ele>
        <time>2011-05-08T11:12:16.000Z</time>
      </trkpt>
      <trkpt lat="43.8435" lon="6.99022">
        <ele>847.79998779297</ele>
        <time>2011-05-08T11:12:18.000Z</time>
      </trkpt>
      <trkpt lat="43.84346" lon="6.99015">
        <ele>847.79998779297</ele>
        <time>2011-05-08T11:12:19.000Z</time>
      </trkpt>
      <trkpt lat="43.84344" lon="6.99008">
        <ele>847.40002441406</ele>
        <time>2011-05-08T11:12:20.000Z</time>
      </trkpt>
      <trkpt lat="43.84352" lon="6.98995">
        <ele>846.20001220703</ele>
        <time>2011-05-08T11:12:22.000Z</time>
      </trkpt>
      <trkpt lat="43.84375" lon="6.98992">
        <ele>841.79998779297</ele>
        <time>2011-05-08T11:12:25.000Z</time>
      </trkpt>
      <trkpt lat="43.84395" lon="6.98986">
        <ele>838.40002441406</ele>
        <time>2011-05-08T11:12:28.000Z</time>
      </trkpt>
      <trkpt lat="43.84402" lon="6.98983">
        <ele>837.40002441406</ele>
        <time>2011-05-08T11:12:29.000Z</time>
      </trkpt>
      <trkpt lat="43.84409" lon="6.98979">
        <ele>836.20001220703</ele>
        <time>2011-05-08T11:12:30.000Z</time>
      </trkpt>
      <trkpt lat="43.84415" lon="6.98977">
        <ele>835</ele>
        <time>2011-05-08T11:12:31.000Z</time>
      </trkpt>
      <trkpt lat="43.84428" lon="6.98972">
        <ele>831.79998779297</ele>
        <time>2011-05-08T11:12:33.000Z</time>
      </trkpt>
      <trkpt lat="43.84433" lon="6.98968">
        <ele>831</ele>
        <time>2011-05-08T11:12:34.000Z</time>
      </trkpt>
      <trkpt lat="43.8444" lon="6.98952">
        <ele>830</ele>
        <time>2011-05-08T11:12:36.000Z</time>
      </trkpt>
      <trkpt lat="43.84444" lon="6.98942">
        <ele>829.40002441406</ele>
        <time>2011-05-08T11:12:37.000Z</time>
      </trkpt>
      <trkpt lat="43.84458" lon="6.98915">
        <ele>826</ele>
        <time>2011-05-08T11:12:40.000Z</time>
      </trkpt>
      <trkpt lat="43.84467" lon="6.98896">
        <ele>825</ele>
        <time>2011-05-08T11:12:42.000Z</time>
      </trkpt>
      <trkpt lat="43.84472" lon="6.98888">
        <ele>824.40002441406</ele>
        <time>2011-05-08T11:12:43.000Z</time>
      </trkpt>
      <trkpt lat="43.84487" lon="6.9886">
        <ele>823</ele>
        <time>2011-05-08T11:12:46.000Z</time>
      </trkpt>
      <trkpt lat="43.84498" lon="6.98844">
        <ele>820.79998779297</ele>
        <time>2011-05-08T11:12:48.000Z</time>
      </trkpt>
      <trkpt lat="43.84504" lon="6.98837">
        <ele>819.79998779297</ele>
        <time>2011-05-08T11:12:49.000Z</time>
      </trkpt>
      <trkpt lat="43.84508" lon="6.98829">
        <ele>819</ele>
        <time>2011-05-08T11:12:50.000Z</time>
      </trkpt>
      <trkpt lat="43.84513" lon="6.98811">
        <ele>818.79998779297</ele>
        <time>2011-05-08T11:12:52.000Z</time>
      </trkpt>
      <trkpt lat="43.84511" lon="6.98777">
        <ele>822.20001220703</ele>
        <time>2011-05-08T11:12:55.000Z</time>
      </trkpt>
      <trkpt lat="43.84513" lon="6.98746">
        <ele>824</ele>
        <time>2011-05-08T11:12:58.000Z</time>
      </trkpt>
      <trkpt lat="43.84516" lon="6.98738">
        <ele>823.79998779297</ele>
        <time>2011-05-08T11:12:59.000Z</time>
      </trkpt>
      <trkpt lat="43.84532" lon="6.98727">
        <ele>819.59997558594</ele>
        <time>2011-05-08T11:13:02.000Z</time>
      </trkpt>
      <trkpt lat="43.8455" lon="6.98716">
        <ele>814.59997558594</ele>
        <time>2011-05-08T11:13:05.000Z</time>
      </trkpt>
      <trkpt lat="43.84558" lon="6.98713">
        <ele>812.40002441406</ele>
        <time>2011-05-08T11:13:06.000Z</time>
      </trkpt>
      <trkpt lat="43.84564" lon="6.98709">
        <ele>810.79998779297</ele>
        <time>2011-05-08T11:13:07.000Z</time>
      </trkpt>
      <trkpt lat="43.8457" lon="6.98704">
        <ele>809.59997558594</ele>
        <time>2011-05-08T11:13:08.000Z</time>
      </trkpt>
      <trkpt lat="43.84574" lon="6.98689">
        <ele>810.20001220703</ele>
        <time>2011-05-08T11:13:10.000Z</time>
      </trkpt>
      <trkpt lat="43.84574" lon="6.98671">
        <ele>812.40002441406</ele>
        <time>2011-05-08T11:13:12.000Z</time>
      </trkpt>
      <trkpt lat="43.84576" lon="6.98655">
        <ele>813.59997558594</ele>
        <time>2011-05-08T11:13:14.000Z</time>
      </trkpt>
      <trkpt lat="43.84585" lon="6.98648">
        <ele>810.79998779297</ele>
        <time>2011-05-08T11:13:16.000Z</time>
      </trkpt>
      <trkpt lat="43.84591" lon="6.98647">
        <ele>809</ele>
        <time>2011-05-08T11:13:17.000Z</time>
      </trkpt>
      <trkpt lat="43.84604" lon="6.98644">
        <ele>804.79998779297</ele>
        <time>2011-05-08T11:13:19.000Z</time>
      </trkpt>
      <trkpt lat="43.8461" lon="6.9864">
        <ele>803</ele>
        <time>2011-05-08T11:13:20.000Z</time>
      </trkpt>
      <trkpt lat="43.8462" lon="6.98628">
        <ele>800.40002441406</ele>
        <time>2011-05-08T11:13:22.000Z</time>
      </trkpt>
      <trkpt lat="43.84627" lon="6.98612">
        <ele>799</ele>
        <time>2011-05-08T11:13:24.000Z</time>
      </trkpt>
      <trkpt lat="43.8463" lon="6.98603">
        <ele>798.40002441406</ele>
        <time>2011-05-08T11:13:25.000Z</time>
      </trkpt>
      <trkpt lat="43.84629" lon="6.98573">
        <ele>799.79998779297</ele>
        <time>2011-05-08T11:13:28.000Z</time>
      </trkpt>
      <trkpt lat="43.84623" lon="6.98548">
        <ele>801.40002441406</ele>
        <time>2011-05-08T11:13:30.000Z</time>
      </trkpt>
      <trkpt lat="43.84618" lon="6.98527">
        <ele>802.59997558594</ele>
        <time>2011-05-08T11:13:32.000Z</time>
      </trkpt>
      <trkpt lat="43.84616" lon="6.98517">
        <ele>803</ele>
        <time>2011-05-08T11:13:33.000Z</time>
      </trkpt>
      <trkpt lat="43.84614" lon="6.98488">
        <ele>805</ele>
        <time>2011-05-08T11:13:36.000Z</time>
      </trkpt>
      <trkpt lat="43.84615" lon="6.98478">
        <ele>805.79998779297</ele>
        <time>2011-05-08T11:13:37.000Z</time>
      </trkpt>
      <trkpt lat="43.84622" lon="6.98459">
        <ele>806.40002441406</ele>
        <time>2011-05-08T11:13:40.000Z</time>
      </trkpt>
      <trkpt lat="43.84628" lon="6.98456">
        <ele>805</ele>
        <time>2011-05-08T11:13:41.000Z</time>
      </trkpt>
      <trkpt lat="43.84642" lon="6.98451">
        <ele>801.20001220703</ele>
        <time>2011-05-08T11:13:43.000Z</time>
      </trkpt>
      <trkpt lat="43.84649" lon="6.9845">
        <ele>799.20001220703</ele>
        <time>2011-05-08T11:13:44.000Z</time>
      </trkpt>
      <trkpt lat="43.84664" lon="6.98451">
        <ele>794.40002441406</ele>
        <time>2011-05-08T11:13:46.000Z</time>
      </trkpt>
      <trkpt lat="43.84677" lon="6.9846">
        <ele>789.20001220703</ele>
        <time>2011-05-08T11:13:48.000Z</time>
      </trkpt>
      <trkpt lat="43.84683" lon="6.98464">
        <ele>786.79998779297</ele>
        <time>2011-05-08T11:13:49.000Z</time>
      </trkpt>
      <trkpt lat="43.84693" lon="6.98466">
        <ele>783.59997558594</ele>
        <time>2011-05-08T11:13:51.000Z</time>
      </trkpt>
      <trkpt lat="43.84704" lon="6.98458">
        <ele>781.79998779297</ele>
        <time>2011-05-08T11:13:53.000Z</time>
      </trkpt>
      <trkpt lat="43.84709" lon="6.98453">
        <ele>781</ele>
        <time>2011-05-08T11:13:54.000Z</time>
      </trkpt>
      <trkpt lat="43.84716" lon="6.98438">
        <ele>781.20001220703</ele>
        <time>2011-05-08T11:13:56.000Z</time>
      </trkpt>
      <trkpt lat="43.84718" lon="6.98421">
        <ele>783.20001220703</ele>
        <time>2011-05-08T11:13:58.000Z</time>
      </trkpt>
      <trkpt lat="43.84719" lon="6.98412">
        <ele>783.59997558594</ele>
        <time>2011-05-08T11:13:59.000Z</time>
      </trkpt>
      <trkpt lat="43.84721" lon="6.98403">
        <ele>783.20001220703</ele>
        <time>2011-05-08T11:14:00.000Z</time>
      </trkpt>
      <trkpt lat="43.84723" lon="6.98387">
        <ele>782.59997558594</ele>
        <time>2011-05-08T11:14:02.000Z</time>
      </trkpt>
      <trkpt lat="43.84724" lon="6.98378">
        <ele>782.59997558594</ele>
        <time>2011-05-08T11:14:03.000Z</time>
      </trkpt>
      <trkpt lat="43.84723" lon="6.9837">
        <ele>782.79998779297</ele>
        <time>2011-05-08T11:14:04.000Z</time>
      </trkpt>
      <trkpt lat="43.84722" lon="6.98358">
        <ele>783.40002441406</ele>
        <time>2011-05-08T11:14:06.000Z</time>
      </trkpt>
      <trkpt lat="43.84718" lon="6.98347">
        <ele>784.79998779297</ele>
        <time>2011-05-08T11:14:08.000Z</time>
      </trkpt>
      <trkpt lat="43.84713" lon="6.98338">
        <ele>786.40002441406</ele>
        <time>2011-05-08T11:14:10.000Z</time>
      </trkpt>
      <trkpt lat="43.8471" lon="6.98334">
        <ele>787.20001220703</ele>
        <time>2011-05-08T11:14:11.000Z</time>
      </trkpt>
      <trkpt lat="43.84703" lon="6.98322">
        <ele>787.20001220703</ele>
        <time>2011-05-08T11:14:14.000Z</time>
      </trkpt>
      <trkpt lat="43.847" lon="6.98319">
        <ele>787.59997558594</ele>
        <time>2011-05-08T11:14:15.000Z</time>
      </trkpt>
      <trkpt lat="43.84697" lon="6.98316">
        <ele>787.79998779297</ele>
        <time>2011-05-08T11:14:16.000Z</time>
      </trkpt>
      <trkpt lat="43.84681" lon="6.98305">
        <ele>790.20001220703</ele>
        <time>2011-05-08T11:14:21.000Z</time>
      </trkpt>
      <trkpt lat="43.84665" lon="6.98293">
        <ele>792.79998779297</ele>
        <time>2011-05-08T11:14:26.000Z</time>
      </trkpt>
      <trkpt lat="43.84652" lon="6.9828">
        <ele>794.40002441406</ele>
        <time>2011-05-08T11:14:30.000Z</time>
      </trkpt>
      <trkpt lat="43.84649" lon="6.98277">
        <ele>794.79998779297</ele>
        <time>2011-05-08T11:14:31.000Z</time>
      </trkpt>
      <trkpt lat="43.84635" lon="6.98256">
        <ele>795.59997558594</ele>
        <time>2011-05-08T11:14:37.000Z</time>
      </trkpt>
      <trkpt lat="43.84621" lon="6.98235">
        <ele>798.59997558594</ele>
        <time>2011-05-08T11:14:43.000Z</time>
      </trkpt>
      <trkpt lat="43.84619" lon="6.98233">
        <ele>799.40002441406</ele>
        <time>2011-05-08T11:14:44.000Z</time>
      </trkpt>
      <trkpt lat="43.84604" lon="6.98232">
        <ele>804.79998779297</ele>
        <time>2011-05-08T11:14:49.000Z</time>
      </trkpt>
      <trkpt lat="43.84601" lon="6.98233">
        <ele>805.59997558594</ele>
        <time>2011-05-08T11:14:50.000Z</time>
      </trkpt>
      <trkpt lat="43.8459" lon="6.98231">
        <ele>809.59997558594</ele>
        <time>2011-05-08T11:14:55.000Z</time>
      </trkpt>
      <trkpt lat="43.84586" lon="6.98226">
        <ele>811</ele>
        <time>2011-05-08T11:14:59.000Z</time>
      </trkpt>
      <trkpt lat="43.84584" lon="6.98221">
        <ele>811.20001220703</ele>
        <time>2011-05-08T11:15:00.000Z</time>
      </trkpt>
      <trkpt lat="43.84585" lon="6.98217">
        <ele>810.59997558594</ele>
        <time>2011-05-08T11:15:01.000Z</time>
      </trkpt>
      <trkpt lat="43.84586" lon="6.98205">
        <ele>809.59997558594</ele>
        <time>2011-05-08T11:15:05.000Z</time>
      </trkpt>
      <trkpt lat="43.84586" lon="6.98196">
        <ele>809.40002441406</ele>
        <time>2011-05-08T11:15:08.000Z</time>
      </trkpt>
      <trkpt lat="43.84586" lon="6.98192">
        <ele>809.20001220703</ele>
        <time>2011-05-08T11:15:09.000Z</time>
      </trkpt>
      <trkpt lat="43.84586" lon="6.98187">
        <ele>808.79998779297</ele>
        <time>2011-05-08T11:15:11.000Z</time>
      </trkpt>
      <trkpt lat="43.84592" lon="6.98173">
        <ele>806.20001220703</ele>
        <time>2011-05-08T11:15:16.000Z</time>
      </trkpt>
      <trkpt lat="43.84598" lon="6.9816">
        <ele>804.59997558594</ele>
        <time>2011-05-08T11:15:22.000Z</time>
      </trkpt>
      <trkpt lat="43.84601" lon="6.98148">
        <ele>805</ele>
        <time>2011-05-08T11:15:27.000Z</time>
      </trkpt>
      <trkpt lat="43.84601" lon="6.98142">
        <ele>805.59997558594</ele>
        <time>2011-05-08T11:15:30.000Z</time>
      </trkpt>
      <trkpt lat="43.84601" lon="6.98127">
        <ele>807.20001220703</ele>
        <time>2011-05-08T11:15:36.000Z</time>
      </trkpt>
      <trkpt lat="43.84601" lon="6.98122">
        <ele>807.59997558594</ele>
        <time>2011-05-08T11:15:38.000Z</time>
      </trkpt>
      <trkpt lat="43.84602" lon="6.98113">
        <ele>808.40002441406</ele>
        <time>2011-05-08T11:15:42.000Z</time>
      </trkpt>
      <trkpt lat="43.84603" lon="6.98097">
        <ele>809.79998779297</ele>
        <time>2011-05-08T11:15:48.000Z</time>
      </trkpt>
      <trkpt lat="43.84604" lon="6.98094">
        <ele>809.79998779297</ele>
        <time>2011-05-08T11:15:49.000Z</time>
      </trkpt>
      <trkpt lat="43.84611" lon="6.98073">
        <ele>811</ele>
        <time>2011-05-08T11:15:57.000Z</time>
      </trkpt>
      <trkpt lat="43.84611" lon="6.9807">
        <ele>811.40002441406</ele>
        <time>2011-05-08T11:15:58.000Z</time>
      </trkpt>
      <trkpt lat="43.84618" lon="6.98061">
        <ele>811.20001220703</ele>
        <time>2011-05-08T11:16:03.000Z</time>
      </trkpt>
      <trkpt lat="43.84622" lon="6.98052">
        <ele>811.40002441406</ele>
        <time>2011-05-08T11:16:06.000Z</time>
      </trkpt>
      <trkpt lat="43.84627" lon="6.98045">
        <ele>811</ele>
        <time>2011-05-08T11:16:08.000Z</time>
      </trkpt>
      <trkpt lat="43.84633" lon="6.9803">
        <ele>811.40002441406</ele>
        <time>2011-05-08T11:16:12.000Z</time>
      </trkpt>
      <trkpt lat="43.84635" lon="6.9802">
        <ele>812.59997558594</ele>
        <time>2011-05-08T11:16:14.000Z</time>
      </trkpt>
      <trkpt lat="43.8464" lon="6.98004">
        <ele>813.59997558594</ele>
        <time>2011-05-08T11:16:18.000Z</time>
      </trkpt>
      <trkpt lat="43.84645" lon="6.97992">
        <ele>813.59997558594</ele>
        <time>2011-05-08T11:16:21.000Z</time>
      </trkpt>
      <trkpt lat="43.84652" lon="6.97983">
        <ele>812.40002441406</ele>
        <time>2011-05-08T11:16:24.000Z</time>
      </trkpt>
      <trkpt lat="43.84664" lon="6.97969">
        <ele>809.40002441406</ele>
        <time>2011-05-08T11:16:29.000Z</time>
      </trkpt>
      <trkpt lat="43.84666" lon="6.97966">
        <ele>808.79998779297</ele>
        <time>2011-05-08T11:16:30.000Z</time>
      </trkpt>
      <trkpt lat="43.84677" lon="6.97954">
        <ele>808</ele>
        <time>2011-05-08T11:16:35.000Z</time>
      </trkpt>
      <trkpt lat="43.84679" lon="6.97947">
        <ele>808.40002441406</ele>
        <time>2011-05-08T11:16:37.000Z</time>
      </trkpt>
      <trkpt lat="43.84679" lon="6.97928">
        <ele>811.20001220703</ele>
        <time>2011-05-08T11:16:42.000Z</time>
      </trkpt>
      <trkpt lat="43.84678" lon="6.97921">
        <ele>812.59997558594</ele>
        <time>2011-05-08T11:16:44.000Z</time>
      </trkpt>
      <trkpt lat="43.84674" lon="6.97904">
        <ele>814.20001220703</ele>
        <time>2011-05-08T11:16:49.000Z</time>
      </trkpt>
      <trkpt lat="43.84672" lon="6.97894">
        <ele>814.79998779297</ele>
        <time>2011-05-08T11:16:52.000Z</time>
      </trkpt>
      <trkpt lat="43.84668" lon="6.97878">
        <ele>816</ele>
        <time>2011-05-08T11:16:57.000Z</time>
      </trkpt>
      <trkpt lat="43.84664" lon="6.9787">
        <ele>817.59997558594</ele>
        <time>2011-05-08T11:17:00.000Z</time>
      </trkpt>
      <trkpt lat="43.84658" lon="6.9786">
        <ele>820.59997558594</ele>
        <time>2011-05-08T11:17:04.000Z</time>
      </trkpt>
      <trkpt lat="43.84651" lon="6.9785">
        <ele>824.40002441406</ele>
        <time>2011-05-08T11:17:09.000Z</time>
      </trkpt>
      <trkpt lat="43.84643" lon="6.97839">
        <ele>828</ele>
        <time>2011-05-08T11:17:14.000Z</time>
      </trkpt>
      <trkpt lat="43.84637" lon="6.97832">
        <ele>831</ele>
        <time>2011-05-08T11:17:18.000Z</time>
      </trkpt>
      <trkpt lat="43.8463" lon="6.97823">
        <ele>833.40002441406</ele>
        <time>2011-05-08T11:17:23.000Z</time>
      </trkpt>
      <trkpt lat="43.84624" lon="6.97813">
        <ele>835.59997558594</ele>
        <time>2011-05-08T11:17:28.000Z</time>
      </trkpt>
      <trkpt lat="43.84619" lon="6.97805">
        <ele>837.20001220703</ele>
        <time>2011-05-08T11:17:32.000Z</time>
      </trkpt>
      <trkpt lat="43.84614" lon="6.9779">
        <ele>838</ele>
        <time>2011-05-08T11:17:38.000Z</time>
      </trkpt>
      <trkpt lat="43.84613" lon="6.97788">
        <ele>838.20001220703</ele>
        <time>2011-05-08T11:17:39.000Z</time>
      </trkpt>
      <trkpt lat="43.84606" lon="6.97772">
        <ele>839.79998779297</ele>
        <time>2011-05-08T11:17:46.000Z</time>
      </trkpt>
      <trkpt lat="43.84604" lon="6.97768">
        <ele>840.40002441406</ele>
        <time>2011-05-08T11:17:48.000Z</time>
      </trkpt>
      <trkpt lat="43.84599" lon="6.97753">
        <ele>840.59997558594</ele>
        <time>2011-05-08T11:17:54.000Z</time>
      </trkpt>
      <trkpt lat="43.84598" lon="6.97742">
        <ele>840.79998779297</ele>
        <time>2011-05-08T11:17:58.000Z</time>
      </trkpt>
      <trkpt lat="43.84596" lon="6.97732">
        <ele>841.59997558594</ele>
        <time>2011-05-08T11:18:02.000Z</time>
      </trkpt>
      <trkpt lat="43.84594" lon="6.97715">
        <ele>842</ele>
        <time>2011-05-08T11:18:07.000Z</time>
      </trkpt>
      <trkpt lat="43.84591" lon="6.97709">
        <ele>843.40002441406</ele>
        <time>2011-05-08T11:18:09.000Z</time>
      </trkpt>
      <trkpt lat="43.84587" lon="6.97692">
        <ele>844.59997558594</ele>
        <time>2011-05-08T11:18:14.000Z</time>
      </trkpt>
      <trkpt lat="43.84589" lon="6.97689">
        <ele>843.79998779297</ele>
        <time>2011-05-08T11:18:15.000Z</time>
      </trkpt>
      <trkpt lat="43.84594" lon="6.97678">
        <ele>841</ele>
        <time>2011-05-08T11:18:19.000Z</time>
      </trkpt>
      <trkpt lat="43.84595" lon="6.97676">
        <ele>840</ele>
        <time>2011-05-08T11:18:20.000Z</time>
      </trkpt>
      <trkpt lat="43.84598" lon="6.97671">
        <ele>838.59997558594</ele>
        <time>2011-05-08T11:18:22.000Z</time>
      </trkpt>
      <trkpt lat="43.846" lon="6.9766">
        <ele>836.59997558594</ele>
        <time>2011-05-08T11:18:26.000Z</time>
      </trkpt>
      <trkpt lat="43.84608" lon="6.97648">
        <ele>831.59997558594</ele>
        <time>2011-05-08T11:18:30.000Z</time>
      </trkpt>
      <trkpt lat="43.84611" lon="6.9764">
        <ele>829.40002441406</ele>
        <time>2011-05-08T11:18:32.000Z</time>
      </trkpt>
      <trkpt lat="43.84607" lon="6.97621">
        <ele>829.20001220703</ele>
        <time>2011-05-08T11:18:37.000Z</time>
      </trkpt>
      <trkpt lat="43.84595" lon="6.97608">
        <ele>832.79998779297</ele>
        <time>2011-05-08T11:18:42.000Z</time>
      </trkpt>
      <trkpt lat="43.84592" lon="6.97607">
        <ele>834.40002441406</ele>
        <time>2011-05-08T11:18:43.000Z</time>
      </trkpt>
      <trkpt lat="43.8458" lon="6.97607">
        <ele>839.59997558594</ele>
        <time>2011-05-08T11:18:46.000Z</time>
      </trkpt>
      <trkpt lat="43.84571" lon="6.97603">
        <ele>843</ele>
        <time>2011-05-08T11:18:48.000Z</time>
      </trkpt>
      <trkpt lat="43.84566" lon="6.97597">
        <ele>844.79998779297</ele>
        <time>2011-05-08T11:18:50.000Z</time>
      </trkpt>
      <trkpt lat="43.84559" lon="6.97584">
        <ele>846.40002441406</ele>
        <time>2011-05-08T11:18:53.000Z</time>
      </trkpt>
      <trkpt lat="43.84557" lon="6.9758">
        <ele>846.79998779297</ele>
        <time>2011-05-08T11:18:54.000Z</time>
      </trkpt>
      <trkpt lat="43.84545" lon="6.97564">
        <ele>850.59997558594</ele>
        <time>2011-05-08T11:18:58.000Z</time>
      </trkpt>
      <trkpt lat="43.84539" lon="6.97557">
        <ele>853</ele>
        <time>2011-05-08T11:19:00.000Z</time>
      </trkpt>
      <trkpt lat="43.84534" lon="6.97547">
        <ele>854.20001220703</ele>
        <time>2011-05-08T11:19:02.000Z</time>
      </trkpt>
      <trkpt lat="43.84533" lon="6.97539">
        <ele>854</ele>
        <time>2011-05-08T11:19:03.000Z</time>
      </trkpt>
      <trkpt lat="43.84532" lon="6.97533">
        <ele>853.59997558594</ele>
        <time>2011-05-08T11:19:04.000Z</time>
      </trkpt>
      <trkpt lat="43.8453" lon="6.9752">
        <ele>853.20001220703</ele>
        <time>2011-05-08T11:19:06.000Z</time>
      </trkpt>
      <trkpt lat="43.84531" lon="6.97508">
        <ele>851.79998779297</ele>
        <time>2011-05-08T11:19:08.000Z</time>
      </trkpt>
      <trkpt lat="43.84531" lon="6.97495">
        <ele>851.20001220703</ele>
        <time>2011-05-08T11:19:10.000Z</time>
      </trkpt>
      <trkpt lat="43.8453" lon="6.97489">
        <ele>851.59997558594</ele>
        <time>2011-05-08T11:19:11.000Z</time>
      </trkpt>
      <trkpt lat="43.84531" lon="6.97482">
        <ele>851.79998779297</ele>
        <time>2011-05-08T11:19:12.000Z</time>
      </trkpt>
      <trkpt lat="43.84534" lon="6.97453">
        <ele>851.59997558594</ele>
        <time>2011-05-08T11:19:16.000Z</time>
      </trkpt>
      <trkpt lat="43.84537" lon="6.97434">
        <ele>851.40002441406</ele>
        <time>2011-05-08T11:19:19.000Z</time>
      </trkpt>
      <trkpt lat="43.84538" lon="6.97427">
        <ele>851</ele>
        <time>2011-05-08T11:19:20.000Z</time>
      </trkpt>
      <trkpt lat="43.8454" lon="6.97421">
        <ele>850.79998779297</ele>
        <time>2011-05-08T11:19:21.000Z</time>
      </trkpt>
      <trkpt lat="43.8454" lon="6.97399">
        <ele>853.40002441406</ele>
        <time>2011-05-08T11:19:25.000Z</time>
      </trkpt>
      <trkpt lat="43.8454" lon="6.9737">
        <ele>857.20001220703</ele>
        <time>2011-05-08T11:19:31.000Z</time>
      </trkpt>
      <trkpt lat="43.84541" lon="6.97366">
        <ele>857.40002441406</ele>
        <time>2011-05-08T11:19:32.000Z</time>
      </trkpt>
      <trkpt lat="43.84549" lon="6.97344">
        <ele>858.20001220703</ele>
        <time>2011-05-08T11:19:37.000Z</time>
      </trkpt>
      <trkpt lat="43.84563" lon="6.97323">
        <ele>857.79998779297</ele>
        <time>2011-05-08T11:19:43.000Z</time>
      </trkpt>
      <trkpt lat="43.84567" lon="6.97316">
        <ele>858</ele>
        <time>2011-05-08T11:19:45.000Z</time>
      </trkpt>
      <trkpt lat="43.84575" lon="6.97301">
        <ele>858.59997558594</ele>
        <time>2011-05-08T11:19:49.000Z</time>
      </trkpt>
      <trkpt lat="43.84581" lon="6.97284">
        <ele>860</ele>
        <time>2011-05-08T11:19:53.000Z</time>
      </trkpt>
      <trkpt lat="43.84584" lon="6.97277">
        <ele>860.59997558594</ele>
        <time>2011-05-08T11:19:55.000Z</time>
      </trkpt>
      <trkpt lat="43.84592" lon="6.97267">
        <ele>862.40002441406</ele>
        <time>2011-05-08T11:19:59.000Z</time>
      </trkpt>
      <trkpt lat="43.84595" lon="6.97267">
        <ele>862.40002441406</ele>
        <time>2011-05-08T11:20:00.000Z</time>
      </trkpt>
      <trkpt lat="43.84598" lon="6.97268">
        <ele>862.20001220703</ele>
        <time>2011-05-08T11:20:01.000Z</time>
      </trkpt>
      <trkpt lat="43.84603" lon="6.97274">
        <ele>861.20001220703</ele>
        <time>2011-05-08T11:20:03.000Z</time>
      </trkpt>
      <trkpt lat="43.84605" lon="6.97285">
        <ele>859.20001220703</ele>
        <time>2011-05-08T11:20:06.000Z</time>
      </trkpt>
      <trkpt lat="43.84604" lon="6.97293">
        <ele>857.79998779297</ele>
        <time>2011-05-08T11:20:08.000Z</time>
      </trkpt>
      <trkpt lat="43.84611" lon="6.97302">
        <ele>856.20001220703</ele>
        <time>2011-05-08T11:20:12.000Z</time>
      </trkpt>
      <trkpt lat="43.84621" lon="6.97301">
        <ele>856.40002441406</ele>
        <time>2011-05-08T11:20:16.000Z</time>
      </trkpt>
      <trkpt lat="43.84622" lon="6.97299">
        <ele>856.79998779297</ele>
        <time>2011-05-08T11:20:17.000Z</time>
      </trkpt>
      <trkpt lat="43.84632" lon="6.97286">
        <ele>858.79998779297</ele>
        <time>2011-05-08T11:20:23.000Z</time>
      </trkpt>
      <trkpt lat="43.84633" lon="6.9728">
        <ele>860</ele>
        <time>2011-05-08T11:20:25.000Z</time>
      </trkpt>
      <trkpt lat="43.84635" lon="6.97269">
        <ele>862</ele>
        <time>2011-05-08T11:20:28.000Z</time>
      </trkpt>
      <trkpt lat="43.84639" lon="6.97255">
        <ele>864.59997558594</ele>
        <time>2011-05-08T11:20:32.000Z</time>
      </trkpt>
      <trkpt lat="43.84644" lon="6.97243">
        <ele>867.20001220703</ele>
        <time>2011-05-08T11:20:36.000Z</time>
      </trkpt>
      <trkpt lat="43.84648" lon="6.97234">
        <ele>869.20001220703</ele>
        <time>2011-05-08T11:20:39.000Z</time>
      </trkpt>
      <trkpt lat="43.84653" lon="6.97231">
        <ele>870</ele>
        <time>2011-05-08T11:20:42.000Z</time>
      </trkpt>
      <trkpt lat="43.84668" lon="6.97229">
        <ele>870.59997558594</ele>
        <time>2011-05-08T11:20:48.000Z</time>
      </trkpt>
      <trkpt lat="43.84682" lon="6.97227">
        <ele>868.79998779297</ele>
        <time>2011-05-08T11:20:54.000Z</time>
      </trkpt>
      <trkpt lat="43.84687" lon="6.97224">
        <ele>868.79998779297</ele>
        <time>2011-05-08T11:20:56.000Z</time>
      </trkpt>
      <trkpt lat="43.847" lon="6.97211">
        <ele>869.40002441406</ele>
        <time>2011-05-08T11:21:03.000Z</time>
      </trkpt>
      <trkpt lat="43.84702" lon="6.97208">
        <ele>869.79998779297</ele>
        <time>2011-05-08T11:21:04.000Z</time>
      </trkpt>
      <trkpt lat="43.84709" lon="6.97192">
        <ele>872.40002441406</ele>
        <time>2011-05-08T11:21:09.000Z</time>
      </trkpt>
      <trkpt lat="43.84713" lon="6.97186">
        <ele>873.40002441406</ele>
        <time>2011-05-08T11:21:11.000Z</time>
      </trkpt>
      <trkpt lat="43.84721" lon="6.97164">
        <ele>877.59997558594</ele>
        <time>2011-05-08T11:21:18.000Z</time>
      </trkpt>
      <trkpt lat="43.8473" lon="6.97142">
        <ele>881.79998779297</ele>
        <time>2011-05-08T11:21:26.000Z</time>
      </trkpt>
      <trkpt lat="43.84734" lon="6.97127">
        <ele>885</ele>
        <time>2011-05-08T11:21:31.000Z</time>
      </trkpt>
      <trkpt lat="43.84736" lon="6.97124">
        <ele>885.40002441406</ele>
        <time>2011-05-08T11:21:32.000Z</time>
      </trkpt>
      <trkpt lat="43.84738" lon="6.97117">
        <ele>886.79998779297</ele>
        <time>2011-05-08T11:21:34.000Z</time>
      </trkpt>
      <trkpt lat="43.84743" lon="6.97106">
        <ele>889</ele>
        <time>2011-05-08T11:21:38.000Z</time>
      </trkpt>
      <trkpt lat="43.84751" lon="6.97108">
        <ele>887.20001220703</ele>
        <time>2011-05-08T11:21:41.000Z</time>
      </trkpt>
      <trkpt lat="43.84753" lon="6.97111">
        <ele>886.40002441406</ele>
        <time>2011-05-08T11:21:42.000Z</time>
      </trkpt>
      <trkpt lat="43.84755" lon="6.97113">
        <ele>885.40002441406</ele>
        <time>2011-05-08T11:21:43.000Z</time>
      </trkpt>
      <trkpt lat="43.84764" lon="6.97123">
        <ele>882.20001220703</ele>
        <time>2011-05-08T11:21:49.000Z</time>
      </trkpt>
      <trkpt lat="43.84766" lon="6.97123">
        <ele>881.79998779297</ele>
        <time>2011-05-08T11:21:50.000Z</time>
      </trkpt>
      <trkpt lat="43.84777" lon="6.97125">
        <ele>880.20001220703</ele>
        <time>2011-05-08T11:21:56.000Z</time>
      </trkpt>
      <trkpt lat="43.84785" lon="6.97122">
        <ele>880.40002441406</ele>
        <time>2011-05-08T11:22:01.000Z</time>
      </trkpt>
      <trkpt lat="43.84795" lon="6.97108">
        <ele>882.79998779297</ele>
        <time>2011-05-08T11:22:07.000Z</time>
      </trkpt>
      <trkpt lat="43.84799" lon="6.97102">
        <ele>884</ele>
        <time>2011-05-08T11:22:09.000Z</time>
      </trkpt>
      <trkpt lat="43.84806" lon="6.97089">
        <ele>886.59997558594</ele>
        <time>2011-05-08T11:22:14.000Z</time>
      </trkpt>
      <trkpt lat="43.84809" lon="6.9708">
        <ele>888.20001220703</ele>
        <time>2011-05-08T11:22:17.000Z</time>
      </trkpt>
      <trkpt lat="43.84812" lon="6.97071">
        <ele>889.79998779297</ele>
        <time>2011-05-08T11:22:21.000Z</time>
      </trkpt>
      <trkpt lat="43.84818" lon="6.97058">
        <ele>892.40002441406</ele>
        <time>2011-05-08T11:22:27.000Z</time>
      </trkpt>
      <trkpt lat="43.8483" lon="6.97049">
        <ele>893.20001220703</ele>
        <time>2011-05-08T11:22:32.000Z</time>
      </trkpt>
      <trkpt lat="43.84834" lon="6.97047">
        <ele>893.20001220703</ele>
        <time>2011-05-08T11:22:33.000Z</time>
      </trkpt>
      <trkpt lat="43.84851" lon="6.97038">
        <ele>896.40002441406</ele>
        <time>2011-05-08T11:22:39.000Z</time>
      </trkpt>
      <trkpt lat="43.84868" lon="6.9703">
        <ele>899</ele>
        <time>2011-05-08T11:22:45.000Z</time>
      </trkpt>
      <trkpt lat="43.8487" lon="6.97029">
        <ele>899.20001220703</ele>
        <time>2011-05-08T11:22:46.000Z</time>
      </trkpt>
      <trkpt lat="43.84882" lon="6.97021">
        <ele>901.20001220703</ele>
        <time>2011-05-08T11:22:52.000Z</time>
      </trkpt>
      <trkpt lat="43.84888" lon="6.97017">
        <ele>902.40002441406</ele>
        <time>2011-05-08T11:22:55.000Z</time>
      </trkpt>
      <trkpt lat="43.84895" lon="6.9701">
        <ele>903.59997558594</ele>
        <time>2011-05-08T11:23:00.000Z</time>
      </trkpt>
      <trkpt lat="43.84906" lon="6.97009">
        <ele>904.20001220703</ele>
        <time>2011-05-08T11:23:06.000Z</time>
      </trkpt>
      <trkpt lat="43.84908" lon="6.9701">
        <ele>904.20001220703</ele>
        <time>2011-05-08T11:23:07.000Z</time>
      </trkpt>
      <trkpt lat="43.84919" lon="6.97023">
        <ele>903.59997558594</ele>
        <time>2011-05-08T11:23:13.000Z</time>
      </trkpt>
      <trkpt lat="43.84921" lon="6.97026">
        <ele>903.79998779297</ele>
        <time>2011-05-08T11:23:14.000Z</time>
      </trkpt>
      <trkpt lat="43.84932" lon="6.97045">
        <ele>906</ele>
        <time>2011-05-08T11:23:21.000Z</time>
      </trkpt>
      <trkpt lat="43.84934" lon="6.97048">
        <ele>906.40002441406</ele>
        <time>2011-05-08T11:23:22.000Z</time>
      </trkpt>
      <trkpt lat="43.84946" lon="6.97066">
        <ele>908.79998779297</ele>
        <time>2011-05-08T11:23:28.000Z</time>
      </trkpt>
      <trkpt lat="43.84955" lon="6.97081">
        <ele>910.79998779297</ele>
        <time>2011-05-08T11:23:33.000Z</time>
      </trkpt>
      <trkpt lat="43.84959" lon="6.97087">
        <ele>911.59997558594</ele>
        <time>2011-05-08T11:23:35.000Z</time>
      </trkpt>
      <trkpt lat="43.84972" lon="6.97106">
        <ele>913.79998779297</ele>
        <time>2011-05-08T11:23:42.000Z</time>
      </trkpt>
      <trkpt lat="43.84985" lon="6.97123">
        <ele>916.20001220703</ele>
        <time>2011-05-08T11:23:49.000Z</time>
      </trkpt>
      <trkpt lat="43.84998" lon="6.97141">
        <ele>918.40002441406</ele>
        <time>2011-05-08T11:23:56.000Z</time>
      </trkpt>
      <trkpt lat="43.84999" lon="6.97144">
        <ele>918.59997558594</ele>
        <time>2011-05-08T11:23:57.000Z</time>
      </trkpt>
      <trkpt lat="43.85009" lon="6.97162">
        <ele>920.59997558594</ele>
        <time>2011-05-08T11:24:03.000Z</time>
      </trkpt>
      <trkpt lat="43.85014" lon="6.9716">
        <ele>924</ele>
        <time>2011-05-08T11:24:06.000Z</time>
      </trkpt>
      <trkpt lat="43.85012" lon="6.97148">
        <ele>925</ele>
        <time>2011-05-08T11:24:10.000Z</time>
      </trkpt>
      <trkpt lat="43.8501" lon="6.97145">
        <ele>924.59997558594</ele>
        <time>2011-05-08T11:24:11.000Z</time>
      </trkpt>
      <trkpt lat="43.84999" lon="6.97125">
        <ele>922</ele>
        <time>2011-05-08T11:24:17.000Z</time>
      </trkpt>
      <trkpt lat="43.84997" lon="6.97122">
        <ele>921.79998779297</ele>
        <time>2011-05-08T11:24:18.000Z</time>
      </trkpt>
      <trkpt lat="43.84989" lon="6.971">
        <ele>922.20001220703</ele>
        <time>2011-05-08T11:24:24.000Z</time>
      </trkpt>
      <trkpt lat="43.84986" lon="6.9709">
        <ele>922.59997558594</ele>
        <time>2011-05-08T11:24:27.000Z</time>
      </trkpt>
      <trkpt lat="43.84982" lon="6.97076">
        <ele>923</ele>
        <time>2011-05-08T11:24:31.000Z</time>
      </trkpt>
      <trkpt lat="43.84977" lon="6.97058">
        <ele>923.40002441406</ele>
        <time>2011-05-08T11:24:36.000Z</time>
      </trkpt>
      <trkpt lat="43.84975" lon="6.97051">
        <ele>923.59997558594</ele>
        <time>2011-05-08T11:24:38.000Z</time>
      </trkpt>
      <trkpt lat="43.84971" lon="6.97025">
        <ele>925.20001220703</ele>
        <time>2011-05-08T11:24:46.000Z</time>
      </trkpt>
      <trkpt lat="43.84966" lon="6.97">
        <ele>926.40002441406</ele>
        <time>2011-05-08T11:24:54.000Z</time>
      </trkpt>
      <trkpt lat="43.84964" lon="6.96995">
        <ele>926.79998779297</ele>
        <time>2011-05-08T11:24:56.000Z</time>
      </trkpt>
      <trkpt lat="43.84961" lon="6.96974">
        <ele>928.79998779297</ele>
        <time>2011-05-08T11:25:03.000Z</time>
      </trkpt>
      <trkpt lat="43.8496" lon="6.96968">
        <ele>929.40002441406</ele>
        <time>2011-05-08T11:25:05.000Z</time>
      </trkpt>
      <trkpt lat="43.84956" lon="6.96948">
        <ele>931.40002441406</ele>
        <time>2011-05-08T11:25:12.000Z</time>
      </trkpt>
      <trkpt lat="43.84956" lon="6.96945">
        <ele>931.79998779297</ele>
        <time>2011-05-08T11:25:13.000Z</time>
      </trkpt>
      <trkpt lat="43.8495" lon="6.96922">
        <ele>933.79998779297</ele>
        <time>2011-05-08T11:25:21.000Z</time>
      </trkpt>
      <trkpt lat="43.84949" lon="6.96916">
        <ele>934.20001220703</ele>
        <time>2011-05-08T11:25:23.000Z</time>
      </trkpt>
      <trkpt lat="43.84945" lon="6.96896">
        <ele>935.20001220703</ele>
        <time>2011-05-08T11:25:30.000Z</time>
      </trkpt>
      <trkpt lat="43.84944" lon="6.96893">
        <ele>935.40002441406</ele>
        <time>2011-05-08T11:25:31.000Z</time>
      </trkpt>
      <trkpt lat="43.84939" lon="6.96871">
        <ele>936.59997558594</ele>
        <time>2011-05-08T11:25:39.000Z</time>
      </trkpt>
      <trkpt lat="43.84933" lon="6.96857">
        <ele>936.79998779297</ele>
        <time>2011-05-08T11:25:45.000Z</time>
      </trkpt>
      <trkpt lat="43.8493" lon="6.96848">
        <ele>937.40002441406</ele>
        <time>2011-05-08T11:25:49.000Z</time>
      </trkpt>
      <trkpt lat="43.84929" lon="6.96843">
        <ele>937.59997558594</ele>
        <time>2011-05-08T11:25:51.000Z</time>
      </trkpt>
      <trkpt lat="43.84922" lon="6.96825">
        <ele>936.40002441406</ele>
        <time>2011-05-08T11:25:59.000Z</time>
      </trkpt>
      <trkpt lat="43.84922" lon="6.96823">
        <ele>936</ele>
        <time>2011-05-08T11:26:00.000Z</time>
      </trkpt>
      <trkpt lat="43.84915" lon="6.96813">
        <ele>933.79998779297</ele>
        <time>2011-05-08T11:26:07.000Z</time>
      </trkpt>
      <trkpt lat="43.84908" lon="6.96807">
        <ele>933.40002441406</ele>
        <time>2011-05-08T11:26:13.000Z</time>
      </trkpt>
      <trkpt lat="43.84906" lon="6.96806">
        <ele>933.40002441406</ele>
        <time>2011-05-08T11:26:14.000Z</time>
      </trkpt>
      <trkpt lat="43.84905" lon="6.96803">
        <ele>933.20001220703</ele>
        <time>2011-05-08T11:26:16.000Z</time>
      </trkpt>
      <trkpt lat="43.84905" lon="6.968">
        <ele>933</ele>
        <time>2011-05-08T11:26:18.000Z</time>
      </trkpt>
      <trkpt lat="43.84913" lon="6.96794">
        <ele>932</ele>
        <time>2011-05-08T11:26:25.000Z</time>
      </trkpt>
      <trkpt lat="43.84915" lon="6.96794">
        <ele>931.79998779297</ele>
        <time>2011-05-08T11:26:26.000Z</time>
      </trkpt>
      <trkpt lat="43.84923" lon="6.9679">
        <ele>932.40002441406</ele>
        <time>2011-05-08T11:26:33.000Z</time>
      </trkpt>
      <trkpt lat="43.84929" lon="6.96784">
        <ele>932.59997558594</ele>
        <time>2011-05-08T11:26:38.000Z</time>
      </trkpt>
      <trkpt lat="43.84931" lon="6.96784">
        <ele>933</ele>
        <time>2011-05-08T11:26:39.000Z</time>
      </trkpt>
      <trkpt lat="43.84938" lon="6.96786">
        <ele>934.40002441406</ele>
        <time>2011-05-08T11:26:43.000Z</time>
      </trkpt>
      <trkpt lat="43.84949" lon="6.96781">
        <ele>935.59997558594</ele>
        <time>2011-05-08T11:26:48.000Z</time>
      </trkpt>
      <trkpt lat="43.84961" lon="6.96778">
        <ele>937</ele>
        <time>2011-05-08T11:26:54.000Z</time>
      </trkpt>
      <trkpt lat="43.84968" lon="6.96778">
        <ele>938</ele>
        <time>2011-05-08T11:26:57.000Z</time>
      </trkpt>
      <trkpt lat="43.84978" lon="6.96777">
        <ele>939.40002441406</ele>
        <time>2011-05-08T11:27:00.000Z</time>
      </trkpt>
      <trkpt lat="43.84985" lon="6.96775">
        <ele>940.20001220703</ele>
        <time>2011-05-08T11:27:02.000Z</time>
      </trkpt>
      <trkpt lat="43.84997" lon="6.96769">
        <ele>940.59997558594</ele>
        <time>2011-05-08T11:27:06.000Z</time>
      </trkpt>
      <trkpt lat="43.85002" lon="6.96764">
        <ele>940.79998779297</ele>
        <time>2011-05-08T11:27:08.000Z</time>
      </trkpt>
      <trkpt lat="43.85011" lon="6.96747">
        <ele>941.79998779297</ele>
        <time>2011-05-08T11:27:13.000Z</time>
      </trkpt>
      <trkpt lat="43.85014" lon="6.9674">
        <ele>941</ele>
        <time>2011-05-08T11:27:15.000Z</time>
      </trkpt>
      <trkpt lat="43.85016" lon="6.96734">
        <ele>940.40002441406</ele>
        <time>2011-05-08T11:27:18.000Z</time>
      </trkpt>
      <trkpt lat="43.85019" lon="6.96733">
        <ele>941.79998779297</ele>
        <time>2011-05-08T11:27:27.000Z</time>
      </trkpt>
      <trkpt lat="43.85025" lon="6.96724">
        <ele>942.40002441406</ele>
        <time>2011-05-08T11:27:35.000Z</time>
      </trkpt>
      <trkpt lat="43.85027" lon="6.9672">
        <ele>942.40002441406</ele>
        <time>2011-05-08T11:27:38.000Z</time>
      </trkpt>
      <trkpt lat="43.85031" lon="6.96717">
        <ele>943.59997558594</ele>
        <time>2011-05-08T11:27:43.000Z</time>
      </trkpt>
      <trkpt lat="43.8503" lon="6.96715">
        <ele>942</ele>
        <time>2011-05-08T11:27:49.000Z</time>
      </trkpt>
      <trkpt lat="43.85035" lon="6.96713">
        <ele>944.79998779297</ele>
        <time>2011-05-08T11:28:00.000Z</time>
      </trkpt>
      <trkpt lat="43.85036" lon="6.96712">
        <ele>945.20001220703</ele>
        <time>2011-05-08T11:28:01.000Z</time>
      </trkpt>
      <trkpt lat="43.85037" lon="6.96709">
        <ele>945</ele>
        <time>2011-05-08T11:28:04.000Z</time>
      </trkpt>
      <trkpt lat="43.85038" lon="6.96707">
        <ele>944.40002441406</ele>
        <time>2011-05-08T11:28:06.000Z</time>
      </trkpt>
      <trkpt lat="43.85039" lon="6.96704">
        <ele>944.20001220703</ele>
        <time>2011-05-08T11:28:10.000Z</time>
      </trkpt>
      <trkpt lat="43.85039" lon="6.96701">
        <ele>942.79998779297</ele>
        <time>2011-05-08T11:28:12.000Z</time>
      </trkpt>
      <trkpt lat="43.85037" lon="6.9668">
        <ele>934.79998779297</ele>
        <time>2011-05-08T11:28:17.000Z</time>
      </trkpt>
      <trkpt lat="43.85042" lon="6.96668">
        <ele>933.40002441406</ele>
        <time>2011-05-08T11:28:21.000Z</time>
      </trkpt>
      <trkpt lat="43.85045" lon="6.96655">
        <ele>931.79998779297</ele>
        <time>2011-05-08T11:28:25.000Z</time>
      </trkpt>
      <trkpt lat="43.85046" lon="6.96649">
        <ele>930.59997558594</ele>
        <time>2011-05-08T11:28:27.000Z</time>
      </trkpt>
      <trkpt lat="43.85052" lon="6.96631">
        <ele>928.40002441406</ele>
        <time>2011-05-08T11:28:34.000Z</time>
      </trkpt>
      <trkpt lat="43.85053" lon="6.96626">
        <ele>927.40002441406</ele>
        <time>2011-05-08T11:28:36.000Z</time>
      </trkpt>
      <trkpt lat="43.85051" lon="6.96618">
        <ele>924</ele>
        <time>2011-05-08T11:28:38.000Z</time>
      </trkpt>
      <trkpt lat="43.85051" lon="6.96606">
        <ele>920</ele>
        <time>2011-05-08T11:28:41.000Z</time>
      </trkpt>
      <trkpt lat="43.85052" lon="6.96598">
        <ele>918.59997558594</ele>
        <time>2011-05-08T11:28:43.000Z</time>
      </trkpt>
      <trkpt lat="43.85052" lon="6.96593">
        <ele>916.79998779297</ele>
        <time>2011-05-08T11:28:45.000Z</time>
      </trkpt>
      <trkpt lat="43.85051" lon="6.96587">
        <ele>913.59997558594</ele>
        <time>2011-05-08T11:28:47.000Z</time>
      </trkpt>
      <trkpt lat="43.85052" lon="6.96578">
        <ele>912.20001220703</ele>
        <time>2011-05-08T11:28:50.000Z</time>
      </trkpt>
      <trkpt lat="43.85055" lon="6.9657">
        <ele>911.59997558594</ele>
        <time>2011-05-08T11:28:52.000Z</time>
      </trkpt>
      <trkpt lat="43.8506" lon="6.96553">
        <ele>910</ele>
        <time>2011-05-08T11:28:56.000Z</time>
      </trkpt>
      <trkpt lat="43.85062" lon="6.96549">
        <ele>910</ele>
        <time>2011-05-08T11:28:57.000Z</time>
      </trkpt>
      <trkpt lat="43.85069" lon="6.96527">
        <ele>908</ele>
        <time>2011-05-08T11:29:02.000Z</time>
      </trkpt>
      <trkpt lat="43.85079" lon="6.96504">
        <ele>906.59997558594</ele>
        <time>2011-05-08T11:29:08.000Z</time>
      </trkpt>
      <trkpt lat="43.85088" lon="6.96486">
        <ele>905.79998779297</ele>
        <time>2011-05-08T11:29:13.000Z</time>
      </trkpt>
      <trkpt lat="43.85089" lon="6.96482">
        <ele>905.79998779297</ele>
        <time>2011-05-08T11:29:14.000Z</time>
      </trkpt>
      <trkpt lat="43.85094" lon="6.96466">
        <ele>902.59997558594</ele>
        <time>2011-05-08T11:29:18.000Z</time>
      </trkpt>
      <trkpt lat="43.85096" lon="6.96457">
        <ele>901.20001220703</ele>
        <time>2011-05-08T11:29:20.000Z</time>
      </trkpt>
      <trkpt lat="43.85101" lon="6.96443">
        <ele>899.20001220703</ele>
        <time>2011-05-08T11:29:24.000Z</time>
      </trkpt>
      <trkpt lat="43.85104" lon="6.96434">
        <ele>897.40002441406</ele>
        <time>2011-05-08T11:29:26.000Z</time>
      </trkpt>
      <trkpt lat="43.85109" lon="6.96424">
        <ele>897</ele>
        <time>2011-05-08T11:29:29.000Z</time>
      </trkpt>
      <trkpt lat="43.85115" lon="6.96411">
        <ele>895.40002441406</ele>
        <time>2011-05-08T11:29:32.000Z</time>
      </trkpt>
      <trkpt lat="43.85119" lon="6.96401">
        <ele>893</ele>
        <time>2011-05-08T11:29:34.000Z</time>
      </trkpt>
      <trkpt lat="43.85126" lon="6.96387">
        <ele>891.40002441406</ele>
        <time>2011-05-08T11:29:37.000Z</time>
      </trkpt>
      <trkpt lat="43.85131" lon="6.9638">
        <ele>891.40002441406</ele>
        <time>2011-05-08T11:29:39.000Z</time>
      </trkpt>
      <trkpt lat="43.8514" lon="6.96367">
        <ele>890.59997558594</ele>
        <time>2011-05-08T11:29:43.000Z</time>
      </trkpt>
      <trkpt lat="43.85142" lon="6.96362">
        <ele>889.79998779297</ele>
        <time>2011-05-08T11:29:44.000Z</time>
      </trkpt>
      <trkpt lat="43.8515" lon="6.96343">
        <ele>887.40002441406</ele>
        <time>2011-05-08T11:29:48.000Z</time>
      </trkpt>
      <trkpt lat="43.85152" lon="6.9634">
        <ele>887</ele>
        <time>2011-05-08T11:29:49.000Z</time>
      </trkpt>
      <trkpt lat="43.85159" lon="6.96322">
        <ele>885</ele>
        <time>2011-05-08T11:29:53.000Z</time>
      </trkpt>
      <trkpt lat="43.85164" lon="6.96313">
        <ele>884.40002441406</ele>
        <time>2011-05-08T11:29:55.000Z</time>
      </trkpt>
      <trkpt lat="43.85168" lon="6.963">
        <ele>881.59997558594</ele>
        <time>2011-05-08T11:29:58.000Z</time>
      </trkpt>
      <trkpt lat="43.85172" lon="6.96291">
        <ele>880.59997558594</ele>
        <time>2011-05-08T11:30:00.000Z</time>
      </trkpt>
      <trkpt lat="43.85177" lon="6.96274">
        <ele>877.79998779297</ele>
        <time>2011-05-08T11:30:04.000Z</time>
      </trkpt>
      <trkpt lat="43.85184" lon="6.96261">
        <ele>877.79998779297</ele>
        <time>2011-05-08T11:30:08.000Z</time>
      </trkpt>
      <trkpt lat="43.8519" lon="6.96254">
        <ele>879.20001220703</ele>
        <time>2011-05-08T11:30:10.000Z</time>
      </trkpt>
      <trkpt lat="43.85198" lon="6.96244">
        <ele>880</ele>
        <time>2011-05-08T11:30:13.000Z</time>
      </trkpt>
      <trkpt lat="43.85202" lon="6.9623">
        <ele>876.40002441406</ele>
        <time>2011-05-08T11:30:16.000Z</time>
      </trkpt>
      <trkpt lat="43.85204" lon="6.96227">
        <ele>876.20001220703</ele>
        <time>2011-05-08T11:30:17.000Z</time>
      </trkpt>
      <trkpt lat="43.85216" lon="6.96223">
        <ele>882.59997558594</ele>
        <time>2011-05-08T11:30:23.000Z</time>
      </trkpt>
      <trkpt lat="43.85218" lon="6.96224">
        <ele>884.79998779297</ele>
        <time>2011-05-08T11:30:24.000Z</time>
      </trkpt>
      <trkpt lat="43.85223" lon="6.96224">
        <ele>888</ele>
        <time>2011-05-08T11:30:26.000Z</time>
      </trkpt>
      <trkpt lat="43.85226" lon="6.96222">
        <ele>889.40002441406</ele>
        <time>2011-05-08T11:30:28.000Z</time>
      </trkpt>
      <trkpt lat="43.8523" lon="6.96207">
        <ele>885.20001220703</ele>
        <time>2011-05-08T11:30:33.000Z</time>
      </trkpt>
      <trkpt lat="43.8523" lon="6.96196">
        <ele>879.59997558594</ele>
        <time>2011-05-08T11:30:37.000Z</time>
      </trkpt>
      <trkpt lat="43.85227" lon="6.96187">
        <ele>873.79998779297</ele>
        <time>2011-05-08T11:30:42.000Z</time>
      </trkpt>
      <trkpt lat="43.85229" lon="6.96187">
        <ele>874.79998779297</ele>
        <time>2011-05-08T11:30:48.000Z</time>
      </trkpt>
      <trkpt lat="43.85231" lon="6.96186">
        <ele>875.79998779297</ele>
        <time>2011-05-08T11:30:56.000Z</time>
      </trkpt>
      <trkpt lat="43.85231" lon="6.96186">
        <ele>876</ele>
        <time>2011-05-08T11:30:59.000Z</time>
      </trkpt>
      <trkpt lat="43.85232" lon="6.96183">
        <ele>875.20001220703</ele>
        <time>2011-05-08T11:31:16.000Z</time>
      </trkpt>
      <trkpt lat="43.8523" lon="6.96175">
        <ele>870.59997558594</ele>
        <time>2011-05-08T11:31:19.000Z</time>
      </trkpt>
      <trkpt lat="43.85226" lon="6.96163">
        <ele>862.40002441406</ele>
        <time>2011-05-08T11:31:23.000Z</time>
      </trkpt>
      <trkpt lat="43.85226" lon="6.96161">
        <ele>861.20001220703</ele>
        <time>2011-05-08T11:31:24.000Z</time>
      </trkpt>
      <trkpt lat="43.85227" lon="6.96149">
        <ele>856.79998779297</ele>
        <time>2011-05-08T11:31:31.000Z</time>
      </trkpt>
      <trkpt lat="43.85227" lon="6.9614">
        <ele>853.20001220703</ele>
        <time>2011-05-08T11:31:37.000Z</time>
      </trkpt>
      <trkpt lat="43.85228" lon="6.96137">
        <ele>852.20001220703</ele>
        <time>2011-05-08T11:31:41.000Z</time>
      </trkpt>
      <trkpt lat="43.85228" lon="6.96126">
        <ele>848</ele>
        <time>2011-05-08T11:31:49.000Z</time>
      </trkpt>
      <trkpt lat="43.85229" lon="6.96125">
        <ele>848.20001220703</ele>
        <time>2011-05-08T11:31:50.000Z</time>
      </trkpt>
      <trkpt lat="43.85232" lon="6.96122">
        <ele>848.59997558594</ele>
        <time>2011-05-08T11:31:55.000Z</time>
      </trkpt>
      <trkpt lat="43.85235" lon="6.96114">
        <ele>847.79998779297</ele>
        <time>2011-05-08T11:31:58.000Z</time>
      </trkpt>
      <trkpt lat="43.85236" lon="6.96111">
        <ele>847.20001220703</ele>
        <time>2011-05-08T11:31:59.000Z</time>
      </trkpt>
      <trkpt lat="43.85244" lon="6.96094">
        <ele>845.20001220703</ele>
        <time>2011-05-08T11:32:05.000Z</time>
      </trkpt>
      <trkpt lat="43.85246" lon="6.96091">
        <ele>845.20001220703</ele>
        <time>2011-05-08T11:32:06.000Z</time>
      </trkpt>
      <trkpt lat="43.85252" lon="6.96076">
        <ele>843.79998779297</ele>
        <time>2011-05-08T11:32:10.000Z</time>
      </trkpt>
      <trkpt lat="43.85255" lon="6.96069">
        <ele>842.59997558594</ele>
        <time>2011-05-08T11:32:12.000Z</time>
      </trkpt>
      <trkpt lat="43.85259" lon="6.96053">
        <ele>839.20001220703</ele>
        <time>2011-05-08T11:32:16.000Z</time>
      </trkpt>
      <trkpt lat="43.85262" lon="6.96046">
        <ele>838</ele>
        <time>2011-05-08T11:32:18.000Z</time>
      </trkpt>
      <trkpt lat="43.85267" lon="6.96028">
        <ele>835</ele>
        <time>2011-05-08T11:32:22.000Z</time>
      </trkpt>
      <trkpt lat="43.85271" lon="6.96021">
        <ele>835</ele>
        <time>2011-05-08T11:32:24.000Z</time>
      </trkpt>
      <trkpt lat="43.85278" lon="6.96013">
        <ele>836</ele>
        <time>2011-05-08T11:32:27.000Z</time>
      </trkpt>
      <trkpt lat="43.85286" lon="6.96003">
        <ele>837</ele>
        <time>2011-05-08T11:32:32.000Z</time>
      </trkpt>
      <trkpt lat="43.85297" lon="6.95984">
        <ele>835.59997558594</ele>
        <time>2011-05-08T11:32:39.000Z</time>
      </trkpt>
      <trkpt lat="43.85298" lon="6.95981">
        <ele>835.20001220703</ele>
        <time>2011-05-08T11:32:40.000Z</time>
      </trkpt>
      <trkpt lat="43.85307" lon="6.95964">
        <ele>834</ele>
        <time>2011-05-08T11:32:45.000Z</time>
      </trkpt>
      <trkpt lat="43.85309" lon="6.95961">
        <ele>834.20001220703</ele>
        <time>2011-05-08T11:32:46.000Z</time>
      </trkpt>
      <trkpt lat="43.85319" lon="6.95948">
        <ele>835.20001220703</ele>
        <time>2011-05-08T11:32:51.000Z</time>
      </trkpt>
      <trkpt lat="43.85323" lon="6.95941">
        <ele>835.20001220703</ele>
        <time>2011-05-08T11:32:53.000Z</time>
      </trkpt>
      <trkpt lat="43.85328" lon="6.95928">
        <ele>834.40002441406</ele>
        <time>2011-05-08T11:32:57.000Z</time>
      </trkpt>
      <trkpt lat="43.85328" lon="6.95914">
        <ele>829.40002441406</ele>
        <time>2011-05-08T11:33:00.000Z</time>
      </trkpt>
      <trkpt lat="43.85328" lon="6.9591">
        <ele>827.20001220703</ele>
        <time>2011-05-08T11:33:01.000Z</time>
      </trkpt>
      <trkpt lat="43.85332" lon="6.95896">
        <ele>824.20001220703</ele>
        <time>2011-05-08T11:33:05.000Z</time>
      </trkpt>
      <trkpt lat="43.85337" lon="6.9589">
        <ele>822.59997558594</ele>
        <time>2011-05-08T11:33:07.000Z</time>
      </trkpt>
      <trkpt lat="43.85344" lon="6.95884">
        <ele>820.59997558594</ele>
        <time>2011-05-08T11:33:10.000Z</time>
      </trkpt>
      <trkpt lat="43.85355" lon="6.95877">
        <ele>818.20001220703</ele>
        <time>2011-05-08T11:33:15.000Z</time>
      </trkpt>
      <trkpt lat="43.85363" lon="6.95873">
        <ele>816.79998779297</ele>
        <time>2011-05-08T11:33:19.000Z</time>
      </trkpt>
      <trkpt lat="43.8537" lon="6.95873">
        <ele>817.20001220703</ele>
        <time>2011-05-08T11:33:24.000Z</time>
      </trkpt>
      <trkpt lat="43.85374" lon="6.95873">
        <ele>817.20001220703</ele>
        <time>2011-05-08T11:33:26.000Z</time>
      </trkpt>
      <trkpt lat="43.85378" lon="6.9587">
        <ele>816.79998779297</ele>
        <time>2011-05-08T11:33:28.000Z</time>
      </trkpt>
      <trkpt lat="43.8538" lon="6.95869">
        <ele>816.59997558594</ele>
        <time>2011-05-08T11:33:29.000Z</time>
      </trkpt>
      <trkpt lat="43.85384" lon="6.95868">
        <ele>816.20001220703</ele>
        <time>2011-05-08T11:33:31.000Z</time>
      </trkpt>
      <trkpt lat="43.85391" lon="6.95863">
        <ele>815.20001220703</ele>
        <time>2011-05-08T11:33:33.000Z</time>
      </trkpt>
      <trkpt lat="43.85409" lon="6.95856">
        <ele>814.40002441406</ele>
        <time>2011-05-08T11:33:38.000Z</time>
      </trkpt>
      <trkpt lat="43.8542" lon="6.95857">
        <ele>812.59997558594</ele>
        <time>2011-05-08T11:33:41.000Z</time>
      </trkpt>
      <trkpt lat="43.85426" lon="6.95857">
        <ele>809</ele>
        <time>2011-05-08T11:33:43.000Z</time>
      </trkpt>
      <trkpt lat="43.85428" lon="6.9586">
        <ele>808</ele>
        <time>2011-05-08T11:33:44.000Z</time>
      </trkpt>
      <trkpt lat="43.85433" lon="6.95869">
        <ele>807.40002441406</ele>
        <time>2011-05-08T11:33:47.000Z</time>
      </trkpt>
      <trkpt lat="43.85438" lon="6.95883">
        <ele>807.79998779297</ele>
        <time>2011-05-08T11:33:51.000Z</time>
      </trkpt>
      <trkpt lat="43.85443" lon="6.9589">
        <ele>807.20001220703</ele>
        <time>2011-05-08T11:33:53.000Z</time>
      </trkpt>
      <trkpt lat="43.8545" lon="6.95905">
        <ele>807</ele>
        <time>2011-05-08T11:33:56.000Z</time>
      </trkpt>
      <trkpt lat="43.85452" lon="6.9591">
        <ele>807</ele>
        <time>2011-05-08T11:33:57.000Z</time>
      </trkpt>
      <trkpt lat="43.85458" lon="6.95926">
        <ele>807.20001220703</ele>
        <time>2011-05-08T11:34:00.000Z</time>
      </trkpt>
      <trkpt lat="43.85464" lon="6.95942">
        <ele>805.79998779297</ele>
        <time>2011-05-08T11:34:03.000Z</time>
      </trkpt>
      <trkpt lat="43.85465" lon="6.95945">
        <ele>805.40002441406</ele>
        <time>2011-05-08T11:34:04.000Z</time>
      </trkpt>
      <trkpt lat="43.85468" lon="6.95951">
        <ele>804.40002441406</ele>
        <time>2011-05-08T11:34:07.000Z</time>
      </trkpt>
      <trkpt lat="43.85469" lon="6.9596">
        <ele>805.20001220703</ele>
        <time>2011-05-08T11:34:10.000Z</time>
      </trkpt>
      <trkpt lat="43.85469" lon="6.95969">
        <ele>806.59997558594</ele>
        <time>2011-05-08T11:34:12.000Z</time>
      </trkpt>
      <trkpt lat="43.85469" lon="6.95979">
        <ele>807.79998779297</ele>
        <time>2011-05-08T11:34:14.000Z</time>
      </trkpt>
      <trkpt lat="43.8547" lon="6.95997">
        <ele>809.59997558594</ele>
        <time>2011-05-08T11:34:17.000Z</time>
      </trkpt>
      <trkpt lat="43.85472" lon="6.96003">
        <ele>809.40002441406</ele>
        <time>2011-05-08T11:34:18.000Z</time>
      </trkpt>
      <trkpt lat="43.85476" lon="6.96026">
        <ele>809.40002441406</ele>
        <time>2011-05-08T11:34:22.000Z</time>
      </trkpt>
      <trkpt lat="43.85477" lon="6.96032">
        <ele>809.20001220703</ele>
        <time>2011-05-08T11:34:23.000Z</time>
      </trkpt>
      <trkpt lat="43.85484" lon="6.96049">
        <ele>806.59997558594</ele>
        <time>2011-05-08T11:34:26.000Z</time>
      </trkpt>
      <trkpt lat="43.85491" lon="6.96057">
        <ele>803.40002441406</ele>
        <time>2011-05-08T11:34:28.000Z</time>
      </trkpt>
      <trkpt lat="43.85503" lon="6.96077">
        <ele>798</ele>
        <time>2011-05-08T11:34:32.000Z</time>
      </trkpt>
      <trkpt lat="43.85506" lon="6.96082">
        <ele>796.20001220703</ele>
        <time>2011-05-08T11:34:33.000Z</time>
      </trkpt>
      <trkpt lat="43.85513" lon="6.96091">
        <ele>791.59997558594</ele>
        <time>2011-05-08T11:34:36.000Z</time>
      </trkpt>
      <trkpt lat="43.85516" lon="6.96094">
        <ele>789.20001220703</ele>
        <time>2011-05-08T11:34:37.000Z</time>
      </trkpt>
      <trkpt lat="43.85518" lon="6.96098">
        <ele>788</ele>
        <time>2011-05-08T11:34:38.000Z</time>
      </trkpt>
      <trkpt lat="43.85522" lon="6.96114">
        <ele>786</ele>
        <time>2011-05-08T11:34:41.000Z</time>
      </trkpt>
      <trkpt lat="43.85522" lon="6.96125">
        <ele>787</ele>
        <time>2011-05-08T11:34:43.000Z</time>
      </trkpt>
      <trkpt lat="43.8552" lon="6.96134">
        <ele>789</ele>
        <time>2011-05-08T11:34:45.000Z</time>
      </trkpt>
      <trkpt lat="43.8552" lon="6.96139">
        <ele>789.20001220703</ele>
        <time>2011-05-08T11:34:47.000Z</time>
      </trkpt>
      <trkpt lat="43.85524" lon="6.96143">
        <ele>786.79998779297</ele>
        <time>2011-05-08T11:34:49.000Z</time>
      </trkpt>
      <trkpt lat="43.85525" lon="6.96145">
        <ele>786</ele>
        <time>2011-05-08T11:34:50.000Z</time>
      </trkpt>
      <trkpt lat="43.85524" lon="6.96151">
        <ele>787</ele>
        <time>2011-05-08T11:34:52.000Z</time>
      </trkpt>
      <trkpt lat="43.85523" lon="6.96157">
        <ele>787.79998779297</ele>
        <time>2011-05-08T11:34:53.000Z</time>
      </trkpt>
      <trkpt lat="43.85529" lon="6.96178">
        <ele>785.40002441406</ele>
        <time>2011-05-08T11:34:57.000Z</time>
      </trkpt>
      <trkpt lat="43.85538" lon="6.96185">
        <ele>779.59997558594</ele>
        <time>2011-05-08T11:35:01.000Z</time>
      </trkpt>
      <trkpt lat="43.85543" lon="6.96184">
        <ele>776.40002441406</ele>
        <time>2011-05-08T11:35:04.000Z</time>
      </trkpt>
      <trkpt lat="43.85547" lon="6.96184">
        <ele>773.20001220703</ele>
        <time>2011-05-08T11:35:07.000Z</time>
      </trkpt>
      <trkpt lat="43.85548" lon="6.96184">
        <ele>772.59997558594</ele>
        <time>2011-05-08T11:35:08.000Z</time>
      </trkpt>
      <trkpt lat="43.8555" lon="6.96178">
        <ele>770.40002441406</ele>
        <time>2011-05-08T11:35:12.000Z</time>
      </trkpt>
      <trkpt lat="43.85552" lon="6.96174">
        <ele>768.79998779297</ele>
        <time>2011-05-08T11:35:15.000Z</time>
      </trkpt>
      <trkpt lat="43.85553" lon="6.96175">
        <ele>768.20001220703</ele>
        <time>2011-05-08T11:35:18.000Z</time>
      </trkpt>
      <trkpt lat="43.85555" lon="6.9618">
        <ele>767.20001220703</ele>
        <time>2011-05-08T11:35:22.000Z</time>
      </trkpt>
      <trkpt lat="43.85556" lon="6.96181">
        <ele>766.79998779297</ele>
        <time>2011-05-08T11:35:23.000Z</time>
      </trkpt>
      <trkpt lat="43.85554" lon="6.96181">
        <ele>767.79998779297</ele>
        <time>2011-05-08T11:35:28.000Z</time>
      </trkpt>
      <trkpt lat="43.85557" lon="6.9618">
        <ele>765.79998779297</ele>
        <time>2011-05-08T11:35:33.000Z</time>
      </trkpt>
      <trkpt lat="43.8556" lon="6.9618">
        <ele>763.59997558594</ele>
        <time>2011-05-08T11:35:40.000Z</time>
      </trkpt>
      <trkpt lat="43.85559" lon="6.96181">
        <ele>764.40002441406</ele>
        <time>2011-05-08T11:35:41.000Z</time>
      </trkpt>
      <trkpt lat="43.85559" lon="6.96183">
        <ele>765</ele>
        <time>2011-05-08T11:35:43.000Z</time>
      </trkpt>
      <trkpt lat="43.85558" lon="6.96186">
        <ele>765.79998779297</ele>
        <time>2011-05-08T11:35:47.000Z</time>
      </trkpt>
      <trkpt lat="43.85558" lon="6.96191">
        <ele>766.40002441406</ele>
        <time>2011-05-08T11:35:51.000Z</time>
      </trkpt>
      <trkpt lat="43.85564" lon="6.96197">
        <ele>763</ele>
        <time>2011-05-08T11:35:55.000Z</time>
      </trkpt>
      <trkpt lat="43.85566" lon="6.962">
        <ele>761.79998779297</ele>
        <time>2011-05-08T11:36:02.000Z</time>
      </trkpt>
      <trkpt lat="43.85568" lon="6.96201">
        <ele>760.20001220703</ele>
        <time>2011-05-08T11:36:05.000Z</time>
      </trkpt>
      <trkpt lat="43.85569" lon="6.96203">
        <ele>760</ele>
        <time>2011-05-08T11:36:07.000Z</time>
      </trkpt>
      <trkpt lat="43.85571" lon="6.96213">
        <ele>759.40002441406</ele>
        <time>2011-05-08T11:36:14.000Z</time>
      </trkpt>
      <trkpt lat="43.85576" lon="6.96221">
        <ele>757.20001220703</ele>
        <time>2011-05-08T11:36:16.000Z</time>
      </trkpt>
      <trkpt lat="43.85586" lon="6.96236">
        <ele>751.79998779297</ele>
        <time>2011-05-08T11:36:20.000Z</time>
      </trkpt>
      <trkpt lat="43.8559" lon="6.96243">
        <ele>749.79998779297</ele>
        <time>2011-05-08T11:36:22.000Z</time>
      </trkpt>
      <trkpt lat="43.85595" lon="6.96249">
        <ele>747.59997558594</ele>
        <time>2011-05-08T11:36:25.000Z</time>
      </trkpt>
      <trkpt lat="43.85597" lon="6.96251">
        <ele>746.79998779297</ele>
        <time>2011-05-08T11:36:28.000Z</time>
      </trkpt>
      <trkpt lat="43.85598" lon="6.96252">
        <ele>745.79998779297</ele>
        <time>2011-05-08T11:36:30.000Z</time>
      </trkpt>
      <trkpt lat="43.85603" lon="6.96251">
        <ele>743</ele>
        <time>2011-05-08T11:36:32.000Z</time>
      </trkpt>
      <trkpt lat="43.85606" lon="6.96253">
        <ele>741.20001220703</ele>
        <time>2011-05-08T11:36:33.000Z</time>
      </trkpt>
      <trkpt lat="43.85612" lon="6.96258">
        <ele>738</ele>
        <time>2011-05-08T11:36:35.000Z</time>
      </trkpt>
      <trkpt lat="43.85614" lon="6.96261">
        <ele>736.59997558594</ele>
        <time>2011-05-08T11:36:36.000Z</time>
      </trkpt>
      <trkpt lat="43.8562" lon="6.96272">
        <ele>733.59997558594</ele>
        <time>2011-05-08T11:36:39.000Z</time>
      </trkpt>
      <trkpt lat="43.85621" lon="6.96275">
        <ele>733.20001220703</ele>
        <time>2011-05-08T11:36:40.000Z</time>
      </trkpt>
      <trkpt lat="43.85623" lon="6.96275">
        <ele>732.20001220703</ele>
        <time>2011-05-08T11:36:41.000Z</time>
      </trkpt>
      <trkpt lat="43.85625" lon="6.96271">
        <ele>730.59997558594</ele>
        <time>2011-05-08T11:36:43.000Z</time>
      </trkpt>
      <trkpt lat="43.85623" lon="6.96261">
        <ele>731.40002441406</ele>
        <time>2011-05-08T11:36:47.000Z</time>
      </trkpt>
      <trkpt lat="43.85623" lon="6.96262">
        <ele>731.59997558594</ele>
        <time>2011-05-08T11:36:48.000Z</time>
      </trkpt>
      <trkpt lat="43.85624" lon="6.96265">
        <ele>731.40002441406</ele>
        <time>2011-05-08T11:36:49.000Z</time>
      </trkpt>
      <trkpt lat="43.85628" lon="6.96271">
        <ele>729.20001220703</ele>
        <time>2011-05-08T11:36:51.000Z</time>
      </trkpt>
      <trkpt lat="43.8563" lon="6.96274">
        <ele>727.79998779297</ele>
        <time>2011-05-08T11:36:52.000Z</time>
      </trkpt>
      <trkpt lat="43.85638" lon="6.96282">
        <ele>724</ele>
        <time>2011-05-08T11:36:55.000Z</time>
      </trkpt>
      <trkpt lat="43.8564" lon="6.96284">
        <ele>723.20001220703</ele>
        <time>2011-05-08T11:36:56.000Z</time>
      </trkpt>
      <trkpt lat="43.85653" lon="6.96292">
        <ele>716.40002441406</ele>
        <time>2011-05-08T11:37:01.000Z</time>
      </trkpt>
      <trkpt lat="43.85655" lon="6.96293">
        <ele>715.40002441406</ele>
        <time>2011-05-08T11:37:02.000Z</time>
      </trkpt>
      <trkpt lat="43.85665" lon="6.96301">
        <ele>710.79998779297</ele>
        <time>2011-05-08T11:37:06.000Z</time>
      </trkpt>
      <trkpt lat="43.85673" lon="6.96305">
        <ele>707.79998779297</ele>
        <time>2011-05-08T11:37:09.000Z</time>
      </trkpt>
      <trkpt lat="43.85679" lon="6.96309">
        <ele>706.20001220703</ele>
        <time>2011-05-08T11:37:11.000Z</time>
      </trkpt>
      <trkpt lat="43.8569" lon="6.96316">
        <ele>703.59997558594</ele>
        <time>2011-05-08T11:37:14.000Z</time>
      </trkpt>
      <trkpt lat="43.85697" lon="6.96323">
        <ele>702.20001220703</ele>
        <time>2011-05-08T11:37:17.000Z</time>
      </trkpt>
      <trkpt lat="43.85709" lon="6.96324">
        <ele>698.40002441406</ele>
        <time>2011-05-08T11:37:21.000Z</time>
      </trkpt>
      <trkpt lat="43.85711" lon="6.96325">
        <ele>698</ele>
        <time>2011-05-08T11:37:22.000Z</time>
      </trkpt>
      <trkpt lat="43.85712" lon="6.96325">
        <ele>697.59997558594</ele>
        <time>2011-05-08T11:37:23.000Z</time>
      </trkpt>
      <trkpt lat="43.85715" lon="6.96325">
        <ele>696.59997558594</ele>
        <time>2011-05-08T11:37:26.000Z</time>
      </trkpt>
      <trkpt lat="43.85718" lon="6.96328">
        <ele>695.79998779297</ele>
        <time>2011-05-08T11:37:31.000Z</time>
      </trkpt>
      <trkpt lat="43.85721" lon="6.96328">
        <ele>695</ele>
        <time>2011-05-08T11:37:32.000Z</time>
      </trkpt>
      <trkpt lat="43.85724" lon="6.96337">
        <ele>694.20001220703</ele>
        <time>2011-05-08T11:37:36.000Z</time>
      </trkpt>
      <trkpt lat="43.85725" lon="6.9634">
        <ele>693.40002441406</ele>
        <time>2011-05-08T11:37:37.000Z</time>
      </trkpt>
      <trkpt lat="43.85725" lon="6.96342">
        <ele>692.79998779297</ele>
        <time>2011-05-08T11:37:38.000Z</time>
      </trkpt>
      <trkpt lat="43.85727" lon="6.96341">
        <ele>692.20001220703</ele>
        <time>2011-05-08T11:37:40.000Z</time>
      </trkpt>
      <trkpt lat="43.85732" lon="6.96335">
        <ele>692</ele>
        <time>2011-05-08T11:37:44.000Z</time>
      </trkpt>
      <trkpt lat="43.85735" lon="6.96331">
        <ele>691</ele>
        <time>2011-05-08T11:37:46.000Z</time>
      </trkpt>
      <trkpt lat="43.85736" lon="6.96329">
        <ele>690.59997558594</ele>
        <time>2011-05-08T11:37:47.000Z</time>
      </trkpt>
      <trkpt lat="43.85737" lon="6.96324">
        <ele>689.40002441406</ele>
        <time>2011-05-08T11:37:49.000Z</time>
      </trkpt>
      <trkpt lat="43.8574" lon="6.9632">
        <ele>687.79998779297</ele>
        <time>2011-05-08T11:37:53.000Z</time>
      </trkpt>
      <trkpt lat="43.85741" lon="6.96322">
        <ele>687.59997558594</ele>
        <time>2011-05-08T11:37:55.000Z</time>
      </trkpt>
      <trkpt lat="43.85743" lon="6.96321">
        <ele>687</ele>
        <time>2011-05-08T11:37:57.000Z</time>
      </trkpt>
      <trkpt lat="43.85744" lon="6.96318">
        <ele>685.79998779297</ele>
        <time>2011-05-08T11:37:59.000Z</time>
      </trkpt>
      <trkpt lat="43.85746" lon="6.96318">
        <ele>685.20001220703</ele>
        <time>2011-05-08T11:38:00.000Z</time>
      </trkpt>
      <trkpt lat="43.85751" lon="6.96321">
        <ele>684.20001220703</ele>
        <time>2011-05-08T11:38:03.000Z</time>
      </trkpt>
      <trkpt lat="43.85752" lon="6.96322">
        <ele>683.79998779297</ele>
        <time>2011-05-08T11:38:04.000Z</time>
      </trkpt>
      <trkpt lat="43.85757" lon="6.96326">
        <ele>682.40002441406</ele>
        <time>2011-05-08T11:38:08.000Z</time>
      </trkpt>
      <trkpt lat="43.85758" lon="6.96326">
        <ele>681.79998779297</ele>
        <time>2011-05-08T11:38:09.000Z</time>
      </trkpt>
      <trkpt lat="43.85759" lon="6.96325">
        <ele>681</ele>
        <time>2011-05-08T11:38:13.000Z</time>
      </trkpt>
      <trkpt lat="43.85759" lon="6.96321">
        <ele>680.59997558594</ele>
        <time>2011-05-08T11:38:17.000Z</time>
      </trkpt>
      <trkpt lat="43.85758" lon="6.96319">
        <ele>680.40002441406</ele>
        <time>2011-05-08T11:38:19.000Z</time>
      </trkpt>
      <trkpt lat="43.8576" lon="6.96316">
        <ele>678.79998779297</ele>
        <time>2011-05-08T11:38:25.000Z</time>
      </trkpt>
      <trkpt lat="43.8576" lon="6.96311">
        <ele>678.20001220703</ele>
        <time>2011-05-08T11:38:29.000Z</time>
      </trkpt>
      <trkpt lat="43.85756" lon="6.96302">
        <ele>678.40002441406</ele>
        <time>2011-05-08T11:38:36.000Z</time>
      </trkpt>
      <trkpt lat="43.85755" lon="6.96301">
        <ele>678.59997558594</ele>
        <time>2011-05-08T11:38:37.000Z</time>
      </trkpt>
      <trkpt lat="43.85754" lon="6.96299">
        <ele>678.59997558594</ele>
        <time>2011-05-08T11:38:39.000Z</time>
      </trkpt>
      <trkpt lat="43.85756" lon="6.96297">
        <ele>677.20001220703</ele>
        <time>2011-05-08T11:38:42.000Z</time>
      </trkpt>
      <trkpt lat="43.85757" lon="6.96296">
        <ele>676.79998779297</ele>
        <time>2011-05-08T11:38:43.000Z</time>
      </trkpt>
      <trkpt lat="43.8576" lon="6.96296">
        <ele>675.20001220703</ele>
        <time>2011-05-08T11:38:47.000Z</time>
      </trkpt>
      <trkpt lat="43.85765" lon="6.96301">
        <ele>674</ele>
        <time>2011-05-08T11:38:52.000Z</time>
      </trkpt>
      <trkpt lat="43.8577" lon="6.96301">
        <ele>672</ele>
        <time>2011-05-08T11:38:55.000Z</time>
      </trkpt>
      <trkpt lat="43.85771" lon="6.96302">
        <ele>671.59997558594</ele>
        <time>2011-05-08T11:38:56.000Z</time>
      </trkpt>
      <trkpt lat="43.85781" lon="6.96312">
        <ele>668.79998779297</ele>
        <time>2011-05-08T11:39:02.000Z</time>
      </trkpt>
      <trkpt lat="43.85782" lon="6.96313">
        <ele>668.59997558594</ele>
        <time>2011-05-08T11:39:03.000Z</time>
      </trkpt>
      <trkpt lat="43.85785" lon="6.96311">
        <ele>667</ele>
        <time>2011-05-08T11:39:08.000Z</time>
      </trkpt>
      <trkpt lat="43.85787" lon="6.96314">
        <ele>666.59997558594</ele>
        <time>2011-05-08T11:39:13.000Z</time>
      </trkpt>
      <trkpt lat="43.85787" lon="6.96315">
        <ele>666.79998779297</ele>
        <time>2011-05-08T11:39:15.000Z</time>
      </trkpt>
      <trkpt lat="43.85788" lon="6.96316">
        <ele>666.40002441406</ele>
        <time>2011-05-08T11:39:16.000Z</time>
      </trkpt>
      <trkpt lat="43.8579" lon="6.96314">
        <ele>665.40002441406</ele>
        <time>2011-05-08T11:39:20.000Z</time>
      </trkpt>
      <trkpt lat="43.8579" lon="6.96309">
        <ele>664.40002441406</ele>
        <time>2011-05-08T11:39:25.000Z</time>
      </trkpt>
      <trkpt lat="43.85791" lon="6.96308">
        <ele>664</ele>
        <time>2011-05-08T11:39:26.000Z</time>
      </trkpt>
      <trkpt lat="43.85792" lon="6.96303">
        <ele>662.40002441406</ele>
        <time>2011-05-08T11:39:28.000Z</time>
      </trkpt>
      <trkpt lat="43.85795" lon="6.96301">
        <ele>660.79998779297</ele>
        <time>2011-05-08T11:39:30.000Z</time>
      </trkpt>
      <trkpt lat="43.85797" lon="6.96303">
        <ele>660.20001220703</ele>
        <time>2011-05-08T11:39:32.000Z</time>
      </trkpt>
      <trkpt lat="43.85797" lon="6.96307">
        <ele>660.79998779297</ele>
        <time>2011-05-08T11:39:34.000Z</time>
      </trkpt>
      <trkpt lat="43.85799" lon="6.96313">
        <ele>661.20001220703</ele>
        <time>2011-05-08T11:39:36.000Z</time>
      </trkpt>
      <trkpt lat="43.858" lon="6.96314">
        <ele>661</ele>
        <time>2011-05-08T11:39:37.000Z</time>
      </trkpt>
      <trkpt lat="43.85802" lon="6.96312">
        <ele>659.79998779297</ele>
        <time>2011-05-08T11:39:39.000Z</time>
      </trkpt>
      <trkpt lat="43.85803" lon="6.96308">
        <ele>658.40002441406</ele>
        <time>2011-05-08T11:39:41.000Z</time>
      </trkpt>
      <trkpt lat="43.85805" lon="6.96305">
        <ele>657</ele>
        <time>2011-05-08T11:39:43.000Z</time>
      </trkpt>
      <trkpt lat="43.85806" lon="6.96296">
        <ele>655</ele>
        <time>2011-05-08T11:39:48.000Z</time>
      </trkpt>
      <trkpt lat="43.85805" lon="6.96288">
        <ele>654.40002441406</ele>
        <time>2011-05-08T11:39:53.000Z</time>
      </trkpt>
      <trkpt lat="43.85806" lon="6.96286">
        <ele>653.40002441406</ele>
        <time>2011-05-08T11:39:57.000Z</time>
      </trkpt>
      <trkpt lat="43.85808" lon="6.96285">
        <ele>652.59997558594</ele>
        <time>2011-05-08T11:39:58.000Z</time>
      </trkpt>
      <trkpt lat="43.85809" lon="6.96285">
        <ele>652</ele>
        <time>2011-05-08T11:39:59.000Z</time>
      </trkpt>
      <trkpt lat="43.85815" lon="6.96289">
        <ele>650.20001220703</ele>
        <time>2011-05-08T11:40:04.000Z</time>
      </trkpt>
      <trkpt lat="43.85819" lon="6.96291">
        <ele>648.40002441406</ele>
        <time>2011-05-08T11:40:06.000Z</time>
      </trkpt>
      <trkpt lat="43.85821" lon="6.96293">
        <ele>648.20001220703</ele>
        <time>2011-05-08T11:40:07.000Z</time>
      </trkpt>
      <trkpt lat="43.85822" lon="6.96296">
        <ele>648.20001220703</ele>
        <time>2011-05-08T11:40:08.000Z</time>
      </trkpt>
      <trkpt lat="43.85824" lon="6.96303">
        <ele>648.40002441406</ele>
        <time>2011-05-08T11:40:11.000Z</time>
      </trkpt>
      <trkpt lat="43.85825" lon="6.96303">
        <ele>648</ele>
        <time>2011-05-08T11:40:12.000Z</time>
      </trkpt>
      <trkpt lat="43.85825" lon="6.96301">
        <ele>647.40002441406</ele>
        <time>2011-05-08T11:40:13.000Z</time>
      </trkpt>
      <trkpt lat="43.85826" lon="6.96291">
        <ele>645.40002441406</ele>
        <time>2011-05-08T11:40:17.000Z</time>
      </trkpt>
      <trkpt lat="43.85825" lon="6.96288">
        <ele>645.40002441406</ele>
        <time>2011-05-08T11:40:18.000Z</time>
      </trkpt>
      <trkpt lat="43.85827" lon="6.96284">
        <ele>644</ele>
        <time>2011-05-08T11:40:21.000Z</time>
      </trkpt>
      <trkpt lat="43.85832" lon="6.96289">
        <ele>642.59997558594</ele>
        <time>2011-05-08T11:40:25.000Z</time>
      </trkpt>
      <trkpt lat="43.85838" lon="6.96292">
        <ele>640.40002441406</ele>
        <time>2011-05-08T11:40:30.000Z</time>
      </trkpt>
      <trkpt lat="43.85838" lon="6.96283">
        <ele>639</ele>
        <time>2011-05-08T11:40:34.000Z</time>
      </trkpt>
      <trkpt lat="43.85846" lon="6.96285">
        <ele>636</ele>
        <time>2011-05-08T11:40:38.000Z</time>
      </trkpt>
      <trkpt lat="43.85848" lon="6.96286">
        <ele>635.20001220703</ele>
        <time>2011-05-08T11:40:39.000Z</time>
      </trkpt>
      <trkpt lat="43.85855" lon="6.96295">
        <ele>633.59997558594</ele>
        <time>2011-05-08T11:40:43.000Z</time>
      </trkpt>
      <trkpt lat="43.85858" lon="6.96303">
        <ele>632.79998779297</ele>
        <time>2011-05-08T11:40:47.000Z</time>
      </trkpt>
      <trkpt lat="43.85859" lon="6.96302">
        <ele>632.40002441406</ele>
        <time>2011-05-08T11:40:48.000Z</time>
      </trkpt>
      <trkpt lat="43.85865" lon="6.96298">
        <ele>629</ele>
        <time>2011-05-08T11:40:52.000Z</time>
      </trkpt>
      <trkpt lat="43.85873" lon="6.96293">
        <ele>625.20001220703</ele>
        <time>2011-05-08T11:40:57.000Z</time>
      </trkpt>
      <trkpt lat="43.85874" lon="6.96295">
        <ele>625</ele>
        <time>2011-05-08T11:40:58.000Z</time>
      </trkpt>
      <trkpt lat="43.85874" lon="6.96303">
        <ele>625.59997558594</ele>
        <time>2011-05-08T11:41:01.000Z</time>
      </trkpt>
      <trkpt lat="43.85869" lon="6.96314">
        <ele>628.59997558594</ele>
        <time>2011-05-08T11:41:05.000Z</time>
      </trkpt>
      <trkpt lat="43.85869" lon="6.96317">
        <ele>629</ele>
        <time>2011-05-08T11:41:06.000Z</time>
      </trkpt>
      <trkpt lat="43.85871" lon="6.96322">
        <ele>628.40002441406</ele>
        <time>2011-05-08T11:41:09.000Z</time>
      </trkpt>
      <trkpt lat="43.85877" lon="6.96317">
        <ele>624.79998779297</ele>
        <time>2011-05-08T11:41:13.000Z</time>
      </trkpt>
      <trkpt lat="43.8588" lon="6.96321">
        <ele>623.40002441406</ele>
        <time>2011-05-08T11:41:16.000Z</time>
      </trkpt>
      <trkpt lat="43.8588" lon="6.96322">
        <ele>623.59997558594</ele>
        <time>2011-05-08T11:41:17.000Z</time>
      </trkpt>
      <trkpt lat="43.85879" lon="6.96322">
        <ele>624.40002441406</ele>
        <time>2011-05-08T11:41:19.000Z</time>
      </trkpt>
      <trkpt lat="43.85878" lon="6.96324">
        <ele>625</ele>
        <time>2011-05-08T11:41:20.000Z</time>
      </trkpt>
      <trkpt lat="43.85877" lon="6.96326">
        <ele>625.20001220703</ele>
        <time>2011-05-08T11:41:21.000Z</time>
      </trkpt>
      <trkpt lat="43.8588" lon="6.96336">
        <ele>623.40002441406</ele>
        <time>2011-05-08T11:41:25.000Z</time>
      </trkpt>
      <trkpt lat="43.85881" lon="6.96339">
        <ele>622.40002441406</ele>
        <time>2011-05-08T11:41:26.000Z</time>
      </trkpt>
      <trkpt lat="43.85882" lon="6.96343">
        <ele>621.40002441406</ele>
        <time>2011-05-08T11:41:27.000Z</time>
      </trkpt>
      <trkpt lat="43.85883" lon="6.96353">
        <ele>618.79998779297</ele>
        <time>2011-05-08T11:41:30.000Z</time>
      </trkpt>
      <trkpt lat="43.85883" lon="6.9637">
        <ele>615.40002441406</ele>
        <time>2011-05-08T11:41:35.000Z</time>
      </trkpt>
      <trkpt lat="43.85883" lon="6.96373">
        <ele>614.79998779297</ele>
        <time>2011-05-08T11:41:36.000Z</time>
      </trkpt>
      <trkpt lat="43.85882" lon="6.96385">
        <ele>613</ele>
        <time>2011-05-08T11:41:40.000Z</time>
      </trkpt>
      <trkpt lat="43.85879" lon="6.96392">
        <ele>613.20001220703</ele>
        <time>2011-05-08T11:41:42.000Z</time>
      </trkpt>
      <trkpt lat="43.85878" lon="6.96395">
        <ele>613.20001220703</ele>
        <time>2011-05-08T11:41:43.000Z</time>
      </trkpt>
      <trkpt lat="43.85873" lon="6.96405">
        <ele>613.59997558594</ele>
        <time>2011-05-08T11:41:47.000Z</time>
      </trkpt>
      <trkpt lat="43.85871" lon="6.96417">
        <ele>612.20001220703</ele>
        <time>2011-05-08T11:41:51.000Z</time>
      </trkpt>
      <trkpt lat="43.85871" lon="6.9642">
        <ele>612</ele>
        <time>2011-05-08T11:41:52.000Z</time>
      </trkpt>
      <trkpt lat="43.85869" lon="6.96422">
        <ele>612</ele>
        <time>2011-05-08T11:41:55.000Z</time>
      </trkpt>
      <trkpt lat="43.8587" lon="6.96424">
        <ele>611.59997558594</ele>
        <time>2011-05-08T11:41:56.000Z</time>
      </trkpt>
      <trkpt lat="43.85873" lon="6.96431">
        <ele>608.59997558594</ele>
        <time>2011-05-08T11:41:59.000Z</time>
      </trkpt>
      <trkpt lat="43.85874" lon="6.9644">
        <ele>606.20001220703</ele>
        <time>2011-05-08T11:42:03.000Z</time>
      </trkpt>
      <trkpt lat="43.85875" lon="6.96441">
        <ele>605.20001220703</ele>
        <time>2011-05-08T11:42:08.000Z</time>
      </trkpt>
      <trkpt lat="43.85876" lon="6.96444">
        <ele>604.20001220703</ele>
        <time>2011-05-08T11:42:10.000Z</time>
      </trkpt>
      <trkpt lat="43.85882" lon="6.96443">
        <ele>601.79998779297</ele>
        <time>2011-05-08T11:42:14.000Z</time>
      </trkpt>
      <trkpt lat="43.85884" lon="6.96444">
        <ele>600.40002441406</ele>
        <time>2011-05-08T11:42:27.000Z</time>
      </trkpt>
      <trkpt lat="43.85883" lon="6.96449">
        <ele>599.79998779297</ele>
        <time>2011-05-08T11:42:32.000Z</time>
      </trkpt>
      <trkpt lat="43.85882" lon="6.9645">
        <ele>600.40002441406</ele>
        <time>2011-05-08T11:42:33.000Z</time>
      </trkpt>
      <trkpt lat="43.85879" lon="6.96454">
        <ele>601.20001220703</ele>
        <time>2011-05-08T11:42:36.000Z</time>
      </trkpt>
      <trkpt lat="43.85879" lon="6.96456">
        <ele>600.79998779297</ele>
        <time>2011-05-08T11:42:38.000Z</time>
      </trkpt>
      <trkpt lat="43.85879" lon="6.96457">
        <ele>600.40002441406</ele>
        <time>2011-05-08T11:42:39.000Z</time>
      </trkpt>
      <trkpt lat="43.85885" lon="6.96458">
        <ele>597.59997558594</ele>
        <time>2011-05-08T11:42:43.000Z</time>
      </trkpt>
      <trkpt lat="43.85887" lon="6.96457">
        <ele>596.59997558594</ele>
        <time>2011-05-08T11:42:44.000Z</time>
      </trkpt>
      <trkpt lat="43.85889" lon="6.96459">
        <ele>595.59997558594</ele>
        <time>2011-05-08T11:42:46.000Z</time>
      </trkpt>
      <trkpt lat="43.85888" lon="6.9646">
        <ele>595.59997558594</ele>
        <time>2011-05-08T11:42:47.000Z</time>
      </trkpt>
      <trkpt lat="43.85888" lon="6.96461">
        <ele>595.40002441406</ele>
        <time>2011-05-08T11:42:48.000Z</time>
      </trkpt>
      <trkpt lat="43.85889" lon="6.96464">
        <ele>594.59997558594</ele>
        <time>2011-05-08T11:42:52.000Z</time>
      </trkpt>
      <trkpt lat="43.85892" lon="6.9647">
        <ele>592</ele>
        <time>2011-05-08T11:42:57.000Z</time>
      </trkpt>
      <trkpt lat="43.85894" lon="6.96471">
        <ele>591</ele>
        <time>2011-05-08T11:42:59.000Z</time>
      </trkpt>
      <trkpt lat="43.85895" lon="6.96471">
        <ele>590.40002441406</ele>
        <time>2011-05-08T11:43:00.000Z</time>
      </trkpt>
      <trkpt lat="43.85898" lon="6.96471">
        <ele>589.20001220703</ele>
        <time>2011-05-08T11:43:03.000Z</time>
      </trkpt>
      <trkpt lat="43.859" lon="6.9647">
        <ele>588.59997558594</ele>
        <time>2011-05-08T11:43:05.000Z</time>
      </trkpt>
      <trkpt lat="43.85901" lon="6.96471">
        <ele>587.79998779297</ele>
        <time>2011-05-08T11:43:06.000Z</time>
      </trkpt>
      <trkpt lat="43.85904" lon="6.96474">
        <ele>586.40002441406</ele>
        <time>2011-05-08T11:43:09.000Z</time>
      </trkpt>
      <trkpt lat="43.85904" lon="6.96476">
        <ele>586</ele>
        <time>2011-05-08T11:43:11.000Z</time>
      </trkpt>
      <trkpt lat="43.85901" lon="6.96479">
        <ele>586.40002441406</ele>
        <time>2011-05-08T11:43:14.000Z</time>
      </trkpt>
      <trkpt lat="43.85901" lon="6.9648">
        <ele>586.40002441406</ele>
        <time>2011-05-08T11:43:15.000Z</time>
      </trkpt>
      <trkpt lat="43.859" lon="6.96483">
        <ele>586.40002441406</ele>
        <time>2011-05-08T11:43:17.000Z</time>
      </trkpt>
      <trkpt lat="43.85899" lon="6.96487">
        <ele>586</ele>
        <time>2011-05-08T11:43:20.000Z</time>
      </trkpt>
      <trkpt lat="43.85898" lon="6.96492">
        <ele>585.79998779297</ele>
        <time>2011-05-08T11:43:23.000Z</time>
      </trkpt>
      <trkpt lat="43.85897" lon="6.96493">
        <ele>586</ele>
        <time>2011-05-08T11:43:24.000Z</time>
      </trkpt>
      <trkpt lat="43.85895" lon="6.96494">
        <ele>586.59997558594</ele>
        <time>2011-05-08T11:43:27.000Z</time>
      </trkpt>
      <trkpt lat="43.85893" lon="6.96494">
        <ele>587.20001220703</ele>
        <time>2011-05-08T11:43:30.000Z</time>
      </trkpt>
      <trkpt lat="43.85889" lon="6.96497">
        <ele>588.40002441406</ele>
        <time>2011-05-08T11:43:33.000Z</time>
      </trkpt>
      <trkpt lat="43.85884" lon="6.96501">
        <ele>589.59997558594</ele>
        <time>2011-05-08T11:43:39.000Z</time>
      </trkpt>
      <trkpt lat="43.8588" lon="6.96504">
        <ele>591.20001220703</ele>
        <time>2011-05-08T11:43:44.000Z</time>
      </trkpt>
      <trkpt lat="43.8588" lon="6.96505">
        <ele>591.20001220703</ele>
        <time>2011-05-08T11:43:45.000Z</time>
      </trkpt>
      <trkpt lat="43.8588" lon="6.9651">
        <ele>591.20001220703</ele>
        <time>2011-05-08T11:43:48.000Z</time>
      </trkpt>
      <trkpt lat="43.85878" lon="6.96523">
        <ele>591.40002441406</ele>
        <time>2011-05-08T11:43:57.000Z</time>
      </trkpt>
      <trkpt lat="43.85876" lon="6.96528">
        <ele>592</ele>
        <time>2011-05-08T11:44:00.000Z</time>
      </trkpt>
      <trkpt lat="43.85876" lon="6.9653">
        <ele>592</ele>
        <time>2011-05-08T11:44:03.000Z</time>
      </trkpt>
      <trkpt lat="43.85875" lon="6.96535">
        <ele>592.20001220703</ele>
        <time>2011-05-08T11:44:11.000Z</time>
      </trkpt>
      <trkpt lat="43.85895" lon="6.96532">
        <ele>585.20001220703</ele>
        <time>2011-05-08T11:44:31.000Z</time>
      </trkpt>
      <trkpt lat="43.85902" lon="6.96532">
        <ele>583</ele>
        <time>2011-05-08T11:44:34.000Z</time>
      </trkpt>
      <trkpt lat="43.85906" lon="6.96529">
        <ele>581.20001220703</ele>
        <time>2011-05-08T11:44:36.000Z</time>
      </trkpt>
      <trkpt lat="43.85909" lon="6.96525">
        <ele>580.20001220703</ele>
        <time>2011-05-08T11:44:38.000Z</time>
      </trkpt>
      <trkpt lat="43.85919" lon="6.96517">
        <ele>577.20001220703</ele>
        <time>2011-05-08T11:44:42.000Z</time>
      </trkpt>
      <trkpt lat="43.85921" lon="6.96515">
        <ele>576.79998779297</ele>
        <time>2011-05-08T11:44:43.000Z</time>
      </trkpt>
      <trkpt lat="43.85924" lon="6.96513">
        <ele>576.59997558594</ele>
        <time>2011-05-08T11:44:44.000Z</time>
      </trkpt>
      <trkpt lat="43.85934" lon="6.96504">
        <ele>574.79998779297</ele>
        <time>2011-05-08T11:44:48.000Z</time>
      </trkpt>
      <trkpt lat="43.85937" lon="6.965">
        <ele>574.20001220703</ele>
        <time>2011-05-08T11:44:49.000Z</time>
      </trkpt>
      <trkpt lat="43.85939" lon="6.96486">
        <ele>574.59997558594</ele>
        <time>2011-05-08T11:44:52.000Z</time>
      </trkpt>
      <trkpt lat="43.85944" lon="6.96471">
        <ele>574.59997558594</ele>
        <time>2011-05-08T11:44:56.000Z</time>
      </trkpt>
      <trkpt lat="43.85945" lon="6.96468">
        <ele>574.40002441406</ele>
        <time>2011-05-08T11:44:57.000Z</time>
      </trkpt>
      <trkpt lat="43.85947" lon="6.96466">
        <ele>574</ele>
        <time>2011-05-08T11:44:58.000Z</time>
      </trkpt>
      <trkpt lat="43.85955" lon="6.96463">
        <ele>572</ele>
        <time>2011-05-08T11:45:01.000Z</time>
      </trkpt>
      <trkpt lat="43.85957" lon="6.96463">
        <ele>571.40002441406</ele>
        <time>2011-05-08T11:45:02.000Z</time>
      </trkpt>
      <trkpt lat="43.8596" lon="6.96462">
        <ele>570.40002441406</ele>
        <time>2011-05-08T11:45:04.000Z</time>
      </trkpt>
      <trkpt lat="43.85957" lon="6.96464">
        <ele>571.40002441406</ele>
        <time>2011-05-08T11:45:06.000Z</time>
      </trkpt>
      <trkpt lat="43.85954" lon="6.96468">
        <ele>572</ele>
        <time>2011-05-08T11:45:09.000Z</time>
      </trkpt>
      <trkpt lat="43.85952" lon="6.96472">
        <ele>572.59997558594</ele>
        <time>2011-05-08T11:45:12.000Z</time>
      </trkpt>
      <trkpt lat="43.8595" lon="6.96491">
        <ele>572.59997558594</ele>
        <time>2011-05-08T11:45:16.000Z</time>
      </trkpt>
      <trkpt lat="43.85943" lon="6.96516">
        <ele>575.40002441406</ele>
        <time>2011-05-08T11:45:21.000Z</time>
      </trkpt>
      <trkpt lat="43.85943" lon="6.9652">
        <ele>575.79998779297</ele>
        <time>2011-05-08T11:45:22.000Z</time>
      </trkpt>
      <trkpt lat="43.85945" lon="6.96528">
        <ele>576.59997558594</ele>
        <time>2011-05-08T11:45:24.000Z</time>
      </trkpt>
      <trkpt lat="43.85952" lon="6.9654">
        <ele>578.40002441406</ele>
        <time>2011-05-08T11:45:27.000Z</time>
      </trkpt>
      <trkpt lat="43.85953" lon="6.96545">
        <ele>579</ele>
        <time>2011-05-08T11:45:28.000Z</time>
      </trkpt>
      <trkpt lat="43.85951" lon="6.96553">
        <ele>580.20001220703</ele>
        <time>2011-05-08T11:45:30.000Z</time>
      </trkpt>
      <trkpt lat="43.85949" lon="6.96558">
        <ele>580.79998779297</ele>
        <time>2011-05-08T11:45:32.000Z</time>
      </trkpt>
      <trkpt lat="43.85946" lon="6.9655">
        <ele>579.59997558594</ele>
        <time>2011-05-08T11:46:07.000Z</time>
      </trkpt>
      <trkpt lat="43.85945" lon="6.9655">
        <ele>579.40002441406</ele>
        <time>2011-05-08T11:46:10.000Z</time>
      </trkpt>
      <trkpt lat="43.85954" lon="6.96557">
        <ele>581</ele>
        <time>2011-05-08T11:46:41.000Z</time>
      </trkpt>
      <trkpt lat="43.85949" lon="6.96551">
        <ele>579.79998779297</ele>
        <time>2011-05-08T11:46:58.000Z</time>
      </trkpt>
      <trkpt lat="43.85952" lon="6.96556">
        <ele>580.79998779297</ele>
        <time>2011-05-08T11:48:15.000Z</time>
      </trkpt>
      <trkpt lat="43.85975" lon="6.96559">
        <ele>583</ele>
        <time>2011-05-08T11:48:28.000Z</time>
      </trkpt>
      <trkpt lat="43.85977" lon="6.9656">
        <ele>583.59997558594</ele>
        <time>2011-05-08T11:48:29.000Z</time>
      </trkpt>
      <trkpt lat="43.85981" lon="6.96563">
        <ele>584.40002441406</ele>
        <time>2011-05-08T11:48:31.000Z</time>
      </trkpt>
      <trkpt lat="43.85944" lon="6.9655">
        <ele>579.40002441406</ele>
        <time>2011-05-08T11:49:10.000Z</time>
      </trkpt>
      <trkpt lat="43.8596" lon="6.96547">
        <ele>579.59997558594</ele>
        <time>2011-05-08T11:49:13.000Z</time>
      </trkpt>
      <trkpt lat="43.85953" lon="6.96545">
        <ele>579</ele>
        <time>2011-05-08T11:49:18.000Z</time>
      </trkpt>
      <trkpt lat="43.85942" lon="6.96547">
        <ele>579</ele>
        <time>2011-05-08T11:49:35.000Z</time>
      </trkpt>
      <trkpt lat="43.8594" lon="6.96546">
        <ele>578.79998779297</ele>
        <time>2011-05-08T11:49:36.000Z</time>
      </trkpt>
      <trkpt lat="43.85935" lon="6.96543">
        <ele>578.40002441406</ele>
        <time>2011-05-08T11:49:41.000Z</time>
      </trkpt>
      <trkpt lat="43.85945" lon="6.96547">
        <ele>579</ele>
        <time>2011-05-08T11:50:49.000Z</time>
      </trkpt>
      <trkpt lat="43.8596" lon="6.9655">
        <ele>580.20001220703</ele>
        <time>2011-05-08T11:51:27.000Z</time>
      </trkpt>
      <trkpt lat="43.85962" lon="6.96552">
        <ele>580.79998779297</ele>
        <time>2011-05-08T11:51:31.000Z</time>
      </trkpt>
      <trkpt lat="43.8596" lon="6.9655">
        <ele>580.20001220703</ele>
        <time>2011-05-08T11:52:25.000Z</time>
      </trkpt>
      <trkpt lat="43.85955" lon="6.96553">
        <ele>580.40002441406</ele>
        <time>2011-05-08T11:52:29.000Z</time>
      </trkpt>
      <trkpt lat="43.85958" lon="6.96549">
        <ele>580</ele>
        <time>2011-05-08T11:52:51.000Z</time>
      </trkpt>
      <trkpt lat="43.85964" lon="6.96547">
        <ele>579.79998779297</ele>
        <time>2011-05-08T11:52:55.000Z</time>
      </trkpt>
      <trkpt lat="43.85956" lon="6.96541">
        <ele>578.40002441406</ele>
        <time>2011-05-08T11:53:23.000Z</time>
      </trkpt>
      <trkpt lat="43.85956" lon="6.96555">
        <ele>580.79998779297</ele>
        <time>2011-05-08T11:54:14.000Z</time>
      </trkpt>
      <trkpt lat="43.8596" lon="6.96559">
        <ele>581.59997558594</ele>
        <time>2011-05-08T11:54:50.000Z</time>
      </trkpt>
      <trkpt lat="43.85959" lon="6.96555">
        <ele>581</ele>
        <time>2011-05-08T11:55:03.000Z</time>
      </trkpt>
      <trkpt lat="43.85941" lon="6.96541">
        <ele>578.20001220703</ele>
        <time>2011-05-08T11:55:39.000Z</time>
      </trkpt>
      <trkpt lat="43.85933" lon="6.96532">
        <ele>577.40002441406</ele>
        <time>2011-05-08T11:55:42.000Z</time>
      </trkpt>
      <trkpt lat="43.85933" lon="6.96532">
        <ele>577.40002441406</ele>
        <time>2011-05-08T11:55:43.000Z</time>
      </trkpt>
      <trkpt lat="43.85937" lon="6.96535">
        <ele>577.59997558594</ele>
        <time>2011-05-08T11:55:49.000Z</time>
      </trkpt>
      <trkpt lat="43.85937" lon="6.96536">
        <ele>577.59997558594</ele>
        <time>2011-05-08T11:56:30.000Z</time>
      </trkpt>
      <trkpt lat="43.85936" lon="6.9654">
        <ele>578</ele>
        <time>2011-05-08T11:56:38.000Z</time>
      </trkpt>
      <trkpt lat="43.8595" lon="6.96551">
        <ele>579.79998779297</ele>
        <time>2011-05-08T11:56:58.000Z</time>
      </trkpt>
      <trkpt lat="43.85949" lon="6.96549">
        <ele>579.59997558594</ele>
        <time>2011-05-08T11:57:02.000Z</time>
      </trkpt>
      <trkpt lat="43.85945" lon="6.96546">
        <ele>579</ele>
        <time>2011-05-08T11:57:04.000Z</time>
      </trkpt>
      <trkpt lat="43.85944" lon="6.96545">
        <ele>578.79998779297</ele>
        <time>2011-05-08T11:57:06.000Z</time>
      </trkpt>
      <trkpt lat="43.85944" lon="6.96554">
        <ele>580</ele>
        <time>2011-05-08T11:57:20.000Z</time>
      </trkpt>
      <trkpt lat="43.85955" lon="6.96548">
        <ele>579.59997558594</ele>
        <time>2011-05-08T11:58:10.000Z</time>
      </trkpt>
      <trkpt lat="43.85957" lon="6.96546">
        <ele>579.20001220703</ele>
        <time>2011-05-08T11:58:11.000Z</time>
      </trkpt>
      <trkpt lat="43.85964" lon="6.96527">
        <ele>575.79998779297</ele>
        <time>2011-05-08T11:58:16.000Z</time>
      </trkpt>
      <trkpt lat="43.85966" lon="6.96522">
        <ele>574.79998779297</ele>
        <time>2011-05-08T11:58:17.000Z</time>
      </trkpt>
      <trkpt lat="43.85974" lon="6.96514">
        <ele>572.59997558594</ele>
        <time>2011-05-08T11:58:20.000Z</time>
      </trkpt>
      <trkpt lat="43.85984" lon="6.96507">
        <ele>570</ele>
        <time>2011-05-08T11:58:23.000Z</time>
      </trkpt>
      <trkpt lat="43.85994" lon="6.96502">
        <ele>567.40002441406</ele>
        <time>2011-05-08T11:58:25.000Z</time>
      </trkpt>
      <trkpt lat="43.86" lon="6.96495">
        <ele>565</ele>
        <time>2011-05-08T11:58:27.000Z</time>
      </trkpt>
      <trkpt lat="43.86002" lon="6.9649">
        <ele>564.59997558594</ele>
        <time>2011-05-08T11:58:28.000Z</time>
      </trkpt>
      <trkpt lat="43.86005" lon="6.96474">
        <ele>562.59997558594</ele>
        <time>2011-05-08T11:58:31.000Z</time>
      </trkpt>
      <trkpt lat="43.86007" lon="6.96464">
        <ele>561.40002441406</ele>
        <time>2011-05-08T11:58:33.000Z</time>
      </trkpt>
      <trkpt lat="43.86008" lon="6.96459">
        <ele>560.59997558594</ele>
        <time>2011-05-08T11:58:34.000Z</time>
      </trkpt>
      <trkpt lat="43.86008" lon="6.96448">
        <ele>558.40002441406</ele>
        <time>2011-05-08T11:58:36.000Z</time>
      </trkpt>
      <trkpt lat="43.86011" lon="6.96438">
        <ele>557.20001220703</ele>
        <time>2011-05-08T11:58:38.000Z</time>
      </trkpt>
      <trkpt lat="43.86014" lon="6.96433">
        <ele>556.59997558594</ele>
        <time>2011-05-08T11:58:39.000Z</time>
      </trkpt>
      <trkpt lat="43.86027" lon="6.96415">
        <ele>554.59997558594</ele>
        <time>2011-05-08T11:58:43.000Z</time>
      </trkpt>
      <trkpt lat="43.86029" lon="6.96411">
        <ele>554.59997558594</ele>
        <time>2011-05-08T11:58:44.000Z</time>
      </trkpt>
      <trkpt lat="43.86032" lon="6.96407">
        <ele>554.59997558594</ele>
        <time>2011-05-08T11:58:45.000Z</time>
      </trkpt>
      <trkpt lat="43.86037" lon="6.96395">
        <ele>553.79998779297</ele>
        <time>2011-05-08T11:58:47.000Z</time>
      </trkpt>
      <trkpt lat="43.8604" lon="6.96391">
        <ele>553.40002441406</ele>
        <time>2011-05-08T11:58:48.000Z</time>
      </trkpt>
      <trkpt lat="43.86044" lon="6.96389">
        <ele>553</ele>
        <time>2011-05-08T11:58:49.000Z</time>
      </trkpt>
      <trkpt lat="43.86055" lon="6.9638">
        <ele>551.59997558594</ele>
        <time>2011-05-08T11:58:52.000Z</time>
      </trkpt>
      <trkpt lat="43.86064" lon="6.96374">
        <ele>550</ele>
        <time>2011-05-08T11:58:54.000Z</time>
      </trkpt>
      <trkpt lat="43.86074" lon="6.96371">
        <ele>549</ele>
        <time>2011-05-08T11:58:56.000Z</time>
      </trkpt>
      <trkpt lat="43.86082" lon="6.96369">
        <ele>547.79998779297</ele>
        <time>2011-05-08T11:58:58.000Z</time>
      </trkpt>
      <trkpt lat="43.86084" lon="6.96362">
        <ele>545.79998779297</ele>
        <time>2011-05-08T11:59:01.000Z</time>
      </trkpt>
      <trkpt lat="43.86083" lon="6.96361">
        <ele>545.59997558594</ele>
        <time>2011-05-08T11:59:04.000Z</time>
      </trkpt>
      <trkpt lat="43.86081" lon="6.96355">
        <ele>544.20001220703</ele>
        <time>2011-05-08T11:59:09.000Z</time>
      </trkpt>
      <trkpt lat="43.86083" lon="6.96353">
        <ele>543.59997558594</ele>
        <time>2011-05-08T11:59:11.000Z</time>
      </trkpt>
      <trkpt lat="43.86087" lon="6.96351">
        <ele>542.79998779297</ele>
        <time>2011-05-08T11:59:16.000Z</time>
      </trkpt>
      <trkpt lat="43.86088" lon="6.96352">
        <ele>543</ele>
        <time>2011-05-08T11:59:19.000Z</time>
      </trkpt>
      <trkpt lat="43.86088" lon="6.96352">
        <ele>543.20001220703</ele>
        <time>2011-05-08T11:59:23.000Z</time>
      </trkpt>
      <trkpt lat="43.86085" lon="6.96348">
        <ele>542</ele>
        <time>2011-05-08T11:59:30.000Z</time>
      </trkpt>
      <trkpt lat="43.86086" lon="6.96343">
        <ele>540.59997558594</ele>
        <time>2011-05-08T11:59:33.000Z</time>
      </trkpt>
      <trkpt lat="43.86091" lon="6.96335">
        <ele>538.79998779297</ele>
        <time>2011-05-08T11:59:37.000Z</time>
      </trkpt>
      <trkpt lat="43.86092" lon="6.96331">
        <ele>537.79998779297</ele>
        <time>2011-05-08T11:59:38.000Z</time>
      </trkpt>
      <trkpt lat="43.86097" lon="6.96313">
        <ele>534</ele>
        <time>2011-05-08T11:59:42.000Z</time>
      </trkpt>
      <trkpt lat="43.86103" lon="6.96303">
        <ele>531.59997558594</ele>
        <time>2011-05-08T11:59:44.000Z</time>
      </trkpt>
      <trkpt lat="43.86107" lon="6.96293">
        <ele>529</ele>
        <time>2011-05-08T11:59:46.000Z</time>
      </trkpt>
      <trkpt lat="43.86112" lon="6.96275">
        <ele>524.40002441406</ele>
        <time>2011-05-08T11:59:49.000Z</time>
      </trkpt>
      <trkpt lat="43.86114" lon="6.96265">
        <ele>521.40002441406</ele>
        <time>2011-05-08T11:59:51.000Z</time>
      </trkpt>
      <trkpt lat="43.86115" lon="6.96248">
        <ele>516.59997558594</ele>
        <time>2011-05-08T11:59:54.000Z</time>
      </trkpt>
      <trkpt lat="43.86116" lon="6.96237">
        <ele>512.59997558594</ele>
        <time>2011-05-08T11:59:56.000Z</time>
      </trkpt>
      <trkpt lat="43.86117" lon="6.96227">
        <ele>508.79998779297</ele>
        <time>2011-05-08T11:59:58.000Z</time>
      </trkpt>
      <trkpt lat="43.86119" lon="6.96217">
        <ele>505</ele>
        <time>2011-05-08T12:00:00.000Z</time>
      </trkpt>
      <trkpt lat="43.86124" lon="6.96212">
        <ele>502.39999389648</ele>
        <time>2011-05-08T12:00:02.000Z</time>
      </trkpt>
      <trkpt lat="43.86127" lon="6.96213">
        <ele>502</ele>
        <time>2011-05-08T12:00:03.000Z</time>
      </trkpt>
      <trkpt lat="43.8614" lon="6.96225">
        <ele>504</ele>
        <time>2011-05-08T12:00:07.000Z</time>
      </trkpt>
      <trkpt lat="43.86146" lon="6.96232">
        <ele>505.39999389648</ele>
        <time>2011-05-08T12:00:09.000Z</time>
      </trkpt>
      <trkpt lat="43.86155" lon="6.96244">
        <ele>508.79998779297</ele>
        <time>2011-05-08T12:00:12.000Z</time>
      </trkpt>
      <trkpt lat="43.86159" lon="6.96247">
        <ele>509.79998779297</ele>
        <time>2011-05-08T12:00:13.000Z</time>
      </trkpt>
      <trkpt lat="43.86222" lon="6.96302">
        <ele>500</ele>
        <time>2011-05-08T12:00:53.000Z</time>
      </trkpt>
      <trkpt lat="43.86227" lon="6.96307">
        <ele>498.79998779297</ele>
        <time>2011-05-08T12:00:55.000Z</time>
      </trkpt>
      <trkpt lat="43.86231" lon="6.9631">
        <ele>498.20001220703</ele>
        <time>2011-05-08T12:00:56.000Z</time>
      </trkpt>
      <trkpt lat="43.8624" lon="6.96317">
        <ele>495.20001220703</ele>
        <time>2011-05-08T12:00:58.000Z</time>
      </trkpt>
      <trkpt lat="43.86252" lon="6.96327">
        <ele>492</ele>
        <time>2011-05-08T12:01:00.000Z</time>
      </trkpt>
      <trkpt lat="43.86253" lon="6.96341">
        <ele>493.60000610352</ele>
        <time>2011-05-08T12:01:02.000Z</time>
      </trkpt>
      <trkpt lat="43.86253" lon="6.96348">
        <ele>494.39999389648</ele>
        <time>2011-05-08T12:01:03.000Z</time>
      </trkpt>
      <trkpt lat="43.86253" lon="6.96355">
        <ele>494.60000610352</ele>
        <time>2011-05-08T12:01:04.000Z</time>
      </trkpt>
      <trkpt lat="43.86257" lon="6.96386">
        <ele>495</ele>
        <time>2011-05-08T12:01:08.000Z</time>
      </trkpt>
      <trkpt lat="43.86258" lon="6.96402">
        <ele>496.39999389648</ele>
        <time>2011-05-08T12:01:10.000Z</time>
      </trkpt>
      <trkpt lat="43.86259" lon="6.96418">
        <ele>497</ele>
        <time>2011-05-08T12:01:12.000Z</time>
      </trkpt>
      <trkpt lat="43.86262" lon="6.96449">
        <ele>495.20001220703</ele>
        <time>2011-05-08T12:01:16.000Z</time>
      </trkpt>
      <trkpt lat="43.86269" lon="6.96482">
        <ele>492</ele>
        <time>2011-05-08T12:01:20.000Z</time>
      </trkpt>
      <trkpt lat="43.86273" lon="6.96498">
        <ele>490.39999389648</ele>
        <time>2011-05-08T12:01:22.000Z</time>
      </trkpt>
      <trkpt lat="43.86277" lon="6.96511">
        <ele>488.79998779297</ele>
        <time>2011-05-08T12:01:24.000Z</time>
      </trkpt>
      <trkpt lat="43.86281" lon="6.96517">
        <ele>487</ele>
        <time>2011-05-08T12:01:26.000Z</time>
      </trkpt>
      <trkpt lat="43.86281" lon="6.96516">
        <ele>486.79998779297</ele>
        <time>2011-05-08T12:01:27.000Z</time>
      </trkpt>
      <trkpt lat="43.86284" lon="6.96502">
        <ele>485</ele>
        <time>2011-05-08T12:01:30.000Z</time>
      </trkpt>
      <trkpt lat="43.86288" lon="6.96486">
        <ele>482.39999389648</ele>
        <time>2011-05-08T12:01:34.000Z</time>
      </trkpt>
      <trkpt lat="43.86287" lon="6.96485">
        <ele>482.60000610352</ele>
        <time>2011-05-08T12:01:36.000Z</time>
      </trkpt>
      <trkpt lat="43.86288" lon="6.96483">
        <ele>482.39999389648</ele>
        <time>2011-05-08T12:01:39.000Z</time>
      </trkpt>
      <trkpt lat="43.86288" lon="6.96482">
        <ele>482.39999389648</ele>
        <time>2011-05-08T12:01:40.000Z</time>
      </trkpt>
      <trkpt lat="43.86288" lon="6.96477">
        <ele>482.39999389648</ele>
        <time>2011-05-08T12:01:44.000Z</time>
      </trkpt>
      <trkpt lat="43.8629" lon="6.96474">
        <ele>481</ele>
        <time>2011-05-08T12:01:46.000Z</time>
      </trkpt>
      <trkpt lat="43.86291" lon="6.96471">
        <ele>480.20001220703</ele>
        <time>2011-05-08T12:01:48.000Z</time>
      </trkpt>
      <trkpt lat="43.86292" lon="6.96469">
        <ele>479.79998779297</ele>
        <time>2011-05-08T12:01:50.000Z</time>
      </trkpt>
      <trkpt lat="43.86294" lon="6.96459">
        <ele>478.39999389648</ele>
        <time>2011-05-08T12:01:57.000Z</time>
      </trkpt>
      <trkpt lat="43.86295" lon="6.96458">
        <ele>478</ele>
        <time>2011-05-08T12:01:58.000Z</time>
      </trkpt>
      <trkpt lat="43.86299" lon="6.96449">
        <ele>475.60000610352</ele>
        <time>2011-05-08T12:02:03.000Z</time>
      </trkpt>
      <trkpt lat="43.86302" lon="6.96446">
        <ele>473.79998779297</ele>
        <time>2011-05-08T12:02:08.000Z</time>
      </trkpt>
      <trkpt lat="43.86311" lon="6.96443">
        <ele>468.39999389648</ele>
        <time>2011-05-08T12:02:12.000Z</time>
      </trkpt>
      <trkpt lat="43.86314" lon="6.96438">
        <ele>467</ele>
        <time>2011-05-08T12:02:14.000Z</time>
      </trkpt>
      <trkpt lat="43.86315" lon="6.96429">
        <ele>465.79998779297</ele>
        <time>2011-05-08T12:02:16.000Z</time>
      </trkpt>
      <trkpt lat="43.86319" lon="6.96416">
        <ele>462.79998779297</ele>
        <time>2011-05-08T12:02:20.000Z</time>
      </trkpt>
      <trkpt lat="43.86322" lon="6.96417">
        <ele>461.39999389648</ele>
        <time>2011-05-08T12:02:21.000Z</time>
      </trkpt>
      <trkpt lat="43.86327" lon="6.96426">
        <ele>459.20001220703</ele>
        <time>2011-05-08T12:02:25.000Z</time>
      </trkpt>
      <trkpt lat="43.86332" lon="6.96437">
        <ele>457.20001220703</ele>
        <time>2011-05-08T12:02:29.000Z</time>
      </trkpt>
      <trkpt lat="43.86332" lon="6.96441">
        <ele>457</ele>
        <time>2011-05-08T12:02:30.000Z</time>
      </trkpt>
      <trkpt lat="43.86334" lon="6.96465">
        <ele>457.39999389648</ele>
        <time>2011-05-08T12:02:36.000Z</time>
      </trkpt>
      <trkpt lat="43.86337" lon="6.96492">
        <ele>458</ele>
        <time>2011-05-08T12:02:42.000Z</time>
      </trkpt>
      <trkpt lat="43.86337" lon="6.96496">
        <ele>458.20001220703</ele>
        <time>2011-05-08T12:02:43.000Z</time>
      </trkpt>
      <trkpt lat="43.86332" lon="6.96514">
        <ele>461.20001220703</ele>
        <time>2011-05-08T12:02:48.000Z</time>
      </trkpt>
      <trkpt lat="43.86331" lon="6.96517">
        <ele>462</ele>
        <time>2011-05-08T12:02:49.000Z</time>
      </trkpt>
      <trkpt lat="43.86325" lon="6.96534">
        <ele>466.20001220703</ele>
        <time>2011-05-08T12:02:54.000Z</time>
      </trkpt>
      <trkpt lat="43.86321" lon="6.9654">
        <ele>468.60000610352</ele>
        <time>2011-05-08T12:02:56.000Z</time>
      </trkpt>
      <trkpt lat="43.86314" lon="6.96547">
        <ele>472.39999389648</ele>
        <time>2011-05-08T12:03:00.000Z</time>
      </trkpt>
      <trkpt lat="43.86311" lon="6.96553">
        <ele>474.39999389648</ele>
        <time>2011-05-08T12:03:06.000Z</time>
      </trkpt>
      <trkpt lat="43.86312" lon="6.96559">
        <ele>474.20001220703</ele>
        <time>2011-05-08T12:03:09.000Z</time>
      </trkpt>
      <trkpt lat="43.86314" lon="6.96565">
        <ele>473.20001220703</ele>
        <time>2011-05-08T12:03:11.000Z</time>
      </trkpt>
      <trkpt lat="43.86321" lon="6.96576">
        <ele>470.79998779297</ele>
        <time>2011-05-08T12:03:15.000Z</time>
      </trkpt>
      <trkpt lat="43.86325" lon="6.96581">
        <ele>469</ele>
        <time>2011-05-08T12:03:17.000Z</time>
      </trkpt>
      <trkpt lat="43.86328" lon="6.9659">
        <ele>467.60000610352</ele>
        <time>2011-05-08T12:03:20.000Z</time>
      </trkpt>
      <trkpt lat="43.86328" lon="6.96597">
        <ele>468.20001220703</ele>
        <time>2011-05-08T12:03:23.000Z</time>
      </trkpt>
      <trkpt lat="43.86325" lon="6.96602">
        <ele>470</ele>
        <time>2011-05-08T12:03:25.000Z</time>
      </trkpt>
      <trkpt lat="43.86324" lon="6.96606">
        <ele>470.60000610352</ele>
        <time>2011-05-08T12:03:27.000Z</time>
      </trkpt>
      <trkpt lat="43.86323" lon="6.96608">
        <ele>471</ele>
        <time>2011-05-08T12:03:28.000Z</time>
      </trkpt>
      <trkpt lat="43.86323" lon="6.96613">
        <ele>471</ele>
        <time>2011-05-08T12:03:30.000Z</time>
      </trkpt>
      <trkpt lat="43.86322" lon="6.96616">
        <ele>471.79998779297</ele>
        <time>2011-05-08T12:03:32.000Z</time>
      </trkpt>
      <trkpt lat="43.8632" lon="6.96623">
        <ele>473</ele>
        <time>2011-05-08T12:03:35.000Z</time>
      </trkpt>
      <trkpt lat="43.86317" lon="6.9663">
        <ele>475.20001220703</ele>
        <time>2011-05-08T12:03:37.000Z</time>
      </trkpt>
      <trkpt lat="43.86315" lon="6.96635">
        <ele>476.60000610352</ele>
        <time>2011-05-08T12:03:38.000Z</time>
      </trkpt>
      <trkpt lat="43.86313" lon="6.9664">
        <ele>477.79998779297</ele>
        <time>2011-05-08T12:03:39.000Z</time>
      </trkpt>
      <trkpt lat="43.86306" lon="6.96655">
        <ele>481.79998779297</ele>
        <time>2011-05-08T12:03:42.000Z</time>
      </trkpt>
      <trkpt lat="43.86303" lon="6.96666">
        <ele>484.39999389648</ele>
        <time>2011-05-08T12:03:44.000Z</time>
      </trkpt>
      <trkpt lat="43.86303" lon="6.96671">
        <ele>484.79998779297</ele>
        <time>2011-05-08T12:03:46.000Z</time>
      </trkpt>
      <trkpt lat="43.86307" lon="6.96673">
        <ele>483.20001220703</ele>
        <time>2011-05-08T12:03:47.000Z</time>
      </trkpt>
      <trkpt lat="43.8631" lon="6.96673">
        <ele>481.39999389648</ele>
        <time>2011-05-08T12:03:48.000Z</time>
      </trkpt>
      <trkpt lat="43.86319" lon="6.96678">
        <ele>477.60000610352</ele>
        <time>2011-05-08T12:03:52.000Z</time>
      </trkpt>
      <trkpt lat="43.86321" lon="6.9668">
        <ele>476.79998779297</ele>
        <time>2011-05-08T12:03:56.000Z</time>
      </trkpt>
      <trkpt lat="43.86326" lon="6.96683">
        <ele>474.20001220703</ele>
        <time>2011-05-08T12:04:04.000Z</time>
      </trkpt>
      <trkpt lat="43.86328" lon="6.96685">
        <ele>473.39999389648</ele>
        <time>2011-05-08T12:04:09.000Z</time>
      </trkpt>
      <trkpt lat="43.86328" lon="6.96685">
        <ele>473.20001220703</ele>
        <time>2011-05-08T12:04:11.000Z</time>
      </trkpt>
      <trkpt lat="43.86328" lon="6.96687">
        <ele>474</ele>
        <time>2011-05-08T12:04:13.000Z</time>
      </trkpt>
      <trkpt lat="43.86333" lon="6.96692">
        <ele>472</ele>
        <time>2011-05-08T12:04:16.000Z</time>
      </trkpt>
      <trkpt lat="43.86338" lon="6.96705">
        <ele>471.20001220703</ele>
        <time>2011-05-08T12:04:20.000Z</time>
      </trkpt>
      <trkpt lat="43.86338" lon="6.96711">
        <ele>471.79998779297</ele>
        <time>2011-05-08T12:04:22.000Z</time>
      </trkpt>
      <trkpt lat="43.86342" lon="6.9673">
        <ele>472.20001220703</ele>
        <time>2011-05-08T12:04:28.000Z</time>
      </trkpt>
      <trkpt lat="43.86343" lon="6.96733">
        <ele>472</ele>
        <time>2011-05-08T12:04:29.000Z</time>
      </trkpt>
      <trkpt lat="43.86349" lon="6.96753">
        <ele>471.20001220703</ele>
        <time>2011-05-08T12:04:35.000Z</time>
      </trkpt>
      <trkpt lat="43.8635" lon="6.96765">
        <ele>471.79998779297</ele>
        <time>2011-05-08T12:04:38.000Z</time>
      </trkpt>
      <trkpt lat="43.8635" lon="6.96774">
        <ele>472.60000610352</ele>
        <time>2011-05-08T12:04:40.000Z</time>
      </trkpt>
      <trkpt lat="43.86351" lon="6.96778">
        <ele>472.60000610352</ele>
        <time>2011-05-08T12:04:41.000Z</time>
      </trkpt>
      <trkpt lat="43.86349" lon="6.96792">
        <ele>475</ele>
        <time>2011-05-08T12:04:44.000Z</time>
      </trkpt>
      <trkpt lat="43.86349" lon="6.96803">
        <ele>476</ele>
        <time>2011-05-08T12:04:47.000Z</time>
      </trkpt>
      <trkpt lat="43.86349" lon="6.96812">
        <ele>476.60000610352</ele>
        <time>2011-05-08T12:04:49.000Z</time>
      </trkpt>
      <trkpt lat="43.86352" lon="6.9683">
        <ele>476.79998779297</ele>
        <time>2011-05-08T12:04:53.000Z</time>
      </trkpt>
      <trkpt lat="43.86352" lon="6.96835">
        <ele>477.39999389648</ele>
        <time>2011-05-08T12:04:54.000Z</time>
      </trkpt>
      <trkpt lat="43.86348" lon="6.96855">
        <ele>481.20001220703</ele>
        <time>2011-05-08T12:04:59.000Z</time>
      </trkpt>
      <trkpt lat="43.86348" lon="6.96858">
        <ele>481.60000610352</ele>
        <time>2011-05-08T12:05:00.000Z</time>
      </trkpt>
      <trkpt lat="43.86347" lon="6.9687">
        <ele>482.60000610352</ele>
        <time>2011-05-08T12:05:05.000Z</time>
      </trkpt>
      <trkpt lat="43.86351" lon="6.96877">
        <ele>481.20001220703</ele>
        <time>2011-05-08T12:05:08.000Z</time>
      </trkpt>
      <trkpt lat="43.86353" lon="6.96878">
        <ele>479.79998779297</ele>
        <time>2011-05-08T12:05:09.000Z</time>
      </trkpt>
      <trkpt lat="43.86355" lon="6.96879">
        <ele>478.60000610352</ele>
        <time>2011-05-08T12:05:10.000Z</time>
      </trkpt>
      <trkpt lat="43.8636" lon="6.96888">
        <ele>476</ele>
        <time>2011-05-08T12:05:15.000Z</time>
      </trkpt>
      <trkpt lat="43.86364" lon="6.96893">
        <ele>474.20001220703</ele>
        <time>2011-05-08T12:05:18.000Z</time>
      </trkpt>
      <trkpt lat="43.86366" lon="6.96897">
        <ele>473.20001220703</ele>
        <time>2011-05-08T12:05:20.000Z</time>
      </trkpt>
      <trkpt lat="43.86369" lon="6.96903">
        <ele>472</ele>
        <time>2011-05-08T12:05:24.000Z</time>
      </trkpt>
      <trkpt lat="43.86369" lon="6.96905">
        <ele>471.60000610352</ele>
        <time>2011-05-08T12:05:25.000Z</time>
      </trkpt>
      <trkpt lat="43.86373" lon="6.9691">
        <ele>469.79998779297</ele>
        <time>2011-05-08T12:05:29.000Z</time>
      </trkpt>
      <trkpt lat="43.86371" lon="6.96918">
        <ele>471.39999389648</ele>
        <time>2011-05-08T12:05:32.000Z</time>
      </trkpt>
      <trkpt lat="43.86368" lon="6.96926">
        <ele>473</ele>
        <time>2011-05-08T12:05:35.000Z</time>
      </trkpt>
      <trkpt lat="43.86365" lon="6.9693">
        <ele>474.79998779297</ele>
        <time>2011-05-08T12:05:37.000Z</time>
      </trkpt>
      <trkpt lat="43.86363" lon="6.96935">
        <ele>476</ele>
        <time>2011-05-08T12:05:39.000Z</time>
      </trkpt>
      <trkpt lat="43.86363" lon="6.9694">
        <ele>476.20001220703</ele>
        <time>2011-05-08T12:05:41.000Z</time>
      </trkpt>
      <trkpt lat="43.86363" lon="6.96942">
        <ele>476.20001220703</ele>
        <time>2011-05-08T12:05:42.000Z</time>
      </trkpt>
      <trkpt lat="43.86361" lon="6.96944">
        <ele>477</ele>
        <time>2011-05-08T12:05:43.000Z</time>
      </trkpt>
      <trkpt lat="43.86357" lon="6.96952">
        <ele>479.39999389648</ele>
        <time>2011-05-08T12:05:46.000Z</time>
      </trkpt>
      <trkpt lat="43.86353" lon="6.96964">
        <ele>481.79998779297</ele>
        <time>2011-05-08T12:05:50.000Z</time>
      </trkpt>
      <trkpt lat="43.86351" lon="6.96971">
        <ele>483</ele>
        <time>2011-05-08T12:05:52.000Z</time>
      </trkpt>
      <trkpt lat="43.86349" lon="6.9699">
        <ele>484.39999389648</ele>
        <time>2011-05-08T12:05:58.000Z</time>
      </trkpt>
      <trkpt lat="43.86341" lon="6.97017">
        <ele>490.60000610352</ele>
        <time>2011-05-08T12:06:03.000Z</time>
      </trkpt>
      <trkpt lat="43.86336" lon="6.97039">
        <ele>494.39999389648</ele>
        <time>2011-05-08T12:06:06.000Z</time>
      </trkpt>
      <trkpt lat="43.86333" lon="6.97055">
        <ele>496.20001220703</ele>
        <time>2011-05-08T12:06:08.000Z</time>
      </trkpt>
      <trkpt lat="43.86332" lon="6.97061">
        <ele>497.39999389648</ele>
        <time>2011-05-08T12:06:09.000Z</time>
      </trkpt>
      <trkpt lat="43.8633" lon="6.97071">
        <ele>499.39999389648</ele>
        <time>2011-05-08T12:06:11.000Z</time>
      </trkpt>
      <trkpt lat="43.86329" lon="6.97076">
        <ele>499.79998779297</ele>
        <time>2011-05-08T12:06:12.000Z</time>
      </trkpt>
      <trkpt lat="43.86335" lon="6.97088">
        <ele>497.60000610352</ele>
        <time>2011-05-08T12:06:16.000Z</time>
      </trkpt>
      <trkpt lat="43.86338" lon="6.97089">
        <ele>496.79998779297</ele>
        <time>2011-05-08T12:06:18.000Z</time>
      </trkpt>
      <trkpt lat="43.8634" lon="6.97089">
        <ele>495.60000610352</ele>
        <time>2011-05-08T12:06:20.000Z</time>
      </trkpt>
      <trkpt lat="43.86341" lon="6.9709">
        <ele>495.20001220703</ele>
        <time>2011-05-08T12:06:21.000Z</time>
      </trkpt>
      <trkpt lat="43.86353" lon="6.97092">
        <ele>490.39999389648</ele>
        <time>2011-05-08T12:06:27.000Z</time>
      </trkpt>
      <trkpt lat="43.8636" lon="6.97093">
        <ele>487.20001220703</ele>
        <time>2011-05-08T12:06:30.000Z</time>
      </trkpt>
      <trkpt lat="43.86365" lon="6.97095">
        <ele>486</ele>
        <time>2011-05-08T12:06:33.000Z</time>
      </trkpt>
      <trkpt lat="43.86376" lon="6.971">
        <ele>482</ele>
        <time>2011-05-08T12:06:40.000Z</time>
      </trkpt>
      <trkpt lat="43.86378" lon="6.97101">
        <ele>481.39999389648</ele>
        <time>2011-05-08T12:06:41.000Z</time>
      </trkpt>
      <trkpt lat="43.86382" lon="6.97104">
        <ele>480.79998779297</ele>
        <time>2011-05-08T12:06:47.000Z</time>
      </trkpt>
      <trkpt lat="43.86385" lon="6.97108">
        <ele>480.60000610352</ele>
        <time>2011-05-08T12:06:54.000Z</time>
      </trkpt>
      <trkpt lat="43.86391" lon="6.97113">
        <ele>479</ele>
        <time>2011-05-08T12:07:01.000Z</time>
      </trkpt>
      <trkpt lat="43.86394" lon="6.97115">
        <ele>478.39999389648</ele>
        <time>2011-05-08T12:07:04.000Z</time>
      </trkpt>
      <trkpt lat="43.86398" lon="6.97121">
        <ele>478.20001220703</ele>
        <time>2011-05-08T12:07:10.000Z</time>
      </trkpt>
      <trkpt lat="43.86403" lon="6.97124">
        <ele>476.79998779297</ele>
        <time>2011-05-08T12:07:15.000Z</time>
      </trkpt>
      <trkpt lat="43.86407" lon="6.97132">
        <ele>477.39999389648</ele>
        <time>2011-05-08T12:07:19.000Z</time>
      </trkpt>
      <trkpt lat="43.86407" lon="6.97132">
        <ele>477.39999389648</ele>
        <time>2011-05-08T12:07:20.000Z</time>
      </trkpt>
      <trkpt lat="43.86409" lon="6.97139">
        <ele>478.39999389648</ele>
        <time>2011-05-08T12:07:23.000Z</time>
      </trkpt>
      <trkpt lat="43.86412" lon="6.97145">
        <ele>479</ele>
        <time>2011-05-08T12:07:25.000Z</time>
      </trkpt>
      <trkpt lat="43.86415" lon="6.97154">
        <ele>480.60000610352</ele>
        <time>2011-05-08T12:07:30.000Z</time>
      </trkpt>
      <trkpt lat="43.86418" lon="6.97164">
        <ele>482.39999389648</ele>
        <time>2011-05-08T12:07:34.000Z</time>
      </trkpt>
      <trkpt lat="43.86424" lon="6.97176">
        <ele>482.20001220703</ele>
        <time>2011-05-08T12:07:40.000Z</time>
      </trkpt>
      <trkpt lat="43.86424" lon="6.97178">
        <ele>482.60000610352</ele>
        <time>2011-05-08T12:07:41.000Z</time>
      </trkpt>
      <trkpt lat="43.86431" lon="6.97194">
        <ele>482.60000610352</ele>
        <time>2011-05-08T12:07:48.000Z</time>
      </trkpt>
      <trkpt lat="43.86432" lon="6.97199">
        <ele>483.39999389648</ele>
        <time>2011-05-08T12:07:50.000Z</time>
      </trkpt>
      <trkpt lat="43.86434" lon="6.9721">
        <ele>484.60000610352</ele>
        <time>2011-05-08T12:07:54.000Z</time>
      </trkpt>
      <trkpt lat="43.86436" lon="6.97215">
        <ele>484.60000610352</ele>
        <time>2011-05-08T12:07:56.000Z</time>
      </trkpt>
      <trkpt lat="43.86438" lon="6.97222">
        <ele>485.79998779297</ele>
        <time>2011-05-08T12:07:59.000Z</time>
      </trkpt>
      <trkpt lat="43.86444" lon="6.9724">
        <ele>486.39999389648</ele>
        <time>2011-05-08T12:08:07.000Z</time>
      </trkpt>
      <trkpt lat="43.86446" lon="6.97244">
        <ele>486</ele>
        <time>2011-05-08T12:08:11.000Z</time>
      </trkpt>
      <trkpt lat="43.86448" lon="6.97245">
        <ele>484.79998779297</ele>
        <time>2011-05-08T12:08:13.000Z</time>
      </trkpt>
      <trkpt lat="43.86448" lon="6.9725">
        <ele>486.20001220703</ele>
        <time>2011-05-08T12:08:16.000Z</time>
      </trkpt>
      <trkpt lat="43.86448" lon="6.97256">
        <ele>487.60000610352</ele>
        <time>2011-05-08T12:08:21.000Z</time>
      </trkpt>
      <trkpt lat="43.86449" lon="6.97266">
        <ele>488.60000610352</ele>
        <time>2011-05-08T12:08:25.000Z</time>
      </trkpt>
      <trkpt lat="43.8645" lon="6.97269">
        <ele>488.60000610352</ele>
        <time>2011-05-08T12:08:26.000Z</time>
      </trkpt>
      <trkpt lat="43.86451" lon="6.97272">
        <ele>488.60000610352</ele>
        <time>2011-05-08T12:08:27.000Z</time>
      </trkpt>
      <trkpt lat="43.86458" lon="6.97278">
        <ele>485.79998779297</ele>
        <time>2011-05-08T12:08:31.000Z</time>
      </trkpt>
      <trkpt lat="43.86461" lon="6.97294">
        <ele>487.20001220703</ele>
        <time>2011-05-08T12:08:36.000Z</time>
      </trkpt>
      <trkpt lat="43.86469" lon="6.97315">
        <ele>487.60000610352</ele>
        <time>2011-05-08T12:08:43.000Z</time>
      </trkpt>
      <trkpt lat="43.8647" lon="6.97319">
        <ele>488</ele>
        <time>2011-05-08T12:08:44.000Z</time>
      </trkpt>
      <trkpt lat="43.86476" lon="6.97335">
        <ele>488.39999389648</ele>
        <time>2011-05-08T12:08:49.000Z</time>
      </trkpt>
      <trkpt lat="43.86478" lon="6.97345">
        <ele>489</ele>
        <time>2011-05-08T12:08:51.000Z</time>
      </trkpt>
      <trkpt lat="43.8648" lon="6.97357">
        <ele>490.39999389648</ele>
        <time>2011-05-08T12:08:54.000Z</time>
      </trkpt>
      <trkpt lat="43.86484" lon="6.97371">
        <ele>490.79998779297</ele>
        <time>2011-05-08T12:08:58.000Z</time>
      </trkpt>
      <trkpt lat="43.86485" lon="6.97379">
        <ele>491.39999389648</ele>
        <time>2011-05-08T12:09:00.000Z</time>
      </trkpt>
      <trkpt lat="43.86486" lon="6.97398">
        <ele>494.39999389648</ele>
        <time>2011-05-08T12:09:04.000Z</time>
      </trkpt>
      <trkpt lat="43.86485" lon="6.97404">
        <ele>495.79998779297</ele>
        <time>2011-05-08T12:09:05.000Z</time>
      </trkpt>
      <trkpt lat="43.86489" lon="6.97424">
        <ele>497</ele>
        <time>2011-05-08T12:09:09.000Z</time>
      </trkpt>
      <trkpt lat="43.86497" lon="6.97433">
        <ele>492.79998779297</ele>
        <time>2011-05-08T12:09:13.000Z</time>
      </trkpt>
      <trkpt lat="43.86503" lon="6.97443">
        <ele>490.60000610352</ele>
        <time>2011-05-08T12:09:17.000Z</time>
      </trkpt>
      <trkpt lat="43.86504" lon="6.97447">
        <ele>490.20001220703</ele>
        <time>2011-05-08T12:09:18.000Z</time>
      </trkpt>
      <trkpt lat="43.86504" lon="6.97458">
        <ele>490.60000610352</ele>
        <time>2011-05-08T12:09:21.000Z</time>
      </trkpt>
      <trkpt lat="43.86503" lon="6.97461">
        <ele>491.20001220703</ele>
        <time>2011-05-08T12:09:22.000Z</time>
      </trkpt>
      <trkpt lat="43.86499" lon="6.97468">
        <ele>493.60000610352</ele>
        <time>2011-05-08T12:09:24.000Z</time>
      </trkpt>
      <trkpt lat="43.86493" lon="6.97472">
        <ele>496.60000610352</ele>
        <time>2011-05-08T12:09:26.000Z</time>
      </trkpt>
      <trkpt lat="43.86484" lon="6.97483">
        <ele>502</ele>
        <time>2011-05-08T12:09:31.000Z</time>
      </trkpt>
      <trkpt lat="43.86484" lon="6.97485">
        <ele>502.39999389648</ele>
        <time>2011-05-08T12:09:32.000Z</time>
      </trkpt>
      <trkpt lat="43.86486" lon="6.97492">
        <ele>501.60000610352</ele>
        <time>2011-05-08T12:09:35.000Z</time>
      </trkpt>
      <trkpt lat="43.86496" lon="6.97496">
        <ele>495.79998779297</ele>
        <time>2011-05-08T12:09:40.000Z</time>
      </trkpt>
      <trkpt lat="43.86501" lon="6.97497">
        <ele>493.60000610352</ele>
        <time>2011-05-08T12:09:41.000Z</time>
      </trkpt>
      <trkpt lat="43.86514" lon="6.97502">
        <ele>488.39999389648</ele>
        <time>2011-05-08T12:09:45.000Z</time>
      </trkpt>
      <trkpt lat="43.86517" lon="6.9751">
        <ele>488.20001220703</ele>
        <time>2011-05-08T12:09:47.000Z</time>
      </trkpt>
      <trkpt lat="43.86519" lon="6.9752">
        <ele>489</ele>
        <time>2011-05-08T12:09:49.000Z</time>
      </trkpt>
      <trkpt lat="43.86523" lon="6.97535">
        <ele>489</ele>
        <time>2011-05-08T12:09:52.000Z</time>
      </trkpt>
      <trkpt lat="43.86523" lon="6.9754">
        <ele>489.60000610352</ele>
        <time>2011-05-08T12:09:53.000Z</time>
      </trkpt>
      <trkpt lat="43.86522" lon="6.97564">
        <ele>493.60000610352</ele>
        <time>2011-05-08T12:09:57.000Z</time>
      </trkpt>
      <trkpt lat="43.86526" lon="6.97575">
        <ele>493.20001220703</ele>
        <time>2011-05-08T12:10:00.000Z</time>
      </trkpt>
      <trkpt lat="43.86529" lon="6.97578">
        <ele>492</ele>
        <time>2011-05-08T12:10:01.000Z</time>
      </trkpt>
      <trkpt lat="43.86536" lon="6.97583">
        <ele>489.79998779297</ele>
        <time>2011-05-08T12:10:03.000Z</time>
      </trkpt>
      <trkpt lat="43.86542" lon="6.97587">
        <ele>487.79998779297</ele>
        <time>2011-05-08T12:10:05.000Z</time>
      </trkpt>
      <trkpt lat="43.86551" lon="6.97591">
        <ele>485</ele>
        <time>2011-05-08T12:10:08.000Z</time>
      </trkpt>
      <trkpt lat="43.86553" lon="6.97593">
        <ele>484.60000610352</ele>
        <time>2011-05-08T12:10:09.000Z</time>
      </trkpt>
      <trkpt lat="43.86563" lon="6.97602">
        <ele>482.79998779297</ele>
        <time>2011-05-08T12:10:13.000Z</time>
      </trkpt>
      <trkpt lat="43.86569" lon="6.97606">
        <ele>481.79998779297</ele>
        <time>2011-05-08T12:10:15.000Z</time>
      </trkpt>
      <trkpt lat="43.86579" lon="6.9762">
        <ele>482</ele>
        <time>2011-05-08T12:10:19.000Z</time>
      </trkpt>
      <trkpt lat="43.86584" lon="6.97628">
        <ele>482.20001220703</ele>
        <time>2011-05-08T12:10:21.000Z</time>
      </trkpt>
      <trkpt lat="43.86591" lon="6.97642">
        <ele>483.39999389648</ele>
        <time>2011-05-08T12:10:25.000Z</time>
      </trkpt>
      <trkpt lat="43.86594" lon="6.97646">
        <ele>483.79998779297</ele>
        <time>2011-05-08T12:10:27.000Z</time>
      </trkpt>
      <trkpt lat="43.86605" lon="6.97667">
        <ele>485.20001220703</ele>
        <time>2011-05-08T12:10:32.000Z</time>
      </trkpt>
      <trkpt lat="43.86607" lon="6.97671">
        <ele>485.20001220703</ele>
        <time>2011-05-08T12:10:33.000Z</time>
      </trkpt>
      <trkpt lat="43.86618" lon="6.97689">
        <ele>484.79998779297</ele>
        <time>2011-05-08T12:10:38.000Z</time>
      </trkpt>
      <trkpt lat="43.86621" lon="6.97693">
        <ele>484.79998779297</ele>
        <time>2011-05-08T12:10:39.000Z</time>
      </trkpt>
      <trkpt lat="43.86631" lon="6.97708">
        <ele>483.20001220703</ele>
        <time>2011-05-08T12:10:43.000Z</time>
      </trkpt>
      <trkpt lat="43.86633" lon="6.97711">
        <ele>483</ele>
        <time>2011-05-08T12:10:44.000Z</time>
      </trkpt>
      <trkpt lat="43.86643" lon="6.97728">
        <ele>481.79998779297</ele>
        <time>2011-05-08T12:10:48.000Z</time>
      </trkpt>
      <trkpt lat="43.86645" lon="6.97732">
        <ele>481.60000610352</ele>
        <time>2011-05-08T12:10:49.000Z</time>
      </trkpt>
      <trkpt lat="43.86655" lon="6.97754">
        <ele>481.20001220703</ele>
        <time>2011-05-08T12:10:53.000Z</time>
      </trkpt>
      <trkpt lat="43.86662" lon="6.97781">
        <ele>483.20001220703</ele>
        <time>2011-05-08T12:10:57.000Z</time>
      </trkpt>
      <trkpt lat="43.86665" lon="6.97805">
        <ele>487.39999389648</ele>
        <time>2011-05-08T12:11:01.000Z</time>
      </trkpt>
      <trkpt lat="43.86668" lon="6.97809">
        <ele>486.20001220703</ele>
        <time>2011-05-08T12:11:02.000Z</time>
      </trkpt>
      <trkpt lat="43.86675" lon="6.97818">
        <ele>484.79998779297</ele>
        <time>2011-05-08T12:11:04.000Z</time>
      </trkpt>
      <trkpt lat="43.86678" lon="6.97824">
        <ele>484.39999389648</ele>
        <time>2011-05-08T12:11:05.000Z</time>
      </trkpt>
      <trkpt lat="43.86681" lon="6.9783">
        <ele>484.39999389648</ele>
        <time>2011-05-08T12:11:06.000Z</time>
      </trkpt>
      <trkpt lat="43.86683" lon="6.97836">
        <ele>484.60000610352</ele>
        <time>2011-05-08T12:11:07.000Z</time>
      </trkpt>
      <trkpt lat="43.86691" lon="6.97852">
        <ele>484.60000610352</ele>
        <time>2011-05-08T12:11:10.000Z</time>
      </trkpt>
      <trkpt lat="43.86701" lon="6.97863">
        <ele>482.20001220703</ele>
        <time>2011-05-08T12:11:13.000Z</time>
      </trkpt>
      <trkpt lat="43.86707" lon="6.97871">
        <ele>480.60000610352</ele>
        <time>2011-05-08T12:11:15.000Z</time>
      </trkpt>
      <trkpt lat="43.86713" lon="6.97879">
        <ele>479</ele>
        <time>2011-05-08T12:11:17.000Z</time>
      </trkpt>
      <trkpt lat="43.86721" lon="6.97889">
        <ele>477.20001220703</ele>
        <time>2011-05-08T12:11:20.000Z</time>
      </trkpt>
      <trkpt lat="43.86723" lon="6.97892">
        <ele>476.79998779297</ele>
        <time>2011-05-08T12:11:21.000Z</time>
      </trkpt>
      <trkpt lat="43.86734" lon="6.97912">
        <ele>475.60000610352</ele>
        <time>2011-05-08T12:11:26.000Z</time>
      </trkpt>
      <trkpt lat="43.86746" lon="6.97932">
        <ele>474.39999389648</ele>
        <time>2011-05-08T12:11:30.000Z</time>
      </trkpt>
      <trkpt lat="43.86747" lon="6.97937">
        <ele>474.79998779297</ele>
        <time>2011-05-08T12:11:31.000Z</time>
      </trkpt>
      <trkpt lat="43.86752" lon="6.97946">
        <ele>474.39999389648</ele>
        <time>2011-05-08T12:11:33.000Z</time>
      </trkpt>
      <trkpt lat="43.86756" lon="6.97955">
        <ele>474.20001220703</ele>
        <time>2011-05-08T12:11:35.000Z</time>
      </trkpt>
      <trkpt lat="43.86759" lon="6.9796">
        <ele>474</ele>
        <time>2011-05-08T12:11:36.000Z</time>
      </trkpt>
      <trkpt lat="43.86768" lon="6.97979">
        <ele>473.39999389648</ele>
        <time>2011-05-08T12:11:40.000Z</time>
      </trkpt>
      <trkpt lat="43.86772" lon="6.97988">
        <ele>473.79998779297</ele>
        <time>2011-05-08T12:11:42.000Z</time>
      </trkpt>
      <trkpt lat="43.86773" lon="6.97993">
        <ele>474.39999389648</ele>
        <time>2011-05-08T12:11:43.000Z</time>
      </trkpt>
      <trkpt lat="43.86774" lon="6.98005">
        <ele>476.60000610352</ele>
        <time>2011-05-08T12:11:45.000Z</time>
      </trkpt>
      <trkpt lat="43.86774" lon="6.9801">
        <ele>477.39999389648</ele>
        <time>2011-05-08T12:11:46.000Z</time>
      </trkpt>
      <trkpt lat="43.86775" lon="6.98015">
        <ele>478</ele>
        <time>2011-05-08T12:11:47.000Z</time>
      </trkpt>
      <trkpt lat="43.86779" lon="6.98029">
        <ele>478.39999389648</ele>
        <time>2011-05-08T12:11:50.000Z</time>
      </trkpt>
      <trkpt lat="43.86782" lon="6.98037">
        <ele>478.39999389648</ele>
        <time>2011-05-08T12:11:52.000Z</time>
      </trkpt>
      <trkpt lat="43.86789" lon="6.98056">
        <ele>478.39999389648</ele>
        <time>2011-05-08T12:11:56.000Z</time>
      </trkpt>
      <trkpt lat="43.86794" lon="6.98069">
        <ele>478.20001220703</ele>
        <time>2011-05-08T12:11:59.000Z</time>
      </trkpt>
      <trkpt lat="43.86799" lon="6.9808">
        <ele>477.60000610352</ele>
        <time>2011-05-08T12:12:02.000Z</time>
      </trkpt>
      <trkpt lat="43.86804" lon="6.98093">
        <ele>477.79998779297</ele>
        <time>2011-05-08T12:12:06.000Z</time>
      </trkpt>
      <trkpt lat="43.86807" lon="6.98105">
        <ele>478.20001220703</ele>
        <time>2011-05-08T12:12:10.000Z</time>
      </trkpt>
      <trkpt lat="43.8681" lon="6.98111">
        <ele>477.60000610352</ele>
        <time>2011-05-08T12:12:13.000Z</time>
      </trkpt>
      <trkpt lat="43.86817" lon="6.98128">
        <ele>477.20001220703</ele>
        <time>2011-05-08T12:12:19.000Z</time>
      </trkpt>
      <trkpt lat="43.86824" lon="6.98149">
        <ele>476.60000610352</ele>
        <time>2011-05-08T12:12:26.000Z</time>
      </trkpt>
      <trkpt lat="43.86825" lon="6.98151">
        <ele>476.39999389648</ele>
        <time>2011-05-08T12:12:27.000Z</time>
      </trkpt>
      <trkpt lat="43.86829" lon="6.98168">
        <ele>476.20001220703</ele>
        <time>2011-05-08T12:12:32.000Z</time>
      </trkpt>
      <trkpt lat="43.86828" lon="6.98176">
        <ele>477</ele>
        <time>2011-05-08T12:12:35.000Z</time>
      </trkpt>
      <trkpt lat="43.86827" lon="6.98182">
        <ele>477.79998779297</ele>
        <time>2011-05-08T12:12:37.000Z</time>
      </trkpt>
      <trkpt lat="43.86821" lon="6.98198">
        <ele>481.39999389648</ele>
        <time>2011-05-08T12:12:41.000Z</time>
      </trkpt>
      <trkpt lat="43.8682" lon="6.982">
        <ele>482.20001220703</ele>
        <time>2011-05-08T12:12:42.000Z</time>
      </trkpt>
      <trkpt lat="43.86819" lon="6.98203">
        <ele>482.60000610352</ele>
        <time>2011-05-08T12:12:43.000Z</time>
      </trkpt>
      <trkpt lat="43.86821" lon="6.98207">
        <ele>481.60000610352</ele>
        <time>2011-05-08T12:12:45.000Z</time>
      </trkpt>
      <trkpt lat="43.86827" lon="6.98224">
        <ele>478</ele>
        <time>2011-05-08T12:12:49.000Z</time>
      </trkpt>
      <trkpt lat="43.86825" lon="6.98238">
        <ele>478.79998779297</ele>
        <time>2011-05-08T12:12:52.000Z</time>
      </trkpt>
      <trkpt lat="43.86829" lon="6.98251">
        <ele>476.39999389648</ele>
        <time>2011-05-08T12:12:55.000Z</time>
      </trkpt>
      <trkpt lat="43.8683" lon="6.98256">
        <ele>475.39999389648</ele>
        <time>2011-05-08T12:12:56.000Z</time>
      </trkpt>
      <trkpt lat="43.86827" lon="6.98266">
        <ele>476.20001220703</ele>
        <time>2011-05-08T12:12:59.000Z</time>
      </trkpt>
      <trkpt lat="43.86822" lon="6.9827">
        <ele>478.79998779297</ele>
        <time>2011-05-08T12:13:03.000Z</time>
      </trkpt>
      <trkpt lat="43.86821" lon="6.9827">
        <ele>479</ele>
        <time>2011-05-08T12:13:04.000Z</time>
      </trkpt>
      <trkpt lat="43.86816" lon="6.98274">
        <ele>481.60000610352</ele>
        <time>2011-05-08T12:13:08.000Z</time>
      </trkpt>
      <trkpt lat="43.86812" lon="6.98278">
        <ele>482.79998779297</ele>
        <time>2011-05-08T12:13:13.000Z</time>
      </trkpt>
      <trkpt lat="43.86812" lon="6.98279">
        <ele>482.60000610352</ele>
        <time>2011-05-08T12:13:14.000Z</time>
      </trkpt>
      <trkpt lat="43.86814" lon="6.98282">
        <ele>481.39999389648</ele>
        <time>2011-05-08T12:13:17.000Z</time>
      </trkpt>
      <trkpt lat="43.86814" lon="6.98282">
        <ele>481.39999389648</ele>
        <time>2011-05-08T12:13:20.000Z</time>
      </trkpt>
      <trkpt lat="43.86817" lon="6.98288">
        <ele>479.20001220703</ele>
        <time>2011-05-08T12:13:27.000Z</time>
      </trkpt>
      <trkpt lat="43.86818" lon="6.98291">
        <ele>478.20001220703</ele>
        <time>2011-05-08T12:13:28.000Z</time>
      </trkpt>
      <trkpt lat="43.86822" lon="6.98303">
        <ele>474.79998779297</ele>
        <time>2011-05-08T12:13:32.000Z</time>
      </trkpt>
      <trkpt lat="43.86821" lon="6.98311">
        <ele>474.20001220703</ele>
        <time>2011-05-08T12:13:34.000Z</time>
      </trkpt>
      <trkpt lat="43.86826" lon="6.98339">
        <ele>468.60000610352</ele>
        <time>2011-05-08T12:13:39.000Z</time>
      </trkpt>
      <trkpt lat="43.8682" lon="6.98369">
        <ele>463.39999389648</ele>
        <time>2011-05-08T12:13:43.000Z</time>
      </trkpt>
      <trkpt lat="43.86815" lon="6.9839">
        <ele>460</ele>
        <time>2011-05-08T12:13:46.000Z</time>
      </trkpt>
      <trkpt lat="43.86813" lon="6.98395">
        <ele>459</ele>
        <time>2011-05-08T12:13:47.000Z</time>
      </trkpt>
      <trkpt lat="43.86812" lon="6.98398">
        <ele>458.60000610352</ele>
        <time>2011-05-08T12:13:48.000Z</time>
      </trkpt>
      <trkpt lat="43.86811" lon="6.98401">
        <ele>458</ele>
        <time>2011-05-08T12:13:49.000Z</time>
      </trkpt>
      <trkpt lat="43.86813" lon="6.98402">
        <ele>457.20001220703</ele>
        <time>2011-05-08T12:13:51.000Z</time>
      </trkpt>
      <trkpt lat="43.8682" lon="6.98392">
        <ele>457.60000610352</ele>
        <time>2011-05-08T12:13:55.000Z</time>
      </trkpt>
      <trkpt lat="43.86823" lon="6.9839">
        <ele>457.20001220703</ele>
        <time>2011-05-08T12:13:56.000Z</time>
      </trkpt>
      <trkpt lat="43.86827" lon="6.98393">
        <ele>455.20001220703</ele>
        <time>2011-05-08T12:13:59.000Z</time>
      </trkpt>
      <trkpt lat="43.86823" lon="6.98415">
        <ele>451.20001220703</ele>
        <time>2011-05-08T12:14:03.000Z</time>
      </trkpt>
      <trkpt lat="43.86816" lon="6.98439">
        <ele>446.20001220703</ele>
        <time>2011-05-08T12:14:07.000Z</time>
      </trkpt>
      <trkpt lat="43.86817" lon="6.98443">
        <ele>444.60000610352</ele>
        <time>2011-05-08T12:14:10.000Z</time>
      </trkpt>
      <trkpt lat="43.86823" lon="6.98435">
        <ele>445.60000610352</ele>
        <time>2011-05-08T12:14:13.000Z</time>
      </trkpt>
      <trkpt lat="43.86827" lon="6.9843">
        <ele>446.20001220703</ele>
        <time>2011-05-08T12:14:14.000Z</time>
      </trkpt>
      <trkpt lat="43.8683" lon="6.98426">
        <ele>446.60000610352</ele>
        <time>2011-05-08T12:14:15.000Z</time>
      </trkpt>
      <trkpt lat="43.86838" lon="6.98421">
        <ele>445.39999389648</ele>
        <time>2011-05-08T12:14:18.000Z</time>
      </trkpt>
      <trkpt lat="43.86837" lon="6.98431">
        <ele>443.20001220703</ele>
        <time>2011-05-08T12:14:21.000Z</time>
      </trkpt>
      <trkpt lat="43.86835" lon="6.98435">
        <ele>442.60000610352</ele>
        <time>2011-05-08T12:14:22.000Z</time>
      </trkpt>
      <trkpt lat="43.8683" lon="6.98449">
        <ele>440.60000610352</ele>
        <time>2011-05-08T12:14:24.000Z</time>
      </trkpt>
      <trkpt lat="43.86827" lon="6.98456">
        <ele>439.20001220703</ele>
        <time>2011-05-08T12:14:25.000Z</time>
      </trkpt>
      <trkpt lat="43.86824" lon="6.98463">
        <ele>437.79998779297</ele>
        <time>2011-05-08T12:14:26.000Z</time>
      </trkpt>
      <trkpt lat="43.86822" lon="6.98469">
        <ele>436.39999389648</ele>
        <time>2011-05-08T12:14:27.000Z</time>
      </trkpt>
      <trkpt lat="43.86817" lon="6.98477">
        <ele>434.79998779297</ele>
        <time>2011-05-08T12:14:29.000Z</time>
      </trkpt>
      <trkpt lat="43.86817" lon="6.98483">
        <ele>433</ele>
        <time>2011-05-08T12:14:32.000Z</time>
      </trkpt>
      <trkpt lat="43.86825" lon="6.98477">
        <ele>433.60000610352</ele>
        <time>2011-05-08T12:14:35.000Z</time>
      </trkpt>
      <trkpt lat="43.8683" lon="6.98474">
        <ele>434</ele>
        <time>2011-05-08T12:14:36.000Z</time>
      </trkpt>
      <trkpt lat="43.86835" lon="6.98469">
        <ele>434.20001220703</ele>
        <time>2011-05-08T12:14:37.000Z</time>
      </trkpt>
      <trkpt lat="43.86838" lon="6.98464">
        <ele>434.39999389648</ele>
        <time>2011-05-08T12:14:38.000Z</time>
      </trkpt>
      <trkpt lat="43.86849" lon="6.98451">
        <ele>434.79998779297</ele>
        <time>2011-05-08T12:14:42.000Z</time>
      </trkpt>
      <trkpt lat="43.8685" lon="6.98453">
        <ele>434</ele>
        <time>2011-05-08T12:14:43.000Z</time>
      </trkpt>
      <trkpt lat="43.86848" lon="6.98465">
        <ele>431.60000610352</ele>
        <time>2011-05-08T12:14:46.000Z</time>
      </trkpt>
      <trkpt lat="43.86844" lon="6.98478">
        <ele>429.60000610352</ele>
        <time>2011-05-08T12:14:48.000Z</time>
      </trkpt>
      <trkpt lat="43.8684" lon="6.98492">
        <ele>427.20001220703</ele>
        <time>2011-05-08T12:14:50.000Z</time>
      </trkpt>
      <trkpt lat="43.86835" lon="6.98504">
        <ele>425.60000610352</ele>
        <time>2011-05-08T12:14:52.000Z</time>
      </trkpt>
      <trkpt lat="43.86828" lon="6.98522">
        <ele>421.60000610352</ele>
        <time>2011-05-08T12:14:55.000Z</time>
      </trkpt>
      <trkpt lat="43.86827" lon="6.98527">
        <ele>420.20001220703</ele>
        <time>2011-05-08T12:14:56.000Z</time>
      </trkpt>
      <trkpt lat="43.86825" lon="6.9853">
        <ele>419.39999389648</ele>
        <time>2011-05-08T12:14:57.000Z</time>
      </trkpt>
      <trkpt lat="43.86824" lon="6.98532">
        <ele>418.79998779297</ele>
        <time>2011-05-08T12:14:58.000Z</time>
      </trkpt>
      <trkpt lat="43.86823" lon="6.98535">
        <ele>418.20001220703</ele>
        <time>2011-05-08T12:14:59.000Z</time>
      </trkpt>
      <trkpt lat="43.86827" lon="6.98534">
        <ele>418.39999389648</ele>
        <time>2011-05-08T12:15:02.000Z</time>
      </trkpt>
      <trkpt lat="43.86831" lon="6.9853">
        <ele>419.20001220703</ele>
        <time>2011-05-08T12:15:03.000Z</time>
      </trkpt>
      <trkpt lat="43.86835" lon="6.98526">
        <ele>419.79998779297</ele>
        <time>2011-05-08T12:15:04.000Z</time>
      </trkpt>
      <trkpt lat="43.86841" lon="6.98522">
        <ele>419.60000610352</ele>
        <time>2011-05-08T12:15:05.000Z</time>
      </trkpt>
      <trkpt lat="43.86852" lon="6.98513">
        <ele>419</ele>
        <time>2011-05-08T12:15:07.000Z</time>
      </trkpt>
      <trkpt lat="43.86864" lon="6.98503">
        <ele>418.20001220703</ele>
        <time>2011-05-08T12:15:10.000Z</time>
      </trkpt>
      <trkpt lat="43.86868" lon="6.98499">
        <ele>418.20001220703</ele>
        <time>2011-05-08T12:15:11.000Z</time>
      </trkpt>
      <trkpt lat="43.86876" lon="6.98491">
        <ele>417.39999389648</ele>
        <time>2011-05-08T12:15:14.000Z</time>
      </trkpt>
      <trkpt lat="43.86877" lon="6.98499">
        <ele>415.60000610352</ele>
        <time>2011-05-08T12:15:17.000Z</time>
      </trkpt>
      <trkpt lat="43.86875" lon="6.98504">
        <ele>415.20001220703</ele>
        <time>2011-05-08T12:15:18.000Z</time>
      </trkpt>
      <trkpt lat="43.86873" lon="6.98509">
        <ele>414.60000610352</ele>
        <time>2011-05-08T12:15:19.000Z</time>
      </trkpt>
      <trkpt lat="43.86869" lon="6.98518">
        <ele>413.60000610352</ele>
        <time>2011-05-08T12:15:21.000Z</time>
      </trkpt>
      <trkpt lat="43.86869" lon="6.98521">
        <ele>413.20001220703</ele>
        <time>2011-05-08T12:15:22.000Z</time>
      </trkpt>
      <trkpt lat="43.86871" lon="6.98523">
        <ele>412.20001220703</ele>
        <time>2011-05-08T12:15:24.000Z</time>
      </trkpt>
      <trkpt lat="43.86873" lon="6.98523">
        <ele>411.79998779297</ele>
        <time>2011-05-08T12:15:25.000Z</time>
      </trkpt>
      <trkpt lat="43.86875" lon="6.98522">
        <ele>411.60000610352</ele>
        <time>2011-05-08T12:15:27.000Z</time>
      </trkpt>
      <trkpt lat="43.86879" lon="6.9852">
        <ele>411</ele>
        <time>2011-05-08T12:15:28.000Z</time>
      </trkpt>
      <trkpt lat="43.86888" lon="6.98521">
        <ele>408.60000610352</ele>
        <time>2011-05-08T12:15:33.000Z</time>
      </trkpt>
      <trkpt lat="43.8689" lon="6.98524">
        <ele>407.79998779297</ele>
        <time>2011-05-08T12:15:34.000Z</time>
      </trkpt>
      <trkpt lat="43.86894" lon="6.98535">
        <ele>404.79998779297</ele>
        <time>2011-05-08T12:15:37.000Z</time>
      </trkpt>
      <trkpt lat="43.86895" lon="6.98537">
        <ele>404.39999389648</ele>
        <time>2011-05-08T12:15:38.000Z</time>
      </trkpt>
      <trkpt lat="43.869" lon="6.98537">
        <ele>403</ele>
        <time>2011-05-08T12:15:41.000Z</time>
      </trkpt>
      <trkpt lat="43.86903" lon="6.98542">
        <ele>401.79998779297</ele>
        <time>2011-05-08T12:15:43.000Z</time>
      </trkpt>
      <trkpt lat="43.86904" lon="6.9855">
        <ele>400.20001220703</ele>
        <time>2011-05-08T12:15:45.000Z</time>
      </trkpt>
      <trkpt lat="43.86908" lon="6.98564">
        <ele>397.20001220703</ele>
        <time>2011-05-08T12:15:49.000Z</time>
      </trkpt>
      <trkpt lat="43.8691" lon="6.98567">
        <ele>396.60000610352</ele>
        <time>2011-05-08T12:15:50.000Z</time>
      </trkpt>
      <trkpt lat="43.86909" lon="6.98574">
        <ele>395.60000610352</ele>
        <time>2011-05-08T12:15:52.000Z</time>
      </trkpt>
      <trkpt lat="43.86904" lon="6.98586">
        <ele>394.60000610352</ele>
        <time>2011-05-08T12:15:56.000Z</time>
      </trkpt>
      <trkpt lat="43.86908" lon="6.98589">
        <ele>393.20001220703</ele>
        <time>2011-05-08T12:15:58.000Z</time>
      </trkpt>
      <trkpt lat="43.86912" lon="6.98589">
        <ele>392.79998779297</ele>
        <time>2011-05-08T12:15:59.000Z</time>
      </trkpt>
      <trkpt lat="43.86918" lon="6.98585">
        <ele>392.60000610352</ele>
        <time>2011-05-08T12:16:02.000Z</time>
      </trkpt>
      <trkpt lat="43.86918" lon="6.98586">
        <ele>392.39999389648</ele>
        <time>2011-05-08T12:16:17.000Z</time>
      </trkpt>
      <trkpt lat="43.86917" lon="6.98588">
        <ele>392.39999389648</ele>
        <time>2011-05-08T12:16:18.000Z</time>
      </trkpt>
      <trkpt lat="43.86914" lon="6.98587">
        <ele>392.60000610352</ele>
        <time>2011-05-08T12:16:24.000Z</time>
      </trkpt>
      <trkpt lat="43.86912" lon="6.98583">
        <ele>393.79998779297</ele>
        <time>2011-05-08T12:16:46.000Z</time>
      </trkpt>
      <trkpt lat="43.86911" lon="6.98581">
        <ele>394.20001220703</ele>
        <time>2011-05-08T12:17:32.000Z</time>
      </trkpt>
      <trkpt lat="43.86909" lon="6.9858">
        <ele>394.60000610352</ele>
        <time>2011-05-08T12:17:35.000Z</time>
      </trkpt>
      <trkpt lat="43.86911" lon="6.98579">
        <ele>394.39999389648</ele>
        <time>2011-05-08T12:18:16.000Z</time>
      </trkpt>
      <trkpt lat="43.86917" lon="6.98573">
        <ele>394.39999389648</ele>
        <time>2011-05-08T12:18:23.000Z</time>
      </trkpt>
      <trkpt lat="43.86918" lon="6.98559">
        <ele>396.39999389648</ele>
        <time>2011-05-08T12:18:26.000Z</time>
      </trkpt>
      <trkpt lat="43.86917" lon="6.98554">
        <ele>397.20001220703</ele>
        <time>2011-05-08T12:18:27.000Z</time>
      </trkpt>
      <trkpt lat="43.86919" lon="6.98546">
        <ele>398.39999389648</ele>
        <time>2011-05-08T12:18:29.000Z</time>
      </trkpt>
      <trkpt lat="43.86921" lon="6.98544">
        <ele>398.60000610352</ele>
        <time>2011-05-08T12:18:30.000Z</time>
      </trkpt>
      <trkpt lat="43.86928" lon="6.98551">
        <ele>397.79998779297</ele>
        <time>2011-05-08T12:18:33.000Z</time>
      </trkpt>
      <trkpt lat="43.86929" lon="6.98556">
        <ele>397</ele>
        <time>2011-05-08T12:18:34.000Z</time>
      </trkpt>
      <trkpt lat="43.86929" lon="6.98561">
        <ele>396.20001220703</ele>
        <time>2011-05-08T12:18:35.000Z</time>
      </trkpt>
      <trkpt lat="43.8693" lon="6.98574">
        <ele>394.20001220703</ele>
        <time>2011-05-08T12:18:37.000Z</time>
      </trkpt>
      <trkpt lat="43.8693" lon="6.98583">
        <ele>392.60000610352</ele>
        <time>2011-05-08T12:18:39.000Z</time>
      </trkpt>
      <trkpt lat="43.86929" lon="6.98585">
        <ele>392.39999389648</ele>
        <time>2011-05-08T12:18:40.000Z</time>
      </trkpt>
      <trkpt lat="43.86929" lon="6.9859">
        <ele>391.60000610352</ele>
        <time>2011-05-08T12:18:44.000Z</time>
      </trkpt>
      <trkpt lat="43.8693" lon="6.98591">
        <ele>391.39999389648</ele>
        <time>2011-05-08T12:18:45.000Z</time>
      </trkpt>
      <trkpt lat="43.86933" lon="6.98591">
        <ele>391.39999389648</ele>
        <time>2011-05-08T12:18:50.000Z</time>
      </trkpt>
      <trkpt lat="43.86941" lon="6.98582">
        <ele>392.60000610352</ele>
        <time>2011-05-08T12:18:54.000Z</time>
      </trkpt>
      <trkpt lat="43.86943" lon="6.98587">
        <ele>391.60000610352</ele>
        <time>2011-05-08T12:18:58.000Z</time>
      </trkpt>
      <trkpt lat="43.86937" lon="6.98598">
        <ele>390.20001220703</ele>
        <time>2011-05-08T12:19:03.000Z</time>
      </trkpt>
      <trkpt lat="43.86936" lon="6.98603">
        <ele>389.60000610352</ele>
        <time>2011-05-08T12:19:08.000Z</time>
      </trkpt>
      <trkpt lat="43.86936" lon="6.98604">
        <ele>389.39999389648</ele>
        <time>2011-05-08T12:19:09.000Z</time>
      </trkpt>
      <trkpt lat="43.86937" lon="6.98616">
        <ele>387.60000610352</ele>
        <time>2011-05-08T12:19:16.000Z</time>
      </trkpt>
      <trkpt lat="43.86937" lon="6.98621">
        <ele>387</ele>
        <time>2011-05-08T12:19:19.000Z</time>
      </trkpt>
      <trkpt lat="43.86936" lon="6.98629">
        <ele>385.79998779297</ele>
        <time>2011-05-08T12:19:22.000Z</time>
      </trkpt>
      <trkpt lat="43.86937" lon="6.98633">
        <ele>385.20001220703</ele>
        <time>2011-05-08T12:19:24.000Z</time>
      </trkpt>
      <trkpt lat="43.86938" lon="6.98634">
        <ele>385</ele>
        <time>2011-05-08T12:19:25.000Z</time>
      </trkpt>
      <trkpt lat="43.86946" lon="6.98632">
        <ele>385</ele>
        <time>2011-05-08T12:19:30.000Z</time>
      </trkpt>
      <trkpt lat="43.86952" lon="6.98633">
        <ele>384.60000610352</ele>
        <time>2011-05-08T12:19:33.000Z</time>
      </trkpt>
      <trkpt lat="43.86956" lon="6.98636">
        <ele>384</ele>
        <time>2011-05-08T12:19:35.000Z</time>
      </trkpt>
      <trkpt lat="43.8696" lon="6.98637">
        <ele>383.79998779297</ele>
        <time>2011-05-08T12:19:37.000Z</time>
      </trkpt>
      <trkpt lat="43.86962" lon="6.98636">
        <ele>383.79998779297</ele>
        <time>2011-05-08T12:19:39.000Z</time>
      </trkpt>
      <trkpt lat="43.86965" lon="6.98636">
        <ele>383.79998779297</ele>
        <time>2011-05-08T12:19:43.000Z</time>
      </trkpt>
      <trkpt lat="43.86969" lon="6.98635">
        <ele>383.79998779297</ele>
        <time>2011-05-08T12:19:46.000Z</time>
      </trkpt>
      <trkpt lat="43.86971" lon="6.98634">
        <ele>383.79998779297</ele>
        <time>2011-05-08T12:19:47.000Z</time>
      </trkpt>
      <trkpt lat="43.8698" lon="6.98635">
        <ele>383.39999389648</ele>
        <time>2011-05-08T12:19:50.000Z</time>
      </trkpt>
      <trkpt lat="43.86991" lon="6.98638">
        <ele>382.60000610352</ele>
        <time>2011-05-08T12:19:53.000Z</time>
      </trkpt>
      <trkpt lat="43.87002" lon="6.98645">
        <ele>381.39999389648</ele>
        <time>2011-05-08T12:19:56.000Z</time>
      </trkpt>
      <trkpt lat="43.8701" lon="6.98652">
        <ele>381.20001220703</ele>
        <time>2011-05-08T12:19:58.000Z</time>
      </trkpt>
      <trkpt lat="43.8702" lon="6.98659">
        <ele>381</ele>
        <time>2011-05-08T12:20:00.000Z</time>
      </trkpt>
      <trkpt lat="43.87029" lon="6.98666">
        <ele>380.39999389648</ele>
        <time>2011-05-08T12:20:02.000Z</time>
      </trkpt>
      <trkpt lat="43.87037" lon="6.98673">
        <ele>381.20001220703</ele>
        <time>2011-05-08T12:20:04.000Z</time>
      </trkpt>
      <trkpt lat="43.87046" lon="6.9868">
        <ele>381.79998779297</ele>
        <time>2011-05-08T12:20:06.000Z</time>
      </trkpt>
      <trkpt lat="43.87063" lon="6.98696">
        <ele>382.20001220703</ele>
        <time>2011-05-08T12:20:10.000Z</time>
      </trkpt>
      <trkpt lat="43.87067" lon="6.98701">
        <ele>382</ele>
        <time>2011-05-08T12:20:11.000Z</time>
      </trkpt>
      <trkpt lat="43.87078" lon="6.98719">
        <ele>380.79998779297</ele>
        <time>2011-05-08T12:20:14.000Z</time>
      </trkpt>
      <trkpt lat="43.87082" lon="6.98725">
        <ele>380.20001220703</ele>
        <time>2011-05-08T12:20:15.000Z</time>
      </trkpt>
      <trkpt lat="43.87095" lon="6.98736">
        <ele>379.60000610352</ele>
        <time>2011-05-08T12:20:18.000Z</time>
      </trkpt>
      <trkpt lat="43.87114" lon="6.9875">
        <ele>378.20001220703</ele>
        <time>2011-05-08T12:20:23.000Z</time>
      </trkpt>
      <trkpt lat="43.87118" lon="6.98752">
        <ele>378.60000610352</ele>
        <time>2011-05-08T12:20:24.000Z</time>
      </trkpt>
      <trkpt lat="43.87131" lon="6.98768">
        <ele>380.79998779297</ele>
        <time>2011-05-08T12:20:28.000Z</time>
      </trkpt>
      <trkpt lat="43.87137" lon="6.98775">
        <ele>382</ele>
        <time>2011-05-08T12:20:30.000Z</time>
      </trkpt>
      <trkpt lat="43.87147" lon="6.98784">
        <ele>383.20001220703</ele>
        <time>2011-05-08T12:20:33.000Z</time>
      </trkpt>
      <trkpt lat="43.87153" lon="6.9879">
        <ele>384</ele>
        <time>2011-05-08T12:20:35.000Z</time>
      </trkpt>
      <trkpt lat="43.87156" lon="6.98792">
        <ele>384.39999389648</ele>
        <time>2011-05-08T12:20:36.000Z</time>
      </trkpt>
      <trkpt lat="43.8716" lon="6.98794">
        <ele>384.60000610352</ele>
        <time>2011-05-08T12:20:37.000Z</time>
      </trkpt>
      <trkpt lat="43.87164" lon="6.98795">
        <ele>384.79998779297</ele>
        <time>2011-05-08T12:20:38.000Z</time>
      </trkpt>
      <trkpt lat="43.87177" lon="6.98796">
        <ele>384.20001220703</ele>
        <time>2011-05-08T12:20:41.000Z</time>
      </trkpt>
      <trkpt lat="43.87182" lon="6.98796">
        <ele>383.79998779297</ele>
        <time>2011-05-08T12:20:42.000Z</time>
      </trkpt>
      <trkpt lat="43.87199" lon="6.98798">
        <ele>383</ele>
        <time>2011-05-08T12:20:46.000Z</time>
      </trkpt>
      <trkpt lat="43.87202" lon="6.988">
        <ele>383</ele>
        <time>2011-05-08T12:20:47.000Z</time>
      </trkpt>
      <trkpt lat="43.8721" lon="6.98803">
        <ele>382.79998779297</ele>
        <time>2011-05-08T12:20:49.000Z</time>
      </trkpt>
      <trkpt lat="43.8722" lon="6.98807">
        <ele>382.60000610352</ele>
        <time>2011-05-08T12:20:52.000Z</time>
      </trkpt>
      <trkpt lat="43.87222" lon="6.98809">
        <ele>382.60000610352</ele>
        <time>2011-05-08T12:20:53.000Z</time>
      </trkpt>
      <trkpt lat="43.87236" lon="6.98819">
        <ele>383</ele>
        <time>2011-05-08T12:20:59.000Z</time>
      </trkpt>
      <trkpt lat="43.87239" lon="6.9882">
        <ele>383</ele>
        <time>2011-05-08T12:21:00.000Z</time>
      </trkpt>
      <trkpt lat="43.87254" lon="6.98826">
        <ele>382.20001220703</ele>
        <time>2011-05-08T12:21:06.000Z</time>
      </trkpt>
      <trkpt lat="43.87274" lon="6.98833">
        <ele>378.39999389648</ele>
        <time>2011-05-08T12:21:13.000Z</time>
      </trkpt>
      <trkpt lat="43.87277" lon="6.98833">
        <ele>377.60000610352</ele>
        <time>2011-05-08T12:21:14.000Z</time>
      </trkpt>
      <trkpt lat="43.87294" lon="6.98834">
        <ele>374.20001220703</ele>
        <time>2011-05-08T12:21:19.000Z</time>
      </trkpt>
      <trkpt lat="43.873" lon="6.98838">
        <ele>374.20001220703</ele>
        <time>2011-05-08T12:21:21.000Z</time>
      </trkpt>
      <trkpt lat="43.87311" lon="6.98848">
        <ele>376</ele>
        <time>2011-05-08T12:21:25.000Z</time>
      </trkpt>
      <trkpt lat="43.87319" lon="6.98853">
        <ele>375.60000610352</ele>
        <time>2011-05-08T12:21:27.000Z</time>
      </trkpt>
      <trkpt lat="43.8733" lon="6.98856">
        <ele>373.79998779297</ele>
        <time>2011-05-08T12:21:31.000Z</time>
      </trkpt>
      <trkpt lat="43.87333" lon="6.98856">
        <ele>373</ele>
        <time>2011-05-08T12:21:32.000Z</time>
      </trkpt>
      <trkpt lat="43.87347" lon="6.98865">
        <ele>371.20001220703</ele>
        <time>2011-05-08T12:21:38.000Z</time>
      </trkpt>
      <trkpt lat="43.8735" lon="6.98882">
        <ele>375.79998779297</ele>
        <time>2011-05-08T12:21:43.000Z</time>
      </trkpt>
      <trkpt lat="43.87351" lon="6.9889">
        <ele>377.60000610352</ele>
        <time>2011-05-08T12:21:45.000Z</time>
      </trkpt>
      <trkpt lat="43.87359" lon="6.98911">
        <ele>381</ele>
        <time>2011-05-08T12:21:52.000Z</time>
      </trkpt>
      <trkpt lat="43.8736" lon="6.98914">
        <ele>381.60000610352</ele>
        <time>2011-05-08T12:21:53.000Z</time>
      </trkpt>
      <trkpt lat="43.87371" lon="6.98935">
        <ele>382.60000610352</ele>
        <time>2011-05-08T12:22:00.000Z</time>
      </trkpt>
      <trkpt lat="43.87373" lon="6.98938">
        <ele>382.60000610352</ele>
        <time>2011-05-08T12:22:01.000Z</time>
      </trkpt>
      <trkpt lat="43.87382" lon="6.98959">
        <ele>384</ele>
        <time>2011-05-08T12:22:06.000Z</time>
      </trkpt>
      <trkpt lat="43.87383" lon="6.98964">
        <ele>384.60000610352</ele>
        <time>2011-05-08T12:22:07.000Z</time>
      </trkpt>
      <trkpt lat="43.87389" lon="6.98983">
        <ele>386.79998779297</ele>
        <time>2011-05-08T12:22:12.000Z</time>
      </trkpt>
      <trkpt lat="43.8739" lon="6.98986">
        <ele>387.20001220703</ele>
        <time>2011-05-08T12:22:13.000Z</time>
      </trkpt>
      <trkpt lat="43.87395" lon="6.99006">
        <ele>389</ele>
        <time>2011-05-08T12:22:19.000Z</time>
      </trkpt>
      <trkpt lat="43.87396" lon="6.99009">
        <ele>389.20001220703</ele>
        <time>2011-05-08T12:22:20.000Z</time>
      </trkpt>
      <trkpt lat="43.87402" lon="6.9903">
        <ele>389</ele>
        <time>2011-05-08T12:22:26.000Z</time>
      </trkpt>
      <trkpt lat="43.87403" lon="6.99033">
        <ele>388.60000610352</ele>
        <time>2011-05-08T12:22:27.000Z</time>
      </trkpt>
      <trkpt lat="43.87415" lon="6.99053">
        <ele>384.60000610352</ele>
        <time>2011-05-08T12:22:33.000Z</time>
      </trkpt>
      <trkpt lat="43.87424" lon="6.99072">
        <ele>382.79998779297</ele>
        <time>2011-05-08T12:22:38.000Z</time>
      </trkpt>
      <trkpt lat="43.87425" lon="6.99076">
        <ele>383</ele>
        <time>2011-05-08T12:22:39.000Z</time>
      </trkpt>
      <trkpt lat="43.87429" lon="6.991">
        <ele>382</ele>
        <time>2011-05-08T12:22:43.000Z</time>
      </trkpt>
      <trkpt lat="43.87431" lon="6.99107">
        <ele>381.20001220703</ele>
        <time>2011-05-08T12:22:44.000Z</time>
      </trkpt>
      <trkpt lat="43.87436" lon="6.99132">
        <ele>379.20001220703</ele>
        <time>2011-05-08T12:22:47.000Z</time>
      </trkpt>
      <trkpt lat="43.8744" lon="6.99148">
        <ele>377</ele>
        <time>2011-05-08T12:22:49.000Z</time>
      </trkpt>
      <trkpt lat="43.87443" lon="6.99156">
        <ele>375.79998779297</ele>
        <time>2011-05-08T12:22:50.000Z</time>
      </trkpt>
      <trkpt lat="43.87445" lon="6.99164">
        <ele>375</ele>
        <time>2011-05-08T12:22:51.000Z</time>
      </trkpt>
      <trkpt lat="43.87446" lon="6.99183">
        <ele>373.39999389648</ele>
        <time>2011-05-08T12:22:53.000Z</time>
      </trkpt>
      <trkpt lat="43.87443" lon="6.99213">
        <ele>372.79998779297</ele>
        <time>2011-05-08T12:22:56.000Z</time>
      </trkpt>
      <trkpt lat="43.87441" lon="6.99223">
        <ele>373.20001220703</ele>
        <time>2011-05-08T12:22:57.000Z</time>
      </trkpt>
      <trkpt lat="43.87439" lon="6.99242">
        <ele>373.60000610352</ele>
        <time>2011-05-08T12:22:59.000Z</time>
      </trkpt>
      <trkpt lat="43.87438" lon="6.9926">
        <ele>372.79998779297</ele>
        <time>2011-05-08T12:23:01.000Z</time>
      </trkpt>
      <trkpt lat="43.87437" lon="6.99269">
        <ele>372.39999389648</ele>
        <time>2011-05-08T12:23:02.000Z</time>
      </trkpt>
      <trkpt lat="43.87438" lon="6.99296">
        <ele>370</ele>
        <time>2011-05-08T12:23:05.000Z</time>
      </trkpt>
      <trkpt lat="43.87438" lon="6.99303">
        <ele>369.39999389648</ele>
        <time>2011-05-08T12:23:06.000Z</time>
      </trkpt>
      <trkpt lat="43.87439" lon="6.99313">
        <ele>368.39999389648</ele>
        <time>2011-05-08T12:23:08.000Z</time>
      </trkpt>
      <trkpt lat="43.8744" lon="6.99317">
        <ele>367.79998779297</ele>
        <time>2011-05-08T12:23:09.000Z</time>
      </trkpt>
      <trkpt lat="43.87444" lon="6.99315">
        <ele>366</ele>
        <time>2011-05-08T12:23:11.000Z</time>
      </trkpt>
      <trkpt lat="43.87446" lon="6.9931">
        <ele>365.20001220703</ele>
        <time>2011-05-08T12:23:12.000Z</time>
      </trkpt>
      <trkpt lat="43.87456" lon="6.99298">
        <ele>360.79998779297</ele>
        <time>2011-05-08T12:23:15.000Z</time>
      </trkpt>
      <trkpt lat="43.8746" lon="6.99299">
        <ele>358.79998779297</ele>
        <time>2011-05-08T12:23:16.000Z</time>
      </trkpt>
      <trkpt lat="43.87461" lon="6.99311">
        <ele>357.39999389648</ele>
        <time>2011-05-08T12:23:18.000Z</time>
      </trkpt>
      <trkpt lat="43.87459" lon="6.99326">
        <ele>357.60000610352</ele>
        <time>2011-05-08T12:23:20.000Z</time>
      </trkpt>
      <trkpt lat="43.87454" lon="6.99349">
        <ele>357.20001220703</ele>
        <time>2011-05-08T12:23:23.000Z</time>
      </trkpt>
      <trkpt lat="43.87452" lon="6.99357">
        <ele>357.20001220703</ele>
        <time>2011-05-08T12:23:24.000Z</time>
      </trkpt>
      <trkpt lat="43.87443" lon="6.99382">
        <ele>357.39999389648</ele>
        <time>2011-05-08T12:23:27.000Z</time>
      </trkpt>
      <trkpt lat="43.8744" lon="6.9939">
        <ele>357.20001220703</ele>
        <time>2011-05-08T12:23:28.000Z</time>
      </trkpt>
      <trkpt lat="43.87438" lon="6.99399">
        <ele>356.60000610352</ele>
        <time>2011-05-08T12:23:29.000Z</time>
      </trkpt>
      <trkpt lat="43.87437" lon="6.99408">
        <ele>355.60000610352</ele>
        <time>2011-05-08T12:23:30.000Z</time>
      </trkpt>
      <trkpt lat="43.87435" lon="6.99426">
        <ele>353.39999389648</ele>
        <time>2011-05-08T12:23:32.000Z</time>
      </trkpt>
      <trkpt lat="43.87432" lon="6.99434">
        <ele>352.79998779297</ele>
        <time>2011-05-08T12:23:33.000Z</time>
      </trkpt>
      <trkpt lat="43.87424" lon="6.9945">
        <ele>352.20001220703</ele>
        <time>2011-05-08T12:23:35.000Z</time>
      </trkpt>
      <trkpt lat="43.8742" lon="6.99459">
        <ele>351</ele>
        <time>2011-05-08T12:23:36.000Z</time>
      </trkpt>
      <trkpt lat="43.87417" lon="6.99471">
        <ele>349.20001220703</ele>
        <time>2011-05-08T12:23:37.000Z</time>
      </trkpt>
      <trkpt lat="43.87413" lon="6.99483">
        <ele>348.79998779297</ele>
        <time>2011-05-08T12:23:38.000Z</time>
      </trkpt>
      <trkpt lat="43.8741" lon="6.99495">
        <ele>348.60000610352</ele>
        <time>2011-05-08T12:23:39.000Z</time>
      </trkpt>
      <trkpt lat="43.87407" lon="6.99507">
        <ele>348.79998779297</ele>
        <time>2011-05-08T12:23:40.000Z</time>
      </trkpt>
      <trkpt lat="43.87403" lon="6.99518">
        <ele>350</ele>
        <time>2011-05-08T12:23:41.000Z</time>
      </trkpt>
      <trkpt lat="43.87393" lon="6.99536">
        <ele>353.20001220703</ele>
        <time>2011-05-08T12:23:43.000Z</time>
      </trkpt>
      <trkpt lat="43.87382" lon="6.99563">
        <ele>355.79998779297</ele>
        <time>2011-05-08T12:23:46.000Z</time>
      </trkpt>
      <trkpt lat="43.87377" lon="6.99579">
        <ele>356.20001220703</ele>
        <time>2011-05-08T12:23:48.000Z</time>
      </trkpt>
      <trkpt lat="43.87373" lon="6.99591">
        <ele>356.39999389648</ele>
        <time>2011-05-08T12:23:50.000Z</time>
      </trkpt>
      <trkpt lat="43.87368" lon="6.99609">
        <ele>356</ele>
        <time>2011-05-08T12:23:53.000Z</time>
      </trkpt>
      <trkpt lat="43.87365" lon="6.9962">
        <ele>355.20001220703</ele>
        <time>2011-05-08T12:23:55.000Z</time>
      </trkpt>
      <trkpt lat="43.87358" lon="6.99644">
        <ele>353.20001220703</ele>
        <time>2011-05-08T12:23:59.000Z</time>
      </trkpt>
      <trkpt lat="43.87356" lon="6.99651">
        <ele>352.39999389648</ele>
        <time>2011-05-08T12:24:00.000Z</time>
      </trkpt>
      <trkpt lat="43.87354" lon="6.99658">
        <ele>351.39999389648</ele>
        <time>2011-05-08T12:24:01.000Z</time>
      </trkpt>
      <trkpt lat="43.87352" lon="6.99673">
        <ele>349.79998779297</ele>
        <time>2011-05-08T12:24:03.000Z</time>
      </trkpt>
      <trkpt lat="43.87349" lon="6.99694">
        <ele>348.79998779297</ele>
        <time>2011-05-08T12:24:06.000Z</time>
      </trkpt>
      <trkpt lat="43.87348" lon="6.997">
        <ele>348.60000610352</ele>
        <time>2011-05-08T12:24:07.000Z</time>
      </trkpt>
      <trkpt lat="43.87347" lon="6.99706">
        <ele>348.20001220703</ele>
        <time>2011-05-08T12:24:08.000Z</time>
      </trkpt>
      <trkpt lat="43.87346" lon="6.9973">
        <ele>346.20001220703</ele>
        <time>2011-05-08T12:24:11.000Z</time>
      </trkpt>
      <trkpt lat="43.87344" lon="6.99762">
        <ele>344.20001220703</ele>
        <time>2011-05-08T12:24:15.000Z</time>
      </trkpt>
      <trkpt lat="43.87344" lon="6.99776">
        <ele>343.60000610352</ele>
        <time>2011-05-08T12:24:17.000Z</time>
      </trkpt>
      <trkpt lat="43.87344" lon="6.99783">
        <ele>343.39999389648</ele>
        <time>2011-05-08T12:24:18.000Z</time>
      </trkpt>
      <trkpt lat="43.87343" lon="6.9979">
        <ele>343.39999389648</ele>
        <time>2011-05-08T12:24:19.000Z</time>
      </trkpt>
      <trkpt lat="43.8734" lon="6.99807">
        <ele>343</ele>
        <time>2011-05-08T12:24:22.000Z</time>
      </trkpt>
      <trkpt lat="43.87339" lon="6.99819">
        <ele>342.79998779297</ele>
        <time>2011-05-08T12:24:24.000Z</time>
      </trkpt>
      <trkpt lat="43.87335" lon="6.99846">
        <ele>342.60000610352</ele>
        <time>2011-05-08T12:24:28.000Z</time>
      </trkpt>
      <trkpt lat="43.87334" lon="6.99853">
        <ele>342.60000610352</ele>
        <time>2011-05-08T12:24:29.000Z</time>
      </trkpt>
      <trkpt lat="43.87331" lon="6.99874">
        <ele>344.79998779297</ele>
        <time>2011-05-08T12:24:32.000Z</time>
      </trkpt>
      <trkpt lat="43.87329" lon="6.99902">
        <ele>346.20001220703</ele>
        <time>2011-05-08T12:24:36.000Z</time>
      </trkpt>
      <trkpt lat="43.87327" lon="6.99929">
        <ele>346</ele>
        <time>2011-05-08T12:24:40.000Z</time>
      </trkpt>
      <trkpt lat="43.87327" lon="6.99941">
        <ele>344.79998779297</ele>
        <time>2011-05-08T12:24:42.000Z</time>
      </trkpt>
      <trkpt lat="43.87326" lon="6.99955">
        <ele>343.79998779297</ele>
        <time>2011-05-08T12:24:45.000Z</time>
      </trkpt>
      <trkpt lat="43.87324" lon="6.99965">
        <ele>343.79998779297</ele>
        <time>2011-05-08T12:24:47.000Z</time>
      </trkpt>
      <trkpt lat="43.87318" lon="6.99979">
        <ele>346.79998779297</ele>
        <time>2011-05-08T12:24:50.000Z</time>
      </trkpt>
      <trkpt lat="43.87314" lon="6.9999">
        <ele>348</ele>
        <time>2011-05-08T12:24:52.000Z</time>
      </trkpt>
      <trkpt lat="43.87311" lon="7.00007">
        <ele>348.79998779297</ele>
        <time>2011-05-08T12:24:55.000Z</time>
      </trkpt>
      <trkpt lat="43.87311" lon="7.00013">
        <ele>348.79998779297</ele>
        <time>2011-05-08T12:24:56.000Z</time>
      </trkpt>
      <trkpt lat="43.87311" lon="7.00018">
        <ele>348.79998779297</ele>
        <time>2011-05-08T12:24:57.000Z</time>
      </trkpt>
      <trkpt lat="43.8731" lon="7.00036">
        <ele>349.60000610352</ele>
        <time>2011-05-08T12:25:00.000Z</time>
      </trkpt>
      <trkpt lat="43.87308" lon="7.00042">
        <ele>344.79998779297</ele>
        <time>2011-05-08T12:25:01.000Z</time>
      </trkpt>
      <trkpt lat="43.87303" lon="7.00059">
        <ele>345.39999389648</ele>
        <time>2011-05-08T12:25:04.000Z</time>
      </trkpt>
      <trkpt lat="43.87299" lon="7.0007">
        <ele>345.39999389648</ele>
        <time>2011-05-08T12:25:06.000Z</time>
      </trkpt>
      <trkpt lat="43.87297" lon="7.00075">
        <ele>345.79998779297</ele>
        <time>2011-05-08T12:25:07.000Z</time>
      </trkpt>
      <trkpt lat="43.87292" lon="7.00085">
        <ele>346</ele>
        <time>2011-05-08T12:25:09.000Z</time>
      </trkpt>
      <trkpt lat="43.87288" lon="7.00096">
        <ele>346.39999389648</ele>
        <time>2011-05-08T12:25:11.000Z</time>
      </trkpt>
      <trkpt lat="43.87286" lon="7.00102">
        <ele>346.60000610352</ele>
        <time>2011-05-08T12:25:12.000Z</time>
      </trkpt>
      <trkpt lat="43.87284" lon="7.00108">
        <ele>346.39999389648</ele>
        <time>2011-05-08T12:25:13.000Z</time>
      </trkpt>
      <trkpt lat="43.87278" lon="7.00134">
        <ele>344.79998779297</ele>
        <time>2011-05-08T12:25:17.000Z</time>
      </trkpt>
      <trkpt lat="43.87277" lon="7.00141">
        <ele>344.20001220703</ele>
        <time>2011-05-08T12:25:18.000Z</time>
      </trkpt>
      <trkpt lat="43.87272" lon="7.00164">
        <ele>341.79998779297</ele>
        <time>2011-05-08T12:25:21.000Z</time>
      </trkpt>
      <trkpt lat="43.87266" lon="7.00192">
        <ele>342.20001220703</ele>
        <time>2011-05-08T12:25:24.000Z</time>
      </trkpt>
      <trkpt lat="43.87265" lon="7.00201">
        <ele>342.20001220703</ele>
        <time>2011-05-08T12:25:25.000Z</time>
      </trkpt>
      <trkpt lat="43.87266" lon="7.00218">
        <ele>341.79998779297</ele>
        <time>2011-05-08T12:25:27.000Z</time>
      </trkpt>
      <trkpt lat="43.87266" lon="7.00225">
        <ele>341.60000610352</ele>
        <time>2011-05-08T12:25:28.000Z</time>
      </trkpt>
      <trkpt lat="43.87267" lon="7.00247">
        <ele>341</ele>
        <time>2011-05-08T12:25:32.000Z</time>
      </trkpt>
      <trkpt lat="43.87267" lon="7.00252">
        <ele>341</ele>
        <time>2011-05-08T12:25:33.000Z</time>
      </trkpt>
      <trkpt lat="43.87266" lon="7.0026">
        <ele>341.20001220703</ele>
        <time>2011-05-08T12:25:35.000Z</time>
      </trkpt>
      <trkpt lat="43.87264" lon="7.00273">
        <ele>341.39999389648</ele>
        <time>2011-05-08T12:25:38.000Z</time>
      </trkpt>
      <trkpt lat="43.87264" lon="7.00277">
        <ele>341.60000610352</ele>
        <time>2011-05-08T12:25:39.000Z</time>
      </trkpt>
      <trkpt lat="43.87263" lon="7.003">
        <ele>341.60000610352</ele>
        <time>2011-05-08T12:25:44.000Z</time>
      </trkpt>
      <trkpt lat="43.87261" lon="7.00329">
        <ele>342</ele>
        <time>2011-05-08T12:25:49.000Z</time>
      </trkpt>
      <trkpt lat="43.87263" lon="7.0035">
        <ele>341</ele>
        <time>2011-05-08T12:25:52.000Z</time>
      </trkpt>
      <trkpt lat="43.87263" lon="7.00358">
        <ele>340.79998779297</ele>
        <time>2011-05-08T12:25:53.000Z</time>
      </trkpt>
      <trkpt lat="43.87263" lon="7.00366">
        <ele>340.60000610352</ele>
        <time>2011-05-08T12:25:54.000Z</time>
      </trkpt>
      <trkpt lat="43.87261" lon="7.00384">
        <ele>340.39999389648</ele>
        <time>2011-05-08T12:25:56.000Z</time>
      </trkpt>
      <trkpt lat="43.87261" lon="7.00393">
        <ele>340</ele>
        <time>2011-05-08T12:25:57.000Z</time>
      </trkpt>
      <trkpt lat="43.87263" lon="7.00411">
        <ele>339.20001220703</ele>
        <time>2011-05-08T12:25:59.000Z</time>
      </trkpt>
      <trkpt lat="43.87262" lon="7.00429">
        <ele>337.20001220703</ele>
        <time>2011-05-08T12:26:01.000Z</time>
      </trkpt>
      <trkpt lat="43.87261" lon="7.00438">
        <ele>336</ele>
        <time>2011-05-08T12:26:02.000Z</time>
      </trkpt>
      <trkpt lat="43.87259" lon="7.00448">
        <ele>334.79998779297</ele>
        <time>2011-05-08T12:26:03.000Z</time>
      </trkpt>
      <trkpt lat="43.87254" lon="7.00465">
        <ele>332.60000610352</ele>
        <time>2011-05-08T12:26:05.000Z</time>
      </trkpt>
      <trkpt lat="43.8725" lon="7.00484">
        <ele>329.79998779297</ele>
        <time>2011-05-08T12:26:07.000Z</time>
      </trkpt>
      <trkpt lat="43.8725" lon="7.00494">
        <ele>328.20001220703</ele>
        <time>2011-05-08T12:26:08.000Z</time>
      </trkpt>
      <trkpt lat="43.8725" lon="7.00504">
        <ele>326.60000610352</ele>
        <time>2011-05-08T12:26:09.000Z</time>
      </trkpt>
      <trkpt lat="43.87252" lon="7.00526">
        <ele>324</ele>
        <time>2011-05-08T12:26:11.000Z</time>
      </trkpt>
      <trkpt lat="43.87256" lon="7.00558">
        <ele>320.60000610352</ele>
        <time>2011-05-08T12:26:14.000Z</time>
      </trkpt>
      <trkpt lat="43.87257" lon="7.00579">
        <ele>318.60000610352</ele>
        <time>2011-05-08T12:26:16.000Z</time>
      </trkpt>
      <trkpt lat="43.87257" lon="7.00588">
        <ele>318</ele>
        <time>2011-05-08T12:26:17.000Z</time>
      </trkpt>
      <trkpt lat="43.87256" lon="7.00602">
        <ele>318</ele>
        <time>2011-05-08T12:26:19.000Z</time>
      </trkpt>
      <trkpt lat="43.87265" lon="7.00605">
        <ele>318.20001220703</ele>
        <time>2011-05-08T12:26:22.000Z</time>
      </trkpt>
      <trkpt lat="43.87269" lon="7.00606">
        <ele>318.20001220703</ele>
        <time>2011-05-08T12:26:23.000Z</time>
      </trkpt>
      <trkpt lat="43.87284" lon="7.00609">
        <ele>318.60000610352</ele>
        <time>2011-05-08T12:26:27.000Z</time>
      </trkpt>
      <trkpt lat="43.87288" lon="7.0061">
        <ele>318.60000610352</ele>
        <time>2011-05-08T12:26:28.000Z</time>
      </trkpt>
      <trkpt lat="43.87304" lon="7.00612">
        <ele>319</ele>
        <time>2011-05-08T12:26:32.000Z</time>
      </trkpt>
      <trkpt lat="43.87312" lon="7.00614">
        <ele>319.20001220703</ele>
        <time>2011-05-08T12:26:34.000Z</time>
      </trkpt>
      <trkpt lat="43.8732" lon="7.00617">
        <ele>319.20001220703</ele>
        <time>2011-05-08T12:26:36.000Z</time>
      </trkpt>
      <trkpt lat="43.87324" lon="7.00621">
        <ele>319.20001220703</ele>
        <time>2011-05-08T12:26:37.000Z</time>
      </trkpt>
      <trkpt lat="43.87332" lon="7.00629">
        <ele>319.39999389648</ele>
        <time>2011-05-08T12:26:39.000Z</time>
      </trkpt>
      <trkpt lat="43.87339" lon="7.0064">
        <ele>320.39999389648</ele>
        <time>2011-05-08T12:26:41.000Z</time>
      </trkpt>
      <trkpt lat="43.87346" lon="7.00649">
        <ele>321.60000610352</ele>
        <time>2011-05-08T12:26:43.000Z</time>
      </trkpt>
      <trkpt lat="43.87351" lon="7.00653">
        <ele>322.20001220703</ele>
        <time>2011-05-08T12:26:44.000Z</time>
      </trkpt>
      <trkpt lat="43.87355" lon="7.00656">
        <ele>323</ele>
        <time>2011-05-08T12:26:45.000Z</time>
      </trkpt>
      <trkpt lat="43.87365" lon="7.0066">
        <ele>324.79998779297</ele>
        <time>2011-05-08T12:26:47.000Z</time>
      </trkpt>
      <trkpt lat="43.87374" lon="7.00665">
        <ele>326.20001220703</ele>
        <time>2011-05-08T12:26:49.000Z</time>
      </trkpt>
      <trkpt lat="43.87389" lon="7.00681">
        <ele>327.79998779297</ele>
        <time>2011-05-08T12:26:53.000Z</time>
      </trkpt>
      <trkpt lat="43.87392" lon="7.00685">
        <ele>328</ele>
        <time>2011-05-08T12:26:54.000Z</time>
      </trkpt>
      <trkpt lat="43.874" lon="7.00701">
        <ele>328.20001220703</ele>
        <time>2011-05-08T12:26:57.000Z</time>
      </trkpt>
      <trkpt lat="43.87411" lon="7.00723">
        <ele>327.79998779297</ele>
        <time>2011-05-08T12:27:01.000Z</time>
      </trkpt>
      <trkpt lat="43.87419" lon="7.00738">
        <ele>327.79998779297</ele>
        <time>2011-05-08T12:27:04.000Z</time>
      </trkpt>
      <trkpt lat="43.87422" lon="7.00744">
        <ele>328.20001220703</ele>
        <time>2011-05-08T12:27:05.000Z</time>
      </trkpt>
      <trkpt lat="43.87424" lon="7.00749">
        <ele>328.39999389648</ele>
        <time>2011-05-08T12:27:06.000Z</time>
      </trkpt>
      <trkpt lat="43.87429" lon="7.00761">
        <ele>329.20001220703</ele>
        <time>2011-05-08T12:27:08.000Z</time>
      </trkpt>
      <trkpt lat="43.87432" lon="7.00766">
        <ele>329.60000610352</ele>
        <time>2011-05-08T12:27:09.000Z</time>
      </trkpt>
      <trkpt lat="43.87434" lon="7.00772">
        <ele>329.79998779297</ele>
        <time>2011-05-08T12:27:10.000Z</time>
      </trkpt>
      <trkpt lat="43.87439" lon="7.00783">
        <ele>330.39999389648</ele>
        <time>2011-05-08T12:27:12.000Z</time>
      </trkpt>
      <trkpt lat="43.87441" lon="7.00788">
        <ele>330.60000610352</ele>
        <time>2011-05-08T12:27:13.000Z</time>
      </trkpt>
      <trkpt lat="43.8745" lon="7.00811">
        <ele>331.39999389648</ele>
        <time>2011-05-08T12:27:17.000Z</time>
      </trkpt>
      <trkpt lat="43.87453" lon="7.00816">
        <ele>331.60000610352</ele>
        <time>2011-05-08T12:27:18.000Z</time>
      </trkpt>
      <trkpt lat="43.87458" lon="7.00831">
        <ele>331.39999389648</ele>
        <time>2011-05-08T12:27:21.000Z</time>
      </trkpt>
      <trkpt lat="43.8746" lon="7.00835">
        <ele>331.60000610352</ele>
        <time>2011-05-08T12:27:22.000Z</time>
      </trkpt>
      <trkpt lat="43.87464" lon="7.00845">
        <ele>332</ele>
        <time>2011-05-08T12:27:24.000Z</time>
      </trkpt>
      <trkpt lat="43.87466" lon="7.00849">
        <ele>332.20001220703</ele>
        <time>2011-05-08T12:27:25.000Z</time>
      </trkpt>
      <trkpt lat="43.87469" lon="7.00858">
        <ele>332.39999389648</ele>
        <time>2011-05-08T12:27:27.000Z</time>
      </trkpt>
      <trkpt lat="43.87473" lon="7.00872">
        <ele>332.20001220703</ele>
        <time>2011-05-08T12:27:30.000Z</time>
      </trkpt>
      <trkpt lat="43.87475" lon="7.00885">
        <ele>331.60000610352</ele>
        <time>2011-05-08T12:27:33.000Z</time>
      </trkpt>
      <trkpt lat="43.87478" lon="7.00905">
        <ele>330.39999389648</ele>
        <time>2011-05-08T12:27:37.000Z</time>
      </trkpt>
      <trkpt lat="43.87478" lon="7.0091">
        <ele>330</ele>
        <time>2011-05-08T12:27:38.000Z</time>
      </trkpt>
      <trkpt lat="43.87476" lon="7.00929">
        <ele>329.79998779297</ele>
        <time>2011-05-08T12:27:42.000Z</time>
      </trkpt>
      <trkpt lat="43.87472" lon="7.00936">
        <ele>330</ele>
        <time>2011-05-08T12:27:44.000Z</time>
      </trkpt>
      <trkpt lat="43.87465" lon="7.00941">
        <ele>330.20001220703</ele>
        <time>2011-05-08T12:27:46.000Z</time>
      </trkpt>
      <trkpt lat="43.87451" lon="7.00941">
        <ele>330.20001220703</ele>
        <time>2011-05-08T12:27:49.000Z</time>
      </trkpt>
      <trkpt lat="43.87433" lon="7.00946">
        <ele>331</ele>
        <time>2011-05-08T12:27:53.000Z</time>
      </trkpt>
      <trkpt lat="43.87428" lon="7.00947">
        <ele>331.20001220703</ele>
        <time>2011-05-08T12:27:54.000Z</time>
      </trkpt>
      <trkpt lat="43.87423" lon="7.00947">
        <ele>331.20001220703</ele>
        <time>2011-05-08T12:27:55.000Z</time>
      </trkpt>
      <trkpt lat="43.87414" lon="7.00945">
        <ele>331.79998779297</ele>
        <time>2011-05-08T12:27:57.000Z</time>
      </trkpt>
      <trkpt lat="43.87409" lon="7.00943">
        <ele>332.60000610352</ele>
        <time>2011-05-08T12:27:58.000Z</time>
      </trkpt>
      <trkpt lat="43.87397" lon="7.00932">
        <ele>333.79998779297</ele>
        <time>2011-05-08T12:28:01.000Z</time>
      </trkpt>
      <trkpt lat="43.87394" lon="7.00929">
        <ele>334</ele>
        <time>2011-05-08T12:28:02.000Z</time>
      </trkpt>
      <trkpt lat="43.87388" lon="7.00922">
        <ele>334</ele>
        <time>2011-05-08T12:28:04.000Z</time>
      </trkpt>
      <trkpt lat="43.87385" lon="7.00911">
        <ele>333.20001220703</ele>
        <time>2011-05-08T12:28:06.000Z</time>
      </trkpt>
      <trkpt lat="43.87384" lon="7.00906">
        <ele>332.79998779297</ele>
        <time>2011-05-08T12:28:07.000Z</time>
      </trkpt>
      <trkpt lat="43.87382" lon="7.00902">
        <ele>332.60000610352</ele>
        <time>2011-05-08T12:28:08.000Z</time>
      </trkpt>
      <trkpt lat="43.87376" lon="7.00888">
        <ele>331.79998779297</ele>
        <time>2011-05-08T12:28:11.000Z</time>
      </trkpt>
      <trkpt lat="43.87374" lon="7.00882">
        <ele>331.20001220703</ele>
        <time>2011-05-08T12:28:12.000Z</time>
      </trkpt>
      <trkpt lat="43.87374" lon="7.00866">
        <ele>329</ele>
        <time>2011-05-08T12:28:15.000Z</time>
      </trkpt>
      <trkpt lat="43.87376" lon="7.00862">
        <ele>328.20001220703</ele>
        <time>2011-05-08T12:28:16.000Z</time>
      </trkpt>
      <trkpt lat="43.8738" lon="7.00856">
        <ele>326.79998779297</ele>
        <time>2011-05-08T12:28:18.000Z</time>
      </trkpt>
      <trkpt lat="43.87381" lon="7.00848">
        <ele>325.60000610352</ele>
        <time>2011-05-08T12:28:22.000Z</time>
      </trkpt>
      <trkpt lat="43.87385" lon="7.00852">
        <ele>325.79998779297</ele>
        <time>2011-05-08T12:28:30.000Z</time>
      </trkpt>
      <trkpt lat="43.87383" lon="7.00854">
        <ele>326.20001220703</ele>
        <time>2011-05-08T12:28:32.000Z</time>
      </trkpt>
      <trkpt lat="43.87383" lon="7.00854">
        <ele>326.20001220703</ele>
        <time>2011-05-08T12:28:33.000Z</time>
      </trkpt>
      <trkpt lat="43.8738" lon="7.00858">
        <ele>327</ele>
        <time>2011-05-08T12:28:35.000Z</time>
      </trkpt>
      <trkpt lat="43.87372" lon="7.00862">
        <ele>328.60000610352</ele>
        <time>2011-05-08T12:28:40.000Z</time>
      </trkpt>
      <trkpt lat="43.87365" lon="7.0087">
        <ele>330.79998779297</ele>
        <time>2011-05-08T12:29:07.000Z</time>
      </trkpt>
      <trkpt lat="43.87364" lon="7.00887">
        <ele>333.79998779297</ele>
        <time>2011-05-08T12:30:33.000Z</time>
      </trkpt>
      <trkpt lat="43.87366" lon="7.00878">
        <ele>332.20001220703</ele>
        <time>2011-05-08T12:30:42.000Z</time>
      </trkpt>
    </trkseg>
  </trk>
</gpx>